<?xml version='1.0' encoding='UTF-8'?><gpx version="1.1" creator="JPX - https://github.com/jenetics/jpx" xmlns="http://www.topografix.com/GPX/1/1"><trk><trkseg><trkpt lat="44.7565121" lon="9.3825263"><ele>265.0</ele><time>2026-04-23T08:07:55.719Z</time></trkpt><trkpt lat="44.7564489" lon="9.3824903"><ele>265.0</ele><time>2026-04-23T08:07:57.799Z</time></trkpt><trkpt lat="44.7563375" lon="9.3824799"><ele>265.0</ele><time>2026-04-23T08:08:00.815Z</time></trkpt><trkpt lat="44.7562792" lon="9.3825707"><ele>265.0</ele><time>2026-04-23T08:08:02.791Z</time></trkpt><trkpt lat="44.7562879" lon="9.3826729"><ele>265.0</ele><time>2026-04-23T08:08:05.708Z</time></trkpt><trkpt lat="44.7562822" lon="9.3825754"><ele>265.0</ele><time>2026-04-23T08:08:07.783Z</time></trkpt><trkpt lat="44.7563679" lon="9.3826438"><ele>265.0</ele><time>2026-04-23T08:09:44.715Z</time></trkpt><trkpt lat="44.7564463" lon="9.3826984"><ele>265.0</ele><time>2026-04-23T08:09:46.714Z</time></trkpt><trkpt lat="44.7565544" lon="9.3827755"><ele>265.0</ele><time>2026-04-23T08:09:48.714Z</time></trkpt><trkpt lat="44.7566614" lon="9.3828409"><ele>265.0</ele><time>2026-04-23T08:09:50.716Z</time></trkpt><trkpt lat="44.7567754" lon="9.3828775"><ele>265.0</ele><time>2026-04-23T08:09:52.716Z</time></trkpt><trkpt lat="44.7568927" lon="9.3829068"><ele>264.8333333333333</ele><time>2026-04-23T08:09:54.719Z</time></trkpt><trkpt lat="44.7570203" lon="9.3829432"><ele>264.66666666666663</ele><time>2026-04-23T08:09:56.716Z</time></trkpt><trkpt lat="44.757091" lon="9.3829666"><ele>264.5</ele><time>2026-04-23T08:09:57.714Z</time></trkpt><trkpt lat="44.7571526" lon="9.3829865"><ele>264.3333333333333</ele><time>2026-04-23T08:09:58.715Z</time></trkpt><trkpt lat="44.7572167" lon="9.3830117"><ele>264.1666666666667</ele><time>2026-04-23T08:09:59.715Z</time></trkpt><trkpt lat="44.75728" lon="9.3830267"><ele>264.0</ele><time>2026-04-23T08:10:00.714Z</time></trkpt><trkpt lat="44.7573483" lon="9.3830533"><ele>263.5</ele><time>2026-04-23T08:10:01.713Z</time></trkpt><trkpt lat="44.7574217" lon="9.38308"><ele>263.0</ele><time>2026-04-23T08:10:02.715Z</time></trkpt><trkpt lat="44.7574967" lon="9.3831083"><ele>262.5</ele><time>2026-04-23T08:10:03.713Z</time></trkpt><trkpt lat="44.7575717" lon="9.3831383"><ele>262.0</ele><time>2026-04-23T08:10:04.714Z</time></trkpt><trkpt lat="44.7576517" lon="9.3831683"><ele>261.5</ele><time>2026-04-23T08:10:05.714Z</time></trkpt><trkpt lat="44.7577283" lon="9.383195"><ele>261.0</ele><time>2026-04-23T08:10:06.714Z</time></trkpt><trkpt lat="44.7578083" lon="9.3832267"><ele>261.0</ele><time>2026-04-23T08:10:07.714Z</time></trkpt><trkpt lat="44.757885" lon="9.3832533"><ele>261.0</ele><time>2026-04-23T08:10:08.713Z</time></trkpt><trkpt lat="44.75796" lon="9.383285"><ele>261.0</ele><time>2026-04-23T08:10:09.714Z</time></trkpt><trkpt lat="44.758035" lon="9.3833133"><ele>261.0</ele><time>2026-04-23T08:10:10.715Z</time></trkpt><trkpt lat="44.7581133" lon="9.383345"><ele>261.0</ele><time>2026-04-23T08:10:11.714Z</time></trkpt><trkpt lat="44.7581883" lon="9.383375"><ele>261.0</ele><time>2026-04-23T08:10:12.714Z</time></trkpt><trkpt lat="44.758265" lon="9.38341"><ele>261.0</ele><time>2026-04-23T08:10:13.715Z</time></trkpt><trkpt lat="44.7583433" lon="9.383445"><ele>261.0</ele><time>2026-04-23T08:10:14.714Z</time></trkpt><trkpt lat="44.7584183" lon="9.3834683"><ele>261.0</ele><time>2026-04-23T08:10:15.713Z</time></trkpt><trkpt lat="44.7584917" lon="9.3834967"><ele>261.0</ele><time>2026-04-23T08:10:16.715Z</time></trkpt><trkpt lat="44.758565" lon="9.3835233"><ele>261.0</ele><time>2026-04-23T08:10:17.714Z</time></trkpt><trkpt lat="44.7586383" lon="9.3835417"><ele>261.0</ele><time>2026-04-23T08:10:18.713Z</time></trkpt><trkpt lat="44.7587133" lon="9.38357"><ele>261.0</ele><time>2026-04-23T08:10:19.713Z</time></trkpt><trkpt lat="44.7587867" lon="9.38358"><ele>261.0</ele><time>2026-04-23T08:10:20.713Z</time></trkpt><trkpt lat="44.7588633" lon="9.3835833"><ele>261.0</ele><time>2026-04-23T08:10:21.713Z</time></trkpt><trkpt lat="44.7589233" lon="9.383555"><ele>261.0</ele><time>2026-04-23T08:10:22.713Z</time></trkpt><trkpt lat="44.7589767" lon="9.383425"><ele>261.0</ele><time>2026-04-23T08:10:24.714Z</time></trkpt><trkpt lat="44.758935" lon="9.3832633"><ele>261.0</ele><time>2026-04-23T08:10:26.713Z</time></trkpt><trkpt lat="44.7589033" lon="9.3831017"><ele>261.1666666666667</ele><time>2026-04-23T08:10:28.714Z</time></trkpt><trkpt lat="44.7588867" lon="9.3829217"><ele>261.3333333333333</ele><time>2026-04-23T08:10:30.714Z</time></trkpt><trkpt lat="44.7588783" lon="9.3828183"><ele>261.5</ele><time>2026-04-23T08:10:31.714Z</time></trkpt><trkpt lat="44.7588683" lon="9.3827117"><ele>261.66666666666663</ele><time>2026-04-23T08:10:32.713Z</time></trkpt><trkpt lat="44.75886" lon="9.3826083"><ele>261.8333333333333</ele><time>2026-04-23T08:10:33.713Z</time></trkpt><trkpt lat="44.7588517" lon="9.3825033"><ele>262.0</ele><time>2026-04-23T08:10:34.714Z</time></trkpt><trkpt lat="44.7588467" lon="9.3823983"><ele>262.0</ele><time>2026-04-23T08:10:35.712Z</time></trkpt><trkpt lat="44.7588567" lon="9.3822983"><ele>262.0</ele><time>2026-04-23T08:10:36.713Z</time></trkpt><trkpt lat="44.7588733" lon="9.3822033"><ele>262.0</ele><time>2026-04-23T08:10:37.713Z</time></trkpt><trkpt lat="44.7589" lon="9.3821167"><ele>262.0</ele><time>2026-04-23T08:10:38.713Z</time></trkpt><trkpt lat="44.7589317" lon="9.3820383"><ele>262.0</ele><time>2026-04-23T08:10:39.713Z</time></trkpt><trkpt lat="44.7590033" lon="9.38191"><ele>262.0</ele><time>2026-04-23T08:10:41.713Z</time></trkpt><trkpt lat="44.759075" lon="9.3818333"><ele>262.66666666666663</ele><time>2026-04-23T08:10:43.713Z</time></trkpt><trkpt lat="44.75913" lon="9.38179"><ele>263.3333333333333</ele><time>2026-04-23T08:10:45.713Z</time></trkpt><trkpt lat="44.75921" lon="9.38173"><ele>264.0</ele><time>2026-04-23T08:10:47.714Z</time></trkpt><trkpt lat="44.7592817" lon="9.3817"><ele>264.6666666666667</ele><time>2026-04-23T08:10:48.713Z</time></trkpt><trkpt lat="44.75937" lon="9.38167"><ele>265.33333333333337</ele><time>2026-04-23T08:10:49.714Z</time></trkpt><trkpt lat="44.7594617" lon="9.3816583"><ele>266.0</ele><time>2026-04-23T08:10:50.714Z</time></trkpt><trkpt lat="44.7595417" lon="9.3816517"><ele>266.0</ele><time>2026-04-23T08:10:51.713Z</time></trkpt><trkpt lat="44.7596117" lon="9.3816417"><ele>266.0</ele><time>2026-04-23T08:10:52.715Z</time></trkpt><trkpt lat="44.7596783" lon="9.38162"><ele>266.0</ele><time>2026-04-23T08:10:53.714Z</time></trkpt><trkpt lat="44.759715" lon="9.3815267"><ele>266.0</ele><time>2026-04-23T08:10:55.713Z</time></trkpt><trkpt lat="44.759645" lon="9.3814317"><ele>266.0</ele><time>2026-04-23T08:10:57.713Z</time></trkpt><trkpt lat="44.7595667" lon="9.3814017"><ele>266.0</ele><time>2026-04-23T08:10:58.714Z</time></trkpt><trkpt lat="44.7594967" lon="9.3813783"><ele>266.0</ele><time>2026-04-23T08:10:59.713Z</time></trkpt><trkpt lat="44.7594233" lon="9.381355"><ele>266.0</ele><time>2026-04-23T08:11:00.713Z</time></trkpt><trkpt lat="44.7593467" lon="9.3813317"><ele>266.0</ele><time>2026-04-23T08:11:01.714Z</time></trkpt><trkpt lat="44.759265" lon="9.381315"><ele>266.0</ele><time>2026-04-23T08:11:02.715Z</time></trkpt><trkpt lat="44.7591883" lon="9.3812933"><ele>266.0</ele><time>2026-04-23T08:11:03.713Z</time></trkpt><trkpt lat="44.7591117" lon="9.3812617"><ele>266.0</ele><time>2026-04-23T08:11:04.713Z</time></trkpt><trkpt lat="44.7590283" lon="9.3812317"><ele>268.40000000000003</ele><time>2026-04-23T08:11:05.713Z</time></trkpt><trkpt lat="44.7589317" lon="9.3812"><ele>270.8</ele><time>2026-04-23T08:11:06.713Z</time></trkpt><trkpt lat="44.75883" lon="9.381165"><ele>273.20000000000005</ele><time>2026-04-23T08:11:07.714Z</time></trkpt><trkpt lat="44.7587267" lon="9.3811317"><ele>275.6</ele><time>2026-04-23T08:11:08.714Z</time></trkpt><trkpt lat="44.758625" lon="9.3811067"><ele>278.0</ele><time>2026-04-23T08:11:09.713Z</time></trkpt><trkpt lat="44.7585333" lon="9.3810833"><ele>278.0</ele><time>2026-04-23T08:11:10.715Z</time></trkpt><trkpt lat="44.758445" lon="9.3810633"><ele>278.0</ele><time>2026-04-23T08:11:11.715Z</time></trkpt><trkpt lat="44.75836" lon="9.381045"><ele>278.0</ele><time>2026-04-23T08:11:12.714Z</time></trkpt><trkpt lat="44.7582783" lon="9.3810133"><ele>278.0</ele><time>2026-04-23T08:11:13.713Z</time></trkpt><trkpt lat="44.7581933" lon="9.3809717"><ele>278.0</ele><time>2026-04-23T08:11:14.714Z</time></trkpt><trkpt lat="44.7581067" lon="9.380925"><ele>278.0</ele><time>2026-04-23T08:11:15.713Z</time></trkpt><trkpt lat="44.7580133" lon="9.3808783"><ele>278.0</ele><time>2026-04-23T08:11:16.716Z</time></trkpt><trkpt lat="44.7579133" lon="9.38085"><ele>278.0</ele><time>2026-04-23T08:11:17.715Z</time></trkpt><trkpt lat="44.75781" lon="9.380825"><ele>278.0</ele><time>2026-04-23T08:11:18.715Z</time></trkpt><trkpt lat="44.7577083" lon="9.3807983"><ele>278.0</ele><time>2026-04-23T08:11:19.713Z</time></trkpt><trkpt lat="44.7576133" lon="9.380765"><ele>278.0</ele><time>2026-04-23T08:11:20.714Z</time></trkpt><trkpt lat="44.757515" lon="9.3807233"><ele>278.25</ele><time>2026-04-23T08:11:21.713Z</time></trkpt><trkpt lat="44.757405" lon="9.380665"><ele>278.5</ele><time>2026-04-23T08:11:22.713Z</time></trkpt><trkpt lat="44.7572933" lon="9.380595"><ele>278.75</ele><time>2026-04-23T08:11:23.715Z</time></trkpt><trkpt lat="44.7571883" lon="9.3805267"><ele>279.0</ele><time>2026-04-23T08:11:24.714Z</time></trkpt><trkpt lat="44.7570883" lon="9.3804617"><ele>280.0</ele><time>2026-04-23T08:11:25.714Z</time></trkpt><trkpt lat="44.757" lon="9.3804"><ele>281.0</ele><time>2026-04-23T08:11:26.715Z</time></trkpt><trkpt lat="44.7569067" lon="9.3803417"><ele>282.0</ele><time>2026-04-23T08:11:27.713Z</time></trkpt><trkpt lat="44.7568083" lon="9.3802717"><ele>283.0</ele><time>2026-04-23T08:11:28.715Z</time></trkpt><trkpt lat="44.7567" lon="9.3802017"><ele>284.0</ele><time>2026-04-23T08:11:29.713Z</time></trkpt><trkpt lat="44.7565867" lon="9.3801433"><ele>284.0</ele><time>2026-04-23T08:11:30.714Z</time></trkpt><trkpt lat="44.756475" lon="9.380075"><ele>284.0</ele><time>2026-04-23T08:11:31.713Z</time></trkpt><trkpt lat="44.7563733" lon="9.38001"><ele>284.0</ele><time>2026-04-23T08:11:32.714Z</time></trkpt><trkpt lat="44.7562817" lon="9.3799467"><ele>284.0</ele><time>2026-04-23T08:11:33.713Z</time></trkpt><trkpt lat="44.7561867" lon="9.3798717"><ele>284.0</ele><time>2026-04-23T08:11:34.714Z</time></trkpt><trkpt lat="44.75609" lon="9.3797817"><ele>284.0</ele><time>2026-04-23T08:11:35.715Z</time></trkpt><trkpt lat="44.756" lon="9.3796833"><ele>284.0</ele><time>2026-04-23T08:11:36.714Z</time></trkpt><trkpt lat="44.7559283" lon="9.3795867"><ele>284.0</ele><time>2026-04-23T08:11:37.717Z</time></trkpt><trkpt lat="44.7558617" lon="9.379485"><ele>284.0</ele><time>2026-04-23T08:11:38.714Z</time></trkpt><trkpt lat="44.755795" lon="9.379385"><ele>284.0</ele><time>2026-04-23T08:11:39.713Z</time></trkpt><trkpt lat="44.7557183" lon="9.3792917"><ele>284.0</ele><time>2026-04-23T08:11:40.713Z</time></trkpt><trkpt lat="44.75565" lon="9.379195"><ele>284.0</ele><time>2026-04-23T08:11:41.713Z</time></trkpt><trkpt lat="44.7555933" lon="9.3790833"><ele>284.0</ele><time>2026-04-23T08:11:42.713Z</time></trkpt><trkpt lat="44.7555583" lon="9.3789567"><ele>284.0</ele><time>2026-04-23T08:11:43.713Z</time></trkpt><trkpt lat="44.7555417" lon="9.37881"><ele>284.0</ele><time>2026-04-23T08:11:44.715Z</time></trkpt><trkpt lat="44.755535" lon="9.37866"><ele>284.5</ele><time>2026-04-23T08:11:45.713Z</time></trkpt><trkpt lat="44.755525" lon="9.378505"><ele>285.0</ele><time>2026-04-23T08:11:46.714Z</time></trkpt><trkpt lat="44.7555067" lon="9.3783433"><ele>285.5</ele><time>2026-04-23T08:11:47.712Z</time></trkpt><trkpt lat="44.755475" lon="9.37818"><ele>286.0</ele><time>2026-04-23T08:11:48.713Z</time></trkpt><trkpt lat="44.7554367" lon="9.3780183"><ele>287.0</ele><time>2026-04-23T08:11:49.713Z</time></trkpt><trkpt lat="44.7553883" lon="9.3778583"><ele>288.0</ele><time>2026-04-23T08:11:50.714Z</time></trkpt><trkpt lat="44.755345" lon="9.3777017"><ele>289.0</ele><time>2026-04-23T08:11:51.713Z</time></trkpt><trkpt lat="44.7553117" lon="9.3775433"><ele>290.0</ele><time>2026-04-23T08:11:52.713Z</time></trkpt><trkpt lat="44.7552917" lon="9.3773833"><ele>290.0</ele><time>2026-04-23T08:11:53.714Z</time></trkpt><trkpt lat="44.75528" lon="9.3772117"><ele>290.0</ele><time>2026-04-23T08:11:54.714Z</time></trkpt><trkpt lat="44.7552833" lon="9.3770433"><ele>290.0</ele><time>2026-04-23T08:11:55.714Z</time></trkpt><trkpt lat="44.755295" lon="9.3768933"><ele>290.0</ele><time>2026-04-23T08:11:56.714Z</time></trkpt><trkpt lat="44.755305" lon="9.37677"><ele>290.0</ele><time>2026-04-23T08:11:57.713Z</time></trkpt><trkpt lat="44.7553017" lon="9.3766633"><ele>290.4</ele><time>2026-04-23T08:11:58.714Z</time></trkpt><trkpt lat="44.7552733" lon="9.376565"><ele>290.8</ele><time>2026-04-23T08:11:59.714Z</time></trkpt><trkpt lat="44.7551867" lon="9.3764833"><ele>291.2</ele><time>2026-04-23T08:12:00.713Z</time></trkpt><trkpt lat="44.7550933" lon="9.3763883"><ele>291.6</ele><time>2026-04-23T08:12:01.715Z</time></trkpt><trkpt lat="44.7549867" lon="9.3762817"><ele>292.0</ele><time>2026-04-23T08:12:02.714Z</time></trkpt><trkpt lat="44.7548683" lon="9.3761783"><ele>294.0</ele><time>2026-04-23T08:12:03.713Z</time></trkpt><trkpt lat="44.754745" lon="9.3760767"><ele>296.0</ele><time>2026-04-23T08:12:04.713Z</time></trkpt><trkpt lat="44.754615" lon="9.3759633"><ele>298.0</ele><time>2026-04-23T08:12:05.719Z</time></trkpt><trkpt lat="44.7544867" lon="9.3758367"><ele>298.0</ele><time>2026-04-23T08:12:06.713Z</time></trkpt><trkpt lat="44.7543733" lon="9.3757133"><ele>298.0</ele><time>2026-04-23T08:12:07.714Z</time></trkpt><trkpt lat="44.7542733" lon="9.3755967"><ele>298.0</ele><time>2026-04-23T08:12:08.713Z</time></trkpt><trkpt lat="44.7541883" lon="9.3754967"><ele>298.0</ele><time>2026-04-23T08:12:09.718Z</time></trkpt><trkpt lat="44.7541117" lon="9.3754033"><ele>298.16666666666663</ele><time>2026-04-23T08:12:10.713Z</time></trkpt><trkpt lat="44.75404" lon="9.3753233"><ele>298.3333333333333</ele><time>2026-04-23T08:12:11.713Z</time></trkpt><trkpt lat="44.7539717" lon="9.3752567"><ele>298.5</ele><time>2026-04-23T08:12:12.713Z</time></trkpt><trkpt lat="44.7539067" lon="9.375195"><ele>298.6666666666667</ele><time>2026-04-23T08:12:13.713Z</time></trkpt><trkpt lat="44.7538417" lon="9.3751317"><ele>298.83333333333337</ele><time>2026-04-23T08:12:14.714Z</time></trkpt><trkpt lat="44.753775" lon="9.3750667"><ele>299.0</ele><time>2026-04-23T08:12:15.713Z</time></trkpt><trkpt lat="44.753705" lon="9.3749983"><ele>299.0</ele><time>2026-04-23T08:12:16.713Z</time></trkpt><trkpt lat="44.75362" lon="9.3749233"><ele>299.0</ele><time>2026-04-23T08:12:17.713Z</time></trkpt><trkpt lat="44.753525" lon="9.3748417"><ele>299.0</ele><time>2026-04-23T08:12:18.713Z</time></trkpt><trkpt lat="44.7534217" lon="9.3747417"><ele>299.0</ele><time>2026-04-23T08:12:19.715Z</time></trkpt><trkpt lat="44.7533133" lon="9.3746233"><ele>299.5</ele><time>2026-04-23T08:12:20.715Z</time></trkpt><trkpt lat="44.753205" lon="9.37449"><ele>300.0</ele><time>2026-04-23T08:12:21.713Z</time></trkpt><trkpt lat="44.7531017" lon="9.3743467"><ele>300.5</ele><time>2026-04-23T08:12:22.713Z</time></trkpt><trkpt lat="44.7530033" lon="9.3742017"><ele>301.0</ele><time>2026-04-23T08:12:23.715Z</time></trkpt><trkpt lat="44.7529067" lon="9.37405"><ele>301.0</ele><time>2026-04-23T08:12:24.715Z</time></trkpt><trkpt lat="44.7528183" lon="9.3738983"><ele>301.0</ele><time>2026-04-23T08:12:25.714Z</time></trkpt><trkpt lat="44.7527367" lon="9.37376"><ele>301.0</ele><time>2026-04-23T08:12:26.714Z</time></trkpt><trkpt lat="44.7526683" lon="9.37363"><ele>301.0</ele><time>2026-04-23T08:12:27.713Z</time></trkpt><trkpt lat="44.7526033" lon="9.3735083"><ele>301.5</ele><time>2026-04-23T08:12:28.713Z</time></trkpt><trkpt lat="44.7525517" lon="9.3733783"><ele>302.0</ele><time>2026-04-23T08:12:29.714Z</time></trkpt><trkpt lat="44.7525083" lon="9.3732317"><ele>302.5</ele><time>2026-04-23T08:12:30.713Z</time></trkpt><trkpt lat="44.75246" lon="9.373075"><ele>303.0</ele><time>2026-04-23T08:12:31.713Z</time></trkpt><trkpt lat="44.75241" lon="9.37292"><ele>305.0</ele><time>2026-04-23T08:12:32.715Z</time></trkpt><trkpt lat="44.7523683" lon="9.3727817"><ele>307.0</ele><time>2026-04-23T08:12:33.713Z</time></trkpt><trkpt lat="44.7523333" lon="9.3726583"><ele>309.0</ele><time>2026-04-23T08:12:34.714Z</time></trkpt><trkpt lat="44.752305" lon="9.3725467"><ele>311.0</ele><time>2026-04-23T08:12:35.714Z</time></trkpt><trkpt lat="44.752275" lon="9.372435"><ele>313.0</ele><time>2026-04-23T08:12:36.713Z</time></trkpt><trkpt lat="44.7522367" lon="9.3723167"><ele>313.0</ele><time>2026-04-23T08:12:37.715Z</time></trkpt><trkpt lat="44.7521933" lon="9.372195"><ele>313.0</ele><time>2026-04-23T08:12:38.714Z</time></trkpt><trkpt lat="44.7521433" lon="9.37207"><ele>313.0</ele><time>2026-04-23T08:12:39.713Z</time></trkpt><trkpt lat="44.7520833" lon="9.3719583"><ele>313.0</ele><time>2026-04-23T08:12:40.715Z</time></trkpt><trkpt lat="44.752015" lon="9.37186"><ele>313.0</ele><time>2026-04-23T08:12:41.713Z</time></trkpt><trkpt lat="44.751945" lon="9.371765"><ele>311.8</ele><time>2026-04-23T08:12:42.713Z</time></trkpt><trkpt lat="44.7518933" lon="9.3716467"><ele>310.6</ele><time>2026-04-23T08:12:43.714Z</time></trkpt><trkpt lat="44.7518683" lon="9.37151"><ele>309.4</ele><time>2026-04-23T08:12:44.714Z</time></trkpt><trkpt lat="44.7518633" lon="9.3713633"><ele>308.2</ele><time>2026-04-23T08:12:45.715Z</time></trkpt><trkpt lat="44.7518617" lon="9.3712133"><ele>307.0</ele><time>2026-04-23T08:12:46.713Z</time></trkpt><trkpt lat="44.75184" lon="9.3710683"><ele>311.2</ele><time>2026-04-23T08:12:47.714Z</time></trkpt><trkpt lat="44.751805" lon="9.3709267"><ele>315.4</ele><time>2026-04-23T08:12:48.713Z</time></trkpt><trkpt lat="44.75177" lon="9.3707817"><ele>319.59999999999997</ele><time>2026-04-23T08:12:49.714Z</time></trkpt><trkpt lat="44.751745" lon="9.370625"><ele>323.79999999999995</ele><time>2026-04-23T08:12:50.717Z</time></trkpt><trkpt lat="44.75173" lon="9.370465"><ele>328.0</ele><time>2026-04-23T08:12:51.713Z</time></trkpt><trkpt lat="44.7517167" lon="9.3703"><ele>332.25</ele><time>2026-04-23T08:12:52.714Z</time></trkpt><trkpt lat="44.7517083" lon="9.3701333"><ele>336.5</ele><time>2026-04-23T08:12:53.715Z</time></trkpt><trkpt lat="44.7516983" lon="9.3699667"><ele>340.75</ele><time>2026-04-23T08:12:54.713Z</time></trkpt><trkpt lat="44.7516883" lon="9.3697967"><ele>345.0</ele><time>2026-04-23T08:12:55.714Z</time></trkpt><trkpt lat="44.75168" lon="9.3696283"><ele>348.25</ele><time>2026-04-23T08:12:56.714Z</time></trkpt><trkpt lat="44.751675" lon="9.3694583"><ele>351.5</ele><time>2026-04-23T08:12:57.712Z</time></trkpt><trkpt lat="44.7516733" lon="9.3692883"><ele>354.75</ele><time>2026-04-23T08:12:58.712Z</time></trkpt><trkpt lat="44.7516767" lon="9.3691167"><ele>358.0</ele><time>2026-04-23T08:12:59.714Z</time></trkpt><trkpt lat="44.7516833" lon="9.36895"><ele>359.75</ele><time>2026-04-23T08:13:00.713Z</time></trkpt><trkpt lat="44.7516967" lon="9.3687883"><ele>361.5</ele><time>2026-04-23T08:13:01.712Z</time></trkpt><trkpt lat="44.751725" lon="9.3686283"><ele>363.25</ele><time>2026-04-23T08:13:02.713Z</time></trkpt><trkpt lat="44.751765" lon="9.3684783"><ele>365.0</ele><time>2026-04-23T08:13:03.712Z</time></trkpt><trkpt lat="44.7518133" lon="9.3683467"><ele>365.0</ele><time>2026-04-23T08:13:04.712Z</time></trkpt><trkpt lat="44.7518633" lon="9.3682167"><ele>365.0</ele><time>2026-04-23T08:13:05.713Z</time></trkpt><trkpt lat="44.7519033" lon="9.3680867"><ele>365.0</ele><time>2026-04-23T08:13:06.713Z</time></trkpt><trkpt lat="44.751925" lon="9.36796"><ele>365.0</ele><time>2026-04-23T08:13:07.713Z</time></trkpt><trkpt lat="44.75192" lon="9.36784"><ele>365.0</ele><time>2026-04-23T08:13:08.713Z</time></trkpt><trkpt lat="44.7519" lon="9.3677183"><ele>366.33333333333337</ele><time>2026-04-23T08:13:09.713Z</time></trkpt><trkpt lat="44.7518733" lon="9.3675917"><ele>367.6666666666667</ele><time>2026-04-23T08:13:10.712Z</time></trkpt><trkpt lat="44.7518433" lon="9.3674783"><ele>369.0</ele><time>2026-04-23T08:13:11.713Z</time></trkpt><trkpt lat="44.75181" lon="9.367385"><ele>370.3333333333333</ele><time>2026-04-23T08:13:12.712Z</time></trkpt><trkpt lat="44.7517533" lon="9.36728"><ele>371.66666666666663</ele><time>2026-04-23T08:13:14.713Z</time></trkpt><trkpt lat="44.7516767" lon="9.3672467"><ele>373.0</ele><time>2026-04-23T08:13:18.713Z</time></trkpt><trkpt lat="44.7516017" lon="9.36721"><ele>374.0</ele><time>2026-04-23T08:13:20.712Z</time></trkpt><trkpt lat="44.7515417" lon="9.3671767"><ele>375.0</ele><time>2026-04-23T08:13:21.712Z</time></trkpt><trkpt lat="44.751475" lon="9.3671233"><ele>376.0</ele><time>2026-04-23T08:13:22.714Z</time></trkpt><trkpt lat="44.7514117" lon="9.3670483"><ele>377.0</ele><time>2026-04-23T08:13:23.712Z</time></trkpt><trkpt lat="44.7513583" lon="9.3669583"><ele>378.0</ele><time>2026-04-23T08:13:24.713Z</time></trkpt><trkpt lat="44.751325" lon="9.3668517"><ele>379.0</ele><time>2026-04-23T08:13:25.712Z</time></trkpt><trkpt lat="44.7513067" lon="9.3667383"><ele>379.0</ele><time>2026-04-23T08:13:26.712Z</time></trkpt><trkpt lat="44.7512983" lon="9.3666117"><ele>379.0</ele><time>2026-04-23T08:13:27.712Z</time></trkpt><trkpt lat="44.751295" lon="9.3664683"><ele>379.0</ele><time>2026-04-23T08:13:28.713Z</time></trkpt><trkpt lat="44.75127" lon="9.3663367"><ele>379.0</ele><time>2026-04-23T08:13:29.716Z</time></trkpt><trkpt lat="44.7512183" lon="9.3661883"><ele>379.0</ele><time>2026-04-23T08:13:30.713Z</time></trkpt><trkpt lat="44.7511483" lon="9.3660467"><ele>378.2</ele><time>2026-04-23T08:13:31.712Z</time></trkpt><trkpt lat="44.7510667" lon="9.3659333"><ele>377.4</ele><time>2026-04-23T08:13:32.713Z</time></trkpt><trkpt lat="44.7509733" lon="9.36587"><ele>376.6</ele><time>2026-04-23T08:13:33.713Z</time></trkpt><trkpt lat="44.750865" lon="9.3658367"><ele>375.8</ele><time>2026-04-23T08:13:34.713Z</time></trkpt><trkpt lat="44.7507683" lon="9.3658217"><ele>375.0</ele><time>2026-04-23T08:13:35.713Z</time></trkpt><trkpt lat="44.7506983" lon="9.3658217"><ele>375.0</ele><time>2026-04-23T08:13:36.713Z</time></trkpt><trkpt lat="44.75063" lon="9.3658133"><ele>375.0</ele><time>2026-04-23T08:13:38.714Z</time></trkpt><trkpt lat="44.75062" lon="9.36566"><ele>375.0</ele><time>2026-04-23T08:13:42.712Z</time></trkpt><trkpt lat="44.7506667" lon="9.365515"><ele>375.0</ele><time>2026-04-23T08:13:44.713Z</time></trkpt><trkpt lat="44.75071" lon="9.3654383"><ele>375.0</ele><time>2026-04-23T08:13:45.712Z</time></trkpt><trkpt lat="44.7507583" lon="9.3653533"><ele>375.0</ele><time>2026-04-23T08:13:46.713Z</time></trkpt><trkpt lat="44.7508133" lon="9.3652633"><ele>376.6666666666667</ele><time>2026-04-23T08:13:47.712Z</time></trkpt><trkpt lat="44.750865" lon="9.3651767"><ele>378.33333333333337</ele><time>2026-04-23T08:13:48.714Z</time></trkpt><trkpt lat="44.7509117" lon="9.3651"><ele>380.0</ele><time>2026-04-23T08:13:49.714Z</time></trkpt><trkpt lat="44.7509583" lon="9.3650333"><ele>381.6666666666667</ele><time>2026-04-23T08:13:50.712Z</time></trkpt><trkpt lat="44.7509917" lon="9.364925"><ele>383.33333333333337</ele><time>2026-04-23T08:13:54.714Z</time></trkpt><trkpt lat="44.751025" lon="9.3647933"><ele>385.0</ele><time>2026-04-23T08:13:56.713Z</time></trkpt><trkpt lat="44.7510633" lon="9.3647133"><ele>389.2857142857143</ele><time>2026-04-23T08:13:57.713Z</time></trkpt><trkpt lat="44.751095" lon="9.3646317"><ele>393.57142857142856</ele><time>2026-04-23T08:13:58.712Z</time></trkpt><trkpt lat="44.7511233" lon="9.3645433"><ele>397.8571428571429</ele><time>2026-04-23T08:13:59.713Z</time></trkpt><trkpt lat="44.7511533" lon="9.3644533"><ele>402.1428571428571</ele><time>2026-04-23T08:14:00.712Z</time></trkpt><trkpt lat="44.75118" lon="9.3643617"><ele>406.42857142857144</ele><time>2026-04-23T08:14:01.714Z</time></trkpt><trkpt lat="44.7511967" lon="9.3642717"><ele>410.7142857142857</ele><time>2026-04-23T08:14:02.715Z</time></trkpt><trkpt lat="44.7511983" lon="9.3641717"><ele>415.0</ele><time>2026-04-23T08:14:03.713Z</time></trkpt><trkpt lat="44.7511833" lon="9.3640767"><ele>415.00000000000006</ele><time>2026-04-23T08:14:04.712Z</time></trkpt><trkpt lat="44.7511717" lon="9.3639517"><ele>415.0</ele><time>2026-04-23T08:14:05.712Z</time></trkpt><trkpt lat="44.7511583" lon="9.3638317"><ele>415.0</ele><time>2026-04-23T08:14:06.714Z</time></trkpt><trkpt lat="44.7511417" lon="9.3637217"><ele>415.0</ele><time>2026-04-23T08:14:07.712Z</time></trkpt><trkpt lat="44.7511183" lon="9.3636183"><ele>415.00000000000006</ele><time>2026-04-23T08:14:08.714Z</time></trkpt><trkpt lat="44.75104" lon="9.3635383"><ele>415.0</ele><time>2026-04-23T08:14:10.713Z</time></trkpt><trkpt lat="44.7509517" lon="9.363465"><ele>414.00000000000006</ele><time>2026-04-23T08:14:12.713Z</time></trkpt><trkpt lat="44.7508433" lon="9.3634083"><ele>413.0</ele><time>2026-04-23T08:14:14.714Z</time></trkpt><trkpt lat="44.7507783" lon="9.3633533"><ele>412.0</ele><time>2026-04-23T08:14:15.712Z</time></trkpt><trkpt lat="44.7507183" lon="9.36329"><ele>411.0</ele><time>2026-04-23T08:14:16.713Z</time></trkpt><trkpt lat="44.7506717" lon="9.3632133"><ele>410.00000000000006</ele><time>2026-04-23T08:14:17.713Z</time></trkpt><trkpt lat="44.7506417" lon="9.3631233"><ele>409.0</ele><time>2026-04-23T08:14:18.713Z</time></trkpt><trkpt lat="44.7506167" lon="9.36302"><ele>409.0</ele><time>2026-04-23T08:14:19.713Z</time></trkpt><trkpt lat="44.7506017" lon="9.36292"><ele>409.0</ele><time>2026-04-23T08:14:20.712Z</time></trkpt><trkpt lat="44.7506167" lon="9.36283"><ele>409.0</ele><time>2026-04-23T08:14:21.712Z</time></trkpt><trkpt lat="44.7506567" lon="9.3627517"><ele>409.0</ele><time>2026-04-23T08:14:22.715Z</time></trkpt><trkpt lat="44.750695" lon="9.3626683"><ele>409.0</ele><time>2026-04-23T08:14:23.713Z</time></trkpt><trkpt lat="44.7507117" lon="9.3625717"><ele>409.0</ele><time>2026-04-23T08:14:24.712Z</time></trkpt><trkpt lat="44.7507183" lon="9.36247"><ele>409.0</ele><time>2026-04-23T08:14:25.714Z</time></trkpt><trkpt lat="44.7507167" lon="9.3623517"><ele>409.00000000000006</ele><time>2026-04-23T08:14:26.713Z</time></trkpt><trkpt lat="44.750715" lon="9.3622283"><ele>409.0</ele><time>2026-04-23T08:14:27.713Z</time></trkpt><trkpt lat="44.7507183" lon="9.3621183"><ele>409.0</ele><time>2026-04-23T08:14:28.713Z</time></trkpt><trkpt lat="44.750725" lon="9.3620217"><ele>409.0</ele><time>2026-04-23T08:14:29.714Z</time></trkpt><trkpt lat="44.7507583" lon="9.3618883"><ele>409.00000000000006</ele><time>2026-04-23T08:14:31.713Z</time></trkpt><trkpt lat="44.7508467" lon="9.361825"><ele>409.0</ele><time>2026-04-23T08:14:33.713Z</time></trkpt><trkpt lat="44.7509117" lon="9.3617817"><ele>409.6666666666667</ele><time>2026-04-23T08:14:34.712Z</time></trkpt><trkpt lat="44.7509817" lon="9.3617133"><ele>410.33333333333337</ele><time>2026-04-23T08:14:35.712Z</time></trkpt><trkpt lat="44.7510467" lon="9.3616333"><ele>411.0</ele><time>2026-04-23T08:14:36.712Z</time></trkpt><trkpt lat="44.7511033" lon="9.3615467"><ele>411.66666666666663</ele><time>2026-04-23T08:14:37.716Z</time></trkpt><trkpt lat="44.75115" lon="9.36147"><ele>412.3333333333333</ele><time>2026-04-23T08:14:38.713Z</time></trkpt><trkpt lat="44.751195" lon="9.36131"><ele>413.0</ele><time>2026-04-23T08:14:40.713Z</time></trkpt><trkpt lat="44.7512033" lon="9.36122"><ele>420.0</ele><time>2026-04-23T08:14:41.712Z</time></trkpt><trkpt lat="44.7512333" lon="9.361065"><ele>427.0</ele><time>2026-04-23T08:14:43.713Z</time></trkpt><trkpt lat="44.751335" lon="9.361085"><ele>433.99999999999994</ele><time>2026-04-23T08:15:15.713Z</time></trkpt><trkpt lat="44.7513667" lon="9.3611683"><ele>441.0</ele><time>2026-04-23T08:15:17.712Z</time></trkpt><trkpt lat="44.75143" lon="9.3612267"><ele>448.0</ele><time>2026-04-23T08:15:19.715Z</time></trkpt><trkpt lat="44.751525" lon="9.3612467"><ele>448.00000000000006</ele><time>2026-04-23T08:15:21.713Z</time></trkpt><trkpt lat="44.7516183" lon="9.36124"><ele>448.0</ele><time>2026-04-23T08:15:23.714Z</time></trkpt><trkpt lat="44.751715" lon="9.3612167"><ele>448.0</ele><time>2026-04-23T08:15:25.714Z</time></trkpt><trkpt lat="44.75183" lon="9.3612033"><ele>448.0</ele><time>2026-04-23T08:15:27.714Z</time></trkpt><trkpt lat="44.7518917" lon="9.3611833"><ele>448.00000000000006</ele><time>2026-04-23T08:15:28.714Z</time></trkpt><trkpt lat="44.7519633" lon="9.3611467"><ele>448.0</ele><time>2026-04-23T08:15:29.714Z</time></trkpt><trkpt lat="44.7520433" lon="9.3611083"><ele>450.83333333333337</ele><time>2026-04-23T08:15:30.714Z</time></trkpt><trkpt lat="44.7521217" lon="9.36106"><ele>453.6666666666667</ele><time>2026-04-23T08:15:31.714Z</time></trkpt><trkpt lat="44.7521983" lon="9.3610133"><ele>456.5</ele><time>2026-04-23T08:15:32.714Z</time></trkpt><trkpt lat="44.752265" lon="9.3609867"><ele>459.33333333333337</ele><time>2026-04-23T08:15:33.713Z</time></trkpt><trkpt lat="44.752335" lon="9.3609817"><ele>462.1666666666667</ele><time>2026-04-23T08:15:34.714Z</time></trkpt><trkpt lat="44.752405" lon="9.3609917"><ele>465.0</ele><time>2026-04-23T08:15:35.713Z</time></trkpt><trkpt lat="44.7524767" lon="9.3609917"><ele>465.0</ele><time>2026-04-23T08:15:36.712Z</time></trkpt><trkpt lat="44.75254" lon="9.360995"><ele>465.0</ele><time>2026-04-23T08:15:37.713Z</time></trkpt><trkpt lat="44.7526467" lon="9.3610067"><ele>465.0</ele><time>2026-04-23T08:15:39.712Z</time></trkpt><trkpt lat="44.7526983" lon="9.36106"><ele>465.0</ele><time>2026-04-23T08:15:40.713Z</time></trkpt><trkpt lat="44.7527667" lon="9.3612033"><ele>465.0</ele><time>2026-04-23T08:15:42.713Z</time></trkpt><trkpt lat="44.7527983" lon="9.3612967"><ele>465.0</ele><time>2026-04-23T08:15:43.713Z</time></trkpt><trkpt lat="44.7528267" lon="9.3613817"><ele>470.2</ele><time>2026-04-23T08:15:44.714Z</time></trkpt><trkpt lat="44.7528483" lon="9.361465"><ele>475.4</ele><time>2026-04-23T08:15:45.713Z</time></trkpt><trkpt lat="44.752895" lon="9.3615933"><ele>480.6</ele><time>2026-04-23T08:15:47.713Z</time></trkpt><trkpt lat="44.752975" lon="9.3616717"><ele>485.8</ele><time>2026-04-23T08:15:49.714Z</time></trkpt><trkpt lat="44.7530783" lon="9.3617217"><ele>491.0</ele><time>2026-04-23T08:15:51.713Z</time></trkpt><trkpt lat="44.7531817" lon="9.3617267"><ele>490.99999999999994</ele><time>2026-04-23T08:15:53.714Z</time></trkpt><trkpt lat="44.753245" lon="9.3616517"><ele>491.0</ele><time>2026-04-23T08:15:55.715Z</time></trkpt><trkpt lat="44.7532517" lon="9.3615433"><ele>491.0</ele><time>2026-04-23T08:15:56.715Z</time></trkpt><trkpt lat="44.75326" lon="9.3614267"><ele>491.0</ele><time>2026-04-23T08:15:57.713Z</time></trkpt><trkpt lat="44.75327" lon="9.36132"><ele>490.99999999999994</ele><time>2026-04-23T08:15:58.713Z</time></trkpt><trkpt lat="44.75329" lon="9.361215"><ele>491.0</ele><time>2026-04-23T08:15:59.714Z</time></trkpt><trkpt lat="44.7533233" lon="9.361105"><ele>491.0</ele><time>2026-04-23T08:16:00.713Z</time></trkpt><trkpt lat="44.7533433" lon="9.3610017"><ele>490.99999999999994</ele><time>2026-04-23T08:16:01.713Z</time></trkpt><trkpt lat="44.7533533" lon="9.3609083"><ele>491.0</ele><time>2026-04-23T08:16:02.713Z</time></trkpt><trkpt lat="44.7533533" lon="9.3608183"><ele>491.0</ele><time>2026-04-23T08:16:03.713Z</time></trkpt><trkpt lat="44.7533317" lon="9.3607267"><ele>490.99999999999994</ele><time>2026-04-23T08:16:04.712Z</time></trkpt><trkpt lat="44.7533083" lon="9.3606133"><ele>491.0</ele><time>2026-04-23T08:16:05.713Z</time></trkpt><trkpt lat="44.7532883" lon="9.3604983"><ele>491.0</ele><time>2026-04-23T08:16:06.713Z</time></trkpt><trkpt lat="44.7532683" lon="9.3603933"><ele>494.20000000000005</ele><time>2026-04-23T08:16:07.712Z</time></trkpt><trkpt lat="44.7532583" lon="9.3602533"><ele>497.40000000000003</ele><time>2026-04-23T08:16:09.712Z</time></trkpt><trkpt lat="44.7533217" lon="9.36022"><ele>500.6</ele><time>2026-04-23T08:16:11.712Z</time></trkpt><trkpt lat="44.7534217" lon="9.3602433"><ele>503.8</ele><time>2026-04-23T08:16:13.713Z</time></trkpt><trkpt lat="44.7535483" lon="9.3603167"><ele>507.0</ele><time>2026-04-23T08:16:15.712Z</time></trkpt><trkpt lat="44.7536117" lon="9.360365"><ele>511.6666666666667</ele><time>2026-04-23T08:16:16.712Z</time></trkpt><trkpt lat="44.7536674" lon="9.3604254"><ele>516.3333333333334</ele><time>2026-04-23T08:16:17.713Z</time></trkpt><trkpt lat="44.7537117" lon="9.3604949"><ele>521.0</ele><time>2026-04-23T08:16:18.714Z</time></trkpt><trkpt lat="44.7537429" lon="9.3605753"><ele>525.6666666666667</ele><time>2026-04-23T08:16:19.714Z</time></trkpt><trkpt lat="44.7537776" lon="9.3607479"><ele>530.3333333333334</ele><time>2026-04-23T08:16:21.712Z</time></trkpt><trkpt lat="44.753788" lon="9.3608368"><ele>535.0</ele><time>2026-04-23T08:16:22.714Z</time></trkpt><trkpt lat="44.7537904" lon="9.3609382"><ele>535.0</ele><time>2026-04-23T08:16:23.713Z</time></trkpt><trkpt lat="44.7537914" lon="9.3610545"><ele>535.0</ele><time>2026-04-23T08:16:24.712Z</time></trkpt><trkpt lat="44.7537919" lon="9.3611751"><ele>535.0</ele><time>2026-04-23T08:16:25.714Z</time></trkpt><trkpt lat="44.753797" lon="9.3612977"><ele>535.0</ele><time>2026-04-23T08:16:26.713Z</time></trkpt><trkpt lat="44.7538012" lon="9.3614121"><ele>535.0</ele><time>2026-04-23T08:16:27.712Z</time></trkpt><trkpt lat="44.7537978" lon="9.3615166"><ele>535.0</ele><time>2026-04-23T08:16:28.713Z</time></trkpt><trkpt lat="44.7537902" lon="9.3616567"><ele>536.6666666666667</ele><time>2026-04-23T08:16:30.712Z</time></trkpt><trkpt lat="44.7537605" lon="9.3617736"><ele>538.3333333333334</ele><time>2026-04-23T08:16:33.712Z</time></trkpt><trkpt lat="44.7537171" lon="9.3618421"><ele>540.0</ele><time>2026-04-23T08:16:35.713Z</time></trkpt><trkpt lat="44.7536676" lon="9.3619241"><ele>541.6666666666666</ele><time>2026-04-23T08:16:42.713Z</time></trkpt><trkpt lat="44.7536326" lon="9.3620359"><ele>543.3333333333333</ele><time>2026-04-23T08:16:43.712Z</time></trkpt><trkpt lat="44.753601" lon="9.36218"><ele>545.0</ele><time>2026-04-23T08:16:44.713Z</time></trkpt><trkpt lat="44.7535758" lon="9.3623471"><ele>547.75</ele><time>2026-04-23T08:16:45.713Z</time></trkpt><trkpt lat="44.7535583" lon="9.3625188"><ele>550.5</ele><time>2026-04-23T08:16:46.713Z</time></trkpt><trkpt lat="44.7535377" lon="9.3626954"><ele>553.25</ele><time>2026-04-23T08:16:47.713Z</time></trkpt><trkpt lat="44.753509" lon="9.3628578"><ele>556.0</ele><time>2026-04-23T08:16:48.713Z</time></trkpt><trkpt lat="44.7534752" lon="9.3630069"><ele>548.0</ele><time>2026-04-23T08:16:49.713Z</time></trkpt><trkpt lat="44.7534428" lon="9.363146"><ele>540.0</ele><time>2026-04-23T08:16:50.713Z</time></trkpt><trkpt lat="44.753415" lon="9.363275"><ele>532.0</ele><time>2026-04-23T08:16:51.712Z</time></trkpt><trkpt lat="44.7534017" lon="9.3633867"><ele>524.0</ele><time>2026-04-23T08:16:52.713Z</time></trkpt><trkpt lat="44.75339" lon="9.36349"><ele>516.0</ele><time>2026-04-23T08:16:53.713Z</time></trkpt><trkpt lat="44.7533833" lon="9.3636"><ele>508.0</ele><time>2026-04-23T08:16:54.716Z</time></trkpt><trkpt lat="44.7533833" lon="9.363715"><ele>508.0</ele><time>2026-04-23T08:16:55.714Z</time></trkpt><trkpt lat="44.7533983" lon="9.3638383"><ele>507.99999999999994</ele><time>2026-04-23T08:16:56.715Z</time></trkpt><trkpt lat="44.75343" lon="9.363975"><ele>507.99999999999994</ele><time>2026-04-23T08:16:57.714Z</time></trkpt><trkpt lat="44.75347" lon="9.3641217"><ele>508.0</ele><time>2026-04-23T08:16:58.713Z</time></trkpt><trkpt lat="44.7535217" lon="9.364265"><ele>508.0</ele><time>2026-04-23T08:16:59.713Z</time></trkpt><trkpt lat="44.7535883" lon="9.3644067"><ele>509.5</ele><time>2026-04-23T08:17:00.713Z</time></trkpt><trkpt lat="44.75366" lon="9.3645167"><ele>511.0</ele><time>2026-04-23T08:17:01.713Z</time></trkpt><trkpt lat="44.75374" lon="9.3646167"><ele>512.5</ele><time>2026-04-23T08:17:02.713Z</time></trkpt><trkpt lat="44.75383" lon="9.36472"><ele>514.0</ele><time>2026-04-23T08:17:03.713Z</time></trkpt><trkpt lat="44.7539267" lon="9.3648417"><ele>514.0</ele><time>2026-04-23T08:17:04.712Z</time></trkpt><trkpt lat="44.7540083" lon="9.3649767"><ele>514.0</ele><time>2026-04-23T08:17:05.713Z</time></trkpt><trkpt lat="44.75407" lon="9.36511"><ele>514.0</ele><time>2026-04-23T08:17:06.713Z</time></trkpt><trkpt lat="44.7541183" lon="9.3652333"><ele>514.0</ele><time>2026-04-23T08:17:07.714Z</time></trkpt><trkpt lat="44.75416" lon="9.3653483"><ele>514.0</ele><time>2026-04-23T08:17:08.712Z</time></trkpt><trkpt lat="44.7542083" lon="9.36545"><ele>517.6</ele><time>2026-04-23T08:17:09.713Z</time></trkpt><trkpt lat="44.7542633" lon="9.3655417"><ele>521.2</ele><time>2026-04-23T08:17:10.712Z</time></trkpt><trkpt lat="44.75432" lon="9.3656383"><ele>524.8000000000001</ele><time>2026-04-23T08:17:11.714Z</time></trkpt><trkpt lat="44.75438" lon="9.3657467"><ele>528.4</ele><time>2026-04-23T08:17:12.713Z</time></trkpt><trkpt lat="44.7544333" lon="9.3658817"><ele>532.0</ele><time>2026-04-23T08:17:13.712Z</time></trkpt><trkpt lat="44.754475" lon="9.3660333"><ele>532.0</ele><time>2026-04-23T08:17:14.713Z</time></trkpt><trkpt lat="44.7545017" lon="9.3661767"><ele>532.0</ele><time>2026-04-23T08:17:15.714Z</time></trkpt><trkpt lat="44.7545267" lon="9.3663133"><ele>532.0</ele><time>2026-04-23T08:17:16.713Z</time></trkpt><trkpt lat="44.7545567" lon="9.3664267"><ele>532.0</ele><time>2026-04-23T08:17:17.714Z</time></trkpt><trkpt lat="44.754605" lon="9.366515"><ele>532.0</ele><time>2026-04-23T08:17:18.713Z</time></trkpt><trkpt lat="44.7546683" lon="9.3665817"><ele>526.3333333333334</ele><time>2026-04-23T08:17:19.713Z</time></trkpt><trkpt lat="44.754755" lon="9.366615"><ele>520.6666666666667</ele><time>2026-04-23T08:17:20.714Z</time></trkpt><trkpt lat="44.7548467" lon="9.3666417"><ele>515.0</ele><time>2026-04-23T08:17:21.713Z</time></trkpt><trkpt lat="44.754935" lon="9.3666683"><ele>509.33333333333337</ele><time>2026-04-23T08:17:22.713Z</time></trkpt><trkpt lat="44.75502" lon="9.36669"><ele>503.6666666666667</ele><time>2026-04-23T08:17:23.715Z</time></trkpt><trkpt lat="44.7551" lon="9.3667067"><ele>498.0</ele><time>2026-04-23T08:17:24.714Z</time></trkpt><trkpt lat="44.755175" lon="9.3667117"><ele>501.0</ele><time>2026-04-23T08:17:25.712Z</time></trkpt><trkpt lat="44.7552467" lon="9.3667167"><ele>503.99999999999994</ele><time>2026-04-23T08:17:26.713Z</time></trkpt><trkpt lat="44.755325" lon="9.3667217"><ele>506.99999999999994</ele><time>2026-04-23T08:17:28.714Z</time></trkpt><trkpt lat="44.75544" lon="9.3667117"><ele>510.0</ele><time>2026-04-23T08:17:43.714Z</time></trkpt><trkpt lat="44.7555133" lon="9.366745"><ele>513.0</ele><time>2026-04-23T08:17:45.713Z</time></trkpt><trkpt lat="44.7556333" lon="9.36677"><ele>513.0</ele><time>2026-04-23T08:17:47.713Z</time></trkpt><trkpt lat="44.75576" lon="9.3667633"><ele>513.0</ele><time>2026-04-23T08:17:49.714Z</time></trkpt><trkpt lat="44.7558283" lon="9.3667333"><ele>513.0</ele><time>2026-04-23T08:17:50.713Z</time></trkpt><trkpt lat="44.7558967" lon="9.3667083"><ele>513.0</ele><time>2026-04-23T08:17:51.713Z</time></trkpt><trkpt lat="44.7559667" lon="9.3666867"><ele>513.0</ele><time>2026-04-23T08:17:52.714Z</time></trkpt><trkpt lat="44.7560333" lon="9.366655"><ele>513.0</ele><time>2026-04-23T08:17:53.713Z</time></trkpt><trkpt lat="44.7560967" lon="9.366615"><ele>513.8333333333334</ele><time>2026-04-23T08:17:54.715Z</time></trkpt><trkpt lat="44.75616" lon="9.366565"><ele>514.6666666666666</ele><time>2026-04-23T08:17:55.714Z</time></trkpt><trkpt lat="44.75622" lon="9.3664917"><ele>515.5</ele><time>2026-04-23T08:17:56.713Z</time></trkpt><trkpt lat="44.75629" lon="9.3664317"><ele>516.3333333333333</ele><time>2026-04-23T08:17:57.712Z</time></trkpt><trkpt lat="44.7563683" lon="9.3663817"><ele>517.1666666666666</ele><time>2026-04-23T08:17:58.713Z</time></trkpt><trkpt lat="44.7564483" lon="9.3663383"><ele>518.0</ele><time>2026-04-23T08:17:59.715Z</time></trkpt><trkpt lat="44.7565183" lon="9.3663167"><ele>518.0</ele><time>2026-04-23T08:18:00.713Z</time></trkpt><trkpt lat="44.7565883" lon="9.3663067"><ele>518.0</ele><time>2026-04-23T08:18:01.713Z</time></trkpt><trkpt lat="44.7566783" lon="9.366375"><ele>518.0</ele><time>2026-04-23T08:18:03.712Z</time></trkpt><trkpt lat="44.7567683" lon="9.36646"><ele>518.0</ele><time>2026-04-23T08:18:05.713Z</time></trkpt><trkpt lat="44.7568833" lon="9.3664967"><ele>518.0</ele><time>2026-04-23T08:18:07.713Z</time></trkpt><trkpt lat="44.7569467" lon="9.3665167"><ele>520.3333333333333</ele><time>2026-04-23T08:18:08.715Z</time></trkpt><trkpt lat="44.75701" lon="9.3665333"><ele>522.6666666666666</ele><time>2026-04-23T08:18:09.712Z</time></trkpt><trkpt lat="44.7570783" lon="9.3665383"><ele>525.0</ele><time>2026-04-23T08:18:10.714Z</time></trkpt><trkpt lat="44.7571567" lon="9.366535"><ele>527.3333333333334</ele><time>2026-04-23T08:18:11.714Z</time></trkpt><trkpt lat="44.7572417" lon="9.3665317"><ele>529.6666666666667</ele><time>2026-04-23T08:18:12.713Z</time></trkpt><trkpt lat="44.7573233" lon="9.366525"><ele>532.0</ele><time>2026-04-23T08:18:13.713Z</time></trkpt><trkpt lat="44.7573967" lon="9.366515"><ele>532.0</ele><time>2026-04-23T08:18:14.714Z</time></trkpt><trkpt lat="44.75749" lon="9.3664833"><ele>532.0</ele><time>2026-04-23T08:18:16.715Z</time></trkpt><trkpt lat="44.7574283" lon="9.3664367"><ele>532.0</ele><time>2026-04-23T08:18:19.713Z</time></trkpt><trkpt lat="44.75731" lon="9.3663817"><ele>532.0</ele><time>2026-04-23T08:18:21.713Z</time></trkpt><trkpt lat="44.7572433" lon="9.3663317"><ele>532.0</ele><time>2026-04-23T08:18:22.714Z</time></trkpt><trkpt lat="44.757175" lon="9.3662933"><ele>532.0</ele><time>2026-04-23T08:18:23.713Z</time></trkpt><trkpt lat="44.7571183" lon="9.3662383"><ele>538.0</ele><time>2026-04-23T08:18:24.713Z</time></trkpt><trkpt lat="44.7570767" lon="9.3661683"><ele>544.0</ele><time>2026-04-23T08:18:25.714Z</time></trkpt><trkpt lat="44.7570483" lon="9.3660883"><ele>550.0</ele><time>2026-04-23T08:18:26.715Z</time></trkpt><trkpt lat="44.75703" lon="9.3659283"><ele>556.0</ele><time>2026-04-23T08:18:28.713Z</time></trkpt><trkpt lat="44.75701" lon="9.3657467"><ele>562.0</ele><time>2026-04-23T08:18:30.714Z</time></trkpt><trkpt lat="44.7569767" lon="9.3656517"><ele>568.0</ele><time>2026-04-23T08:18:31.713Z</time></trkpt><trkpt lat="44.7569267" lon="9.36555"><ele>568.1666666666667</ele><time>2026-04-23T08:18:32.713Z</time></trkpt><trkpt lat="44.75688" lon="9.3654467"><ele>568.3333333333334</ele><time>2026-04-23T08:18:33.712Z</time></trkpt><trkpt lat="44.7568283" lon="9.365355"><ele>568.5</ele><time>2026-04-23T08:18:34.714Z</time></trkpt><trkpt lat="44.7567733" lon="9.3652867"><ele>568.6666666666666</ele><time>2026-04-23T08:18:35.713Z</time></trkpt><trkpt lat="44.75671" lon="9.36524"><ele>568.8333333333333</ele><time>2026-04-23T08:18:36.715Z</time></trkpt><trkpt lat="44.7566433" lon="9.3652067"><ele>569.0</ele><time>2026-04-23T08:18:37.714Z</time></trkpt><trkpt lat="44.7565667" lon="9.3651817"><ele>569.0000000000001</ele><time>2026-04-23T08:18:38.713Z</time></trkpt><trkpt lat="44.75649" lon="9.365165"><ele>569.0</ele><time>2026-04-23T08:18:39.713Z</time></trkpt><trkpt lat="44.7564133" lon="9.3651567"><ele>569.0</ele><time>2026-04-23T08:18:40.714Z</time></trkpt><trkpt lat="44.75633" lon="9.365165"><ele>569.0</ele><time>2026-04-23T08:18:41.714Z</time></trkpt><trkpt lat="44.7562517" lon="9.3651767"><ele>569.0</ele><time>2026-04-23T08:18:42.713Z</time></trkpt><trkpt lat="44.7561883" lon="9.3651967"><ele>569.0000000000001</ele><time>2026-04-23T08:18:43.713Z</time></trkpt><trkpt lat="44.7561283" lon="9.3652367"><ele>569.0</ele><time>2026-04-23T08:18:44.713Z</time></trkpt><trkpt lat="44.7560733" lon="9.365295"><ele>570.4</ele><time>2026-04-23T08:18:45.713Z</time></trkpt><trkpt lat="44.7560233" lon="9.365355"><ele>571.8</ele><time>2026-04-23T08:18:46.713Z</time></trkpt><trkpt lat="44.7559317" lon="9.3654383"><ele>573.2</ele><time>2026-04-23T08:18:48.713Z</time></trkpt><trkpt lat="44.7558283" lon="9.3654183"><ele>574.6</ele><time>2026-04-23T08:18:50.713Z</time></trkpt><trkpt lat="44.755745" lon="9.365375"><ele>576.0</ele><time>2026-04-23T08:18:52.713Z</time></trkpt><trkpt lat="44.7556633" lon="9.365355"><ele>576.0</ele><time>2026-04-23T08:19:17.713Z</time></trkpt><trkpt lat="44.7555833" lon="9.3652917"><ele>576.0</ele><time>2026-04-23T08:19:19.714Z</time></trkpt><trkpt lat="44.7555417" lon="9.3652067"><ele>576.0</ele><time>2026-04-23T08:19:21.713Z</time></trkpt><trkpt lat="44.755595" lon="9.3651267"><ele>576.0</ele><time>2026-04-23T08:19:24.713Z</time></trkpt><trkpt lat="44.7556833" lon="9.3651133"><ele>576.0</ele><time>2026-04-23T08:19:26.714Z</time></trkpt><trkpt lat="44.7557933" lon="9.3651083"><ele>576.0</ele><time>2026-04-23T08:19:28.712Z</time></trkpt><trkpt lat="44.7559" lon="9.3650683"><ele>576.0</ele><time>2026-04-23T08:19:30.714Z</time></trkpt><trkpt lat="44.7559883" lon="9.3649617"><ele>576.0</ele><time>2026-04-23T08:19:32.713Z</time></trkpt><trkpt lat="44.7560317" lon="9.3648083"><ele>576.0</ele><time>2026-04-23T08:19:34.714Z</time></trkpt><trkpt lat="44.7560383" lon="9.3647067"><ele>576.0</ele><time>2026-04-23T08:19:35.714Z</time></trkpt><trkpt lat="44.7560533" lon="9.3645933"><ele>576.0</ele><time>2026-04-23T08:19:36.713Z</time></trkpt><trkpt lat="44.75607" lon="9.364485"><ele>578.3333333333334</ele><time>2026-04-23T08:19:37.714Z</time></trkpt><trkpt lat="44.7561" lon="9.3643817"><ele>580.6666666666666</ele><time>2026-04-23T08:19:38.714Z</time></trkpt><trkpt lat="44.7561367" lon="9.364285"><ele>583.0</ele><time>2026-04-23T08:19:39.712Z</time></trkpt><trkpt lat="44.7561833" lon="9.3642033"><ele>585.3333333333333</ele><time>2026-04-23T08:19:40.713Z</time></trkpt><trkpt lat="44.756295" lon="9.3641083"><ele>587.6666666666666</ele><time>2026-04-23T08:19:42.712Z</time></trkpt><trkpt lat="44.75637" lon="9.3640667"><ele>590.0</ele><time>2026-04-23T08:19:43.715Z</time></trkpt><trkpt lat="44.75645" lon="9.3640433"><ele>590.0</ele><time>2026-04-23T08:19:44.714Z</time></trkpt><trkpt lat="44.7565317" lon="9.3640367"><ele>590.0</ele><time>2026-04-23T08:19:45.713Z</time></trkpt><trkpt lat="44.7566117" lon="9.36403"><ele>590.0</ele><time>2026-04-23T08:19:46.713Z</time></trkpt><trkpt lat="44.756725" lon="9.3640217"><ele>590.0</ele><time>2026-04-23T08:19:48.712Z</time></trkpt><trkpt lat="44.7568217" lon="9.3639783"><ele>590.0</ele><time>2026-04-23T08:19:50.713Z</time></trkpt><trkpt lat="44.7568883" lon="9.36389"><ele>594.0</ele><time>2026-04-23T08:19:52.714Z</time></trkpt><trkpt lat="44.7569333" lon="9.3637317"><ele>598.0</ele><time>2026-04-23T08:19:54.713Z</time></trkpt><trkpt lat="44.7569633" lon="9.3636383"><ele>602.0</ele><time>2026-04-23T08:19:55.714Z</time></trkpt><trkpt lat="44.75699" lon="9.3635417"><ele>606.0</ele><time>2026-04-23T08:19:56.715Z</time></trkpt><trkpt lat="44.7570133" lon="9.363435"><ele>610.0</ele><time>2026-04-23T08:19:57.713Z</time></trkpt><trkpt lat="44.7570383" lon="9.3633233"><ele>614.0</ele><time>2026-04-23T08:19:58.714Z</time></trkpt><trkpt lat="44.7570683" lon="9.3632"><ele>614.0</ele><time>2026-04-23T08:19:59.713Z</time></trkpt><trkpt lat="44.7571" lon="9.3630783"><ele>614.0</ele><time>2026-04-23T08:20:00.713Z</time></trkpt><trkpt lat="44.7571317" lon="9.3629633"><ele>614.0</ele><time>2026-04-23T08:20:01.712Z</time></trkpt><trkpt lat="44.7571583" lon="9.3628517"><ele>614.0</ele><time>2026-04-23T08:20:02.713Z</time></trkpt><trkpt lat="44.7571733" lon="9.3627433"><ele>614.0</ele><time>2026-04-23T08:20:03.712Z</time></trkpt><trkpt lat="44.7571933" lon="9.3626367"><ele>614.0</ele><time>2026-04-23T08:20:04.712Z</time></trkpt><trkpt lat="44.757225" lon="9.36255"><ele>615.3333333333333</ele><time>2026-04-23T08:20:05.713Z</time></trkpt><trkpt lat="44.7572617" lon="9.3624767"><ele>616.6666666666666</ele><time>2026-04-23T08:20:06.712Z</time></trkpt><trkpt lat="44.7573583" lon="9.36238"><ele>618.0</ele><time>2026-04-23T08:20:08.714Z</time></trkpt><trkpt lat="44.75742" lon="9.3623467"><ele>619.3333333333334</ele><time>2026-04-23T08:20:09.713Z</time></trkpt><trkpt lat="44.757495" lon="9.3623133"><ele>620.6666666666667</ele><time>2026-04-23T08:20:10.712Z</time></trkpt><trkpt lat="44.757575" lon="9.36228"><ele>622.0</ele><time>2026-04-23T08:20:11.713Z</time></trkpt><trkpt lat="44.757655" lon="9.362245"><ele>623.0</ele><time>2026-04-23T08:20:12.713Z</time></trkpt><trkpt lat="44.75773" lon="9.3622067"><ele>624.0</ele><time>2026-04-23T08:20:13.713Z</time></trkpt><trkpt lat="44.7578117" lon="9.3621667"><ele>625.0</ele><time>2026-04-23T08:20:14.715Z</time></trkpt><trkpt lat="44.7578933" lon="9.3621333"><ele>626.0</ele><time>2026-04-23T08:20:15.716Z</time></trkpt><trkpt lat="44.7579667" lon="9.362105"><ele>627.0</ele><time>2026-04-23T08:20:16.714Z</time></trkpt><trkpt lat="44.758035" lon="9.3620667"><ele>628.0</ele><time>2026-04-23T08:20:17.713Z</time></trkpt><trkpt lat="44.7581067" lon="9.3620167"><ele>628.1666666666667</ele><time>2026-04-23T08:20:18.713Z</time></trkpt><trkpt lat="44.7581783" lon="9.3619567"><ele>628.3333333333334</ele><time>2026-04-23T08:20:19.713Z</time></trkpt><trkpt lat="44.7582433" lon="9.3618967"><ele>628.5</ele><time>2026-04-23T08:20:20.713Z</time></trkpt><trkpt lat="44.7582983" lon="9.361845"><ele>628.6666666666666</ele><time>2026-04-23T08:20:21.712Z</time></trkpt><trkpt lat="44.758385" lon="9.36177"><ele>628.8333333333333</ele><time>2026-04-23T08:20:23.713Z</time></trkpt><trkpt lat="44.7584483" lon="9.3617183"><ele>629.0</ele><time>2026-04-23T08:20:25.713Z</time></trkpt><trkpt lat="44.75852" lon="9.3616517"><ele>627.8333333333333</ele><time>2026-04-23T08:20:28.713Z</time></trkpt><trkpt lat="44.7585917" lon="9.361615"><ele>626.6666666666666</ele><time>2026-04-23T08:20:32.713Z</time></trkpt><trkpt lat="44.758635" lon="9.361735"><ele>625.5</ele><time>2026-04-23T08:20:35.714Z</time></trkpt><trkpt lat="44.758665" lon="9.361885"><ele>624.3333333333334</ele><time>2026-04-23T08:20:37.714Z</time></trkpt><trkpt lat="44.7586917" lon="9.3619783"><ele>623.1666666666667</ele><time>2026-04-23T08:20:38.716Z</time></trkpt><trkpt lat="44.7587183" lon="9.3620767"><ele>622.0</ele><time>2026-04-23T08:20:39.712Z</time></trkpt><trkpt lat="44.7587383" lon="9.362185"><ele>621.7142857142857</ele><time>2026-04-23T08:20:40.714Z</time></trkpt><trkpt lat="44.7587483" lon="9.3623"><ele>621.4285714285714</ele><time>2026-04-23T08:20:41.714Z</time></trkpt><trkpt lat="44.758755" lon="9.3624183"><ele>621.1428571428571</ele><time>2026-04-23T08:20:42.712Z</time></trkpt><trkpt lat="44.758775" lon="9.36252"><ele>620.8571428571429</ele><time>2026-04-23T08:20:43.714Z</time></trkpt><trkpt lat="44.75881" lon="9.3626067"><ele>620.5714285714286</ele><time>2026-04-23T08:20:44.714Z</time></trkpt><trkpt lat="44.7588567" lon="9.3626733"><ele>620.2857142857143</ele><time>2026-04-23T08:20:45.713Z</time></trkpt><trkpt lat="44.7588983" lon="9.36274"><ele>620.0</ele><time>2026-04-23T08:20:46.714Z</time></trkpt><trkpt lat="44.758935" lon="9.3628133"><ele>620.0</ele><time>2026-04-23T08:20:47.714Z</time></trkpt><trkpt lat="44.758965" lon="9.3628967"><ele>620.0</ele><time>2026-04-23T08:20:48.714Z</time></trkpt><trkpt lat="44.75899" lon="9.36298"><ele>620.0</ele><time>2026-04-23T08:20:49.714Z</time></trkpt><trkpt lat="44.759045" lon="9.3631183"><ele>620.0</ele><time>2026-04-23T08:20:51.718Z</time></trkpt><trkpt lat="44.7591033" lon="9.3631567"><ele>620.0</ele><time>2026-04-23T08:20:53.713Z</time></trkpt><trkpt lat="44.759145" lon="9.3630833"><ele>620.0</ele><time>2026-04-23T08:20:55.714Z</time></trkpt><trkpt lat="44.75917" lon="9.3629417"><ele>620.0</ele><time>2026-04-23T08:20:57.713Z</time></trkpt><trkpt lat="44.759205" lon="9.3627817"><ele>620.0</ele><time>2026-04-23T08:20:59.713Z</time></trkpt><trkpt lat="44.7592267" lon="9.3626967"><ele>620.0</ele><time>2026-04-23T08:21:00.715Z</time></trkpt><trkpt lat="44.759245" lon="9.3626067"><ele>620.0</ele><time>2026-04-23T08:21:01.713Z</time></trkpt><trkpt lat="44.759265" lon="9.3625117"><ele>620.0</ele><time>2026-04-23T08:21:02.714Z</time></trkpt><trkpt lat="44.7592883" lon="9.362415"><ele>620.0</ele><time>2026-04-23T08:21:03.713Z</time></trkpt><trkpt lat="44.7593083" lon="9.362315"><ele>620.0</ele><time>2026-04-23T08:21:04.714Z</time></trkpt><trkpt lat="44.759325" lon="9.36221"><ele>620.0</ele><time>2026-04-23T08:21:05.713Z</time></trkpt><trkpt lat="44.7593433" lon="9.3621"><ele>620.0</ele><time>2026-04-23T08:21:06.713Z</time></trkpt><trkpt lat="44.75936" lon="9.361985"><ele>620.0</ele><time>2026-04-23T08:21:07.714Z</time></trkpt><trkpt lat="44.759375" lon="9.3618767"><ele>620.0</ele><time>2026-04-23T08:21:08.716Z</time></trkpt><trkpt lat="44.75939" lon="9.3617783"><ele>620.0</ele><time>2026-04-23T08:21:09.713Z</time></trkpt><trkpt lat="44.7594083" lon="9.361685"><ele>619.8333333333333</ele><time>2026-04-23T08:21:10.713Z</time></trkpt><trkpt lat="44.7594317" lon="9.36159"><ele>619.6666666666666</ele><time>2026-04-23T08:21:11.713Z</time></trkpt><trkpt lat="44.7594633" lon="9.361495"><ele>619.5</ele><time>2026-04-23T08:21:12.713Z</time></trkpt><trkpt lat="44.7594967" lon="9.361395"><ele>619.3333333333334</ele><time>2026-04-23T08:21:13.712Z</time></trkpt><trkpt lat="44.7595267" lon="9.3613017"><ele>619.1666666666667</ele><time>2026-04-23T08:21:14.713Z</time></trkpt><trkpt lat="44.7595733" lon="9.3611767"><ele>619.0</ele><time>2026-04-23T08:21:16.714Z</time></trkpt><trkpt lat="44.7596517" lon="9.3611833"><ele>618.0</ele><time>2026-04-23T08:21:20.713Z</time></trkpt><trkpt lat="44.7597367" lon="9.36137"><ele>617.0</ele><time>2026-04-23T08:21:22.714Z</time></trkpt><trkpt lat="44.7597817" lon="9.3614667"><ele>616.0</ele><time>2026-04-23T08:21:23.715Z</time></trkpt><trkpt lat="44.759825" lon="9.3615933"><ele>615.0</ele><time>2026-04-23T08:21:24.712Z</time></trkpt><trkpt lat="44.75987" lon="9.3617267"><ele>614.0</ele><time>2026-04-23T08:21:25.713Z</time></trkpt><trkpt lat="44.7599217" lon="9.3618567"><ele>614.0</ele><time>2026-04-23T08:21:26.714Z</time></trkpt><trkpt lat="44.7599767" lon="9.3619767"><ele>614.0</ele><time>2026-04-23T08:21:27.713Z</time></trkpt><trkpt lat="44.7600267" lon="9.3620783"><ele>614.0</ele><time>2026-04-23T08:21:28.715Z</time></trkpt><trkpt lat="44.76007" lon="9.3621733"><ele>614.0</ele><time>2026-04-23T08:21:29.713Z</time></trkpt><trkpt lat="44.76011" lon="9.3622633"><ele>614.0</ele><time>2026-04-23T08:21:30.713Z</time></trkpt><trkpt lat="44.7601833" lon="9.3623983"><ele>610.1666666666666</ele><time>2026-04-23T08:21:32.714Z</time></trkpt><trkpt lat="44.7602733" lon="9.36248"><ele>606.3333333333333</ele><time>2026-04-23T08:21:34.713Z</time></trkpt><trkpt lat="44.76034" lon="9.3625083"><ele>602.5</ele><time>2026-04-23T08:21:36.713Z</time></trkpt><trkpt lat="44.7603933" lon="9.3624417"><ele>598.6666666666666</ele><time>2026-04-23T08:21:40.713Z</time></trkpt><trkpt lat="44.7603917" lon="9.3623233"><ele>594.8333333333334</ele><time>2026-04-23T08:21:42.713Z</time></trkpt><trkpt lat="44.7603867" lon="9.3621683"><ele>591.0</ele><time>2026-04-23T08:21:44.715Z</time></trkpt><trkpt lat="44.76039" lon="9.3620767"><ele>591.0</ele><time>2026-04-23T08:21:45.713Z</time></trkpt><trkpt lat="44.7603817" lon="9.3619017"><ele>591.0</ele><time>2026-04-23T08:21:47.713Z</time></trkpt><trkpt lat="44.76036" lon="9.3617967"><ele>591.0</ele><time>2026-04-23T08:21:48.713Z</time></trkpt><trkpt lat="44.7603217" lon="9.3616933"><ele>591.0</ele><time>2026-04-23T08:21:49.715Z</time></trkpt><trkpt lat="44.76028" lon="9.3615983"><ele>591.0</ele><time>2026-04-23T08:21:50.714Z</time></trkpt><trkpt lat="44.760245" lon="9.3615017"><ele>591.0</ele><time>2026-04-23T08:21:51.713Z</time></trkpt><trkpt lat="44.7602133" lon="9.3614017"><ele>595.6666666666666</ele><time>2026-04-23T08:21:52.715Z</time></trkpt><trkpt lat="44.7601967" lon="9.3613033"><ele>600.3333333333334</ele><time>2026-04-23T08:21:53.716Z</time></trkpt><trkpt lat="44.7601733" lon="9.3612167"><ele>605.0</ele><time>2026-04-23T08:21:54.713Z</time></trkpt><trkpt lat="44.7601117" lon="9.36105"><ele>609.6666666666667</ele><time>2026-04-23T08:21:56.714Z</time></trkpt><trkpt lat="44.76008" lon="9.3609567"><ele>614.3333333333334</ele><time>2026-04-23T08:21:57.713Z</time></trkpt><trkpt lat="44.7600367" lon="9.3608583"><ele>619.0</ele><time>2026-04-23T08:21:58.714Z</time></trkpt><trkpt lat="44.76" lon="9.3607633"><ele>619.0</ele><time>2026-04-23T08:21:59.714Z</time></trkpt><trkpt lat="44.759965" lon="9.3606583"><ele>619.0</ele><time>2026-04-23T08:22:00.714Z</time></trkpt><trkpt lat="44.7599433" lon="9.360565"><ele>619.0</ele><time>2026-04-23T08:22:01.715Z</time></trkpt><trkpt lat="44.7599267" lon="9.3604717"><ele>619.0</ele><time>2026-04-23T08:22:02.714Z</time></trkpt><trkpt lat="44.7599" lon="9.3603867"><ele>619.0</ele><time>2026-04-23T08:22:03.714Z</time></trkpt><trkpt lat="44.7598367" lon="9.360235"><ele>619.0</ele><time>2026-04-23T08:22:05.714Z</time></trkpt><trkpt lat="44.7598" lon="9.3600683"><ele>619.8</ele><time>2026-04-23T08:22:07.715Z</time></trkpt><trkpt lat="44.7597883" lon="9.3599267"><ele>620.5999999999999</ele><time>2026-04-23T08:22:09.713Z</time></trkpt><trkpt lat="44.759805" lon="9.359815"><ele>621.4</ele><time>2026-04-23T08:22:11.715Z</time></trkpt><trkpt lat="44.7598367" lon="9.3596567"><ele>622.1999999999999</ele><time>2026-04-23T08:22:13.714Z</time></trkpt><trkpt lat="44.7598433" lon="9.3594983"><ele>623.0</ele><time>2026-04-23T08:22:15.714Z</time></trkpt><trkpt lat="44.7598367" lon="9.3593683"><ele>625.4</ele><time>2026-04-23T08:22:17.714Z</time></trkpt><trkpt lat="44.7597917" lon="9.359285"><ele>627.8</ele><time>2026-04-23T08:22:19.714Z</time></trkpt><trkpt lat="44.75971" lon="9.3592233"><ele>630.2</ele><time>2026-04-23T08:22:21.713Z</time></trkpt><trkpt lat="44.7596217" lon="9.3591217"><ele>632.6</ele><time>2026-04-23T08:22:23.714Z</time></trkpt><trkpt lat="44.75953" lon="9.359005"><ele>635.0</ele><time>2026-04-23T08:22:25.713Z</time></trkpt><trkpt lat="44.7594767" lon="9.35894"><ele>638.2</ele><time>2026-04-23T08:22:26.714Z</time></trkpt><trkpt lat="44.7594333" lon="9.3587983"><ele>641.4</ele><time>2026-04-23T08:22:28.713Z</time></trkpt><trkpt lat="44.75944" lon="9.3586467"><ele>644.5999999999999</ele><time>2026-04-23T08:22:30.714Z</time></trkpt><trkpt lat="44.7594983" lon="9.3584983"><ele>647.8</ele><time>2026-04-23T08:22:32.714Z</time></trkpt><trkpt lat="44.7595433" lon="9.358415"><ele>651.0</ele><time>2026-04-23T08:22:33.714Z</time></trkpt><trkpt lat="44.75959" lon="9.3583317"><ele>651.0</ele><time>2026-04-23T08:22:34.713Z</time></trkpt><trkpt lat="44.7596317" lon="9.3582517"><ele>651.0</ele><time>2026-04-23T08:22:35.713Z</time></trkpt><trkpt lat="44.7597083" lon="9.358115"><ele>651.0</ele><time>2026-04-23T08:22:37.714Z</time></trkpt><trkpt lat="44.75978" lon="9.3579917"><ele>651.0</ele><time>2026-04-23T08:22:39.713Z</time></trkpt><trkpt lat="44.7598533" lon="9.357855"><ele>651.0</ele><time>2026-04-23T08:22:41.714Z</time></trkpt><trkpt lat="44.7599076" lon="9.3577176"><ele>654.0</ele><time>2026-04-23T08:22:43.714Z</time></trkpt><trkpt lat="44.7599374" lon="9.3575769"><ele>657.0</ele><time>2026-04-23T08:22:45.717Z</time></trkpt><trkpt lat="44.7599622" lon="9.3574697"><ele>660.0</ele><time>2026-04-23T08:22:47.715Z</time></trkpt><trkpt lat="44.759972" lon="9.357363"><ele>663.0</ele><time>2026-04-23T08:22:49.715Z</time></trkpt><trkpt lat="44.7600006" lon="9.3572722"><ele>666.0</ele><time>2026-04-23T08:22:51.714Z</time></trkpt><trkpt lat="44.760056" lon="9.3571947"><ele>669.0</ele><time>2026-04-23T08:22:53.715Z</time></trkpt><trkpt lat="44.7601062" lon="9.3570945"><ele>669.4000000000001</ele><time>2026-04-23T08:22:55.713Z</time></trkpt><trkpt lat="44.7601407" lon="9.3569433"><ele>669.8</ele><time>2026-04-23T08:22:57.713Z</time></trkpt><trkpt lat="44.7601598" lon="9.3567818"><ele>670.2</ele><time>2026-04-23T08:22:59.712Z</time></trkpt><trkpt lat="44.7601821" lon="9.3566477"><ele>670.5999999999999</ele><time>2026-04-23T08:23:01.712Z</time></trkpt><trkpt lat="44.7602023" lon="9.3565076"><ele>671.0</ele><time>2026-04-23T08:23:03.712Z</time></trkpt><trkpt lat="44.7602474" lon="9.3563623"><ele>674.1999999999999</ele><time>2026-04-23T08:23:05.712Z</time></trkpt><trkpt lat="44.7603032" lon="9.356252"><ele>677.4</ele><time>2026-04-23T08:23:07.712Z</time></trkpt><trkpt lat="44.7603748" lon="9.3561193"><ele>680.6</ele><time>2026-04-23T08:23:09.712Z</time></trkpt><trkpt lat="44.7604243" lon="9.3559987"><ele>683.8</ele><time>2026-04-23T08:23:11.713Z</time></trkpt><trkpt lat="44.7604671" lon="9.3558909"><ele>687.0</ele><time>2026-04-23T08:23:13.712Z</time></trkpt><trkpt lat="44.7605207" lon="9.3557525"><ele>687.0</ele><time>2026-04-23T08:23:15.712Z</time></trkpt><trkpt lat="44.760569" lon="9.3555963"><ele>687.0</ele><time>2026-04-23T08:23:17.713Z</time></trkpt><trkpt lat="44.7605876" lon="9.3555079"><ele>687.0</ele><time>2026-04-23T08:23:18.712Z</time></trkpt><trkpt lat="44.7606011" lon="9.3553459"><ele>687.0</ele><time>2026-04-23T08:23:20.713Z</time></trkpt><trkpt lat="44.7606067" lon="9.3552144"><ele>687.0</ele><time>2026-04-23T08:23:22.713Z</time></trkpt><trkpt lat="44.7606067" lon="9.3551"><ele>689.6</ele><time>2026-04-23T08:23:24.713Z</time></trkpt><trkpt lat="44.7606167" lon="9.35498"><ele>692.2</ele><time>2026-04-23T08:23:26.712Z</time></trkpt><trkpt lat="44.76061" lon="9.3548483"><ele>694.8</ele><time>2026-04-23T08:23:28.713Z</time></trkpt><trkpt lat="44.760605" lon="9.3546867"><ele>697.4</ele><time>2026-04-23T08:23:30.714Z</time></trkpt><trkpt lat="44.760595" lon="9.3545283"><ele>700.0</ele><time>2026-04-23T08:23:32.713Z</time></trkpt><trkpt lat="44.7605717" lon="9.3543767"><ele>701.1666666666667</ele><time>2026-04-23T08:23:34.712Z</time></trkpt><trkpt lat="44.7605417" lon="9.3542767"><ele>702.3333333333334</ele><time>2026-04-23T08:23:36.712Z</time></trkpt><trkpt lat="44.7604717" lon="9.354235"><ele>703.5</ele><time>2026-04-23T08:23:38.712Z</time></trkpt><trkpt lat="44.7603783" lon="9.3542167"><ele>704.6666666666666</ele><time>2026-04-23T08:23:40.716Z</time></trkpt><trkpt lat="44.760275" lon="9.3541983"><ele>705.8333333333333</ele><time>2026-04-23T08:23:42.712Z</time></trkpt><trkpt lat="44.7601783" lon="9.35419"><ele>707.0</ele><time>2026-04-23T08:23:44.713Z</time></trkpt><trkpt lat="44.760025" lon="9.35418"><ele>709.8333333333333</ele><time>2026-04-23T08:24:17.714Z</time></trkpt><trkpt lat="44.7599567" lon="9.3542067"><ele>712.6666666666666</ele><time>2026-04-23T08:24:19.713Z</time></trkpt><trkpt lat="44.7598583" lon="9.354265"><ele>715.5</ele><time>2026-04-23T08:24:21.713Z</time></trkpt><trkpt lat="44.7597917" lon="9.3543067"><ele>718.3333333333334</ele><time>2026-04-23T08:24:22.713Z</time></trkpt><trkpt lat="44.7597317" lon="9.3543567"><ele>721.1666666666667</ele><time>2026-04-23T08:24:23.713Z</time></trkpt><trkpt lat="44.75967" lon="9.35443"><ele>724.0</ele><time>2026-04-23T08:24:24.714Z</time></trkpt><trkpt lat="44.7596133" lon="9.3545167"><ele>724.0</ele><time>2026-04-23T08:24:25.713Z</time></trkpt><trkpt lat="44.7595683" lon="9.3546083"><ele>724.0</ele><time>2026-04-23T08:24:26.713Z</time></trkpt><trkpt lat="44.7595367" lon="9.3547083"><ele>724.0</ele><time>2026-04-23T08:24:27.714Z</time></trkpt><trkpt lat="44.7595233" lon="9.3548233"><ele>724.0</ele><time>2026-04-23T08:24:28.713Z</time></trkpt><trkpt lat="44.7595117" lon="9.3549617"><ele>724.0</ele><time>2026-04-23T08:24:29.715Z</time></trkpt><trkpt lat="44.7595033" lon="9.3551017"><ele>724.0</ele><time>2026-04-23T08:24:30.714Z</time></trkpt><trkpt lat="44.7595017" lon="9.3552333"><ele>724.6666666666667</ele><time>2026-04-23T08:24:31.715Z</time></trkpt><trkpt lat="44.75949" lon="9.3553533"><ele>725.3333333333334</ele><time>2026-04-23T08:24:32.713Z</time></trkpt><trkpt lat="44.7594633" lon="9.3554483"><ele>726.0</ele><time>2026-04-23T08:24:33.712Z</time></trkpt><trkpt lat="44.7594117" lon="9.3555167"><ele>726.6666666666666</ele><time>2026-04-23T08:24:34.714Z</time></trkpt><trkpt lat="44.75935" lon="9.3555483"><ele>727.3333333333333</ele><time>2026-04-23T08:24:35.712Z</time></trkpt><trkpt lat="44.7592417" lon="9.355515"><ele>728.0</ele><time>2026-04-23T08:24:37.712Z</time></trkpt><trkpt lat="44.7591817" lon="9.355375"><ele>730.8571428571429</ele><time>2026-04-23T08:24:39.713Z</time></trkpt><trkpt lat="44.7591633" lon="9.3552833"><ele>733.7142857142858</ele><time>2026-04-23T08:24:40.714Z</time></trkpt><trkpt lat="44.7591533" lon="9.3551833"><ele>736.5714285714286</ele><time>2026-04-23T08:24:41.712Z</time></trkpt><trkpt lat="44.7591417" lon="9.35508"><ele>739.4285714285714</ele><time>2026-04-23T08:24:42.712Z</time></trkpt><trkpt lat="44.7591383" lon="9.3549783"><ele>742.2857142857143</ele><time>2026-04-23T08:24:43.713Z</time></trkpt><trkpt lat="44.7591433" lon="9.35488"><ele>745.1428571428571</ele><time>2026-04-23T08:24:44.714Z</time></trkpt><trkpt lat="44.7591333" lon="9.354775"><ele>748.0</ele><time>2026-04-23T08:24:45.712Z</time></trkpt><trkpt lat="44.7591183" lon="9.3546783"><ele>750.1666666666667</ele><time>2026-04-23T08:24:46.712Z</time></trkpt><trkpt lat="44.7591117" lon="9.3545867"><ele>752.3333333333334</ele><time>2026-04-23T08:24:47.714Z</time></trkpt><trkpt lat="44.7591167" lon="9.3544967"><ele>754.5</ele><time>2026-04-23T08:24:48.712Z</time></trkpt><trkpt lat="44.759085" lon="9.354325"><ele>756.6666666666666</ele><time>2026-04-23T08:24:50.713Z</time></trkpt><trkpt lat="44.7590217" lon="9.3542917"><ele>758.8333333333333</ele><time>2026-04-23T08:24:52.713Z</time></trkpt><trkpt lat="44.75895" lon="9.354395"><ele>761.0</ele><time>2026-04-23T08:24:54.713Z</time></trkpt><trkpt lat="44.7589083" lon="9.3544833"><ele>760.9999999999999</ele><time>2026-04-23T08:24:56.712Z</time></trkpt><trkpt lat="44.758875" lon="9.35457"><ele>761.0</ele><time>2026-04-23T08:24:58.712Z</time></trkpt><trkpt lat="44.7588283" lon="9.3546533"><ele>761.0</ele><time>2026-04-23T08:25:01.712Z</time></trkpt><trkpt lat="44.7587983" lon="9.3547333"><ele>761.0</ele><time>2026-04-23T08:25:03.714Z</time></trkpt><trkpt lat="44.7587433" lon="9.354785"><ele>761.0</ele><time>2026-04-23T08:25:05.713Z</time></trkpt><trkpt lat="44.7586833" lon="9.3548333"><ele>760.9999999999999</ele><time>2026-04-23T08:25:07.712Z</time></trkpt><trkpt lat="44.7586083" lon="9.3549033"><ele>761.0</ele><time>2026-04-23T08:25:09.713Z</time></trkpt><trkpt lat="44.758535" lon="9.3549767"><ele>766.8333333333333</ele><time>2026-04-23T08:25:11.712Z</time></trkpt><trkpt lat="44.7584512" lon="9.3550506"><ele>772.6666666666666</ele><time>2026-04-23T08:25:13.713Z</time></trkpt><trkpt lat="44.758368" lon="9.3550563"><ele>778.5</ele><time>2026-04-23T08:25:15.713Z</time></trkpt><trkpt lat="44.7582826" lon="9.3550727"><ele>784.3333333333333</ele><time>2026-04-23T08:25:17.713Z</time></trkpt><trkpt lat="44.758213" lon="9.3550469"><ele>790.1666666666666</ele><time>2026-04-23T08:25:20.713Z</time></trkpt><trkpt lat="44.7582071" lon="9.3549525"><ele>796.0</ele><time>2026-04-23T08:25:22.713Z</time></trkpt><trkpt lat="44.7581955" lon="9.3548293"><ele>799.5999999999999</ele><time>2026-04-23T08:25:24.713Z</time></trkpt><trkpt lat="44.7581742" lon="9.3546911"><ele>803.2</ele><time>2026-04-23T08:25:26.714Z</time></trkpt><trkpt lat="44.7581342" lon="9.3545879"><ele>806.8</ele><time>2026-04-23T08:25:28.712Z</time></trkpt><trkpt lat="44.7580793" lon="9.3544713"><ele>810.4000000000001</ele><time>2026-04-23T08:25:30.713Z</time></trkpt><trkpt lat="44.7580428" lon="9.3543496"><ele>814.0</ele><time>2026-04-23T08:25:32.712Z</time></trkpt><trkpt lat="44.7580395" lon="9.3542213"><ele>813.9999999999999</ele><time>2026-04-23T08:25:34.712Z</time></trkpt><trkpt lat="44.7580448" lon="9.3541311"><ele>814.0</ele><time>2026-04-23T08:25:35.713Z</time></trkpt><trkpt lat="44.7580574" lon="9.3540328"><ele>814.0</ele><time>2026-04-23T08:25:36.712Z</time></trkpt><trkpt lat="44.7580729" lon="9.3539278"><ele>814.0</ele><time>2026-04-23T08:25:37.713Z</time></trkpt><trkpt lat="44.7580941" lon="9.3538296"><ele>813.9999999999999</ele><time>2026-04-23T08:25:38.713Z</time></trkpt><trkpt lat="44.7581196" lon="9.3537375"><ele>814.0</ele><time>2026-04-23T08:25:39.713Z</time></trkpt><trkpt lat="44.758146" lon="9.3535955"><ele>813.9999999999999</ele><time>2026-04-23T08:25:41.712Z</time></trkpt><trkpt lat="44.7580928" lon="9.3536707"><ele>814.0</ele><time>2026-04-23T08:25:46.714Z</time></trkpt><trkpt lat="44.7580349" lon="9.3537415"><ele>814.0</ele><time>2026-04-23T08:25:48.713Z</time></trkpt><trkpt lat="44.7579665" lon="9.353835"><ele>814.0</ele><time>2026-04-23T08:25:50.713Z</time></trkpt><trkpt lat="44.7578913" lon="9.3539414"><ele>813.9999999999999</ele><time>2026-04-23T08:25:52.713Z</time></trkpt><trkpt lat="44.7578372" lon="9.3540234"><ele>814.0</ele><time>2026-04-23T08:25:53.713Z</time></trkpt><trkpt lat="44.7577842" lon="9.3541108"><ele>813.9999999999999</ele><time>2026-04-23T08:25:54.713Z</time></trkpt><trkpt lat="44.7577332" lon="9.3542054"><ele>814.0</ele><time>2026-04-23T08:25:55.714Z</time></trkpt><trkpt lat="44.7576894" lon="9.3543056"><ele>814.0</ele><time>2026-04-23T08:25:56.715Z</time></trkpt><trkpt lat="44.7576469" lon="9.3544001"><ele>814.0</ele><time>2026-04-23T08:25:57.714Z</time></trkpt><trkpt lat="44.7576003" lon="9.3544825"><ele>813.9999999999999</ele><time>2026-04-23T08:25:58.713Z</time></trkpt><trkpt lat="44.757552" lon="9.3545581"><ele>814.0</ele><time>2026-04-23T08:25:59.713Z</time></trkpt><trkpt lat="44.7574689" lon="9.3546799"><ele>819.4000000000001</ele><time>2026-04-23T08:26:01.712Z</time></trkpt><trkpt lat="44.7573848" lon="9.3547638"><ele>824.8</ele><time>2026-04-23T08:26:03.713Z</time></trkpt><trkpt lat="44.7573" lon="9.3548219"><ele>830.2</ele><time>2026-04-23T08:26:05.713Z</time></trkpt><trkpt lat="44.7572266" lon="9.3548826"><ele>835.5999999999999</ele><time>2026-04-23T08:26:07.713Z</time></trkpt><trkpt lat="44.7571358" lon="9.3549298"><ele>841.0</ele><time>2026-04-23T08:26:09.714Z</time></trkpt><trkpt lat="44.7570453" lon="9.3549694"><ele>841.0</ele><time>2026-04-23T08:26:11.714Z</time></trkpt><trkpt lat="44.756958" lon="9.3550177"><ele>841.0</ele><time>2026-04-23T08:26:13.712Z</time></trkpt><trkpt lat="44.756849" lon="9.355069"><ele>841.0</ele><time>2026-04-23T08:26:15.713Z</time></trkpt><trkpt lat="44.7567274" lon="9.3550937"><ele>841.0</ele><time>2026-04-23T08:26:17.713Z</time></trkpt><trkpt lat="44.7566411" lon="9.3550872"><ele>841.0</ele><time>2026-04-23T08:26:19.713Z</time></trkpt><trkpt lat="44.7566528" lon="9.3549815"><ele>848.1999999999999</ele><time>2026-04-23T08:26:23.713Z</time></trkpt><trkpt lat="44.7566535" lon="9.3548683"><ele>855.4</ele><time>2026-04-23T08:26:26.715Z</time></trkpt><trkpt lat="44.7566554" lon="9.3547764"><ele>862.6</ele><time>2026-04-23T08:26:28.715Z</time></trkpt><trkpt lat="44.7566562" lon="9.3546466"><ele>869.8</ele><time>2026-04-23T08:26:30.714Z</time></trkpt><trkpt lat="44.756633" lon="9.3544517"><ele>877.0</ele><time>2026-04-23T08:26:32.714Z</time></trkpt><trkpt lat="44.7566164" lon="9.3543366"><ele>880.6666666666666</ele><time>2026-04-23T08:26:33.713Z</time></trkpt><trkpt lat="44.7566044" lon="9.3542261"><ele>884.3333333333333</ele><time>2026-04-23T08:26:34.712Z</time></trkpt><trkpt lat="44.7565992" lon="9.3541152"><ele>888.0</ele><time>2026-04-23T08:26:35.716Z</time></trkpt><trkpt lat="44.7566" lon="9.3540121"><ele>891.6666666666667</ele><time>2026-04-23T08:26:36.714Z</time></trkpt><trkpt lat="44.7566104" lon="9.3539191"><ele>895.3333333333334</ele><time>2026-04-23T08:26:37.716Z</time></trkpt><trkpt lat="44.7566304" lon="9.3538345"><ele>899.0</ele><time>2026-04-23T08:26:38.712Z</time></trkpt><trkpt lat="44.7566451" lon="9.3537097"><ele>901.3333333333334</ele><time>2026-04-23T08:26:40.713Z</time></trkpt><trkpt lat="44.7565563" lon="9.3536802"><ele>903.6666666666667</ele><time>2026-04-23T08:26:42.714Z</time></trkpt><trkpt lat="44.7564604" lon="9.3536529"><ele>906.0</ele><time>2026-04-23T08:26:44.714Z</time></trkpt><trkpt lat="44.7564316" lon="9.3535593"><ele>908.3333333333333</ele><time>2026-04-23T08:26:48.712Z</time></trkpt><trkpt lat="44.7564601" lon="9.3534712"><ele>910.6666666666666</ele><time>2026-04-23T08:26:51.713Z</time></trkpt><trkpt lat="44.7564817" lon="9.3533517"><ele>913.0</ele><time>2026-04-23T08:40:05.713Z</time></trkpt><trkpt lat="44.7565633" lon="9.3532783"><ele>912.9999999999999</ele><time>2026-04-23T08:40:07.713Z</time></trkpt><trkpt lat="44.756595" lon="9.3531933"><ele>913.0</ele><time>2026-04-23T08:40:08.714Z</time></trkpt><trkpt lat="44.7566017" lon="9.3530317"><ele>913.0</ele><time>2026-04-23T08:40:10.714Z</time></trkpt><trkpt lat="44.7566067" lon="9.3529433"><ele>913.0</ele><time>2026-04-23T08:40:11.713Z</time></trkpt><trkpt lat="44.7566083" lon="9.35284"><ele>912.9999999999999</ele><time>2026-04-23T08:40:12.713Z</time></trkpt><trkpt lat="44.7566033" lon="9.352735"><ele>913.0</ele><time>2026-04-23T08:40:13.714Z</time></trkpt><trkpt lat="44.7565983" lon="9.3526433"><ele>914.5999999999999</ele><time>2026-04-23T08:40:14.713Z</time></trkpt><trkpt lat="44.7565583" lon="9.35249"><ele>916.1999999999999</ele><time>2026-04-23T08:40:16.714Z</time></trkpt><trkpt lat="44.7565033" lon="9.352355"><ele>917.8</ele><time>2026-04-23T08:40:18.715Z</time></trkpt><trkpt lat="44.7564267" lon="9.3522267"><ele>919.4</ele><time>2026-04-23T08:40:20.714Z</time></trkpt><trkpt lat="44.75639" lon="9.3521533"><ele>921.0</ele><time>2026-04-23T08:40:21.716Z</time></trkpt><trkpt lat="44.7563433" lon="9.3520917"><ele>923.1666666666666</ele><time>2026-04-23T08:40:22.713Z</time></trkpt><trkpt lat="44.75628" lon="9.3519817"><ele>925.3333333333333</ele><time>2026-04-23T08:40:24.714Z</time></trkpt><trkpt lat="44.756215" lon="9.351855"><ele>927.5</ele><time>2026-04-23T08:40:26.715Z</time></trkpt><trkpt lat="44.756175" lon="9.3517717"><ele>929.6666666666666</ele><time>2026-04-23T08:40:27.713Z</time></trkpt><trkpt lat="44.756135" lon="9.3516967"><ele>931.8333333333333</ele><time>2026-04-23T08:40:28.713Z</time></trkpt><trkpt lat="44.7560883" lon="9.3516183"><ele>934.0</ele><time>2026-04-23T08:40:29.714Z</time></trkpt><trkpt lat="44.7560517" lon="9.351535"><ele>933.1666666666666</ele><time>2026-04-23T08:40:30.715Z</time></trkpt><trkpt lat="44.7560183" lon="9.3514483"><ele>932.3333333333333</ele><time>2026-04-23T08:40:31.713Z</time></trkpt><trkpt lat="44.75599" lon="9.3513583"><ele>931.5</ele><time>2026-04-23T08:40:32.714Z</time></trkpt><trkpt lat="44.7559583" lon="9.351265"><ele>930.6666666666667</ele><time>2026-04-23T08:40:33.713Z</time></trkpt><trkpt lat="44.7559217" lon="9.3511667"><ele>929.8333333333334</ele><time>2026-04-23T08:40:34.713Z</time></trkpt><trkpt lat="44.75588" lon="9.351075"><ele>929.0</ele><time>2026-04-23T08:40:35.713Z</time></trkpt><trkpt lat="44.7558283" lon="9.350985"><ele>929.0</ele><time>2026-04-23T08:40:36.714Z</time></trkpt><trkpt lat="44.7557783" lon="9.3509017"><ele>929.0000000000001</ele><time>2026-04-23T08:40:37.714Z</time></trkpt><trkpt lat="44.7556883" lon="9.3507683"><ele>929.0000000000001</ele><time>2026-04-23T08:40:39.715Z</time></trkpt><trkpt lat="44.7556033" lon="9.3506767"><ele>929.0</ele><time>2026-04-23T08:40:41.714Z</time></trkpt><trkpt lat="44.755545" lon="9.3506267"><ele>929.0</ele><time>2026-04-23T08:40:42.713Z</time></trkpt><trkpt lat="44.7554783" lon="9.3505867"><ele>929.2</ele><time>2026-04-23T08:40:43.713Z</time></trkpt><trkpt lat="44.7554083" lon="9.3505383"><ele>929.4000000000001</ele><time>2026-04-23T08:40:44.714Z</time></trkpt><trkpt lat="44.7553467" lon="9.35048"><ele>929.6</ele><time>2026-04-23T08:40:45.713Z</time></trkpt><trkpt lat="44.75529" lon="9.3504083"><ele>929.8</ele><time>2026-04-23T08:40:46.713Z</time></trkpt><trkpt lat="44.7552233" lon="9.35026"><ele>930.0</ele><time>2026-04-23T08:40:48.713Z</time></trkpt><trkpt lat="44.75515" lon="9.3501233"><ele>930.0</ele><time>2026-04-23T08:40:50.714Z</time></trkpt><trkpt lat="44.7550817" lon="9.3500633"><ele>930.0</ele><time>2026-04-23T08:40:51.713Z</time></trkpt><trkpt lat="44.755005" lon="9.350015"><ele>930.0</ele><time>2026-04-23T08:40:52.714Z</time></trkpt><trkpt lat="44.7549367" lon="9.3499783"><ele>930.0</ele><time>2026-04-23T08:40:53.714Z</time></trkpt><trkpt lat="44.7548783" lon="9.3499433"><ele>930.0</ele><time>2026-04-23T08:40:54.713Z</time></trkpt><trkpt lat="44.7548233" lon="9.3498833"><ele>930.0</ele><time>2026-04-23T08:40:55.713Z</time></trkpt><trkpt lat="44.75477" lon="9.3498"><ele>934.0</ele><time>2026-04-23T08:40:56.714Z</time></trkpt><trkpt lat="44.754715" lon="9.3497"><ele>938.0</ele><time>2026-04-23T08:40:57.713Z</time></trkpt><trkpt lat="44.7546583" lon="9.3496"><ele>942.0</ele><time>2026-04-23T08:40:58.714Z</time></trkpt><trkpt lat="44.7546167" lon="9.349495"><ele>946.0</ele><time>2026-04-23T08:40:59.713Z</time></trkpt><trkpt lat="44.75458" lon="9.34939"><ele>950.0</ele><time>2026-04-23T08:41:00.714Z</time></trkpt><trkpt lat="44.7545533" lon="9.3492833"><ele>954.0</ele><time>2026-04-23T08:41:01.715Z</time></trkpt><trkpt lat="44.7545267" lon="9.3491783"><ele>954.0</ele><time>2026-04-23T08:41:02.714Z</time></trkpt><trkpt lat="44.75451" lon="9.3490767"><ele>954.0</ele><time>2026-04-23T08:41:03.713Z</time></trkpt><trkpt lat="44.7544983" lon="9.348975"><ele>954.0</ele><time>2026-04-23T08:41:04.714Z</time></trkpt><trkpt lat="44.7544833" lon="9.3488733"><ele>954.0</ele><time>2026-04-23T08:41:05.713Z</time></trkpt><trkpt lat="44.7544767" lon="9.3487833"><ele>954.0</ele><time>2026-04-23T08:41:06.714Z</time></trkpt><trkpt lat="44.754475" lon="9.3486067"><ele>954.0</ele><time>2026-04-23T08:41:08.713Z</time></trkpt><trkpt lat="44.7544583" lon="9.3484533"><ele>956.6</ele><time>2026-04-23T08:41:10.713Z</time></trkpt><trkpt lat="44.7544167" lon="9.3483317"><ele>959.2</ele><time>2026-04-23T08:41:12.714Z</time></trkpt><trkpt lat="44.7543433" lon="9.3482333"><ele>961.8000000000001</ele><time>2026-04-23T08:41:14.714Z</time></trkpt><trkpt lat="44.7542967" lon="9.348085"><ele>964.4000000000001</ele><time>2026-04-23T08:41:16.713Z</time></trkpt><trkpt lat="44.7542783" lon="9.3479867"><ele>967.0</ele><time>2026-04-23T08:41:17.715Z</time></trkpt><trkpt lat="44.75426" lon="9.34789"><ele>960.4999999999999</ele><time>2026-04-23T08:41:18.713Z</time></trkpt><trkpt lat="44.7542467" lon="9.3477983"><ele>954.0</ele><time>2026-04-23T08:41:19.714Z</time></trkpt><trkpt lat="44.7542417" lon="9.347635"><ele>947.5</ele><time>2026-04-23T08:41:21.713Z</time></trkpt><trkpt lat="44.75424" lon="9.3474667"><ele>941.0</ele><time>2026-04-23T08:41:23.713Z</time></trkpt><trkpt lat="44.7542483" lon="9.3473683"><ele>934.4999999999999</ele><time>2026-04-23T08:41:24.713Z</time></trkpt><trkpt lat="44.7542583" lon="9.3472683"><ele>928.0</ele><time>2026-04-23T08:41:25.716Z</time></trkpt><trkpt lat="44.75428" lon="9.34717"><ele>927.2857142857144</ele><time>2026-04-23T08:41:26.715Z</time></trkpt><trkpt lat="44.7542983" lon="9.3470617"><ele>926.5714285714287</ele><time>2026-04-23T08:41:27.713Z</time></trkpt><trkpt lat="44.7543117" lon="9.3469633"><ele>925.8571428571429</ele><time>2026-04-23T08:41:28.713Z</time></trkpt><trkpt lat="44.7543333" lon="9.3468733"><ele>925.1428571428572</ele><time>2026-04-23T08:41:29.716Z</time></trkpt><trkpt lat="44.7543583" lon="9.3467833"><ele>924.4285714285716</ele><time>2026-04-23T08:41:30.714Z</time></trkpt><trkpt lat="44.75439" lon="9.3467"><ele>923.7142857142857</ele><time>2026-04-23T08:41:31.715Z</time></trkpt><trkpt lat="44.754425" lon="9.3466217"><ele>923.0</ele><time>2026-04-23T08:41:32.715Z</time></trkpt><trkpt lat="44.7544533" lon="9.3465417"><ele>929.6666666666667</ele><time>2026-04-23T08:41:33.715Z</time></trkpt><trkpt lat="44.75449" lon="9.346385"><ele>936.3333333333334</ele><time>2026-04-23T08:41:35.714Z</time></trkpt><trkpt lat="44.7545383" lon="9.3462283"><ele>943.0</ele><time>2026-04-23T08:41:37.714Z</time></trkpt><trkpt lat="44.7545683" lon="9.3461367"><ele>949.6666666666667</ele><time>2026-04-23T08:41:38.714Z</time></trkpt><trkpt lat="44.7545983" lon="9.3460467"><ele>956.3333333333334</ele><time>2026-04-23T08:41:39.714Z</time></trkpt><trkpt lat="44.7546167" lon="9.345955"><ele>963.0</ele><time>2026-04-23T08:41:40.714Z</time></trkpt><trkpt lat="44.7546367" lon="9.3458633"><ele>963.0000000000001</ele><time>2026-04-23T08:41:41.713Z</time></trkpt><trkpt lat="44.7546417" lon="9.3457633"><ele>963.0</ele><time>2026-04-23T08:41:42.715Z</time></trkpt><trkpt lat="44.7546467" lon="9.3456667"><ele>963.0000000000001</ele><time>2026-04-23T08:41:43.713Z</time></trkpt><trkpt lat="44.7546483" lon="9.345565"><ele>963.0000000000001</ele><time>2026-04-23T08:41:44.714Z</time></trkpt><trkpt lat="44.7546667" lon="9.3454683"><ele>963.0</ele><time>2026-04-23T08:41:45.713Z</time></trkpt><trkpt lat="44.7546867" lon="9.3453517"><ele>963.0000000000001</ele><time>2026-04-23T08:41:46.714Z</time></trkpt><trkpt lat="44.7547183" lon="9.3452567"><ele>963.0000000000001</ele><time>2026-04-23T08:41:47.714Z</time></trkpt><trkpt lat="44.754755" lon="9.34516"><ele>960.5714285714287</ele><time>2026-04-23T08:41:48.715Z</time></trkpt><trkpt lat="44.7547933" lon="9.3450767"><ele>958.1428571428571</ele><time>2026-04-23T08:41:49.716Z</time></trkpt><trkpt lat="44.7548333" lon="9.345"><ele>955.7142857142858</ele><time>2026-04-23T08:41:50.714Z</time></trkpt><trkpt lat="44.7548767" lon="9.3449317"><ele>953.2857142857143</ele><time>2026-04-23T08:41:51.713Z</time></trkpt><trkpt lat="44.754915" lon="9.3448567"><ele>950.8571428571429</ele><time>2026-04-23T08:41:52.714Z</time></trkpt><trkpt lat="44.7549467" lon="9.3447683"><ele>948.4285714285714</ele><time>2026-04-23T08:41:53.714Z</time></trkpt><trkpt lat="44.7549767" lon="9.3446767"><ele>946.0</ele><time>2026-04-23T08:41:54.714Z</time></trkpt><trkpt lat="44.7550083" lon="9.34459"><ele>948.8333333333333</ele><time>2026-04-23T08:41:55.714Z</time></trkpt><trkpt lat="44.7550633" lon="9.344435"><ele>951.6666666666666</ele><time>2026-04-23T08:41:57.714Z</time></trkpt><trkpt lat="44.7551083" lon="9.3443617"><ele>954.5</ele><time>2026-04-23T08:41:58.714Z</time></trkpt><trkpt lat="44.7551883" lon="9.3442283"><ele>957.3333333333333</ele><time>2026-04-23T08:42:00.712Z</time></trkpt><trkpt lat="44.75523" lon="9.3441583"><ele>960.1666666666666</ele><time>2026-04-23T08:42:01.713Z</time></trkpt><trkpt lat="44.7552733" lon="9.3440833"><ele>963.0</ele><time>2026-04-23T08:42:02.713Z</time></trkpt><trkpt lat="44.755315" lon="9.3440133"><ele>963.0000000000001</ele><time>2026-04-23T08:42:03.712Z</time></trkpt><trkpt lat="44.7553567" lon="9.3439383"><ele>963.0</ele><time>2026-04-23T08:42:04.713Z</time></trkpt><trkpt lat="44.7554" lon="9.3438567"><ele>963.0000000000001</ele><time>2026-04-23T08:42:05.713Z</time></trkpt><trkpt lat="44.75545" lon="9.3438"><ele>963.0000000000001</ele><time>2026-04-23T08:42:06.712Z</time></trkpt><trkpt lat="44.7555133" lon="9.3437367"><ele>963.0</ele><time>2026-04-23T08:42:07.713Z</time></trkpt><trkpt lat="44.7555717" lon="9.3436717"><ele>963.0000000000001</ele><time>2026-04-23T08:42:08.714Z</time></trkpt><trkpt lat="44.7556233" lon="9.3436017"><ele>963.0000000000001</ele><time>2026-04-23T08:42:09.712Z</time></trkpt><trkpt lat="44.75569" lon="9.34349"><ele>956.8</ele><time>2026-04-23T08:42:11.713Z</time></trkpt><trkpt lat="44.7557783" lon="9.3434267"><ele>950.5999999999999</ele><time>2026-04-23T08:42:13.713Z</time></trkpt><trkpt lat="44.7558533" lon="9.343345"><ele>944.4000000000001</ele><time>2026-04-23T08:42:15.713Z</time></trkpt><trkpt lat="44.7559283" lon="9.3432283"><ele>938.2</ele><time>2026-04-23T08:42:17.713Z</time></trkpt><trkpt lat="44.7559817" lon="9.3431617"><ele>932.0</ele><time>2026-04-23T08:42:18.713Z</time></trkpt><trkpt lat="44.7560317" lon="9.3430783"><ele>938.6</ele><time>2026-04-23T08:42:19.713Z</time></trkpt><trkpt lat="44.7561117" lon="9.34295"><ele>945.2</ele><time>2026-04-23T08:42:21.712Z</time></trkpt><trkpt lat="44.7561683" lon="9.34279"><ele>951.8</ele><time>2026-04-23T08:42:23.713Z</time></trkpt><trkpt lat="44.7562" lon="9.3427"><ele>958.4</ele><time>2026-04-23T08:42:24.713Z</time></trkpt><trkpt lat="44.75624" lon="9.34263"><ele>965.0</ele><time>2026-04-23T08:42:25.712Z</time></trkpt><trkpt lat="44.75629" lon="9.3425267"><ele>965.0000000000001</ele><time>2026-04-23T08:42:26.713Z</time></trkpt><trkpt lat="44.75633" lon="9.3424367"><ele>965.0</ele><time>2026-04-23T08:42:27.712Z</time></trkpt><trkpt lat="44.756355" lon="9.3423383"><ele>965.0</ele><time>2026-04-23T08:42:28.714Z</time></trkpt><trkpt lat="44.7563667" lon="9.3422417"><ele>965.0</ele><time>2026-04-23T08:42:29.713Z</time></trkpt><trkpt lat="44.7563617" lon="9.34215"><ele>965.0000000000001</ele><time>2026-04-23T08:42:30.713Z</time></trkpt><trkpt lat="44.756335" lon="9.3420183"><ele>965.0</ele><time>2026-04-23T08:42:32.714Z</time></trkpt><trkpt lat="44.756275" lon="9.34189"><ele>964.3333333333334</ele><time>2026-04-23T08:43:01.713Z</time></trkpt><trkpt lat="44.7563033" lon="9.3417983"><ele>963.6666666666667</ele><time>2026-04-23T08:43:04.713Z</time></trkpt><trkpt lat="44.7563717" lon="9.3417767"><ele>963.0</ele><time>2026-04-23T08:43:06.713Z</time></trkpt><trkpt lat="44.756415" lon="9.3416933"><ele>962.3333333333333</ele><time>2026-04-23T08:43:09.713Z</time></trkpt><trkpt lat="44.756345" lon="9.341625"><ele>961.6666666666666</ele><time>2026-04-23T08:43:11.713Z</time></trkpt><trkpt lat="44.75628" lon="9.3415933"><ele>961.0</ele><time>2026-04-23T08:43:12.712Z</time></trkpt><trkpt lat="44.7561817" lon="9.34155"><ele>960.9999999999999</ele><time>2026-04-23T08:43:14.713Z</time></trkpt><trkpt lat="44.756145" lon="9.3414417"><ele>961.0</ele><time>2026-04-23T08:43:16.714Z</time></trkpt><trkpt lat="44.756195" lon="9.3412833"><ele>961.0</ele><time>2026-04-23T08:43:18.713Z</time></trkpt><trkpt lat="44.7562367" lon="9.341185"><ele>961.0</ele><time>2026-04-23T08:43:19.713Z</time></trkpt><trkpt lat="44.7562717" lon="9.3410767"><ele>960.9999999999999</ele><time>2026-04-23T08:43:20.713Z</time></trkpt><trkpt lat="44.7563083" lon="9.3409917"><ele>961.0</ele><time>2026-04-23T08:43:21.712Z</time></trkpt><trkpt lat="44.7564083" lon="9.340915"><ele>962.1666666666666</ele><time>2026-04-23T08:43:23.712Z</time></trkpt><trkpt lat="44.7564683" lon="9.3408783"><ele>963.3333333333333</ele><time>2026-04-23T08:43:24.712Z</time></trkpt><trkpt lat="44.75652" lon="9.3408233"><ele>964.5</ele><time>2026-04-23T08:43:25.712Z</time></trkpt><trkpt lat="44.7565867" lon="9.3406933"><ele>965.6666666666667</ele><time>2026-04-23T08:43:27.713Z</time></trkpt><trkpt lat="44.7566183" lon="9.3405367"><ele>966.8333333333334</ele><time>2026-04-23T08:43:29.712Z</time></trkpt><trkpt lat="44.756635" lon="9.3404367"><ele>968.0</ele><time>2026-04-23T08:43:30.714Z</time></trkpt><trkpt lat="44.7566533" lon="9.34034"><ele>968.0</ele><time>2026-04-23T08:43:31.714Z</time></trkpt><trkpt lat="44.7566933" lon="9.3402633"><ele>967.9999999999999</ele><time>2026-04-23T08:43:32.713Z</time></trkpt><trkpt lat="44.75674" lon="9.34018"><ele>968.0</ele><time>2026-04-23T08:43:33.712Z</time></trkpt><trkpt lat="44.7567767" lon="9.340095"><ele>968.0</ele><time>2026-04-23T08:43:34.712Z</time></trkpt><trkpt lat="44.75681" lon="9.340015"><ele>967.9999999999999</ele><time>2026-04-23T08:43:35.712Z</time></trkpt><trkpt lat="44.7568417" lon="9.3399333"><ele>968.0</ele><time>2026-04-23T08:43:36.712Z</time></trkpt><trkpt lat="44.7568733" lon="9.3398483"><ele>968.0</ele><time>2026-04-23T08:43:37.712Z</time></trkpt><trkpt lat="44.75691" lon="9.3397683"><ele>970.1428571428571</ele><time>2026-04-23T08:43:38.714Z</time></trkpt><trkpt lat="44.7569467" lon="9.3396783"><ele>972.2857142857142</ele><time>2026-04-23T08:43:39.712Z</time></trkpt><trkpt lat="44.7569833" lon="9.33959"><ele>974.4285714285713</ele><time>2026-04-23T08:43:40.713Z</time></trkpt><trkpt lat="44.7570233" lon="9.3395117"><ele>976.5714285714284</ele><time>2026-04-23T08:43:41.712Z</time></trkpt><trkpt lat="44.7570733" lon="9.3394283"><ele>978.7142857142857</ele><time>2026-04-23T08:43:42.713Z</time></trkpt><trkpt lat="44.7571233" lon="9.3393383"><ele>980.8571428571427</ele><time>2026-04-23T08:43:43.713Z</time></trkpt><trkpt lat="44.7571767" lon="9.33928"><ele>982.9999999999999</ele><time>2026-04-23T08:43:44.712Z</time></trkpt><trkpt lat="44.75728" lon="9.339215"><ele>982.9999999999999</ele><time>2026-04-23T08:43:46.712Z</time></trkpt><trkpt lat="44.7573383" lon="9.3391767"><ele>983.0</ele><time>2026-04-23T08:43:48.712Z</time></trkpt><trkpt lat="44.7572717" lon="9.3391283"><ele>982.9999999999999</ele><time>2026-04-23T08:44:14.713Z</time></trkpt><trkpt lat="44.7572117" lon="9.3390567"><ele>982.9999999999999</ele><time>2026-04-23T08:44:15.712Z</time></trkpt><trkpt lat="44.7571567" lon="9.3389883"><ele>983.0</ele><time>2026-04-23T08:44:16.713Z</time></trkpt><trkpt lat="44.7571033" lon="9.33892"><ele>982.9999999999999</ele><time>2026-04-23T08:44:17.713Z</time></trkpt><trkpt lat="44.7570467" lon="9.338855"><ele>982.9999999999999</ele><time>2026-04-23T08:44:18.712Z</time></trkpt><trkpt lat="44.756985" lon="9.338775"><ele>981.0000000000001</ele><time>2026-04-23T08:44:19.713Z</time></trkpt><trkpt lat="44.7569183" lon="9.338685"><ele>979.0</ele><time>2026-04-23T08:44:20.713Z</time></trkpt><trkpt lat="44.756855" lon="9.3386067"><ele>977.0</ele><time>2026-04-23T08:44:21.713Z</time></trkpt><trkpt lat="44.7567883" lon="9.3385217"><ele>975.0</ele><time>2026-04-23T08:44:22.712Z</time></trkpt><trkpt lat="44.756725" lon="9.3384417"><ele>973.0000000000001</ele><time>2026-04-23T08:44:23.712Z</time></trkpt><trkpt lat="44.7566633" lon="9.338375"><ele>971.0</ele><time>2026-04-23T08:44:24.712Z</time></trkpt><trkpt lat="44.7566" lon="9.3383133"><ele>971.0000000000001</ele><time>2026-04-23T08:44:25.714Z</time></trkpt><trkpt lat="44.7565217" lon="9.3382517"><ele>971.0</ele><time>2026-04-23T08:44:26.714Z</time></trkpt><trkpt lat="44.7564383" lon="9.33819"><ele>971.0</ele><time>2026-04-23T08:44:27.713Z</time></trkpt><trkpt lat="44.7563583" lon="9.33813"><ele>971.0</ele><time>2026-04-23T08:44:28.713Z</time></trkpt><trkpt lat="44.75629" lon="9.3380717"><ele>971.0000000000001</ele><time>2026-04-23T08:44:29.714Z</time></trkpt><trkpt lat="44.7562083" lon="9.3380317"><ele>971.0</ele><time>2026-04-23T08:44:30.712Z</time></trkpt><trkpt lat="44.7561217" lon="9.3379933"><ele>973.1666666666667</ele><time>2026-04-23T08:44:31.714Z</time></trkpt><trkpt lat="44.7560383" lon="9.3379533"><ele>975.3333333333334</ele><time>2026-04-23T08:44:32.714Z</time></trkpt><trkpt lat="44.75595" lon="9.3379"><ele>977.5</ele><time>2026-04-23T08:44:33.713Z</time></trkpt><trkpt lat="44.7558833" lon="9.337865"><ele>979.6666666666667</ele><time>2026-04-23T08:44:34.713Z</time></trkpt><trkpt lat="44.755815" lon="9.337825"><ele>981.8333333333334</ele><time>2026-04-23T08:44:35.713Z</time></trkpt><trkpt lat="44.7557483" lon="9.3378033"><ele>984.0</ele><time>2026-04-23T08:44:36.713Z</time></trkpt><trkpt lat="44.7556667" lon="9.3377733"><ele>984.0</ele><time>2026-04-23T08:44:37.713Z</time></trkpt><trkpt lat="44.7555733" lon="9.3377283"><ele>984.0000000000001</ele><time>2026-04-23T08:44:38.713Z</time></trkpt><trkpt lat="44.7554833" lon="9.3376883"><ele>984.0000000000001</ele><time>2026-04-23T08:44:39.712Z</time></trkpt><trkpt lat="44.7553967" lon="9.3376433"><ele>984.0</ele><time>2026-04-23T08:44:40.713Z</time></trkpt><trkpt lat="44.7553067" lon="9.337605"><ele>984.0</ele><time>2026-04-23T08:44:41.714Z</time></trkpt><trkpt lat="44.7552233" lon="9.3375717"><ele>985.0</ele><time>2026-04-23T08:44:42.713Z</time></trkpt><trkpt lat="44.7551367" lon="9.3375467"><ele>986.0</ele><time>2026-04-23T08:44:43.714Z</time></trkpt><trkpt lat="44.7550617" lon="9.3375333"><ele>987.0</ele><time>2026-04-23T08:44:44.714Z</time></trkpt><trkpt lat="44.75494" lon="9.3374867"><ele>988.0</ele><time>2026-04-23T08:44:46.713Z</time></trkpt><trkpt lat="44.7548717" lon="9.3374283"><ele>989.0</ele><time>2026-04-23T08:44:47.713Z</time></trkpt><trkpt lat="44.7548033" lon="9.3373817"><ele>990.0</ele><time>2026-04-23T08:44:48.715Z</time></trkpt><trkpt lat="44.7547467" lon="9.3373367"><ele>990.0</ele><time>2026-04-23T08:44:49.714Z</time></trkpt><trkpt lat="44.7546867" lon="9.337295"><ele>990.0</ele><time>2026-04-23T08:44:50.716Z</time></trkpt><trkpt lat="44.7545833" lon="9.33723"><ele>990.0</ele><time>2026-04-23T08:44:52.714Z</time></trkpt><trkpt lat="44.75447" lon="9.33717"><ele>990.0</ele><time>2026-04-23T08:44:54.715Z</time></trkpt><trkpt lat="44.7543583" lon="9.3371217"><ele>990.0</ele><time>2026-04-23T08:44:56.715Z</time></trkpt><trkpt lat="44.7543017" lon="9.3370783"><ele>987.8333333333334</ele><time>2026-04-23T08:44:57.712Z</time></trkpt><trkpt lat="44.7542567" lon="9.337015"><ele>985.6666666666667</ele><time>2026-04-23T08:44:58.715Z</time></trkpt><trkpt lat="44.7542217" lon="9.3369317"><ele>983.5</ele><time>2026-04-23T08:44:59.713Z</time></trkpt><trkpt lat="44.7541817" lon="9.3368417"><ele>981.3333333333334</ele><time>2026-04-23T08:45:00.712Z</time></trkpt><trkpt lat="44.7541467" lon="9.33676"><ele>979.1666666666667</ele><time>2026-04-23T08:45:01.713Z</time></trkpt><trkpt lat="44.75411" lon="9.3366833"><ele>977.0</ele><time>2026-04-23T08:45:02.713Z</time></trkpt><trkpt lat="44.754025" lon="9.3365633"><ele>977.0</ele><time>2026-04-23T08:45:04.713Z</time></trkpt><trkpt lat="44.7539767" lon="9.3365033"><ele>977.0</ele><time>2026-04-23T08:45:05.714Z</time></trkpt><trkpt lat="44.7539383" lon="9.33637"><ele>977.0</ele><time>2026-04-23T08:45:07.712Z</time></trkpt><trkpt lat="44.7539617" lon="9.33621"><ele>977.0</ele><time>2026-04-23T08:45:09.712Z</time></trkpt><trkpt lat="44.7539517" lon="9.336045"><ele>977.0</ele><time>2026-04-23T08:45:11.715Z</time></trkpt><trkpt lat="44.75392" lon="9.335945"><ele>977.0</ele><time>2026-04-23T08:45:12.713Z</time></trkpt><trkpt lat="44.753865" lon="9.3358567"><ele>977.0</ele><time>2026-04-23T08:45:13.713Z</time></trkpt><trkpt lat="44.753795" lon="9.33577"><ele>977.0</ele><time>2026-04-23T08:45:14.713Z</time></trkpt><trkpt lat="44.7537083" lon="9.3356733"><ele>977.0</ele><time>2026-04-23T08:45:15.714Z</time></trkpt><trkpt lat="44.7535917" lon="9.335575"><ele>977.0</ele><time>2026-04-23T08:45:17.713Z</time></trkpt><trkpt lat="44.7535167" lon="9.3355217"><ele>977.0000000000001</ele><time>2026-04-23T08:45:18.712Z</time></trkpt><trkpt lat="44.7534433" lon="9.335475"><ele>977.0</ele><time>2026-04-23T08:45:19.713Z</time></trkpt><trkpt lat="44.75336" lon="9.3354283"><ele>977.0</ele><time>2026-04-23T08:45:20.715Z</time></trkpt><trkpt lat="44.753275" lon="9.3353883"><ele>977.0</ele><time>2026-04-23T08:45:21.712Z</time></trkpt><trkpt lat="44.753195" lon="9.33535"><ele>977.0000000000001</ele><time>2026-04-23T08:45:22.712Z</time></trkpt><trkpt lat="44.75313" lon="9.3353233"><ele>977.0</ele><time>2026-04-23T08:45:23.714Z</time></trkpt><trkpt lat="44.7530283" lon="9.33528"><ele>977.0000000000001</ele><time>2026-04-23T08:45:25.714Z</time></trkpt><trkpt lat="44.752955" lon="9.335175"><ele>977.0</ele><time>2026-04-23T08:45:27.712Z</time></trkpt><trkpt lat="44.7529233" lon="9.3350817"><ele>977.0</ele><time>2026-04-23T08:45:28.715Z</time></trkpt><trkpt lat="44.75289" lon="9.3349883"><ele>977.0</ele><time>2026-04-23T08:45:29.713Z</time></trkpt><trkpt lat="44.752845" lon="9.3348917"><ele>977.0000000000001</ele><time>2026-04-23T08:45:30.714Z</time></trkpt><trkpt lat="44.7527933" lon="9.334825"><ele>977.0</ele><time>2026-04-23T08:45:31.713Z</time></trkpt><trkpt lat="44.7527367" lon="9.3347617"><ele>977.6666666666667</ele><time>2026-04-23T08:45:32.714Z</time></trkpt><trkpt lat="44.7526717" lon="9.3346933"><ele>978.3333333333334</ele><time>2026-04-23T08:45:33.713Z</time></trkpt><trkpt lat="44.7526217" lon="9.3346167"><ele>979.0</ele><time>2026-04-23T08:45:34.713Z</time></trkpt><trkpt lat="44.7525533" lon="9.3344667"><ele>979.6666666666667</ele><time>2026-04-23T08:45:36.712Z</time></trkpt><trkpt lat="44.7525117" lon="9.3343967"><ele>980.3333333333334</ele><time>2026-04-23T08:45:37.712Z</time></trkpt><trkpt lat="44.7524567" lon="9.33434"><ele>981.0</ele><time>2026-04-23T08:45:38.713Z</time></trkpt><trkpt lat="44.7524" lon="9.3342917"><ele>981.0</ele><time>2026-04-23T08:45:39.712Z</time></trkpt><trkpt lat="44.7523" lon="9.3341783"><ele>980.9999999999999</ele><time>2026-04-23T08:45:41.713Z</time></trkpt><trkpt lat="44.75218" lon="9.334115"><ele>980.9999999999999</ele><time>2026-04-23T08:45:43.714Z</time></trkpt><trkpt lat="44.752105" lon="9.3340933"><ele>981.0</ele><time>2026-04-23T08:45:44.714Z</time></trkpt><trkpt lat="44.75203" lon="9.3340617"><ele>981.0</ele><time>2026-04-23T08:45:45.713Z</time></trkpt><trkpt lat="44.751955" lon="9.334025"><ele>981.0</ele><time>2026-04-23T08:45:46.714Z</time></trkpt><trkpt lat="44.751885" lon="9.3339917"><ele>981.0</ele><time>2026-04-23T08:45:47.713Z</time></trkpt><trkpt lat="44.7518167" lon="9.3339783"><ele>981.0</ele><time>2026-04-23T08:45:48.714Z</time></trkpt><trkpt lat="44.751745" lon="9.3339633"><ele>981.0</ele><time>2026-04-23T08:45:49.713Z</time></trkpt><trkpt lat="44.75168" lon="9.3339367"><ele>981.0</ele><time>2026-04-23T08:45:50.714Z</time></trkpt><trkpt lat="44.7516183" lon="9.3339"><ele>981.0</ele><time>2026-04-23T08:45:51.714Z</time></trkpt><trkpt lat="44.7515183" lon="9.33379"><ele>980.5</ele><time>2026-04-23T08:45:53.712Z</time></trkpt><trkpt lat="44.7514667" lon="9.3336267"><ele>980.0</ele><time>2026-04-23T08:45:55.714Z</time></trkpt><trkpt lat="44.7514183" lon="9.3334783"><ele>979.5</ele><time>2026-04-23T08:45:57.714Z</time></trkpt><trkpt lat="44.7513433" lon="9.333355"><ele>979.0</ele><time>2026-04-23T08:45:59.714Z</time></trkpt><trkpt lat="44.7512567" lon="9.333305"><ele>979.0</ele><time>2026-04-23T08:46:01.712Z</time></trkpt><trkpt lat="44.7511817" lon="9.3332017"><ele>979.0000000000001</ele><time>2026-04-23T08:46:03.712Z</time></trkpt><trkpt lat="44.75111" lon="9.3330617"><ele>979.0000000000001</ele><time>2026-04-23T08:46:05.712Z</time></trkpt><trkpt lat="44.751075" lon="9.33298"><ele>979.0</ele><time>2026-04-23T08:46:06.714Z</time></trkpt><trkpt lat="44.7510217" lon="9.332855"><ele>979.0</ele><time>2026-04-23T08:46:08.715Z</time></trkpt><trkpt lat="44.7509383" lon="9.3327383"><ele>977.6</ele><time>2026-04-23T08:46:10.713Z</time></trkpt><trkpt lat="44.7508217" lon="9.3326433"><ele>976.2</ele><time>2026-04-23T08:46:12.713Z</time></trkpt><trkpt lat="44.750705" lon="9.3325567"><ele>974.8000000000001</ele><time>2026-04-23T08:46:14.713Z</time></trkpt><trkpt lat="44.7506483" lon="9.3324983"><ele>973.4000000000001</ele><time>2026-04-23T08:46:15.713Z</time></trkpt><trkpt lat="44.750585" lon="9.3324217"><ele>972.0</ele><time>2026-04-23T08:46:16.712Z</time></trkpt><trkpt lat="44.7505317" lon="9.3323383"><ele>972.0</ele><time>2026-04-23T08:46:17.713Z</time></trkpt><trkpt lat="44.7504767" lon="9.3322583"><ele>972.0</ele><time>2026-04-23T08:46:18.712Z</time></trkpt><trkpt lat="44.75041" lon="9.332195"><ele>972.0</ele><time>2026-04-23T08:46:19.713Z</time></trkpt><trkpt lat="44.7503433" lon="9.3321567"><ele>972.0</ele><time>2026-04-23T08:46:20.714Z</time></trkpt><trkpt lat="44.7502733" lon="9.3321133"><ele>972.0</ele><time>2026-04-23T08:46:21.713Z</time></trkpt><trkpt lat="44.7502083" lon="9.332075"><ele>972.0</ele><time>2026-04-23T08:46:22.713Z</time></trkpt><trkpt lat="44.7501067" lon="9.3320083"><ele>971.0</ele><time>2026-04-23T08:46:24.713Z</time></trkpt><trkpt lat="44.75005" lon="9.3319533"><ele>970.0</ele><time>2026-04-23T08:46:26.713Z</time></trkpt><trkpt lat="44.7500133" lon="9.3318517"><ele>969.0</ele><time>2026-04-23T08:46:48.713Z</time></trkpt><trkpt lat="44.749915" lon="9.33175"><ele>968.0</ele><time>2026-04-23T08:46:50.713Z</time></trkpt><trkpt lat="44.7498467" lon="9.3316883"><ele>967.0</ele><time>2026-04-23T08:46:51.713Z</time></trkpt><trkpt lat="44.7497633" lon="9.3316167"><ele>967.0</ele><time>2026-04-23T08:46:52.714Z</time></trkpt><trkpt lat="44.7496783" lon="9.3315367"><ele>967.0</ele><time>2026-04-23T08:46:53.714Z</time></trkpt><trkpt lat="44.7496133" lon="9.3314467"><ele>967.0</ele><time>2026-04-23T08:46:54.714Z</time></trkpt><trkpt lat="44.74954" lon="9.331345"><ele>967.0</ele><time>2026-04-23T08:46:55.713Z</time></trkpt><trkpt lat="44.7494783" lon="9.3312467"><ele>967.0</ele><time>2026-04-23T08:46:56.713Z</time></trkpt><trkpt lat="44.7494217" lon="9.3311533"><ele>967.8</ele><time>2026-04-23T08:46:57.713Z</time></trkpt><trkpt lat="44.7493567" lon="9.331055"><ele>968.6</ele><time>2026-04-23T08:46:58.713Z</time></trkpt><trkpt lat="44.7492833" lon="9.33097"><ele>969.3999999999999</ele><time>2026-04-23T08:46:59.713Z</time></trkpt><trkpt lat="44.7492117" lon="9.3309067"><ele>970.1999999999999</ele><time>2026-04-23T08:47:00.713Z</time></trkpt><trkpt lat="44.749135" lon="9.33084"><ele>971.0</ele><time>2026-04-23T08:47:01.713Z</time></trkpt><trkpt lat="44.7490617" lon="9.3307717"><ele>971.0000000000001</ele><time>2026-04-23T08:47:02.714Z</time></trkpt><trkpt lat="44.7490067" lon="9.3307083"><ele>971.0</ele><time>2026-04-23T08:47:03.712Z</time></trkpt><trkpt lat="44.7489667" lon="9.330625"><ele>971.0</ele><time>2026-04-23T08:47:04.714Z</time></trkpt><trkpt lat="44.748925" lon="9.3304917"><ele>971.0</ele><time>2026-04-23T08:47:06.712Z</time></trkpt><trkpt lat="44.7488867" lon="9.3304183"><ele>971.0000000000001</ele><time>2026-04-23T08:47:08.713Z</time></trkpt><trkpt lat="44.748825" lon="9.33035"><ele>971.0</ele><time>2026-04-23T08:47:10.713Z</time></trkpt><trkpt lat="44.7487233" lon="9.3302833"><ele>971.5000000000001</ele><time>2026-04-23T08:47:12.712Z</time></trkpt><trkpt lat="44.748645" lon="9.330225"><ele>972.0</ele><time>2026-04-23T08:47:13.713Z</time></trkpt><trkpt lat="44.7485717" lon="9.330145"><ele>972.5</ele><time>2026-04-23T08:47:14.715Z</time></trkpt><trkpt lat="44.7485033" lon="9.3300817"><ele>973.0</ele><time>2026-04-23T08:47:15.713Z</time></trkpt><trkpt lat="44.7484283" lon="9.3300283"><ele>973.5000000000001</ele><time>2026-04-23T08:47:16.713Z</time></trkpt><trkpt lat="44.7483517" lon="9.3299683"><ele>974.0</ele><time>2026-04-23T08:47:17.713Z</time></trkpt><trkpt lat="44.7482833" lon="9.329905"><ele>974.8000000000001</ele><time>2026-04-23T08:47:18.714Z</time></trkpt><trkpt lat="44.748215" lon="9.3298467"><ele>975.6000000000001</ele><time>2026-04-23T08:47:19.713Z</time></trkpt><trkpt lat="44.7481433" lon="9.3297933"><ele>976.4</ele><time>2026-04-23T08:47:20.714Z</time></trkpt><trkpt lat="44.74806" lon="9.3297417"><ele>977.2</ele><time>2026-04-23T08:47:21.713Z</time></trkpt><trkpt lat="44.7479633" lon="9.329685"><ele>978.0</ele><time>2026-04-23T08:47:22.713Z</time></trkpt><trkpt lat="44.74787" lon="9.3296283"><ele>978.0</ele><time>2026-04-23T08:47:23.713Z</time></trkpt><trkpt lat="44.747765" lon="9.3295767"><ele>978.0</ele><time>2026-04-23T08:47:24.713Z</time></trkpt><trkpt lat="44.7476633" lon="9.3295433"><ele>978.0</ele><time>2026-04-23T08:47:25.714Z</time></trkpt><trkpt lat="44.7475667" lon="9.329515"><ele>978.0</ele><time>2026-04-23T08:47:26.713Z</time></trkpt><trkpt lat="44.7474733" lon="9.3295017"><ele>978.0</ele><time>2026-04-23T08:47:27.712Z</time></trkpt><trkpt lat="44.7473817" lon="9.329495"><ele>979.2</ele><time>2026-04-23T08:47:28.713Z</time></trkpt><trkpt lat="44.74728" lon="9.329485"><ele>980.4</ele><time>2026-04-23T08:47:29.713Z</time></trkpt><trkpt lat="44.7471867" lon="9.329475"><ele>981.6000000000001</ele><time>2026-04-23T08:47:30.712Z</time></trkpt><trkpt lat="44.7470867" lon="9.3294717"><ele>982.8000000000001</ele><time>2026-04-23T08:47:31.713Z</time></trkpt><trkpt lat="44.7469817" lon="9.329465"><ele>984.0</ele><time>2026-04-23T08:47:32.713Z</time></trkpt><trkpt lat="44.7468967" lon="9.3294617"><ele>983.8333333333334</ele><time>2026-04-23T08:47:33.712Z</time></trkpt><trkpt lat="44.7468217" lon="9.3294467"><ele>983.6666666666667</ele><time>2026-04-23T08:47:34.714Z</time></trkpt><trkpt lat="44.74675" lon="9.3293983"><ele>983.5</ele><time>2026-04-23T08:47:35.713Z</time></trkpt><trkpt lat="44.7466917" lon="9.329315"><ele>983.3333333333334</ele><time>2026-04-23T08:47:36.712Z</time></trkpt><trkpt lat="44.7466417" lon="9.3292267"><ele>983.1666666666667</ele><time>2026-04-23T08:47:37.713Z</time></trkpt><trkpt lat="44.74659" lon="9.329105"><ele>983.0</ele><time>2026-04-23T08:47:39.712Z</time></trkpt><trkpt lat="44.7465367" lon="9.3289767"><ele>983.3333333333334</ele><time>2026-04-23T08:47:41.713Z</time></trkpt><trkpt lat="44.7465083" lon="9.328885"><ele>983.6666666666667</ele><time>2026-04-23T08:47:42.712Z</time></trkpt><trkpt lat="44.7464817" lon="9.3287917"><ele>984.0</ele><time>2026-04-23T08:47:43.712Z</time></trkpt><trkpt lat="44.7464517" lon="9.3287067"><ele>984.3333333333333</ele><time>2026-04-23T08:47:44.713Z</time></trkpt><trkpt lat="44.7464183" lon="9.3286267"><ele>984.6666666666666</ele><time>2026-04-23T08:47:45.713Z</time></trkpt><trkpt lat="44.7463267" lon="9.32849"><ele>985.0</ele><time>2026-04-23T08:47:47.713Z</time></trkpt><trkpt lat="44.7462783" lon="9.3284183"><ele>985.0</ele><time>2026-04-23T08:47:48.713Z</time></trkpt><trkpt lat="44.746235" lon="9.3283533"><ele>985.0</ele><time>2026-04-23T08:47:49.713Z</time></trkpt><trkpt lat="44.7461883" lon="9.3282533"><ele>985.0</ele><time>2026-04-23T08:47:51.713Z</time></trkpt><trkpt lat="44.7460983" lon="9.3281617"><ele>985.0</ele><time>2026-04-23T08:47:54.713Z</time></trkpt><trkpt lat="44.7460033" lon="9.3280667"><ele>985.0</ele><time>2026-04-23T08:47:56.713Z</time></trkpt><trkpt lat="44.7458983" lon="9.32797"><ele>984.1666666666666</ele><time>2026-04-23T08:47:58.714Z</time></trkpt><trkpt lat="44.7458417" lon="9.3279133"><ele>983.3333333333333</ele><time>2026-04-23T08:47:59.714Z</time></trkpt><trkpt lat="44.7457833" lon="9.327845"><ele>982.5</ele><time>2026-04-23T08:48:00.712Z</time></trkpt><trkpt lat="44.7457267" lon="9.3277833"><ele>981.6666666666667</ele><time>2026-04-23T08:48:01.712Z</time></trkpt><trkpt lat="44.7456383" lon="9.3276833"><ele>980.8333333333334</ele><time>2026-04-23T08:48:03.712Z</time></trkpt><trkpt lat="44.74557" lon="9.3275483"><ele>980.0</ele><time>2026-04-23T08:48:05.714Z</time></trkpt><trkpt lat="44.7455217" lon="9.3274817"><ele>980.0000000000001</ele><time>2026-04-23T08:48:06.717Z</time></trkpt><trkpt lat="44.7454633" lon="9.3274083"><ele>980.0</ele><time>2026-04-23T08:48:07.713Z</time></trkpt><trkpt lat="44.745415" lon="9.327325"><ele>980.0</ele><time>2026-04-23T08:48:08.713Z</time></trkpt><trkpt lat="44.7453783" lon="9.3272317"><ele>980.0</ele><time>2026-04-23T08:48:09.712Z</time></trkpt><trkpt lat="44.7453483" lon="9.3271333"><ele>980.0000000000001</ele><time>2026-04-23T08:48:10.713Z</time></trkpt><trkpt lat="44.7453267" lon="9.3270383"><ele>980.0</ele><time>2026-04-23T08:48:11.712Z</time></trkpt><trkpt lat="44.7453033" lon="9.3268783"><ele>979.0000000000001</ele><time>2026-04-23T08:48:13.713Z</time></trkpt><trkpt lat="44.7452767" lon="9.326795"><ele>978.0</ele><time>2026-04-23T08:48:14.715Z</time></trkpt><trkpt lat="44.7452533" lon="9.32671"><ele>977.0</ele><time>2026-04-23T08:48:15.713Z</time></trkpt><trkpt lat="44.7452283" lon="9.326625"><ele>976.0</ele><time>2026-04-23T08:48:16.712Z</time></trkpt><trkpt lat="44.7451717" lon="9.3264883"><ele>975.0000000000001</ele><time>2026-04-23T08:48:18.714Z</time></trkpt><trkpt lat="44.7451183" lon="9.3263567"><ele>974.0</ele><time>2026-04-23T08:48:20.714Z</time></trkpt><trkpt lat="44.74507" lon="9.32626"><ele>977.0</ele><time>2026-04-23T08:48:22.714Z</time></trkpt><trkpt lat="44.7449933" lon="9.3261083"><ele>980.0000000000001</ele><time>2026-04-23T08:48:57.712Z</time></trkpt><trkpt lat="44.744955" lon="9.325975"><ele>983.0000000000001</ele><time>2026-04-23T08:48:59.712Z</time></trkpt><trkpt lat="44.74488" lon="9.3258217"><ele>986.0</ele><time>2026-04-23T08:49:01.713Z</time></trkpt><trkpt lat="44.7448333" lon="9.3257367"><ele>989.0</ele><time>2026-04-23T08:49:02.714Z</time></trkpt><trkpt lat="44.74478" lon="9.32567"><ele>989.0000000000001</ele><time>2026-04-23T08:49:03.713Z</time></trkpt><trkpt lat="44.7447217" lon="9.3256133"><ele>989.0</ele><time>2026-04-23T08:49:04.713Z</time></trkpt><trkpt lat="44.7446533" lon="9.3255583"><ele>989.0</ele><time>2026-04-23T08:49:05.712Z</time></trkpt><trkpt lat="44.74459" lon="9.3255033"><ele>989.0</ele><time>2026-04-23T08:49:06.712Z</time></trkpt><trkpt lat="44.7445383" lon="9.3254333"><ele>989.0000000000001</ele><time>2026-04-23T08:49:07.712Z</time></trkpt><trkpt lat="44.7445017" lon="9.3253383"><ele>989.0</ele><time>2026-04-23T08:49:08.712Z</time></trkpt><trkpt lat="44.7444767" lon="9.325225"><ele>989.2</ele><time>2026-04-23T08:49:09.713Z</time></trkpt><trkpt lat="44.7444533" lon="9.3251"><ele>989.4000000000001</ele><time>2026-04-23T08:49:10.712Z</time></trkpt><trkpt lat="44.7444333" lon="9.3249717"><ele>989.6</ele><time>2026-04-23T08:49:11.712Z</time></trkpt><trkpt lat="44.744415" lon="9.3248483"><ele>989.8</ele><time>2026-04-23T08:49:12.713Z</time></trkpt><trkpt lat="44.744385" lon="9.3247267"><ele>990.0</ele><time>2026-04-23T08:49:13.714Z</time></trkpt><trkpt lat="44.744365" lon="9.32461"><ele>992.3333333333334</ele><time>2026-04-23T08:49:14.714Z</time></trkpt><trkpt lat="44.74434" lon="9.3245"><ele>994.6666666666667</ele><time>2026-04-23T08:49:15.713Z</time></trkpt><trkpt lat="44.744315" lon="9.3243883"><ele>997.0</ele><time>2026-04-23T08:49:16.714Z</time></trkpt><trkpt lat="44.7442883" lon="9.3242717"><ele>999.3333333333334</ele><time>2026-04-23T08:49:17.714Z</time></trkpt><trkpt lat="44.74426" lon="9.324155"><ele>1001.6666666666667</ele><time>2026-04-23T08:49:18.713Z</time></trkpt><trkpt lat="44.744225" lon="9.3240483"><ele>1004.0</ele><time>2026-04-23T08:49:19.713Z</time></trkpt><trkpt lat="44.74418" lon="9.3239567"><ele>1006.0000000000001</ele><time>2026-04-23T08:49:20.713Z</time></trkpt><trkpt lat="44.74414" lon="9.3238683"><ele>1008.0</ele><time>2026-04-23T08:49:21.713Z</time></trkpt><trkpt lat="44.7441117" lon="9.323775"><ele>1010.0</ele><time>2026-04-23T08:49:22.714Z</time></trkpt><trkpt lat="44.7440883" lon="9.323675"><ele>1012.0</ele><time>2026-04-23T08:49:23.713Z</time></trkpt><trkpt lat="44.7440617" lon="9.3235933"><ele>1014.0000000000001</ele><time>2026-04-23T08:49:24.713Z</time></trkpt><trkpt lat="44.7440133" lon="9.3235233"><ele>1016.0</ele><time>2026-04-23T08:49:25.715Z</time></trkpt><trkpt lat="44.74394" lon="9.3233817"><ele>1016.0000000000001</ele><time>2026-04-23T08:49:27.714Z</time></trkpt><trkpt lat="44.743855" lon="9.3232517"><ele>1016.0</ele><time>2026-04-23T08:49:29.713Z</time></trkpt><trkpt lat="44.7437967" lon="9.3232133"><ele>1016.0</ele><time>2026-04-23T08:49:30.713Z</time></trkpt><trkpt lat="44.7437233" lon="9.3231183"><ele>1016.0</ele><time>2026-04-23T08:49:32.715Z</time></trkpt><trkpt lat="44.7436817" lon="9.3230317"><ele>1016.0000000000001</ele><time>2026-04-23T08:49:34.713Z</time></trkpt><trkpt lat="44.7437183" lon="9.3229517"><ele>1016.0</ele><time>2026-04-23T08:49:36.714Z</time></trkpt><trkpt lat="44.743775" lon="9.3228567"><ele>1018.8</ele><time>2026-04-23T08:49:38.714Z</time></trkpt><trkpt lat="44.74384" lon="9.3227633"><ele>1021.5999999999999</ele><time>2026-04-23T08:49:40.714Z</time></trkpt><trkpt lat="44.743905" lon="9.3226583"><ele>1024.4</ele><time>2026-04-23T08:49:42.712Z</time></trkpt><trkpt lat="44.7439483" lon="9.32253"><ele>1027.2</ele><time>2026-04-23T08:49:44.714Z</time></trkpt><trkpt lat="44.7439583" lon="9.3223933"><ele>1030.0</ele><time>2026-04-23T08:49:46.714Z</time></trkpt><trkpt lat="44.7439167" lon="9.322285"><ele>1031.25</ele><time>2026-04-23T08:49:48.713Z</time></trkpt><trkpt lat="44.74385" lon="9.3221867"><ele>1032.5</ele><time>2026-04-23T08:49:50.714Z</time></trkpt><trkpt lat="44.74376" lon="9.3220867"><ele>1033.75</ele><time>2026-04-23T08:49:52.713Z</time></trkpt><trkpt lat="44.74368" lon="9.3219533"><ele>1035.0</ele><time>2026-04-23T08:49:54.713Z</time></trkpt><trkpt lat="44.743605" lon="9.321825"><ele>1038.5</ele><time>2026-04-23T08:49:56.717Z</time></trkpt><trkpt lat="44.7435217" lon="9.3217"><ele>1042.0</ele><time>2026-04-23T08:49:58.714Z</time></trkpt><trkpt lat="44.7434767" lon="9.3215533"><ele>1045.5</ele><time>2026-04-23T08:50:00.714Z</time></trkpt><trkpt lat="44.7434667" lon="9.3214033"><ele>1049.0</ele><time>2026-04-23T08:50:02.714Z</time></trkpt><trkpt lat="44.7434733" lon="9.3212167"><ele>1047.3333333333335</ele><time>2026-04-23T08:50:04.714Z</time></trkpt><trkpt lat="44.7434833" lon="9.3211117"><ele>1045.6666666666667</ele><time>2026-04-23T08:50:05.715Z</time></trkpt><trkpt lat="44.7434983" lon="9.3209933"><ele>1044.0</ele><time>2026-04-23T08:50:06.714Z</time></trkpt><trkpt lat="44.7435283" lon="9.320865"><ele>1042.3333333333333</ele><time>2026-04-23T08:50:07.714Z</time></trkpt><trkpt lat="44.7435567" lon="9.3207567"><ele>1040.6666666666665</ele><time>2026-04-23T08:50:08.715Z</time></trkpt><trkpt lat="44.74359" lon="9.3206767"><ele>1039.0</ele><time>2026-04-23T08:50:09.714Z</time></trkpt><trkpt lat="44.7436117" lon="9.3205883"><ele>1040.2</ele><time>2026-04-23T08:50:10.714Z</time></trkpt><trkpt lat="44.74365" lon="9.320435"><ele>1041.4</ele><time>2026-04-23T08:50:12.713Z</time></trkpt><trkpt lat="44.743665" lon="9.3203467"><ele>1042.6</ele><time>2026-04-23T08:50:13.714Z</time></trkpt><trkpt lat="44.74368" lon="9.3201767"><ele>1043.8</ele><time>2026-04-23T08:50:15.715Z</time></trkpt><trkpt lat="44.743715" lon="9.3200333"><ele>1045.0</ele><time>2026-04-23T08:50:17.714Z</time></trkpt><trkpt lat="44.7437267" lon="9.3199283"><ele>1045.0</ele><time>2026-04-23T08:50:19.715Z</time></trkpt><trkpt lat="44.743725" lon="9.3198133"><ele>1045.0</ele><time>2026-04-23T08:50:21.713Z</time></trkpt><trkpt lat="44.7437483" lon="9.3196967"><ele>1045.0</ele><time>2026-04-23T08:50:23.715Z</time></trkpt><trkpt lat="44.7437817" lon="9.3195467"><ele>1045.0</ele><time>2026-04-23T08:50:25.714Z</time></trkpt><trkpt lat="44.743815" lon="9.3193867"><ele>1045.0</ele><time>2026-04-23T08:50:27.713Z</time></trkpt><trkpt lat="44.743855" lon="9.3192467"><ele>1045.8</ele><time>2026-04-23T08:50:29.714Z</time></trkpt><trkpt lat="44.743885" lon="9.3191667"><ele>1046.6</ele><time>2026-04-23T08:50:30.713Z</time></trkpt><trkpt lat="44.7439517" lon="9.3190267"><ele>1047.4</ele><time>2026-04-23T08:50:32.714Z</time></trkpt><trkpt lat="44.7439867" lon="9.318945"><ele>1048.2</ele><time>2026-04-23T08:50:33.714Z</time></trkpt><trkpt lat="44.7440183" lon="9.31885"><ele>1049.0</ele><time>2026-04-23T08:50:34.713Z</time></trkpt><trkpt lat="44.74405" lon="9.3186817"><ele>1051.5</ele><time>2026-04-23T08:50:36.715Z</time></trkpt><trkpt lat="44.7440633" lon="9.3185867"><ele>1054.0</ele><time>2026-04-23T08:50:37.714Z</time></trkpt><trkpt lat="44.7440817" lon="9.3184917"><ele>1056.5</ele><time>2026-04-23T08:50:38.714Z</time></trkpt><trkpt lat="44.744105" lon="9.3184067"><ele>1059.0</ele><time>2026-04-23T08:50:39.713Z</time></trkpt><trkpt lat="44.7441233" lon="9.3183167"><ele>1061.5</ele><time>2026-04-23T08:50:40.712Z</time></trkpt><trkpt lat="44.7441633" lon="9.3181517"><ele>1064.0</ele><time>2026-04-23T08:50:42.713Z</time></trkpt><trkpt lat="44.7441917" lon="9.3180433"><ele>1064.0</ele><time>2026-04-23T08:50:43.714Z</time></trkpt><trkpt lat="44.7442167" lon="9.3179383"><ele>1064.0</ele><time>2026-04-23T08:50:44.715Z</time></trkpt><trkpt lat="44.7442467" lon="9.3178317"><ele>1064.0</ele><time>2026-04-23T08:50:45.713Z</time></trkpt><trkpt lat="44.7442817" lon="9.31775"><ele>1064.0</ele><time>2026-04-23T08:50:46.713Z</time></trkpt><trkpt lat="44.7443233" lon="9.31767"><ele>1064.0</ele><time>2026-04-23T08:50:47.714Z</time></trkpt><trkpt lat="44.7444067" lon="9.3175917"><ele>1064.0</ele><time>2026-04-23T08:50:49.714Z</time></trkpt><trkpt lat="44.7444883" lon="9.3175533"><ele>1064.0</ele><time>2026-04-23T08:50:50.714Z</time></trkpt><trkpt lat="44.744565" lon="9.3175017"><ele>1064.0</ele><time>2026-04-23T08:50:51.713Z</time></trkpt><trkpt lat="44.7446383" lon="9.31744"><ele>1064.0</ele><time>2026-04-23T08:50:52.713Z</time></trkpt><trkpt lat="44.7446967" lon="9.3173767"><ele>1064.0</ele><time>2026-04-23T08:50:53.713Z</time></trkpt><trkpt lat="44.7447583" lon="9.3173017"><ele>1064.0</ele><time>2026-04-23T08:50:54.713Z</time></trkpt><trkpt lat="44.7448067" lon="9.3172317"><ele>1064.0</ele><time>2026-04-23T08:50:55.714Z</time></trkpt><trkpt lat="44.7448817" lon="9.3171283"><ele>1066.2</ele><time>2026-04-23T08:50:57.713Z</time></trkpt><trkpt lat="44.744955" lon="9.3170333"><ele>1068.4</ele><time>2026-04-23T08:50:59.713Z</time></trkpt><trkpt lat="44.7449967" lon="9.3169233"><ele>1070.6</ele><time>2026-04-23T08:51:01.715Z</time></trkpt><trkpt lat="44.7450167" lon="9.3168033"><ele>1072.8</ele><time>2026-04-23T08:51:03.713Z</time></trkpt><trkpt lat="44.7450033" lon="9.316675"><ele>1075.0</ele><time>2026-04-23T08:51:05.714Z</time></trkpt><trkpt lat="44.7449967" lon="9.3165467"><ele>1075.0</ele><time>2026-04-23T08:51:07.714Z</time></trkpt><trkpt lat="44.744995" lon="9.3164433"><ele>1075.0</ele><time>2026-04-23T08:51:11.713Z</time></trkpt><trkpt lat="44.7449717" lon="9.3163433"><ele>1075.0</ele><time>2026-04-23T08:51:14.715Z</time></trkpt><trkpt lat="44.7449467" lon="9.3162217"><ele>1075.0</ele><time>2026-04-23T08:51:16.713Z</time></trkpt><trkpt lat="44.744895" lon="9.3160267"><ele>1075.0</ele><time>2026-04-23T08:51:18.714Z</time></trkpt><trkpt lat="44.744855" lon="9.3159233"><ele>1075.0</ele><time>2026-04-23T08:51:19.716Z</time></trkpt><trkpt lat="44.7448083" lon="9.315785"><ele>1075.0</ele><time>2026-04-23T08:51:20.715Z</time></trkpt><trkpt lat="44.744785" lon="9.3156483"><ele>1075.0</ele><time>2026-04-23T08:51:21.715Z</time></trkpt><trkpt lat="44.7447717" lon="9.3155067"><ele>1075.0</ele><time>2026-04-23T08:51:22.715Z</time></trkpt><trkpt lat="44.7447617" lon="9.3153817"><ele>1075.0</ele><time>2026-04-23T08:51:23.715Z</time></trkpt><trkpt lat="44.7447717" lon="9.31524"><ele>1076.0</ele><time>2026-04-23T08:51:24.715Z</time></trkpt><trkpt lat="44.7447783" lon="9.3151"><ele>1077.0</ele><time>2026-04-23T08:51:25.715Z</time></trkpt><trkpt lat="44.7447933" lon="9.3149583"><ele>1078.0</ele><time>2026-04-23T08:51:26.716Z</time></trkpt><trkpt lat="44.7448083" lon="9.314815"><ele>1079.0</ele><time>2026-04-23T08:51:27.714Z</time></trkpt><trkpt lat="44.7448233" lon="9.3146767"><ele>1080.0</ele><time>2026-04-23T08:51:28.715Z</time></trkpt><trkpt lat="44.7448467" lon="9.3145517"><ele>1081.0</ele><time>2026-04-23T08:51:29.713Z</time></trkpt><trkpt lat="44.7448667" lon="9.314455"><ele>1082.0</ele><time>2026-04-23T08:51:30.714Z</time></trkpt><trkpt lat="44.74491" lon="9.3143533"><ele>1083.0</ele><time>2026-04-23T08:51:31.714Z</time></trkpt><trkpt lat="44.744955" lon="9.31424"><ele>1084.0</ele><time>2026-04-23T08:51:32.715Z</time></trkpt><trkpt lat="44.745" lon="9.31413"><ele>1085.0</ele><time>2026-04-23T08:51:33.714Z</time></trkpt><trkpt lat="44.7450467" lon="9.3140233"><ele>1086.0</ele><time>2026-04-23T08:51:34.715Z</time></trkpt><trkpt lat="44.745075" lon="9.3139133"><ele>1086.0</ele><time>2026-04-23T08:51:35.716Z</time></trkpt><trkpt lat="44.7451" lon="9.3138217"><ele>1086.0</ele><time>2026-04-23T08:51:36.714Z</time></trkpt><trkpt lat="44.7451217" lon="9.3137233"><ele>1086.0</ele><time>2026-04-23T08:51:39.713Z</time></trkpt><trkpt lat="44.745055" lon="9.3137317"><ele>1086.0</ele><time>2026-04-23T08:52:15.712Z</time></trkpt><trkpt lat="44.7449517" lon="9.3138367"><ele>1086.0</ele><time>2026-04-23T08:52:17.714Z</time></trkpt><trkpt lat="44.744895" lon="9.3138833"><ele>1086.0</ele><time>2026-04-23T08:52:18.714Z</time></trkpt><trkpt lat="44.744835" lon="9.31394"><ele>1086.0</ele><time>2026-04-23T08:52:19.716Z</time></trkpt><trkpt lat="44.7447867" lon="9.3140033"><ele>1086.0</ele><time>2026-04-23T08:52:20.717Z</time></trkpt><trkpt lat="44.74473" lon="9.3141"><ele>1086.0</ele><time>2026-04-23T08:52:22.715Z</time></trkpt><trkpt lat="44.744685" lon="9.31417"><ele>1086.0</ele><time>2026-04-23T08:52:25.717Z</time></trkpt><trkpt lat="44.7446233" lon="9.3142133"><ele>1086.0</ele><time>2026-04-23T08:52:39.712Z</time></trkpt><trkpt lat="44.74455" lon="9.3143133"><ele>1086.0</ele><time>2026-04-23T08:52:41.714Z</time></trkpt><trkpt lat="44.7444467" lon="9.3144183"><ele>1086.0</ele><time>2026-04-23T08:52:43.715Z</time></trkpt><trkpt lat="44.7443883" lon="9.31446"><ele>1086.0</ele><time>2026-04-23T08:52:44.714Z</time></trkpt><trkpt lat="44.7443317" lon="9.3145033"><ele>1086.0</ele><time>2026-04-23T08:52:45.713Z</time></trkpt><trkpt lat="44.7442567" lon="9.314605"><ele>1086.0</ele><time>2026-04-23T08:52:47.715Z</time></trkpt><trkpt lat="44.7441833" lon="9.31468"><ele>1086.0</ele><time>2026-04-23T08:52:49.715Z</time></trkpt><trkpt lat="44.7440933" lon="9.314785"><ele>1086.0</ele><time>2026-04-23T08:52:51.713Z</time></trkpt><trkpt lat="44.7440117" lon="9.314875"><ele>1089.0</ele><time>2026-04-23T08:52:53.714Z</time></trkpt><trkpt lat="44.7439383" lon="9.3149417"><ele>1092.0</ele><time>2026-04-23T08:52:55.712Z</time></trkpt><trkpt lat="44.7438583" lon="9.3150167"><ele>1095.0</ele><time>2026-04-23T08:52:57.713Z</time></trkpt><trkpt lat="44.74379" lon="9.3151067"><ele>1098.0</ele><time>2026-04-23T08:52:59.714Z</time></trkpt><trkpt lat="44.74373" lon="9.3151683"><ele>1101.0</ele><time>2026-04-23T08:53:01.715Z</time></trkpt><trkpt lat="44.7436783" lon="9.3152317"><ele>1104.0</ele><time>2026-04-23T08:53:03.713Z</time></trkpt><trkpt lat="44.7436167" lon="9.3153033"><ele>1104.0</ele><time>2026-04-23T08:53:05.714Z</time></trkpt><trkpt lat="44.7435533" lon="9.3153917"><ele>1104.0</ele><time>2026-04-23T08:53:07.713Z</time></trkpt><trkpt lat="44.7434867" lon="9.3154733"><ele>1104.0</ele><time>2026-04-23T08:53:09.713Z</time></trkpt><trkpt lat="44.7434467" lon="9.315545"><ele>1104.0</ele><time>2026-04-23T08:53:10.714Z</time></trkpt><trkpt lat="44.7434083" lon="9.3156417"><ele>1104.0</ele><time>2026-04-23T08:53:12.713Z</time></trkpt><trkpt lat="44.7433683" lon="9.3157317"><ele>1104.0</ele><time>2026-04-23T08:53:15.713Z</time></trkpt><trkpt lat="44.74335" lon="9.3158233"><ele>1110.2</ele><time>2026-04-23T08:53:18.715Z</time></trkpt><trkpt lat="44.743335" lon="9.31594"><ele>1116.4</ele><time>2026-04-23T08:53:21.714Z</time></trkpt><trkpt lat="44.7433067" lon="9.3160433"><ele>1122.6</ele><time>2026-04-23T08:53:23.714Z</time></trkpt><trkpt lat="44.7432833" lon="9.3161733"><ele>1128.8</ele><time>2026-04-23T08:53:25.714Z</time></trkpt><trkpt lat="44.7432283" lon="9.3163267"><ele>1135.0</ele><time>2026-04-23T08:53:27.714Z</time></trkpt><trkpt lat="44.743185" lon="9.3164583"><ele>1135.3333333333333</ele><time>2026-04-23T08:53:29.714Z</time></trkpt><trkpt lat="44.7431783" lon="9.3165717"><ele>1135.6666666666665</ele><time>2026-04-23T08:53:31.715Z</time></trkpt><trkpt lat="44.74318" lon="9.31671"><ele>1136.0</ele><time>2026-04-23T08:53:33.715Z</time></trkpt><trkpt lat="44.74316" lon="9.316805"><ele>1136.3333333333333</ele><time>2026-04-23T08:53:34.716Z</time></trkpt><trkpt lat="44.74314" lon="9.31689"><ele>1136.6666666666667</ele><time>2026-04-23T08:53:35.714Z</time></trkpt><trkpt lat="44.7430933" lon="9.3170483"><ele>1137.0</ele><time>2026-04-23T08:53:37.715Z</time></trkpt><trkpt lat="44.7430333" lon="9.3172083"><ele>1135.0</ele><time>2026-04-23T08:53:39.715Z</time></trkpt><trkpt lat="44.7430017" lon="9.3172933"><ele>1133.0</ele><time>2026-04-23T08:53:40.715Z</time></trkpt><trkpt lat="44.742965" lon="9.3173833"><ele>1131.0</ele><time>2026-04-23T08:53:41.717Z</time></trkpt><trkpt lat="44.7429283" lon="9.3174633"><ele>1129.0</ele><time>2026-04-23T08:53:42.715Z</time></trkpt><trkpt lat="44.7428583" lon="9.3176067"><ele>1127.0</ele><time>2026-04-23T08:53:44.716Z</time></trkpt><trkpt lat="44.74283" lon="9.3176883"><ele>1125.0</ele><time>2026-04-23T08:53:45.715Z</time></trkpt><trkpt lat="44.7428" lon="9.3177817"><ele>1125.0</ele><time>2026-04-23T08:53:46.715Z</time></trkpt><trkpt lat="44.7427683" lon="9.3178667"><ele>1125.0</ele><time>2026-04-23T08:53:47.715Z</time></trkpt><trkpt lat="44.7427317" lon="9.3179583"><ele>1125.0</ele><time>2026-04-23T08:53:48.714Z</time></trkpt><trkpt lat="44.7426933" lon="9.3180583"><ele>1125.0</ele><time>2026-04-23T08:53:49.716Z</time></trkpt><trkpt lat="44.7426567" lon="9.3181567"><ele>1125.0</ele><time>2026-04-23T08:53:50.716Z</time></trkpt><trkpt lat="44.7426167" lon="9.3183117"><ele>1125.0</ele><time>2026-04-23T08:53:52.716Z</time></trkpt><trkpt lat="44.7426" lon="9.3184617"><ele>1126.5</ele><time>2026-04-23T08:53:54.715Z</time></trkpt><trkpt lat="44.74257" lon="9.31854"><ele>1128.0</ele><time>2026-04-23T08:53:55.713Z</time></trkpt><trkpt lat="44.7425267" lon="9.3186233"><ele>1129.5</ele><time>2026-04-23T08:53:56.717Z</time></trkpt><trkpt lat="44.7424717" lon="9.3187083"><ele>1131.0</ele><time>2026-04-23T08:53:57.714Z</time></trkpt><trkpt lat="44.7424217" lon="9.3187767"><ele>1132.5</ele><time>2026-04-23T08:53:58.714Z</time></trkpt><trkpt lat="44.742365" lon="9.31883"><ele>1134.0</ele><time>2026-04-23T08:53:59.717Z</time></trkpt><trkpt lat="44.7422683" lon="9.3188933"><ele>1130.4</ele><time>2026-04-23T08:54:01.714Z</time></trkpt><trkpt lat="44.7421483" lon="9.3189017"><ele>1126.8000000000002</ele><time>2026-04-23T08:54:07.715Z</time></trkpt><trkpt lat="44.74208" lon="9.3189117"><ele>1123.1999999999998</ele><time>2026-04-23T08:54:10.713Z</time></trkpt><trkpt lat="44.7420017" lon="9.318945"><ele>1119.6</ele><time>2026-04-23T08:54:36.712Z</time></trkpt><trkpt lat="44.741905" lon="9.3189983"><ele>1116.0</ele><time>2026-04-23T08:54:38.712Z</time></trkpt><trkpt lat="44.7418033" lon="9.3190467"><ele>1116.0</ele><time>2026-04-23T08:54:40.713Z</time></trkpt><trkpt lat="44.741695" lon="9.31907"><ele>1116.0</ele><time>2026-04-23T08:54:42.712Z</time></trkpt><trkpt lat="44.7415817" lon="9.3191"><ele>1116.0</ele><time>2026-04-23T08:54:44.714Z</time></trkpt><trkpt lat="44.7415067" lon="9.3191383"><ele>1116.0</ele><time>2026-04-23T08:54:45.712Z</time></trkpt><trkpt lat="44.74143" lon="9.31917"><ele>1116.0</ele><time>2026-04-23T08:54:46.714Z</time></trkpt><trkpt lat="44.7413533" lon="9.3192017"><ele>1116.0</ele><time>2026-04-23T08:54:47.713Z</time></trkpt><trkpt lat="44.74128" lon="9.31924"><ele>1116.0</ele><time>2026-04-23T08:54:48.716Z</time></trkpt><trkpt lat="44.7412133" lon="9.3192983"><ele>1116.0</ele><time>2026-04-23T08:54:49.713Z</time></trkpt><trkpt lat="44.74116" lon="9.3193517"><ele>1116.0</ele><time>2026-04-23T08:54:50.713Z</time></trkpt><trkpt lat="44.741075" lon="9.3194583"><ele>1116.0</ele><time>2026-04-23T08:54:52.713Z</time></trkpt><trkpt lat="44.7409717" lon="9.31954"><ele>1114.0</ele><time>2026-04-23T08:54:54.713Z</time></trkpt><trkpt lat="44.7409133" lon="9.31958"><ele>1112.0</ele><time>2026-04-23T08:54:55.712Z</time></trkpt><trkpt lat="44.740805" lon="9.3196267"><ele>1110.0</ele><time>2026-04-23T08:54:57.713Z</time></trkpt><trkpt lat="44.74074" lon="9.3196367"><ele>1108.0</ele><time>2026-04-23T08:54:58.712Z</time></trkpt><trkpt lat="44.7406767" lon="9.3196417"><ele>1106.0</ele><time>2026-04-23T08:54:59.712Z</time></trkpt><trkpt lat="44.740555" lon="9.31965"><ele>1104.0</ele><time>2026-04-23T08:55:01.713Z</time></trkpt><trkpt lat="44.7404483" lon="9.3196883"><ele>1104.0</ele><time>2026-04-23T08:55:03.712Z</time></trkpt><trkpt lat="44.740385" lon="9.31972"><ele>1104.0</ele><time>2026-04-23T08:55:05.714Z</time></trkpt><trkpt lat="44.740315" lon="9.319755"><ele>1104.0</ele><time>2026-04-23T08:55:08.714Z</time></trkpt><trkpt lat="44.7402267" lon="9.3197767"><ele>1104.0</ele><time>2026-04-23T08:55:10.712Z</time></trkpt><trkpt lat="44.7401083" lon="9.3198183"><ele>1104.0</ele><time>2026-04-23T08:55:12.713Z</time></trkpt><trkpt lat="44.7400433" lon="9.3198483"><ele>1104.0</ele><time>2026-04-23T08:55:13.712Z</time></trkpt><trkpt lat="44.73994" lon="9.31992"><ele>1100.8</ele><time>2026-04-23T08:55:15.712Z</time></trkpt><trkpt lat="44.7398767" lon="9.3199983"><ele>1097.6000000000001</ele><time>2026-04-23T08:55:17.713Z</time></trkpt><trkpt lat="44.7397867" lon="9.3200283"><ele>1094.4</ele><time>2026-04-23T08:55:19.713Z</time></trkpt><trkpt lat="44.7397" lon="9.3200833"><ele>1091.2</ele><time>2026-04-23T08:55:21.712Z</time></trkpt><trkpt lat="44.7396" lon="9.3201683"><ele>1088.0</ele><time>2026-04-23T08:55:23.711Z</time></trkpt><trkpt lat="44.7395383" lon="9.3202017"><ele>1088.0</ele><time>2026-04-23T08:55:24.712Z</time></trkpt><trkpt lat="44.7394317" lon="9.3202583"><ele>1088.0</ele><time>2026-04-23T08:55:26.714Z</time></trkpt><trkpt lat="44.7393217" lon="9.3202867"><ele>1088.0</ele><time>2026-04-23T08:55:28.713Z</time></trkpt><trkpt lat="44.7391967" lon="9.3202917"><ele>1088.0</ele><time>2026-04-23T08:55:30.713Z</time></trkpt><trkpt lat="44.73913" lon="9.320315"><ele>1088.0</ele><time>2026-04-23T08:55:31.712Z</time></trkpt><trkpt lat="44.73906" lon="9.320345"><ele>1086.8333333333335</ele><time>2026-04-23T08:55:32.714Z</time></trkpt><trkpt lat="44.7389867" lon="9.32037"><ele>1085.6666666666667</ele><time>2026-04-23T08:55:33.712Z</time></trkpt><trkpt lat="44.7389117" lon="9.3203867"><ele>1084.5</ele><time>2026-04-23T08:55:34.712Z</time></trkpt><trkpt lat="44.7388383" lon="9.3203917"><ele>1083.3333333333333</ele><time>2026-04-23T08:55:35.713Z</time></trkpt><trkpt lat="44.7387633" lon="9.3203967"><ele>1082.1666666666665</ele><time>2026-04-23T08:55:36.716Z</time></trkpt><trkpt lat="44.7386817" lon="9.3204133"><ele>1081.0</ele><time>2026-04-23T08:55:37.713Z</time></trkpt><trkpt lat="44.7386" lon="9.3204267"><ele>1078.1666666666665</ele><time>2026-04-23T08:55:38.713Z</time></trkpt><trkpt lat="44.7385183" lon="9.320425"><ele>1075.3333333333333</ele><time>2026-04-23T08:55:39.713Z</time></trkpt><trkpt lat="44.7384483" lon="9.3204033"><ele>1072.5</ele><time>2026-04-23T08:55:40.713Z</time></trkpt><trkpt lat="44.7383433" lon="9.3203917"><ele>1069.6666666666667</ele><time>2026-04-23T08:55:42.713Z</time></trkpt><trkpt lat="44.7382733" lon="9.320405"><ele>1066.8333333333335</ele><time>2026-04-23T08:55:52.712Z</time></trkpt><trkpt lat="44.738165" lon="9.320425"><ele>1064.0</ele><time>2026-04-23T08:55:54.712Z</time></trkpt><trkpt lat="44.7380933" lon="9.3204483"><ele>1064.0</ele><time>2026-04-23T08:55:55.713Z</time></trkpt><trkpt lat="44.7380167" lon="9.3204817"><ele>1064.0</ele><time>2026-04-23T08:55:56.713Z</time></trkpt><trkpt lat="44.73794" lon="9.32052"><ele>1064.0</ele><time>2026-04-23T08:55:57.712Z</time></trkpt><trkpt lat="44.73786" lon="9.3205633"><ele>1064.0</ele><time>2026-04-23T08:55:58.713Z</time></trkpt><trkpt lat="44.73778" lon="9.3206133"><ele>1064.0</ele><time>2026-04-23T08:55:59.712Z</time></trkpt><trkpt lat="44.7377017" lon="9.3206617"><ele>1064.0</ele><time>2026-04-23T08:56:00.713Z</time></trkpt><trkpt lat="44.737625" lon="9.320705"><ele>1063.6666666666667</ele><time>2026-04-23T08:56:01.713Z</time></trkpt><trkpt lat="44.7375517" lon="9.3207533"><ele>1063.3333333333335</ele><time>2026-04-23T08:56:02.713Z</time></trkpt><trkpt lat="44.7374767" lon="9.3208067"><ele>1063.0</ele><time>2026-04-23T08:56:03.713Z</time></trkpt><trkpt lat="44.7374033" lon="9.3208667"><ele>1062.6666666666667</ele><time>2026-04-23T08:56:04.713Z</time></trkpt><trkpt lat="44.7373267" lon="9.3209517"><ele>1062.3333333333333</ele><time>2026-04-23T08:56:05.713Z</time></trkpt><trkpt lat="44.73725" lon="9.3210417"><ele>1062.0</ele><time>2026-04-23T08:56:06.713Z</time></trkpt><trkpt lat="44.73718" lon="9.3211417"><ele>1062.0</ele><time>2026-04-23T08:56:07.713Z</time></trkpt><trkpt lat="44.7371117" lon="9.3212583"><ele>1062.0</ele><time>2026-04-23T08:56:08.716Z</time></trkpt><trkpt lat="44.7370467" lon="9.321375"><ele>1062.0</ele><time>2026-04-23T08:56:09.712Z</time></trkpt><trkpt lat="44.7369867" lon="9.321465"><ele>1062.0</ele><time>2026-04-23T08:56:10.713Z</time></trkpt><trkpt lat="44.7369183" lon="9.3215383"><ele>1062.0</ele><time>2026-04-23T08:56:11.714Z</time></trkpt><trkpt lat="44.7368383" lon="9.3215933"><ele>1063.3333333333333</ele><time>2026-04-23T08:56:12.713Z</time></trkpt><trkpt lat="44.736735" lon="9.321625"><ele>1064.6666666666667</ele><time>2026-04-23T08:56:13.714Z</time></trkpt><trkpt lat="44.7366517" lon="9.3216617"><ele>1066.0</ele><time>2026-04-23T08:56:14.714Z</time></trkpt><trkpt lat="44.7365833" lon="9.3217133"><ele>1067.3333333333335</ele><time>2026-04-23T08:56:16.715Z</time></trkpt><trkpt lat="44.736525" lon="9.3217733"><ele>1068.6666666666667</ele><time>2026-04-23T08:56:18.713Z</time></trkpt><trkpt lat="44.7364433" lon="9.321815"><ele>1070.0</ele><time>2026-04-23T08:56:20.713Z</time></trkpt><trkpt lat="44.7363667" lon="9.3219017"><ele>1070.0</ele><time>2026-04-23T08:56:22.713Z</time></trkpt><trkpt lat="44.736315" lon="9.3220083"><ele>1070.0</ele><time>2026-04-23T08:56:24.712Z</time></trkpt><trkpt lat="44.736245" lon="9.3221267"><ele>1070.0</ele><time>2026-04-23T08:56:26.713Z</time></trkpt><trkpt lat="44.7361533" lon="9.3222217"><ele>1070.0</ele><time>2026-04-23T08:56:28.714Z</time></trkpt><trkpt lat="44.7360983" lon="9.3223117"><ele>1070.0</ele><time>2026-04-23T08:56:30.712Z</time></trkpt><trkpt lat="44.736075" lon="9.322425"><ele>1069.8</ele><time>2026-04-23T08:56:32.714Z</time></trkpt><trkpt lat="44.7360683" lon="9.3225667"><ele>1069.6</ele><time>2026-04-23T08:56:34.714Z</time></trkpt><trkpt lat="44.7360367" lon="9.322725"><ele>1069.4</ele><time>2026-04-23T08:56:36.713Z</time></trkpt><trkpt lat="44.73601" lon="9.3228633"><ele>1069.2</ele><time>2026-04-23T08:56:38.713Z</time></trkpt><trkpt lat="44.7359967" lon="9.32301"><ele>1069.0</ele><time>2026-04-23T08:56:40.714Z</time></trkpt><trkpt lat="44.7359767" lon="9.323115"><ele>1076.2</ele><time>2026-04-23T08:56:42.713Z</time></trkpt><trkpt lat="44.7359683" lon="9.32324"><ele>1083.4</ele><time>2026-04-23T08:56:45.713Z</time></trkpt><trkpt lat="44.7359267" lon="9.3233517"><ele>1090.6</ele><time>2026-04-23T08:56:47.714Z</time></trkpt><trkpt lat="44.7358567" lon="9.3234417"><ele>1097.8</ele><time>2026-04-23T08:56:49.713Z</time></trkpt><trkpt lat="44.7357883" lon="9.3235217"><ele>1105.0</ele><time>2026-04-23T08:56:51.714Z</time></trkpt><trkpt lat="44.7356524" lon="9.3236918"><ele>1105.0</ele><time>2026-04-23T08:57:14.734Z</time></trkpt><trkpt lat="44.7355917" lon="9.3237817"><ele>1105.0</ele><time>2026-04-23T08:57:16.713Z</time></trkpt><trkpt lat="44.7354983" lon="9.3238383"><ele>1105.0</ele><time>2026-04-23T08:57:19.713Z</time></trkpt><trkpt lat="44.735395" lon="9.3238933"><ele>1105.0</ele><time>2026-04-23T08:57:21.712Z</time></trkpt><trkpt lat="44.7353133" lon="9.3239483"><ele>1105.0</ele><time>2026-04-23T08:57:23.713Z</time></trkpt><trkpt lat="44.7352517" lon="9.3239933"><ele>1106.3333333333333</ele><time>2026-04-23T08:57:25.713Z</time></trkpt><trkpt lat="44.73518" lon="9.324015"><ele>1107.6666666666665</ele><time>2026-04-23T08:57:27.713Z</time></trkpt><trkpt lat="44.7351167" lon="9.3240817"><ele>1109.0</ele><time>2026-04-23T08:57:29.714Z</time></trkpt><trkpt lat="44.7350683" lon="9.3241467"><ele>1110.3333333333333</ele><time>2026-04-23T08:57:31.714Z</time></trkpt><trkpt lat="44.73502" lon="9.3242317"><ele>1111.6666666666667</ele><time>2026-04-23T08:57:33.712Z</time></trkpt><trkpt lat="44.73499" lon="9.3243517"><ele>1113.0</ele><time>2026-04-23T08:57:35.713Z</time></trkpt><trkpt lat="44.7349733" lon="9.3244833"><ele>1113.0</ele><time>2026-04-23T08:57:37.714Z</time></trkpt><trkpt lat="44.7349483" lon="9.3245733"><ele>1113.0</ele><time>2026-04-23T08:57:39.712Z</time></trkpt><trkpt lat="44.734865" lon="9.324715"><ele>1113.0</ele><time>2026-04-23T08:59:30.713Z</time></trkpt><trkpt lat="44.734815" lon="9.324815"><ele>1113.0</ele><time>2026-04-23T08:59:33.713Z</time></trkpt><trkpt lat="44.7347583" lon="9.32488"><ele>1113.0</ele><time>2026-04-23T08:59:37.714Z</time></trkpt><trkpt lat="44.7346983" lon="9.32497"><ele>1113.0</ele><time>2026-04-23T08:59:40.715Z</time></trkpt><trkpt lat="44.7346533" lon="9.3250583"><ele>1113.0</ele><time>2026-04-23T08:59:42.714Z</time></trkpt><trkpt lat="44.7346067" lon="9.3251467"><ele>1113.0</ele><time>2026-04-23T08:59:44.715Z</time></trkpt><trkpt lat="44.7345417" lon="9.325235"><ele>1113.0</ele><time>2026-04-23T08:59:46.712Z</time></trkpt><trkpt lat="44.7344917" lon="9.3253067"><ele>1113.0</ele><time>2026-04-23T08:59:48.714Z</time></trkpt><trkpt lat="44.73442" lon="9.32539"><ele>1113.0</ele><time>2026-04-23T08:59:51.712Z</time></trkpt><trkpt lat="44.73439" lon="9.3254767"><ele>1113.0</ele><time>2026-04-23T08:59:53.713Z</time></trkpt><trkpt lat="44.7343533" lon="9.3255833"><ele>1114.6666666666667</ele><time>2026-04-23T08:59:55.713Z</time></trkpt><trkpt lat="44.7343217" lon="9.3256917"><ele>1116.3333333333333</ele><time>2026-04-23T08:59:58.714Z</time></trkpt><trkpt lat="44.7342966" lon="9.3257885"><ele>1118.0</ele><time>2026-04-23T09:00:01.759Z</time></trkpt><trkpt lat="44.7342558" lon="9.3258652"><ele>1119.6666666666665</ele><time>2026-04-23T09:00:03.734Z</time></trkpt><trkpt lat="44.7341865" lon="9.3258886"><ele>1121.3333333333333</ele><time>2026-04-23T09:00:05.815Z</time></trkpt><trkpt lat="44.7341046" lon="9.3259039"><ele>1123.0</ele><time>2026-04-23T09:00:07.79Z</time></trkpt><trkpt lat="44.7340253" lon="9.3259434"><ele>1123.0</ele><time>2026-04-23T09:00:09.713Z</time></trkpt><trkpt lat="44.733952" lon="9.3259759"><ele>1123.0</ele><time>2026-04-23T09:00:11.742Z</time></trkpt><trkpt lat="44.7339046" lon="9.3260404"><ele>1123.0</ele><time>2026-04-23T09:00:13.793Z</time></trkpt><trkpt lat="44.7338363" lon="9.3260792"><ele>1123.0</ele><time>2026-04-23T09:00:15.774Z</time></trkpt><trkpt lat="44.7337537" lon="9.3261273"><ele>1123.0</ele><time>2026-04-23T09:00:17.774Z</time></trkpt><trkpt lat="44.7336552" lon="9.3261946"><ele>1123.0</ele><time>2026-04-23T09:00:19.713Z</time></trkpt><trkpt lat="44.7335817" lon="9.32625"><ele>1121.8333333333333</ele><time>2026-04-23T09:00:21.712Z</time></trkpt><trkpt lat="44.733515" lon="9.326235"><ele>1120.6666666666665</ele><time>2026-04-23T09:00:31.713Z</time></trkpt><trkpt lat="44.733515" lon="9.3260983"><ele>1119.5</ele><time>2026-04-23T09:00:34.713Z</time></trkpt><trkpt lat="44.7335367" lon="9.32593"><ele>1118.3333333333333</ele><time>2026-04-23T09:00:36.714Z</time></trkpt><trkpt lat="44.7335483" lon="9.3258383"><ele>1117.1666666666667</ele><time>2026-04-23T09:00:37.713Z</time></trkpt><trkpt lat="44.733545" lon="9.3257467"><ele>1116.0</ele><time>2026-04-23T09:00:38.713Z</time></trkpt><trkpt lat="44.7335333" lon="9.3256517"><ele>1116.0</ele><time>2026-04-23T09:00:39.712Z</time></trkpt><trkpt lat="44.7335117" lon="9.3255633"><ele>1116.0</ele><time>2026-04-23T09:00:40.714Z</time></trkpt><trkpt lat="44.7334533" lon="9.325415"><ele>1116.0</ele><time>2026-04-23T09:00:42.715Z</time></trkpt><trkpt lat="44.7334033" lon="9.3252833"><ele>1116.0</ele><time>2026-04-23T09:00:44.714Z</time></trkpt><trkpt lat="44.7333667" lon="9.3252083"><ele>1116.0</ele><time>2026-04-23T09:00:45.713Z</time></trkpt><trkpt lat="44.733335" lon="9.325125"><ele>1116.0</ele><time>2026-04-23T09:00:46.713Z</time></trkpt><trkpt lat="44.7332917" lon="9.3250017"><ele>1113.0</ele><time>2026-04-23T09:00:48.713Z</time></trkpt><trkpt lat="44.7332183" lon="9.3248683"><ele>1110.0</ele><time>2026-04-23T09:00:50.713Z</time></trkpt><trkpt lat="44.7331817" lon="9.3247883"><ele>1107.0</ele><time>2026-04-23T09:00:51.712Z</time></trkpt><trkpt lat="44.7331233" lon="9.32467"><ele>1104.0</ele><time>2026-04-23T09:00:53.713Z</time></trkpt><trkpt lat="44.7331117" lon="9.3245533"><ele>1101.0</ele><time>2026-04-23T09:00:55.713Z</time></trkpt><trkpt lat="44.73312" lon="9.3244333"><ele>1097.6</ele><time>2026-04-23T09:00:57.713Z</time></trkpt><trkpt lat="44.73309" lon="9.3243033"><ele>1094.1999999999998</ele><time>2026-04-23T09:00:59.713Z</time></trkpt><trkpt lat="44.7330867" lon="9.324175"><ele>1090.8000000000002</ele><time>2026-04-23T09:01:01.713Z</time></trkpt><trkpt lat="44.733115" lon="9.3240417"><ele>1087.4</ele><time>2026-04-23T09:01:03.715Z</time></trkpt><trkpt lat="44.7331283" lon="9.32388"><ele>1084.0</ele><time>2026-04-23T09:01:05.713Z</time></trkpt><trkpt lat="44.73313" lon="9.3237367"><ele>1082.3333333333333</ele><time>2026-04-23T09:01:07.714Z</time></trkpt><trkpt lat="44.733095" lon="9.3236367"><ele>1080.6666666666665</ele><time>2026-04-23T09:01:10.714Z</time></trkpt><trkpt lat="44.733015" lon="9.323725"><ele>1079.0</ele><time>2026-04-23T09:03:38.715Z</time></trkpt><trkpt lat="44.73295" lon="9.323755"><ele>1077.3333333333333</ele><time>2026-04-23T09:03:39.713Z</time></trkpt><trkpt lat="44.7328833" lon="9.3237617"><ele>1075.6666666666667</ele><time>2026-04-23T09:03:40.713Z</time></trkpt><trkpt lat="44.7328167" lon="9.3237467"><ele>1074.0</ele><time>2026-04-23T09:03:41.713Z</time></trkpt><trkpt lat="44.7327517" lon="9.3237067"><ele>1074.2</ele><time>2026-04-23T09:03:42.714Z</time></trkpt><trkpt lat="44.7326817" lon="9.323645"><ele>1074.4</ele><time>2026-04-23T09:03:43.713Z</time></trkpt><trkpt lat="44.7326083" lon="9.323565"><ele>1074.6</ele><time>2026-04-23T09:03:44.715Z</time></trkpt><trkpt lat="44.7325267" lon="9.32348"><ele>1074.8</ele><time>2026-04-23T09:03:45.714Z</time></trkpt><trkpt lat="44.732445" lon="9.3233933"><ele>1075.0</ele><time>2026-04-23T09:03:46.714Z</time></trkpt><trkpt lat="44.7323583" lon="9.32332"><ele>1075.0</ele><time>2026-04-23T09:03:47.714Z</time></trkpt><trkpt lat="44.7322567" lon="9.3232517"><ele>1075.0</ele><time>2026-04-23T09:03:48.713Z</time></trkpt><trkpt lat="44.732155" lon="9.323175"><ele>1075.0</ele><time>2026-04-23T09:03:49.716Z</time></trkpt><trkpt lat="44.7320417" lon="9.3231067"><ele>1075.0</ele><time>2026-04-23T09:03:50.715Z</time></trkpt><trkpt lat="44.73193" lon="9.3230383"><ele>1074.6</ele><time>2026-04-23T09:03:51.716Z</time></trkpt><trkpt lat="44.7318267" lon="9.32297"><ele>1074.2</ele><time>2026-04-23T09:03:52.713Z</time></trkpt><trkpt lat="44.7317383" lon="9.3229133"><ele>1073.8</ele><time>2026-04-23T09:03:53.714Z</time></trkpt><trkpt lat="44.73166" lon="9.32285"><ele>1073.4</ele><time>2026-04-23T09:03:54.714Z</time></trkpt><trkpt lat="44.7315867" lon="9.3227683"><ele>1073.0</ele><time>2026-04-23T09:03:55.714Z</time></trkpt><trkpt lat="44.73152" lon="9.322685"><ele>1073.0</ele><time>2026-04-23T09:03:56.714Z</time></trkpt><trkpt lat="44.73145" lon="9.3226117"><ele>1073.0</ele><time>2026-04-23T09:03:57.714Z</time></trkpt><trkpt lat="44.73137" lon="9.3225633"><ele>1073.0</ele><time>2026-04-23T09:03:58.713Z</time></trkpt><trkpt lat="44.7312833" lon="9.32252"><ele>1073.0</ele><time>2026-04-23T09:03:59.713Z</time></trkpt><trkpt lat="44.7312083" lon="9.322465"><ele>1073.0</ele><time>2026-04-23T09:04:00.714Z</time></trkpt><trkpt lat="44.7311467" lon="9.3223933"><ele>1073.0</ele><time>2026-04-23T09:04:01.713Z</time></trkpt><trkpt lat="44.731105" lon="9.3223083"><ele>1073.6666666666667</ele><time>2026-04-23T09:04:02.713Z</time></trkpt><trkpt lat="44.7310733" lon="9.322195"><ele>1074.3333333333335</ele><time>2026-04-23T09:04:03.713Z</time></trkpt><trkpt lat="44.7310667" lon="9.32208"><ele>1075.0</ele><time>2026-04-23T09:04:04.713Z</time></trkpt><trkpt lat="44.7310683" lon="9.321975"><ele>1075.6666666666667</ele><time>2026-04-23T09:04:05.714Z</time></trkpt><trkpt lat="44.73106" lon="9.3218783"><ele>1076.3333333333333</ele><time>2026-04-23T09:04:06.714Z</time></trkpt><trkpt lat="44.7310333" lon="9.321795"><ele>1077.0</ele><time>2026-04-23T09:04:07.713Z</time></trkpt><trkpt lat="44.7309267" lon="9.32172"><ele>1077.0</ele><time>2026-04-23T09:04:09.714Z</time></trkpt><trkpt lat="44.7307967" lon="9.321765"><ele>1077.0</ele><time>2026-04-23T09:04:10.715Z</time></trkpt><trkpt lat="44.7306733" lon="9.3218117"><ele>1077.0</ele><time>2026-04-23T09:04:11.715Z</time></trkpt><trkpt lat="44.73055" lon="9.321855"><ele>1077.0</ele><time>2026-04-23T09:04:12.714Z</time></trkpt><trkpt lat="44.7304183" lon="9.3219"><ele>1077.0</ele><time>2026-04-23T09:04:13.713Z</time></trkpt><trkpt lat="44.7303" lon="9.3219433"><ele>1077.0</ele><time>2026-04-23T09:04:14.713Z</time></trkpt><trkpt lat="44.7301883" lon="9.322"><ele>1077.0</ele><time>2026-04-23T09:04:15.712Z</time></trkpt><trkpt lat="44.730075" lon="9.3220417"><ele>1077.0</ele><time>2026-04-23T09:04:16.715Z</time></trkpt><trkpt lat="44.7299583" lon="9.322075"><ele>1076.6</ele><time>2026-04-23T09:04:17.713Z</time></trkpt><trkpt lat="44.729855" lon="9.3221117"><ele>1076.2</ele><time>2026-04-23T09:04:18.712Z</time></trkpt><trkpt lat="44.729765" lon="9.3221667"><ele>1075.8</ele><time>2026-04-23T09:04:19.713Z</time></trkpt><trkpt lat="44.72969" lon="9.3222317"><ele>1075.4</ele><time>2026-04-23T09:04:20.714Z</time></trkpt><trkpt lat="44.72962" lon="9.322335"><ele>1075.0</ele><time>2026-04-23T09:04:21.714Z</time></trkpt><trkpt lat="44.72954" lon="9.322455"><ele>1076.5</ele><time>2026-04-23T09:04:22.713Z</time></trkpt><trkpt lat="44.7294467" lon="9.32258"><ele>1078.0</ele><time>2026-04-23T09:04:23.713Z</time></trkpt><trkpt lat="44.729355" lon="9.3227083"><ele>1079.5</ele><time>2026-04-23T09:04:24.713Z</time></trkpt><trkpt lat="44.7292717" lon="9.322815"><ele>1081.0</ele><time>2026-04-23T09:04:25.713Z</time></trkpt><trkpt lat="44.7291967" lon="9.322895"><ele>1081.0</ele><time>2026-04-23T09:04:26.715Z</time></trkpt><trkpt lat="44.72912" lon="9.322965"><ele>1081.0</ele><time>2026-04-23T09:04:27.714Z</time></trkpt><trkpt lat="44.729035" lon="9.323035"><ele>1081.0</ele><time>2026-04-23T09:04:28.713Z</time></trkpt><trkpt lat="44.72894" lon="9.3231"><ele>1081.0</ele><time>2026-04-23T09:04:29.714Z</time></trkpt><trkpt lat="44.7288333" lon="9.32315"><ele>1081.0</ele><time>2026-04-23T09:04:30.713Z</time></trkpt><trkpt lat="44.7287283" lon="9.323185"><ele>1082.8</ele><time>2026-04-23T09:04:31.714Z</time></trkpt><trkpt lat="44.7286317" lon="9.3231983"><ele>1084.6</ele><time>2026-04-23T09:04:32.713Z</time></trkpt><trkpt lat="44.72854" lon="9.323205"><ele>1086.4</ele><time>2026-04-23T09:04:33.712Z</time></trkpt><trkpt lat="44.7284433" lon="9.323215"><ele>1088.2</ele><time>2026-04-23T09:04:34.714Z</time></trkpt><trkpt lat="44.7283467" lon="9.3232433"><ele>1090.0</ele><time>2026-04-23T09:04:35.714Z</time></trkpt><trkpt lat="44.7282583" lon="9.3233067"><ele>1090.0</ele><time>2026-04-23T09:04:36.713Z</time></trkpt><trkpt lat="44.72817" lon="9.32339"><ele>1090.0</ele><time>2026-04-23T09:04:37.714Z</time></trkpt><trkpt lat="44.7280867" lon="9.3234783"><ele>1090.0</ele><time>2026-04-23T09:04:38.714Z</time></trkpt><trkpt lat="44.7279983" lon="9.3235517"><ele>1090.0</ele><time>2026-04-23T09:04:39.713Z</time></trkpt><trkpt lat="44.72791" lon="9.32362"><ele>1090.0</ele><time>2026-04-23T09:04:40.714Z</time></trkpt><trkpt lat="44.7278183" lon="9.323685"><ele>1090.8</ele><time>2026-04-23T09:04:41.713Z</time></trkpt><trkpt lat="44.7277233" lon="9.3237567"><ele>1091.6</ele><time>2026-04-23T09:04:42.713Z</time></trkpt><trkpt lat="44.7276333" lon="9.3238233"><ele>1092.4</ele><time>2026-04-23T09:04:43.714Z</time></trkpt><trkpt lat="44.727535" lon="9.3238833"><ele>1093.2</ele><time>2026-04-23T09:04:44.714Z</time></trkpt><trkpt lat="44.7274333" lon="9.323935"><ele>1094.0</ele><time>2026-04-23T09:04:45.713Z</time></trkpt><trkpt lat="44.7273367" lon="9.3239833"><ele>1094.0</ele><time>2026-04-23T09:04:46.713Z</time></trkpt><trkpt lat="44.7272417" lon="9.3240217"><ele>1094.0</ele><time>2026-04-23T09:04:47.714Z</time></trkpt><trkpt lat="44.72715" lon="9.3240417"><ele>1094.0</ele><time>2026-04-23T09:04:48.713Z</time></trkpt><trkpt lat="44.7270483" lon="9.3240633"><ele>1094.0</ele><time>2026-04-23T09:04:49.714Z</time></trkpt><trkpt lat="44.7269333" lon="9.3241067"><ele>1094.0</ele><time>2026-04-23T09:04:50.713Z</time></trkpt><trkpt lat="44.7268233" lon="9.324165"><ele>1091.6000000000001</ele><time>2026-04-23T09:04:51.713Z</time></trkpt><trkpt lat="44.7267183" lon="9.324235"><ele>1089.2</ele><time>2026-04-23T09:04:52.713Z</time></trkpt><trkpt lat="44.72662" lon="9.3243183"><ele>1086.8000000000002</ele><time>2026-04-23T09:04:53.713Z</time></trkpt><trkpt lat="44.7265367" lon="9.3244067"><ele>1084.4</ele><time>2026-04-23T09:04:54.713Z</time></trkpt><trkpt lat="44.7264467" lon="9.3244833"><ele>1082.0</ele><time>2026-04-23T09:04:55.713Z</time></trkpt><trkpt lat="44.7263567" lon="9.3245483"><ele>1082.0</ele><time>2026-04-23T09:04:56.715Z</time></trkpt><trkpt lat="44.7262683" lon="9.324615"><ele>1082.0</ele><time>2026-04-23T09:04:57.714Z</time></trkpt><trkpt lat="44.7261767" lon="9.3246783"><ele>1082.0</ele><time>2026-04-23T09:04:58.714Z</time></trkpt><trkpt lat="44.7260983" lon="9.324755"><ele>1082.0</ele><time>2026-04-23T09:04:59.714Z</time></trkpt><trkpt lat="44.726025" lon="9.3248333"><ele>1082.0</ele><time>2026-04-23T09:05:00.713Z</time></trkpt><trkpt lat="44.7259533" lon="9.3249033"><ele>1081.6666666666667</ele><time>2026-04-23T09:05:01.713Z</time></trkpt><trkpt lat="44.725875" lon="9.3249617"><ele>1081.3333333333335</ele><time>2026-04-23T09:05:02.713Z</time></trkpt><trkpt lat="44.7258033" lon="9.325015"><ele>1081.0</ele><time>2026-04-23T09:05:03.716Z</time></trkpt><trkpt lat="44.7257417" lon="9.32505"><ele>1080.6666666666667</ele><time>2026-04-23T09:05:04.713Z</time></trkpt><trkpt lat="44.7256717" lon="9.3250183"><ele>1080.3333333333333</ele><time>2026-04-23T09:05:06.713Z</time></trkpt><trkpt lat="44.7256567" lon="9.3248967"><ele>1080.0</ele><time>2026-04-23T09:05:09.714Z</time></trkpt><trkpt lat="44.7256783" lon="9.3248133"><ele>1078.6</ele><time>2026-04-23T09:05:11.714Z</time></trkpt><trkpt lat="44.7257067" lon="9.3246617"><ele>1077.2</ele><time>2026-04-23T09:05:13.713Z</time></trkpt><trkpt lat="44.7257233" lon="9.32455"><ele>1075.8</ele><time>2026-04-23T09:05:14.714Z</time></trkpt><trkpt lat="44.725725" lon="9.3244317"><ele>1074.4</ele><time>2026-04-23T09:05:15.713Z</time></trkpt><trkpt lat="44.7257217" lon="9.3242867"><ele>1073.0</ele><time>2026-04-23T09:05:16.713Z</time></trkpt><trkpt lat="44.725715" lon="9.3241533"><ele>1073.0</ele><time>2026-04-23T09:05:17.713Z</time></trkpt><trkpt lat="44.7257233" lon="9.3240317"><ele>1073.0</ele><time>2026-04-23T09:05:18.714Z</time></trkpt><trkpt lat="44.7257417" lon="9.3239267"><ele>1073.0</ele><time>2026-04-23T09:05:19.713Z</time></trkpt><trkpt lat="44.7257633" lon="9.3238367"><ele>1073.0</ele><time>2026-04-23T09:05:20.714Z</time></trkpt><trkpt lat="44.7257933" lon="9.323745"><ele>1073.0</ele><time>2026-04-23T09:05:21.714Z</time></trkpt><trkpt lat="44.725875" lon="9.3236617"><ele>1073.0</ele><time>2026-04-23T09:05:22.714Z</time></trkpt><trkpt lat="44.7259417" lon="9.3235817"><ele>1071.5</ele><time>2026-04-23T09:05:23.714Z</time></trkpt><trkpt lat="44.7259817" lon="9.3235033"><ele>1070.0</ele><time>2026-04-23T09:05:24.713Z</time></trkpt><trkpt lat="44.72601" lon="9.3233567"><ele>1068.5</ele><time>2026-04-23T09:05:26.714Z</time></trkpt><trkpt lat="44.7259517" lon="9.3232817"><ele>1067.0</ele><time>2026-04-23T09:05:28.714Z</time></trkpt><trkpt lat="44.725935" lon="9.3231783"><ele>1065.5</ele><time>2026-04-23T09:05:29.714Z</time></trkpt><trkpt lat="44.7259133" lon="9.3230633"><ele>1064.0</ele><time>2026-04-23T09:05:30.713Z</time></trkpt><trkpt lat="44.725885" lon="9.3229267"><ele>1062.4</ele><time>2026-04-23T09:05:31.714Z</time></trkpt><trkpt lat="44.7258633" lon="9.3227833"><ele>1060.8000000000002</ele><time>2026-04-23T09:05:32.714Z</time></trkpt><trkpt lat="44.7258733" lon="9.3226567"><ele>1059.1999999999998</ele><time>2026-04-23T09:05:33.714Z</time></trkpt><trkpt lat="44.7258883" lon="9.3225317"><ele>1057.6</ele><time>2026-04-23T09:05:34.714Z</time></trkpt><trkpt lat="44.725895" lon="9.3223917"><ele>1056.0</ele><time>2026-04-23T09:05:35.714Z</time></trkpt><trkpt lat="44.7258967" lon="9.3222333"><ele>1054.8</ele><time>2026-04-23T09:05:36.716Z</time></trkpt><trkpt lat="44.7258983" lon="9.32209"><ele>1053.6</ele><time>2026-04-23T09:05:37.713Z</time></trkpt><trkpt lat="44.7258867" lon="9.321945"><ele>1052.4</ele><time>2026-04-23T09:05:38.713Z</time></trkpt><trkpt lat="44.7258633" lon="9.3218133"><ele>1051.2</ele><time>2026-04-23T09:05:39.713Z</time></trkpt><trkpt lat="44.7258433" lon="9.32169"><ele>1050.0</ele><time>2026-04-23T09:05:40.714Z</time></trkpt><trkpt lat="44.725815" lon="9.32157"><ele>1050.0</ele><time>2026-04-23T09:05:41.713Z</time></trkpt><trkpt lat="44.7257783" lon="9.3214617"><ele>1050.0</ele><time>2026-04-23T09:05:42.714Z</time></trkpt><trkpt lat="44.7257483" lon="9.3213617"><ele>1050.0</ele><time>2026-04-23T09:05:43.714Z</time></trkpt><trkpt lat="44.7257467" lon="9.3212583"><ele>1050.0</ele><time>2026-04-23T09:05:44.714Z</time></trkpt><trkpt lat="44.7257567" lon="9.3211517"><ele>1050.0</ele><time>2026-04-23T09:05:45.713Z</time></trkpt><trkpt lat="44.7257867" lon="9.32105"><ele>1050.0</ele><time>2026-04-23T09:05:46.713Z</time></trkpt><trkpt lat="44.72583" lon="9.3209533"><ele>1048.8333333333333</ele><time>2026-04-23T09:05:47.716Z</time></trkpt><trkpt lat="44.7258617" lon="9.320845"><ele>1047.6666666666667</ele><time>2026-04-23T09:05:48.714Z</time></trkpt><trkpt lat="44.725895" lon="9.320715"><ele>1046.5</ele><time>2026-04-23T09:05:49.713Z</time></trkpt><trkpt lat="44.7259117" lon="9.3205867"><ele>1045.3333333333335</ele><time>2026-04-23T09:05:50.714Z</time></trkpt><trkpt lat="44.7259267" lon="9.3204683"><ele>1044.1666666666667</ele><time>2026-04-23T09:05:51.713Z</time></trkpt><trkpt lat="44.725945" lon="9.320345"><ele>1043.0</ele><time>2026-04-23T09:05:52.714Z</time></trkpt><trkpt lat="44.7259717" lon="9.3202333"><ele>1042.5</ele><time>2026-04-23T09:05:53.714Z</time></trkpt><trkpt lat="44.7260117" lon="9.3201283"><ele>1042.0</ele><time>2026-04-23T09:05:54.713Z</time></trkpt><trkpt lat="44.7260583" lon="9.3200417"><ele>1041.5</ele><time>2026-04-23T09:05:55.713Z</time></trkpt><trkpt lat="44.7261117" lon="9.3199683"><ele>1041.0</ele><time>2026-04-23T09:05:56.714Z</time></trkpt><trkpt lat="44.7261717" lon="9.3199067"><ele>1040.5</ele><time>2026-04-23T09:05:57.713Z</time></trkpt><trkpt lat="44.726235" lon="9.319825"><ele>1040.0</ele><time>2026-04-23T09:05:58.714Z</time></trkpt><trkpt lat="44.72629" lon="9.31974"><ele>1037.2</ele><time>2026-04-23T09:05:59.714Z</time></trkpt><trkpt lat="44.72633" lon="9.3195817"><ele>1034.4</ele><time>2026-04-23T09:06:01.713Z</time></trkpt><trkpt lat="44.7263367" lon="9.3194933"><ele>1031.6</ele><time>2026-04-23T09:06:02.714Z</time></trkpt><trkpt lat="44.7262717" lon="9.3193367"><ele>1028.8</ele><time>2026-04-23T09:06:04.714Z</time></trkpt><trkpt lat="44.7262367" lon="9.3192433"><ele>1026.0</ele><time>2026-04-23T09:06:05.715Z</time></trkpt><trkpt lat="44.7262133" lon="9.319135"><ele>1026.0</ele><time>2026-04-23T09:06:06.716Z</time></trkpt><trkpt lat="44.7261967" lon="9.31901"><ele>1026.0</ele><time>2026-04-23T09:06:07.714Z</time></trkpt><trkpt lat="44.7261883" lon="9.3188967"><ele>1026.0</ele><time>2026-04-23T09:06:08.714Z</time></trkpt><trkpt lat="44.7261867" lon="9.3187783"><ele>1026.0</ele><time>2026-04-23T09:06:09.713Z</time></trkpt><trkpt lat="44.7261883" lon="9.3186483"><ele>1026.0</ele><time>2026-04-23T09:06:10.714Z</time></trkpt><trkpt lat="44.7261967" lon="9.3184883"><ele>1022.75</ele><time>2026-04-23T09:06:11.714Z</time></trkpt><trkpt lat="44.7262017" lon="9.3183383"><ele>1019.5</ele><time>2026-04-23T09:06:12.714Z</time></trkpt><trkpt lat="44.7262017" lon="9.318185"><ele>1016.25</ele><time>2026-04-23T09:06:13.713Z</time></trkpt><trkpt lat="44.7261917" lon="9.318025"><ele>1013.0</ele><time>2026-04-23T09:06:14.713Z</time></trkpt><trkpt lat="44.7261833" lon="9.31784"><ele>1013.0</ele><time>2026-04-23T09:06:15.714Z</time></trkpt><trkpt lat="44.7261667" lon="9.317645"><ele>1013.0</ele><time>2026-04-23T09:06:16.713Z</time></trkpt><trkpt lat="44.7261467" lon="9.317455"><ele>1013.0</ele><time>2026-04-23T09:06:17.713Z</time></trkpt><trkpt lat="44.7261317" lon="9.31727"><ele>1013.0</ele><time>2026-04-23T09:06:18.713Z</time></trkpt><trkpt lat="44.726125" lon="9.3171"><ele>1013.4</ele><time>2026-04-23T09:06:19.713Z</time></trkpt><trkpt lat="44.7261217" lon="9.3169433"><ele>1013.8</ele><time>2026-04-23T09:06:20.713Z</time></trkpt><trkpt lat="44.726115" lon="9.3168033"><ele>1014.2</ele><time>2026-04-23T09:06:21.713Z</time></trkpt><trkpt lat="44.72611" lon="9.316675"><ele>1014.6</ele><time>2026-04-23T09:06:22.714Z</time></trkpt><trkpt lat="44.7261067" lon="9.3165583"><ele>1015.0</ele><time>2026-04-23T09:06:23.714Z</time></trkpt><trkpt lat="44.7261267" lon="9.31647"><ele>1013.8571428571429</ele><time>2026-04-23T09:06:24.714Z</time></trkpt><trkpt lat="44.7261667" lon="9.3163883"><ele>1012.7142857142858</ele><time>2026-04-23T09:06:25.713Z</time></trkpt><trkpt lat="44.72621" lon="9.3163083"><ele>1011.5714285714286</ele><time>2026-04-23T09:06:26.713Z</time></trkpt><trkpt lat="44.7262483" lon="9.31622"><ele>1010.4285714285714</ele><time>2026-04-23T09:06:27.713Z</time></trkpt><trkpt lat="44.7262883" lon="9.316125"><ele>1009.2857142857143</ele><time>2026-04-23T09:06:28.715Z</time></trkpt><trkpt lat="44.7263333" lon="9.31604"><ele>1008.1428571428571</ele><time>2026-04-23T09:06:29.714Z</time></trkpt><trkpt lat="44.72638" lon="9.3159717"><ele>1007.0</ele><time>2026-04-23T09:06:30.712Z</time></trkpt><trkpt lat="44.7264417" lon="9.3158567"><ele>1007.0</ele><time>2026-04-23T09:06:32.716Z</time></trkpt><trkpt lat="44.72637" lon="9.315825"><ele>1007.0</ele><time>2026-04-23T09:06:38.715Z</time></trkpt><trkpt lat="44.72627" lon="9.3158217"><ele>1007.0</ele><time>2026-04-23T09:06:40.714Z</time></trkpt><trkpt lat="44.7261467" lon="9.315785"><ele>1007.0</ele><time>2026-04-23T09:06:42.714Z</time></trkpt><trkpt lat="44.726035" lon="9.31575"><ele>1007.0</ele><time>2026-04-23T09:06:44.713Z</time></trkpt><trkpt lat="44.7259517" lon="9.31573"><ele>1005.0000000000001</ele><time>2026-04-23T09:06:46.713Z</time></trkpt><trkpt lat="44.72587" lon="9.3157067"><ele>1003.0</ele><time>2026-04-23T09:06:49.713Z</time></trkpt><trkpt lat="44.7257967" lon="9.3156933"><ele>1001.0</ele><time>2026-04-23T09:06:51.714Z</time></trkpt><trkpt lat="44.7257017" lon="9.31567"><ele>999.0</ele><time>2026-04-23T09:06:53.714Z</time></trkpt><trkpt lat="44.7255817" lon="9.3156117"><ele>997.0000000000001</ele><time>2026-04-23T09:06:55.716Z</time></trkpt><trkpt lat="44.7255283" lon="9.3155567"><ele>995.0</ele><time>2026-04-23T09:06:56.715Z</time></trkpt><trkpt lat="44.72548" lon="9.3154917"><ele>993.0000000000001</ele><time>2026-04-23T09:06:57.714Z</time></trkpt><trkpt lat="44.725435" lon="9.3154117"><ele>991.0</ele><time>2026-04-23T09:06:58.714Z</time></trkpt><trkpt lat="44.725385" lon="9.3152917"><ele>989.0</ele><time>2026-04-23T09:07:00.714Z</time></trkpt><trkpt lat="44.7253133" lon="9.3152683"><ele>987.0</ele><time>2026-04-23T09:07:02.715Z</time></trkpt><trkpt lat="44.72523" lon="9.315285"><ele>985.0000000000001</ele><time>2026-04-23T09:07:04.714Z</time></trkpt><trkpt lat="44.7251267" lon="9.3152933"><ele>983.0</ele><time>2026-04-23T09:07:06.713Z</time></trkpt><trkpt lat="44.7250633" lon="9.315305"><ele>980.3333333333334</ele><time>2026-04-23T09:07:07.713Z</time></trkpt><trkpt lat="44.7249483" lon="9.315325"><ele>977.6666666666667</ele><time>2026-04-23T09:07:09.713Z</time></trkpt><trkpt lat="44.7248417" lon="9.315325"><ele>975.0</ele><time>2026-04-23T09:07:11.713Z</time></trkpt><trkpt lat="44.7247683" lon="9.3152883"><ele>972.3333333333333</ele><time>2026-04-23T09:07:13.714Z</time></trkpt><trkpt lat="44.7247083" lon="9.3152217"><ele>969.6666666666666</ele><time>2026-04-23T09:07:16.713Z</time></trkpt><trkpt lat="44.7246667" lon="9.3151483"><ele>967.0</ele><time>2026-04-23T09:07:18.715Z</time></trkpt><trkpt lat="44.7246267" lon="9.3150533"><ele>966.9999999999999</ele><time>2026-04-23T09:07:21.713Z</time></trkpt><trkpt lat="44.72463" lon="9.3149517"><ele>967.0</ele><time>2026-04-23T09:07:23.713Z</time></trkpt><trkpt lat="44.7246767" lon="9.3148717"><ele>967.0</ele><time>2026-04-23T09:07:25.714Z</time></trkpt><trkpt lat="44.7247183" lon="9.31478"><ele>967.0</ele><time>2026-04-23T09:07:27.713Z</time></trkpt><trkpt lat="44.724755" lon="9.3146733"><ele>966.9999999999999</ele><time>2026-04-23T09:07:29.714Z</time></trkpt><trkpt lat="44.72477" lon="9.3145733"><ele>967.0</ele><time>2026-04-23T09:07:31.713Z</time></trkpt><trkpt lat="44.7247067" lon="9.3145"><ele>964.8571428571429</ele><time>2026-04-23T09:07:34.714Z</time></trkpt><trkpt lat="44.7246317" lon="9.3144917"><ele>962.7142857142857</ele><time>2026-04-23T09:07:36.713Z</time></trkpt><trkpt lat="44.7245667" lon="9.3144583"><ele>960.5714285714286</ele><time>2026-04-23T09:07:38.713Z</time></trkpt><trkpt lat="44.7245117" lon="9.3144017"><ele>958.4285714285714</ele><time>2026-04-23T09:07:41.714Z</time></trkpt><trkpt lat="44.724435" lon="9.31437"><ele>956.2857142857142</ele><time>2026-04-23T09:07:45.714Z</time></trkpt><trkpt lat="44.7243617" lon="9.314325"><ele>954.1428571428571</ele><time>2026-04-23T09:07:48.714Z</time></trkpt><trkpt lat="44.72429" lon="9.3142983"><ele>952.0</ele><time>2026-04-23T09:07:51.714Z</time></trkpt><trkpt lat="44.7242217" lon="9.3142833"><ele>950.6666666666666</ele><time>2026-04-23T09:07:54.714Z</time></trkpt><trkpt lat="44.7241417" lon="9.314265"><ele>949.3333333333333</ele><time>2026-04-23T09:07:57.713Z</time></trkpt><trkpt lat="44.724065" lon="9.3142517"><ele>948.0</ele><time>2026-04-23T09:08:00.713Z</time></trkpt><trkpt lat="44.7240167" lon="9.31414"><ele>946.6666666666667</ele><time>2026-04-23T09:08:03.714Z</time></trkpt><trkpt lat="44.724015" lon="9.3140317"><ele>945.3333333333334</ele><time>2026-04-23T09:08:05.714Z</time></trkpt><trkpt lat="44.72403" lon="9.3138683"><ele>944.0</ele><time>2026-04-23T09:08:15.713Z</time></trkpt><trkpt lat="44.7240083" lon="9.313775"><ele>942.0</ele><time>2026-04-23T09:08:17.717Z</time></trkpt><trkpt lat="44.723975" lon="9.3136767"><ele>940.0</ele><time>2026-04-23T09:08:19.714Z</time></trkpt><trkpt lat="44.7239383" lon="9.31349"><ele>938.0</ele><time>2026-04-23T09:08:33.713Z</time></trkpt><trkpt lat="44.7239283" lon="9.3133167"><ele>936.0</ele><time>2026-04-23T09:08:35.713Z</time></trkpt><trkpt lat="44.723935" lon="9.31313"><ele>932.5</ele><time>2026-04-23T09:08:37.715Z</time></trkpt><trkpt lat="44.7239467" lon="9.3129483"><ele>929.0</ele><time>2026-04-23T09:08:39.713Z</time></trkpt><trkpt lat="44.7239233" lon="9.3127867"><ele>925.5</ele><time>2026-04-23T09:08:41.714Z</time></trkpt><trkpt lat="44.7238983" lon="9.3126467"><ele>922.0</ele><time>2026-04-23T09:08:43.715Z</time></trkpt><trkpt lat="44.7238867" lon="9.312485"><ele>921.9999999999999</ele><time>2026-04-23T09:08:45.713Z</time></trkpt><trkpt lat="44.7238883" lon="9.3123933"><ele>922.0</ele><time>2026-04-23T09:08:46.713Z</time></trkpt><trkpt lat="44.7239017" lon="9.3122967"><ele>922.0</ele><time>2026-04-23T09:08:47.714Z</time></trkpt><trkpt lat="44.72392" lon="9.3122033"><ele>922.0</ele><time>2026-04-23T09:08:48.714Z</time></trkpt><trkpt lat="44.7239733" lon="9.3120483"><ele>921.9999999999999</ele><time>2026-04-23T09:08:50.714Z</time></trkpt><trkpt lat="44.7240083" lon="9.3119633"><ele>922.0</ele><time>2026-04-23T09:08:51.714Z</time></trkpt><trkpt lat="44.72405" lon="9.3118683"><ele>919.4999999999999</ele><time>2026-04-23T09:08:52.714Z</time></trkpt><trkpt lat="44.7240933" lon="9.31177"><ele>917.0</ele><time>2026-04-23T09:08:53.714Z</time></trkpt><trkpt lat="44.72414" lon="9.311675"><ele>914.5</ele><time>2026-04-23T09:08:54.714Z</time></trkpt><trkpt lat="44.7241833" lon="9.3115883"><ele>912.0</ele><time>2026-04-23T09:08:55.714Z</time></trkpt><trkpt lat="44.724225" lon="9.311505"><ele>909.4999999999999</ele><time>2026-04-23T09:08:56.714Z</time></trkpt><trkpt lat="44.7242583" lon="9.3114183"><ele>907.0</ele><time>2026-04-23T09:08:57.713Z</time></trkpt><trkpt lat="44.7242933" lon="9.3113333"><ele>906.3333333333333</ele><time>2026-04-23T09:08:58.713Z</time></trkpt><trkpt lat="44.7243317" lon="9.3112617"><ele>905.6666666666666</ele><time>2026-04-23T09:08:59.716Z</time></trkpt><trkpt lat="44.7244017" lon="9.3111217"><ele>905.0</ele><time>2026-04-23T09:09:01.716Z</time></trkpt><trkpt lat="44.7244283" lon="9.31104"><ele>904.3333333333333</ele><time>2026-04-23T09:09:02.714Z</time></trkpt><trkpt lat="44.7244417" lon="9.3109467"><ele>903.6666666666666</ele><time>2026-04-23T09:09:03.715Z</time></trkpt><trkpt lat="44.72446" lon="9.310845"><ele>903.0</ele><time>2026-04-23T09:09:04.715Z</time></trkpt><trkpt lat="44.7244833" lon="9.31074"><ele>903.0</ele><time>2026-04-23T09:09:05.717Z</time></trkpt><trkpt lat="44.7245033" lon="9.3106533"><ele>903.0</ele><time>2026-04-23T09:09:06.713Z</time></trkpt><trkpt lat="44.7245183" lon="9.3104983"><ele>903.0</ele><time>2026-04-23T09:09:08.716Z</time></trkpt><trkpt lat="44.72448" lon="9.3103383"><ele>903.0</ele><time>2026-04-23T09:09:10.714Z</time></trkpt><trkpt lat="44.7244567" lon="9.310185"><ele>903.0</ele><time>2026-04-23T09:09:12.714Z</time></trkpt><trkpt lat="44.724475" lon="9.31007"><ele>901.6666666666666</ele><time>2026-04-23T09:09:14.716Z</time></trkpt><trkpt lat="44.7244467" lon="9.3099683"><ele>900.3333333333333</ele><time>2026-04-23T09:09:17.715Z</time></trkpt><trkpt lat="44.7243833" lon="9.309915"><ele>899.0</ele><time>2026-04-23T09:09:20.714Z</time></trkpt><trkpt lat="44.724315" lon="9.309845"><ele>897.6666666666666</ele><time>2026-04-23T09:09:23.714Z</time></trkpt><trkpt lat="44.72425" lon="9.3097783"><ele>896.3333333333333</ele><time>2026-04-23T09:09:27.712Z</time></trkpt><trkpt lat="44.7241817" lon="9.3097217"><ele>895.0</ele><time>2026-04-23T09:09:30.713Z</time></trkpt><trkpt lat="44.724095" lon="9.3096517"><ele>892.4999999999999</ele><time>2026-04-23T09:09:32.714Z</time></trkpt><trkpt lat="44.723975" lon="9.3095883"><ele>890.0</ele><time>2026-04-23T09:09:34.712Z</time></trkpt><trkpt lat="44.7239083" lon="9.3095783"><ele>887.5</ele><time>2026-04-23T09:09:35.717Z</time></trkpt><trkpt lat="44.723835" lon="9.30958"><ele>885.0</ele><time>2026-04-23T09:09:36.713Z</time></trkpt><trkpt lat="44.7237533" lon="9.3095983"><ele>882.4999999999999</ele><time>2026-04-23T09:09:37.713Z</time></trkpt><trkpt lat="44.7236667" lon="9.3096233"><ele>880.0</ele><time>2026-04-23T09:09:38.714Z</time></trkpt><trkpt lat="44.7235783" lon="9.309645"><ele>878.9999999999999</ele><time>2026-04-23T09:09:39.716Z</time></trkpt><trkpt lat="44.7234933" lon="9.3096683"><ele>878.0</ele><time>2026-04-23T09:09:40.712Z</time></trkpt><trkpt lat="44.723415" lon="9.30969"><ele>877.0</ele><time>2026-04-23T09:09:41.712Z</time></trkpt><trkpt lat="44.7233433" lon="9.3097"><ele>876.0</ele><time>2026-04-23T09:09:42.714Z</time></trkpt><trkpt lat="44.7232767" lon="9.3096867"><ele>874.9999999999999</ele><time>2026-04-23T09:09:43.713Z</time></trkpt><trkpt lat="44.7232133" lon="9.309635"><ele>874.0</ele><time>2026-04-23T09:09:44.713Z</time></trkpt><trkpt lat="44.7231633" lon="9.3095517"><ele>873.9999999999999</ele><time>2026-04-23T09:09:45.713Z</time></trkpt><trkpt lat="44.72313" lon="9.3094517"><ele>874.0</ele><time>2026-04-23T09:09:46.712Z</time></trkpt><trkpt lat="44.7231083" lon="9.30934"><ele>874.0</ele><time>2026-04-23T09:09:47.713Z</time></trkpt><trkpt lat="44.7230867" lon="9.3092167"><ele>874.0</ele><time>2026-04-23T09:09:48.714Z</time></trkpt><trkpt lat="44.72306" lon="9.3090967"><ele>873.9999999999999</ele><time>2026-04-23T09:09:49.713Z</time></trkpt><trkpt lat="44.7230183" lon="9.30899"><ele>874.0</ele><time>2026-04-23T09:09:50.713Z</time></trkpt><trkpt lat="44.72297" lon="9.3088983"><ele>874.8333333333333</ele><time>2026-04-23T09:09:51.713Z</time></trkpt><trkpt lat="44.72291" lon="9.308825"><ele>875.6666666666666</ele><time>2026-04-23T09:09:52.712Z</time></trkpt><trkpt lat="44.7228333" lon="9.308785"><ele>876.5</ele><time>2026-04-23T09:09:53.713Z</time></trkpt><trkpt lat="44.7227517" lon="9.30874"><ele>877.3333333333333</ele><time>2026-04-23T09:09:54.713Z</time></trkpt><trkpt lat="44.7226767" lon="9.3086767"><ele>878.1666666666666</ele><time>2026-04-23T09:09:55.713Z</time></trkpt><trkpt lat="44.72262" lon="9.30857"><ele>879.0</ele><time>2026-04-23T09:09:56.713Z</time></trkpt><trkpt lat="44.7226" lon="9.3084367"><ele>879.0</ele><time>2026-04-23T09:09:57.712Z</time></trkpt><trkpt lat="44.7226033" lon="9.3082833"><ele>879.0</ele><time>2026-04-23T09:09:58.713Z</time></trkpt><trkpt lat="44.7226167" lon="9.3081167"><ele>879.0</ele><time>2026-04-23T09:09:59.712Z</time></trkpt><trkpt lat="44.7226283" lon="9.3079417"><ele>879.0</ele><time>2026-04-23T09:10:00.713Z</time></trkpt><trkpt lat="44.7226383" lon="9.3077683"><ele>878.0</ele><time>2026-04-23T09:10:01.713Z</time></trkpt><trkpt lat="44.7226467" lon="9.3075933"><ele>877.0</ele><time>2026-04-23T09:10:02.713Z</time></trkpt><trkpt lat="44.722655" lon="9.3074133"><ele>876.0</ele><time>2026-04-23T09:10:03.714Z</time></trkpt><trkpt lat="44.72266" lon="9.3072317"><ele>875.0</ele><time>2026-04-23T09:10:04.713Z</time></trkpt><trkpt lat="44.7226633" lon="9.3070533"><ele>872.25</ele><time>2026-04-23T09:10:05.713Z</time></trkpt><trkpt lat="44.722655" lon="9.3068833"><ele>869.5</ele><time>2026-04-23T09:10:06.712Z</time></trkpt><trkpt lat="44.722625" lon="9.3067283"><ele>866.75</ele><time>2026-04-23T09:10:07.713Z</time></trkpt><trkpt lat="44.722585" lon="9.3065817"><ele>864.0</ele><time>2026-04-23T09:10:08.714Z</time></trkpt><trkpt lat="44.7225383" lon="9.306445"><ele>861.2</ele><time>2026-04-23T09:10:09.712Z</time></trkpt><trkpt lat="44.722485" lon="9.3063183"><ele>858.4000000000001</ele><time>2026-04-23T09:10:10.713Z</time></trkpt><trkpt lat="44.72243" lon="9.3062017"><ele>855.6</ele><time>2026-04-23T09:10:11.716Z</time></trkpt><trkpt lat="44.722355" lon="9.3061083"><ele>852.8</ele><time>2026-04-23T09:10:12.713Z</time></trkpt><trkpt lat="44.72227" lon="9.306035"><ele>850.0</ele><time>2026-04-23T09:10:13.713Z</time></trkpt><trkpt lat="44.7221717" lon="9.30597"><ele>850.0</ele><time>2026-04-23T09:10:14.713Z</time></trkpt><trkpt lat="44.7220633" lon="9.305915"><ele>850.0</ele><time>2026-04-23T09:10:15.713Z</time></trkpt><trkpt lat="44.72195" lon="9.3058767"><ele>850.0</ele><time>2026-04-23T09:10:16.713Z</time></trkpt><trkpt lat="44.7218383" lon="9.30584"><ele>850.0</ele><time>2026-04-23T09:10:17.712Z</time></trkpt><trkpt lat="44.7217317" lon="9.30582"><ele>850.1666666666666</ele><time>2026-04-23T09:10:18.712Z</time></trkpt><trkpt lat="44.721645" lon="9.3058267"><ele>850.3333333333333</ele><time>2026-04-23T09:10:19.712Z</time></trkpt><trkpt lat="44.721575" lon="9.3058433"><ele>850.5</ele><time>2026-04-23T09:10:20.713Z</time></trkpt><trkpt lat="44.7215017" lon="9.3058883"><ele>850.6666666666667</ele><time>2026-04-23T09:10:22.712Z</time></trkpt><trkpt lat="44.7215767" lon="9.30591"><ele>850.8333333333334</ele><time>2026-04-23T09:10:27.712Z</time></trkpt><trkpt lat="44.721635" lon="9.3058367"><ele>851.0</ele><time>2026-04-23T09:10:29.713Z</time></trkpt><trkpt lat="44.7216267" lon="9.3057267"><ele>851.0</ele><time>2026-04-23T09:10:32.714Z</time></trkpt><trkpt lat="44.721575" lon="9.3056067"><ele>851.0</ele><time>2026-04-23T09:10:34.713Z</time></trkpt><trkpt lat="44.7215333" lon="9.30547"><ele>851.0</ele><time>2026-04-23T09:10:36.713Z</time></trkpt><trkpt lat="44.7214883" lon="9.3053283"><ele>851.0</ele><time>2026-04-23T09:10:38.713Z</time></trkpt><trkpt lat="44.7214933" lon="9.3051883"><ele>851.0</ele><time>2026-04-23T09:10:40.712Z</time></trkpt><trkpt lat="44.7215233" lon="9.3050417"><ele>847.8</ele><time>2026-04-23T09:10:42.714Z</time></trkpt><trkpt lat="44.721515" lon="9.304905"><ele>844.5999999999999</ele><time>2026-04-23T09:10:44.713Z</time></trkpt><trkpt lat="44.7215283" lon="9.3047583"><ele>841.4</ele><time>2026-04-23T09:10:46.712Z</time></trkpt><trkpt lat="44.7215733" lon="9.30461"><ele>838.2</ele><time>2026-04-23T09:10:48.713Z</time></trkpt><trkpt lat="44.7216017" lon="9.3045233"><ele>835.0</ele><time>2026-04-23T09:10:49.713Z</time></trkpt><trkpt lat="44.7216317" lon="9.3044317"><ele>831.4</ele><time>2026-04-23T09:10:50.713Z</time></trkpt><trkpt lat="44.7216467" lon="9.30434"><ele>827.8</ele><time>2026-04-23T09:10:51.715Z</time></trkpt><trkpt lat="44.7216517" lon="9.3041883"><ele>824.2</ele><time>2026-04-23T09:10:53.713Z</time></trkpt><trkpt lat="44.7216783" lon="9.30404"><ele>820.6</ele><time>2026-04-23T09:10:55.713Z</time></trkpt><trkpt lat="44.7217367" lon="9.30395"><ele>817.0</ele><time>2026-04-23T09:10:57.714Z</time></trkpt><trkpt lat="44.7218233" lon="9.30394"><ele>815.6666666666666</ele><time>2026-04-23T09:10:59.713Z</time></trkpt><trkpt lat="44.7219217" lon="9.3039067"><ele>814.3333333333333</ele><time>2026-04-23T09:11:01.713Z</time></trkpt><trkpt lat="44.7220233" lon="9.303885"><ele>813.0</ele><time>2026-04-23T09:11:03.713Z</time></trkpt><trkpt lat="44.7221017" lon="9.3038833"><ele>811.6666666666667</ele><time>2026-04-23T09:11:05.712Z</time></trkpt><trkpt lat="44.7221633" lon="9.3039733"><ele>810.3333333333334</ele><time>2026-04-23T09:11:07.713Z</time></trkpt><trkpt lat="44.7222067" lon="9.3040417"><ele>809.0</ele><time>2026-04-23T09:11:08.713Z</time></trkpt><trkpt lat="44.72226" lon="9.304125"><ele>809.0000000000001</ele><time>2026-04-23T09:11:09.712Z</time></trkpt><trkpt lat="44.7223167" lon="9.3042067"><ele>809.0</ele><time>2026-04-23T09:11:10.714Z</time></trkpt><trkpt lat="44.72238" lon="9.3042733"><ele>809.0</ele><time>2026-04-23T09:11:11.712Z</time></trkpt><trkpt lat="44.72244" lon="9.30432"><ele>809.0</ele><time>2026-04-23T09:11:12.712Z</time></trkpt><trkpt lat="44.722525" lon="9.3042883"><ele>809.0000000000001</ele><time>2026-04-23T09:11:14.713Z</time></trkpt><trkpt lat="44.72259" lon="9.3042067"><ele>809.0</ele><time>2026-04-23T09:11:16.712Z</time></trkpt><trkpt lat="44.7226483" lon="9.30413"><ele>809.0000000000001</ele><time>2026-04-23T09:11:18.712Z</time></trkpt><trkpt lat="44.72269" lon="9.3040283"><ele>809.0</ele><time>2026-04-23T09:11:20.715Z</time></trkpt><trkpt lat="44.7226783" lon="9.30388"><ele>809.0</ele><time>2026-04-23T09:11:22.714Z</time></trkpt><trkpt lat="44.7226517" lon="9.3037283"><ele>809.0</ele><time>2026-04-23T09:11:24.712Z</time></trkpt><trkpt lat="44.7226483" lon="9.3036367"><ele>809.0000000000001</ele><time>2026-04-23T09:11:25.712Z</time></trkpt><trkpt lat="44.72265" lon="9.3035417"><ele>809.0</ele><time>2026-04-23T09:11:26.714Z</time></trkpt><trkpt lat="44.72266" lon="9.3034533"><ele>805.6</ele><time>2026-04-23T09:11:27.712Z</time></trkpt><trkpt lat="44.72263" lon="9.3033067"><ele>802.2</ele><time>2026-04-23T09:11:29.713Z</time></trkpt><trkpt lat="44.7225817" lon="9.3031783"><ele>798.8000000000001</ele><time>2026-04-23T09:11:31.719Z</time></trkpt><trkpt lat="44.722575" lon="9.3030417"><ele>795.4000000000001</ele><time>2026-04-23T09:11:33.712Z</time></trkpt><trkpt lat="44.7225483" lon="9.3029017"><ele>792.0</ele><time>2026-04-23T09:11:35.713Z</time></trkpt><trkpt lat="44.722515" lon="9.3027517"><ele>789.6</ele><time>2026-04-23T09:11:37.713Z</time></trkpt><trkpt lat="44.722535" lon="9.30262"><ele>787.2</ele><time>2026-04-23T09:11:39.712Z</time></trkpt><trkpt lat="44.72259" lon="9.30247"><ele>784.8</ele><time>2026-04-23T09:11:41.713Z</time></trkpt><trkpt lat="44.7225967" lon="9.302335"><ele>782.4</ele><time>2026-04-23T09:11:43.714Z</time></trkpt><trkpt lat="44.7226283" lon="9.3022217"><ele>780.0</ele><time>2026-04-23T09:11:45.712Z</time></trkpt><trkpt lat="44.722685" lon="9.3021083"><ele>778.0</ele><time>2026-04-23T09:11:47.713Z</time></trkpt><trkpt lat="44.722715" lon="9.3019567"><ele>776.0</ele><time>2026-04-23T09:11:49.713Z</time></trkpt><trkpt lat="44.7227233" lon="9.30186"><ele>774.0</ele><time>2026-04-23T09:11:50.714Z</time></trkpt><trkpt lat="44.72273" lon="9.30175"><ele>772.0</ele><time>2026-04-23T09:11:51.713Z</time></trkpt><trkpt lat="44.7227383" lon="9.301645"><ele>770.0</ele><time>2026-04-23T09:11:52.713Z</time></trkpt><trkpt lat="44.7227433" lon="9.3015317"><ele>768.0</ele><time>2026-04-23T09:11:53.714Z</time></trkpt><trkpt lat="44.72274" lon="9.3014317"><ele>766.5</ele><time>2026-04-23T09:11:54.714Z</time></trkpt><trkpt lat="44.7227333" lon="9.3013283"><ele>765.0</ele><time>2026-04-23T09:11:55.714Z</time></trkpt><trkpt lat="44.722715" lon="9.3012383"><ele>763.5</ele><time>2026-04-23T09:11:56.713Z</time></trkpt><trkpt lat="44.7226483" lon="9.301125"><ele>762.0</ele><time>2026-04-23T09:11:58.714Z</time></trkpt><trkpt lat="44.7225633" lon="9.3010567"><ele>760.5</ele><time>2026-04-23T09:12:00.713Z</time></trkpt><trkpt lat="44.7225083" lon="9.301005"><ele>759.0</ele><time>2026-04-23T09:12:01.714Z</time></trkpt><trkpt lat="44.7224433" lon="9.3009517"><ele>759.0</ele><time>2026-04-23T09:12:02.713Z</time></trkpt><trkpt lat="44.72239" lon="9.3009"><ele>759.0</ele><time>2026-04-23T09:12:03.712Z</time></trkpt><trkpt lat="44.7223467" lon="9.3007517"><ele>759.0</ele><time>2026-04-23T09:12:05.714Z</time></trkpt><trkpt lat="44.7223567" lon="9.3006583"><ele>759.0</ele><time>2026-04-23T09:12:06.712Z</time></trkpt><trkpt lat="44.7223717" lon="9.300565"><ele>759.0</ele><time>2026-04-23T09:12:07.714Z</time></trkpt><trkpt lat="44.7223983" lon="9.3004833"><ele>759.0</ele><time>2026-04-23T09:12:08.714Z</time></trkpt><trkpt lat="44.7224417" lon="9.3003217"><ele>757.0</ele><time>2026-04-23T09:12:10.714Z</time></trkpt><trkpt lat="44.722465" lon="9.3002317"><ele>755.0</ele><time>2026-04-23T09:12:11.713Z</time></trkpt><trkpt lat="44.7224883" lon="9.300135"><ele>753.0</ele><time>2026-04-23T09:12:12.714Z</time></trkpt><trkpt lat="44.7225117" lon="9.30003"><ele>751.0</ele><time>2026-04-23T09:12:13.713Z</time></trkpt><trkpt lat="44.722495" lon="9.2999117"><ele>749.0</ele><time>2026-04-23T09:12:15.714Z</time></trkpt><trkpt lat="44.7224683" lon="9.2998267"><ele>747.0</ele><time>2026-04-23T09:12:16.713Z</time></trkpt><trkpt lat="44.7224467" lon="9.2997167"><ele>744.5</ele><time>2026-04-23T09:12:17.713Z</time></trkpt><trkpt lat="44.7224267" lon="9.2996017"><ele>742.0</ele><time>2026-04-23T09:12:18.712Z</time></trkpt><trkpt lat="44.7223967" lon="9.299495"><ele>739.5</ele><time>2026-04-23T09:12:19.714Z</time></trkpt><trkpt lat="44.7223667" lon="9.2994133"><ele>737.0</ele><time>2026-04-23T09:12:20.714Z</time></trkpt><trkpt lat="44.72231" lon="9.2992817"><ele>734.5</ele><time>2026-04-23T09:12:22.714Z</time></trkpt><trkpt lat="44.7223333" lon="9.2991717"><ele>732.0</ele><time>2026-04-23T09:12:24.713Z</time></trkpt><trkpt lat="44.7223817" lon="9.299055"><ele>732.0</ele><time>2026-04-23T09:12:26.714Z</time></trkpt><trkpt lat="44.7223933" lon="9.2989467"><ele>732.0</ele><time>2026-04-23T09:12:28.713Z</time></trkpt><trkpt lat="44.722325" lon="9.298835"><ele>732.0</ele><time>2026-04-23T09:12:30.712Z</time></trkpt><trkpt lat="44.7222433" lon="9.2987267"><ele>732.0</ele><time>2026-04-23T09:12:32.714Z</time></trkpt><trkpt lat="44.7222017" lon="9.2986533"><ele>732.0</ele><time>2026-04-23T09:12:33.714Z</time></trkpt><trkpt lat="44.7221367" lon="9.2985433"><ele>728.0</ele><time>2026-04-23T09:12:35.713Z</time></trkpt><trkpt lat="44.7221083" lon="9.2984517"><ele>724.0</ele><time>2026-04-23T09:12:37.712Z</time></trkpt><trkpt lat="44.72207" lon="9.2983733"><ele>720.0</ele><time>2026-04-23T09:12:39.713Z</time></trkpt><trkpt lat="44.7220083" lon="9.2982867"><ele>716.0</ele><time>2026-04-23T09:12:41.714Z</time></trkpt><trkpt lat="44.7219267" lon="9.298225"><ele>712.0</ele><time>2026-04-23T09:12:43.712Z</time></trkpt><trkpt lat="44.7218233" lon="9.2981433"><ele>708.0</ele><time>2026-04-23T09:12:45.714Z</time></trkpt><trkpt lat="44.72176" lon="9.2980933"><ele>704.3333333333334</ele><time>2026-04-23T09:12:46.712Z</time></trkpt><trkpt lat="44.7216883" lon="9.2980483"><ele>700.6666666666666</ele><time>2026-04-23T09:12:47.714Z</time></trkpt><trkpt lat="44.721615" lon="9.29802"><ele>697.0</ele><time>2026-04-23T09:12:48.712Z</time></trkpt><trkpt lat="44.7215383" lon="9.2979933"><ele>693.3333333333333</ele><time>2026-04-23T09:12:49.713Z</time></trkpt><trkpt lat="44.721465" lon="9.2979667"><ele>689.6666666666666</ele><time>2026-04-23T09:12:50.714Z</time></trkpt><trkpt lat="44.7214033" lon="9.2979317"><ele>686.0</ele><time>2026-04-23T09:12:51.712Z</time></trkpt><trkpt lat="44.72132" lon="9.2978533"><ele>686.0</ele><time>2026-04-23T09:12:53.713Z</time></trkpt><trkpt lat="44.7212833" lon="9.2977567"><ele>686.0</ele><time>2026-04-23T09:12:56.715Z</time></trkpt><trkpt lat="44.721225" lon="9.2977083"><ele>686.0</ele><time>2026-04-23T09:12:59.713Z</time></trkpt><trkpt lat="44.721165" lon="9.2976317"><ele>686.0</ele><time>2026-04-23T09:13:02.713Z</time></trkpt><trkpt lat="44.7211683" lon="9.2975383"><ele>686.0</ele><time>2026-04-23T09:13:34.714Z</time></trkpt><trkpt lat="44.7212417" lon="9.2974867"><ele>686.0</ele><time>2026-04-23T09:13:36.712Z</time></trkpt><trkpt lat="44.7213217" lon="9.2974767"><ele>686.0</ele><time>2026-04-23T09:13:38.713Z</time></trkpt><trkpt lat="44.7214283" lon="9.2974683"><ele>686.0</ele><time>2026-04-23T09:13:40.714Z</time></trkpt><trkpt lat="44.7214917" lon="9.2974533"><ele>686.0</ele><time>2026-04-23T09:13:41.713Z</time></trkpt><trkpt lat="44.7215617" lon="9.2974317"><ele>686.0</ele><time>2026-04-23T09:13:42.715Z</time></trkpt><trkpt lat="44.7216417" lon="9.2974067"><ele>686.0</ele><time>2026-04-23T09:13:43.714Z</time></trkpt><trkpt lat="44.7217183" lon="9.2973733"><ele>686.0</ele><time>2026-04-23T09:13:44.714Z</time></trkpt><trkpt lat="44.72179" lon="9.2973483"><ele>686.0</ele><time>2026-04-23T09:13:45.714Z</time></trkpt><trkpt lat="44.7218567" lon="9.297325"><ele>686.0</ele><time>2026-04-23T09:13:46.714Z</time></trkpt><trkpt lat="44.7219267" lon="9.297315"><ele>686.0</ele><time>2026-04-23T09:13:47.713Z</time></trkpt><trkpt lat="44.7219983" lon="9.2973133"><ele>686.0</ele><time>2026-04-23T09:13:48.714Z</time></trkpt><trkpt lat="44.7221133" lon="9.2973167"><ele>686.0</ele><time>2026-04-23T09:13:50.715Z</time></trkpt><trkpt lat="44.72223" lon="9.2973033"><ele>686.0</ele><time>2026-04-23T09:13:52.713Z</time></trkpt><trkpt lat="44.722295" lon="9.2972833"><ele>685.6666666666666</ele><time>2026-04-23T09:13:53.714Z</time></trkpt><trkpt lat="44.7223583" lon="9.2972717"><ele>685.3333333333333</ele><time>2026-04-23T09:13:54.714Z</time></trkpt><trkpt lat="44.7224233" lon="9.2972767"><ele>685.0</ele><time>2026-04-23T09:13:55.713Z</time></trkpt><trkpt lat="44.7224933" lon="9.2973"><ele>684.6666666666666</ele><time>2026-04-23T09:13:56.714Z</time></trkpt><trkpt lat="44.7225533" lon="9.2973417"><ele>684.3333333333334</ele><time>2026-04-23T09:13:57.713Z</time></trkpt><trkpt lat="44.72266" lon="9.29745"><ele>684.0</ele><time>2026-04-23T09:13:59.714Z</time></trkpt><trkpt lat="44.722715" lon="9.2974983"><ele>680.8000000000001</ele><time>2026-04-23T09:14:00.712Z</time></trkpt><trkpt lat="44.72284" lon="9.297535"><ele>677.6</ele><time>2026-04-23T09:14:02.714Z</time></trkpt><trkpt lat="44.7229283" lon="9.2975383"><ele>674.4</ele><time>2026-04-23T09:14:03.713Z</time></trkpt><trkpt lat="44.7230117" lon="9.2975467"><ele>671.2</ele><time>2026-04-23T09:14:04.713Z</time></trkpt><trkpt lat="44.7231017" lon="9.2975467"><ele>668.0</ele><time>2026-04-23T09:14:05.714Z</time></trkpt><trkpt lat="44.7231983" lon="9.2975433"><ele>668.0</ele><time>2026-04-23T09:14:06.712Z</time></trkpt><trkpt lat="44.7232783" lon="9.2975167"><ele>668.0</ele><time>2026-04-23T09:14:07.714Z</time></trkpt><trkpt lat="44.72335" lon="9.2974983"><ele>668.0</ele><time>2026-04-23T09:14:08.713Z</time></trkpt><trkpt lat="44.7234233" lon="9.29748"><ele>668.0</ele><time>2026-04-23T09:14:09.713Z</time></trkpt><trkpt lat="44.7235367" lon="9.2974783"><ele>668.0</ele><time>2026-04-23T09:14:11.713Z</time></trkpt><trkpt lat="44.7236367" lon="9.2974683"><ele>668.0</ele><time>2026-04-23T09:14:13.713Z</time></trkpt><trkpt lat="44.7235917" lon="9.297365"><ele>668.0</ele><time>2026-04-23T09:14:18.712Z</time></trkpt><trkpt lat="44.7235533" lon="9.29729"><ele>668.0</ele><time>2026-04-23T09:14:20.714Z</time></trkpt><trkpt lat="44.7235183" lon="9.2971567"><ele>668.0</ele><time>2026-04-23T09:14:22.712Z</time></trkpt><trkpt lat="44.72351" lon="9.29701"><ele>668.0</ele><time>2026-04-23T09:14:24.714Z</time></trkpt><trkpt lat="44.7235233" lon="9.2968833"><ele>668.0</ele><time>2026-04-23T09:14:26.714Z</time></trkpt><trkpt lat="44.723625" lon="9.29683"><ele>669.0</ele><time>2026-04-23T09:14:28.713Z</time></trkpt><trkpt lat="44.7237067" lon="9.2968217"><ele>670.0</ele><time>2026-04-23T09:14:29.714Z</time></trkpt><trkpt lat="44.7237967" lon="9.2968017"><ele>671.0</ele><time>2026-04-23T09:14:30.712Z</time></trkpt><trkpt lat="44.7238817" lon="9.2967917"><ele>672.0</ele><time>2026-04-23T09:14:31.713Z</time></trkpt><trkpt lat="44.723965" lon="9.29679"><ele>673.0</ele><time>2026-04-23T09:14:32.715Z</time></trkpt><trkpt lat="44.724045" lon="9.2967867"><ele>674.0</ele><time>2026-04-23T09:14:33.713Z</time></trkpt><trkpt lat="44.7241067" lon="9.2968083"><ele>674.0</ele><time>2026-04-23T09:14:34.713Z</time></trkpt><trkpt lat="44.7242" lon="9.29686"><ele>674.0</ele><time>2026-04-23T09:14:36.712Z</time></trkpt><trkpt lat="44.7242967" lon="9.2968533"><ele>674.0</ele><time>2026-04-23T09:14:38.714Z</time></trkpt><trkpt lat="44.724405" lon="9.296805"><ele>674.0</ele><time>2026-04-23T09:14:40.713Z</time></trkpt><trkpt lat="44.72447" lon="9.296775"><ele>674.0</ele><time>2026-04-23T09:14:41.713Z</time></trkpt><trkpt lat="44.7245383" lon="9.296745"><ele>676.8000000000001</ele><time>2026-04-23T09:14:42.713Z</time></trkpt><trkpt lat="44.724635" lon="9.2967067"><ele>679.6</ele><time>2026-04-23T09:14:44.714Z</time></trkpt><trkpt lat="44.724685" lon="9.296645"><ele>682.4</ele><time>2026-04-23T09:14:46.713Z</time></trkpt><trkpt lat="44.7247583" lon="9.296545"><ele>685.2</ele><time>2026-04-23T09:14:51.712Z</time></trkpt><trkpt lat="44.7248167" lon="9.2964283"><ele>688.0</ele><time>2026-04-23T09:14:54.713Z</time></trkpt><trkpt lat="44.7248633" lon="9.29633"><ele>688.0</ele><time>2026-04-23T09:14:56.713Z</time></trkpt><trkpt lat="44.7249033" lon="9.29626"><ele>688.0</ele><time>2026-04-23T09:14:58.713Z</time></trkpt><trkpt lat="44.7249883" lon="9.2962417"><ele>688.0</ele><time>2026-04-23T09:15:01.714Z</time></trkpt><trkpt lat="44.7250317" lon="9.2963117"><ele>688.0</ele><time>2026-04-23T09:15:03.711Z</time></trkpt><trkpt lat="44.7250917" lon="9.29639"><ele>688.0</ele><time>2026-04-23T09:15:05.713Z</time></trkpt><trkpt lat="44.7251933" lon="9.2964717"><ele>688.0</ele><time>2026-04-23T09:15:07.714Z</time></trkpt><trkpt lat="44.7252483" lon="9.2965183"><ele>691.2</ele><time>2026-04-23T09:15:08.713Z</time></trkpt><trkpt lat="44.7253567" lon="9.2965983"><ele>694.4</ele><time>2026-04-23T09:15:10.713Z</time></trkpt><trkpt lat="44.7254567" lon="9.2966317"><ele>697.6</ele><time>2026-04-23T09:15:12.712Z</time></trkpt><trkpt lat="44.7255533" lon="9.296595"><ele>700.8000000000001</ele><time>2026-04-23T09:15:14.714Z</time></trkpt><trkpt lat="44.7256483" lon="9.2965167"><ele>704.0</ele><time>2026-04-23T09:15:16.713Z</time></trkpt><trkpt lat="44.7257333" lon="9.296405"><ele>704.0</ele><time>2026-04-23T09:15:18.713Z</time></trkpt><trkpt lat="44.725785" lon="9.2963517"><ele>704.0</ele><time>2026-04-23T09:15:19.713Z</time></trkpt><trkpt lat="44.7258933" lon="9.2963"><ele>704.0</ele><time>2026-04-23T09:15:21.713Z</time></trkpt><trkpt lat="44.7260183" lon="9.2962967"><ele>704.0</ele><time>2026-04-23T09:15:23.713Z</time></trkpt><trkpt lat="44.7260833" lon="9.2962783"><ele>704.0</ele><time>2026-04-23T09:15:24.715Z</time></trkpt><trkpt lat="44.72621" lon="9.2962217"><ele>705.3333333333333</ele><time>2026-04-23T09:15:26.713Z</time></trkpt><trkpt lat="44.726295" lon="9.2961883"><ele>706.6666666666666</ele><time>2026-04-23T09:15:27.712Z</time></trkpt><trkpt lat="44.7263783" lon="9.296165"><ele>708.0</ele><time>2026-04-23T09:15:28.713Z</time></trkpt><trkpt lat="44.72647" lon="9.2961567"><ele>709.3333333333334</ele><time>2026-04-23T09:15:29.714Z</time></trkpt><trkpt lat="44.7265617" lon="9.29615"><ele>710.6666666666667</ele><time>2026-04-23T09:15:30.714Z</time></trkpt><trkpt lat="44.7266267" lon="9.2961467"><ele>712.0</ele><time>2026-04-23T09:15:31.713Z</time></trkpt><trkpt lat="44.7267033" lon="9.2961267"><ele>712.0</ele><time>2026-04-23T09:15:33.713Z</time></trkpt><trkpt lat="44.7266967" lon="9.29603"><ele>712.0</ele><time>2026-04-23T09:15:55.713Z</time></trkpt><trkpt lat="44.7266483" lon="9.2958617"><ele>712.0</ele><time>2026-04-23T09:15:57.712Z</time></trkpt><trkpt lat="44.726615" lon="9.2957683"><ele>712.0</ele><time>2026-04-23T09:15:58.713Z</time></trkpt><trkpt lat="44.72657" lon="9.2956683"><ele>712.0</ele><time>2026-04-23T09:15:59.713Z</time></trkpt><trkpt lat="44.7265133" lon="9.2955683"><ele>712.0</ele><time>2026-04-23T09:16:00.712Z</time></trkpt><trkpt lat="44.7264617" lon="9.2954783"><ele>709.6666666666667</ele><time>2026-04-23T09:16:01.714Z</time></trkpt><trkpt lat="44.7264067" lon="9.2953983"><ele>707.3333333333334</ele><time>2026-04-23T09:16:02.713Z</time></trkpt><trkpt lat="44.7263633" lon="9.2953167"><ele>705.0</ele><time>2026-04-23T09:16:03.712Z</time></trkpt><trkpt lat="44.7263133" lon="9.295235"><ele>702.6666666666666</ele><time>2026-04-23T09:16:04.713Z</time></trkpt><trkpt lat="44.7262717" lon="9.2951633"><ele>700.3333333333333</ele><time>2026-04-23T09:16:05.713Z</time></trkpt><trkpt lat="44.7261933" lon="9.2950917"><ele>698.0</ele><time>2026-04-23T09:16:07.713Z</time></trkpt><trkpt lat="44.72613" lon="9.2950617"><ele>698.1666666666666</ele><time>2026-04-23T09:16:08.713Z</time></trkpt><trkpt lat="44.72605" lon="9.2950283"><ele>698.3333333333333</ele><time>2026-04-23T09:16:09.714Z</time></trkpt><trkpt lat="44.72597" lon="9.29499"><ele>698.5</ele><time>2026-04-23T09:16:10.713Z</time></trkpt><trkpt lat="44.72589" lon="9.2949517"><ele>698.6666666666666</ele><time>2026-04-23T09:16:11.713Z</time></trkpt><trkpt lat="44.7258083" lon="9.2949083"><ele>698.8333333333334</ele><time>2026-04-23T09:16:12.714Z</time></trkpt><trkpt lat="44.7257267" lon="9.2948683"><ele>699.0</ele><time>2026-04-23T09:16:13.713Z</time></trkpt><trkpt lat="44.7256417" lon="9.294825"><ele>699.0</ele><time>2026-04-23T09:16:14.713Z</time></trkpt><trkpt lat="44.72555" lon="9.2947783"><ele>699.0</ele><time>2026-04-23T09:16:15.712Z</time></trkpt><trkpt lat="44.7254583" lon="9.2947333"><ele>699.0</ele><time>2026-04-23T09:16:16.712Z</time></trkpt><trkpt lat="44.72537" lon="9.2946883"><ele>699.0</ele><time>2026-04-23T09:16:17.713Z</time></trkpt><trkpt lat="44.7252867" lon="9.2946567"><ele>699.0</ele><time>2026-04-23T09:16:18.712Z</time></trkpt><trkpt lat="44.7252067" lon="9.2946383"><ele>695.3333333333334</ele><time>2026-04-23T09:16:19.713Z</time></trkpt><trkpt lat="44.7251217" lon="9.2946383"><ele>691.6666666666666</ele><time>2026-04-23T09:16:20.714Z</time></trkpt><trkpt lat="44.7250367" lon="9.2946433"><ele>688.0</ele><time>2026-04-23T09:16:21.713Z</time></trkpt><trkpt lat="44.724955" lon="9.2946467"><ele>684.3333333333333</ele><time>2026-04-23T09:16:22.713Z</time></trkpt><trkpt lat="44.7248717" lon="9.2946583"><ele>680.6666666666666</ele><time>2026-04-23T09:16:23.717Z</time></trkpt><trkpt lat="44.7248033" lon="9.2946783"><ele>677.0</ele><time>2026-04-23T09:16:24.715Z</time></trkpt><trkpt lat="44.7247317" lon="9.29471"><ele>677.0</ele><time>2026-04-23T09:16:25.714Z</time></trkpt><trkpt lat="44.724665" lon="9.2947417"><ele>677.0</ele><time>2026-04-23T09:16:26.714Z</time></trkpt><trkpt lat="44.7246" lon="9.294775"><ele>677.0</ele><time>2026-04-23T09:16:27.713Z</time></trkpt><trkpt lat="44.7245317" lon="9.2947933"><ele>677.0</ele><time>2026-04-23T09:16:28.713Z</time></trkpt><trkpt lat="44.7244567" lon="9.294795"><ele>677.0</ele><time>2026-04-23T09:16:29.715Z</time></trkpt><trkpt lat="44.7243783" lon="9.2947767"><ele>677.0</ele><time>2026-04-23T09:16:30.714Z</time></trkpt><trkpt lat="44.724285" lon="9.2947333"><ele>675.0</ele><time>2026-04-23T09:16:31.715Z</time></trkpt><trkpt lat="44.7242" lon="9.2946917"><ele>673.0</ele><time>2026-04-23T09:16:32.713Z</time></trkpt><trkpt lat="44.7241217" lon="9.2946617"><ele>671.0</ele><time>2026-04-23T09:16:33.713Z</time></trkpt><trkpt lat="44.724045" lon="9.294625"><ele>669.0</ele><time>2026-04-23T09:16:34.713Z</time></trkpt><trkpt lat="44.72397" lon="9.29459"><ele>667.0</ele><time>2026-04-23T09:16:35.714Z</time></trkpt><trkpt lat="44.7238967" lon="9.2945433"><ele>665.0</ele><time>2026-04-23T09:16:36.713Z</time></trkpt><trkpt lat="44.72383" lon="9.2944933"><ele>665.0</ele><time>2026-04-23T09:16:37.712Z</time></trkpt><trkpt lat="44.7237617" lon="9.2944417"><ele>665.0</ele><time>2026-04-23T09:16:38.714Z</time></trkpt><trkpt lat="44.7236883" lon="9.2943983"><ele>665.0</ele><time>2026-04-23T09:16:39.713Z</time></trkpt><trkpt lat="44.7236067" lon="9.29435"><ele>665.0</ele><time>2026-04-23T09:16:40.712Z</time></trkpt><trkpt lat="44.7235217" lon="9.2943"><ele>665.0</ele><time>2026-04-23T09:16:41.713Z</time></trkpt><trkpt lat="44.7234367" lon="9.2942417"><ele>665.0</ele><time>2026-04-23T09:16:42.713Z</time></trkpt><trkpt lat="44.7233483" lon="9.2941717"><ele>663.0</ele><time>2026-04-23T09:16:43.714Z</time></trkpt><trkpt lat="44.72326" lon="9.2941067"><ele>661.0</ele><time>2026-04-23T09:16:44.714Z</time></trkpt><trkpt lat="44.72317" lon="9.2940533"><ele>659.0</ele><time>2026-04-23T09:16:45.712Z</time></trkpt><trkpt lat="44.7230867" lon="9.2940033"><ele>657.0</ele><time>2026-04-23T09:16:46.712Z</time></trkpt><trkpt lat="44.7230133" lon="9.29395"><ele>655.0</ele><time>2026-04-23T09:16:47.713Z</time></trkpt><trkpt lat="44.7229483" lon="9.293875"><ele>652.6666666666667</ele><time>2026-04-23T09:16:48.712Z</time></trkpt><trkpt lat="44.7228917" lon="9.2937817"><ele>650.3333333333334</ele><time>2026-04-23T09:16:49.713Z</time></trkpt><trkpt lat="44.7228333" lon="9.2936833"><ele>648.0</ele><time>2026-04-23T09:16:50.714Z</time></trkpt><trkpt lat="44.7227717" lon="9.293585"><ele>645.6666666666666</ele><time>2026-04-23T09:16:51.715Z</time></trkpt><trkpt lat="44.7227167" lon="9.293495"><ele>643.3333333333333</ele><time>2026-04-23T09:16:52.714Z</time></trkpt><trkpt lat="44.7226633" lon="9.2934017"><ele>641.0</ele><time>2026-04-23T09:16:53.714Z</time></trkpt><trkpt lat="44.722625" lon="9.2933217"><ele>641.0</ele><time>2026-04-23T09:16:54.714Z</time></trkpt><trkpt lat="44.7225683" lon="9.2931933"><ele>641.0</ele><time>2026-04-23T09:16:56.713Z</time></trkpt><trkpt lat="44.7225083" lon="9.2931267"><ele>641.0</ele><time>2026-04-23T09:16:58.713Z</time></trkpt><trkpt lat="44.72244" lon="9.29307"><ele>641.0</ele><time>2026-04-23T09:17:01.713Z</time></trkpt><trkpt lat="44.7223733" lon="9.29299"><ele>641.0</ele><time>2026-04-23T09:17:04.714Z</time></trkpt><trkpt lat="44.72231" lon="9.2929183"><ele>641.0</ele><time>2026-04-23T09:17:06.712Z</time></trkpt><trkpt lat="44.7221983" lon="9.29283"><ele>638.1999999999999</ele><time>2026-04-23T09:17:22.714Z</time></trkpt><trkpt lat="44.7221233" lon="9.292795"><ele>635.4</ele><time>2026-04-23T09:17:24.713Z</time></trkpt><trkpt lat="44.7220367" lon="9.292765"><ele>632.6</ele><time>2026-04-23T09:17:26.713Z</time></trkpt><trkpt lat="44.721945" lon="9.2927117"><ele>629.8</ele><time>2026-04-23T09:17:28.713Z</time></trkpt><trkpt lat="44.72185" lon="9.2926583"><ele>627.0</ele><time>2026-04-23T09:17:30.713Z</time></trkpt><trkpt lat="44.7217583" lon="9.2926317"><ele>627.0</ele><time>2026-04-23T09:17:32.714Z</time></trkpt><trkpt lat="44.7216783" lon="9.2925783"><ele>627.0</ele><time>2026-04-23T09:17:34.714Z</time></trkpt><trkpt lat="44.7215833" lon="9.2925283"><ele>627.0</ele><time>2026-04-23T09:17:36.714Z</time></trkpt><trkpt lat="44.721515" lon="9.29248"><ele>627.0</ele><time>2026-04-23T09:17:38.713Z</time></trkpt><trkpt lat="44.7214533" lon="9.29238"><ele>627.0</ele><time>2026-04-23T09:19:00.713Z</time></trkpt><trkpt lat="44.72152" lon="9.2924617"><ele>627.0</ele><time>2026-04-23T09:19:04.713Z</time></trkpt><trkpt lat="44.721605" lon="9.2925083"><ele>627.0</ele><time>2026-04-23T09:19:07.714Z</time></trkpt><trkpt lat="44.721685" lon="9.2925533"><ele>627.0</ele><time>2026-04-23T09:19:09.712Z</time></trkpt><trkpt lat="44.721775" lon="9.2925917"><ele>627.0</ele><time>2026-04-23T09:19:11.713Z</time></trkpt><trkpt lat="44.7218867" lon="9.2926367"><ele>627.0</ele><time>2026-04-23T09:19:13.714Z</time></trkpt><trkpt lat="44.7219467" lon="9.292665"><ele>627.0</ele><time>2026-04-23T09:19:14.714Z</time></trkpt><trkpt lat="44.7220083" lon="9.2926983"><ele>627.0</ele><time>2026-04-23T09:19:15.713Z</time></trkpt><trkpt lat="44.7221117" lon="9.2927483"><ele>626.6</ele><time>2026-04-23T09:19:17.713Z</time></trkpt><trkpt lat="44.7222033" lon="9.2927867"><ele>626.2</ele><time>2026-04-23T09:19:19.714Z</time></trkpt><trkpt lat="44.72232" lon="9.2928283"><ele>625.8</ele><time>2026-04-23T09:19:46.714Z</time></trkpt><trkpt lat="44.7224083" lon="9.29294"><ele>625.4</ele><time>2026-04-23T09:19:48.713Z</time></trkpt><trkpt lat="44.72246" lon="9.2930033"><ele>625.0</ele><time>2026-04-23T09:19:49.714Z</time></trkpt><trkpt lat="44.7225167" lon="9.29307"><ele>627.5</ele><time>2026-04-23T09:19:50.714Z</time></trkpt><trkpt lat="44.72257" lon="9.2931333"><ele>630.0</ele><time>2026-04-23T09:19:51.713Z</time></trkpt><trkpt lat="44.72261" lon="9.2932083"><ele>632.5</ele><time>2026-04-23T09:19:52.714Z</time></trkpt><trkpt lat="44.72265" lon="9.293295"><ele>635.0</ele><time>2026-04-23T09:19:53.714Z</time></trkpt><trkpt lat="44.7227" lon="9.2933817"><ele>637.5</ele><time>2026-04-23T09:19:54.713Z</time></trkpt><trkpt lat="44.7227567" lon="9.293475"><ele>640.0</ele><time>2026-04-23T09:19:55.713Z</time></trkpt><trkpt lat="44.72281" lon="9.2935783"><ele>640.0</ele><time>2026-04-23T09:19:56.713Z</time></trkpt><trkpt lat="44.7228652" lon="9.2936892"><ele>640.0</ele><time>2026-04-23T09:19:57.714Z</time></trkpt><trkpt lat="44.7229208" lon="9.2938002"><ele>640.0</ele><time>2026-04-23T09:19:58.713Z</time></trkpt><trkpt lat="44.7229758" lon="9.2938972"><ele>640.0</ele><time>2026-04-23T09:19:59.714Z</time></trkpt><trkpt lat="44.7230311" lon="9.2939732"><ele>640.0</ele><time>2026-04-23T09:20:00.713Z</time></trkpt><trkpt lat="44.7230891" lon="9.2940326"><ele>640.0</ele><time>2026-04-23T09:20:01.713Z</time></trkpt><trkpt lat="44.7231629" lon="9.2940738"><ele>643.0</ele><time>2026-04-23T09:20:02.714Z</time></trkpt><trkpt lat="44.7232535" lon="9.2941128"><ele>646.0</ele><time>2026-04-23T09:20:03.713Z</time></trkpt><trkpt lat="44.7233559" lon="9.2941646"><ele>649.0</ele><time>2026-04-23T09:20:04.713Z</time></trkpt><trkpt lat="44.7234536" lon="9.2942312"><ele>652.0</ele><time>2026-04-23T09:20:05.714Z</time></trkpt><trkpt lat="44.7235514" lon="9.2943026"><ele>655.0</ele><time>2026-04-23T09:20:06.713Z</time></trkpt><trkpt lat="44.7236475" lon="9.2943681"><ele>657.0</ele><time>2026-04-23T09:20:07.714Z</time></trkpt><trkpt lat="44.7237352" lon="9.2944274"><ele>659.0</ele><time>2026-04-23T09:20:08.714Z</time></trkpt><trkpt lat="44.72382" lon="9.2944855"><ele>661.0</ele><time>2026-04-23T09:20:09.714Z</time></trkpt><trkpt lat="44.7239058" lon="9.2945445"><ele>663.0</ele><time>2026-04-23T09:20:10.713Z</time></trkpt><trkpt lat="44.7239961" lon="9.2945933"><ele>665.0</ele><time>2026-04-23T09:20:11.714Z</time></trkpt><trkpt lat="44.724093" lon="9.2946302"><ele>665.0</ele><time>2026-04-23T09:20:12.713Z</time></trkpt><trkpt lat="44.7241916" lon="9.2946685"><ele>665.0</ele><time>2026-04-23T09:20:13.714Z</time></trkpt><trkpt lat="44.7242823" lon="9.2947103"><ele>665.0</ele><time>2026-04-23T09:20:14.714Z</time></trkpt><trkpt lat="44.7243602" lon="9.2947516"><ele>665.0</ele><time>2026-04-23T09:20:15.714Z</time></trkpt><trkpt lat="44.7244323" lon="9.2947764"><ele>665.0</ele><time>2026-04-23T09:20:16.713Z</time></trkpt><trkpt lat="44.7245032" lon="9.2947767"><ele>665.0</ele><time>2026-04-23T09:20:17.713Z</time></trkpt><trkpt lat="44.7245816" lon="9.2947607"><ele>667.0</ele><time>2026-04-23T09:20:18.713Z</time></trkpt><trkpt lat="44.7246632" lon="9.2947211"><ele>669.0</ele><time>2026-04-23T09:20:19.713Z</time></trkpt><trkpt lat="44.724749" lon="9.2946691"><ele>671.0</ele><time>2026-04-23T09:20:20.714Z</time></trkpt><trkpt lat="44.7248332" lon="9.2946283"><ele>673.0</ele><time>2026-04-23T09:20:21.713Z</time></trkpt><trkpt lat="44.7249158" lon="9.2945977"><ele>675.0</ele><time>2026-04-23T09:20:22.714Z</time></trkpt><trkpt lat="44.7250041" lon="9.2945799"><ele>677.0</ele><time>2026-04-23T09:20:23.713Z</time></trkpt><trkpt lat="44.7250906" lon="9.2945685"><ele>677.0</ele><time>2026-04-23T09:20:24.716Z</time></trkpt><trkpt lat="44.7251721" lon="9.2945651"><ele>677.0</ele><time>2026-04-23T09:20:25.714Z</time></trkpt><trkpt lat="44.7252473" lon="9.2945741"><ele>677.0</ele><time>2026-04-23T09:20:26.714Z</time></trkpt><trkpt lat="44.7253266" lon="9.2945973"><ele>677.0</ele><time>2026-04-23T09:20:27.714Z</time></trkpt><trkpt lat="44.7254155" lon="9.2946396"><ele>677.0</ele><time>2026-04-23T09:20:28.714Z</time></trkpt><trkpt lat="44.7255151" lon="9.2946961"><ele>677.0</ele><time>2026-04-23T09:20:29.714Z</time></trkpt><trkpt lat="44.7256158" lon="9.2947618"><ele>681.2</ele><time>2026-04-23T09:20:30.713Z</time></trkpt><trkpt lat="44.7257124" lon="9.2948209"><ele>685.4000000000001</ele><time>2026-04-23T09:20:31.713Z</time></trkpt><trkpt lat="44.725805" lon="9.2948752"><ele>689.5999999999999</ele><time>2026-04-23T09:20:32.714Z</time></trkpt><trkpt lat="44.7258928" lon="9.2949263"><ele>693.8</ele><time>2026-04-23T09:20:33.713Z</time></trkpt><trkpt lat="44.7259848" lon="9.2949768"><ele>698.0</ele><time>2026-04-23T09:20:34.713Z</time></trkpt><trkpt lat="44.7260822" lon="9.295013"><ele>698.0</ele><time>2026-04-23T09:20:35.715Z</time></trkpt><trkpt lat="44.7261649" lon="9.2950361"><ele>698.0</ele><time>2026-04-23T09:20:36.715Z</time></trkpt><trkpt lat="44.7262358" lon="9.2950602"><ele>698.0</ele><time>2026-04-23T09:20:37.715Z</time></trkpt><trkpt lat="44.7262963" lon="9.2951044"><ele>698.0</ele><time>2026-04-23T09:20:38.714Z</time></trkpt><trkpt lat="44.7263536" lon="9.29517"><ele>698.0</ele><time>2026-04-23T09:20:39.716Z</time></trkpt><trkpt lat="44.7264108" lon="9.2952573"><ele>698.0</ele><time>2026-04-23T09:20:40.717Z</time></trkpt><trkpt lat="44.726467" lon="9.295358"><ele>698.0</ele><time>2026-04-23T09:20:41.713Z</time></trkpt><trkpt lat="44.7265219" lon="9.2954622"><ele>698.0</ele><time>2026-04-23T09:20:42.713Z</time></trkpt><trkpt lat="44.7265794" lon="9.2955698"><ele>698.0</ele><time>2026-04-23T09:20:43.715Z</time></trkpt><trkpt lat="44.7266356" lon="9.2956773"><ele>698.0</ele><time>2026-04-23T09:20:44.715Z</time></trkpt><trkpt lat="44.7266817" lon="9.2957786"><ele>698.0</ele><time>2026-04-23T09:20:45.713Z</time></trkpt><trkpt lat="44.7266984" lon="9.2958666"><ele>698.0</ele><time>2026-04-23T09:20:46.715Z</time></trkpt><trkpt lat="44.7267181" lon="9.2959567"><ele>699.5</ele><time>2026-04-23T09:20:47.714Z</time></trkpt><trkpt lat="44.7267404" lon="9.2960419"><ele>701.0</ele><time>2026-04-23T09:20:48.713Z</time></trkpt><trkpt lat="44.7267851" lon="9.2961565"><ele>702.5</ele><time>2026-04-23T09:20:50.714Z</time></trkpt><trkpt lat="44.7268582" lon="9.2961619"><ele>704.0</ele><time>2026-04-23T09:21:08.712Z</time></trkpt><trkpt lat="44.7269348" lon="9.2961419"><ele>705.5</ele><time>2026-04-23T09:21:09.712Z</time></trkpt><trkpt lat="44.7270311" lon="9.2961284"><ele>707.0</ele><time>2026-04-23T09:21:10.713Z</time></trkpt><trkpt lat="44.7271253" lon="9.2961351"><ele>707.0</ele><time>2026-04-23T09:21:11.714Z</time></trkpt><trkpt lat="44.7272062" lon="9.296158"><ele>707.0</ele><time>2026-04-23T09:21:12.712Z</time></trkpt><trkpt lat="44.7272778" lon="9.2962177"><ele>707.0</ele><time>2026-04-23T09:21:13.712Z</time></trkpt><trkpt lat="44.7273374" lon="9.2963295"><ele>707.0</ele><time>2026-04-23T09:21:14.712Z</time></trkpt><trkpt lat="44.7273906" lon="9.2964654"><ele>707.0</ele><time>2026-04-23T09:21:15.712Z</time></trkpt><trkpt lat="44.7274169" lon="9.2966091"><ele>710.0</ele><time>2026-04-23T09:21:16.714Z</time></trkpt><trkpt lat="44.7274408" lon="9.2967329"><ele>713.0</ele><time>2026-04-23T09:21:17.712Z</time></trkpt><trkpt lat="44.7274739" lon="9.2968414"><ele>716.0</ele><time>2026-04-23T09:21:18.713Z</time></trkpt><trkpt lat="44.7275153" lon="9.2969347"><ele>719.0</ele><time>2026-04-23T09:21:19.713Z</time></trkpt><trkpt lat="44.7275546" lon="9.2970165"><ele>722.0</ele><time>2026-04-23T09:21:20.714Z</time></trkpt><trkpt lat="44.7275865" lon="9.2970962"><ele>725.0</ele><time>2026-04-23T09:21:21.711Z</time></trkpt><trkpt lat="44.7276177" lon="9.2971748"><ele>727.4285714285714</ele><time>2026-04-23T09:21:22.713Z</time></trkpt><trkpt lat="44.7276396" lon="9.2972728"><ele>729.8571428571429</ele><time>2026-04-23T09:21:23.713Z</time></trkpt><trkpt lat="44.7276475" lon="9.2973796"><ele>732.2857142857142</ele><time>2026-04-23T09:21:24.712Z</time></trkpt><trkpt lat="44.7276491" lon="9.2974887"><ele>734.7142857142858</ele><time>2026-04-23T09:21:25.712Z</time></trkpt><trkpt lat="44.7276455" lon="9.2975889"><ele>737.1428571428571</ele><time>2026-04-23T09:21:26.713Z</time></trkpt><trkpt lat="44.7276354" lon="9.2976899"><ele>739.5714285714286</ele><time>2026-04-23T09:21:27.713Z</time></trkpt><trkpt lat="44.7276258" lon="9.2977814"><ele>742.0</ele><time>2026-04-23T09:21:28.712Z</time></trkpt><trkpt lat="44.7276249" lon="9.2978816"><ele>742.0</ele><time>2026-04-23T09:21:29.713Z</time></trkpt><trkpt lat="44.7276375" lon="9.2979912"><ele>742.0</ele><time>2026-04-23T09:21:30.712Z</time></trkpt><trkpt lat="44.7276545" lon="9.2980977"><ele>742.0</ele><time>2026-04-23T09:21:31.715Z</time></trkpt><trkpt lat="44.7276737" lon="9.2981967"><ele>742.0</ele><time>2026-04-23T09:21:32.713Z</time></trkpt><trkpt lat="44.7276927" lon="9.298286"><ele>742.0</ele><time>2026-04-23T09:21:33.713Z</time></trkpt><trkpt lat="44.727718" lon="9.2983688"><ele>742.0</ele><time>2026-04-23T09:21:34.713Z</time></trkpt><trkpt lat="44.7277359" lon="9.29846"><ele>742.0</ele><time>2026-04-23T09:21:35.712Z</time></trkpt><trkpt lat="44.7277528" lon="9.2985547"><ele>743.0</ele><time>2026-04-23T09:21:36.713Z</time></trkpt><trkpt lat="44.7277535" lon="9.2986501"><ele>744.0</ele><time>2026-04-23T09:21:37.712Z</time></trkpt><trkpt lat="44.7277442" lon="9.298744"><ele>745.0</ele><time>2026-04-23T09:21:38.714Z</time></trkpt><trkpt lat="44.7277298" lon="9.2988333"><ele>746.0</ele><time>2026-04-23T09:21:39.712Z</time></trkpt><trkpt lat="44.7277132" lon="9.2989885"><ele>747.0</ele><time>2026-04-23T09:21:41.714Z</time></trkpt><trkpt lat="44.7277261" lon="9.2991381"><ele>748.0</ele><time>2026-04-23T09:21:43.712Z</time></trkpt><trkpt lat="44.7277805" lon="9.299295"><ele>750.1666666666667</ele><time>2026-04-23T09:21:45.712Z</time></trkpt><trkpt lat="44.7278332" lon="9.2993656"><ele>752.3333333333334</ele><time>2026-04-23T09:21:46.712Z</time></trkpt><trkpt lat="44.7279069" lon="9.2994335"><ele>754.5</ele><time>2026-04-23T09:21:47.712Z</time></trkpt><trkpt lat="44.7279859" lon="9.2994983"><ele>756.6666666666666</ele><time>2026-04-23T09:21:48.713Z</time></trkpt><trkpt lat="44.7280623" lon="9.2995636"><ele>758.8333333333333</ele><time>2026-04-23T09:21:49.713Z</time></trkpt><trkpt lat="44.7281297" lon="9.2996216"><ele>761.0</ele><time>2026-04-23T09:21:50.715Z</time></trkpt><trkpt lat="44.7281891" lon="9.2996846"><ele>763.6666666666666</ele><time>2026-04-23T09:21:51.714Z</time></trkpt><trkpt lat="44.7282368" lon="9.2997639"><ele>766.3333333333333</ele><time>2026-04-23T09:21:52.713Z</time></trkpt><trkpt lat="44.7282726" lon="9.2998581"><ele>769.0</ele><time>2026-04-23T09:21:53.712Z</time></trkpt><trkpt lat="44.7282976" lon="9.2999683"><ele>771.6666666666666</ele><time>2026-04-23T09:21:54.713Z</time></trkpt><trkpt lat="44.728312" lon="9.3000835"><ele>774.3333333333334</ele><time>2026-04-23T09:21:55.713Z</time></trkpt><trkpt lat="44.7283239" lon="9.3001977"><ele>777.0</ele><time>2026-04-23T09:21:56.713Z</time></trkpt><trkpt lat="44.7283403" lon="9.3002968"><ele>777.0</ele><time>2026-04-23T09:21:57.712Z</time></trkpt><trkpt lat="44.7283768" lon="9.3004063"><ele>777.0</ele><time>2026-04-23T09:21:59.714Z</time></trkpt><trkpt lat="44.7284242" lon="9.3005007"><ele>777.0</ele><time>2026-04-23T09:22:01.714Z</time></trkpt><trkpt lat="44.7285038" lon="9.3005893"><ele>777.0</ele><time>2026-04-23T09:22:03.713Z</time></trkpt><trkpt lat="44.7285599" lon="9.3006393"><ele>777.0</ele><time>2026-04-23T09:22:04.712Z</time></trkpt><trkpt lat="44.7286156" lon="9.3007004"><ele>777.0</ele><time>2026-04-23T09:22:05.712Z</time></trkpt><trkpt lat="44.7286628" lon="9.3007616"><ele>780.8</ele><time>2026-04-23T09:22:06.714Z</time></trkpt><trkpt lat="44.7287366" lon="9.3008651"><ele>784.6</ele><time>2026-04-23T09:22:08.712Z</time></trkpt><trkpt lat="44.7288217" lon="9.3009747"><ele>788.4</ele><time>2026-04-23T09:22:10.713Z</time></trkpt><trkpt lat="44.7289107" lon="9.3010777"><ele>792.1999999999999</ele><time>2026-04-23T09:22:12.713Z</time></trkpt><trkpt lat="44.7290138" lon="9.3011163"><ele>796.0</ele><time>2026-04-23T09:22:14.712Z</time></trkpt><trkpt lat="44.7291267" lon="9.3010726"><ele>796.0</ele><time>2026-04-23T09:22:16.713Z</time></trkpt><trkpt lat="44.7292371" lon="9.3010377"><ele>796.0</ele><time>2026-04-23T09:22:18.714Z</time></trkpt><trkpt lat="44.7293442" lon="9.3010303"><ele>796.0</ele><time>2026-04-23T09:22:20.713Z</time></trkpt><trkpt lat="44.7294432" lon="9.3010068"><ele>796.0</ele><time>2026-04-23T09:22:22.713Z</time></trkpt><trkpt lat="44.7295349" lon="9.3010041"><ele>796.0</ele><time>2026-04-23T09:22:24.712Z</time></trkpt><trkpt lat="44.7296407" lon="9.3009899"><ele>796.9999999999999</ele><time>2026-04-23T09:22:26.713Z</time></trkpt><trkpt lat="44.7297551" lon="9.3009739"><ele>798.0</ele><time>2026-04-23T09:22:28.713Z</time></trkpt><trkpt lat="44.7298224" lon="9.3009683"><ele>799.0</ele><time>2026-04-23T09:22:29.714Z</time></trkpt><trkpt lat="44.7299009" lon="9.3009685"><ele>800.0</ele><time>2026-04-23T09:22:30.712Z</time></trkpt><trkpt lat="44.7299847" lon="9.3009687"><ele>800.9999999999999</ele><time>2026-04-23T09:22:31.714Z</time></trkpt><trkpt lat="44.7300677" lon="9.3009579"><ele>802.0</ele><time>2026-04-23T09:22:32.713Z</time></trkpt><trkpt lat="44.7301423" lon="9.3009345"><ele>801.9999999999999</ele><time>2026-04-23T09:22:33.713Z</time></trkpt><trkpt lat="44.7302093" lon="9.3009012"><ele>802.0</ele><time>2026-04-23T09:22:34.712Z</time></trkpt><trkpt lat="44.7302726" lon="9.300872"><ele>802.0</ele><time>2026-04-23T09:22:35.713Z</time></trkpt><trkpt lat="44.7303921" lon="9.3008492"><ele>802.0</ele><time>2026-04-23T09:22:37.713Z</time></trkpt><trkpt lat="44.7305088" lon="9.3009036"><ele>801.9999999999999</ele><time>2026-04-23T09:22:39.715Z</time></trkpt><trkpt lat="44.7305632" lon="9.3009491"><ele>802.0</ele><time>2026-04-23T09:22:40.713Z</time></trkpt><trkpt lat="44.7306409" lon="9.3010794"><ele>802.8</ele><time>2026-04-23T09:22:42.712Z</time></trkpt><trkpt lat="44.7306416" lon="9.3012651"><ele>803.6</ele><time>2026-04-23T09:22:44.713Z</time></trkpt><trkpt lat="44.7306124" lon="9.3013656"><ele>804.4</ele><time>2026-04-23T09:22:45.712Z</time></trkpt><trkpt lat="44.7305862" lon="9.3014556"><ele>805.1999999999999</ele><time>2026-04-23T09:22:46.714Z</time></trkpt><trkpt lat="44.7305468" lon="9.3015952"><ele>806.0</ele><time>2026-04-23T09:22:48.713Z</time></trkpt><trkpt lat="44.7305348" lon="9.3017074"><ele>806.0000000000001</ele><time>2026-04-23T09:22:50.715Z</time></trkpt><trkpt lat="44.730567" lon="9.3018577"><ele>806.0</ele><time>2026-04-23T09:22:52.714Z</time></trkpt><trkpt lat="44.7305998" lon="9.3019653"><ele>806.0</ele><time>2026-04-23T09:22:53.714Z</time></trkpt><trkpt lat="44.7306306" lon="9.3020568"><ele>806.0</ele><time>2026-04-23T09:22:54.712Z</time></trkpt><trkpt lat="44.7306602" lon="9.3021437"><ele>806.0000000000001</ele><time>2026-04-23T09:22:55.713Z</time></trkpt><trkpt lat="44.730704" lon="9.3022787"><ele>806.0</ele><time>2026-04-23T09:22:57.712Z</time></trkpt><trkpt lat="44.7307549" lon="9.3023778"><ele>805.5999999999999</ele><time>2026-04-23T09:22:59.714Z</time></trkpt><trkpt lat="44.7308156" lon="9.3024659"><ele>805.2</ele><time>2026-04-23T09:23:01.712Z</time></trkpt><trkpt lat="44.7309003" lon="9.3025293"><ele>804.8</ele><time>2026-04-23T09:23:03.712Z</time></trkpt><trkpt lat="44.7310043" lon="9.3025756"><ele>804.4000000000001</ele><time>2026-04-23T09:23:05.712Z</time></trkpt><trkpt lat="44.7310879" lon="9.302623"><ele>804.0</ele><time>2026-04-23T09:23:07.713Z</time></trkpt><trkpt lat="44.7311999" lon="9.3026931"><ele>804.0</ele><time>2026-04-23T09:23:09.712Z</time></trkpt><trkpt lat="44.7312611" lon="9.3027454"><ele>804.0</ele><time>2026-04-23T09:23:10.713Z</time></trkpt><trkpt lat="44.7313557" lon="9.3028546"><ele>804.0</ele><time>2026-04-23T09:23:12.713Z</time></trkpt><trkpt lat="44.7314347" lon="9.3029565"><ele>804.0</ele><time>2026-04-23T09:23:14.716Z</time></trkpt><trkpt lat="44.7315194" lon="9.3030032"><ele>804.0</ele><time>2026-04-23T09:23:16.712Z</time></trkpt><trkpt lat="44.7316163" lon="9.3030849"><ele>804.8333333333334</ele><time>2026-04-23T09:23:18.712Z</time></trkpt><trkpt lat="44.7316608" lon="9.3031529"><ele>805.6666666666667</ele><time>2026-04-23T09:23:19.713Z</time></trkpt><trkpt lat="44.7317155" lon="9.3032624"><ele>806.5</ele><time>2026-04-23T09:23:21.713Z</time></trkpt><trkpt lat="44.7318029" lon="9.3032831"><ele>807.3333333333334</ele><time>2026-04-23T09:23:24.713Z</time></trkpt><trkpt lat="44.7318826" lon="9.3033266"><ele>808.1666666666667</ele><time>2026-04-23T09:23:27.712Z</time></trkpt><trkpt lat="44.7319142" lon="9.303421"><ele>809.0</ele><time>2026-04-23T09:23:29.714Z</time></trkpt><trkpt lat="44.731965" lon="9.30351"><ele>809.0000000000001</ele><time>2026-04-23T09:23:31.713Z</time></trkpt><trkpt lat="44.7320433" lon="9.3035733"><ele>809.0</ele><time>2026-04-23T09:23:33.712Z</time></trkpt><trkpt lat="44.7321267" lon="9.3035783"><ele>809.0</ele><time>2026-04-23T09:23:35.713Z</time></trkpt><trkpt lat="44.732195" lon="9.30358"><ele>809.0</ele><time>2026-04-23T09:23:38.714Z</time></trkpt><trkpt lat="44.73225" lon="9.3036433"><ele>809.0000000000001</ele><time>2026-04-23T09:23:44.714Z</time></trkpt><trkpt lat="44.7323233" lon="9.303665"><ele>809.0</ele><time>2026-04-23T09:23:48.712Z</time></trkpt><trkpt lat="44.73239" lon="9.3036683"><ele>809.0000000000001</ele><time>2026-04-23T09:23:50.713Z</time></trkpt><trkpt lat="44.7324567" lon="9.3036883"><ele>809.0</ele><time>2026-04-23T09:24:47.713Z</time></trkpt><trkpt lat="44.7323533" lon="9.3037267"><ele>809.0</ele><time>2026-04-23T09:25:11.712Z</time></trkpt><trkpt lat="44.7322917" lon="9.3036917"><ele>809.0</ele><time>2026-04-23T09:25:19.713Z</time></trkpt><trkpt lat="44.73222" lon="9.3036633"><ele>809.0000000000001</ele><time>2026-04-23T09:25:21.713Z</time></trkpt><trkpt lat="44.7321367" lon="9.3036383"><ele>809.0</ele><time>2026-04-23T09:25:23.713Z</time></trkpt><trkpt lat="44.7320467" lon="9.303575"><ele>809.0</ele><time>2026-04-23T09:25:25.713Z</time></trkpt><trkpt lat="44.7319617" lon="9.30348"><ele>809.0</ele><time>2026-04-23T09:25:27.713Z</time></trkpt><trkpt lat="44.7319033" lon="9.303355"><ele>809.0</ele><time>2026-04-23T09:25:29.714Z</time></trkpt><trkpt lat="44.7318283" lon="9.3032933"><ele>809.0</ele><time>2026-04-23T09:25:31.713Z</time></trkpt><trkpt lat="44.731755" lon="9.3032933"><ele>809.0</ele><time>2026-04-23T09:25:33.713Z</time></trkpt><trkpt lat="44.7317017" lon="9.3031983"><ele>808.0</ele><time>2026-04-23T09:25:35.713Z</time></trkpt><trkpt lat="44.7316383" lon="9.3031"><ele>807.0</ele><time>2026-04-23T09:25:37.715Z</time></trkpt><trkpt lat="44.7315383" lon="9.303045"><ele>806.0</ele><time>2026-04-23T09:25:39.713Z</time></trkpt><trkpt lat="44.7314567" lon="9.3030033"><ele>805.0</ele><time>2026-04-23T09:25:41.713Z</time></trkpt><trkpt lat="44.7313967" lon="9.302945"><ele>804.0</ele><time>2026-04-23T09:25:43.713Z</time></trkpt><trkpt lat="44.73131" lon="9.3028533"><ele>804.0</ele><time>2026-04-23T09:25:45.713Z</time></trkpt><trkpt lat="44.7312233" lon="9.3027733"><ele>804.0</ele><time>2026-04-23T09:25:47.712Z</time></trkpt><trkpt lat="44.731135" lon="9.3026933"><ele>804.0</ele><time>2026-04-23T09:25:49.712Z</time></trkpt><trkpt lat="44.7310467" lon="9.30264"><ele>804.0</ele><time>2026-04-23T09:25:51.712Z</time></trkpt><trkpt lat="44.7309483" lon="9.3026"><ele>804.0</ele><time>2026-04-23T09:25:53.713Z</time></trkpt><trkpt lat="44.7308917" lon="9.30256"><ele>804.4000000000001</ele><time>2026-04-23T09:25:54.713Z</time></trkpt><trkpt lat="44.7308383" lon="9.3025083"><ele>804.8</ele><time>2026-04-23T09:25:55.714Z</time></trkpt><trkpt lat="44.7307683" lon="9.3024233"><ele>805.2</ele><time>2026-04-23T09:25:57.713Z</time></trkpt><trkpt lat="44.7307183" lon="9.30232"><ele>805.5999999999999</ele><time>2026-04-23T09:25:59.714Z</time></trkpt><trkpt lat="44.730655" lon="9.3021817"><ele>806.0</ele><time>2026-04-23T09:26:01.713Z</time></trkpt><trkpt lat="44.7306033" lon="9.3020333"><ele>806.0</ele><time>2026-04-23T09:26:03.713Z</time></trkpt><trkpt lat="44.7305383" lon="9.3018933"><ele>806.0</ele><time>2026-04-23T09:26:05.714Z</time></trkpt><trkpt lat="44.73051" lon="9.301785"><ele>806.0</ele><time>2026-04-23T09:26:07.713Z</time></trkpt><trkpt lat="44.73051" lon="9.3016617"><ele>806.0</ele><time>2026-04-23T09:26:09.713Z</time></trkpt><trkpt lat="44.7305367" lon="9.30151"><ele>806.0</ele><time>2026-04-23T09:26:11.713Z</time></trkpt><trkpt lat="44.730575" lon="9.3013483"><ele>804.1999999999999</ele><time>2026-04-23T09:26:13.714Z</time></trkpt><trkpt lat="44.7305983" lon="9.3012017"><ele>802.4</ele><time>2026-04-23T09:26:15.713Z</time></trkpt><trkpt lat="44.7305867" lon="9.3010683"><ele>800.6</ele><time>2026-04-23T09:26:17.713Z</time></trkpt><trkpt lat="44.7305" lon="9.3009817"><ele>798.8</ele><time>2026-04-23T09:26:19.714Z</time></trkpt><trkpt lat="44.7304267" lon="9.3009717"><ele>797.0</ele><time>2026-04-23T09:26:20.714Z</time></trkpt><trkpt lat="44.7303167" lon="9.3009867"><ele>798.0</ele><time>2026-04-23T09:26:22.713Z</time></trkpt><trkpt lat="44.7301933" lon="9.3010383"><ele>799.0</ele><time>2026-04-23T09:26:24.713Z</time></trkpt><trkpt lat="44.730115" lon="9.30106"><ele>800.0</ele><time>2026-04-23T09:26:25.713Z</time></trkpt><trkpt lat="44.7300367" lon="9.3010633"><ele>801.0</ele><time>2026-04-23T09:26:26.714Z</time></trkpt><trkpt lat="44.72995" lon="9.3010617"><ele>802.0</ele><time>2026-04-23T09:26:27.712Z</time></trkpt><trkpt lat="44.7298683" lon="9.3010633"><ele>801.9999999999999</ele><time>2026-04-23T09:26:28.712Z</time></trkpt><trkpt lat="44.7297867" lon="9.3010717"><ele>802.0</ele><time>2026-04-23T09:26:29.713Z</time></trkpt><trkpt lat="44.7297117" lon="9.301075"><ele>802.0</ele><time>2026-04-23T09:26:30.713Z</time></trkpt><trkpt lat="44.7296367" lon="9.3010667"><ele>802.0</ele><time>2026-04-23T09:26:31.712Z</time></trkpt><trkpt lat="44.7295667" lon="9.3010567"><ele>801.9999999999999</ele><time>2026-04-23T09:26:32.713Z</time></trkpt><trkpt lat="44.7294933" lon="9.3010467"><ele>802.0</ele><time>2026-04-23T09:26:33.713Z</time></trkpt><trkpt lat="44.7293983" lon="9.30104"><ele>800.8</ele><time>2026-04-23T09:26:35.713Z</time></trkpt><trkpt lat="44.7293217" lon="9.3010933"><ele>799.6</ele><time>2026-04-23T09:26:38.713Z</time></trkpt><trkpt lat="44.729245" lon="9.3012"><ele>798.4</ele><time>2026-04-23T09:26:40.713Z</time></trkpt><trkpt lat="44.7291883" lon="9.3012533"><ele>797.1999999999999</ele><time>2026-04-23T09:26:41.713Z</time></trkpt><trkpt lat="44.7290783" lon="9.3013233"><ele>796.0</ele><time>2026-04-23T09:26:43.714Z</time></trkpt><trkpt lat="44.7289683" lon="9.30138"><ele>798.6666666666666</ele><time>2026-04-23T09:26:45.714Z</time></trkpt><trkpt lat="44.7289667" lon="9.3014833"><ele>801.3333333333333</ele><time>2026-04-23T09:26:47.713Z</time></trkpt><trkpt lat="44.7290833" lon="9.30155"><ele>804.0</ele><time>2026-04-23T09:26:49.712Z</time></trkpt><trkpt lat="44.7291583" lon="9.3015583"><ele>806.6666666666667</ele><time>2026-04-23T09:26:50.715Z</time></trkpt><trkpt lat="44.7292333" lon="9.3015617"><ele>809.3333333333334</ele><time>2026-04-23T09:26:51.714Z</time></trkpt><trkpt lat="44.7293117" lon="9.301575"><ele>812.0</ele><time>2026-04-23T09:26:52.713Z</time></trkpt><trkpt lat="44.7294" lon="9.301605"><ele>813.2</ele><time>2026-04-23T09:26:53.713Z</time></trkpt><trkpt lat="44.7294967" lon="9.3016417"><ele>814.4000000000001</ele><time>2026-04-23T09:26:54.714Z</time></trkpt><trkpt lat="44.7295967" lon="9.3016717"><ele>815.5999999999999</ele><time>2026-04-23T09:26:55.714Z</time></trkpt><trkpt lat="44.7296967" lon="9.3016933"><ele>816.8</ele><time>2026-04-23T09:26:56.714Z</time></trkpt><trkpt lat="44.7297967" lon="9.301735"><ele>818.0</ele><time>2026-04-23T09:26:57.713Z</time></trkpt><trkpt lat="44.7299017" lon="9.3018017"><ele>818.0</ele><time>2026-04-23T09:26:58.714Z</time></trkpt><trkpt lat="44.7299983" lon="9.30188"><ele>818.0</ele><time>2026-04-23T09:26:59.714Z</time></trkpt><trkpt lat="44.7300783" lon="9.3019683"><ele>818.0</ele><time>2026-04-23T09:27:00.714Z</time></trkpt><trkpt lat="44.73015" lon="9.3020717"><ele>818.0</ele><time>2026-04-23T09:27:01.714Z</time></trkpt><trkpt lat="44.7302267" lon="9.30219"><ele>818.0</ele><time>2026-04-23T09:27:02.714Z</time></trkpt><trkpt lat="44.7303017" lon="9.30231"><ele>817.8</ele><time>2026-04-23T09:27:03.714Z</time></trkpt><trkpt lat="44.7303617" lon="9.3024133"><ele>817.5999999999999</ele><time>2026-04-23T09:27:04.714Z</time></trkpt><trkpt lat="44.7304" lon="9.3025167"><ele>817.4000000000001</ele><time>2026-04-23T09:27:05.713Z</time></trkpt><trkpt lat="44.730415" lon="9.3026333"><ele>817.2</ele><time>2026-04-23T09:27:06.713Z</time></trkpt><trkpt lat="44.7304067" lon="9.3027683"><ele>817.0</ele><time>2026-04-23T09:27:07.713Z</time></trkpt><trkpt lat="44.7303683" lon="9.3029117"><ele>817.0</ele><time>2026-04-23T09:27:08.713Z</time></trkpt><trkpt lat="44.73032" lon="9.30305"><ele>817.0</ele><time>2026-04-23T09:27:09.713Z</time></trkpt><trkpt lat="44.7302733" lon="9.3031783"><ele>817.0</ele><time>2026-04-23T09:27:10.714Z</time></trkpt><trkpt lat="44.7302183" lon="9.3032967"><ele>817.0</ele><time>2026-04-23T09:27:11.713Z</time></trkpt><trkpt lat="44.7301483" lon="9.3034"><ele>817.0</ele><time>2026-04-23T09:27:12.714Z</time></trkpt><trkpt lat="44.73007" lon="9.3034867"><ele>821.4000000000001</ele><time>2026-04-23T09:27:13.714Z</time></trkpt><trkpt lat="44.729995" lon="9.30356"><ele>825.8000000000001</ele><time>2026-04-23T09:27:14.715Z</time></trkpt><trkpt lat="44.7299167" lon="9.3036333"><ele>830.2</ele><time>2026-04-23T09:27:15.715Z</time></trkpt><trkpt lat="44.729835" lon="9.303715"><ele>834.6</ele><time>2026-04-23T09:27:16.715Z</time></trkpt><trkpt lat="44.7297583" lon="9.3038067"><ele>839.0</ele><time>2026-04-23T09:27:17.714Z</time></trkpt><trkpt lat="44.729705" lon="9.3039033"><ele>839.8333333333334</ele><time>2026-04-23T09:27:18.715Z</time></trkpt><trkpt lat="44.7296683" lon="9.3040083"><ele>840.6666666666667</ele><time>2026-04-23T09:27:19.715Z</time></trkpt><trkpt lat="44.7296333" lon="9.304125"><ele>841.5</ele><time>2026-04-23T09:27:20.715Z</time></trkpt><trkpt lat="44.7295867" lon="9.3042433"><ele>842.3333333333333</ele><time>2026-04-23T09:27:21.714Z</time></trkpt><trkpt lat="44.7295283" lon="9.3043383"><ele>843.1666666666666</ele><time>2026-04-23T09:27:22.715Z</time></trkpt><trkpt lat="44.7294583" lon="9.30441"><ele>844.0</ele><time>2026-04-23T09:27:23.714Z</time></trkpt><trkpt lat="44.7293683" lon="9.3044683"><ele>844.0</ele><time>2026-04-23T09:27:24.716Z</time></trkpt><trkpt lat="44.7292767" lon="9.3045217"><ele>844.0</ele><time>2026-04-23T09:27:25.715Z</time></trkpt><trkpt lat="44.7291983" lon="9.3045817"><ele>844.0</ele><time>2026-04-23T09:27:26.716Z</time></trkpt><trkpt lat="44.72914" lon="9.3046517"><ele>844.0</ele><time>2026-04-23T09:27:27.714Z</time></trkpt><trkpt lat="44.729095" lon="9.3047567"><ele>844.0</ele><time>2026-04-23T09:27:28.714Z</time></trkpt><trkpt lat="44.7290583" lon="9.304885"><ele>846.4999999999999</ele><time>2026-04-23T09:27:29.714Z</time></trkpt><trkpt lat="44.72903" lon="9.3050283"><ele>849.0</ele><time>2026-04-23T09:27:30.713Z</time></trkpt><trkpt lat="44.7290067" lon="9.3051683"><ele>851.5</ele><time>2026-04-23T09:27:31.712Z</time></trkpt><trkpt lat="44.7289817" lon="9.30529"><ele>854.0</ele><time>2026-04-23T09:27:32.714Z</time></trkpt><trkpt lat="44.7289483" lon="9.3053917"><ele>856.4999999999999</ele><time>2026-04-23T09:27:33.712Z</time></trkpt><trkpt lat="44.728905" lon="9.3054683"><ele>859.0</ele><time>2026-04-23T09:27:34.713Z</time></trkpt><trkpt lat="44.7288433" lon="9.3055167"><ele>858.9999999999999</ele><time>2026-04-23T09:27:35.713Z</time></trkpt><trkpt lat="44.7287783" lon="9.3055533"><ele>859.0</ele><time>2026-04-23T09:27:36.713Z</time></trkpt><trkpt lat="44.7287083" lon="9.3056167"><ele>859.0</ele><time>2026-04-23T09:27:37.718Z</time></trkpt><trkpt lat="44.728655" lon="9.3057117"><ele>859.0</ele><time>2026-04-23T09:27:38.714Z</time></trkpt><trkpt lat="44.7286033" lon="9.3058167"><ele>858.9999999999999</ele><time>2026-04-23T09:27:39.713Z</time></trkpt><trkpt lat="44.72856" lon="9.3059183"><ele>859.0</ele><time>2026-04-23T09:27:40.714Z</time></trkpt><trkpt lat="44.7285167" lon="9.3059917"><ele>860.4000000000001</ele><time>2026-04-23T09:27:41.714Z</time></trkpt><trkpt lat="44.7284183" lon="9.305975"><ele>861.8000000000001</ele><time>2026-04-23T09:27:43.714Z</time></trkpt><trkpt lat="44.72837" lon="9.3059117"><ele>863.1999999999999</ele><time>2026-04-23T09:27:44.713Z</time></trkpt><trkpt lat="44.7283083" lon="9.305815"><ele>864.5999999999999</ele><time>2026-04-23T09:27:45.713Z</time></trkpt><trkpt lat="44.7282517" lon="9.3057383"><ele>866.0</ele><time>2026-04-23T09:27:46.713Z</time></trkpt><trkpt lat="44.728135" lon="9.3056917"><ele>866.0000000000001</ele><time>2026-04-23T09:27:48.713Z</time></trkpt><trkpt lat="44.7280667" lon="9.3057083"><ele>866.0</ele><time>2026-04-23T09:27:49.713Z</time></trkpt><trkpt lat="44.7279983" lon="9.30575"><ele>866.0</ele><time>2026-04-23T09:27:50.713Z</time></trkpt><trkpt lat="44.7279367" lon="9.3058267"><ele>866.0</ele><time>2026-04-23T09:27:51.713Z</time></trkpt><trkpt lat="44.7278783" lon="9.3059567"><ele>866.0000000000001</ele><time>2026-04-23T09:27:52.713Z</time></trkpt><trkpt lat="44.7278283" lon="9.3060867"><ele>866.0</ele><time>2026-04-23T09:27:53.714Z</time></trkpt><trkpt lat="44.7277783" lon="9.306215"><ele>865.8</ele><time>2026-04-23T09:27:54.714Z</time></trkpt><trkpt lat="44.727725" lon="9.3063417"><ele>865.5999999999999</ele><time>2026-04-23T09:27:55.714Z</time></trkpt><trkpt lat="44.7276683" lon="9.3064583"><ele>865.4</ele><time>2026-04-23T09:27:56.714Z</time></trkpt><trkpt lat="44.7276067" lon="9.3065583"><ele>865.2</ele><time>2026-04-23T09:27:57.713Z</time></trkpt><trkpt lat="44.7275433" lon="9.3066417"><ele>865.0</ele><time>2026-04-23T09:27:58.713Z</time></trkpt><trkpt lat="44.7274867" lon="9.306715"><ele>865.6666666666666</ele><time>2026-04-23T09:27:59.714Z</time></trkpt><trkpt lat="44.7274483" lon="9.3067967"><ele>866.3333333333333</ele><time>2026-04-23T09:28:00.713Z</time></trkpt><trkpt lat="44.7274233" lon="9.306955"><ele>867.0</ele><time>2026-04-23T09:28:02.714Z</time></trkpt><trkpt lat="44.72748" lon="9.30711"><ele>867.6666666666667</ele><time>2026-04-23T09:28:04.714Z</time></trkpt><trkpt lat="44.7275133" lon="9.3071883"><ele>868.3333333333334</ele><time>2026-04-23T09:28:05.713Z</time></trkpt><trkpt lat="44.727535" lon="9.307285"><ele>869.0</ele><time>2026-04-23T09:28:06.713Z</time></trkpt><trkpt lat="44.7275533" lon="9.3073883"><ele>870.5714285714286</ele><time>2026-04-23T09:28:07.714Z</time></trkpt><trkpt lat="44.7275883" lon="9.3074783"><ele>872.1428571428571</ele><time>2026-04-23T09:28:08.713Z</time></trkpt><trkpt lat="44.72764" lon="9.307555"><ele>873.7142857142857</ele><time>2026-04-23T09:28:09.713Z</time></trkpt><trkpt lat="44.7276917" lon="9.3076133"><ele>875.2857142857142</ele><time>2026-04-23T09:28:10.713Z</time></trkpt><trkpt lat="44.727745" lon="9.3076667"><ele>876.8571428571429</ele><time>2026-04-23T09:28:11.713Z</time></trkpt><trkpt lat="44.7277983" lon="9.30772"><ele>878.4285714285713</ele><time>2026-04-23T09:28:12.713Z</time></trkpt><trkpt lat="44.72786" lon="9.3077617"><ele>880.0</ele><time>2026-04-23T09:28:13.714Z</time></trkpt><trkpt lat="44.7279267" lon="9.307785"><ele>880.9999999999999</ele><time>2026-04-23T09:28:14.714Z</time></trkpt><trkpt lat="44.7279967" lon="9.3077917"><ele>882.0</ele><time>2026-04-23T09:28:15.713Z</time></trkpt><trkpt lat="44.7280633" lon="9.30778"><ele>883.0</ele><time>2026-04-23T09:28:16.713Z</time></trkpt><trkpt lat="44.728175" lon="9.30782"><ele>884.0</ele><time>2026-04-23T09:28:18.712Z</time></trkpt><trkpt lat="44.7282133" lon="9.3078917"><ele>884.9999999999999</ele><time>2026-04-23T09:28:19.714Z</time></trkpt><trkpt lat="44.728245" lon="9.3079917"><ele>886.0</ele><time>2026-04-23T09:28:20.714Z</time></trkpt><trkpt lat="44.7282733" lon="9.3081117"><ele>887.4999999999999</ele><time>2026-04-23T09:28:21.713Z</time></trkpt><trkpt lat="44.7283" lon="9.3082333"><ele>889.0</ele><time>2026-04-23T09:28:22.714Z</time></trkpt><trkpt lat="44.728325" lon="9.3083517"><ele>890.5</ele><time>2026-04-23T09:28:23.713Z</time></trkpt><trkpt lat="44.7283517" lon="9.3084733"><ele>892.0</ele><time>2026-04-23T09:28:24.714Z</time></trkpt><trkpt lat="44.728375" lon="9.3085967"><ele>893.4999999999999</ele><time>2026-04-23T09:28:25.713Z</time></trkpt><trkpt lat="44.7283983" lon="9.3087183"><ele>895.0</ele><time>2026-04-23T09:28:26.714Z</time></trkpt><trkpt lat="44.72842" lon="9.30883"><ele>896.1666666666666</ele><time>2026-04-23T09:28:27.713Z</time></trkpt><trkpt lat="44.728435" lon="9.3089317"><ele>897.3333333333333</ele><time>2026-04-23T09:28:28.713Z</time></trkpt><trkpt lat="44.7284683" lon="9.3090733"><ele>898.5</ele><time>2026-04-23T09:28:30.713Z</time></trkpt><trkpt lat="44.7284883" lon="9.3091717"><ele>899.6666666666667</ele><time>2026-04-23T09:28:32.713Z</time></trkpt><trkpt lat="44.72858" lon="9.309265"><ele>900.8333333333334</ele><time>2026-04-23T09:28:34.713Z</time></trkpt><trkpt lat="44.728645" lon="9.3093067"><ele>902.0</ele><time>2026-04-23T09:28:35.714Z</time></trkpt><trkpt lat="44.7287133" lon="9.3093483"><ele>902.2</ele><time>2026-04-23T09:28:36.712Z</time></trkpt><trkpt lat="44.7287967" lon="9.3093917"><ele>902.4000000000001</ele><time>2026-04-23T09:28:37.713Z</time></trkpt><trkpt lat="44.7288867" lon="9.309435"><ele>902.5999999999999</ele><time>2026-04-23T09:28:38.713Z</time></trkpt><trkpt lat="44.7289783" lon="9.3094733"><ele>902.8</ele><time>2026-04-23T09:28:39.713Z</time></trkpt><trkpt lat="44.7290733" lon="9.3095117"><ele>903.0</ele><time>2026-04-23T09:28:40.713Z</time></trkpt><trkpt lat="44.7291733" lon="9.30957"><ele>903.0</ele><time>2026-04-23T09:28:41.715Z</time></trkpt><trkpt lat="44.729275" lon="9.3096483"><ele>903.0</ele><time>2026-04-23T09:28:42.713Z</time></trkpt><trkpt lat="44.72937" lon="9.30974"><ele>903.0</ele><time>2026-04-23T09:28:43.713Z</time></trkpt><trkpt lat="44.7294667" lon="9.3098267"><ele>903.0</ele><time>2026-04-23T09:28:44.714Z</time></trkpt><trkpt lat="44.7295683" lon="9.309905"><ele>904.5</ele><time>2026-04-23T09:28:45.714Z</time></trkpt><trkpt lat="44.7296767" lon="9.3099767"><ele>906.0</ele><time>2026-04-23T09:28:46.713Z</time></trkpt><trkpt lat="44.7297867" lon="9.3100317"><ele>907.5</ele><time>2026-04-23T09:28:47.715Z</time></trkpt><trkpt lat="44.7299017" lon="9.3100767"><ele>909.0</ele><time>2026-04-23T09:28:48.713Z</time></trkpt><trkpt lat="44.73002" lon="9.310115"><ele>909.0</ele><time>2026-04-23T09:28:49.713Z</time></trkpt><trkpt lat="44.73014" lon="9.3101467"><ele>909.0</ele><time>2026-04-23T09:28:50.714Z</time></trkpt><trkpt lat="44.7302583" lon="9.3101733"><ele>909.0</ele><time>2026-04-23T09:28:51.713Z</time></trkpt><trkpt lat="44.7303783" lon="9.3101933"><ele>909.0</ele><time>2026-04-23T09:28:52.714Z</time></trkpt><trkpt lat="44.7305" lon="9.3102183"><ele>910.25</ele><time>2026-04-23T09:28:53.714Z</time></trkpt><trkpt lat="44.7306217" lon="9.31024"><ele>911.5</ele><time>2026-04-23T09:28:54.713Z</time></trkpt><trkpt lat="44.730745" lon="9.3102617"><ele>912.75</ele><time>2026-04-23T09:28:55.714Z</time></trkpt><trkpt lat="44.7308683" lon="9.310285"><ele>914.0</ele><time>2026-04-23T09:28:56.714Z</time></trkpt><trkpt lat="44.730995" lon="9.3103117"><ele>913.25</ele><time>2026-04-23T09:28:57.716Z</time></trkpt><trkpt lat="44.7311183" lon="9.3103383"><ele>912.5</ele><time>2026-04-23T09:28:58.713Z</time></trkpt><trkpt lat="44.7312417" lon="9.3103633"><ele>911.75</ele><time>2026-04-23T09:28:59.714Z</time></trkpt><trkpt lat="44.7313633" lon="9.3103883"><ele>911.0</ele><time>2026-04-23T09:29:00.713Z</time></trkpt><trkpt lat="44.73148" lon="9.3104117"><ele>911.0</ele><time>2026-04-23T09:29:01.714Z</time></trkpt><trkpt lat="44.7315983" lon="9.3104367"><ele>911.0</ele><time>2026-04-23T09:29:02.715Z</time></trkpt><trkpt lat="44.7317117" lon="9.31046"><ele>911.0</ele><time>2026-04-23T09:29:03.713Z</time></trkpt><trkpt lat="44.73183" lon="9.3104767"><ele>911.0</ele><time>2026-04-23T09:29:04.714Z</time></trkpt><trkpt lat="44.7319483" lon="9.3104933"><ele>911.5</ele><time>2026-04-23T09:29:05.713Z</time></trkpt><trkpt lat="44.7320717" lon="9.31052"><ele>912.0</ele><time>2026-04-23T09:29:06.715Z</time></trkpt><trkpt lat="44.7321933" lon="9.3105417"><ele>912.5</ele><time>2026-04-23T09:29:07.712Z</time></trkpt><trkpt lat="44.7323133" lon="9.3105583"><ele>913.0</ele><time>2026-04-23T09:29:08.712Z</time></trkpt><trkpt lat="44.732435" lon="9.3105667"><ele>913.0</ele><time>2026-04-23T09:29:09.714Z</time></trkpt><trkpt lat="44.7325433" lon="9.3105533"><ele>913.0</ele><time>2026-04-23T09:29:10.716Z</time></trkpt><trkpt lat="44.73266" lon="9.3105183"><ele>913.0</ele><time>2026-04-23T09:29:11.713Z</time></trkpt><trkpt lat="44.7327767" lon="9.31048"><ele>913.0</ele><time>2026-04-23T09:29:12.713Z</time></trkpt><trkpt lat="44.73289" lon="9.31044"><ele>913.0</ele><time>2026-04-23T09:29:13.713Z</time></trkpt><trkpt lat="44.7330083" lon="9.3103917"><ele>913.0</ele><time>2026-04-23T09:29:14.713Z</time></trkpt><trkpt lat="44.73313" lon="9.3103417"><ele>913.0</ele><time>2026-04-23T09:29:15.713Z</time></trkpt><trkpt lat="44.7332517" lon="9.3102933"><ele>913.0</ele><time>2026-04-23T09:29:16.714Z</time></trkpt><trkpt lat="44.73337" lon="9.3102433"><ele>913.0</ele><time>2026-04-23T09:29:17.713Z</time></trkpt><trkpt lat="44.73349" lon="9.3101967"><ele>913.0</ele><time>2026-04-23T09:29:18.714Z</time></trkpt><trkpt lat="44.7336067" lon="9.31018"><ele>913.0</ele><time>2026-04-23T09:29:19.714Z</time></trkpt><trkpt lat="44.7337167" lon="9.3101983"><ele>913.0</ele><time>2026-04-23T09:29:20.713Z</time></trkpt><trkpt lat="44.7338017" lon="9.310255"><ele>913.0</ele><time>2026-04-23T09:29:21.713Z</time></trkpt><trkpt lat="44.733875" lon="9.31034"><ele>913.0</ele><time>2026-04-23T09:29:22.714Z</time></trkpt><trkpt lat="44.7339467" lon="9.310445"><ele>913.0</ele><time>2026-04-23T09:29:23.714Z</time></trkpt><trkpt lat="44.7340233" lon="9.3105467"><ele>913.0</ele><time>2026-04-23T09:29:24.714Z</time></trkpt><trkpt lat="44.734105" lon="9.310625"><ele>913.0</ele><time>2026-04-23T09:29:25.713Z</time></trkpt><trkpt lat="44.7341967" lon="9.310665"><ele>913.0</ele><time>2026-04-23T09:29:26.714Z</time></trkpt><trkpt lat="44.7342983" lon="9.3106633"><ele>914.75</ele><time>2026-04-23T09:29:27.713Z</time></trkpt><trkpt lat="44.7344083" lon="9.3106217"><ele>916.5</ele><time>2026-04-23T09:29:28.713Z</time></trkpt><trkpt lat="44.7345217" lon="9.310545"><ele>918.25</ele><time>2026-04-23T09:29:29.713Z</time></trkpt><trkpt lat="44.73463" lon="9.310455"><ele>920.0</ele><time>2026-04-23T09:29:30.713Z</time></trkpt><trkpt lat="44.7347133" lon="9.3103567"><ele>920.0</ele><time>2026-04-23T09:29:31.714Z</time></trkpt><trkpt lat="44.7347683" lon="9.3102367"><ele>920.0</ele><time>2026-04-23T09:29:32.714Z</time></trkpt><trkpt lat="44.7347983" lon="9.3100917"><ele>920.0</ele><time>2026-04-23T09:29:33.713Z</time></trkpt><trkpt lat="44.7347983" lon="9.3099317"><ele>920.0</ele><time>2026-04-23T09:29:34.713Z</time></trkpt><trkpt lat="44.73479" lon="9.3097633"><ele>920.0</ele><time>2026-04-23T09:29:35.713Z</time></trkpt><trkpt lat="44.734785" lon="9.3096083"><ele>920.2</ele><time>2026-04-23T09:29:36.712Z</time></trkpt><trkpt lat="44.7347967" lon="9.3094683"><ele>920.4</ele><time>2026-04-23T09:29:37.715Z</time></trkpt><trkpt lat="44.7348233" lon="9.309345"><ele>920.5999999999999</ele><time>2026-04-23T09:29:38.715Z</time></trkpt><trkpt lat="44.73487" lon="9.3092417"><ele>920.8</ele><time>2026-04-23T09:29:39.713Z</time></trkpt><trkpt lat="44.7349317" lon="9.3091533"><ele>921.0</ele><time>2026-04-23T09:29:40.714Z</time></trkpt><trkpt lat="44.7350083" lon="9.3090733"><ele>921.0</ele><time>2026-04-23T09:29:41.714Z</time></trkpt><trkpt lat="44.735095" lon="9.308995"><ele>921.0</ele><time>2026-04-23T09:29:42.714Z</time></trkpt><trkpt lat="44.7351933" lon="9.3089183"><ele>921.0</ele><time>2026-04-23T09:29:43.714Z</time></trkpt><trkpt lat="44.7352983" lon="9.3088333"><ele>921.0</ele><time>2026-04-23T09:29:44.715Z</time></trkpt><trkpt lat="44.7354033" lon="9.3087367"><ele>920.75</ele><time>2026-04-23T09:29:45.713Z</time></trkpt><trkpt lat="44.7355033" lon="9.3086333"><ele>920.5</ele><time>2026-04-23T09:29:46.714Z</time></trkpt><trkpt lat="44.7355783" lon="9.3085167"><ele>920.25</ele><time>2026-04-23T09:29:47.714Z</time></trkpt><trkpt lat="44.735635" lon="9.3083817"><ele>920.0</ele><time>2026-04-23T09:29:48.715Z</time></trkpt><trkpt lat="44.7356633" lon="9.3082317"><ele>919.5</ele><time>2026-04-23T09:29:49.713Z</time></trkpt><trkpt lat="44.735685" lon="9.3080667"><ele>919.0</ele><time>2026-04-23T09:29:50.716Z</time></trkpt><trkpt lat="44.735705" lon="9.3078967"><ele>918.5</ele><time>2026-04-23T09:29:51.712Z</time></trkpt><trkpt lat="44.7357317" lon="9.3077333"><ele>918.0</ele><time>2026-04-23T09:29:52.712Z</time></trkpt><trkpt lat="44.7357767" lon="9.3075933"><ele>918.0</ele><time>2026-04-23T09:29:53.713Z</time></trkpt><trkpt lat="44.7358317" lon="9.307465"><ele>918.0</ele><time>2026-04-23T09:29:54.713Z</time></trkpt><trkpt lat="44.7359133" lon="9.307355"><ele>918.0</ele><time>2026-04-23T09:29:55.712Z</time></trkpt><trkpt lat="44.7360133" lon="9.3072683"><ele>918.0</ele><time>2026-04-23T09:29:56.713Z</time></trkpt><trkpt lat="44.7361317" lon="9.3072067"><ele>917.25</ele><time>2026-04-23T09:29:57.712Z</time></trkpt><trkpt lat="44.7362517" lon="9.3071517"><ele>916.5</ele><time>2026-04-23T09:29:58.712Z</time></trkpt><trkpt lat="44.736375" lon="9.3071133"><ele>915.75</ele><time>2026-04-23T09:29:59.713Z</time></trkpt><trkpt lat="44.736495" lon="9.307075"><ele>915.0</ele><time>2026-04-23T09:30:00.713Z</time></trkpt><trkpt lat="44.7366117" lon="9.3070217"><ele>915.0</ele><time>2026-04-23T09:30:01.713Z</time></trkpt><trkpt lat="44.7367217" lon="9.3069717"><ele>915.0</ele><time>2026-04-23T09:30:02.713Z</time></trkpt><trkpt lat="44.7368267" lon="9.3069267"><ele>915.0</ele><time>2026-04-23T09:30:03.712Z</time></trkpt><trkpt lat="44.73693" lon="9.3068817"><ele>915.0</ele><time>2026-04-23T09:30:04.712Z</time></trkpt><trkpt lat="44.7370283" lon="9.3068367"><ele>915.0</ele><time>2026-04-23T09:30:05.712Z</time></trkpt><trkpt lat="44.737125" lon="9.3067983"><ele>916.4</ele><time>2026-04-23T09:30:06.712Z</time></trkpt><trkpt lat="44.737225" lon="9.3067817"><ele>917.8</ele><time>2026-04-23T09:30:07.715Z</time></trkpt><trkpt lat="44.7373267" lon="9.30677"><ele>919.2</ele><time>2026-04-23T09:30:08.713Z</time></trkpt><trkpt lat="44.7374333" lon="9.306765"><ele>920.6</ele><time>2026-04-23T09:30:09.712Z</time></trkpt><trkpt lat="44.7375417" lon="9.3067567"><ele>922.0</ele><time>2026-04-23T09:30:10.713Z</time></trkpt><trkpt lat="44.7376483" lon="9.3067367"><ele>923.8</ele><time>2026-04-23T09:30:11.714Z</time></trkpt><trkpt lat="44.7377517" lon="9.306705"><ele>925.6</ele><time>2026-04-23T09:30:12.714Z</time></trkpt><trkpt lat="44.7378417" lon="9.30665"><ele>927.3999999999999</ele><time>2026-04-23T09:30:13.712Z</time></trkpt><trkpt lat="44.7379183" lon="9.3065717"><ele>929.1999999999999</ele><time>2026-04-23T09:30:14.713Z</time></trkpt><trkpt lat="44.7379817" lon="9.3064517"><ele>931.0</ele><time>2026-04-23T09:30:15.718Z</time></trkpt><trkpt lat="44.7380117" lon="9.306295"><ele>931.0</ele><time>2026-04-23T09:30:16.713Z</time></trkpt><trkpt lat="44.73801" lon="9.3061317"><ele>931.0</ele><time>2026-04-23T09:30:17.712Z</time></trkpt><trkpt lat="44.7379967" lon="9.3059617"><ele>931.0</ele><time>2026-04-23T09:30:18.712Z</time></trkpt><trkpt lat="44.7379833" lon="9.3057867"><ele>931.0</ele><time>2026-04-23T09:30:19.713Z</time></trkpt><trkpt lat="44.73798" lon="9.305615"><ele>930.4</ele><time>2026-04-23T09:30:20.712Z</time></trkpt><trkpt lat="44.73799" lon="9.30546"><ele>929.8</ele><time>2026-04-23T09:30:21.712Z</time></trkpt><trkpt lat="44.738005" lon="9.30532"><ele>929.1999999999999</ele><time>2026-04-23T09:30:22.713Z</time></trkpt><trkpt lat="44.7380233" lon="9.30519"><ele>928.5999999999999</ele><time>2026-04-23T09:30:23.712Z</time></trkpt><trkpt lat="44.73805" lon="9.3050617"><ele>928.0</ele><time>2026-04-23T09:30:24.714Z</time></trkpt><trkpt lat="44.73808" lon="9.30493"><ele>928.0</ele><time>2026-04-23T09:30:25.712Z</time></trkpt><trkpt lat="44.7381067" lon="9.3047967"><ele>928.0</ele><time>2026-04-23T09:30:26.713Z</time></trkpt><trkpt lat="44.7381383" lon="9.3046583"><ele>928.0</ele><time>2026-04-23T09:30:27.712Z</time></trkpt><trkpt lat="44.7381683" lon="9.304515"><ele>928.0</ele><time>2026-04-23T09:30:28.713Z</time></trkpt><trkpt lat="44.738205" lon="9.3043567"><ele>928.0</ele><time>2026-04-23T09:30:29.714Z</time></trkpt><trkpt lat="44.73824" lon="9.3041817"><ele>927.0</ele><time>2026-04-23T09:30:30.712Z</time></trkpt><trkpt lat="44.7382717" lon="9.3039983"><ele>926.0</ele><time>2026-04-23T09:30:31.713Z</time></trkpt><trkpt lat="44.7382933" lon="9.3038133"><ele>925.0</ele><time>2026-04-23T09:30:32.714Z</time></trkpt><trkpt lat="44.738305" lon="9.30363"><ele>924.0</ele><time>2026-04-23T09:30:33.712Z</time></trkpt><trkpt lat="44.7383033" lon="9.3034483"><ele>924.0</ele><time>2026-04-23T09:30:34.714Z</time></trkpt><trkpt lat="44.7382917" lon="9.3032733"><ele>924.0000000000001</ele><time>2026-04-23T09:30:35.712Z</time></trkpt><trkpt lat="44.7382683" lon="9.3031133"><ele>924.0000000000001</ele><time>2026-04-23T09:30:36.713Z</time></trkpt><trkpt lat="44.7382333" lon="9.30297"><ele>924.0</ele><time>2026-04-23T09:30:37.713Z</time></trkpt><trkpt lat="44.7381833" lon="9.3028483"><ele>924.0</ele><time>2026-04-23T09:30:38.713Z</time></trkpt><trkpt lat="44.7381283" lon="9.3027183"><ele>925.5</ele><time>2026-04-23T09:30:39.714Z</time></trkpt><trkpt lat="44.7380733" lon="9.302575"><ele>927.0</ele><time>2026-04-23T09:30:40.714Z</time></trkpt><trkpt lat="44.7380183" lon="9.3024233"><ele>928.5</ele><time>2026-04-23T09:30:41.713Z</time></trkpt><trkpt lat="44.7379783" lon="9.3022617"><ele>930.0</ele><time>2026-04-23T09:30:42.712Z</time></trkpt><trkpt lat="44.73797" lon="9.3021017"><ele>930.0</ele><time>2026-04-23T09:30:43.713Z</time></trkpt><trkpt lat="44.7379767" lon="9.3019417"><ele>930.0</ele><time>2026-04-23T09:30:44.714Z</time></trkpt><trkpt lat="44.73799" lon="9.301775"><ele>930.0</ele><time>2026-04-23T09:30:45.712Z</time></trkpt><trkpt lat="44.7380017" lon="9.3016083"><ele>930.0</ele><time>2026-04-23T09:30:46.713Z</time></trkpt><trkpt lat="44.7380117" lon="9.301445"><ele>929.0</ele><time>2026-04-23T09:30:47.713Z</time></trkpt><trkpt lat="44.7380333" lon="9.3012917"><ele>928.0</ele><time>2026-04-23T09:30:48.712Z</time></trkpt><trkpt lat="44.7380717" lon="9.3011633"><ele>927.0</ele><time>2026-04-23T09:30:49.712Z</time></trkpt><trkpt lat="44.7381267" lon="9.30106"><ele>926.0</ele><time>2026-04-23T09:30:50.713Z</time></trkpt><trkpt lat="44.738195" lon="9.30098"><ele>925.0</ele><time>2026-04-23T09:30:51.714Z</time></trkpt><trkpt lat="44.738275" lon="9.3009117"><ele>925.0</ele><time>2026-04-23T09:30:52.712Z</time></trkpt><trkpt lat="44.738365" lon="9.3008333"><ele>925.0</ele><time>2026-04-23T09:30:53.713Z</time></trkpt><trkpt lat="44.73846" lon="9.3007417"><ele>925.0</ele><time>2026-04-23T09:30:54.712Z</time></trkpt><trkpt lat="44.7385517" lon="9.3006317"><ele>925.0</ele><time>2026-04-23T09:30:55.712Z</time></trkpt><trkpt lat="44.7386333" lon="9.3005133"><ele>927.0</ele><time>2026-04-23T09:30:56.713Z</time></trkpt><trkpt lat="44.73871" lon="9.3003833"><ele>929.0</ele><time>2026-04-23T09:30:57.713Z</time></trkpt><trkpt lat="44.7387833" lon="9.30025"><ele>931.0</ele><time>2026-04-23T09:30:58.713Z</time></trkpt><trkpt lat="44.7388583" lon="9.300115"><ele>933.0</ele><time>2026-04-23T09:30:59.713Z</time></trkpt><trkpt lat="44.738935" lon="9.299975"><ele>933.0</ele><time>2026-04-23T09:31:00.714Z</time></trkpt><trkpt lat="44.739015" lon="9.2998333"><ele>933.0</ele><time>2026-04-23T09:31:01.714Z</time></trkpt><trkpt lat="44.7390967" lon="9.2996917"><ele>933.0</ele><time>2026-04-23T09:31:02.713Z</time></trkpt><trkpt lat="44.7391767" lon="9.29955"><ele>933.0</ele><time>2026-04-23T09:31:03.712Z</time></trkpt><trkpt lat="44.739255" lon="9.2994067"><ele>933.25</ele><time>2026-04-23T09:31:04.712Z</time></trkpt><trkpt lat="44.7393367" lon="9.2992533"><ele>933.5</ele><time>2026-04-23T09:31:05.713Z</time></trkpt><trkpt lat="44.7394183" lon="9.2990883"><ele>933.75</ele><time>2026-04-23T09:31:06.713Z</time></trkpt><trkpt lat="44.7394983" lon="9.298905"><ele>934.0</ele><time>2026-04-23T09:31:07.714Z</time></trkpt><trkpt lat="44.7395717" lon="9.29871"><ele>934.0</ele><time>2026-04-23T09:31:08.712Z</time></trkpt><trkpt lat="44.7396367" lon="9.2985067"><ele>934.0</ele><time>2026-04-23T09:31:09.712Z</time></trkpt><trkpt lat="44.7396983" lon="9.29831"><ele>934.0</ele><time>2026-04-23T09:31:10.713Z</time></trkpt><trkpt lat="44.739755" lon="9.2981283"><ele>932.5</ele><time>2026-04-23T09:31:11.712Z</time></trkpt><trkpt lat="44.7398067" lon="9.29796"><ele>931.0</ele><time>2026-04-23T09:31:12.712Z</time></trkpt><trkpt lat="44.7398533" lon="9.297805"><ele>929.5</ele><time>2026-04-23T09:31:13.713Z</time></trkpt><trkpt lat="44.7398983" lon="9.2976617"><ele>928.0</ele><time>2026-04-23T09:31:14.713Z</time></trkpt><trkpt lat="44.7399433" lon="9.2975217"><ele>928.0</ele><time>2026-04-23T09:31:15.713Z</time></trkpt><trkpt lat="44.7399917" lon="9.2973733"><ele>928.0</ele><time>2026-04-23T09:31:16.713Z</time></trkpt><trkpt lat="44.7400467" lon="9.29722"><ele>928.0</ele><time>2026-04-23T09:31:17.713Z</time></trkpt><trkpt lat="44.7401" lon="9.29706"><ele>928.0</ele><time>2026-04-23T09:31:18.713Z</time></trkpt><trkpt lat="44.7401517" lon="9.2968933"><ele>929.25</ele><time>2026-04-23T09:31:19.712Z</time></trkpt><trkpt lat="44.7402" lon="9.29672"><ele>930.5</ele><time>2026-04-23T09:31:20.713Z</time></trkpt><trkpt lat="44.74025" lon="9.29655"><ele>931.75</ele><time>2026-04-23T09:31:21.712Z</time></trkpt><trkpt lat="44.7403067" lon="9.2963983"><ele>933.0</ele><time>2026-04-23T09:31:22.713Z</time></trkpt><trkpt lat="44.7403633" lon="9.2962683"><ele>933.0</ele><time>2026-04-23T09:31:23.712Z</time></trkpt><trkpt lat="44.7404283" lon="9.2961683"><ele>933.0</ele><time>2026-04-23T09:31:24.713Z</time></trkpt><trkpt lat="44.740505" lon="9.2961017"><ele>933.0</ele><time>2026-04-23T09:31:25.712Z</time></trkpt><trkpt lat="44.7406" lon="9.2960617"><ele>933.0</ele><time>2026-04-23T09:31:26.713Z</time></trkpt><trkpt lat="44.740705" lon="9.296035"><ele>933.0</ele><time>2026-04-23T09:31:27.712Z</time></trkpt><trkpt lat="44.740815" lon="9.2960033"><ele>933.0</ele><time>2026-04-23T09:31:28.714Z</time></trkpt><trkpt lat="44.740925" lon="9.2959733"><ele>933.0</ele><time>2026-04-23T09:31:29.714Z</time></trkpt><trkpt lat="44.7410233" lon="9.2959233"><ele>933.0</ele><time>2026-04-23T09:31:30.714Z</time></trkpt><trkpt lat="44.7411083" lon="9.295865"><ele>933.0</ele><time>2026-04-23T09:31:31.715Z</time></trkpt><trkpt lat="44.7411633" lon="9.2957717"><ele>933.0</ele><time>2026-04-23T09:31:32.713Z</time></trkpt><trkpt lat="44.7412117" lon="9.2956733"><ele>939.2</ele><time>2026-04-23T09:31:33.712Z</time></trkpt><trkpt lat="44.7412083" lon="9.2955267"><ele>945.4</ele><time>2026-04-23T09:31:34.712Z</time></trkpt><trkpt lat="44.7411967" lon="9.2953733"><ele>951.6000000000001</ele><time>2026-04-23T09:31:35.713Z</time></trkpt><trkpt lat="44.7411833" lon="9.2952167"><ele>957.8000000000001</ele><time>2026-04-23T09:31:36.712Z</time></trkpt><trkpt lat="44.74118" lon="9.2950767"><ele>964.0</ele><time>2026-04-23T09:31:37.712Z</time></trkpt><trkpt lat="44.741195" lon="9.29494"><ele>963.9999999999999</ele><time>2026-04-23T09:31:38.713Z</time></trkpt><trkpt lat="44.7411933" lon="9.2948133"><ele>964.0</ele><time>2026-04-23T09:31:39.714Z</time></trkpt><trkpt lat="44.74116" lon="9.2946983"><ele>964.0</ele><time>2026-04-23T09:31:40.713Z</time></trkpt><trkpt lat="44.7410933" lon="9.294625"><ele>964.0</ele><time>2026-04-23T09:31:41.712Z</time></trkpt><trkpt lat="44.74102" lon="9.2945683"><ele>963.9999999999999</ele><time>2026-04-23T09:31:42.713Z</time></trkpt><trkpt lat="44.7409467" lon="9.2945483"><ele>964.0</ele><time>2026-04-23T09:31:43.713Z</time></trkpt><trkpt lat="44.740835" lon="9.2946317"><ele>964.4000000000001</ele><time>2026-04-23T09:31:44.713Z</time></trkpt><trkpt lat="44.7407333" lon="9.2946933"><ele>964.8000000000001</ele><time>2026-04-23T09:31:45.712Z</time></trkpt><trkpt lat="44.7406217" lon="9.2947233"><ele>965.1999999999999</ele><time>2026-04-23T09:31:46.713Z</time></trkpt><trkpt lat="44.7405033" lon="9.2947267"><ele>965.5999999999999</ele><time>2026-04-23T09:31:47.712Z</time></trkpt><trkpt lat="44.740405" lon="9.2946817"><ele>966.0</ele><time>2026-04-23T09:31:48.713Z</time></trkpt><trkpt lat="44.7403183" lon="9.2945933"><ele>966.0</ele><time>2026-04-23T09:31:49.712Z</time></trkpt><trkpt lat="44.7402667" lon="9.294475"><ele>965.9999999999999</ele><time>2026-04-23T09:31:50.712Z</time></trkpt><trkpt lat="44.74025" lon="9.294345"><ele>965.9999999999999</ele><time>2026-04-23T09:31:51.712Z</time></trkpt><trkpt lat="44.7402367" lon="9.2942067"><ele>966.0</ele><time>2026-04-23T09:31:52.713Z</time></trkpt><trkpt lat="44.740225" lon="9.2940517"><ele>966.0</ele><time>2026-04-23T09:31:53.712Z</time></trkpt><trkpt lat="44.7401967" lon="9.2938983"><ele>961.1999999999999</ele><time>2026-04-23T09:31:54.712Z</time></trkpt><trkpt lat="44.740155" lon="9.2937617"><ele>956.3999999999999</ele><time>2026-04-23T09:31:55.713Z</time></trkpt><trkpt lat="44.7401333" lon="9.2936217"><ele>951.6</ele><time>2026-04-23T09:31:56.714Z</time></trkpt><trkpt lat="44.740115" lon="9.2934817"><ele>946.8</ele><time>2026-04-23T09:31:57.713Z</time></trkpt><trkpt lat="44.74011" lon="9.2933467"><ele>942.0</ele><time>2026-04-23T09:31:58.713Z</time></trkpt><trkpt lat="44.7401033" lon="9.2932167"><ele>942.0</ele><time>2026-04-23T09:31:59.713Z</time></trkpt><trkpt lat="44.74008" lon="9.293095"><ele>942.0</ele><time>2026-04-23T09:32:00.713Z</time></trkpt><trkpt lat="44.7400383" lon="9.29299"><ele>942.0</ele><time>2026-04-23T09:32:01.712Z</time></trkpt><trkpt lat="44.739985" lon="9.2928817"><ele>942.0</ele><time>2026-04-23T09:32:02.713Z</time></trkpt><trkpt lat="44.7399267" lon="9.2927783"><ele>942.0</ele><time>2026-04-23T09:32:03.712Z</time></trkpt><trkpt lat="44.7398767" lon="9.2926683"><ele>943.8</ele><time>2026-04-23T09:32:04.712Z</time></trkpt><trkpt lat="44.7398283" lon="9.2925517"><ele>945.6</ele><time>2026-04-23T09:32:05.714Z</time></trkpt><trkpt lat="44.739785" lon="9.29242"><ele>947.3999999999999</ele><time>2026-04-23T09:32:06.712Z</time></trkpt><trkpt lat="44.739745" lon="9.29228"><ele>949.1999999999999</ele><time>2026-04-23T09:32:07.713Z</time></trkpt><trkpt lat="44.7397" lon="9.292135"><ele>951.0</ele><time>2026-04-23T09:32:08.713Z</time></trkpt><trkpt lat="44.7396517" lon="9.2919817"><ele>953.25</ele><time>2026-04-23T09:32:09.713Z</time></trkpt><trkpt lat="44.739595" lon="9.2918267"><ele>955.5</ele><time>2026-04-23T09:32:10.712Z</time></trkpt><trkpt lat="44.739535" lon="9.291675"><ele>957.75</ele><time>2026-04-23T09:32:11.713Z</time></trkpt><trkpt lat="44.739485" lon="9.2915267"><ele>960.0</ele><time>2026-04-23T09:32:12.712Z</time></trkpt><trkpt lat="44.7394417" lon="9.29139"><ele>961.0</ele><time>2026-04-23T09:32:13.712Z</time></trkpt><trkpt lat="44.739425" lon="9.2912567"><ele>962.0</ele><time>2026-04-23T09:32:14.713Z</time></trkpt><trkpt lat="44.73944" lon="9.291125"><ele>963.0</ele><time>2026-04-23T09:32:15.712Z</time></trkpt><trkpt lat="44.739475" lon="9.2909933"><ele>964.0</ele><time>2026-04-23T09:32:16.713Z</time></trkpt><trkpt lat="44.739505" lon="9.2908517"><ele>965.0</ele><time>2026-04-23T09:32:17.712Z</time></trkpt><trkpt lat="44.739515" lon="9.290705"><ele>966.0</ele><time>2026-04-23T09:32:18.712Z</time></trkpt><trkpt lat="44.7394967" lon="9.290555"><ele>967.0</ele><time>2026-04-23T09:32:19.712Z</time></trkpt><trkpt lat="44.7394533" lon="9.2904167"><ele>968.0</ele><time>2026-04-23T09:32:20.714Z</time></trkpt><trkpt lat="44.7393967" lon="9.290275"><ele>969.0</ele><time>2026-04-23T09:32:21.712Z</time></trkpt><trkpt lat="44.73935" lon="9.290125"><ele>970.0</ele><time>2026-04-23T09:32:22.713Z</time></trkpt><trkpt lat="44.7393333" lon="9.2899733"><ele>970.5</ele><time>2026-04-23T09:32:23.712Z</time></trkpt><trkpt lat="44.7393433" lon="9.289825"><ele>971.0</ele><time>2026-04-23T09:32:24.714Z</time></trkpt><trkpt lat="44.7393683" lon="9.2896767"><ele>971.5</ele><time>2026-04-23T09:32:25.713Z</time></trkpt><trkpt lat="44.739405" lon="9.289515"><ele>972.0</ele><time>2026-04-23T09:32:26.714Z</time></trkpt><trkpt lat="44.7394417" lon="9.2893433"><ele>972.0</ele><time>2026-04-23T09:32:27.713Z</time></trkpt><trkpt lat="44.7394633" lon="9.2891683"><ele>972.0</ele><time>2026-04-23T09:32:28.712Z</time></trkpt><trkpt lat="44.7394633" lon="9.289"><ele>972.0</ele><time>2026-04-23T09:32:29.712Z</time></trkpt><trkpt lat="44.7394367" lon="9.288845"><ele>972.0</ele><time>2026-04-23T09:32:30.713Z</time></trkpt><trkpt lat="44.7393967" lon="9.2886933"><ele>965.8</ele><time>2026-04-23T09:32:31.713Z</time></trkpt><trkpt lat="44.7393483" lon="9.2885433"><ele>959.6</ele><time>2026-04-23T09:32:32.713Z</time></trkpt><trkpt lat="44.7393017" lon="9.2883967"><ele>953.3999999999999</ele><time>2026-04-23T09:32:33.712Z</time></trkpt><trkpt lat="44.7392617" lon="9.2882533"><ele>947.1999999999999</ele><time>2026-04-23T09:32:34.713Z</time></trkpt><trkpt lat="44.7392333" lon="9.2881167"><ele>941.0</ele><time>2026-04-23T09:32:35.713Z</time></trkpt><trkpt lat="44.73923" lon="9.2879733"><ele>941.0</ele><time>2026-04-23T09:32:36.712Z</time></trkpt><trkpt lat="44.7392383" lon="9.2878283"><ele>940.9999999999999</ele><time>2026-04-23T09:32:37.713Z</time></trkpt><trkpt lat="44.739245" lon="9.287675"><ele>940.9999999999999</ele><time>2026-04-23T09:32:38.713Z</time></trkpt><trkpt lat="44.7392583" lon="9.2875167"><ele>941.0</ele><time>2026-04-23T09:32:39.712Z</time></trkpt><trkpt lat="44.739275" lon="9.28736"><ele>941.0</ele><time>2026-04-23T09:32:40.713Z</time></trkpt><trkpt lat="44.7392833" lon="9.2872117"><ele>942.1999999999999</ele><time>2026-04-23T09:32:41.712Z</time></trkpt><trkpt lat="44.7392683" lon="9.2870733"><ele>943.3999999999999</ele><time>2026-04-23T09:32:42.713Z</time></trkpt><trkpt lat="44.7392367" lon="9.286945"><ele>944.6</ele><time>2026-04-23T09:32:43.714Z</time></trkpt><trkpt lat="44.73918" lon="9.28683"><ele>945.8</ele><time>2026-04-23T09:32:44.714Z</time></trkpt><trkpt lat="44.7391083" lon="9.2867167"><ele>947.0</ele><time>2026-04-23T09:32:45.712Z</time></trkpt><trkpt lat="44.7390283" lon="9.2866033"><ele>947.0</ele><time>2026-04-23T09:32:46.713Z</time></trkpt><trkpt lat="44.73895" lon="9.28648"><ele>947.0</ele><time>2026-04-23T09:32:47.713Z</time></trkpt><trkpt lat="44.73889" lon="9.28634"><ele>947.0</ele><time>2026-04-23T09:32:48.712Z</time></trkpt><trkpt lat="44.7388567" lon="9.2861967"><ele>947.0</ele><time>2026-04-23T09:32:49.712Z</time></trkpt><trkpt lat="44.7388533" lon="9.286055"><ele>947.0</ele><time>2026-04-23T09:32:50.713Z</time></trkpt><trkpt lat="44.7388733" lon="9.285915"><ele>948.0</ele><time>2026-04-23T09:32:51.713Z</time></trkpt><trkpt lat="44.7389017" lon="9.2857683"><ele>949.0</ele><time>2026-04-23T09:32:52.712Z</time></trkpt><trkpt lat="44.7389283" lon="9.28561"><ele>950.0</ele><time>2026-04-23T09:32:53.713Z</time></trkpt><trkpt lat="44.7389383" lon="9.2854483"><ele>951.0</ele><time>2026-04-23T09:32:54.714Z</time></trkpt><trkpt lat="44.7389267" lon="9.28529"><ele>952.4</ele><time>2026-04-23T09:32:55.712Z</time></trkpt><trkpt lat="44.7388983" lon="9.2851383"><ele>953.8</ele><time>2026-04-23T09:32:56.713Z</time></trkpt><trkpt lat="44.7388667" lon="9.284985"><ele>955.1999999999999</ele><time>2026-04-23T09:32:57.712Z</time></trkpt><trkpt lat="44.7388317" lon="9.2848367"><ele>956.5999999999999</ele><time>2026-04-23T09:32:58.713Z</time></trkpt><trkpt lat="44.7387983" lon="9.284685"><ele>958.0</ele><time>2026-04-23T09:32:59.714Z</time></trkpt><trkpt lat="44.73876" lon="9.2845283"><ele>960.25</ele><time>2026-04-23T09:33:00.713Z</time></trkpt><trkpt lat="44.7387183" lon="9.2843733"><ele>962.5</ele><time>2026-04-23T09:33:01.714Z</time></trkpt><trkpt lat="44.73867" lon="9.2842167"><ele>964.75</ele><time>2026-04-23T09:33:02.713Z</time></trkpt><trkpt lat="44.7386033" lon="9.28407"><ele>967.0</ele><time>2026-04-23T09:33:03.713Z</time></trkpt><trkpt lat="44.738525" lon="9.2839483"><ele>963.75</ele><time>2026-04-23T09:33:04.712Z</time></trkpt><trkpt lat="44.7384367" lon="9.2838417"><ele>960.5</ele><time>2026-04-23T09:33:05.713Z</time></trkpt><trkpt lat="44.738345" lon="9.2837383"><ele>957.25</ele><time>2026-04-23T09:33:06.713Z</time></trkpt><trkpt lat="44.7382517" lon="9.2836417"><ele>954.0</ele><time>2026-04-23T09:33:07.713Z</time></trkpt><trkpt lat="44.73816" lon="9.2835533"><ele>954.0</ele><time>2026-04-23T09:33:08.713Z</time></trkpt><trkpt lat="44.7380767" lon="9.2834683"><ele>954.0</ele><time>2026-04-23T09:33:09.713Z</time></trkpt><trkpt lat="44.7380133" lon="9.2833733"><ele>954.0</ele><time>2026-04-23T09:33:10.712Z</time></trkpt><trkpt lat="44.7379733" lon="9.2832717"><ele>954.0</ele><time>2026-04-23T09:33:11.713Z</time></trkpt><trkpt lat="44.7379683" lon="9.28316"><ele>954.0</ele><time>2026-04-23T09:33:12.712Z</time></trkpt><trkpt lat="44.7379933" lon="9.283045"><ele>954.0</ele><time>2026-04-23T09:33:13.714Z</time></trkpt><trkpt lat="44.73804" lon="9.2829333"><ele>954.5</ele><time>2026-04-23T09:33:14.713Z</time></trkpt><trkpt lat="44.738095" lon="9.2828117"><ele>955.0</ele><time>2026-04-23T09:33:15.714Z</time></trkpt><trkpt lat="44.7381467" lon="9.2826767"><ele>955.5</ele><time>2026-04-23T09:33:16.712Z</time></trkpt><trkpt lat="44.7381833" lon="9.2825267"><ele>956.0</ele><time>2026-04-23T09:33:17.712Z</time></trkpt><trkpt lat="44.7382067" lon="9.2822167"><ele>956.0</ele><time>2026-04-23T09:33:19.713Z</time></trkpt><trkpt lat="44.7382017" lon="9.2820767"><ele>955.9999999999999</ele><time>2026-04-23T09:33:20.713Z</time></trkpt><trkpt lat="44.7381917" lon="9.28194"><ele>955.9999999999999</ele><time>2026-04-23T09:33:21.713Z</time></trkpt><trkpt lat="44.7381817" lon="9.2818067"><ele>956.0</ele><time>2026-04-23T09:33:22.713Z</time></trkpt><trkpt lat="44.7381733" lon="9.28167"><ele>956.0</ele><time>2026-04-23T09:33:23.713Z</time></trkpt><trkpt lat="44.738165" lon="9.2815333"><ele>955.1999999999999</ele><time>2026-04-23T09:33:24.712Z</time></trkpt><trkpt lat="44.738165" lon="9.2814"><ele>954.3999999999999</ele><time>2026-04-23T09:33:25.713Z</time></trkpt><trkpt lat="44.7381767" lon="9.28128"><ele>953.6</ele><time>2026-04-23T09:33:26.713Z</time></trkpt><trkpt lat="44.7381967" lon="9.281175"><ele>952.8</ele><time>2026-04-23T09:33:27.713Z</time></trkpt><trkpt lat="44.738215" lon="9.2810233"><ele>952.0</ele><time>2026-04-23T09:33:29.713Z</time></trkpt><trkpt lat="44.738165" lon="9.2809217"><ele>952.0</ele><time>2026-04-23T09:33:31.714Z</time></trkpt><trkpt lat="44.7381183" lon="9.2808583"><ele>952.0</ele><time>2026-04-23T09:33:32.713Z</time></trkpt><trkpt lat="44.7380617" lon="9.2807833"><ele>952.0</ele><time>2026-04-23T09:33:33.714Z</time></trkpt><trkpt lat="44.7379967" lon="9.28069"><ele>952.0</ele><time>2026-04-23T09:33:34.713Z</time></trkpt><trkpt lat="44.7379267" lon="9.2805733"><ele>952.0</ele><time>2026-04-23T09:33:35.713Z</time></trkpt><trkpt lat="44.7378617" lon="9.2804433"><ele>953.5</ele><time>2026-04-23T09:33:36.712Z</time></trkpt><trkpt lat="44.7377983" lon="9.28031"><ele>955.0</ele><time>2026-04-23T09:33:37.713Z</time></trkpt><trkpt lat="44.7377317" lon="9.2801867"><ele>956.5</ele><time>2026-04-23T09:33:38.713Z</time></trkpt><trkpt lat="44.7376633" lon="9.2800633"><ele>958.0</ele><time>2026-04-23T09:33:39.712Z</time></trkpt><trkpt lat="44.73758" lon="9.2799433"><ele>958.0</ele><time>2026-04-23T09:33:40.714Z</time></trkpt><trkpt lat="44.73751" lon="9.279805"><ele>958.0</ele><time>2026-04-23T09:33:41.712Z</time></trkpt><trkpt lat="44.7374583" lon="9.2796617"><ele>958.0</ele><time>2026-04-23T09:33:42.712Z</time></trkpt><trkpt lat="44.7374167" lon="9.2795283"><ele>958.0</ele><time>2026-04-23T09:33:43.714Z</time></trkpt><trkpt lat="44.7373883" lon="9.2794017"><ele>958.0</ele><time>2026-04-23T09:33:44.714Z</time></trkpt><trkpt lat="44.7373583" lon="9.2792867"><ele>958.0</ele><time>2026-04-23T09:33:45.713Z</time></trkpt><trkpt lat="44.737325" lon="9.279185"><ele>958.0</ele><time>2026-04-23T09:33:46.713Z</time></trkpt><trkpt lat="44.7372983" lon="9.2790817"><ele>958.0</ele><time>2026-04-23T09:33:47.712Z</time></trkpt><trkpt lat="44.7372733" lon="9.278975"><ele>958.0</ele><time>2026-04-23T09:33:48.714Z</time></trkpt><trkpt lat="44.7372433" lon="9.2788783"><ele>958.0</ele><time>2026-04-23T09:33:49.712Z</time></trkpt><trkpt lat="44.7372083" lon="9.278795"><ele>958.0</ele><time>2026-04-23T09:33:50.714Z</time></trkpt><trkpt lat="44.7371583" lon="9.2787383"><ele>958.0</ele><time>2026-04-23T09:33:51.712Z</time></trkpt><trkpt lat="44.7370767" lon="9.2787467"><ele>957.1666666666666</ele><time>2026-04-23T09:33:52.714Z</time></trkpt><trkpt lat="44.7369883" lon="9.27876"><ele>956.3333333333333</ele><time>2026-04-23T09:33:53.712Z</time></trkpt><trkpt lat="44.7369017" lon="9.2787533"><ele>955.5</ele><time>2026-04-23T09:33:54.712Z</time></trkpt><trkpt lat="44.7368183" lon="9.2787267"><ele>954.6666666666667</ele><time>2026-04-23T09:33:55.714Z</time></trkpt><trkpt lat="44.7367417" lon="9.2786833"><ele>953.8333333333334</ele><time>2026-04-23T09:33:56.714Z</time></trkpt><trkpt lat="44.7366683" lon="9.2786333"><ele>953.0</ele><time>2026-04-23T09:33:57.713Z</time></trkpt><trkpt lat="44.73659" lon="9.2785883"><ele>956.8</ele><time>2026-04-23T09:33:58.713Z</time></trkpt><trkpt lat="44.7365" lon="9.2785517"><ele>960.5999999999999</ele><time>2026-04-23T09:33:59.716Z</time></trkpt><trkpt lat="44.7364083" lon="9.278515"><ele>964.4000000000001</ele><time>2026-04-23T09:34:00.712Z</time></trkpt><trkpt lat="44.736315" lon="9.27848"><ele>968.2</ele><time>2026-04-23T09:34:01.714Z</time></trkpt><trkpt lat="44.7362217" lon="9.2784467"><ele>972.0</ele><time>2026-04-23T09:34:02.714Z</time></trkpt><trkpt lat="44.7361283" lon="9.2784117"><ele>973.5</ele><time>2026-04-23T09:34:03.713Z</time></trkpt><trkpt lat="44.7360383" lon="9.2783733"><ele>975.0</ele><time>2026-04-23T09:34:04.713Z</time></trkpt><trkpt lat="44.735955" lon="9.2783417"><ele>976.5</ele><time>2026-04-23T09:34:05.713Z</time></trkpt><trkpt lat="44.7358717" lon="9.2783067"><ele>978.0</ele><time>2026-04-23T09:34:06.712Z</time></trkpt><trkpt lat="44.7357933" lon="9.2782767"><ele>979.5</ele><time>2026-04-23T09:34:07.713Z</time></trkpt><trkpt lat="44.7357217" lon="9.278215"><ele>981.0</ele><time>2026-04-23T09:34:08.713Z</time></trkpt><trkpt lat="44.735665" lon="9.2781233"><ele>982.25</ele><time>2026-04-23T09:34:09.713Z</time></trkpt><trkpt lat="44.7356117" lon="9.2780017"><ele>983.5</ele><time>2026-04-23T09:34:10.713Z</time></trkpt><trkpt lat="44.7355583" lon="9.2778467"><ele>984.75</ele><time>2026-04-23T09:34:11.713Z</time></trkpt><trkpt lat="44.7355" lon="9.2776867"><ele>986.0</ele><time>2026-04-23T09:34:12.712Z</time></trkpt><trkpt lat="44.7354383" lon="9.2775333"><ele>986.0</ele><time>2026-04-23T09:34:13.713Z</time></trkpt><trkpt lat="44.7353633" lon="9.277375"><ele>986.0</ele><time>2026-04-23T09:34:14.713Z</time></trkpt><trkpt lat="44.7352767" lon="9.27721"><ele>986.0</ele><time>2026-04-23T09:34:15.712Z</time></trkpt><trkpt lat="44.735185" lon="9.2770533"><ele>986.0</ele><time>2026-04-23T09:34:16.713Z</time></trkpt><trkpt lat="44.7350933" lon="9.2769133"><ele>985.75</ele><time>2026-04-23T09:34:17.712Z</time></trkpt><trkpt lat="44.7350017" lon="9.2767917"><ele>985.5</ele><time>2026-04-23T09:34:18.713Z</time></trkpt><trkpt lat="44.7349167" lon="9.2766817"><ele>985.25</ele><time>2026-04-23T09:34:19.712Z</time></trkpt><trkpt lat="44.7348367" lon="9.276575"><ele>985.0</ele><time>2026-04-23T09:34:20.713Z</time></trkpt><trkpt lat="44.7347683" lon="9.2764617"><ele>988.4</ele><time>2026-04-23T09:34:21.712Z</time></trkpt><trkpt lat="44.734705" lon="9.2763567"><ele>991.8</ele><time>2026-04-23T09:34:22.713Z</time></trkpt><trkpt lat="44.7346333" lon="9.27629"><ele>995.2</ele><time>2026-04-23T09:34:23.713Z</time></trkpt><trkpt lat="44.73456" lon="9.27625"><ele>998.6</ele><time>2026-04-23T09:34:24.712Z</time></trkpt><trkpt lat="44.73448" lon="9.2762583"><ele>1002.0</ele><time>2026-04-23T09:34:25.712Z</time></trkpt><trkpt lat="44.7343717" lon="9.2763233"><ele>1002.25</ele><time>2026-04-23T09:34:26.713Z</time></trkpt><trkpt lat="44.73426" lon="9.27642"><ele>1002.5</ele><time>2026-04-23T09:34:27.712Z</time></trkpt><trkpt lat="44.7341617" lon="9.27652"><ele>1002.75</ele><time>2026-04-23T09:34:28.712Z</time></trkpt><trkpt lat="44.7340783" lon="9.27665"><ele>1003.0</ele><time>2026-04-23T09:34:29.713Z</time></trkpt><trkpt lat="44.7340033" lon="9.2768083"><ele>999.4</ele><time>2026-04-23T09:34:30.712Z</time></trkpt><trkpt lat="44.7339333" lon="9.2769733"><ele>995.8</ele><time>2026-04-23T09:34:31.714Z</time></trkpt><trkpt lat="44.7338633" lon="9.2771217"><ele>992.2</ele><time>2026-04-23T09:34:32.713Z</time></trkpt><trkpt lat="44.7337967" lon="9.2772367"><ele>988.6</ele><time>2026-04-23T09:34:33.715Z</time></trkpt><trkpt lat="44.7337317" lon="9.2772983"><ele>985.0</ele><time>2026-04-23T09:34:34.714Z</time></trkpt><trkpt lat="44.7336583" lon="9.2773217"><ele>986.4</ele><time>2026-04-23T09:34:35.715Z</time></trkpt><trkpt lat="44.73358" lon="9.2773017"><ele>987.8</ele><time>2026-04-23T09:34:36.713Z</time></trkpt><trkpt lat="44.73348" lon="9.27723"><ele>989.2</ele><time>2026-04-23T09:34:37.713Z</time></trkpt><trkpt lat="44.733375" lon="9.277165"><ele>990.6</ele><time>2026-04-23T09:34:38.713Z</time></trkpt><trkpt lat="44.733265" lon="9.27712"><ele>992.0</ele><time>2026-04-23T09:34:39.713Z</time></trkpt><trkpt lat="44.7331533" lon="9.2771183"><ele>992.0</ele><time>2026-04-23T09:34:40.712Z</time></trkpt><trkpt lat="44.7330383" lon="9.2771383"><ele>992.0</ele><time>2026-04-23T09:34:41.713Z</time></trkpt><trkpt lat="44.7329317" lon="9.277145"><ele>992.0</ele><time>2026-04-23T09:34:42.712Z</time></trkpt><trkpt lat="44.73282" lon="9.2771167"><ele>992.0</ele><time>2026-04-23T09:34:43.713Z</time></trkpt><trkpt lat="44.7327117" lon="9.2770617"><ele>990.25</ele><time>2026-04-23T09:34:44.713Z</time></trkpt><trkpt lat="44.73259" lon="9.2769967"><ele>988.5</ele><time>2026-04-23T09:34:45.712Z</time></trkpt><trkpt lat="44.73246" lon="9.2769267"><ele>986.75</ele><time>2026-04-23T09:34:46.712Z</time></trkpt><trkpt lat="44.7323167" lon="9.2768583"><ele>985.0</ele><time>2026-04-23T09:34:47.713Z</time></trkpt><trkpt lat="44.7321633" lon="9.276805"><ele>985.0</ele><time>2026-04-23T09:34:48.713Z</time></trkpt><trkpt lat="44.7320083" lon="9.276765"><ele>985.0</ele><time>2026-04-23T09:34:49.713Z</time></trkpt><trkpt lat="44.7318617" lon="9.2767333"><ele>985.0</ele><time>2026-04-23T09:34:50.713Z</time></trkpt><trkpt lat="44.73173" lon="9.2767117"><ele>985.0</ele><time>2026-04-23T09:34:51.712Z</time></trkpt><trkpt lat="44.7316133" lon="9.2766983"><ele>984.1666666666666</ele><time>2026-04-23T09:34:52.713Z</time></trkpt><trkpt lat="44.7315067" lon="9.276675"><ele>983.3333333333333</ele><time>2026-04-23T09:34:53.715Z</time></trkpt><trkpt lat="44.7314217" lon="9.2766383"><ele>982.5</ele><time>2026-04-23T09:34:54.713Z</time></trkpt><trkpt lat="44.7313583" lon="9.2765717"><ele>981.6666666666667</ele><time>2026-04-23T09:34:55.713Z</time></trkpt><trkpt lat="44.7313233" lon="9.2764767"><ele>980.8333333333334</ele><time>2026-04-23T09:34:56.713Z</time></trkpt><trkpt lat="44.7313067" lon="9.2763567"><ele>980.0</ele><time>2026-04-23T09:34:57.712Z</time></trkpt><trkpt lat="44.73129" lon="9.2762217"><ele>980.6</ele><time>2026-04-23T09:34:58.713Z</time></trkpt><trkpt lat="44.7312717" lon="9.2760817"><ele>981.2</ele><time>2026-04-23T09:34:59.713Z</time></trkpt><trkpt lat="44.7312417" lon="9.2759517"><ele>981.8</ele><time>2026-04-23T09:35:00.713Z</time></trkpt><trkpt lat="44.73119" lon="9.27584"><ele>982.4</ele><time>2026-04-23T09:35:01.713Z</time></trkpt><trkpt lat="44.7311167" lon="9.2757417"><ele>983.0</ele><time>2026-04-23T09:35:02.713Z</time></trkpt><trkpt lat="44.7310267" lon="9.275655"><ele>983.0</ele><time>2026-04-23T09:35:03.713Z</time></trkpt><trkpt lat="44.7309317" lon="9.2755833"><ele>983.0</ele><time>2026-04-23T09:35:04.714Z</time></trkpt><trkpt lat="44.730835" lon="9.2755417"><ele>983.0</ele><time>2026-04-23T09:35:05.713Z</time></trkpt><trkpt lat="44.7307433" lon="9.2755467"><ele>983.0</ele><time>2026-04-23T09:35:06.713Z</time></trkpt><trkpt lat="44.73064" lon="9.2755917"><ele>983.0</ele><time>2026-04-23T09:35:07.712Z</time></trkpt><trkpt lat="44.7305367" lon="9.2756583"><ele>983.0</ele><time>2026-04-23T09:35:08.714Z</time></trkpt><trkpt lat="44.7304267" lon="9.2757233"><ele>983.0</ele><time>2026-04-23T09:35:09.714Z</time></trkpt><trkpt lat="44.73033" lon="9.275775"><ele>983.0</ele><time>2026-04-23T09:35:10.713Z</time></trkpt><trkpt lat="44.7302267" lon="9.2758"><ele>983.0</ele><time>2026-04-23T09:35:11.714Z</time></trkpt><trkpt lat="44.73012" lon="9.2757917"><ele>983.0</ele><time>2026-04-23T09:35:12.712Z</time></trkpt><trkpt lat="44.7299983" lon="9.27576"><ele>981.0</ele><time>2026-04-23T09:35:13.714Z</time></trkpt><trkpt lat="44.72987" lon="9.27572"><ele>979.0</ele><time>2026-04-23T09:35:14.713Z</time></trkpt><trkpt lat="44.7297367" lon="9.275665"><ele>977.0</ele><time>2026-04-23T09:35:15.712Z</time></trkpt><trkpt lat="44.7296183" lon="9.2756183"><ele>975.0</ele><time>2026-04-23T09:35:16.712Z</time></trkpt><trkpt lat="44.729505" lon="9.2755883"><ele>975.8</ele><time>2026-04-23T09:35:17.713Z</time></trkpt><trkpt lat="44.7293933" lon="9.275585"><ele>976.6</ele><time>2026-04-23T09:35:18.713Z</time></trkpt><trkpt lat="44.72929" lon="9.275615"><ele>977.4000000000001</ele><time>2026-04-23T09:35:19.713Z</time></trkpt><trkpt lat="44.729185" lon="9.2756483"><ele>978.2</ele><time>2026-04-23T09:35:20.714Z</time></trkpt><trkpt lat="44.7290767" lon="9.2756633"><ele>979.0</ele><time>2026-04-23T09:35:21.712Z</time></trkpt><trkpt lat="44.7289733" lon="9.2756617"><ele>978.9999999999999</ele><time>2026-04-23T09:35:22.713Z</time></trkpt><trkpt lat="44.7288783" lon="9.27566"><ele>979.0</ele><time>2026-04-23T09:35:23.715Z</time></trkpt><trkpt lat="44.7287917" lon="9.275675"><ele>979.0</ele><time>2026-04-23T09:35:24.713Z</time></trkpt><trkpt lat="44.7287117" lon="9.2757083"><ele>979.0</ele><time>2026-04-23T09:35:25.712Z</time></trkpt><trkpt lat="44.7286517" lon="9.275755"><ele>978.9999999999999</ele><time>2026-04-23T09:35:26.716Z</time></trkpt><trkpt lat="44.72862" lon="9.2758633"><ele>979.0</ele><time>2026-04-23T09:35:28.713Z</time></trkpt><trkpt lat="44.72864" lon="9.2759817"><ele>979.0</ele><time>2026-04-23T09:35:30.712Z</time></trkpt><trkpt lat="44.7286417" lon="9.27611"><ele>979.0000000000001</ele><time>2026-04-23T09:35:32.713Z</time></trkpt><trkpt lat="44.728615" lon="9.2762417"><ele>979.0000000000001</ele><time>2026-04-23T09:35:34.713Z</time></trkpt><trkpt lat="44.7285417" lon="9.276355"><ele>979.0</ele><time>2026-04-23T09:35:36.713Z</time></trkpt><trkpt lat="44.7284517" lon="9.2764317"><ele>979.0</ele><time>2026-04-23T09:35:38.713Z</time></trkpt><trkpt lat="44.7283567" lon="9.2765067"><ele>976.6666666666666</ele><time>2026-04-23T09:35:40.713Z</time></trkpt><trkpt lat="44.728315" lon="9.2766167"><ele>974.3333333333333</ele><time>2026-04-23T09:35:42.713Z</time></trkpt><trkpt lat="44.7282783" lon="9.2766967"><ele>972.0</ele><time>2026-04-23T09:35:44.714Z</time></trkpt><trkpt lat="44.7282083" lon="9.2767183"><ele>969.6666666666667</ele><time>2026-04-23T09:35:46.714Z</time></trkpt><trkpt lat="44.728125" lon="9.27672"><ele>967.3333333333334</ele><time>2026-04-23T09:35:48.714Z</time></trkpt><trkpt lat="44.7280767" lon="9.276785"><ele>965.0</ele><time>2026-04-23T09:35:50.714Z</time></trkpt><trkpt lat="44.7280217" lon="9.2769183"><ele>965.0000000000001</ele><time>2026-04-23T09:35:52.714Z</time></trkpt><trkpt lat="44.7279733" lon="9.2769767"><ele>965.0</ele><time>2026-04-23T09:35:53.715Z</time></trkpt><trkpt lat="44.7279183" lon="9.2770317"><ele>965.0</ele><time>2026-04-23T09:35:54.714Z</time></trkpt><trkpt lat="44.72786" lon="9.2770767"><ele>965.0</ele><time>2026-04-23T09:35:55.715Z</time></trkpt><trkpt lat="44.727755" lon="9.2771367"><ele>965.0000000000001</ele><time>2026-04-23T09:35:57.715Z</time></trkpt><trkpt lat="44.7276633" lon="9.2771567"><ele>965.0</ele><time>2026-04-23T09:35:59.714Z</time></trkpt><trkpt lat="44.7275633" lon="9.277135"><ele>965.0</ele><time>2026-04-23T09:36:01.713Z</time></trkpt><trkpt lat="44.7274583" lon="9.2771033"><ele>965.0</ele><time>2026-04-23T09:36:03.713Z</time></trkpt><trkpt lat="44.7273617" lon="9.2771067"><ele>965.0</ele><time>2026-04-23T09:36:05.714Z</time></trkpt><trkpt lat="44.7272633" lon="9.2771483"><ele>965.0</ele><time>2026-04-23T09:36:07.712Z</time></trkpt><trkpt lat="44.7271583" lon="9.2771633"><ele>965.0</ele><time>2026-04-23T09:36:09.713Z</time></trkpt><trkpt lat="44.7272083" lon="9.27726"><ele>961.4285714285713</ele><time>2026-04-23T09:36:15.713Z</time></trkpt><trkpt lat="44.7272717" lon="9.2772983"><ele>957.8571428571429</ele><time>2026-04-23T09:36:17.713Z</time></trkpt><trkpt lat="44.72732" lon="9.2773567"><ele>954.2857142857142</ele><time>2026-04-23T09:36:19.713Z</time></trkpt><trkpt lat="44.7273483" lon="9.2774683"><ele>950.7142857142857</ele><time>2026-04-23T09:36:22.714Z</time></trkpt><trkpt lat="44.7272967" lon="9.27753"><ele>947.1428571428571</ele><time>2026-04-23T09:36:25.713Z</time></trkpt><trkpt lat="44.72723" lon="9.277585"><ele>943.5714285714286</ele><time>2026-04-23T09:36:27.713Z</time></trkpt><trkpt lat="44.7271933" lon="9.2776817"><ele>940.0</ele><time>2026-04-23T09:36:29.714Z</time></trkpt><trkpt lat="44.727195" lon="9.2777883"><ele>940.0</ele><time>2026-04-23T09:36:31.714Z</time></trkpt><trkpt lat="44.72723" lon="9.2779633"><ele>940.0</ele><time>2026-04-23T09:36:33.713Z</time></trkpt><trkpt lat="44.727265" lon="9.278065"><ele>940.0</ele><time>2026-04-23T09:36:34.713Z</time></trkpt><trkpt lat="44.727295" lon="9.2781617"><ele>940.0</ele><time>2026-04-23T09:36:35.713Z</time></trkpt><trkpt lat="44.727325" lon="9.27824"><ele>940.0</ele><time>2026-04-23T09:36:36.712Z</time></trkpt><trkpt lat="44.72734" lon="9.2784017"><ele>936.8</ele><time>2026-04-23T09:36:38.713Z</time></trkpt><trkpt lat="44.727295" lon="9.2785567"><ele>933.6</ele><time>2026-04-23T09:36:40.714Z</time></trkpt><trkpt lat="44.7272017" lon="9.2786217"><ele>930.4000000000001</ele><time>2026-04-23T09:36:42.713Z</time></trkpt><trkpt lat="44.7271067" lon="9.2786433"><ele>927.2</ele><time>2026-04-23T09:36:44.713Z</time></trkpt><trkpt lat="44.72708" lon="9.2787617"><ele>924.0</ele><time>2026-04-23T09:36:47.713Z</time></trkpt><trkpt lat="44.7271233" lon="9.278845"><ele>924.0</ele><time>2026-04-23T09:36:49.713Z</time></trkpt><trkpt lat="44.727215" lon="9.27892"><ele>924.0000000000001</ele><time>2026-04-23T09:36:51.713Z</time></trkpt><trkpt lat="44.7272817" lon="9.279"><ele>924.0000000000001</ele><time>2026-04-23T09:36:53.712Z</time></trkpt><trkpt lat="44.7273733" lon="9.279035"><ele>924.0</ele><time>2026-04-23T09:36:56.713Z</time></trkpt><trkpt lat="44.727465" lon="9.2790617"><ele>924.0</ele><time>2026-04-23T09:36:58.713Z</time></trkpt><trkpt lat="44.72755" lon="9.279145"><ele>921.1666666666666</ele><time>2026-04-23T09:37:00.718Z</time></trkpt><trkpt lat="44.72761" lon="9.2792633"><ele>918.3333333333333</ele><time>2026-04-23T09:37:02.714Z</time></trkpt><trkpt lat="44.7276467" lon="9.2793683"><ele>915.5</ele><time>2026-04-23T09:37:04.714Z</time></trkpt><trkpt lat="44.7276217" lon="9.27948"><ele>912.6666666666666</ele><time>2026-04-23T09:37:07.713Z</time></trkpt><trkpt lat="44.727575" lon="9.2795733"><ele>909.8333333333333</ele><time>2026-04-23T09:37:09.714Z</time></trkpt><trkpt lat="44.7276" lon="9.2796567"><ele>907.0</ele><time>2026-04-23T09:37:11.714Z</time></trkpt><trkpt lat="44.727665" lon="9.2796767"><ele>908.2</ele><time>2026-04-23T09:37:13.714Z</time></trkpt><trkpt lat="44.7277417" lon="9.2797217"><ele>909.4000000000001</ele><time>2026-04-23T09:37:16.713Z</time></trkpt><trkpt lat="44.7277867" lon="9.279835"><ele>910.5999999999999</ele><time>2026-04-23T09:37:19.714Z</time></trkpt><trkpt lat="44.7278583" lon="9.27989"><ele>911.8</ele><time>2026-04-23T09:37:21.713Z</time></trkpt><trkpt lat="44.7279417" lon="9.27994"><ele>913.0</ele><time>2026-04-23T09:37:23.714Z</time></trkpt><trkpt lat="44.7280533" lon="9.2799767"><ele>909.4</ele><time>2026-04-23T09:37:25.712Z</time></trkpt><trkpt lat="44.7281583" lon="9.2800067"><ele>905.8</ele><time>2026-04-23T09:37:27.713Z</time></trkpt><trkpt lat="44.7282417" lon="9.2800467"><ele>902.2</ele><time>2026-04-23T09:37:29.714Z</time></trkpt><trkpt lat="44.7283333" lon="9.2800883"><ele>898.6</ele><time>2026-04-23T09:37:31.713Z</time></trkpt><trkpt lat="44.7284067" lon="9.2801417"><ele>895.0</ele><time>2026-04-23T09:37:33.712Z</time></trkpt><trkpt lat="44.72848" lon="9.280225"><ele>895.0</ele><time>2026-04-23T09:37:35.714Z</time></trkpt><trkpt lat="44.7285383" lon="9.280335"><ele>895.0</ele><time>2026-04-23T09:37:37.713Z</time></trkpt><trkpt lat="44.7285933" lon="9.280445"><ele>895.0</ele><time>2026-04-23T09:37:39.714Z</time></trkpt><trkpt lat="44.72862" lon="9.2805433"><ele>895.0</ele><time>2026-04-23T09:37:41.713Z</time></trkpt><trkpt lat="44.7285967" lon="9.28065"><ele>895.0</ele><time>2026-04-23T09:37:44.714Z</time></trkpt><trkpt lat="44.728515" lon="9.2807433"><ele>892.3333333333333</ele><time>2026-04-23T09:37:47.713Z</time></trkpt><trkpt lat="44.72846" lon="9.2807883"><ele>889.6666666666666</ele><time>2026-04-23T09:37:49.713Z</time></trkpt><trkpt lat="44.7283667" lon="9.280785"><ele>887.0</ele><time>2026-04-23T09:37:52.714Z</time></trkpt><trkpt lat="44.7282917" lon="9.2807483"><ele>884.3333333333333</ele><time>2026-04-23T09:37:54.714Z</time></trkpt><trkpt lat="44.728225" lon="9.28081"><ele>881.6666666666666</ele><time>2026-04-23T09:37:57.713Z</time></trkpt><trkpt lat="44.72821" lon="9.2809"><ele>879.0</ele><time>2026-04-23T09:37:59.713Z</time></trkpt><trkpt lat="44.7281867" lon="9.2809933"><ele>879.0</ele><time>2026-04-23T09:38:01.713Z</time></trkpt><trkpt lat="44.7281217" lon="9.28109"><ele>879.0000000000001</ele><time>2026-04-23T09:38:03.713Z</time></trkpt><trkpt lat="44.7280633" lon="9.281195"><ele>879.0000000000001</ele><time>2026-04-23T09:38:05.713Z</time></trkpt><trkpt lat="44.7280117" lon="9.2813"><ele>879.0</ele><time>2026-04-23T09:38:07.713Z</time></trkpt><trkpt lat="44.7279267" lon="9.2813433"><ele>879.0</ele><time>2026-04-23T09:38:10.713Z</time></trkpt><trkpt lat="44.7278517" lon="9.2813917"><ele>875.4000000000001</ele><time>2026-04-23T09:38:12.713Z</time></trkpt><trkpt lat="44.7277717" lon="9.2814367"><ele>871.8000000000001</ele><time>2026-04-23T09:38:14.714Z</time></trkpt><trkpt lat="44.7276983" lon="9.2815217"><ele>868.1999999999999</ele><time>2026-04-23T09:38:16.712Z</time></trkpt><trkpt lat="44.7276483" lon="9.2816167"><ele>864.5999999999999</ele><time>2026-04-23T09:38:18.713Z</time></trkpt><trkpt lat="44.7275567" lon="9.2816833"><ele>861.0</ele><time>2026-04-23T09:38:21.714Z</time></trkpt><trkpt lat="44.72747" lon="9.2817683"><ele>858.1666666666666</ele><time>2026-04-23T09:38:23.713Z</time></trkpt><trkpt lat="44.7274267" lon="9.281865"><ele>855.3333333333333</ele><time>2026-04-23T09:38:25.712Z</time></trkpt><trkpt lat="44.7273667" lon="9.2819483"><ele>852.5</ele><time>2026-04-23T09:38:27.713Z</time></trkpt><trkpt lat="44.7273117" lon="9.2820283"><ele>849.6666666666666</ele><time>2026-04-23T09:38:29.714Z</time></trkpt><trkpt lat="44.7272517" lon="9.2821267"><ele>846.8333333333333</ele><time>2026-04-23T09:38:32.713Z</time></trkpt><trkpt lat="44.7271867" lon="9.2820783"><ele>844.0</ele><time>2026-04-23T09:38:35.713Z</time></trkpt><trkpt lat="44.7271283" lon="9.28204"><ele>843.9999999999999</ele><time>2026-04-23T09:38:59.713Z</time></trkpt><trkpt lat="44.7271033" lon="9.2819383"><ele>844.0</ele><time>2026-04-23T09:39:01.713Z</time></trkpt><trkpt lat="44.7270433" lon="9.28189"><ele>844.0</ele><time>2026-04-23T09:39:03.713Z</time></trkpt><trkpt lat="44.7269483" lon="9.2819367"><ele>844.0</ele><time>2026-04-23T09:39:05.714Z</time></trkpt><trkpt lat="44.7268917" lon="9.2819883"><ele>843.9999999999999</ele><time>2026-04-23T09:39:06.714Z</time></trkpt><trkpt lat="44.7268283" lon="9.2820483"><ele>844.0</ele><time>2026-04-23T09:39:07.714Z</time></trkpt><trkpt lat="44.726755" lon="9.28211"><ele>843.3333333333333</ele><time>2026-04-23T09:39:08.713Z</time></trkpt><trkpt lat="44.7266867" lon="9.2821433"><ele>842.6666666666666</ele><time>2026-04-23T09:39:09.713Z</time></trkpt><trkpt lat="44.72662" lon="9.282145"><ele>842.0</ele><time>2026-04-23T09:39:10.713Z</time></trkpt><trkpt lat="44.7265517" lon="9.282145"><ele>841.3333333333333</ele><time>2026-04-23T09:39:11.713Z</time></trkpt><trkpt lat="44.726435" lon="9.282205"><ele>840.6666666666666</ele><time>2026-04-23T09:39:13.713Z</time></trkpt><trkpt lat="44.7263733" lon="9.2822517"><ele>840.0</ele><time>2026-04-23T09:39:14.713Z</time></trkpt><trkpt lat="44.726315" lon="9.28229"><ele>837.0</ele><time>2026-04-23T09:39:15.714Z</time></trkpt><trkpt lat="44.7262383" lon="9.2823883"><ele>834.0</ele><time>2026-04-23T09:39:17.714Z</time></trkpt><trkpt lat="44.7262083" lon="9.28247"><ele>831.0</ele><time>2026-04-23T09:39:18.713Z</time></trkpt><trkpt lat="44.7261583" lon="9.282555"><ele>828.0</ele><time>2026-04-23T09:39:19.714Z</time></trkpt><trkpt lat="44.7261017" lon="9.2826417"><ele>825.0</ele><time>2026-04-23T09:39:20.714Z</time></trkpt><trkpt lat="44.7260383" lon="9.2827383"><ele>822.0</ele><time>2026-04-23T09:39:21.714Z</time></trkpt><trkpt lat="44.72595" lon="9.2828317"><ele>822.0</ele><time>2026-04-23T09:39:22.714Z</time></trkpt><trkpt lat="44.7258433" lon="9.28287"><ele>822.0</ele><time>2026-04-23T09:39:24.714Z</time></trkpt><trkpt lat="44.7257517" lon="9.2827817"><ele>822.0</ele><time>2026-04-23T09:39:26.714Z</time></trkpt><trkpt lat="44.7256583" lon="9.2827"><ele>822.0</ele><time>2026-04-23T09:39:28.713Z</time></trkpt><trkpt lat="44.7255817" lon="9.28271"><ele>822.0</ele><time>2026-04-23T09:39:30.713Z</time></trkpt><trkpt lat="44.7255267" lon="9.2828817"><ele>822.0</ele><time>2026-04-23T09:39:32.714Z</time></trkpt><trkpt lat="44.725495" lon="9.2829733"><ele>822.0</ele><time>2026-04-23T09:39:33.715Z</time></trkpt><trkpt lat="44.7253967" lon="9.2830383"><ele>822.0</ele><time>2026-04-23T09:39:35.713Z</time></trkpt><trkpt lat="44.725335" lon="9.2830183"><ele>822.0</ele><time>2026-04-23T09:39:36.714Z</time></trkpt><trkpt lat="44.7252617" lon="9.2829883"><ele>822.0</ele><time>2026-04-23T09:39:37.713Z</time></trkpt><trkpt lat="44.725185" lon="9.282945"><ele>822.0</ele><time>2026-04-23T09:39:38.714Z</time></trkpt><trkpt lat="44.725115" lon="9.28289"><ele>820.5</ele><time>2026-04-23T09:39:39.713Z</time></trkpt><trkpt lat="44.725045" lon="9.282815"><ele>819.0</ele><time>2026-04-23T09:39:40.714Z</time></trkpt><trkpt lat="44.7249767" lon="9.2827333"><ele>817.5</ele><time>2026-04-23T09:39:41.714Z</time></trkpt><trkpt lat="44.7249067" lon="9.282645"><ele>816.0</ele><time>2026-04-23T09:39:42.713Z</time></trkpt><trkpt lat="44.724835" lon="9.282565"><ele>814.5</ele><time>2026-04-23T09:39:43.715Z</time></trkpt><trkpt lat="44.7247683" lon="9.2824983"><ele>813.0</ele><time>2026-04-23T09:39:44.714Z</time></trkpt><trkpt lat="44.7247067" lon="9.2824517"><ele>813.0</ele><time>2026-04-23T09:39:45.713Z</time></trkpt><trkpt lat="44.7246433" lon="9.2824183"><ele>813.0</ele><time>2026-04-23T09:39:46.713Z</time></trkpt><trkpt lat="44.724575" lon="9.2823683"><ele>813.0</ele><time>2026-04-23T09:39:47.712Z</time></trkpt><trkpt lat="44.7244983" lon="9.2823033"><ele>813.0</ele><time>2026-04-23T09:39:48.712Z</time></trkpt><trkpt lat="44.72442" lon="9.2822267"><ele>813.0</ele><time>2026-04-23T09:39:49.716Z</time></trkpt><trkpt lat="44.7243533" lon="9.2821467"><ele>813.0</ele><time>2026-04-23T09:39:50.714Z</time></trkpt><trkpt lat="44.7242983" lon="9.2820867"><ele>813.0</ele><time>2026-04-23T09:39:51.712Z</time></trkpt><trkpt lat="44.7242467" lon="9.2820133"><ele>813.0</ele><time>2026-04-23T09:39:53.714Z</time></trkpt><trkpt lat="44.72416" lon="9.2819733"><ele>813.0</ele><time>2026-04-23T09:40:07.712Z</time></trkpt><trkpt lat="44.7240967" lon="9.2819767"><ele>813.0</ele><time>2026-04-23T09:40:09.716Z</time></trkpt><trkpt lat="44.72402" lon="9.2819367"><ele>813.0</ele><time>2026-04-23T09:40:12.713Z</time></trkpt><trkpt lat="44.7239333" lon="9.28194"><ele>813.0</ele><time>2026-04-23T09:40:15.713Z</time></trkpt><trkpt lat="44.7238783" lon="9.2820067"><ele>813.0</ele><time>2026-04-23T09:40:17.713Z</time></trkpt><trkpt lat="44.723825" lon="9.2820683"><ele>813.0</ele><time>2026-04-23T09:40:19.713Z</time></trkpt><trkpt lat="44.723755" lon="9.282105"><ele>813.0</ele><time>2026-04-23T09:40:21.713Z</time></trkpt><trkpt lat="44.7236683" lon="9.282175"><ele>813.0</ele><time>2026-04-23T09:40:23.714Z</time></trkpt><trkpt lat="44.7235633" lon="9.282225"><ele>813.0</ele><time>2026-04-23T09:40:25.713Z</time></trkpt><trkpt lat="44.7234567" lon="9.2822583"><ele>812.0</ele><time>2026-04-23T09:40:27.714Z</time></trkpt><trkpt lat="44.7233733" lon="9.2822967"><ele>811.0</ele><time>2026-04-23T09:40:29.712Z</time></trkpt><trkpt lat="44.7232983" lon="9.28229"><ele>810.0</ele><time>2026-04-23T09:40:31.715Z</time></trkpt><trkpt lat="44.7232267" lon="9.2822383"><ele>809.0</ele><time>2026-04-23T09:40:33.713Z</time></trkpt><trkpt lat="44.72317" lon="9.2821617"><ele>808.0</ele><time>2026-04-23T09:40:35.713Z</time></trkpt><trkpt lat="44.72308" lon="9.28221"><ele>807.0</ele><time>2026-04-23T09:40:38.714Z</time></trkpt><trkpt lat="44.7230033" lon="9.2822617"><ele>807.0</ele><time>2026-04-23T09:40:40.713Z</time></trkpt><trkpt lat="44.722915" lon="9.2822683"><ele>807.0</ele><time>2026-04-23T09:40:42.713Z</time></trkpt><trkpt lat="44.722835" lon="9.2822533"><ele>807.0</ele><time>2026-04-23T09:40:44.714Z</time></trkpt><trkpt lat="44.7227567" lon="9.2822917"><ele>807.0</ele><time>2026-04-23T09:40:46.714Z</time></trkpt><trkpt lat="44.7226767" lon="9.2823383"><ele>807.0</ele><time>2026-04-23T09:40:48.714Z</time></trkpt><trkpt lat="44.722605" lon="9.282335"><ele>807.0</ele><time>2026-04-23T09:40:50.715Z</time></trkpt><trkpt lat="44.7225267" lon="9.28236"><ele>802.0</ele><time>2026-04-23T09:40:52.714Z</time></trkpt><trkpt lat="44.72246" lon="9.2824583"><ele>797.0</ele><time>2026-04-23T09:40:54.714Z</time></trkpt><trkpt lat="44.7223883" lon="9.282585"><ele>792.0</ele><time>2026-04-23T09:40:56.714Z</time></trkpt><trkpt lat="44.7223117" lon="9.2826733"><ele>787.0</ele><time>2026-04-23T09:40:58.714Z</time></trkpt><trkpt lat="44.7222467" lon="9.282755"><ele>782.0</ele><time>2026-04-23T09:41:00.713Z</time></trkpt><trkpt lat="44.722205" lon="9.2828417"><ele>782.0</ele><time>2026-04-23T09:41:02.716Z</time></trkpt><trkpt lat="44.7221233" lon="9.2829183"><ele>782.0</ele><time>2026-04-23T09:41:04.714Z</time></trkpt><trkpt lat="44.7220017" lon="9.2830033"><ele>782.0</ele><time>2026-04-23T09:41:06.714Z</time></trkpt><trkpt lat="44.72191" lon="9.283095"><ele>782.0</ele><time>2026-04-23T09:41:08.716Z</time></trkpt><trkpt lat="44.7218567" lon="9.2831717"><ele>782.0</ele><time>2026-04-23T09:41:10.713Z</time></trkpt><trkpt lat="44.7217833" lon="9.2832583"><ele>778.1666666666667</ele><time>2026-04-23T09:41:13.715Z</time></trkpt><trkpt lat="44.721725" lon="9.2833417"><ele>774.3333333333334</ele><time>2026-04-23T09:41:16.713Z</time></trkpt><trkpt lat="44.7216933" lon="9.2834333"><ele>770.5</ele><time>2026-04-23T09:41:19.714Z</time></trkpt><trkpt lat="44.7216817" lon="9.2835567"><ele>766.6666666666667</ele><time>2026-04-23T09:41:22.714Z</time></trkpt><trkpt lat="44.7216433" lon="9.2836617"><ele>762.8333333333334</ele><time>2026-04-23T09:41:25.714Z</time></trkpt><trkpt lat="44.7216183" lon="9.283775"><ele>759.0</ele><time>2026-04-23T09:41:28.714Z</time></trkpt><trkpt lat="44.72162" lon="9.2839067"><ele>755.2</ele><time>2026-04-23T09:41:31.716Z</time></trkpt><trkpt lat="44.7216183" lon="9.2840417"><ele>751.4000000000001</ele><time>2026-04-23T09:41:33.713Z</time></trkpt><trkpt lat="44.721635" lon="9.2841633"><ele>747.6</ele><time>2026-04-23T09:41:35.714Z</time></trkpt><trkpt lat="44.72171" lon="9.2841617"><ele>743.8</ele><time>2026-04-23T09:41:38.714Z</time></trkpt><trkpt lat="44.7216583" lon="9.2842867"><ele>740.0</ele><time>2026-04-23T09:41:59.713Z</time></trkpt><trkpt lat="44.7216083" lon="9.284445"><ele>740.0</ele><time>2026-04-23T09:42:01.713Z</time></trkpt><trkpt lat="44.721595" lon="9.284555"><ele>740.0</ele><time>2026-04-23T09:42:02.715Z</time></trkpt><trkpt lat="44.72158" lon="9.2846783"><ele>740.0</ele><time>2026-04-23T09:42:03.712Z</time></trkpt><trkpt lat="44.7215633" lon="9.2848033"><ele>740.0</ele><time>2026-04-23T09:42:04.714Z</time></trkpt><trkpt lat="44.721545" lon="9.2849283"><ele>740.0</ele><time>2026-04-23T09:42:05.713Z</time></trkpt><trkpt lat="44.7215267" lon="9.285035"><ele>740.0</ele><time>2026-04-23T09:42:06.714Z</time></trkpt><trkpt lat="44.721505" lon="9.2851217"><ele>737.8333333333333</ele><time>2026-04-23T09:42:07.712Z</time></trkpt><trkpt lat="44.7214267" lon="9.2852133"><ele>735.6666666666666</ele><time>2026-04-23T09:42:09.713Z</time></trkpt><trkpt lat="44.7213617" lon="9.285235"><ele>733.5</ele><time>2026-04-23T09:42:10.713Z</time></trkpt><trkpt lat="44.7212933" lon="9.2852383"><ele>731.3333333333334</ele><time>2026-04-23T09:42:11.714Z</time></trkpt><trkpt lat="44.7211867" lon="9.2852183"><ele>729.1666666666667</ele><time>2026-04-23T09:42:13.712Z</time></trkpt><trkpt lat="44.7211217" lon="9.2852567"><ele>727.0</ele><time>2026-04-23T09:42:15.714Z</time></trkpt><trkpt lat="44.7211733" lon="9.28541"><ele>727.0</ele><time>2026-04-23T09:42:17.712Z</time></trkpt><trkpt lat="44.7211783" lon="9.2855383"><ele>727.0</ele><time>2026-04-23T09:42:19.712Z</time></trkpt><trkpt lat="44.7210817" lon="9.2856183"><ele>727.0</ele><time>2026-04-23T09:42:21.713Z</time></trkpt><trkpt lat="44.720995" lon="9.2857117"><ele>727.0</ele><time>2026-04-23T09:42:23.713Z</time></trkpt><trkpt lat="44.7209967" lon="9.285845"><ele>727.0</ele><time>2026-04-23T09:42:25.713Z</time></trkpt><trkpt lat="44.7210317" lon="9.2859333"><ele>723.6666666666667</ele><time>2026-04-23T09:42:26.713Z</time></trkpt><trkpt lat="44.7210583" lon="9.2860317"><ele>720.3333333333334</ele><time>2026-04-23T09:42:27.713Z</time></trkpt><trkpt lat="44.7210733" lon="9.2861433"><ele>717.0</ele><time>2026-04-23T09:42:28.711Z</time></trkpt><trkpt lat="44.721075" lon="9.2862417"><ele>713.6666666666666</ele><time>2026-04-23T09:42:29.713Z</time></trkpt><trkpt lat="44.7210617" lon="9.2863583"><ele>710.3333333333333</ele><time>2026-04-23T09:42:30.713Z</time></trkpt><trkpt lat="44.7210417" lon="9.2864733"><ele>707.0</ele><time>2026-04-23T09:42:31.712Z</time></trkpt><trkpt lat="44.7210317" lon="9.28658"><ele>703.2</ele><time>2026-04-23T09:42:32.713Z</time></trkpt><trkpt lat="44.72103" lon="9.286675"><ele>699.4000000000001</ele><time>2026-04-23T09:42:33.712Z</time></trkpt><trkpt lat="44.7210633" lon="9.2868217"><ele>695.5999999999999</ele><time>2026-04-23T09:42:35.713Z</time></trkpt><trkpt lat="44.721135" lon="9.2869333"><ele>691.8</ele><time>2026-04-23T09:42:37.713Z</time></trkpt><trkpt lat="44.7211833" lon="9.2870283"><ele>688.0</ele><time>2026-04-23T09:42:39.715Z</time></trkpt><trkpt lat="44.72112" lon="9.287105"><ele>685.5</ele><time>2026-04-23T09:42:41.713Z</time></trkpt><trkpt lat="44.7209867" lon="9.28712"><ele>683.0</ele><time>2026-04-23T09:42:43.712Z</time></trkpt><trkpt lat="44.7208667" lon="9.2870883"><ele>680.5</ele><time>2026-04-23T09:42:45.713Z</time></trkpt><trkpt lat="44.7207617" lon="9.287015"><ele>678.0</ele><time>2026-04-23T09:42:47.713Z</time></trkpt><trkpt lat="44.7206567" lon="9.2869367"><ele>678.0</ele><time>2026-04-23T09:42:49.712Z</time></trkpt><trkpt lat="44.7205783" lon="9.2868217"><ele>678.0</ele><time>2026-04-23T09:42:51.713Z</time></trkpt><trkpt lat="44.7205083" lon="9.2867067"><ele>678.0</ele><time>2026-04-23T09:42:53.713Z</time></trkpt><trkpt lat="44.720455" lon="9.2865667"><ele>678.0</ele><time>2026-04-23T09:42:55.712Z</time></trkpt><trkpt lat="44.7204167" lon="9.28644"><ele>678.0</ele><time>2026-04-23T09:42:57.712Z</time></trkpt><trkpt lat="44.72035" lon="9.2864"><ele>678.0</ele><time>2026-04-23T09:42:59.713Z</time></trkpt><trkpt lat="44.72028" lon="9.2864367"><ele>678.0</ele><time>2026-04-23T09:43:01.712Z</time></trkpt><trkpt lat="44.72025" lon="9.2865483"><ele>678.0</ele><time>2026-04-23T09:43:03.713Z</time></trkpt><trkpt lat="44.7202417" lon="9.2867083"><ele>678.0</ele><time>2026-04-23T09:43:05.713Z</time></trkpt><trkpt lat="44.720195" lon="9.2868633"><ele>678.0</ele><time>2026-04-23T09:43:07.713Z</time></trkpt><trkpt lat="44.7201533" lon="9.2869467"><ele>673.1666666666666</ele><time>2026-04-23T09:43:08.715Z</time></trkpt><trkpt lat="44.7201117" lon="9.287035"><ele>668.3333333333334</ele><time>2026-04-23T09:43:09.712Z</time></trkpt><trkpt lat="44.7200617" lon="9.287115"><ele>663.5</ele><time>2026-04-23T09:43:10.713Z</time></trkpt><trkpt lat="44.7200033" lon="9.2871933"><ele>658.6666666666667</ele><time>2026-04-23T09:43:11.712Z</time></trkpt><trkpt lat="44.7199533" lon="9.2872667"><ele>653.8333333333334</ele><time>2026-04-23T09:43:12.712Z</time></trkpt><trkpt lat="44.71992" lon="9.2874167"><ele>649.0</ele><time>2026-04-23T09:43:14.715Z</time></trkpt><trkpt lat="44.7199117" lon="9.2875117"><ele>647.7142857142857</ele><time>2026-04-23T09:43:15.713Z</time></trkpt><trkpt lat="44.7199017" lon="9.28762"><ele>646.4285714285714</ele><time>2026-04-23T09:43:16.712Z</time></trkpt><trkpt lat="44.719885" lon="9.2877233"><ele>645.1428571428571</ele><time>2026-04-23T09:43:17.713Z</time></trkpt><trkpt lat="44.7198583" lon="9.2878183"><ele>643.8571428571429</ele><time>2026-04-23T09:43:18.714Z</time></trkpt><trkpt lat="44.7198217" lon="9.2879"><ele>642.5714285714286</ele><time>2026-04-23T09:43:19.712Z</time></trkpt><trkpt lat="44.7197783" lon="9.2879883"><ele>641.2857142857142</ele><time>2026-04-23T09:43:20.713Z</time></trkpt><trkpt lat="44.7197333" lon="9.288075"><ele>640.0</ele><time>2026-04-23T09:43:21.712Z</time></trkpt><trkpt lat="44.7196767" lon="9.2881783"><ele>638.2</ele><time>2026-04-23T09:43:22.712Z</time></trkpt><trkpt lat="44.7196267" lon="9.2882917"><ele>636.4</ele><time>2026-04-23T09:43:23.713Z</time></trkpt><trkpt lat="44.719585" lon="9.2884067"><ele>634.6</ele><time>2026-04-23T09:43:24.713Z</time></trkpt><trkpt lat="44.719545" lon="9.2884883"><ele>632.8</ele><time>2026-04-23T09:43:25.713Z</time></trkpt><trkpt lat="44.719435" lon="9.28858"><ele>631.0</ele><time>2026-04-23T09:43:27.713Z</time></trkpt><trkpt lat="44.719355" lon="9.2886117"><ele>628.5</ele><time>2026-04-23T09:43:28.714Z</time></trkpt><trkpt lat="44.7192667" lon="9.2886267"><ele>626.0</ele><time>2026-04-23T09:43:29.713Z</time></trkpt><trkpt lat="44.7191817" lon="9.2886417"><ele>623.5</ele><time>2026-04-23T09:43:30.713Z</time></trkpt><trkpt lat="44.7190967" lon="9.2886717"><ele>621.0</ele><time>2026-04-23T09:43:31.714Z</time></trkpt><trkpt lat="44.7190117" lon="9.2887133"><ele>618.5</ele><time>2026-04-23T09:43:32.713Z</time></trkpt><trkpt lat="44.71893" lon="9.2887617"><ele>616.0</ele><time>2026-04-23T09:43:33.714Z</time></trkpt><trkpt lat="44.718855" lon="9.288815"><ele>616.0</ele><time>2026-04-23T09:43:34.713Z</time></trkpt><trkpt lat="44.7187883" lon="9.2888783"><ele>616.0</ele><time>2026-04-23T09:43:35.713Z</time></trkpt><trkpt lat="44.7187183" lon="9.2889367"><ele>616.0</ele><time>2026-04-23T09:43:36.712Z</time></trkpt><trkpt lat="44.718655" lon="9.288965"><ele>616.0</ele><time>2026-04-23T09:43:37.714Z</time></trkpt><trkpt lat="44.7185917" lon="9.2889883"><ele>616.0</ele><time>2026-04-23T09:43:38.713Z</time></trkpt><trkpt lat="44.7184883" lon="9.2890383"><ele>616.0</ele><time>2026-04-23T09:43:40.712Z</time></trkpt><trkpt lat="44.71838" lon="9.28909"><ele>613.6666666666667</ele><time>2026-04-23T09:43:42.713Z</time></trkpt><trkpt lat="44.7182683" lon="9.289135"><ele>611.3333333333334</ele><time>2026-04-23T09:43:44.714Z</time></trkpt><trkpt lat="44.7182067" lon="9.2891617"><ele>609.0</ele><time>2026-04-23T09:43:45.713Z</time></trkpt><trkpt lat="44.7181417" lon="9.2892017"><ele>606.6666666666666</ele><time>2026-04-23T09:43:46.713Z</time></trkpt><trkpt lat="44.71807" lon="9.2892583"><ele>604.3333333333333</ele><time>2026-04-23T09:43:47.713Z</time></trkpt><trkpt lat="44.7180133" lon="9.2893217"><ele>602.0</ele><time>2026-04-23T09:43:48.713Z</time></trkpt><trkpt lat="44.7179583" lon="9.2893883"><ele>602.0</ele><time>2026-04-23T09:43:49.713Z</time></trkpt><trkpt lat="44.7179067" lon="9.289465"><ele>602.0</ele><time>2026-04-23T09:43:50.713Z</time></trkpt><trkpt lat="44.7178617" lon="9.2895567"><ele>602.0</ele><time>2026-04-23T09:43:51.713Z</time></trkpt><trkpt lat="44.717825" lon="9.2896517"><ele>602.0</ele><time>2026-04-23T09:43:52.712Z</time></trkpt><trkpt lat="44.7177783" lon="9.2897383"><ele>602.0</ele><time>2026-04-23T09:43:53.714Z</time></trkpt><trkpt lat="44.7177217" lon="9.2898133"><ele>602.0</ele><time>2026-04-23T09:43:54.713Z</time></trkpt><trkpt lat="44.7176733" lon="9.2898833"><ele>599.0</ele><time>2026-04-23T09:43:55.714Z</time></trkpt><trkpt lat="44.7176283" lon="9.2899517"><ele>596.0</ele><time>2026-04-23T09:43:56.713Z</time></trkpt><trkpt lat="44.717585" lon="9.2900167"><ele>593.0</ele><time>2026-04-23T09:43:57.712Z</time></trkpt><trkpt lat="44.717535" lon="9.2901667"><ele>590.0</ele><time>2026-04-23T09:43:59.712Z</time></trkpt><trkpt lat="44.7174933" lon="9.29029"><ele>587.0</ele><time>2026-04-23T09:44:01.712Z</time></trkpt><trkpt lat="44.71741" lon="9.2903617"><ele>584.0</ele><time>2026-04-23T09:44:03.713Z</time></trkpt><trkpt lat="44.717315" lon="9.2903383"><ele>584.0</ele><time>2026-04-23T09:44:05.714Z</time></trkpt><trkpt lat="44.7172233" lon="9.2902717"><ele>584.0</ele><time>2026-04-23T09:44:07.713Z</time></trkpt><trkpt lat="44.717125" lon="9.290215"><ele>584.0</ele><time>2026-04-23T09:44:09.713Z</time></trkpt><trkpt lat="44.7170283" lon="9.2902633"><ele>584.0</ele><time>2026-04-23T09:44:11.712Z</time></trkpt><trkpt lat="44.716985" lon="9.2903467"><ele>584.0</ele><time>2026-04-23T09:44:12.713Z</time></trkpt><trkpt lat="44.7168683" lon="9.290455"><ele>585.3333333333333</ele><time>2026-04-23T09:44:14.714Z</time></trkpt><trkpt lat="44.71679" lon="9.2904717"><ele>586.6666666666666</ele><time>2026-04-23T09:44:15.713Z</time></trkpt><trkpt lat="44.7167117" lon="9.29049"><ele>588.0</ele><time>2026-04-23T09:44:16.712Z</time></trkpt><trkpt lat="44.7166417" lon="9.2905417"><ele>589.3333333333334</ele><time>2026-04-23T09:44:17.713Z</time></trkpt><trkpt lat="44.7165717" lon="9.290615"><ele>590.6666666666667</ele><time>2026-04-23T09:44:18.712Z</time></trkpt><trkpt lat="44.716495" lon="9.2906817"><ele>592.0</ele><time>2026-04-23T09:44:19.712Z</time></trkpt><trkpt lat="44.71642" lon="9.290725"><ele>590.3333333333334</ele><time>2026-04-23T09:44:20.714Z</time></trkpt><trkpt lat="44.716345" lon="9.2907483"><ele>588.6666666666667</ele><time>2026-04-23T09:44:21.712Z</time></trkpt><trkpt lat="44.7162633" lon="9.2907583"><ele>587.0</ele><time>2026-04-23T09:44:22.714Z</time></trkpt><trkpt lat="44.7161767" lon="9.2907783"><ele>585.3333333333334</ele><time>2026-04-23T09:44:23.714Z</time></trkpt><trkpt lat="44.7160933" lon="9.29082"><ele>583.6666666666666</ele><time>2026-04-23T09:44:24.712Z</time></trkpt><trkpt lat="44.716015" lon="9.29088"><ele>582.0</ele><time>2026-04-23T09:44:25.714Z</time></trkpt><trkpt lat="44.7159383" lon="9.2909683"><ele>582.0</ele><time>2026-04-23T09:44:26.713Z</time></trkpt><trkpt lat="44.7158617" lon="9.29108"><ele>582.0</ele><time>2026-04-23T09:44:27.712Z</time></trkpt><trkpt lat="44.7157983" lon="9.2911783"><ele>582.0</ele><time>2026-04-23T09:44:28.712Z</time></trkpt><trkpt lat="44.7157417" lon="9.2912783"><ele>582.0</ele><time>2026-04-23T09:44:29.713Z</time></trkpt><trkpt lat="44.715685" lon="9.291395"><ele>582.0</ele><time>2026-04-23T09:44:30.712Z</time></trkpt><trkpt lat="44.71562" lon="9.291505"><ele>578.8333333333334</ele><time>2026-04-23T09:44:31.715Z</time></trkpt><trkpt lat="44.7155583" lon="9.2915983"><ele>575.6666666666666</ele><time>2026-04-23T09:44:32.713Z</time></trkpt><trkpt lat="44.7155017" lon="9.2916917"><ele>572.5</ele><time>2026-04-23T09:44:33.712Z</time></trkpt><trkpt lat="44.7154533" lon="9.2917883"><ele>569.3333333333333</ele><time>2026-04-23T09:44:34.712Z</time></trkpt><trkpt lat="44.715395" lon="9.2918767"><ele>566.1666666666666</ele><time>2026-04-23T09:44:35.715Z</time></trkpt><trkpt lat="44.71533" lon="9.2919567"><ele>563.0</ele><time>2026-04-23T09:44:36.714Z</time></trkpt><trkpt lat="44.715255" lon="9.2920517"><ele>563.8333333333333</ele><time>2026-04-23T09:44:37.713Z</time></trkpt><trkpt lat="44.7151833" lon="9.2921433"><ele>564.6666666666666</ele><time>2026-04-23T09:44:38.715Z</time></trkpt><trkpt lat="44.715115" lon="9.292225"><ele>565.5</ele><time>2026-04-23T09:44:39.713Z</time></trkpt><trkpt lat="44.7150533" lon="9.2922817"><ele>566.3333333333334</ele><time>2026-04-23T09:44:40.712Z</time></trkpt><trkpt lat="44.7149867" lon="9.2923083"><ele>567.1666666666667</ele><time>2026-04-23T09:44:41.712Z</time></trkpt><trkpt lat="44.7149167" lon="9.2923017"><ele>568.0</ele><time>2026-04-23T09:44:42.712Z</time></trkpt><trkpt lat="44.7148467" lon="9.292285"><ele>565.0</ele><time>2026-04-23T09:44:43.713Z</time></trkpt><trkpt lat="44.7147433" lon="9.2922683"><ele>562.0</ele><time>2026-04-23T09:44:45.713Z</time></trkpt><trkpt lat="44.7146967" lon="9.2923983"><ele>559.0</ele><time>2026-04-23T09:44:48.713Z</time></trkpt><trkpt lat="44.71465" lon="9.29252"><ele>556.0</ele><time>2026-04-23T09:44:50.714Z</time></trkpt><trkpt lat="44.7145817" lon="9.29263"><ele>553.0</ele><time>2026-04-23T09:44:52.714Z</time></trkpt><trkpt lat="44.7145133" lon="9.2926683"><ele>552.4</ele><time>2026-04-23T09:44:54.713Z</time></trkpt><trkpt lat="44.7143536" lon="9.2927982"><ele>551.8</ele><time>2026-04-23T09:45:10.713Z</time></trkpt><trkpt lat="44.714265" lon="9.2928802"><ele>551.2</ele><time>2026-04-23T09:45:11.714Z</time></trkpt><trkpt lat="44.7141983" lon="9.2929448"><ele>550.6</ele><time>2026-04-23T09:45:12.712Z</time></trkpt><trkpt lat="44.7141473" lon="9.2930113"><ele>550.0</ele><time>2026-04-23T09:45:13.714Z</time></trkpt><trkpt lat="44.7140577" lon="9.2931304"><ele>550.0</ele><time>2026-04-23T09:45:15.713Z</time></trkpt><trkpt lat="44.713989" lon="9.2931878"><ele>550.0</ele><time>2026-04-23T09:45:16.713Z</time></trkpt><trkpt lat="44.7139096" lon="9.2932504"><ele>550.0</ele><time>2026-04-23T09:45:17.713Z</time></trkpt><trkpt lat="44.7138207" lon="9.293309"><ele>550.0</ele><time>2026-04-23T09:45:18.713Z</time></trkpt><trkpt lat="44.7137304" lon="9.2933676"><ele>550.0</ele><time>2026-04-23T09:45:19.713Z</time></trkpt><trkpt lat="44.7136551" lon="9.2934321"><ele>550.0</ele><time>2026-04-23T09:45:20.714Z</time></trkpt><trkpt lat="44.7135992" lon="9.2934962"><ele>550.0</ele><time>2026-04-23T09:45:21.713Z</time></trkpt><trkpt lat="44.7135553" lon="9.2936167"><ele>550.0</ele><time>2026-04-23T09:45:23.712Z</time></trkpt><trkpt lat="44.7135097" lon="9.2937421"><ele>550.0</ele><time>2026-04-23T09:45:25.713Z</time></trkpt><trkpt lat="44.7134294" lon="9.2938363"><ele>550.0</ele><time>2026-04-23T09:45:27.713Z</time></trkpt><trkpt lat="44.7133152" lon="9.293844"><ele>548.4</ele><time>2026-04-23T09:45:29.715Z</time></trkpt><trkpt lat="44.713243" lon="9.2938169"><ele>546.8</ele><time>2026-04-23T09:45:30.712Z</time></trkpt><trkpt lat="44.7131537" lon="9.293787"><ele>545.2</ele><time>2026-04-23T09:45:31.712Z</time></trkpt><trkpt lat="44.7130507" lon="9.2937687"><ele>543.6</ele><time>2026-04-23T09:45:32.713Z</time></trkpt><trkpt lat="44.7129484" lon="9.2937651"><ele>542.0</ele><time>2026-04-23T09:45:33.713Z</time></trkpt><trkpt lat="44.712849" lon="9.2937635"><ele>542.0</ele><time>2026-04-23T09:45:34.713Z</time></trkpt><trkpt lat="44.7127605" lon="9.2937552"><ele>542.0</ele><time>2026-04-23T09:45:35.713Z</time></trkpt><trkpt lat="44.7126881" lon="9.2937596"><ele>542.0</ele><time>2026-04-23T09:45:36.713Z</time></trkpt><trkpt lat="44.712573" lon="9.2937874"><ele>542.0</ele><time>2026-04-23T09:45:38.714Z</time></trkpt><trkpt lat="44.7124752" lon="9.2938404"><ele>542.0</ele><time>2026-04-23T09:45:40.714Z</time></trkpt><trkpt lat="44.7123483" lon="9.2938383"><ele>541.3333333333333</ele><time>2026-04-23T09:46:39.712Z</time></trkpt><trkpt lat="44.7122367" lon="9.293815"><ele>540.6666666666666</ele><time>2026-04-23T09:46:41.713Z</time></trkpt><trkpt lat="44.7121233" lon="9.293805"><ele>540.0</ele><time>2026-04-23T09:46:43.712Z</time></trkpt><trkpt lat="44.7120583" lon="9.2938"><ele>539.3333333333334</ele><time>2026-04-23T09:46:44.713Z</time></trkpt><trkpt lat="44.711985" lon="9.2937883"><ele>538.6666666666667</ele><time>2026-04-23T09:46:45.712Z</time></trkpt><trkpt lat="44.7119067" lon="9.2937767"><ele>538.0</ele><time>2026-04-23T09:46:46.714Z</time></trkpt><trkpt lat="44.711815" lon="9.2937567"><ele>537.8333333333334</ele><time>2026-04-23T09:46:47.713Z</time></trkpt><trkpt lat="44.7117267" lon="9.293735"><ele>537.6666666666667</ele><time>2026-04-23T09:46:48.713Z</time></trkpt><trkpt lat="44.7116517" lon="9.2937133"><ele>537.5</ele><time>2026-04-23T09:46:49.713Z</time></trkpt><trkpt lat="44.71158" lon="9.29369"><ele>537.3333333333334</ele><time>2026-04-23T09:46:50.713Z</time></trkpt><trkpt lat="44.7115133" lon="9.2936767"><ele>537.1666666666666</ele><time>2026-04-23T09:46:51.712Z</time></trkpt><trkpt lat="44.711405" lon="9.29367"><ele>537.0</ele><time>2026-04-23T09:46:53.713Z</time></trkpt><trkpt lat="44.71132" lon="9.293745"><ele>537.0</ele><time>2026-04-23T09:46:55.715Z</time></trkpt><trkpt lat="44.71122" lon="9.29382"><ele>537.0</ele><time>2026-04-23T09:46:57.712Z</time></trkpt><trkpt lat="44.711115" lon="9.2938533"><ele>537.0</ele><time>2026-04-23T09:46:59.714Z</time></trkpt><trkpt lat="44.7110117" lon="9.2937933"><ele>537.0</ele><time>2026-04-23T09:47:01.713Z</time></trkpt><trkpt lat="44.71096" lon="9.29373"><ele>537.0</ele><time>2026-04-23T09:47:02.713Z</time></trkpt><trkpt lat="44.7109133" lon="9.2936617"><ele>535.2</ele><time>2026-04-23T09:47:03.713Z</time></trkpt><trkpt lat="44.7108217" lon="9.2935633"><ele>533.4000000000001</ele><time>2026-04-23T09:47:05.712Z</time></trkpt><trkpt lat="44.71072" lon="9.2935633"><ele>531.5999999999999</ele><time>2026-04-23T09:47:07.713Z</time></trkpt><trkpt lat="44.710645" lon="9.29363"><ele>529.8</ele><time>2026-04-23T09:47:09.713Z</time></trkpt><trkpt lat="44.71058" lon="9.2936717"><ele>528.0</ele><time>2026-04-23T09:47:12.712Z</time></trkpt><trkpt lat="44.7105083" lon="9.2937733"><ele>528.0</ele><time>2026-04-23T09:47:36.713Z</time></trkpt><trkpt lat="44.7104583" lon="9.29385"><ele>528.0</ele><time>2026-04-23T09:47:38.714Z</time></trkpt><trkpt lat="44.7103933" lon="9.2939567"><ele>528.0</ele><time>2026-04-23T09:47:40.714Z</time></trkpt><trkpt lat="44.71031" lon="9.294085"><ele>528.0</ele><time>2026-04-23T09:47:42.713Z</time></trkpt><trkpt lat="44.71025" lon="9.2941367"><ele>528.0</ele><time>2026-04-23T09:47:43.713Z</time></trkpt><trkpt lat="44.7101517" lon="9.2942367"><ele>525.6666666666666</ele><time>2026-04-23T09:47:45.712Z</time></trkpt><trkpt lat="44.7101067" lon="9.2943167"><ele>523.3333333333334</ele><time>2026-04-23T09:47:46.713Z</time></trkpt><trkpt lat="44.7100483" lon="9.2944217"><ele>521.0</ele><time>2026-04-23T09:47:47.712Z</time></trkpt><trkpt lat="44.7099783" lon="9.2945283"><ele>518.6666666666667</ele><time>2026-04-23T09:47:48.714Z</time></trkpt><trkpt lat="44.7099067" lon="9.2946117"><ele>516.3333333333334</ele><time>2026-04-23T09:47:49.712Z</time></trkpt><trkpt lat="44.7098367" lon="9.2946717"><ele>514.0</ele><time>2026-04-23T09:47:50.716Z</time></trkpt><trkpt lat="44.7097833" lon="9.2947233"><ele>514.0</ele><time>2026-04-23T09:47:51.712Z</time></trkpt><trkpt lat="44.7096867" lon="9.2948083"><ele>514.0</ele><time>2026-04-23T09:47:53.714Z</time></trkpt><trkpt lat="44.7095983" lon="9.2948717"><ele>514.0</ele><time>2026-04-23T09:47:56.715Z</time></trkpt><trkpt lat="44.7095083" lon="9.294905"><ele>514.0</ele><time>2026-04-23T09:47:58.713Z</time></trkpt><trkpt lat="44.7094283" lon="9.2949583"><ele>514.0</ele><time>2026-04-23T09:48:00.712Z</time></trkpt><trkpt lat="44.70935" lon="9.2950633"><ele>514.0</ele><time>2026-04-23T09:48:02.713Z</time></trkpt><trkpt lat="44.7092583" lon="9.2951517"><ele>514.0</ele><time>2026-04-23T09:48:04.713Z</time></trkpt><trkpt lat="44.709175" lon="9.2952117"><ele>514.0</ele><time>2026-04-23T09:48:06.714Z</time></trkpt><trkpt lat="44.7090917" lon="9.2952817"><ele>514.0</ele><time>2026-04-23T09:48:08.714Z</time></trkpt><trkpt lat="44.7089883" lon="9.2953883"><ele>514.0</ele><time>2026-04-23T09:48:10.713Z</time></trkpt><trkpt lat="44.7089383" lon="9.2954567"><ele>514.0</ele><time>2026-04-23T09:48:11.713Z</time></trkpt><trkpt lat="44.7088917" lon="9.295525"><ele>514.0</ele><time>2026-04-23T09:48:12.712Z</time></trkpt><trkpt lat="44.708815" lon="9.295645"><ele>514.0</ele><time>2026-04-23T09:48:14.713Z</time></trkpt><trkpt lat="44.7087267" lon="9.2957283"><ele>514.0</ele><time>2026-04-23T09:48:16.713Z</time></trkpt><trkpt lat="44.7086333" lon="9.2957683"><ele>514.0</ele><time>2026-04-23T09:48:18.713Z</time></trkpt><trkpt lat="44.7085233" lon="9.295795"><ele>514.5</ele><time>2026-04-23T09:48:20.714Z</time></trkpt><trkpt lat="44.7084567" lon="9.2958167"><ele>515.0</ele><time>2026-04-23T09:48:21.714Z</time></trkpt><trkpt lat="44.7083883" lon="9.2958417"><ele>515.5</ele><time>2026-04-23T09:48:22.713Z</time></trkpt><trkpt lat="44.7083183" lon="9.29586"><ele>516.0</ele><time>2026-04-23T09:48:23.713Z</time></trkpt><trkpt lat="44.70825" lon="9.2958867"><ele>516.5</ele><time>2026-04-23T09:48:24.712Z</time></trkpt><trkpt lat="44.70819" lon="9.29592"><ele>517.0</ele><time>2026-04-23T09:48:25.713Z</time></trkpt><trkpt lat="44.7080967" lon="9.296015"><ele>517.0</ele><time>2026-04-23T09:48:27.712Z</time></trkpt><trkpt lat="44.70805" lon="9.2960767"><ele>517.0</ele><time>2026-04-23T09:48:28.715Z</time></trkpt><trkpt lat="44.70801" lon="9.2961533"><ele>517.0</ele><time>2026-04-23T09:48:29.713Z</time></trkpt><trkpt lat="44.7079733" lon="9.2962367"><ele>517.0</ele><time>2026-04-23T09:48:30.713Z</time></trkpt><trkpt lat="44.7079683" lon="9.296335"><ele>517.0</ele><time>2026-04-23T09:48:31.712Z</time></trkpt><trkpt lat="44.7079617" lon="9.2964367"><ele>517.0</ele><time>2026-04-23T09:48:32.713Z</time></trkpt><trkpt lat="44.70796" lon="9.2965383"><ele>517.0</ele><time>2026-04-23T09:48:33.713Z</time></trkpt><trkpt lat="44.7079517" lon="9.2966317"><ele>519.6666666666667</ele><time>2026-04-23T09:48:34.713Z</time></trkpt><trkpt lat="44.70791" lon="9.2967417"><ele>522.3333333333334</ele><time>2026-04-23T09:48:36.713Z</time></trkpt><trkpt lat="44.7078333" lon="9.296715"><ele>525.0</ele><time>2026-04-23T09:49:09.713Z</time></trkpt><trkpt lat="44.7077433" lon="9.296615"><ele>527.6666666666666</ele><time>2026-04-23T09:49:11.713Z</time></trkpt><trkpt lat="44.707685" lon="9.2965783"><ele>530.3333333333333</ele><time>2026-04-23T09:49:12.713Z</time></trkpt><trkpt lat="44.7076183" lon="9.2965483"><ele>533.0</ele><time>2026-04-23T09:49:13.713Z</time></trkpt><trkpt lat="44.7075383" lon="9.29655"><ele>533.0</ele><time>2026-04-23T09:49:14.713Z</time></trkpt><trkpt lat="44.707455" lon="9.2965433"><ele>533.0</ele><time>2026-04-23T09:49:15.713Z</time></trkpt><trkpt lat="44.7073817" lon="9.296525"><ele>533.0</ele><time>2026-04-23T09:49:16.712Z</time></trkpt><trkpt lat="44.707315" lon="9.296495"><ele>533.0</ele><time>2026-04-23T09:49:17.713Z</time></trkpt><trkpt lat="44.707225" lon="9.2964233"><ele>533.0</ele><time>2026-04-23T09:49:19.713Z</time></trkpt><trkpt lat="44.707175" lon="9.2963033"><ele>533.0</ele><time>2026-04-23T09:49:32.713Z</time></trkpt><trkpt lat="44.7071467" lon="9.2961367"><ele>531.8571428571429</ele><time>2026-04-23T09:49:34.713Z</time></trkpt><trkpt lat="44.7071417" lon="9.2960367"><ele>530.7142857142857</ele><time>2026-04-23T09:49:35.713Z</time></trkpt><trkpt lat="44.7071333" lon="9.295925"><ele>529.5714285714286</ele><time>2026-04-23T09:49:36.713Z</time></trkpt><trkpt lat="44.707125" lon="9.2958167"><ele>528.4285714285714</ele><time>2026-04-23T09:49:37.713Z</time></trkpt><trkpt lat="44.7071117" lon="9.29572"><ele>527.2857142857142</ele><time>2026-04-23T09:49:38.714Z</time></trkpt><trkpt lat="44.7070833" lon="9.2956383"><ele>526.1428571428571</ele><time>2026-04-23T09:49:39.712Z</time></trkpt><trkpt lat="44.7070383" lon="9.2955683"><ele>525.0</ele><time>2026-04-23T09:49:40.712Z</time></trkpt><trkpt lat="44.7069767" lon="9.2955283"><ele>525.6666666666666</ele><time>2026-04-23T09:49:41.713Z</time></trkpt><trkpt lat="44.70691" lon="9.2955"><ele>526.3333333333334</ele><time>2026-04-23T09:49:42.713Z</time></trkpt><trkpt lat="44.706815" lon="9.29542"><ele>527.0</ele><time>2026-04-23T09:49:44.713Z</time></trkpt><trkpt lat="44.7067567" lon="9.2953517"><ele>527.6666666666667</ele><time>2026-04-23T09:49:45.712Z</time></trkpt><trkpt lat="44.7067017" lon="9.295275"><ele>528.3333333333334</ele><time>2026-04-23T09:49:46.713Z</time></trkpt><trkpt lat="44.70665" lon="9.2951983"><ele>529.0</ele><time>2026-04-23T09:49:47.713Z</time></trkpt><trkpt lat="44.7066" lon="9.2951383"><ele>529.0</ele><time>2026-04-23T09:49:48.715Z</time></trkpt><trkpt lat="44.7065333" lon="9.2950767"><ele>529.0</ele><time>2026-04-23T09:49:49.713Z</time></trkpt><trkpt lat="44.70645" lon="9.29501"><ele>529.0</ele><time>2026-04-23T09:49:50.714Z</time></trkpt><trkpt lat="44.70637" lon="9.29497"><ele>529.0</ele><time>2026-04-23T09:49:51.712Z</time></trkpt><trkpt lat="44.7062917" lon="9.2949283"><ele>529.0</ele><time>2026-04-23T09:49:52.713Z</time></trkpt><trkpt lat="44.7062067" lon="9.2948867"><ele>529.0</ele><time>2026-04-23T09:49:53.714Z</time></trkpt><trkpt lat="44.706125" lon="9.294845"><ele>528.5</ele><time>2026-04-23T09:49:54.713Z</time></trkpt><trkpt lat="44.7060383" lon="9.2947967"><ele>528.0</ele><time>2026-04-23T09:49:55.717Z</time></trkpt><trkpt lat="44.7059667" lon="9.2947517"><ele>527.5</ele><time>2026-04-23T09:49:56.713Z</time></trkpt><trkpt lat="44.705895" lon="9.29469"><ele>527.0</ele><time>2026-04-23T09:49:57.712Z</time></trkpt><trkpt lat="44.70582" lon="9.2946317"><ele>526.5</ele><time>2026-04-23T09:49:58.713Z</time></trkpt><trkpt lat="44.70574" lon="9.2945883"><ele>526.0</ele><time>2026-04-23T09:49:59.714Z</time></trkpt><trkpt lat="44.7056683" lon="9.2945783"><ele>526.0</ele><time>2026-04-23T09:50:00.713Z</time></trkpt><trkpt lat="44.7055983" lon="9.2945983"><ele>526.0</ele><time>2026-04-23T09:50:01.713Z</time></trkpt><trkpt lat="44.7055283" lon="9.2946433"><ele>526.0</ele><time>2026-04-23T09:50:02.713Z</time></trkpt><trkpt lat="44.705465" lon="9.2947033"><ele>526.0</ele><time>2026-04-23T09:50:03.713Z</time></trkpt><trkpt lat="44.705425" lon="9.29478"><ele>526.0</ele><time>2026-04-23T09:50:04.713Z</time></trkpt><trkpt lat="44.7053833" lon="9.2948617"><ele>526.0</ele><time>2026-04-23T09:50:05.714Z</time></trkpt><trkpt lat="44.7053467" lon="9.2949483"><ele>526.0</ele><time>2026-04-23T09:50:06.713Z</time></trkpt><trkpt lat="44.70531" lon="9.2950417"><ele>528.0</ele><time>2026-04-23T09:50:07.713Z</time></trkpt><trkpt lat="44.7052717" lon="9.295125"><ele>530.0</ele><time>2026-04-23T09:50:08.715Z</time></trkpt><trkpt lat="44.7051933" lon="9.2952333"><ele>532.0</ele><time>2026-04-23T09:50:10.714Z</time></trkpt><trkpt lat="44.7051" lon="9.29527"><ele>534.0</ele><time>2026-04-23T09:50:12.714Z</time></trkpt><trkpt lat="44.705025" lon="9.2952617"><ele>536.0</ele><time>2026-04-23T09:50:14.713Z</time></trkpt><trkpt lat="44.7049867" lon="9.2951767"><ele>538.0</ele><time>2026-04-23T09:50:16.714Z</time></trkpt><trkpt lat="44.7049633" lon="9.2950583"><ele>539.0</ele><time>2026-04-23T09:50:18.713Z</time></trkpt><trkpt lat="44.70491" lon="9.29493"><ele>540.0</ele><time>2026-04-23T09:50:20.714Z</time></trkpt><trkpt lat="44.7048417" lon="9.294835"><ele>541.0</ele><time>2026-04-23T09:50:22.714Z</time></trkpt><trkpt lat="44.7047867" lon="9.2947283"><ele>542.0</ele><time>2026-04-23T09:50:24.714Z</time></trkpt><trkpt lat="44.7047167" lon="9.2946417"><ele>543.0</ele><time>2026-04-23T09:50:26.715Z</time></trkpt><trkpt lat="44.7046083" lon="9.29459"><ele>541.6</ele><time>2026-04-23T09:50:28.716Z</time></trkpt><trkpt lat="44.7045133" lon="9.2945467"><ele>540.1999999999999</ele><time>2026-04-23T09:50:30.715Z</time></trkpt><trkpt lat="44.7044283" lon="9.2945317"><ele>538.8</ele><time>2026-04-23T09:50:32.713Z</time></trkpt><trkpt lat="44.70433" lon="9.2945033"><ele>537.4</ele><time>2026-04-23T09:50:34.713Z</time></trkpt><trkpt lat="44.704225" lon="9.29446"><ele>536.0</ele><time>2026-04-23T09:50:36.713Z</time></trkpt><trkpt lat="44.704165" lon="9.2944267"><ele>536.0</ele><time>2026-04-23T09:50:37.713Z</time></trkpt><trkpt lat="44.7041033" lon="9.29439"><ele>536.0</ele><time>2026-04-23T09:50:38.713Z</time></trkpt><trkpt lat="44.7040433" lon="9.2943533"><ele>536.0</ele><time>2026-04-23T09:50:39.713Z</time></trkpt><trkpt lat="44.703985" lon="9.2943183"><ele>536.0</ele><time>2026-04-23T09:50:40.713Z</time></trkpt><trkpt lat="44.7038833" lon="9.2942483"><ele>536.0</ele><time>2026-04-23T09:50:42.713Z</time></trkpt><trkpt lat="44.703795" lon="9.2941483"><ele>536.0</ele><time>2026-04-23T09:50:44.713Z</time></trkpt><trkpt lat="44.7036717" lon="9.2940517"><ele>536.0</ele><time>2026-04-23T09:50:46.712Z</time></trkpt><trkpt lat="44.7035933" lon="9.2940067"><ele>536.0</ele><time>2026-04-23T09:50:47.714Z</time></trkpt><trkpt lat="44.7035083" lon="9.2939667"><ele>536.0</ele><time>2026-04-23T09:50:48.712Z</time></trkpt><trkpt lat="44.7034317" lon="9.293935"><ele>536.0</ele><time>2026-04-23T09:50:49.712Z</time></trkpt><trkpt lat="44.7033483" lon="9.2939217"><ele>536.0</ele><time>2026-04-23T09:50:50.713Z</time></trkpt><trkpt lat="44.7032517" lon="9.2939117"><ele>536.0</ele><time>2026-04-23T09:50:51.713Z</time></trkpt><trkpt lat="44.7031683" lon="9.2939017"><ele>533.8</ele><time>2026-04-23T09:50:52.713Z</time></trkpt><trkpt lat="44.7030817" lon="9.2938783"><ele>531.6</ele><time>2026-04-23T09:50:53.713Z</time></trkpt><trkpt lat="44.7029967" lon="9.293845"><ele>529.4</ele><time>2026-04-23T09:50:54.713Z</time></trkpt><trkpt lat="44.7029033" lon="9.2937967"><ele>527.2</ele><time>2026-04-23T09:50:55.713Z</time></trkpt><trkpt lat="44.7028033" lon="9.2937467"><ele>525.0</ele><time>2026-04-23T09:50:56.713Z</time></trkpt><trkpt lat="44.702705" lon="9.2936883"><ele>525.0</ele><time>2026-04-23T09:50:57.712Z</time></trkpt><trkpt lat="44.7026133" lon="9.2936367"><ele>525.0</ele><time>2026-04-23T09:50:58.713Z</time></trkpt><trkpt lat="44.7025267" lon="9.2935983"><ele>525.0</ele><time>2026-04-23T09:50:59.714Z</time></trkpt><trkpt lat="44.7024533" lon="9.29358"><ele>525.0</ele><time>2026-04-23T09:51:00.714Z</time></trkpt><trkpt lat="44.7023767" lon="9.29359"><ele>525.0</ele><time>2026-04-23T09:51:01.714Z</time></trkpt><trkpt lat="44.7022983" lon="9.29363"><ele>525.0</ele><time>2026-04-23T09:51:02.713Z</time></trkpt><trkpt lat="44.7022317" lon="9.2936733"><ele>525.0</ele><time>2026-04-23T09:51:03.712Z</time></trkpt><trkpt lat="44.702165" lon="9.29372"><ele>525.0</ele><time>2026-04-23T09:51:04.713Z</time></trkpt><trkpt lat="44.702095" lon="9.2937433"><ele>525.0</ele><time>2026-04-23T09:51:05.713Z</time></trkpt><trkpt lat="44.702015" lon="9.2937433"><ele>525.0</ele><time>2026-04-23T09:51:06.713Z</time></trkpt><trkpt lat="44.7019317" lon="9.2937383"><ele>525.0</ele><time>2026-04-23T09:51:07.713Z</time></trkpt><trkpt lat="44.701845" lon="9.2937317"><ele>525.0</ele><time>2026-04-23T09:51:08.714Z</time></trkpt><trkpt lat="44.70176" lon="9.2937267"><ele>525.1666666666666</ele><time>2026-04-23T09:51:09.712Z</time></trkpt><trkpt lat="44.70167" lon="9.2937333"><ele>525.3333333333334</ele><time>2026-04-23T09:51:10.713Z</time></trkpt><trkpt lat="44.7015833" lon="9.2937517"><ele>525.5</ele><time>2026-04-23T09:51:11.713Z</time></trkpt><trkpt lat="44.7015033" lon="9.2937683"><ele>525.6666666666667</ele><time>2026-04-23T09:51:12.713Z</time></trkpt><trkpt lat="44.7014317" lon="9.2937917"><ele>525.8333333333334</ele><time>2026-04-23T09:51:13.713Z</time></trkpt><trkpt lat="44.701365" lon="9.29382"><ele>526.0</ele><time>2026-04-23T09:51:14.714Z</time></trkpt><trkpt lat="44.7013017" lon="9.2938483"><ele>526.0</ele><time>2026-04-23T09:51:15.712Z</time></trkpt><trkpt lat="44.70124" lon="9.29388"><ele>526.0</ele><time>2026-04-23T09:51:16.714Z</time></trkpt><trkpt lat="44.7011767" lon="9.2939267"><ele>526.0</ele><time>2026-04-23T09:51:17.714Z</time></trkpt><trkpt lat="44.701115" lon="9.2939783"><ele>526.0</ele><time>2026-04-23T09:51:18.712Z</time></trkpt><trkpt lat="44.70106" lon="9.2940267"><ele>526.0</ele><time>2026-04-23T09:51:19.713Z</time></trkpt><trkpt lat="44.70097" lon="9.294115"><ele>526.0</ele><time>2026-04-23T09:51:21.713Z</time></trkpt><trkpt lat="44.70088" lon="9.2942133"><ele>527.0</ele><time>2026-04-23T09:51:23.717Z</time></trkpt><trkpt lat="44.700835" lon="9.2942867"><ele>528.0</ele><time>2026-04-23T09:51:24.714Z</time></trkpt><trkpt lat="44.7007917" lon="9.2943717"><ele>529.0</ele><time>2026-04-23T09:51:25.713Z</time></trkpt><trkpt lat="44.7007517" lon="9.294465"><ele>530.0</ele><time>2026-04-23T09:51:26.713Z</time></trkpt><trkpt lat="44.700715" lon="9.29456"><ele>531.0</ele><time>2026-04-23T09:51:27.713Z</time></trkpt><trkpt lat="44.7006917" lon="9.2946633"><ele>532.0</ele><time>2026-04-23T09:51:28.713Z</time></trkpt><trkpt lat="44.7006633" lon="9.2947733"><ele>532.5</ele><time>2026-04-23T09:51:29.713Z</time></trkpt><trkpt lat="44.70063" lon="9.2948867"><ele>533.0</ele><time>2026-04-23T09:51:30.713Z</time></trkpt><trkpt lat="44.700595" lon="9.2950067"><ele>533.5</ele><time>2026-04-23T09:51:31.713Z</time></trkpt><trkpt lat="44.70056" lon="9.2951267"><ele>534.0</ele><time>2026-04-23T09:51:32.714Z</time></trkpt><trkpt lat="44.7005283" lon="9.2952367"><ele>534.5</ele><time>2026-04-23T09:51:33.714Z</time></trkpt><trkpt lat="44.7004883" lon="9.2953317"><ele>535.0</ele><time>2026-04-23T09:51:34.714Z</time></trkpt><trkpt lat="44.7004333" lon="9.2954"><ele>535.0</ele><time>2026-04-23T09:51:35.714Z</time></trkpt><trkpt lat="44.7003733" lon="9.29544"><ele>535.0</ele><time>2026-04-23T09:51:36.713Z</time></trkpt><trkpt lat="44.7003033" lon="9.295475"><ele>535.0</ele><time>2026-04-23T09:51:37.714Z</time></trkpt><trkpt lat="44.7002333" lon="9.295515"><ele>535.0</ele><time>2026-04-23T09:51:38.714Z</time></trkpt><trkpt lat="44.7001617" lon="9.29556"><ele>535.0</ele><time>2026-04-23T09:51:39.714Z</time></trkpt><trkpt lat="44.7000833" lon="9.2956067"><ele>535.0</ele><time>2026-04-23T09:51:40.714Z</time></trkpt><trkpt lat="44.7000083" lon="9.2956583"><ele>534.0</ele><time>2026-04-23T09:51:41.714Z</time></trkpt><trkpt lat="44.69993" lon="9.2957133"><ele>533.0</ele><time>2026-04-23T09:51:42.713Z</time></trkpt><trkpt lat="44.6998483" lon="9.2957767"><ele>532.0</ele><time>2026-04-23T09:51:43.714Z</time></trkpt><trkpt lat="44.6997533" lon="9.2958467"><ele>531.0</ele><time>2026-04-23T09:51:44.714Z</time></trkpt><trkpt lat="44.6996483" lon="9.2959217"><ele>530.0</ele><time>2026-04-23T09:51:45.712Z</time></trkpt><trkpt lat="44.699535" lon="9.2960067"><ele>530.0</ele><time>2026-04-23T09:51:46.714Z</time></trkpt><trkpt lat="44.6994217" lon="9.29611"><ele>530.0</ele><time>2026-04-23T09:51:47.714Z</time></trkpt><trkpt lat="44.699315" lon="9.296235"><ele>530.0</ele><time>2026-04-23T09:51:48.713Z</time></trkpt><trkpt lat="44.69921" lon="9.2963717"><ele>530.0</ele><time>2026-04-23T09:51:49.713Z</time></trkpt><trkpt lat="44.6991117" lon="9.2965117"><ele>527.75</ele><time>2026-04-23T09:51:50.714Z</time></trkpt><trkpt lat="44.6990133" lon="9.2966533"><ele>525.5</ele><time>2026-04-23T09:51:51.713Z</time></trkpt><trkpt lat="44.6989217" lon="9.2967933"><ele>523.25</ele><time>2026-04-23T09:51:52.713Z</time></trkpt><trkpt lat="44.69885" lon="9.2969367"><ele>521.0</ele><time>2026-04-23T09:51:53.713Z</time></trkpt><trkpt lat="44.6987883" lon="9.2970867"><ele>521.0</ele><time>2026-04-23T09:51:54.714Z</time></trkpt><trkpt lat="44.6987333" lon="9.2972383"><ele>521.0</ele><time>2026-04-23T09:51:55.714Z</time></trkpt><trkpt lat="44.6986783" lon="9.2973817"><ele>521.0</ele><time>2026-04-23T09:51:56.714Z</time></trkpt><trkpt lat="44.698615" lon="9.2974867"><ele>521.0</ele><time>2026-04-23T09:51:57.713Z</time></trkpt><trkpt lat="44.69853" lon="9.2975483"><ele>521.0</ele><time>2026-04-23T09:51:58.714Z</time></trkpt><trkpt lat="44.698435" lon="9.297545"><ele>517.25</ele><time>2026-04-23T09:51:59.714Z</time></trkpt><trkpt lat="44.6983233" lon="9.2975083"><ele>513.5</ele><time>2026-04-23T09:52:00.712Z</time></trkpt><trkpt lat="44.6982" lon="9.29746"><ele>509.75</ele><time>2026-04-23T09:52:01.713Z</time></trkpt><trkpt lat="44.69808" lon="9.29741"><ele>506.0</ele><time>2026-04-23T09:52:02.714Z</time></trkpt><trkpt lat="44.697965" lon="9.2973567"><ele>506.0</ele><time>2026-04-23T09:52:03.713Z</time></trkpt><trkpt lat="44.69785" lon="9.2973117"><ele>506.0</ele><time>2026-04-23T09:52:04.713Z</time></trkpt><trkpt lat="44.6977383" lon="9.2972983"><ele>506.0</ele><time>2026-04-23T09:52:05.714Z</time></trkpt><trkpt lat="44.697635" lon="9.297325"><ele>506.0</ele><time>2026-04-23T09:52:06.713Z</time></trkpt><trkpt lat="44.6975367" lon="9.2973917"><ele>506.0</ele><time>2026-04-23T09:52:07.713Z</time></trkpt><trkpt lat="44.6974417" lon="9.29749"><ele>503.5</ele><time>2026-04-23T09:52:08.713Z</time></trkpt><trkpt lat="44.6973417" lon="9.2976117"><ele>501.0</ele><time>2026-04-23T09:52:09.712Z</time></trkpt><trkpt lat="44.6972483" lon="9.29774"><ele>498.5</ele><time>2026-04-23T09:52:10.713Z</time></trkpt><trkpt lat="44.697155" lon="9.2978683"><ele>496.0</ele><time>2026-04-23T09:52:11.713Z</time></trkpt><trkpt lat="44.69707" lon="9.2980017"><ele>497.0</ele><time>2026-04-23T09:52:12.715Z</time></trkpt><trkpt lat="44.697" lon="9.2981367"><ele>498.0</ele><time>2026-04-23T09:52:13.713Z</time></trkpt><trkpt lat="44.6969383" lon="9.29828"><ele>499.0</ele><time>2026-04-23T09:52:14.714Z</time></trkpt><trkpt lat="44.696905" lon="9.2984267"><ele>500.0</ele><time>2026-04-23T09:52:15.713Z</time></trkpt><trkpt lat="44.6969067" lon="9.2985717"><ele>496.8</ele><time>2026-04-23T09:52:16.717Z</time></trkpt><trkpt lat="44.6969183" lon="9.298715"><ele>493.6</ele><time>2026-04-23T09:52:17.714Z</time></trkpt><trkpt lat="44.696915" lon="9.298855"><ele>490.4</ele><time>2026-04-23T09:52:18.713Z</time></trkpt><trkpt lat="44.6968867" lon="9.2989867"><ele>487.2</ele><time>2026-04-23T09:52:19.714Z</time></trkpt><trkpt lat="44.6968267" lon="9.2991233"><ele>484.0</ele><time>2026-04-23T09:52:20.714Z</time></trkpt><trkpt lat="44.69676" lon="9.2992633"><ele>484.0</ele><time>2026-04-23T09:52:21.713Z</time></trkpt><trkpt lat="44.6966983" lon="9.299415"><ele>484.0</ele><time>2026-04-23T09:52:22.715Z</time></trkpt><trkpt lat="44.69665" lon="9.29957"><ele>484.0</ele><time>2026-04-23T09:52:23.713Z</time></trkpt><trkpt lat="44.6966183" lon="9.2997267"><ele>484.0</ele><time>2026-04-23T09:52:24.713Z</time></trkpt><trkpt lat="44.6965983" lon="9.2998833"><ele>484.0</ele><time>2026-04-23T09:52:25.713Z</time></trkpt><trkpt lat="44.6965767" lon="9.3000317"><ele>484.0</ele><time>2026-04-23T09:52:26.715Z</time></trkpt><trkpt lat="44.69654" lon="9.3001567"><ele>484.0</ele><time>2026-04-23T09:52:27.714Z</time></trkpt><trkpt lat="44.69648" lon="9.3002417"><ele>484.0</ele><time>2026-04-23T09:52:28.713Z</time></trkpt><trkpt lat="44.6964033" lon="9.300295"><ele>484.0</ele><time>2026-04-23T09:52:29.714Z</time></trkpt><trkpt lat="44.6963117" lon="9.300305"><ele>484.0</ele><time>2026-04-23T09:52:30.715Z</time></trkpt><trkpt lat="44.6962133" lon="9.300315"><ele>484.0</ele><time>2026-04-23T09:52:31.715Z</time></trkpt><trkpt lat="44.696105" lon="9.3003517"><ele>484.0</ele><time>2026-04-23T09:52:32.714Z</time></trkpt><trkpt lat="44.6959917" lon="9.300415"><ele>484.0</ele><time>2026-04-23T09:52:33.713Z</time></trkpt><trkpt lat="44.6958683" lon="9.3004967"><ele>483.5</ele><time>2026-04-23T09:52:34.713Z</time></trkpt><trkpt lat="44.695745" lon="9.3005817"><ele>483.0</ele><time>2026-04-23T09:52:35.719Z</time></trkpt><trkpt lat="44.69562" lon="9.30066"><ele>482.5</ele><time>2026-04-23T09:52:36.713Z</time></trkpt><trkpt lat="44.6954967" lon="9.30074"><ele>482.0</ele><time>2026-04-23T09:52:37.713Z</time></trkpt><trkpt lat="44.6953733" lon="9.300815"><ele>478.0</ele><time>2026-04-23T09:52:38.714Z</time></trkpt><trkpt lat="44.6952467" lon="9.3008767"><ele>474.0</ele><time>2026-04-23T09:52:39.714Z</time></trkpt><trkpt lat="44.6951183" lon="9.3009167"><ele>470.0</ele><time>2026-04-23T09:52:40.714Z</time></trkpt><trkpt lat="44.6949917" lon="9.3009233"><ele>466.0</ele><time>2026-04-23T09:52:41.714Z</time></trkpt><trkpt lat="44.6948717" lon="9.3008817"><ele>466.0</ele><time>2026-04-23T09:52:42.713Z</time></trkpt><trkpt lat="44.6947617" lon="9.3008367"><ele>466.0</ele><time>2026-04-23T09:52:43.713Z</time></trkpt><trkpt lat="44.6946617" lon="9.3008167"><ele>466.0</ele><time>2026-04-23T09:52:44.713Z</time></trkpt><trkpt lat="44.6945683" lon="9.3008467"><ele>466.0</ele><time>2026-04-23T09:52:45.713Z</time></trkpt><trkpt lat="44.6944783" lon="9.3009233"><ele>466.0</ele><time>2026-04-23T09:52:46.712Z</time></trkpt><trkpt lat="44.6943917" lon="9.3010367"><ele>464.75</ele><time>2026-04-23T09:52:47.713Z</time></trkpt><trkpt lat="44.6942933" lon="9.3011633"><ele>463.5</ele><time>2026-04-23T09:52:48.715Z</time></trkpt><trkpt lat="44.6941883" lon="9.3012867"><ele>462.25</ele><time>2026-04-23T09:52:49.715Z</time></trkpt><trkpt lat="44.6940767" lon="9.3013917"><ele>461.0</ele><time>2026-04-23T09:52:50.714Z</time></trkpt><trkpt lat="44.6939633" lon="9.3014867"><ele>461.0</ele><time>2026-04-23T09:52:51.712Z</time></trkpt><trkpt lat="44.6938517" lon="9.3015733"><ele>461.0</ele><time>2026-04-23T09:52:52.714Z</time></trkpt><trkpt lat="44.69374" lon="9.30164"><ele>461.0</ele><time>2026-04-23T09:52:53.714Z</time></trkpt><trkpt lat="44.6936383" lon="9.301675"><ele>461.0</ele><time>2026-04-23T09:52:54.713Z</time></trkpt><trkpt lat="44.6935417" lon="9.3016517"><ele>460.0</ele><time>2026-04-23T09:52:55.714Z</time></trkpt><trkpt lat="44.69346" lon="9.3015783"><ele>459.0</ele><time>2026-04-23T09:52:56.713Z</time></trkpt><trkpt lat="44.6933883" lon="9.3014683"><ele>458.0</ele><time>2026-04-23T09:52:57.713Z</time></trkpt><trkpt lat="44.6933233" lon="9.301345"><ele>457.0</ele><time>2026-04-23T09:52:58.715Z</time></trkpt><trkpt lat="44.6932567" lon="9.30123"><ele>456.0</ele><time>2026-04-23T09:52:59.714Z</time></trkpt><trkpt lat="44.6931817" lon="9.3011317"><ele>451.4</ele><time>2026-04-23T09:53:00.714Z</time></trkpt><trkpt lat="44.693095" lon="9.3010717"><ele>446.8</ele><time>2026-04-23T09:53:01.714Z</time></trkpt><trkpt lat="44.6930033" lon="9.3010717"><ele>442.19999999999993</ele><time>2026-04-23T09:53:02.715Z</time></trkpt><trkpt lat="44.6929117" lon="9.3011333"><ele>437.59999999999997</ele><time>2026-04-23T09:53:03.714Z</time></trkpt><trkpt lat="44.6928217" lon="9.30124"><ele>433.0</ele><time>2026-04-23T09:53:04.713Z</time></trkpt><trkpt lat="44.69273" lon="9.3013683"><ele>434.25</ele><time>2026-04-23T09:53:05.714Z</time></trkpt><trkpt lat="44.692635" lon="9.30151"><ele>435.5</ele><time>2026-04-23T09:53:06.713Z</time></trkpt><trkpt lat="44.6925367" lon="9.301645"><ele>436.75</ele><time>2026-04-23T09:53:07.712Z</time></trkpt><trkpt lat="44.69244" lon="9.301765"><ele>438.0</ele><time>2026-04-23T09:53:08.714Z</time></trkpt><trkpt lat="44.6923433" lon="9.301875"><ele>438.0</ele><time>2026-04-23T09:53:09.712Z</time></trkpt><trkpt lat="44.6922467" lon="9.301975"><ele>438.0</ele><time>2026-04-23T09:53:10.713Z</time></trkpt><trkpt lat="44.6921467" lon="9.3020633"><ele>438.0</ele><time>2026-04-23T09:53:11.713Z</time></trkpt><trkpt lat="44.692045" lon="9.3021367"><ele>438.0</ele><time>2026-04-23T09:53:12.714Z</time></trkpt><trkpt lat="44.6919433" lon="9.3021967"><ele>436.0</ele><time>2026-04-23T09:53:13.714Z</time></trkpt><trkpt lat="44.6918433" lon="9.3022533"><ele>434.0</ele><time>2026-04-23T09:53:14.714Z</time></trkpt><trkpt lat="44.6917467" lon="9.3023217"><ele>432.0</ele><time>2026-04-23T09:53:15.713Z</time></trkpt><trkpt lat="44.69165" lon="9.3024233"><ele>430.0</ele><time>2026-04-23T09:53:16.713Z</time></trkpt><trkpt lat="44.6915617" lon="9.3025567"><ele>430.0</ele><time>2026-04-23T09:53:17.714Z</time></trkpt><trkpt lat="44.69148" lon="9.3027133"><ele>430.0</ele><time>2026-04-23T09:53:18.714Z</time></trkpt><trkpt lat="44.6914033" lon="9.30287"><ele>430.0</ele><time>2026-04-23T09:53:19.714Z</time></trkpt><trkpt lat="44.6913317" lon="9.3030217"><ele>430.0</ele><time>2026-04-23T09:53:20.714Z</time></trkpt><trkpt lat="44.691255" lon="9.3031617"><ele>427.5</ele><time>2026-04-23T09:53:21.713Z</time></trkpt><trkpt lat="44.691165" lon="9.30328"><ele>425.0</ele><time>2026-04-23T09:53:22.713Z</time></trkpt><trkpt lat="44.6910683" lon="9.3033517"><ele>422.5</ele><time>2026-04-23T09:53:23.715Z</time></trkpt><trkpt lat="44.6909617" lon="9.3033817"><ele>420.0</ele><time>2026-04-23T09:53:24.712Z</time></trkpt><trkpt lat="44.6908433" lon="9.3033917"><ele>420.0</ele><time>2026-04-23T09:53:25.713Z</time></trkpt><trkpt lat="44.6907367" lon="9.3033933"><ele>420.0</ele><time>2026-04-23T09:53:26.715Z</time></trkpt><trkpt lat="44.6906433" lon="9.303395"><ele>420.0</ele><time>2026-04-23T09:53:27.713Z</time></trkpt><trkpt lat="44.6905617" lon="9.3033917"><ele>420.0</ele><time>2026-04-23T09:53:28.713Z</time></trkpt><trkpt lat="44.6904633" lon="9.3033817"><ele>420.0</ele><time>2026-04-23T09:53:30.714Z</time></trkpt><trkpt lat="44.69038" lon="9.3033167"><ele>420.0</ele><time>2026-04-23T09:53:34.714Z</time></trkpt><trkpt lat="44.6902983" lon="9.3032183"><ele>420.0</ele><time>2026-04-23T09:53:36.713Z</time></trkpt><trkpt lat="44.69025" lon="9.3031483"><ele>420.0</ele><time>2026-04-23T09:53:37.714Z</time></trkpt><trkpt lat="44.6902" lon="9.303075"><ele>420.0</ele><time>2026-04-23T09:53:38.715Z</time></trkpt><trkpt lat="44.6901467" lon="9.3030117"><ele>420.0</ele><time>2026-04-23T09:53:39.713Z</time></trkpt><trkpt lat="44.6900783" lon="9.30299"><ele>420.0</ele><time>2026-04-23T09:53:40.714Z</time></trkpt><trkpt lat="44.6900067" lon="9.3030117"><ele>418.0</ele><time>2026-04-23T09:53:41.714Z</time></trkpt><trkpt lat="44.6899417" lon="9.3030767"><ele>416.0</ele><time>2026-04-23T09:53:42.713Z</time></trkpt><trkpt lat="44.6898817" lon="9.3031667"><ele>414.0</ele><time>2026-04-23T09:53:43.714Z</time></trkpt><trkpt lat="44.6898217" lon="9.30326"><ele>412.0</ele><time>2026-04-23T09:53:44.716Z</time></trkpt><trkpt lat="44.6897567" lon="9.3033583"><ele>410.0</ele><time>2026-04-23T09:53:45.714Z</time></trkpt><trkpt lat="44.68969" lon="9.30346"><ele>410.0</ele><time>2026-04-23T09:53:46.713Z</time></trkpt><trkpt lat="44.6896183" lon="9.3035633"><ele>410.0</ele><time>2026-04-23T09:53:47.715Z</time></trkpt><trkpt lat="44.6895433" lon="9.3036667"><ele>410.0</ele><time>2026-04-23T09:53:48.713Z</time></trkpt><trkpt lat="44.6894667" lon="9.30377"><ele>410.0</ele><time>2026-04-23T09:53:49.714Z</time></trkpt><trkpt lat="44.6893967" lon="9.30388"><ele>410.0</ele><time>2026-04-23T09:53:50.715Z</time></trkpt><trkpt lat="44.6893383" lon="9.3040033"><ele>407.0</ele><time>2026-04-23T09:53:51.714Z</time></trkpt><trkpt lat="44.6892933" lon="9.3041367"><ele>404.0</ele><time>2026-04-23T09:53:52.715Z</time></trkpt><trkpt lat="44.689265" lon="9.3042783"><ele>401.0</ele><time>2026-04-23T09:53:53.716Z</time></trkpt><trkpt lat="44.6892333" lon="9.3044267"><ele>398.0</ele><time>2026-04-23T09:53:54.713Z</time></trkpt><trkpt lat="44.6891933" lon="9.3045717"><ele>395.0</ele><time>2026-04-23T09:53:55.714Z</time></trkpt><trkpt lat="44.6891417" lon="9.3047133"><ele>395.6</ele><time>2026-04-23T09:53:56.714Z</time></trkpt><trkpt lat="44.6890817" lon="9.3048483"><ele>396.2</ele><time>2026-04-23T09:53:57.713Z</time></trkpt><trkpt lat="44.6890233" lon="9.30498"><ele>396.79999999999995</ele><time>2026-04-23T09:53:58.714Z</time></trkpt><trkpt lat="44.688975" lon="9.305115"><ele>397.4</ele><time>2026-04-23T09:53:59.715Z</time></trkpt><trkpt lat="44.688935" lon="9.30526"><ele>398.0</ele><time>2026-04-23T09:54:00.713Z</time></trkpt><trkpt lat="44.6889083" lon="9.3054083"><ele>398.0</ele><time>2026-04-23T09:54:01.714Z</time></trkpt><trkpt lat="44.688885" lon="9.3055633"><ele>398.0</ele><time>2026-04-23T09:54:02.714Z</time></trkpt><trkpt lat="44.6888583" lon="9.3057167"><ele>398.0</ele><time>2026-04-23T09:54:03.713Z</time></trkpt><trkpt lat="44.688825" lon="9.3058683"><ele>398.0</ele><time>2026-04-23T09:54:04.714Z</time></trkpt><trkpt lat="44.6887783" lon="9.3060217"><ele>399.2</ele><time>2026-04-23T09:54:05.713Z</time></trkpt><trkpt lat="44.68872" lon="9.3061683"><ele>400.4</ele><time>2026-04-23T09:54:06.713Z</time></trkpt><trkpt lat="44.6886483" lon="9.3062983"><ele>401.59999999999997</ele><time>2026-04-23T09:54:07.715Z</time></trkpt><trkpt lat="44.68856" lon="9.3063983"><ele>402.79999999999995</ele><time>2026-04-23T09:54:08.714Z</time></trkpt><trkpt lat="44.6884717" lon="9.30646"><ele>404.0</ele><time>2026-04-23T09:54:09.713Z</time></trkpt><trkpt lat="44.6883783" lon="9.3064833"><ele>400.79999999999995</ele><time>2026-04-23T09:54:10.715Z</time></trkpt><trkpt lat="44.6883033" lon="9.30648"><ele>397.59999999999997</ele><time>2026-04-23T09:54:11.713Z</time></trkpt><trkpt lat="44.68822" lon="9.3064517"><ele>394.4</ele><time>2026-04-23T09:54:13.714Z</time></trkpt><trkpt lat="44.688095" lon="9.306425"><ele>391.2</ele><time>2026-04-23T09:55:15.713Z</time></trkpt><trkpt lat="44.6879517" lon="9.306405"><ele>388.0</ele><time>2026-04-23T09:55:17.713Z</time></trkpt><trkpt lat="44.6878633" lon="9.3064017"><ele>388.00000000000006</ele><time>2026-04-23T09:55:18.713Z</time></trkpt><trkpt lat="44.68778" lon="9.3064117"><ele>388.0</ele><time>2026-04-23T09:55:19.714Z</time></trkpt><trkpt lat="44.6877067" lon="9.3064433"><ele>388.0</ele><time>2026-04-23T09:55:20.714Z</time></trkpt><trkpt lat="44.68765" lon="9.30651"><ele>388.0</ele><time>2026-04-23T09:55:21.713Z</time></trkpt><trkpt lat="44.687615" lon="9.3066167"><ele>388.00000000000006</ele><time>2026-04-23T09:55:22.713Z</time></trkpt><trkpt lat="44.6876" lon="9.3067367"><ele>388.0</ele><time>2026-04-23T09:55:23.716Z</time></trkpt><trkpt lat="44.68758" lon="9.3068517"><ele>390.2</ele><time>2026-04-23T09:55:24.715Z</time></trkpt><trkpt lat="44.6875433" lon="9.3069517"><ele>392.4</ele><time>2026-04-23T09:55:25.713Z</time></trkpt><trkpt lat="44.6874817" lon="9.307025"><ele>394.59999999999997</ele><time>2026-04-23T09:55:26.716Z</time></trkpt><trkpt lat="44.687405" lon="9.3070933"><ele>396.79999999999995</ele><time>2026-04-23T09:55:27.713Z</time></trkpt><trkpt lat="44.6873183" lon="9.307155"><ele>399.0</ele><time>2026-04-23T09:55:28.714Z</time></trkpt><trkpt lat="44.6872267" lon="9.3072167"><ele>397.79999999999995</ele><time>2026-04-23T09:55:29.712Z</time></trkpt><trkpt lat="44.687145" lon="9.3073033"><ele>396.59999999999997</ele><time>2026-04-23T09:55:30.712Z</time></trkpt><trkpt lat="44.6870783" lon="9.30741"><ele>395.4</ele><time>2026-04-23T09:55:31.713Z</time></trkpt><trkpt lat="44.687015" lon="9.307505"><ele>394.2</ele><time>2026-04-23T09:55:32.714Z</time></trkpt><trkpt lat="44.6869483" lon="9.307555"><ele>393.0</ele><time>2026-04-23T09:55:33.713Z</time></trkpt><trkpt lat="44.6868517" lon="9.3074867"><ele>394.2</ele><time>2026-04-23T09:55:35.713Z</time></trkpt><trkpt lat="44.6868567" lon="9.3073833"><ele>395.4</ele><time>2026-04-23T09:55:36.712Z</time></trkpt><trkpt lat="44.6869" lon="9.3072817"><ele>396.59999999999997</ele><time>2026-04-23T09:55:37.713Z</time></trkpt><trkpt lat="44.6869717" lon="9.3071833"><ele>397.79999999999995</ele><time>2026-04-23T09:55:38.713Z</time></trkpt><trkpt lat="44.68705" lon="9.3070917"><ele>399.0</ele><time>2026-04-23T09:55:39.712Z</time></trkpt><trkpt lat="44.6871333" lon="9.307005"><ele>399.0</ele><time>2026-04-23T09:55:40.713Z</time></trkpt><trkpt lat="44.68721" lon="9.30691"><ele>399.0</ele><time>2026-04-23T09:55:41.718Z</time></trkpt><trkpt lat="44.6872783" lon="9.3068017"><ele>399.0</ele><time>2026-04-23T09:55:42.712Z</time></trkpt><trkpt lat="44.68732" lon="9.3066683"><ele>399.0</ele><time>2026-04-23T09:55:43.713Z</time></trkpt><trkpt lat="44.6873367" lon="9.3065133"><ele>399.0</ele><time>2026-04-23T09:55:44.713Z</time></trkpt><trkpt lat="44.68735" lon="9.30635"><ele>401.0</ele><time>2026-04-23T09:55:45.712Z</time></trkpt><trkpt lat="44.6873683" lon="9.3061783"><ele>403.0</ele><time>2026-04-23T09:55:46.713Z</time></trkpt><trkpt lat="44.6873933" lon="9.3059917"><ele>405.0</ele><time>2026-04-23T09:55:47.713Z</time></trkpt><trkpt lat="44.6874183" lon="9.3057917"><ele>407.0</ele><time>2026-04-23T09:55:48.714Z</time></trkpt><trkpt lat="44.687445" lon="9.305585"><ele>408.0</ele><time>2026-04-23T09:55:49.715Z</time></trkpt><trkpt lat="44.6874683" lon="9.3053783"><ele>409.0</ele><time>2026-04-23T09:55:50.713Z</time></trkpt><trkpt lat="44.6874833" lon="9.3051717"><ele>410.0</ele><time>2026-04-23T09:55:51.712Z</time></trkpt><trkpt lat="44.6874967" lon="9.30498"><ele>411.0</ele><time>2026-04-23T09:55:52.713Z</time></trkpt><trkpt lat="44.6874983" lon="9.30481"><ele>410.4</ele><time>2026-04-23T09:55:53.713Z</time></trkpt><trkpt lat="44.6874917" lon="9.30466"><ele>409.8</ele><time>2026-04-23T09:55:54.713Z</time></trkpt><trkpt lat="44.687465" lon="9.30453"><ele>409.2</ele><time>2026-04-23T09:55:55.713Z</time></trkpt><trkpt lat="44.6874117" lon="9.3044183"><ele>408.59999999999997</ele><time>2026-04-23T09:55:56.713Z</time></trkpt><trkpt lat="44.68734" lon="9.3043117"><ele>408.0</ele><time>2026-04-23T09:55:57.714Z</time></trkpt><trkpt lat="44.6872617" lon="9.3042133"><ele>408.0</ele><time>2026-04-23T09:55:58.713Z</time></trkpt><trkpt lat="44.68719" lon="9.3041267"><ele>408.0</ele><time>2026-04-23T09:55:59.712Z</time></trkpt><trkpt lat="44.6871233" lon="9.30405"><ele>408.0</ele><time>2026-04-23T09:56:00.712Z</time></trkpt><trkpt lat="44.6870617" lon="9.30398"><ele>408.0</ele><time>2026-04-23T09:56:01.712Z</time></trkpt><trkpt lat="44.6870017" lon="9.3039133"><ele>408.0</ele><time>2026-04-23T09:56:02.714Z</time></trkpt><trkpt lat="44.68694" lon="9.3038567"><ele>408.0</ele><time>2026-04-23T09:56:03.712Z</time></trkpt><trkpt lat="44.68686" lon="9.3037983"><ele>408.5</ele><time>2026-04-23T09:56:05.712Z</time></trkpt><trkpt lat="44.6867917" lon="9.3038317"><ele>409.0</ele><time>2026-04-23T09:56:16.714Z</time></trkpt><trkpt lat="44.6867233" lon="9.3038633"><ele>409.5</ele><time>2026-04-23T09:56:18.712Z</time></trkpt><trkpt lat="44.6866383" lon="9.3038817"><ele>410.0</ele><time>2026-04-23T09:56:21.712Z</time></trkpt><trkpt lat="44.6865567" lon="9.30389"><ele>410.5</ele><time>2026-04-23T09:56:24.712Z</time></trkpt><trkpt lat="44.686475" lon="9.3039217"><ele>411.0</ele><time>2026-04-23T09:56:27.712Z</time></trkpt><trkpt lat="44.68641" lon="9.3039717"><ele>413.6</ele><time>2026-04-23T09:56:29.712Z</time></trkpt><trkpt lat="44.6863483" lon="9.3040667"><ele>416.20000000000005</ele><time>2026-04-23T09:56:31.713Z</time></trkpt><trkpt lat="44.686285" lon="9.30419"><ele>418.79999999999995</ele><time>2026-04-23T09:56:33.712Z</time></trkpt><trkpt lat="44.6862217" lon="9.30435"><ele>421.4</ele><time>2026-04-23T09:56:35.713Z</time></trkpt><trkpt lat="44.6861783" lon="9.30444"><ele>424.0</ele><time>2026-04-23T09:56:36.712Z</time></trkpt><trkpt lat="44.686125" lon="9.30452"><ele>425.33333333333337</ele><time>2026-04-23T09:56:37.713Z</time></trkpt><trkpt lat="44.6860667" lon="9.30459"><ele>426.6666666666667</ele><time>2026-04-23T09:56:38.716Z</time></trkpt><trkpt lat="44.6859983" lon="9.3046617"><ele>428.0</ele><time>2026-04-23T09:56:39.713Z</time></trkpt><trkpt lat="44.6859267" lon="9.304725"><ele>429.33333333333337</ele><time>2026-04-23T09:56:40.713Z</time></trkpt><trkpt lat="44.685865" lon="9.304775"><ele>430.6666666666667</ele><time>2026-04-23T09:56:41.713Z</time></trkpt><trkpt lat="44.6858167" lon="9.3048333"><ele>432.0</ele><time>2026-04-23T09:56:42.713Z</time></trkpt><trkpt lat="44.68576" lon="9.3049883"><ele>434.0</ele><time>2026-04-23T09:56:44.713Z</time></trkpt><trkpt lat="44.6857167" lon="9.3051633"><ele>436.0</ele><time>2026-04-23T09:56:46.713Z</time></trkpt><trkpt lat="44.6856983" lon="9.305275"><ele>438.0</ele><time>2026-04-23T09:56:47.713Z</time></trkpt><trkpt lat="44.6856783" lon="9.3053833"><ele>440.0</ele><time>2026-04-23T09:56:48.712Z</time></trkpt><trkpt lat="44.6856617" lon="9.3054883"><ele>442.0</ele><time>2026-04-23T09:56:49.714Z</time></trkpt><trkpt lat="44.6856538" lon="9.3055938"><ele>444.0</ele><time>2026-04-23T09:56:50.713Z</time></trkpt><trkpt lat="44.6856536" lon="9.3056972"><ele>445.6666666666667</ele><time>2026-04-23T09:56:51.712Z</time></trkpt><trkpt lat="44.6856588" lon="9.3057979"><ele>447.33333333333337</ele><time>2026-04-23T09:56:52.713Z</time></trkpt><trkpt lat="44.6856743" lon="9.3059021"><ele>449.0</ele><time>2026-04-23T09:56:53.713Z</time></trkpt><trkpt lat="44.6856968" lon="9.3060155"><ele>450.6666666666667</ele><time>2026-04-23T09:56:54.712Z</time></trkpt><trkpt lat="44.6857208" lon="9.3061364"><ele>452.33333333333337</ele><time>2026-04-23T09:56:55.714Z</time></trkpt><trkpt lat="44.6857403" lon="9.3062642"><ele>454.0</ele><time>2026-04-23T09:56:56.714Z</time></trkpt><trkpt lat="44.6857536" lon="9.3063991"><ele>454.00000000000006</ele><time>2026-04-23T09:56:57.712Z</time></trkpt><trkpt lat="44.6857598" lon="9.3065397"><ele>454.0</ele><time>2026-04-23T09:56:58.713Z</time></trkpt><trkpt lat="44.6857548" lon="9.3066789"><ele>454.0</ele><time>2026-04-23T09:56:59.714Z</time></trkpt><trkpt lat="44.6857412" lon="9.3068"><ele>454.0</ele><time>2026-04-23T09:57:00.713Z</time></trkpt><trkpt lat="44.685717" lon="9.3069044"><ele>454.00000000000006</ele><time>2026-04-23T09:57:01.713Z</time></trkpt><trkpt lat="44.685675" lon="9.3069758"><ele>454.0</ele><time>2026-04-23T09:57:02.713Z</time></trkpt><trkpt lat="44.6856053" lon="9.3070048"><ele>454.0</ele><time>2026-04-23T09:57:03.713Z</time></trkpt><trkpt lat="44.6855127" lon="9.3070092"><ele>454.0</ele><time>2026-04-23T09:57:04.713Z</time></trkpt><trkpt lat="44.6854097" lon="9.3070237"><ele>454.0</ele><time>2026-04-23T09:57:05.712Z</time></trkpt><trkpt lat="44.6853091" lon="9.3070762"><ele>454.0</ele><time>2026-04-23T09:57:06.712Z</time></trkpt><trkpt lat="44.6852193" lon="9.3071649"><ele>454.0</ele><time>2026-04-23T09:57:07.713Z</time></trkpt><trkpt lat="44.6851448" lon="9.3072843"><ele>458.25</ele><time>2026-04-23T09:57:08.714Z</time></trkpt><trkpt lat="44.6850817" lon="9.3074354"><ele>462.5</ele><time>2026-04-23T09:57:09.713Z</time></trkpt><trkpt lat="44.6850295" lon="9.3075915"><ele>466.75</ele><time>2026-04-23T09:57:10.714Z</time></trkpt><trkpt lat="44.6849856" lon="9.3077374"><ele>471.0</ele><time>2026-04-23T09:57:11.713Z</time></trkpt><trkpt lat="44.6849434" lon="9.3078762"><ele>471.0</ele><time>2026-04-23T09:57:12.712Z</time></trkpt><trkpt lat="44.6849005" lon="9.3080072"><ele>471.0</ele><time>2026-04-23T09:57:13.713Z</time></trkpt><trkpt lat="44.6848535" lon="9.3081194"><ele>471.0</ele><time>2026-04-23T09:57:14.714Z</time></trkpt><trkpt lat="44.6847926" lon="9.3082006"><ele>471.0</ele><time>2026-04-23T09:57:15.714Z</time></trkpt><trkpt lat="44.6847135" lon="9.3082452"><ele>471.0</ele><time>2026-04-23T09:57:16.714Z</time></trkpt><trkpt lat="44.6846208" lon="9.3082298"><ele>470.25</ele><time>2026-04-23T09:57:17.714Z</time></trkpt><trkpt lat="44.6845209" lon="9.3081708"><ele>469.5</ele><time>2026-04-23T09:57:18.713Z</time></trkpt><trkpt lat="44.6844149" lon="9.3080914"><ele>468.75</ele><time>2026-04-23T09:57:19.713Z</time></trkpt><trkpt lat="44.6843044" lon="9.3080103"><ele>468.0</ele><time>2026-04-23T09:57:20.713Z</time></trkpt><trkpt lat="44.6842001" lon="9.3079389"><ele>470.3333333333333</ele><time>2026-04-23T09:57:21.714Z</time></trkpt><trkpt lat="44.6841086" lon="9.3078941"><ele>472.66666666666663</ele><time>2026-04-23T09:57:22.713Z</time></trkpt><trkpt lat="44.6840363" lon="9.3078763"><ele>475.0</ele><time>2026-04-23T09:57:23.713Z</time></trkpt><trkpt lat="44.6839659" lon="9.3078674"><ele>477.3333333333333</ele><time>2026-04-23T09:57:25.715Z</time></trkpt><trkpt lat="44.6839298" lon="9.3077782"><ele>479.66666666666663</ele><time>2026-04-23T09:57:28.713Z</time></trkpt><trkpt lat="44.6838768" lon="9.3077111"><ele>482.0</ele><time>2026-04-23T09:57:30.712Z</time></trkpt><trkpt lat="44.6838587" lon="9.3075543"><ele>481.99999999999994</ele><time>2026-04-23T09:57:33.713Z</time></trkpt><trkpt lat="44.6838915" lon="9.3074175"><ele>482.0</ele><time>2026-04-23T09:57:35.712Z</time></trkpt><trkpt lat="44.6838761" lon="9.307319"><ele>482.0</ele><time>2026-04-23T09:57:37.715Z</time></trkpt><trkpt lat="44.683796" lon="9.3073492"><ele>482.0</ele><time>2026-04-23T09:57:40.713Z</time></trkpt><trkpt lat="44.6837295" lon="9.3074195"><ele>481.99999999999994</ele><time>2026-04-23T09:57:42.713Z</time></trkpt><trkpt lat="44.6836507" lon="9.3074909"><ele>482.0</ele><time>2026-04-23T09:57:44.714Z</time></trkpt><trkpt lat="44.6835687" lon="9.3075795"><ele>484.8333333333333</ele><time>2026-04-23T09:57:46.714Z</time></trkpt><trkpt lat="44.68347" lon="9.3076794"><ele>487.66666666666663</ele><time>2026-04-23T09:57:48.712Z</time></trkpt><trkpt lat="44.6834093" lon="9.3077395"><ele>490.5</ele><time>2026-04-23T09:57:49.713Z</time></trkpt><trkpt lat="44.683342" lon="9.3078107"><ele>493.33333333333337</ele><time>2026-04-23T09:57:50.713Z</time></trkpt><trkpt lat="44.6832808" lon="9.3078875"><ele>496.1666666666667</ele><time>2026-04-23T09:57:51.713Z</time></trkpt><trkpt lat="44.6832268" lon="9.3079719"><ele>499.0</ele><time>2026-04-23T09:57:52.717Z</time></trkpt><trkpt lat="44.6831772" lon="9.3080509"><ele>497.0</ele><time>2026-04-23T09:57:53.713Z</time></trkpt><trkpt lat="44.6831225" lon="9.30812"><ele>495.0</ele><time>2026-04-23T09:57:54.712Z</time></trkpt><trkpt lat="44.6830674" lon="9.3081758"><ele>493.0</ele><time>2026-04-23T09:57:55.713Z</time></trkpt><trkpt lat="44.6829715" lon="9.3082701"><ele>491.0</ele><time>2026-04-23T09:57:57.713Z</time></trkpt><trkpt lat="44.6829178" lon="9.3083941"><ele>489.0</ele><time>2026-04-23T09:57:59.714Z</time></trkpt><trkpt lat="44.682875" lon="9.3085575"><ele>489.0</ele><time>2026-04-23T09:58:01.713Z</time></trkpt><trkpt lat="44.6828485" lon="9.3086485"><ele>489.00000000000006</ele><time>2026-04-23T09:58:02.715Z</time></trkpt><trkpt lat="44.6828206" lon="9.3087345"><ele>489.0</ele><time>2026-04-23T09:58:03.712Z</time></trkpt><trkpt lat="44.6827922" lon="9.3088188"><ele>489.0</ele><time>2026-04-23T09:58:04.713Z</time></trkpt><trkpt lat="44.6827598" lon="9.3088984"><ele>489.00000000000006</ele><time>2026-04-23T09:58:05.713Z</time></trkpt><trkpt lat="44.6827266" lon="9.308974"><ele>489.0</ele><time>2026-04-23T09:58:06.713Z</time></trkpt><trkpt lat="44.6826806" lon="9.3091044"><ele>489.0</ele><time>2026-04-23T09:58:08.713Z</time></trkpt><trkpt lat="44.6826652" lon="9.3092056"><ele>493.8333333333333</ele><time>2026-04-23T09:58:10.712Z</time></trkpt><trkpt lat="44.6826143" lon="9.3093141"><ele>498.66666666666663</ele><time>2026-04-23T09:58:13.713Z</time></trkpt><trkpt lat="44.682532" lon="9.3093348"><ele>503.5</ele><time>2026-04-23T09:58:15.712Z</time></trkpt><trkpt lat="44.682441" lon="9.3093141"><ele>508.3333333333333</ele><time>2026-04-23T09:58:17.713Z</time></trkpt><trkpt lat="44.6823467" lon="9.309299"><ele>513.1666666666666</ele><time>2026-04-23T09:58:19.714Z</time></trkpt><trkpt lat="44.682277" lon="9.3092991"><ele>518.0</ele><time>2026-04-23T09:58:21.712Z</time></trkpt><trkpt lat="44.6822193" lon="9.3093501"><ele>518.0</ele><time>2026-04-23T09:58:24.712Z</time></trkpt><trkpt lat="44.6821686" lon="9.3094088"><ele>518.0</ele><time>2026-04-23T09:58:27.787Z</time></trkpt><trkpt lat="44.6821038" lon="9.3094683"><ele>518.0</ele><time>2026-04-23T09:58:30.712Z</time></trkpt><trkpt lat="44.6820441" lon="9.3095544"><ele>518.0</ele><time>2026-04-23T09:58:33.715Z</time></trkpt><trkpt lat="44.6820216" lon="9.30964"><ele>518.0</ele><time>2026-04-23T09:58:35.795Z</time></trkpt><trkpt lat="44.6819628" lon="9.3096857"><ele>518.0</ele><time>2026-04-23T09:58:38.714Z</time></trkpt><trkpt lat="44.6819076" lon="9.3097418"><ele>518.0</ele><time>2026-04-23T09:58:41.723Z</time></trkpt><trkpt lat="44.6818554" lon="9.3098017"><ele>522.8333333333333</ele><time>2026-04-23T09:58:43.804Z</time></trkpt><trkpt lat="44.6817789" lon="9.3098368"><ele>527.6666666666666</ele><time>2026-04-23T09:58:45.779Z</time></trkpt><trkpt lat="44.6817013" lon="9.3098402"><ele>532.5</ele><time>2026-04-23T09:58:48.795Z</time></trkpt><trkpt lat="44.6816197" lon="9.3098878"><ele>537.3333333333334</ele><time>2026-04-23T09:58:51.688Z</time></trkpt><trkpt lat="44.6815502" lon="9.3099147"><ele>542.1666666666667</ele><time>2026-04-23T09:58:53.668Z</time></trkpt><trkpt lat="44.6814754" lon="9.3099299"><ele>547.0</ele><time>2026-04-23T09:58:55.763Z</time></trkpt><trkpt lat="44.6814012" lon="9.3099185"><ele>547.0</ele><time>2026-04-23T09:58:57.739Z</time></trkpt><trkpt lat="44.6813352" lon="9.309906"><ele>547.0</ele><time>2026-04-23T09:59:00.809Z</time></trkpt><trkpt lat="44.6812527" lon="9.3098858"><ele>547.0</ele><time>2026-04-23T09:59:03.771Z</time></trkpt><trkpt lat="44.6811802" lon="9.3099288"><ele>547.0</ele><time>2026-04-23T09:59:05.747Z</time></trkpt><trkpt lat="44.6811167" lon="9.3099524"><ele>547.0</ele><time>2026-04-23T09:59:07.31Z</time></trkpt><trkpt lat="44.6810499" lon="9.3099743"><ele>547.0</ele><time>2026-04-23T09:59:08.788Z</time></trkpt><trkpt lat="44.6810412" lon="9.3100718"><ele>547.0</ele><time>2026-04-23T09:59:12.715Z</time></trkpt><trkpt lat="44.6809809" lon="9.3100374"><ele>551.8333333333334</ele><time>2026-04-23T09:59:15.731Z</time></trkpt><trkpt lat="44.6809733" lon="9.3101333"><ele>556.6666666666667</ele><time>2026-04-23T09:59:51.712Z</time></trkpt><trkpt lat="44.68084" lon="9.3101233"><ele>561.5</ele><time>2026-04-23T10:00:00.712Z</time></trkpt><trkpt lat="44.680765" lon="9.310115"><ele>566.3333333333334</ele><time>2026-04-23T10:00:02.714Z</time></trkpt><trkpt lat="44.6806933" lon="9.3100883"><ele>571.1666666666666</ele><time>2026-04-23T10:00:05.713Z</time></trkpt><trkpt lat="44.6806217" lon="9.3101183"><ele>576.0</ele><time>2026-04-23T10:00:09.713Z</time></trkpt><trkpt lat="44.680605" lon="9.31021"><ele>576.0</ele><time>2026-04-23T10:00:11.714Z</time></trkpt><trkpt lat="44.6805633" lon="9.3103333"><ele>576.0</ele><time>2026-04-23T10:00:13.715Z</time></trkpt><trkpt lat="44.6804917" lon="9.3104317"><ele>576.0</ele><time>2026-04-23T10:00:15.713Z</time></trkpt><trkpt lat="44.6803933" lon="9.3104883"><ele>576.0</ele><time>2026-04-23T10:00:17.714Z</time></trkpt><trkpt lat="44.6803283" lon="9.310525"><ele>576.0</ele><time>2026-04-23T10:00:18.714Z</time></trkpt><trkpt lat="44.6802733" lon="9.3105683"><ele>576.0</ele><time>2026-04-23T10:00:19.713Z</time></trkpt><trkpt lat="44.6802" lon="9.31068"><ele>581.3333333333334</ele><time>2026-04-23T10:00:21.714Z</time></trkpt><trkpt lat="44.6801283" lon="9.310825"><ele>586.6666666666666</ele><time>2026-04-23T10:00:23.713Z</time></trkpt><trkpt lat="44.6800933" lon="9.3109"><ele>592.0</ele><time>2026-04-23T10:00:24.712Z</time></trkpt><trkpt lat="44.6800683" lon="9.3109817"><ele>597.3333333333333</ele><time>2026-04-23T10:00:25.714Z</time></trkpt><trkpt lat="44.680065" lon="9.3110733"><ele>602.6666666666666</ele><time>2026-04-23T10:00:26.715Z</time></trkpt><trkpt lat="44.68006" lon="9.3111633"><ele>608.0</ele><time>2026-04-23T10:00:27.712Z</time></trkpt><trkpt lat="44.6800467" lon="9.3112983"><ele>608.4</ele><time>2026-04-23T10:00:29.715Z</time></trkpt><trkpt lat="44.6800467" lon="9.3114567"><ele>608.8</ele><time>2026-04-23T10:00:31.714Z</time></trkpt><trkpt lat="44.6800267" lon="9.3116217"><ele>609.2</ele><time>2026-04-23T10:00:33.714Z</time></trkpt><trkpt lat="44.6799717" lon="9.3117683"><ele>609.6</ele><time>2026-04-23T10:00:35.713Z</time></trkpt><trkpt lat="44.6799283" lon="9.3118367"><ele>610.0</ele><time>2026-04-23T10:00:36.712Z</time></trkpt><trkpt lat="44.679885" lon="9.3119133"><ele>610.0</ele><time>2026-04-23T10:00:37.714Z</time></trkpt><trkpt lat="44.6798467" lon="9.311985"><ele>610.0</ele><time>2026-04-23T10:00:38.715Z</time></trkpt><trkpt lat="44.679825" lon="9.3120683"><ele>610.0</ele><time>2026-04-23T10:00:39.714Z</time></trkpt><trkpt lat="44.6798117" lon="9.3121783"><ele>610.0</ele><time>2026-04-23T10:00:40.713Z</time></trkpt><trkpt lat="44.67981" lon="9.31227"><ele>610.0</ele><time>2026-04-23T10:00:41.714Z</time></trkpt><trkpt lat="44.679755" lon="9.31243"><ele>610.0</ele><time>2026-04-23T10:00:43.713Z</time></trkpt><trkpt lat="44.67968" lon="9.3125467"><ele>609.5</ele><time>2026-04-23T10:00:45.713Z</time></trkpt><trkpt lat="44.67961" lon="9.3126217"><ele>609.0</ele><time>2026-04-23T10:00:47.713Z</time></trkpt><trkpt lat="44.67952" lon="9.3127317"><ele>608.5</ele><time>2026-04-23T10:00:49.714Z</time></trkpt><trkpt lat="44.6794667" lon="9.3127983"><ele>608.0</ele><time>2026-04-23T10:00:50.714Z</time></trkpt><trkpt lat="44.6794133" lon="9.31286"><ele>607.5</ele><time>2026-04-23T10:00:51.713Z</time></trkpt><trkpt lat="44.67936" lon="9.3129183"><ele>607.0</ele><time>2026-04-23T10:00:52.713Z</time></trkpt><trkpt lat="44.6792983" lon="9.3129733"><ele>612.75</ele><time>2026-04-23T10:00:53.714Z</time></trkpt><trkpt lat="44.6791983" lon="9.31305"><ele>618.5</ele><time>2026-04-23T10:00:55.713Z</time></trkpt><trkpt lat="44.6791033" lon="9.3131433"><ele>624.25</ele><time>2026-04-23T10:00:57.713Z</time></trkpt><trkpt lat="44.6790183" lon="9.313255"><ele>630.0</ele><time>2026-04-23T10:00:59.714Z</time></trkpt><trkpt lat="44.67895" lon="9.3134"><ele>630.0</ele><time>2026-04-23T10:01:01.714Z</time></trkpt><trkpt lat="44.6789083" lon="9.313485"><ele>630.0</ele><time>2026-04-23T10:01:02.715Z</time></trkpt><trkpt lat="44.678865" lon="9.3135733"><ele>630.0</ele><time>2026-04-23T10:01:03.713Z</time></trkpt><trkpt lat="44.6788017" lon="9.3136683"><ele>630.0</ele><time>2026-04-23T10:01:04.714Z</time></trkpt><trkpt lat="44.6787467" lon="9.3137583"><ele>630.0</ele><time>2026-04-23T10:01:05.713Z</time></trkpt><trkpt lat="44.67871" lon="9.3138517"><ele>630.0</ele><time>2026-04-23T10:01:06.713Z</time></trkpt><trkpt lat="44.678675" lon="9.3139467"><ele>629.3333333333334</ele><time>2026-04-23T10:01:07.712Z</time></trkpt><trkpt lat="44.6786367" lon="9.3140317"><ele>628.6666666666666</ele><time>2026-04-23T10:01:08.714Z</time></trkpt><trkpt lat="44.678595" lon="9.3141167"><ele>628.0</ele><time>2026-04-23T10:01:09.713Z</time></trkpt><trkpt lat="44.6785583" lon="9.3141967"><ele>627.3333333333333</ele><time>2026-04-23T10:01:10.713Z</time></trkpt><trkpt lat="44.6785317" lon="9.3143317"><ele>626.6666666666666</ele><time>2026-04-23T10:01:12.712Z</time></trkpt><trkpt lat="44.67849" lon="9.3144483"><ele>626.0</ele><time>2026-04-23T10:01:15.713Z</time></trkpt><trkpt lat="44.6784367" lon="9.3145633"><ele>630.6</ele><time>2026-04-23T10:01:17.713Z</time></trkpt><trkpt lat="44.67834" lon="9.314645"><ele>635.2</ele><time>2026-04-23T10:01:19.713Z</time></trkpt><trkpt lat="44.6782383" lon="9.31471"><ele>639.8000000000001</ele><time>2026-04-23T10:01:21.713Z</time></trkpt><trkpt lat="44.678175" lon="9.3147867"><ele>644.4000000000001</ele><time>2026-04-23T10:01:23.713Z</time></trkpt><trkpt lat="44.6781067" lon="9.3148767"><ele>649.0</ele><time>2026-04-23T10:01:25.714Z</time></trkpt><trkpt lat="44.678035" lon="9.3149167"><ele>649.0</ele><time>2026-04-23T10:01:27.714Z</time></trkpt><trkpt lat="44.6779517" lon="9.3149133"><ele>649.0</ele><time>2026-04-23T10:01:29.714Z</time></trkpt><trkpt lat="44.6778917" lon="9.3148717"><ele>649.0</ele><time>2026-04-23T10:01:31.713Z</time></trkpt><trkpt lat="44.6777933" lon="9.3147817"><ele>649.0</ele><time>2026-04-23T10:02:30.713Z</time></trkpt><trkpt lat="44.677755" lon="9.3146417"><ele>649.0</ele><time>2026-04-23T10:02:32.714Z</time></trkpt><trkpt lat="44.6777083" lon="9.3145217"><ele>652.0</ele><time>2026-04-23T10:02:34.713Z</time></trkpt><trkpt lat="44.67762" lon="9.3144633"><ele>655.0</ele><time>2026-04-23T10:02:36.713Z</time></trkpt><trkpt lat="44.6775183" lon="9.3145083"><ele>658.0</ele><time>2026-04-23T10:02:38.714Z</time></trkpt><trkpt lat="44.6774383" lon="9.31462"><ele>661.0</ele><time>2026-04-23T10:02:40.713Z</time></trkpt><trkpt lat="44.6773667" lon="9.31475"><ele>664.0</ele><time>2026-04-23T10:02:42.713Z</time></trkpt><trkpt lat="44.67734" lon="9.3148383"><ele>665.0</ele><time>2026-04-23T10:02:43.714Z</time></trkpt><trkpt lat="44.677325" lon="9.314945"><ele>666.0</ele><time>2026-04-23T10:02:44.714Z</time></trkpt><trkpt lat="44.6773233" lon="9.3150683"><ele>667.0</ele><time>2026-04-23T10:02:45.713Z</time></trkpt><trkpt lat="44.677325" lon="9.3151967"><ele>668.0</ele><time>2026-04-23T10:02:46.714Z</time></trkpt><trkpt lat="44.6773233" lon="9.3153133"><ele>669.0</ele><time>2026-04-23T10:02:47.713Z</time></trkpt><trkpt lat="44.6773183" lon="9.3154317"><ele>670.0</ele><time>2026-04-23T10:02:48.713Z</time></trkpt><trkpt lat="44.67731" lon="9.315555"><ele>670.5</ele><time>2026-04-23T10:02:49.714Z</time></trkpt><trkpt lat="44.6773" lon="9.3156867"><ele>671.0</ele><time>2026-04-23T10:02:50.714Z</time></trkpt><trkpt lat="44.6772817" lon="9.3158167"><ele>671.5</ele><time>2026-04-23T10:02:51.713Z</time></trkpt><trkpt lat="44.6772517" lon="9.3159433"><ele>672.0</ele><time>2026-04-23T10:02:52.713Z</time></trkpt><trkpt lat="44.6772133" lon="9.316045"><ele>672.5</ele><time>2026-04-23T10:02:53.714Z</time></trkpt><trkpt lat="44.6771733" lon="9.316135"><ele>673.0</ele><time>2026-04-23T10:02:54.713Z</time></trkpt><trkpt lat="44.67713" lon="9.3162267"><ele>673.0</ele><time>2026-04-23T10:02:55.714Z</time></trkpt><trkpt lat="44.6770867" lon="9.3163317"><ele>673.0</ele><time>2026-04-23T10:02:56.714Z</time></trkpt><trkpt lat="44.6770467" lon="9.3164483"><ele>673.0</ele><time>2026-04-23T10:02:57.714Z</time></trkpt><trkpt lat="44.677015" lon="9.316575"><ele>673.0</ele><time>2026-04-23T10:02:58.713Z</time></trkpt><trkpt lat="44.677005" lon="9.3167083"><ele>673.0</ele><time>2026-04-23T10:02:59.715Z</time></trkpt><trkpt lat="44.6769967" lon="9.3168483"><ele>673.2</ele><time>2026-04-23T10:03:00.713Z</time></trkpt><trkpt lat="44.6769767" lon="9.3169883"><ele>673.4</ele><time>2026-04-23T10:03:01.714Z</time></trkpt><trkpt lat="44.6769367" lon="9.31712"><ele>673.6</ele><time>2026-04-23T10:03:02.714Z</time></trkpt><trkpt lat="44.6768767" lon="9.3172417"><ele>673.8000000000001</ele><time>2026-04-23T10:03:03.715Z</time></trkpt><trkpt lat="44.6768083" lon="9.317355"><ele>674.0</ele><time>2026-04-23T10:03:04.713Z</time></trkpt><trkpt lat="44.6767367" lon="9.3174683"><ele>678.0</ele><time>2026-04-23T10:03:05.714Z</time></trkpt><trkpt lat="44.6766767" lon="9.3175867"><ele>682.0</ele><time>2026-04-23T10:03:06.715Z</time></trkpt><trkpt lat="44.6766283" lon="9.3177167"><ele>686.0</ele><time>2026-04-23T10:03:07.713Z</time></trkpt><trkpt lat="44.6765983" lon="9.3178583"><ele>690.0</ele><time>2026-04-23T10:03:08.714Z</time></trkpt><trkpt lat="44.6765933" lon="9.3179967"><ele>694.0</ele><time>2026-04-23T10:03:09.713Z</time></trkpt><trkpt lat="44.6766" lon="9.3181317"><ele>695.1666666666667</ele><time>2026-04-23T10:03:10.713Z</time></trkpt><trkpt lat="44.6766033" lon="9.3182583"><ele>696.3333333333334</ele><time>2026-04-23T10:03:11.714Z</time></trkpt><trkpt lat="44.6765933" lon="9.31838"><ele>697.5</ele><time>2026-04-23T10:03:12.713Z</time></trkpt><trkpt lat="44.67657" lon="9.3185"><ele>698.6666666666666</ele><time>2026-04-23T10:03:13.714Z</time></trkpt><trkpt lat="44.676535" lon="9.3186117"><ele>699.8333333333333</ele><time>2026-04-23T10:03:14.714Z</time></trkpt><trkpt lat="44.6764967" lon="9.3187133"><ele>701.0</ele><time>2026-04-23T10:03:15.714Z</time></trkpt><trkpt lat="44.67645" lon="9.3188"><ele>701.0</ele><time>2026-04-23T10:03:16.713Z</time></trkpt><trkpt lat="44.6763933" lon="9.3188617"><ele>701.0</ele><time>2026-04-23T10:03:17.714Z</time></trkpt><trkpt lat="44.6763183" lon="9.3188983"><ele>701.0</ele><time>2026-04-23T10:03:18.713Z</time></trkpt><trkpt lat="44.6762317" lon="9.3189333"><ele>701.0</ele><time>2026-04-23T10:03:19.714Z</time></trkpt><trkpt lat="44.6761433" lon="9.3189883"><ele>701.0</ele><time>2026-04-23T10:03:20.714Z</time></trkpt><trkpt lat="44.6760567" lon="9.3190617"><ele>701.0</ele><time>2026-04-23T10:03:21.713Z</time></trkpt><trkpt lat="44.6759683" lon="9.319135"><ele>704.0</ele><time>2026-04-23T10:03:22.713Z</time></trkpt><trkpt lat="44.6758767" lon="9.3191983"><ele>707.0</ele><time>2026-04-23T10:03:23.713Z</time></trkpt><trkpt lat="44.6757933" lon="9.31925"><ele>710.0</ele><time>2026-04-23T10:03:24.713Z</time></trkpt><trkpt lat="44.6757183" lon="9.3192933"><ele>713.0</ele><time>2026-04-23T10:03:25.714Z</time></trkpt><trkpt lat="44.675645" lon="9.3193417"><ele>716.0</ele><time>2026-04-23T10:03:26.715Z</time></trkpt><trkpt lat="44.675575" lon="9.3194"><ele>719.0</ele><time>2026-04-23T10:03:27.713Z</time></trkpt><trkpt lat="44.6755017" lon="9.3194717"><ele>719.0</ele><time>2026-04-23T10:03:28.714Z</time></trkpt><trkpt lat="44.6754383" lon="9.31955"><ele>719.0</ele><time>2026-04-23T10:03:29.714Z</time></trkpt><trkpt lat="44.6753817" lon="9.319625"><ele>719.0</ele><time>2026-04-23T10:03:30.713Z</time></trkpt><trkpt lat="44.67533" lon="9.3196967"><ele>719.0</ele><time>2026-04-23T10:03:31.714Z</time></trkpt><trkpt lat="44.6752833" lon="9.3198617"><ele>719.0</ele><time>2026-04-23T10:03:33.714Z</time></trkpt><trkpt lat="44.6752617" lon="9.3199783"><ele>719.0</ele><time>2026-04-23T10:03:34.713Z</time></trkpt><trkpt lat="44.6752417" lon="9.3201017"><ele>718.6</ele><time>2026-04-23T10:03:35.714Z</time></trkpt><trkpt lat="44.6752417" lon="9.3202267"><ele>718.2</ele><time>2026-04-23T10:03:36.714Z</time></trkpt><trkpt lat="44.67526" lon="9.3203417"><ele>717.8000000000001</ele><time>2026-04-23T10:03:37.713Z</time></trkpt><trkpt lat="44.675285" lon="9.3204767"><ele>717.4000000000001</ele><time>2026-04-23T10:03:38.715Z</time></trkpt><trkpt lat="44.67531" lon="9.3206167"><ele>717.0</ele><time>2026-04-23T10:03:39.713Z</time></trkpt><trkpt lat="44.6753117" lon="9.3207417"><ele>716.5</ele><time>2026-04-23T10:03:40.713Z</time></trkpt><trkpt lat="44.6752883" lon="9.320845"><ele>716.0</ele><time>2026-04-23T10:03:41.714Z</time></trkpt><trkpt lat="44.6752567" lon="9.320925"><ele>715.5</ele><time>2026-04-23T10:03:42.713Z</time></trkpt><trkpt lat="44.6751967" lon="9.32102"><ele>715.0</ele><time>2026-04-23T10:03:44.714Z</time></trkpt><trkpt lat="44.675135" lon="9.3211083"><ele>714.5</ele><time>2026-04-23T10:03:47.713Z</time></trkpt><trkpt lat="44.6750683" lon="9.3212217"><ele>714.0</ele><time>2026-04-23T10:03:49.713Z</time></trkpt><trkpt lat="44.6750217" lon="9.3212883"><ele>717.1666666666666</ele><time>2026-04-23T10:03:50.715Z</time></trkpt><trkpt lat="44.674935" lon="9.3214083"><ele>720.3333333333334</ele><time>2026-04-23T10:03:52.714Z</time></trkpt><trkpt lat="44.6749017" lon="9.3215367"><ele>723.5</ele><time>2026-04-23T10:03:54.713Z</time></trkpt><trkpt lat="44.6748683" lon="9.32163"><ele>726.6666666666667</ele><time>2026-04-23T10:03:56.714Z</time></trkpt><trkpt lat="44.6747967" lon="9.3216433"><ele>729.8333333333334</ele><time>2026-04-23T10:03:58.713Z</time></trkpt><trkpt lat="44.674725" lon="9.3216233"><ele>733.0</ele><time>2026-04-23T10:04:00.713Z</time></trkpt><trkpt lat="44.674645" lon="9.3216783"><ele>733.0</ele><time>2026-04-23T10:04:03.713Z</time></trkpt><trkpt lat="44.6745983" lon="9.321775"><ele>733.0</ele><time>2026-04-23T10:04:05.713Z</time></trkpt><trkpt lat="44.674525" lon="9.3218183"><ele>733.0</ele><time>2026-04-23T10:04:07.713Z</time></trkpt><trkpt lat="44.6744383" lon="9.3217967"><ele>733.0</ele><time>2026-04-23T10:04:09.713Z</time></trkpt><trkpt lat="44.6743317" lon="9.3217667"><ele>733.0</ele><time>2026-04-23T10:04:11.713Z</time></trkpt><trkpt lat="44.67423" lon="9.32174"><ele>737.5999999999999</ele><time>2026-04-23T10:04:13.713Z</time></trkpt><trkpt lat="44.6741283" lon="9.321785"><ele>742.1999999999999</ele><time>2026-04-23T10:04:15.714Z</time></trkpt><trkpt lat="44.6740267" lon="9.3218567"><ele>746.8</ele><time>2026-04-23T10:04:17.714Z</time></trkpt><trkpt lat="44.6739567" lon="9.3219283"><ele>751.4</ele><time>2026-04-23T10:04:19.713Z</time></trkpt><trkpt lat="44.673935" lon="9.32202"><ele>756.0</ele><time>2026-04-23T10:04:21.714Z</time></trkpt><trkpt lat="44.6739367" lon="9.322135"><ele>757.3333333333334</ele><time>2026-04-23T10:04:23.713Z</time></trkpt><trkpt lat="44.6739283" lon="9.322245"><ele>758.6666666666666</ele><time>2026-04-23T10:04:25.714Z</time></trkpt><trkpt lat="44.673875" lon="9.3223733"><ele>760.0</ele><time>2026-04-23T10:04:27.713Z</time></trkpt><trkpt lat="44.673845" lon="9.32246"><ele>761.3333333333333</ele><time>2026-04-23T10:04:28.714Z</time></trkpt><trkpt lat="44.6738317" lon="9.32264"><ele>762.6666666666666</ele><time>2026-04-23T10:04:30.714Z</time></trkpt><trkpt lat="44.6738133" lon="9.32273"><ele>764.0</ele><time>2026-04-23T10:04:31.714Z</time></trkpt><trkpt lat="44.6737383" lon="9.3228767"><ele>764.0</ele><time>2026-04-23T10:04:33.713Z</time></trkpt><trkpt lat="44.6737267" lon="9.3230317"><ele>764.0</ele><time>2026-04-23T10:04:35.714Z</time></trkpt><trkpt lat="44.6737617" lon="9.3231617"><ele>764.0</ele><time>2026-04-23T10:04:37.714Z</time></trkpt><trkpt lat="44.673805" lon="9.3233333"><ele>764.0</ele><time>2026-04-23T10:04:39.713Z</time></trkpt><trkpt lat="44.6738317" lon="9.323435"><ele>764.0</ele><time>2026-04-23T10:04:40.713Z</time></trkpt><trkpt lat="44.6738467" lon="9.32355"><ele>765.8333333333333</ele><time>2026-04-23T10:04:41.714Z</time></trkpt><trkpt lat="44.673875" lon="9.323655"><ele>767.6666666666666</ele><time>2026-04-23T10:04:42.713Z</time></trkpt><trkpt lat="44.6739067" lon="9.3237467"><ele>769.5</ele><time>2026-04-23T10:04:43.714Z</time></trkpt><trkpt lat="44.6739467" lon="9.3238483"><ele>771.3333333333333</ele><time>2026-04-23T10:04:44.714Z</time></trkpt><trkpt lat="44.6739867" lon="9.3239633"><ele>773.1666666666666</ele><time>2026-04-23T10:04:45.713Z</time></trkpt><trkpt lat="44.6740283" lon="9.324055"><ele>775.0</ele><time>2026-04-23T10:04:46.713Z</time></trkpt><trkpt lat="44.67406" lon="9.3241433"><ele>776.6666666666666</ele><time>2026-04-23T10:04:47.714Z</time></trkpt><trkpt lat="44.6740817" lon="9.3242383"><ele>778.3333333333333</ele><time>2026-04-23T10:04:48.713Z</time></trkpt><trkpt lat="44.6741017" lon="9.3243267"><ele>780.0</ele><time>2026-04-23T10:04:49.713Z</time></trkpt><trkpt lat="44.6741367" lon="9.3244983"><ele>781.6666666666667</ele><time>2026-04-23T10:04:51.714Z</time></trkpt><trkpt lat="44.674135" lon="9.324595"><ele>783.3333333333334</ele><time>2026-04-23T10:04:52.713Z</time></trkpt><trkpt lat="44.6741367" lon="9.3246917"><ele>785.0</ele><time>2026-04-23T10:04:53.714Z</time></trkpt><trkpt lat="44.6741433" lon="9.3247933"><ele>786.3333333333334</ele><time>2026-04-23T10:04:54.714Z</time></trkpt><trkpt lat="44.6741467" lon="9.3248983"><ele>787.6666666666667</ele><time>2026-04-23T10:04:55.714Z</time></trkpt><trkpt lat="44.674145" lon="9.3250117"><ele>789.0</ele><time>2026-04-23T10:04:56.714Z</time></trkpt><trkpt lat="44.674125" lon="9.3251367"><ele>790.3333333333333</ele><time>2026-04-23T10:04:57.714Z</time></trkpt><trkpt lat="44.67412" lon="9.3252633"><ele>791.6666666666666</ele><time>2026-04-23T10:04:58.714Z</time></trkpt><trkpt lat="44.6741167" lon="9.3254067"><ele>793.0</ele><time>2026-04-23T10:04:59.714Z</time></trkpt><trkpt lat="44.674115" lon="9.3255483"><ele>794.2</ele><time>2026-04-23T10:05:00.713Z</time></trkpt><trkpt lat="44.67413" lon="9.3256783"><ele>795.4</ele><time>2026-04-23T10:05:01.718Z</time></trkpt><trkpt lat="44.67414" lon="9.3257933"><ele>796.6</ele><time>2026-04-23T10:05:02.714Z</time></trkpt><trkpt lat="44.674135" lon="9.3259467"><ele>797.8000000000001</ele><time>2026-04-23T10:05:04.713Z</time></trkpt><trkpt lat="44.6740917" lon="9.32609"><ele>799.0</ele><time>2026-04-23T10:05:06.714Z</time></trkpt><trkpt lat="44.6740417" lon="9.3261717"><ele>799.0</ele><time>2026-04-23T10:05:08.713Z</time></trkpt><trkpt lat="44.67396" lon="9.3262233"><ele>799.0</ele><time>2026-04-23T10:05:42.714Z</time></trkpt><trkpt lat="44.6738367" lon="9.3261767"><ele>799.0</ele><time>2026-04-23T10:05:44.713Z</time></trkpt><trkpt lat="44.6737583" lon="9.3261367"><ele>799.0</ele><time>2026-04-23T10:05:45.713Z</time></trkpt><trkpt lat="44.6736833" lon="9.3260867"><ele>799.0</ele><time>2026-04-23T10:05:46.714Z</time></trkpt><trkpt lat="44.673605" lon="9.3260383"><ele>800.0</ele><time>2026-04-23T10:05:47.715Z</time></trkpt><trkpt lat="44.6735367" lon="9.3260133"><ele>801.0</ele><time>2026-04-23T10:05:48.714Z</time></trkpt><trkpt lat="44.6734667" lon="9.3259983"><ele>802.0</ele><time>2026-04-23T10:05:49.714Z</time></trkpt><trkpt lat="44.6733983" lon="9.3259917"><ele>803.0</ele><time>2026-04-23T10:05:50.714Z</time></trkpt><trkpt lat="44.67333" lon="9.3259933"><ele>804.0</ele><time>2026-04-23T10:05:51.714Z</time></trkpt><trkpt lat="44.6732633" lon="9.3260333"><ele>805.0</ele><time>2026-04-23T10:05:52.713Z</time></trkpt><trkpt lat="44.673185" lon="9.326115"><ele>806.0</ele><time>2026-04-23T10:05:53.713Z</time></trkpt><trkpt lat="44.6731367" lon="9.326175"><ele>806.0</ele><time>2026-04-23T10:05:54.713Z</time></trkpt><trkpt lat="44.6731183" lon="9.3262717"><ele>806.0</ele><time>2026-04-23T10:05:55.715Z</time></trkpt><trkpt lat="44.6731117" lon="9.3264067"><ele>806.0</ele><time>2026-04-23T10:05:56.715Z</time></trkpt><trkpt lat="44.6731" lon="9.326505"><ele>806.0</ele><time>2026-04-23T10:05:57.714Z</time></trkpt><trkpt lat="44.6730867" lon="9.3265933"><ele>806.0</ele><time>2026-04-23T10:05:58.714Z</time></trkpt><trkpt lat="44.673075" lon="9.32669"><ele>806.0</ele><time>2026-04-23T10:05:59.714Z</time></trkpt><trkpt lat="44.67304" lon="9.326765"><ele>806.0</ele><time>2026-04-23T10:06:00.713Z</time></trkpt><trkpt lat="44.6729967" lon="9.326835"><ele>807.1666666666667</ele><time>2026-04-23T10:06:01.714Z</time></trkpt><trkpt lat="44.6729417" lon="9.3269067"><ele>808.3333333333334</ele><time>2026-04-23T10:06:02.714Z</time></trkpt><trkpt lat="44.67289" lon="9.3269717"><ele>809.5</ele><time>2026-04-23T10:06:03.713Z</time></trkpt><trkpt lat="44.6727983" lon="9.3270017"><ele>810.6666666666667</ele><time>2026-04-23T10:06:05.714Z</time></trkpt><trkpt lat="44.6727017" lon="9.32693"><ele>811.8333333333334</ele><time>2026-04-23T10:06:07.714Z</time></trkpt><trkpt lat="44.6726133" lon="9.3269383"><ele>813.0</ele><time>2026-04-23T10:06:09.713Z</time></trkpt><trkpt lat="44.6725467" lon="9.326945"><ele>815.4</ele><time>2026-04-23T10:06:10.714Z</time></trkpt><trkpt lat="44.6724717" lon="9.3268967"><ele>817.8</ele><time>2026-04-23T10:06:12.712Z</time></trkpt><trkpt lat="44.67239" lon="9.3267483"><ele>820.2</ele><time>2026-04-23T10:06:14.715Z</time></trkpt><trkpt lat="44.6723317" lon="9.32668"><ele>822.6</ele><time>2026-04-23T10:06:15.714Z</time></trkpt><trkpt lat="44.6722483" lon="9.32663"><ele>825.0</ele><time>2026-04-23T10:06:16.713Z</time></trkpt><trkpt lat="44.67216" lon="9.3265817"><ele>825.0</ele><time>2026-04-23T10:06:17.714Z</time></trkpt><trkpt lat="44.6721" lon="9.3265267"><ele>825.0</ele><time>2026-04-23T10:06:18.715Z</time></trkpt><trkpt lat="44.672015" lon="9.3264283"><ele>825.0</ele><time>2026-04-23T10:06:20.715Z</time></trkpt><trkpt lat="44.6718817" lon="9.326385"><ele>825.0</ele><time>2026-04-23T10:06:22.714Z</time></trkpt><trkpt lat="44.6718" lon="9.32637"><ele>825.0</ele><time>2026-04-23T10:06:23.715Z</time></trkpt><trkpt lat="44.6717317" lon="9.3263533"><ele>825.6666666666666</ele><time>2026-04-23T10:06:24.713Z</time></trkpt><trkpt lat="44.67167" lon="9.3263083"><ele>826.3333333333333</ele><time>2026-04-23T10:06:25.714Z</time></trkpt><trkpt lat="44.6716117" lon="9.3262317"><ele>827.0</ele><time>2026-04-23T10:06:26.714Z</time></trkpt><trkpt lat="44.671585" lon="9.326135"><ele>827.6666666666666</ele><time>2026-04-23T10:06:27.713Z</time></trkpt><trkpt lat="44.67158" lon="9.3260233"><ele>828.3333333333333</ele><time>2026-04-23T10:06:28.713Z</time></trkpt><trkpt lat="44.67157" lon="9.325915"><ele>829.0</ele><time>2026-04-23T10:06:29.715Z</time></trkpt><trkpt lat="44.6715333" lon="9.3258183"><ele>829.0</ele><time>2026-04-23T10:06:30.715Z</time></trkpt><trkpt lat="44.6714783" lon="9.3257217"><ele>829.0</ele><time>2026-04-23T10:06:31.714Z</time></trkpt><trkpt lat="44.6714117" lon="9.325625"><ele>829.0</ele><time>2026-04-23T10:06:32.714Z</time></trkpt><trkpt lat="44.671325" lon="9.3255783"><ele>829.0</ele><time>2026-04-23T10:06:33.714Z</time></trkpt><trkpt lat="44.6712233" lon="9.3255417"><ele>829.0</ele><time>2026-04-23T10:06:34.713Z</time></trkpt><trkpt lat="44.6711183" lon="9.3254967"><ele>829.0</ele><time>2026-04-23T10:06:35.713Z</time></trkpt><trkpt lat="44.6710217" lon="9.3254483"><ele>829.0</ele><time>2026-04-23T10:06:36.713Z</time></trkpt><trkpt lat="44.67093" lon="9.32539"><ele>829.0</ele><time>2026-04-23T10:06:37.714Z</time></trkpt><trkpt lat="44.6708383" lon="9.3253133"><ele>829.0</ele><time>2026-04-23T10:06:38.715Z</time></trkpt><trkpt lat="44.6707433" lon="9.32523"><ele>829.0</ele><time>2026-04-23T10:06:39.714Z</time></trkpt><trkpt lat="44.6706633" lon="9.3251533"><ele>828.9999999999999</ele><time>2026-04-23T10:06:40.714Z</time></trkpt><trkpt lat="44.6706033" lon="9.3250717"><ele>829.0</ele><time>2026-04-23T10:06:41.714Z</time></trkpt><trkpt lat="44.6705533" lon="9.324985"><ele>829.0</ele><time>2026-04-23T10:06:42.715Z</time></trkpt><trkpt lat="44.6705133" lon="9.3249067"><ele>829.0</ele><time>2026-04-23T10:06:43.715Z</time></trkpt><trkpt lat="44.670415" lon="9.3248267"><ele>828.9999999999999</ele><time>2026-04-23T10:06:45.713Z</time></trkpt><trkpt lat="44.6703417" lon="9.3248333"><ele>829.0</ele><time>2026-04-23T10:06:46.715Z</time></trkpt><trkpt lat="44.67027" lon="9.32485"><ele>829.4000000000001</ele><time>2026-04-23T10:06:47.715Z</time></trkpt><trkpt lat="44.6701667" lon="9.3248567"><ele>829.8</ele><time>2026-04-23T10:06:49.714Z</time></trkpt><trkpt lat="44.6700833" lon="9.3247867"><ele>830.2</ele><time>2026-04-23T10:06:51.713Z</time></trkpt><trkpt lat="44.6699983" lon="9.3246967"><ele>830.5999999999999</ele><time>2026-04-23T10:06:53.713Z</time></trkpt><trkpt lat="44.669975" lon="9.3245517"><ele>831.0</ele><time>2026-04-23T10:06:55.713Z</time></trkpt><trkpt lat="44.6700117" lon="9.324385"><ele>831.0</ele><time>2026-04-23T10:06:57.713Z</time></trkpt><trkpt lat="44.6700183" lon="9.32422"><ele>831.0</ele><time>2026-04-23T10:06:59.715Z</time></trkpt><trkpt lat="44.669995" lon="9.324015"><ele>831.0</ele><time>2026-04-23T10:07:01.715Z</time></trkpt><trkpt lat="44.669975" lon="9.323895"><ele>831.0</ele><time>2026-04-23T10:07:02.715Z</time></trkpt><trkpt lat="44.6699283" lon="9.3237717"><ele>830.0</ele><time>2026-04-23T10:07:03.715Z</time></trkpt><trkpt lat="44.6698783" lon="9.3236333"><ele>829.0</ele><time>2026-04-23T10:07:04.714Z</time></trkpt><trkpt lat="44.66982" lon="9.3235233"><ele>828.0</ele><time>2026-04-23T10:07:05.714Z</time></trkpt><trkpt lat="44.66976" lon="9.3234367"><ele>827.0</ele><time>2026-04-23T10:07:06.715Z</time></trkpt><trkpt lat="44.6696883" lon="9.323365"><ele>826.0</ele><time>2026-04-23T10:07:07.714Z</time></trkpt><trkpt lat="44.6696067" lon="9.3233283"><ele>826.0</ele><time>2026-04-23T10:07:08.715Z</time></trkpt><trkpt lat="44.6695117" lon="9.3233067"><ele>826.0</ele><time>2026-04-23T10:07:09.715Z</time></trkpt><trkpt lat="44.6694117" lon="9.323285"><ele>826.0</ele><time>2026-04-23T10:07:10.715Z</time></trkpt><trkpt lat="44.6693267" lon="9.3232467"><ele>826.0</ele><time>2026-04-23T10:07:11.713Z</time></trkpt><trkpt lat="44.669245" lon="9.3232183"><ele>826.0</ele><time>2026-04-23T10:07:12.715Z</time></trkpt><trkpt lat="44.6691583" lon="9.3231833"><ele>826.8333333333333</ele><time>2026-04-23T10:07:13.713Z</time></trkpt><trkpt lat="44.6690683" lon="9.3231367"><ele>827.6666666666666</ele><time>2026-04-23T10:07:14.713Z</time></trkpt><trkpt lat="44.668985" lon="9.3230817"><ele>828.5</ele><time>2026-04-23T10:07:15.713Z</time></trkpt><trkpt lat="44.6689167" lon="9.323015"><ele>829.3333333333333</ele><time>2026-04-23T10:07:16.716Z</time></trkpt><trkpt lat="44.66885" lon="9.32295"><ele>830.1666666666666</ele><time>2026-04-23T10:07:17.713Z</time></trkpt><trkpt lat="44.6687967" lon="9.322885"><ele>831.0</ele><time>2026-04-23T10:07:18.714Z</time></trkpt><trkpt lat="44.6687517" lon="9.32282"><ele>831.0</ele><time>2026-04-23T10:07:20.714Z</time></trkpt><trkpt lat="44.6686733" lon="9.3227983"><ele>831.0</ele><time>2026-04-23T10:07:39.714Z</time></trkpt><trkpt lat="44.6685583" lon="9.322815"><ele>831.0</ele><time>2026-04-23T10:07:41.714Z</time></trkpt><trkpt lat="44.6684233" lon="9.3228367"><ele>831.0</ele><time>2026-04-23T10:07:43.714Z</time></trkpt><trkpt lat="44.66835" lon="9.322835"><ele>831.0</ele><time>2026-04-23T10:07:44.715Z</time></trkpt><trkpt lat="44.6682733" lon="9.3228283"><ele>831.8333333333334</ele><time>2026-04-23T10:07:45.713Z</time></trkpt><trkpt lat="44.6682033" lon="9.3228233"><ele>832.6666666666667</ele><time>2026-04-23T10:07:46.713Z</time></trkpt><trkpt lat="44.6681433" lon="9.3228517"><ele>833.5</ele><time>2026-04-23T10:07:47.715Z</time></trkpt><trkpt lat="44.66808" lon="9.32291"><ele>834.3333333333334</ele><time>2026-04-23T10:07:48.714Z</time></trkpt><trkpt lat="44.6680183" lon="9.32296"><ele>835.1666666666667</ele><time>2026-04-23T10:07:49.713Z</time></trkpt><trkpt lat="44.6679667" lon="9.3230117"><ele>836.0</ele><time>2026-04-23T10:07:50.714Z</time></trkpt><trkpt lat="44.6679533" lon="9.3231833"><ele>837.5000000000001</ele><time>2026-04-23T10:07:52.713Z</time></trkpt><trkpt lat="44.6679533" lon="9.3232867"><ele>839.0</ele><time>2026-04-23T10:07:53.713Z</time></trkpt><trkpt lat="44.667945" lon="9.3233883"><ele>840.5</ele><time>2026-04-23T10:07:54.714Z</time></trkpt><trkpt lat="44.66792" lon="9.3234883"><ele>842.0</ele><time>2026-04-23T10:07:55.716Z</time></trkpt><trkpt lat="44.6678817" lon="9.32361"><ele>843.5000000000001</ele><time>2026-04-23T10:07:56.714Z</time></trkpt><trkpt lat="44.66783" lon="9.32374"><ele>845.0</ele><time>2026-04-23T10:07:57.713Z</time></trkpt><trkpt lat="44.667775" lon="9.32386"><ele>848.8</ele><time>2026-04-23T10:07:58.713Z</time></trkpt><trkpt lat="44.6677133" lon="9.323965"><ele>852.6</ele><time>2026-04-23T10:07:59.714Z</time></trkpt><trkpt lat="44.66765" lon="9.3240783"><ele>856.4000000000001</ele><time>2026-04-23T10:08:00.713Z</time></trkpt><trkpt lat="44.6675933" lon="9.3241733"><ele>860.2</ele><time>2026-04-23T10:08:01.714Z</time></trkpt><trkpt lat="44.6675317" lon="9.32426"><ele>864.0</ele><time>2026-04-23T10:08:02.714Z</time></trkpt><trkpt lat="44.667465" lon="9.32434"><ele>864.0</ele><time>2026-04-23T10:08:03.713Z</time></trkpt><trkpt lat="44.6673984" lon="9.3244191"><ele>864.0</ele><time>2026-04-23T10:08:04.713Z</time></trkpt><trkpt lat="44.6673315" lon="9.3245114"><ele>864.0</ele><time>2026-04-23T10:08:05.714Z</time></trkpt><trkpt lat="44.6672674" lon="9.3245926"><ele>864.0</ele><time>2026-04-23T10:08:06.714Z</time></trkpt><trkpt lat="44.6672102" lon="9.3246617"><ele>864.0</ele><time>2026-04-23T10:08:07.713Z</time></trkpt><trkpt lat="44.667155" lon="9.3247334"><ele>864.0</ele><time>2026-04-23T10:08:08.714Z</time></trkpt><trkpt lat="44.667104" lon="9.3248039"><ele>865.1428571428571</ele><time>2026-04-23T10:08:09.713Z</time></trkpt><trkpt lat="44.667053" lon="9.3248689"><ele>866.2857142857142</ele><time>2026-04-23T10:08:10.715Z</time></trkpt><trkpt lat="44.6669946" lon="9.3249215"><ele>867.4285714285714</ele><time>2026-04-23T10:08:11.715Z</time></trkpt><trkpt lat="44.6669323" lon="9.324969"><ele>868.5714285714286</ele><time>2026-04-23T10:08:12.714Z</time></trkpt><trkpt lat="44.6668689" lon="9.3250022"><ele>869.7142857142858</ele><time>2026-04-23T10:08:13.714Z</time></trkpt><trkpt lat="44.6668007" lon="9.3250203"><ele>870.8571428571429</ele><time>2026-04-23T10:08:14.714Z</time></trkpt><trkpt lat="44.6667371" lon="9.3250219"><ele>872.0</ele><time>2026-04-23T10:08:15.713Z</time></trkpt><trkpt lat="44.6666193" lon="9.3250717"><ele>872.0000000000001</ele><time>2026-04-23T10:08:17.713Z</time></trkpt><trkpt lat="44.6665457" lon="9.3252169"><ele>872.0</ele><time>2026-04-23T10:08:19.714Z</time></trkpt><trkpt lat="44.6665044" lon="9.3253126"><ele>872.0</ele><time>2026-04-23T10:08:20.714Z</time></trkpt><trkpt lat="44.6664548" lon="9.3254087"><ele>872.0</ele><time>2026-04-23T10:08:21.713Z</time></trkpt><trkpt lat="44.6664079" lon="9.3254971"><ele>872.0000000000001</ele><time>2026-04-23T10:08:22.714Z</time></trkpt><trkpt lat="44.6663712" lon="9.3255903"><ele>872.0</ele><time>2026-04-23T10:08:23.714Z</time></trkpt><trkpt lat="44.6663435" lon="9.3256775"><ele>872.4000000000001</ele><time>2026-04-23T10:08:24.713Z</time></trkpt><trkpt lat="44.6662806" lon="9.3258119"><ele>872.8000000000001</ele><time>2026-04-23T10:08:26.714Z</time></trkpt><trkpt lat="44.6662236" lon="9.3259142"><ele>873.2</ele><time>2026-04-23T10:08:28.714Z</time></trkpt><trkpt lat="44.6661877" lon="9.3260411"><ele>873.6</ele><time>2026-04-23T10:08:30.713Z</time></trkpt><trkpt lat="44.6661238" lon="9.3261119"><ele>874.0</ele><time>2026-04-23T10:08:32.714Z</time></trkpt><trkpt lat="44.6660139" lon="9.3261162"><ele>873.9999999999999</ele><time>2026-04-23T10:08:34.714Z</time></trkpt><trkpt lat="44.6658908" lon="9.326122"><ele>874.0</ele><time>2026-04-23T10:08:36.714Z</time></trkpt><trkpt lat="44.6658239" lon="9.3261492"><ele>874.0</ele><time>2026-04-23T10:08:37.714Z</time></trkpt><trkpt lat="44.6657381" lon="9.3261842"><ele>874.0</ele><time>2026-04-23T10:08:38.714Z</time></trkpt><trkpt lat="44.6656525" lon="9.3262102"><ele>873.9999999999999</ele><time>2026-04-23T10:08:39.713Z</time></trkpt><trkpt lat="44.6655834" lon="9.3262302"><ele>874.0</ele><time>2026-04-23T10:08:40.714Z</time></trkpt><trkpt lat="44.6655234" lon="9.3262599"><ele>874.0</ele><time>2026-04-23T10:08:41.714Z</time></trkpt><trkpt lat="44.6654336" lon="9.3263239"><ele>874.0000000000001</ele><time>2026-04-23T10:08:43.72Z</time></trkpt><trkpt lat="44.6653574" lon="9.326342"><ele>874.0000000000001</ele><time>2026-04-23T10:08:45.713Z</time></trkpt><trkpt lat="44.6652442" lon="9.3263665"><ele>874.0</ele><time>2026-04-23T10:08:47.713Z</time></trkpt><trkpt lat="44.6651278" lon="9.3263928"><ele>874.0</ele><time>2026-04-23T10:08:49.713Z</time></trkpt><trkpt lat="44.6650138" lon="9.326459"><ele>877.9999999999999</ele><time>2026-04-23T10:08:51.713Z</time></trkpt><trkpt lat="44.6649604" lon="9.326507"><ele>882.0</ele><time>2026-04-23T10:08:52.715Z</time></trkpt><trkpt lat="44.6648636" lon="9.3265899"><ele>886.0</ele><time>2026-04-23T10:08:54.713Z</time></trkpt><trkpt lat="44.664783" lon="9.3266187"><ele>890.0</ele><time>2026-04-23T10:08:56.715Z</time></trkpt><trkpt lat="44.6647105" lon="9.3266449"><ele>893.9999999999999</ele><time>2026-04-23T10:08:58.714Z</time></trkpt><trkpt lat="44.6646311" lon="9.3266731"><ele>898.0</ele><time>2026-04-23T10:09:01.713Z</time></trkpt><trkpt lat="44.6645755" lon="9.3266161"><ele>897.9999999999999</ele><time>2026-04-23T10:09:04.713Z</time></trkpt><trkpt lat="44.6645518" lon="9.3264802"><ele>898.0</ele><time>2026-04-23T10:09:06.713Z</time></trkpt><trkpt lat="44.6645506" lon="9.3263829"><ele>898.0</ele><time>2026-04-23T10:09:07.712Z</time></trkpt><trkpt lat="44.6645284" lon="9.3262273"><ele>898.0</ele><time>2026-04-23T10:09:09.712Z</time></trkpt><trkpt lat="44.6644729" lon="9.3262843"><ele>897.9999999999999</ele><time>2026-04-23T10:09:12.714Z</time></trkpt><trkpt lat="44.6644307" lon="9.3263616"><ele>898.0</ele><time>2026-04-23T10:09:13.715Z</time></trkpt><trkpt lat="44.6643741" lon="9.3264311"><ele>899.1666666666666</ele><time>2026-04-23T10:09:14.715Z</time></trkpt><trkpt lat="44.6643058" lon="9.3265102"><ele>900.3333333333333</ele><time>2026-04-23T10:09:15.713Z</time></trkpt><trkpt lat="44.6642375" lon="9.326599"><ele>901.5</ele><time>2026-04-23T10:09:16.714Z</time></trkpt><trkpt lat="44.6641706" lon="9.3266874"><ele>902.6666666666667</ele><time>2026-04-23T10:09:17.715Z</time></trkpt><trkpt lat="44.6641066" lon="9.3267685"><ele>903.8333333333334</ele><time>2026-04-23T10:09:18.713Z</time></trkpt><trkpt lat="44.66404" lon="9.3268375"><ele>905.0</ele><time>2026-04-23T10:09:19.714Z</time></trkpt><trkpt lat="44.6639688" lon="9.3268929"><ele>905.0</ele><time>2026-04-23T10:09:20.715Z</time></trkpt><trkpt lat="44.6638799" lon="9.3269485"><ele>905.0</ele><time>2026-04-23T10:09:21.714Z</time></trkpt><trkpt lat="44.6637728" lon="9.3270083"><ele>905.0</ele><time>2026-04-23T10:09:22.713Z</time></trkpt><trkpt lat="44.6636698" lon="9.3270722"><ele>905.0</ele><time>2026-04-23T10:09:23.713Z</time></trkpt><trkpt lat="44.66358" lon="9.327149"><ele>905.0</ele><time>2026-04-23T10:09:24.713Z</time></trkpt><trkpt lat="44.6634885" lon="9.3272375"><ele>907.2</ele><time>2026-04-23T10:09:25.714Z</time></trkpt><trkpt lat="44.6633942" lon="9.3273245"><ele>909.4</ele><time>2026-04-23T10:09:26.714Z</time></trkpt><trkpt lat="44.6633006" lon="9.3274014"><ele>911.5999999999999</ele><time>2026-04-23T10:09:27.714Z</time></trkpt><trkpt lat="44.6632121" lon="9.3274687"><ele>913.8</ele><time>2026-04-23T10:09:28.713Z</time></trkpt><trkpt lat="44.6631277" lon="9.3275141"><ele>916.0</ele><time>2026-04-23T10:09:29.713Z</time></trkpt><trkpt lat="44.663043" lon="9.3275424"><ele>915.9999999999999</ele><time>2026-04-23T10:09:30.713Z</time></trkpt><trkpt lat="44.6629659" lon="9.3275634"><ele>916.0</ele><time>2026-04-23T10:09:31.714Z</time></trkpt><trkpt lat="44.6628999" lon="9.3275789"><ele>916.0</ele><time>2026-04-23T10:09:32.714Z</time></trkpt><trkpt lat="44.6628305" lon="9.3275848"><ele>916.0</ele><time>2026-04-23T10:09:33.714Z</time></trkpt><trkpt lat="44.6627639" lon="9.3275848"><ele>915.9999999999999</ele><time>2026-04-23T10:09:34.715Z</time></trkpt><trkpt lat="44.6626696" lon="9.3276223"><ele>916.0</ele><time>2026-04-23T10:09:36.714Z</time></trkpt><trkpt lat="44.66261" lon="9.3276936"><ele>914.0</ele><time>2026-04-23T10:09:39.714Z</time></trkpt><trkpt lat="44.6625454" lon="9.3277189"><ele>911.9999999999999</ele><time>2026-04-23T10:09:41.713Z</time></trkpt><trkpt lat="44.6624409" lon="9.3277265"><ele>909.9999999999999</ele><time>2026-04-23T10:09:43.715Z</time></trkpt><trkpt lat="44.6623198" lon="9.3277491"><ele>908.0</ele><time>2026-04-23T10:09:45.714Z</time></trkpt><trkpt lat="44.6622123" lon="9.327789"><ele>906.0</ele><time>2026-04-23T10:09:47.714Z</time></trkpt><trkpt lat="44.6621203" lon="9.3278655"><ele>906.0</ele><time>2026-04-23T10:09:49.714Z</time></trkpt><trkpt lat="44.6620385" lon="9.3279696"><ele>905.9999999999999</ele><time>2026-04-23T10:09:51.714Z</time></trkpt><trkpt lat="44.6620122" lon="9.3281441"><ele>905.9999999999999</ele><time>2026-04-23T10:09:53.714Z</time></trkpt><trkpt lat="44.661998" lon="9.3282375"><ele>906.0</ele><time>2026-04-23T10:09:54.714Z</time></trkpt><trkpt lat="44.6619686" lon="9.3283882"><ele>906.0</ele><time>2026-04-23T10:09:56.714Z</time></trkpt><trkpt lat="44.6618883" lon="9.328415"><ele>903.3333333333334</ele><time>2026-04-23T10:09:58.713Z</time></trkpt><trkpt lat="44.6617717" lon="9.3284183"><ele>900.6666666666667</ele><time>2026-04-23T10:10:00.713Z</time></trkpt><trkpt lat="44.66169" lon="9.3284317"><ele>898.0</ele><time>2026-04-23T10:10:01.714Z</time></trkpt><trkpt lat="44.6616183" lon="9.32846"><ele>895.3333333333334</ele><time>2026-04-23T10:10:02.714Z</time></trkpt><trkpt lat="44.661555" lon="9.32851"><ele>892.6666666666667</ele><time>2026-04-23T10:10:03.713Z</time></trkpt><trkpt lat="44.661515" lon="9.32859"><ele>890.0</ele><time>2026-04-23T10:10:04.714Z</time></trkpt><trkpt lat="44.661485" lon="9.3287"><ele>890.0000000000001</ele><time>2026-04-23T10:10:05.714Z</time></trkpt><trkpt lat="44.66145" lon="9.3287883"><ele>890.0</ele><time>2026-04-23T10:10:06.714Z</time></trkpt><trkpt lat="44.661415" lon="9.3288667"><ele>890.0</ele><time>2026-04-23T10:10:07.714Z</time></trkpt><trkpt lat="44.6613767" lon="9.3289467"><ele>890.0</ele><time>2026-04-23T10:10:08.714Z</time></trkpt><trkpt lat="44.6613367" lon="9.3290267"><ele>890.0000000000001</ele><time>2026-04-23T10:10:09.714Z</time></trkpt><trkpt lat="44.6612917" lon="9.32909"><ele>890.0</ele><time>2026-04-23T10:10:10.715Z</time></trkpt><trkpt lat="44.66117" lon="9.32914"><ele>890.5000000000001</ele><time>2026-04-23T10:10:12.713Z</time></trkpt><trkpt lat="44.6610917" lon="9.3291767"><ele>891.0</ele><time>2026-04-23T10:10:13.714Z</time></trkpt><trkpt lat="44.6610083" lon="9.3292267"><ele>891.5</ele><time>2026-04-23T10:10:14.714Z</time></trkpt><trkpt lat="44.6609367" lon="9.3292617"><ele>892.0</ele><time>2026-04-23T10:10:15.713Z</time></trkpt><trkpt lat="44.6608733" lon="9.3292883"><ele>892.5000000000001</ele><time>2026-04-23T10:10:16.713Z</time></trkpt><trkpt lat="44.660815" lon="9.3293333"><ele>893.0</ele><time>2026-04-23T10:10:18.713Z</time></trkpt><trkpt lat="44.6607017" lon="9.3293983"><ele>893.0000000000001</ele><time>2026-04-23T10:12:10.714Z</time></trkpt><trkpt lat="44.6605817" lon="9.3294667"><ele>893.0</ele><time>2026-04-23T10:12:12.712Z</time></trkpt><trkpt lat="44.6605033" lon="9.32959"><ele>893.0</ele><time>2026-04-23T10:12:14.712Z</time></trkpt><trkpt lat="44.6604733" lon="9.3296783"><ele>893.0</ele><time>2026-04-23T10:12:15.713Z</time></trkpt><trkpt lat="44.6604567" lon="9.3297667"><ele>893.0000000000001</ele><time>2026-04-23T10:12:16.713Z</time></trkpt><trkpt lat="44.6604317" lon="9.32985"><ele>893.0</ele><time>2026-04-23T10:12:17.712Z</time></trkpt><trkpt lat="44.6604" lon="9.3299283"><ele>891.1428571428571</ele><time>2026-04-23T10:12:18.717Z</time></trkpt><trkpt lat="44.6603583" lon="9.3300067"><ele>889.2857142857143</ele><time>2026-04-23T10:12:19.713Z</time></trkpt><trkpt lat="44.6603117" lon="9.3300783"><ele>887.4285714285713</ele><time>2026-04-23T10:12:20.713Z</time></trkpt><trkpt lat="44.6602633" lon="9.33016"><ele>885.5714285714286</ele><time>2026-04-23T10:12:21.712Z</time></trkpt><trkpt lat="44.6602167" lon="9.3302367"><ele>883.7142857142857</ele><time>2026-04-23T10:12:22.713Z</time></trkpt><trkpt lat="44.66018" lon="9.330315"><ele>881.8571428571428</ele><time>2026-04-23T10:12:23.713Z</time></trkpt><trkpt lat="44.6601467" lon="9.3304067"><ele>880.0</ele><time>2026-04-23T10:12:24.713Z</time></trkpt><trkpt lat="44.6601033" lon="9.3305"><ele>881.6666666666666</ele><time>2026-04-23T10:12:25.713Z</time></trkpt><trkpt lat="44.6600517" lon="9.3305883"><ele>883.3333333333333</ele><time>2026-04-23T10:12:26.714Z</time></trkpt><trkpt lat="44.6600067" lon="9.3306767"><ele>885.0</ele><time>2026-04-23T10:12:27.712Z</time></trkpt><trkpt lat="44.6599717" lon="9.3307517"><ele>886.6666666666667</ele><time>2026-04-23T10:12:28.714Z</time></trkpt><trkpt lat="44.6599033" lon="9.3308883"><ele>888.3333333333334</ele><time>2026-04-23T10:12:30.713Z</time></trkpt><trkpt lat="44.65986" lon="9.331015"><ele>890.0</ele><time>2026-04-23T10:12:32.713Z</time></trkpt><trkpt lat="44.6598317" lon="9.3311483"><ele>890.0000000000001</ele><time>2026-04-23T10:12:34.713Z</time></trkpt><trkpt lat="44.659805" lon="9.3312433"><ele>890.0</ele><time>2026-04-23T10:12:37.713Z</time></trkpt><trkpt lat="44.659725" lon="9.33126"><ele>890.0</ele><time>2026-04-23T10:12:48.719Z</time></trkpt><trkpt lat="44.659715" lon="9.3313567"><ele>890.0</ele><time>2026-04-23T10:12:51.712Z</time></trkpt><trkpt lat="44.659675" lon="9.3314933"><ele>890.0000000000001</ele><time>2026-04-23T10:12:53.713Z</time></trkpt><trkpt lat="44.6596433" lon="9.33158"><ele>890.0</ele><time>2026-04-23T10:12:54.715Z</time></trkpt><trkpt lat="44.6596083" lon="9.331665"><ele>888.8</ele><time>2026-04-23T10:12:55.713Z</time></trkpt><trkpt lat="44.6595733" lon="9.3317467"><ele>887.6</ele><time>2026-04-23T10:12:56.713Z</time></trkpt><trkpt lat="44.6594967" lon="9.3318417"><ele>886.4000000000001</ele><time>2026-04-23T10:12:58.712Z</time></trkpt><trkpt lat="44.6593967" lon="9.3318333"><ele>885.2</ele><time>2026-04-23T10:13:00.713Z</time></trkpt><trkpt lat="44.6592917" lon="9.3317867"><ele>884.0</ele><time>2026-04-23T10:13:02.713Z</time></trkpt><trkpt lat="44.65921" lon="9.33176"><ele>884.0000000000001</ele><time>2026-04-23T10:13:04.713Z</time></trkpt><trkpt lat="44.659145" lon="9.3317767"><ele>884.0</ele><time>2026-04-23T10:13:06.713Z</time></trkpt><trkpt lat="44.65909" lon="9.3318267"><ele>884.0</ele><time>2026-04-23T10:13:08.713Z</time></trkpt><trkpt lat="44.65903" lon="9.3318883"><ele>884.0</ele><time>2026-04-23T10:13:10.713Z</time></trkpt><trkpt lat="44.6589667" lon="9.331955"><ele>884.0</ele><time>2026-04-23T10:13:12.712Z</time></trkpt><trkpt lat="44.6589033" lon="9.3320183"><ele>884.0000000000001</ele><time>2026-04-23T10:13:14.713Z</time></trkpt><trkpt lat="44.658845" lon="9.3320583"><ele>884.0</ele><time>2026-04-23T10:13:16.712Z</time></trkpt><trkpt lat="44.6587483" lon="9.3321217"><ele>884.0000000000001</ele><time>2026-04-23T10:13:19.713Z</time></trkpt><trkpt lat="44.6586317" lon="9.3322"><ele>884.0</ele><time>2026-04-23T10:13:21.712Z</time></trkpt><trkpt lat="44.658565" lon="9.3322383"><ele>884.0</ele><time>2026-04-23T10:13:22.714Z</time></trkpt><trkpt lat="44.6585017" lon="9.33227"><ele>884.0</ele><time>2026-04-23T10:13:23.714Z</time></trkpt><trkpt lat="44.65844" lon="9.3323033"><ele>884.0000000000001</ele><time>2026-04-23T10:13:24.713Z</time></trkpt><trkpt lat="44.658375" lon="9.3323467"><ele>884.0</ele><time>2026-04-23T10:13:25.714Z</time></trkpt><trkpt lat="44.65831" lon="9.3323883"><ele>884.4000000000001</ele><time>2026-04-23T10:13:26.713Z</time></trkpt><trkpt lat="44.658205" lon="9.3324533"><ele>884.8000000000001</ele><time>2026-04-23T10:13:28.713Z</time></trkpt><trkpt lat="44.6581167" lon="9.3324617"><ele>885.1999999999999</ele><time>2026-04-23T10:13:30.713Z</time></trkpt><trkpt lat="44.6580117" lon="9.3324367"><ele>885.5999999999999</ele><time>2026-04-23T10:13:32.713Z</time></trkpt><trkpt lat="44.65791" lon="9.3324617"><ele>886.0</ele><time>2026-04-23T10:13:34.713Z</time></trkpt><trkpt lat="44.65783" lon="9.3325483"><ele>885.8</ele><time>2026-04-23T10:13:36.713Z</time></trkpt><trkpt lat="44.65775" lon="9.3326417"><ele>885.5999999999999</ele><time>2026-04-23T10:13:38.712Z</time></trkpt><trkpt lat="44.65768" lon="9.332745"><ele>885.4</ele><time>2026-04-23T10:13:40.713Z</time></trkpt><trkpt lat="44.6576133" lon="9.3328467"><ele>885.2</ele><time>2026-04-23T10:13:42.712Z</time></trkpt><trkpt lat="44.657545" lon="9.3329733"><ele>885.0</ele><time>2026-04-23T10:13:44.713Z</time></trkpt><trkpt lat="44.65749" lon="9.333105"><ele>888.2</ele><time>2026-04-23T10:13:46.713Z</time></trkpt><trkpt lat="44.6574367" lon="9.3332417"><ele>891.4</ele><time>2026-04-23T10:13:48.714Z</time></trkpt><trkpt lat="44.6573833" lon="9.33336"><ele>894.5999999999999</ele><time>2026-04-23T10:13:50.713Z</time></trkpt><trkpt lat="44.657335" lon="9.33346"><ele>897.8</ele><time>2026-04-23T10:13:52.714Z</time></trkpt><trkpt lat="44.6572667" lon="9.3335517"><ele>901.0</ele><time>2026-04-23T10:13:54.712Z</time></trkpt><trkpt lat="44.6571717" lon="9.3336"><ele>901.0</ele><time>2026-04-23T10:13:56.713Z</time></trkpt><trkpt lat="44.6570633" lon="9.3336133"><ele>900.9999999999999</ele><time>2026-04-23T10:13:58.715Z</time></trkpt><trkpt lat="44.656975" lon="9.3336533"><ele>900.9999999999999</ele><time>2026-04-23T10:14:00.712Z</time></trkpt><trkpt lat="44.6569117" lon="9.333725"><ele>901.0</ele><time>2026-04-23T10:14:02.718Z</time></trkpt><trkpt lat="44.65684" lon="9.3337817"><ele>901.0</ele><time>2026-04-23T10:14:04.712Z</time></trkpt><trkpt lat="44.65674" lon="9.3337783"><ele>901.4</ele><time>2026-04-23T10:14:06.712Z</time></trkpt><trkpt lat="44.6566199" lon="9.333748"><ele>901.8</ele><time>2026-04-23T10:14:08.714Z</time></trkpt><trkpt lat="44.6565582" lon="9.3337224"><ele>902.1999999999999</ele><time>2026-04-23T10:14:09.712Z</time></trkpt><trkpt lat="44.6564401" lon="9.3336943"><ele>902.5999999999999</ele><time>2026-04-23T10:14:11.712Z</time></trkpt><trkpt lat="44.6563155" lon="9.3337027"><ele>903.0</ele><time>2026-04-23T10:14:13.713Z</time></trkpt><trkpt lat="44.6561961" lon="9.3337018"><ele>903.0</ele><time>2026-04-23T10:14:15.713Z</time></trkpt><trkpt lat="44.6561262" lon="9.333695"><ele>903.0</ele><time>2026-04-23T10:14:16.713Z</time></trkpt><trkpt lat="44.6560471" lon="9.3336985"><ele>903.0</ele><time>2026-04-23T10:14:17.713Z</time></trkpt><trkpt lat="44.6559655" lon="9.3337047"><ele>903.0</ele><time>2026-04-23T10:14:18.712Z</time></trkpt><trkpt lat="44.6558863" lon="9.333719"><ele>903.0</ele><time>2026-04-23T10:14:19.713Z</time></trkpt><trkpt lat="44.655809" lon="9.3337307"><ele>903.0</ele><time>2026-04-23T10:14:20.713Z</time></trkpt><trkpt lat="44.6557364" lon="9.3337369"><ele>904.1666666666666</ele><time>2026-04-23T10:14:21.712Z</time></trkpt><trkpt lat="44.6556667" lon="9.333747"><ele>905.3333333333333</ele><time>2026-04-23T10:14:22.714Z</time></trkpt><trkpt lat="44.6555976" lon="9.3337652"><ele>906.5</ele><time>2026-04-23T10:14:23.714Z</time></trkpt><trkpt lat="44.6555333" lon="9.3337836"><ele>907.6666666666666</ele><time>2026-04-23T10:14:24.714Z</time></trkpt><trkpt lat="44.6554226" lon="9.3338246"><ele>908.8333333333333</ele><time>2026-04-23T10:14:26.714Z</time></trkpt><trkpt lat="44.6553104" lon="9.3338854"><ele>910.0</ele><time>2026-04-23T10:14:28.712Z</time></trkpt><trkpt lat="44.655251" lon="9.3339214"><ele>913.2857142857142</ele><time>2026-04-23T10:14:29.714Z</time></trkpt><trkpt lat="44.6551935" lon="9.3339694"><ele>916.5714285714286</ele><time>2026-04-23T10:14:30.713Z</time></trkpt><trkpt lat="44.6551391" lon="9.3340305"><ele>919.8571428571429</ele><time>2026-04-23T10:14:31.714Z</time></trkpt><trkpt lat="44.6550884" lon="9.3340944"><ele>923.1428571428571</ele><time>2026-04-23T10:14:32.713Z</time></trkpt><trkpt lat="44.6550341" lon="9.3341519"><ele>926.4285714285713</ele><time>2026-04-23T10:14:33.712Z</time></trkpt><trkpt lat="44.6549744" lon="9.3342023"><ele>929.7142857142857</ele><time>2026-04-23T10:14:34.713Z</time></trkpt><trkpt lat="44.6549193" lon="9.3342575"><ele>933.0</ele><time>2026-04-23T10:14:35.714Z</time></trkpt><trkpt lat="44.6548666" lon="9.334315"><ele>933.0</ele><time>2026-04-23T10:14:36.714Z</time></trkpt><trkpt lat="44.6548042" lon="9.3343693"><ele>933.0</ele><time>2026-04-23T10:14:37.713Z</time></trkpt><trkpt lat="44.6547364" lon="9.3344223"><ele>933.0</ele><time>2026-04-23T10:14:38.716Z</time></trkpt><trkpt lat="44.6546754" lon="9.3344677"><ele>933.0</ele><time>2026-04-23T10:14:39.712Z</time></trkpt><trkpt lat="44.6545901" lon="9.334568"><ele>933.0</ele><time>2026-04-23T10:14:41.713Z</time></trkpt><trkpt lat="44.6545263" lon="9.3346833"><ele>933.0</ele><time>2026-04-23T10:14:43.713Z</time></trkpt><trkpt lat="44.6544752" lon="9.3347913"><ele>935.3333333333334</ele><time>2026-04-23T10:14:45.713Z</time></trkpt><trkpt lat="44.6544726" lon="9.33491"><ele>937.6666666666667</ele><time>2026-04-23T10:14:47.713Z</time></trkpt><trkpt lat="44.6544731" lon="9.3350332"><ele>940.0</ele><time>2026-04-23T10:14:49.713Z</time></trkpt><trkpt lat="44.6544982" lon="9.3351275"><ele>942.3333333333334</ele><time>2026-04-23T10:14:52.712Z</time></trkpt><trkpt lat="44.6545322" lon="9.3352031"><ele>944.6666666666667</ele><time>2026-04-23T10:14:59.713Z</time></trkpt><trkpt lat="44.6546175" lon="9.3353253"><ele>947.0</ele><time>2026-04-23T10:15:01.714Z</time></trkpt><trkpt lat="44.6546884" lon="9.3354114"><ele>947.0</ele><time>2026-04-23T10:15:02.713Z</time></trkpt><trkpt lat="44.6547734" lon="9.3355072"><ele>947.0</ele><time>2026-04-23T10:15:03.712Z</time></trkpt><trkpt lat="44.6548587" lon="9.3355971"><ele>947.0</ele><time>2026-04-23T10:15:04.713Z</time></trkpt><trkpt lat="44.6549398" lon="9.3356786"><ele>947.0</ele><time>2026-04-23T10:15:05.713Z</time></trkpt><trkpt lat="44.6550116" lon="9.3357427"><ele>947.0</ele><time>2026-04-23T10:15:06.713Z</time></trkpt><trkpt lat="44.65507" lon="9.3357981"><ele>945.4000000000001</ele><time>2026-04-23T10:15:07.714Z</time></trkpt><trkpt lat="44.6551524" lon="9.3359231"><ele>943.8000000000001</ele><time>2026-04-23T10:15:09.714Z</time></trkpt><trkpt lat="44.6552066" lon="9.3360535"><ele>942.2</ele><time>2026-04-23T10:15:11.715Z</time></trkpt><trkpt lat="44.6552552" lon="9.336159"><ele>940.6</ele><time>2026-04-23T10:15:13.713Z</time></trkpt><trkpt lat="44.6552936" lon="9.3362826"><ele>939.0</ele><time>2026-04-23T10:15:15.714Z</time></trkpt><trkpt lat="44.6552883" lon="9.33644"><ele>937.2</ele><time>2026-04-23T10:15:17.712Z</time></trkpt><trkpt lat="44.6552817" lon="9.336615"><ele>935.4000000000001</ele><time>2026-04-23T10:15:19.714Z</time></trkpt><trkpt lat="44.655285" lon="9.3367683"><ele>933.6</ele><time>2026-04-23T10:15:21.713Z</time></trkpt><trkpt lat="44.655295" lon="9.3369167"><ele>931.8</ele><time>2026-04-23T10:15:23.713Z</time></trkpt><trkpt lat="44.6553033" lon="9.3370467"><ele>930.0</ele><time>2026-04-23T10:15:25.714Z</time></trkpt><trkpt lat="44.6553133" lon="9.3371617"><ele>936.6</ele><time>2026-04-23T10:15:27.713Z</time></trkpt><trkpt lat="44.6553483" lon="9.3372833"><ele>943.2</ele><time>2026-04-23T10:15:29.714Z</time></trkpt><trkpt lat="44.6553783" lon="9.3374167"><ele>949.8</ele><time>2026-04-23T10:15:31.713Z</time></trkpt><trkpt lat="44.65539" lon="9.3375467"><ele>956.4</ele><time>2026-04-23T10:15:33.714Z</time></trkpt><trkpt lat="44.65541" lon="9.3377133"><ele>963.0</ele><time>2026-04-23T10:15:35.714Z</time></trkpt><trkpt lat="44.6554717" lon="9.3378483"><ele>963.0</ele><time>2026-04-23T10:15:37.713Z</time></trkpt><trkpt lat="44.655545" lon="9.3379633"><ele>963.0</ele><time>2026-04-23T10:15:39.713Z</time></trkpt><trkpt lat="44.6556183" lon="9.338075"><ele>963.0</ele><time>2026-04-23T10:15:41.713Z</time></trkpt><trkpt lat="44.6556417" lon="9.3381917"><ele>963.0</ele><time>2026-04-23T10:15:43.714Z</time></trkpt><trkpt lat="44.65561" lon="9.3382917"><ele>963.0</ele><time>2026-04-23T10:15:45.712Z</time></trkpt><trkpt lat="44.65551" lon="9.338345"><ele>962.2</ele><time>2026-04-23T10:15:47.713Z</time></trkpt><trkpt lat="44.6554183" lon="9.3384083"><ele>961.4</ele><time>2026-04-23T10:15:49.713Z</time></trkpt><trkpt lat="44.6553467" lon="9.3385117"><ele>960.6000000000001</ele><time>2026-04-23T10:15:51.714Z</time></trkpt><trkpt lat="44.655285" lon="9.3386267"><ele>959.8000000000001</ele><time>2026-04-23T10:15:53.713Z</time></trkpt><trkpt lat="44.6551983" lon="9.33872"><ele>959.0</ele><time>2026-04-23T10:15:55.713Z</time></trkpt><trkpt lat="44.655175" lon="9.3388283"><ele>960.6666666666667</ele><time>2026-04-23T10:16:20.715Z</time></trkpt><trkpt lat="44.65522" lon="9.3388967"><ele>962.3333333333334</ele><time>2026-04-23T10:16:23.715Z</time></trkpt><trkpt lat="44.6552633" lon="9.3389717"><ele>964.0</ele><time>2026-04-23T10:16:25.713Z</time></trkpt><trkpt lat="44.6553117" lon="9.3390417"><ele>965.6666666666667</ele><time>2026-04-23T10:16:27.714Z</time></trkpt><trkpt lat="44.6553667" lon="9.3391517"><ele>967.3333333333334</ele><time>2026-04-23T10:16:29.713Z</time></trkpt><trkpt lat="44.6553917" lon="9.33928"><ele>969.0</ele><time>2026-04-23T10:16:31.713Z</time></trkpt><trkpt lat="44.6554117" lon="9.33942"><ele>969.0</ele><time>2026-04-23T10:16:33.713Z</time></trkpt><trkpt lat="44.6554067" lon="9.3395583"><ele>969.0</ele><time>2026-04-23T10:16:35.714Z</time></trkpt><trkpt lat="44.6554017" lon="9.33965"><ele>969.0</ele><time>2026-04-23T10:16:36.713Z</time></trkpt><trkpt lat="44.6554067" lon="9.3398233"><ele>969.0</ele><time>2026-04-23T10:16:38.715Z</time></trkpt><trkpt lat="44.6554017" lon="9.3399217"><ele>969.0</ele><time>2026-04-23T10:16:39.713Z</time></trkpt><trkpt lat="44.6554" lon="9.3400117"><ele>969.0</ele><time>2026-04-23T10:16:40.714Z</time></trkpt><trkpt lat="44.6554017" lon="9.34011"><ele>970.8000000000001</ele><time>2026-04-23T10:16:41.713Z</time></trkpt><trkpt lat="44.655405" lon="9.3402"><ele>972.6000000000001</ele><time>2026-04-23T10:16:42.714Z</time></trkpt><trkpt lat="44.655395" lon="9.3403667"><ele>974.4</ele><time>2026-04-23T10:16:44.715Z</time></trkpt><trkpt lat="44.6553883" lon="9.3404567"><ele>976.2</ele><time>2026-04-23T10:16:45.714Z</time></trkpt><trkpt lat="44.6554017" lon="9.340615"><ele>978.0</ele><time>2026-04-23T10:16:47.713Z</time></trkpt><trkpt lat="44.655415" lon="9.340765"><ele>978.5999999999999</ele><time>2026-04-23T10:16:49.714Z</time></trkpt><trkpt lat="44.6554033" lon="9.3409033"><ele>979.1999999999999</ele><time>2026-04-23T10:16:51.714Z</time></trkpt><trkpt lat="44.6553917" lon="9.341045"><ele>979.8</ele><time>2026-04-23T10:16:53.713Z</time></trkpt><trkpt lat="44.6553883" lon="9.3412117"><ele>980.4</ele><time>2026-04-23T10:16:55.714Z</time></trkpt><trkpt lat="44.6553833" lon="9.3413167"><ele>981.0</ele><time>2026-04-23T10:16:56.713Z</time></trkpt><trkpt lat="44.6553883" lon="9.34149"><ele>981.5</ele><time>2026-04-23T10:16:58.714Z</time></trkpt><trkpt lat="44.6553967" lon="9.34158"><ele>982.0</ele><time>2026-04-23T10:16:59.714Z</time></trkpt><trkpt lat="44.65542" lon="9.3416667"><ele>982.5</ele><time>2026-04-23T10:17:00.713Z</time></trkpt><trkpt lat="44.6554417" lon="9.3417583"><ele>983.0</ele><time>2026-04-23T10:17:01.715Z</time></trkpt><trkpt lat="44.6554417" lon="9.3419033"><ele>983.5</ele><time>2026-04-23T10:17:03.714Z</time></trkpt><trkpt lat="44.65539" lon="9.342055"><ele>984.0</ele><time>2026-04-23T10:17:05.713Z</time></trkpt><trkpt lat="44.655365" lon="9.342205"><ele>985.0</ele><time>2026-04-23T10:17:07.713Z</time></trkpt><trkpt lat="44.655385" lon="9.34235"><ele>986.0</ele><time>2026-04-23T10:17:09.712Z</time></trkpt><trkpt lat="44.6554033" lon="9.3424833"><ele>987.0</ele><time>2026-04-23T10:17:11.713Z</time></trkpt><trkpt lat="44.655405" lon="9.342595"><ele>988.0</ele><time>2026-04-23T10:17:13.713Z</time></trkpt><trkpt lat="44.6553817" lon="9.3427"><ele>989.0</ele><time>2026-04-23T10:17:15.713Z</time></trkpt><trkpt lat="44.6553483" lon="9.342805"><ele>990.0</ele><time>2026-04-23T10:17:17.712Z</time></trkpt><trkpt lat="44.6553317" lon="9.3428967"><ele>990.0</ele><time>2026-04-23T10:17:19.714Z</time></trkpt><trkpt lat="44.6553317" lon="9.3430383"><ele>990.0</ele><time>2026-04-23T10:17:21.713Z</time></trkpt><trkpt lat="44.6553117" lon="9.3431833"><ele>990.0</ele><time>2026-04-23T10:17:23.713Z</time></trkpt><trkpt lat="44.655295" lon="9.3433417"><ele>990.0</ele><time>2026-04-23T10:17:25.712Z</time></trkpt><trkpt lat="44.6552917" lon="9.3434917"><ele>990.0</ele><time>2026-04-23T10:17:27.714Z</time></trkpt><trkpt lat="44.6552733" lon="9.34361"><ele>991.6</ele><time>2026-04-23T10:17:29.713Z</time></trkpt><trkpt lat="44.6552533" lon="9.3437517"><ele>993.2</ele><time>2026-04-23T10:17:31.715Z</time></trkpt><trkpt lat="44.6552317" lon="9.3438767"><ele>994.8</ele><time>2026-04-23T10:17:33.713Z</time></trkpt><trkpt lat="44.6552067" lon="9.34399"><ele>996.4</ele><time>2026-04-23T10:17:35.716Z</time></trkpt><trkpt lat="44.6551867" lon="9.3441117"><ele>998.0</ele><time>2026-04-23T10:17:37.714Z</time></trkpt><trkpt lat="44.6551383" lon="9.3442133"><ele>998.0000000000001</ele><time>2026-04-23T10:17:39.714Z</time></trkpt><trkpt lat="44.6551167" lon="9.3443167"><ele>998.0</ele><time>2026-04-23T10:17:41.713Z</time></trkpt><trkpt lat="44.6551218" lon="9.3444244"><ele>998.0</ele><time>2026-04-23T10:17:43.79Z</time></trkpt><trkpt lat="44.6550561" lon="9.3445164"><ele>998.0</ele><time>2026-04-23T10:17:45.766Z</time></trkpt><trkpt lat="44.6549695" lon="9.3445692"><ele>998.0000000000001</ele><time>2026-04-23T10:17:47.812Z</time></trkpt><trkpt lat="44.6549121" lon="9.3446841"><ele>998.0</ele><time>2026-04-23T10:17:49.718Z</time></trkpt><trkpt lat="44.6548897" lon="9.3447806"><ele>999.2</ele><time>2026-04-23T10:17:51.798Z</time></trkpt><trkpt lat="44.654821" lon="9.3448081"><ele>1000.4</ele><time>2026-04-23T10:17:53.774Z</time></trkpt><trkpt lat="44.6547485" lon="9.3448171"><ele>1001.6000000000001</ele><time>2026-04-23T10:17:56.734Z</time></trkpt><trkpt lat="44.6546742" lon="9.3448645"><ele>1002.8000000000001</ele><time>2026-04-23T10:18:11.732Z</time></trkpt><trkpt lat="44.6544983" lon="9.3448751"><ele>1004.0</ele><time>2026-04-23T10:18:14.714Z</time></trkpt><trkpt lat="44.6544143" lon="9.3448749"><ele>1004.0000000000001</ele><time>2026-04-23T10:18:15.713Z</time></trkpt><trkpt lat="44.6543279" lon="9.3448834"><ele>1004.0</ele><time>2026-04-23T10:18:16.713Z</time></trkpt><trkpt lat="44.6542435" lon="9.344905"><ele>1004.0</ele><time>2026-04-23T10:18:17.713Z</time></trkpt><trkpt lat="44.654157" lon="9.3449201"><ele>1004.0</ele><time>2026-04-23T10:18:18.713Z</time></trkpt><trkpt lat="44.654081" lon="9.3449198"><ele>1004.0000000000001</ele><time>2026-04-23T10:18:19.713Z</time></trkpt><trkpt lat="44.6540152" lon="9.3449046"><ele>1004.0</ele><time>2026-04-23T10:18:20.713Z</time></trkpt><trkpt lat="44.6539095" lon="9.3448737"><ele>1004.0</ele><time>2026-04-23T10:18:22.714Z</time></trkpt><trkpt lat="44.653821" lon="9.3448617"><ele>1004.0000000000001</ele><time>2026-04-23T10:18:24.717Z</time></trkpt><trkpt lat="44.6537321" lon="9.3448597"><ele>1004.0000000000001</ele><time>2026-04-23T10:18:26.715Z</time></trkpt><trkpt lat="44.6536272" lon="9.3448397"><ele>1004.0</ele><time>2026-04-23T10:18:28.713Z</time></trkpt><trkpt lat="44.6535101" lon="9.3447797"><ele>1004.0</ele><time>2026-04-23T10:18:30.714Z</time></trkpt><trkpt lat="44.6534415" lon="9.3447487"><ele>1003.1666666666667</ele><time>2026-04-23T10:18:31.713Z</time></trkpt><trkpt lat="44.6533735" lon="9.3447189"><ele>1002.3333333333334</ele><time>2026-04-23T10:18:32.714Z</time></trkpt><trkpt lat="44.6533059" lon="9.3446962"><ele>1001.5</ele><time>2026-04-23T10:18:33.713Z</time></trkpt><trkpt lat="44.6532375" lon="9.3446912"><ele>1000.6666666666667</ele><time>2026-04-23T10:18:34.714Z</time></trkpt><trkpt lat="44.653131" lon="9.3447511"><ele>999.8333333333334</ele><time>2026-04-23T10:18:36.713Z</time></trkpt><trkpt lat="44.6530427" lon="9.3448559"><ele>999.0</ele><time>2026-04-23T10:18:38.713Z</time></trkpt><trkpt lat="44.6530017" lon="9.344927"><ele>999.0</ele><time>2026-04-23T10:18:39.713Z</time></trkpt><trkpt lat="44.6529556" lon="9.3450139"><ele>999.0</ele><time>2026-04-23T10:18:40.713Z</time></trkpt><trkpt lat="44.6529052" lon="9.3451069"><ele>999.0</ele><time>2026-04-23T10:18:41.713Z</time></trkpt><trkpt lat="44.6528508" lon="9.3451915"><ele>999.0</ele><time>2026-04-23T10:18:42.713Z</time></trkpt><trkpt lat="44.6527954" lon="9.3452585"><ele>999.0</ele><time>2026-04-23T10:18:43.713Z</time></trkpt><trkpt lat="44.6527413" lon="9.3453088"><ele>999.0</ele><time>2026-04-23T10:18:44.713Z</time></trkpt><trkpt lat="44.6526596" lon="9.3452733"><ele>996.0</ele><time>2026-04-23T10:18:46.713Z</time></trkpt><trkpt lat="44.6525554" lon="9.3451684"><ele>993.0</ele><time>2026-04-23T10:18:48.713Z</time></trkpt><trkpt lat="44.6524878" lon="9.3451369"><ele>990.0</ele><time>2026-04-23T10:18:49.714Z</time></trkpt><trkpt lat="44.6524112" lon="9.3451231"><ele>987.0</ele><time>2026-04-23T10:18:50.714Z</time></trkpt><trkpt lat="44.6523348" lon="9.3451084"><ele>984.0</ele><time>2026-04-23T10:18:51.713Z</time></trkpt><trkpt lat="44.6522626" lon="9.345079"><ele>981.0</ele><time>2026-04-23T10:18:52.713Z</time></trkpt><trkpt lat="44.6521833" lon="9.3450433"><ele>981.0</ele><time>2026-04-23T10:18:53.713Z</time></trkpt><trkpt lat="44.6521083" lon="9.345015"><ele>981.0</ele><time>2026-04-23T10:18:54.713Z</time></trkpt><trkpt lat="44.65203" lon="9.344985"><ele>981.0</ele><time>2026-04-23T10:18:55.713Z</time></trkpt><trkpt lat="44.6519533" lon="9.34495"><ele>981.0</ele><time>2026-04-23T10:18:56.713Z</time></trkpt><trkpt lat="44.6518783" lon="9.3449233"><ele>981.0</ele><time>2026-04-23T10:18:57.714Z</time></trkpt><trkpt lat="44.6518067" lon="9.34488"><ele>981.0</ele><time>2026-04-23T10:18:58.714Z</time></trkpt><trkpt lat="44.6517383" lon="9.34483"><ele>981.3333333333334</ele><time>2026-04-23T10:18:59.714Z</time></trkpt><trkpt lat="44.6516767" lon="9.3447833"><ele>981.6666666666667</ele><time>2026-04-23T10:19:00.714Z</time></trkpt><trkpt lat="44.6516133" lon="9.3447483"><ele>982.0</ele><time>2026-04-23T10:19:01.714Z</time></trkpt><trkpt lat="44.6515467" lon="9.3447183"><ele>982.3333333333334</ele><time>2026-04-23T10:19:02.714Z</time></trkpt><trkpt lat="44.6514833" lon="9.3446917"><ele>982.6666666666667</ele><time>2026-04-23T10:19:03.713Z</time></trkpt><trkpt lat="44.6513833" lon="9.3446117"><ele>983.0</ele><time>2026-04-23T10:19:05.712Z</time></trkpt><trkpt lat="44.65132" lon="9.3444883"><ele>982.2</ele><time>2026-04-23T10:19:07.713Z</time></trkpt><trkpt lat="44.6512383" lon="9.34438"><ele>981.4</ele><time>2026-04-23T10:19:09.712Z</time></trkpt><trkpt lat="44.6511567" lon="9.344265"><ele>980.6000000000001</ele><time>2026-04-23T10:19:11.713Z</time></trkpt><trkpt lat="44.651115" lon="9.3441917"><ele>979.8000000000001</ele><time>2026-04-23T10:19:12.713Z</time></trkpt><trkpt lat="44.6510767" lon="9.34412"><ele>979.0</ele><time>2026-04-23T10:19:13.713Z</time></trkpt><trkpt lat="44.651005" lon="9.3439917"><ele>974.6</ele><time>2026-04-23T10:19:15.713Z</time></trkpt><trkpt lat="44.6509317" lon="9.3438633"><ele>970.2</ele><time>2026-04-23T10:19:17.713Z</time></trkpt><trkpt lat="44.6508683" lon="9.343775"><ele>965.8000000000001</ele><time>2026-04-23T10:19:19.714Z</time></trkpt><trkpt lat="44.650795" lon="9.3437133"><ele>961.4000000000001</ele><time>2026-04-23T10:19:21.713Z</time></trkpt><trkpt lat="44.65068" lon="9.343705"><ele>957.0</ele><time>2026-04-23T10:19:23.714Z</time></trkpt><trkpt lat="44.6505733" lon="9.34368"><ele>957.0</ele><time>2026-04-23T10:19:25.714Z</time></trkpt><trkpt lat="44.6504917" lon="9.3436217"><ele>957.0</ele><time>2026-04-23T10:19:27.714Z</time></trkpt><trkpt lat="44.6504183" lon="9.343565"><ele>957.0</ele><time>2026-04-23T10:19:29.713Z</time></trkpt><trkpt lat="44.6503267" lon="9.3435167"><ele>957.0</ele><time>2026-04-23T10:19:31.715Z</time></trkpt><trkpt lat="44.6502033" lon="9.3435083"><ele>957.0</ele><time>2026-04-23T10:19:33.714Z</time></trkpt><trkpt lat="44.65014" lon="9.3435233"><ele>958.0</ele><time>2026-04-23T10:19:34.713Z</time></trkpt><trkpt lat="44.65003" lon="9.34358"><ele>959.0</ele><time>2026-04-23T10:19:36.713Z</time></trkpt><trkpt lat="44.64995" lon="9.34368"><ele>960.0</ele><time>2026-04-23T10:19:38.714Z</time></trkpt><trkpt lat="44.6498717" lon="9.343815"><ele>961.0</ele><time>2026-04-23T10:19:40.714Z</time></trkpt><trkpt lat="44.6498167" lon="9.34388"><ele>962.0</ele><time>2026-04-23T10:19:41.714Z</time></trkpt><trkpt lat="44.6497417" lon="9.343965"><ele>961.4285714285713</ele><time>2026-04-23T10:19:42.718Z</time></trkpt><trkpt lat="44.64968" lon="9.3440167"><ele>960.8571428571429</ele><time>2026-04-23T10:19:43.713Z</time></trkpt><trkpt lat="44.649615" lon="9.3440533"><ele>960.2857142857142</ele><time>2026-04-23T10:19:44.715Z</time></trkpt><trkpt lat="44.6495533" lon="9.3440767"><ele>959.7142857142857</ele><time>2026-04-23T10:19:45.712Z</time></trkpt><trkpt lat="44.649445" lon="9.3440517"><ele>959.1428571428571</ele><time>2026-04-23T10:19:47.712Z</time></trkpt><trkpt lat="44.6493983" lon="9.3439917"><ele>958.5714285714286</ele><time>2026-04-23T10:19:48.712Z</time></trkpt><trkpt lat="44.64935" lon="9.34392"><ele>958.0</ele><time>2026-04-23T10:19:49.713Z</time></trkpt><trkpt lat="44.649305" lon="9.343845"><ele>956.3333333333333</ele><time>2026-04-23T10:19:50.713Z</time></trkpt><trkpt lat="44.6492533" lon="9.3437667"><ele>954.6666666666666</ele><time>2026-04-23T10:19:51.714Z</time></trkpt><trkpt lat="44.6492" lon="9.3436883"><ele>953.0</ele><time>2026-04-23T10:19:52.713Z</time></trkpt><trkpt lat="44.6491483" lon="9.3436283"><ele>951.3333333333333</ele><time>2026-04-23T10:19:53.713Z</time></trkpt><trkpt lat="44.6490967" lon="9.34357"><ele>949.6666666666666</ele><time>2026-04-23T10:19:54.713Z</time></trkpt><trkpt lat="44.6490217" lon="9.343445"><ele>948.0</ele><time>2026-04-23T10:19:56.713Z</time></trkpt><trkpt lat="44.6489483" lon="9.3433567"><ele>948.0</ele><time>2026-04-23T10:19:58.713Z</time></trkpt><trkpt lat="44.6488333" lon="9.3432967"><ele>948.0</ele><time>2026-04-23T10:20:00.713Z</time></trkpt><trkpt lat="44.64877" lon="9.3432783"><ele>948.0</ele><time>2026-04-23T10:20:01.716Z</time></trkpt><trkpt lat="44.6487017" lon="9.3432483"><ele>948.0</ele><time>2026-04-23T10:20:02.714Z</time></trkpt><trkpt lat="44.6486067" lon="9.3431333"><ele>948.0</ele><time>2026-04-23T10:20:04.713Z</time></trkpt><trkpt lat="44.6485833" lon="9.3430467"><ele>944.7142857142856</ele><time>2026-04-23T10:20:05.714Z</time></trkpt><trkpt lat="44.6485733" lon="9.34295"><ele>941.4285714285713</ele><time>2026-04-23T10:20:06.714Z</time></trkpt><trkpt lat="44.6485667" lon="9.342855"><ele>938.1428571428571</ele><time>2026-04-23T10:20:07.715Z</time></trkpt><trkpt lat="44.6485467" lon="9.3427617"><ele>934.8571428571428</ele><time>2026-04-23T10:20:08.714Z</time></trkpt><trkpt lat="44.6485183" lon="9.3426683"><ele>931.5714285714284</ele><time>2026-04-23T10:20:09.714Z</time></trkpt><trkpt lat="44.6484933" lon="9.3425733"><ele>928.2857142857143</ele><time>2026-04-23T10:20:10.714Z</time></trkpt><trkpt lat="44.6484667" lon="9.3424767"><ele>925.0</ele><time>2026-04-23T10:20:11.714Z</time></trkpt><trkpt lat="44.6484333" lon="9.3423817"><ele>924.9999999999999</ele><time>2026-04-23T10:20:12.714Z</time></trkpt><trkpt lat="44.648395" lon="9.3422967"><ele>925.0</ele><time>2026-04-23T10:20:13.714Z</time></trkpt><trkpt lat="44.64835" lon="9.3422283"><ele>925.0</ele><time>2026-04-23T10:20:14.716Z</time></trkpt><trkpt lat="44.6482717" lon="9.3421533"><ele>925.0</ele><time>2026-04-23T10:20:16.714Z</time></trkpt><trkpt lat="44.6481967" lon="9.34207"><ele>924.9999999999999</ele><time>2026-04-23T10:20:53.712Z</time></trkpt><trkpt lat="44.6481167" lon="9.3419483"><ele>925.0</ele><time>2026-04-23T10:20:55.713Z</time></trkpt><trkpt lat="44.6480367" lon="9.3418317"><ele>923.6666666666666</ele><time>2026-04-23T10:20:57.713Z</time></trkpt><trkpt lat="44.6479867" lon="9.3417467"><ele>922.3333333333333</ele><time>2026-04-23T10:20:59.715Z</time></trkpt><trkpt lat="44.64793" lon="9.3417067"><ele>921.0</ele><time>2026-04-23T10:21:02.714Z</time></trkpt><trkpt lat="44.6479067" lon="9.341795"><ele>919.6666666666667</ele><time>2026-04-23T10:21:05.713Z</time></trkpt><trkpt lat="44.6479033" lon="9.3419067"><ele>918.3333333333334</ele><time>2026-04-23T10:21:08.714Z</time></trkpt><trkpt lat="44.6478633" lon="9.3419917"><ele>917.0</ele><time>2026-04-23T10:21:11.713Z</time></trkpt><trkpt lat="44.647795" lon="9.34208"><ele>915.8333333333334</ele><time>2026-04-23T10:21:14.714Z</time></trkpt><trkpt lat="44.64778" lon="9.3421717"><ele>914.6666666666667</ele><time>2026-04-23T10:21:16.713Z</time></trkpt><trkpt lat="44.647795" lon="9.3422833"><ele>913.5</ele><time>2026-04-23T10:21:18.713Z</time></trkpt><trkpt lat="44.6478283" lon="9.34241"><ele>912.3333333333333</ele><time>2026-04-23T10:21:20.715Z</time></trkpt><trkpt lat="44.6478583" lon="9.34252"><ele>911.1666666666666</ele><time>2026-04-23T10:21:22.714Z</time></trkpt><trkpt lat="44.6478517" lon="9.3426483"><ele>910.0</ele><time>2026-04-23T10:21:35.715Z</time></trkpt><trkpt lat="44.6477717" lon="9.3426467"><ele>909.9999999999999</ele><time>2026-04-23T10:21:40.713Z</time></trkpt><trkpt lat="44.6477067" lon="9.3426983"><ele>910.0</ele><time>2026-04-23T10:21:45.713Z</time></trkpt><trkpt lat="44.6476317" lon="9.342685"><ele>910.0</ele><time>2026-04-23T10:21:47.714Z</time></trkpt><trkpt lat="44.6475417" lon="9.34263"><ele>910.0</ele><time>2026-04-23T10:21:49.714Z</time></trkpt><trkpt lat="44.647475" lon="9.3425783"><ele>909.9999999999999</ele><time>2026-04-23T10:21:51.713Z</time></trkpt><trkpt lat="44.64743" lon="9.3424833"><ele>910.0</ele><time>2026-04-23T10:21:54.713Z</time></trkpt><trkpt lat="44.64738" lon="9.3424017"><ele>909.9999999999999</ele><time>2026-04-23T10:21:58.713Z</time></trkpt><trkpt lat="44.6473183" lon="9.34242"><ele>910.0</ele><time>2026-04-23T10:22:01.714Z</time></trkpt><trkpt lat="44.6472283" lon="9.3424567"><ele>910.0</ele><time>2026-04-23T10:22:04.713Z</time></trkpt><trkpt lat="44.6471533" lon="9.3424367"><ele>910.0</ele><time>2026-04-23T10:22:06.713Z</time></trkpt><trkpt lat="44.6470583" lon="9.34243"><ele>909.9999999999999</ele><time>2026-04-23T10:22:08.715Z</time></trkpt><trkpt lat="44.6469567" lon="9.342445"><ele>910.0</ele><time>2026-04-23T10:22:10.713Z</time></trkpt><trkpt lat="44.64688" lon="9.3424267"><ele>909.3333333333333</ele><time>2026-04-23T10:22:12.713Z</time></trkpt><trkpt lat="44.6468183" lon="9.3423983"><ele>908.6666666666666</ele><time>2026-04-23T10:22:14.714Z</time></trkpt><trkpt lat="44.6467467" lon="9.342385"><ele>908.0</ele><time>2026-04-23T10:22:16.713Z</time></trkpt><trkpt lat="44.646655" lon="9.3423783"><ele>907.3333333333333</ele><time>2026-04-23T10:22:18.714Z</time></trkpt><trkpt lat="44.6465517" lon="9.34239"><ele>906.6666666666666</ele><time>2026-04-23T10:22:20.714Z</time></trkpt><trkpt lat="44.6464717" lon="9.3423783"><ele>906.0</ele><time>2026-04-23T10:22:22.714Z</time></trkpt><trkpt lat="44.6463983" lon="9.3423217"><ele>906.0</ele><time>2026-04-23T10:22:24.713Z</time></trkpt><trkpt lat="44.646325" lon="9.3422167"><ele>905.9999999999999</ele><time>2026-04-23T10:22:26.713Z</time></trkpt><trkpt lat="44.6462567" lon="9.3421833"><ele>905.9999999999999</ele><time>2026-04-23T10:22:28.713Z</time></trkpt><trkpt lat="44.6461867" lon="9.3421033"><ele>906.0</ele><time>2026-04-23T10:22:30.713Z</time></trkpt><trkpt lat="44.6461" lon="9.342"><ele>906.0</ele><time>2026-04-23T10:22:32.714Z</time></trkpt><trkpt lat="44.6459983" lon="9.3419067"><ele>902.4</ele><time>2026-04-23T10:22:34.713Z</time></trkpt><trkpt lat="44.6459117" lon="9.3417783"><ele>898.8</ele><time>2026-04-23T10:22:36.713Z</time></trkpt><trkpt lat="44.6458367" lon="9.3416717"><ele>895.1999999999999</ele><time>2026-04-23T10:22:38.713Z</time></trkpt><trkpt lat="44.6457617" lon="9.3416517"><ele>891.5999999999999</ele><time>2026-04-23T10:22:40.715Z</time></trkpt><trkpt lat="44.645665" lon="9.3416533"><ele>888.0</ele><time>2026-04-23T10:22:42.713Z</time></trkpt><trkpt lat="44.6456033" lon="9.341635"><ele>888.0</ele><time>2026-04-23T10:22:44.714Z</time></trkpt><trkpt lat="44.645585" lon="9.3414233"><ele>888.0</ele><time>2026-04-23T10:23:18.714Z</time></trkpt><trkpt lat="44.6455817" lon="9.3413267"><ele>888.0</ele><time>2026-04-23T10:23:20.714Z</time></trkpt><trkpt lat="44.6455617" lon="9.34121"><ele>888.0</ele><time>2026-04-23T10:23:22.713Z</time></trkpt><trkpt lat="44.6455" lon="9.3410767"><ele>888.0</ele><time>2026-04-23T10:23:24.713Z</time></trkpt><trkpt lat="44.6453967" lon="9.340965"><ele>887.0</ele><time>2026-04-23T10:23:26.714Z</time></trkpt><trkpt lat="44.6453433" lon="9.3409"><ele>886.0</ele><time>2026-04-23T10:23:27.713Z</time></trkpt><trkpt lat="44.645295" lon="9.34083"><ele>885.0</ele><time>2026-04-23T10:23:28.715Z</time></trkpt><trkpt lat="44.6452433" lon="9.340745"><ele>884.0</ele><time>2026-04-23T10:23:29.714Z</time></trkpt><trkpt lat="44.6451933" lon="9.3406583"><ele>883.0</ele><time>2026-04-23T10:23:30.714Z</time></trkpt><trkpt lat="44.645115" lon="9.3405083"><ele>882.0</ele><time>2026-04-23T10:23:32.714Z</time></trkpt><trkpt lat="44.6450717" lon="9.3404183"><ele>879.1666666666666</ele><time>2026-04-23T10:23:33.713Z</time></trkpt><trkpt lat="44.6450317" lon="9.3403217"><ele>876.3333333333333</ele><time>2026-04-23T10:23:34.714Z</time></trkpt><trkpt lat="44.6449983" lon="9.340225"><ele>873.5</ele><time>2026-04-23T10:23:35.713Z</time></trkpt><trkpt lat="44.6449633" lon="9.3401167"><ele>870.6666666666666</ele><time>2026-04-23T10:23:36.712Z</time></trkpt><trkpt lat="44.6449167" lon="9.34001"><ele>867.8333333333333</ele><time>2026-04-23T10:23:37.712Z</time></trkpt><trkpt lat="44.6448667" lon="9.33991"><ele>865.0</ele><time>2026-04-23T10:23:38.713Z</time></trkpt><trkpt lat="44.64482" lon="9.3398183"><ele>862.3333333333333</ele><time>2026-04-23T10:23:39.713Z</time></trkpt><trkpt lat="44.6447767" lon="9.3397117"><ele>859.6666666666666</ele><time>2026-04-23T10:23:40.713Z</time></trkpt><trkpt lat="44.6447383" lon="9.33961"><ele>857.0</ele><time>2026-04-23T10:23:41.714Z</time></trkpt><trkpt lat="44.6446983" lon="9.3395083"><ele>854.3333333333333</ele><time>2026-04-23T10:23:42.714Z</time></trkpt><trkpt lat="44.6446617" lon="9.3394"><ele>851.6666666666666</ele><time>2026-04-23T10:23:43.713Z</time></trkpt><trkpt lat="44.6446183" lon="9.3393033"><ele>849.0</ele><time>2026-04-23T10:23:44.714Z</time></trkpt><trkpt lat="44.6445367" lon="9.3392617"><ele>849.0</ele><time>2026-04-23T10:23:46.713Z</time></trkpt><trkpt lat="44.644485" lon="9.3393767"><ele>849.0</ele><time>2026-04-23T10:23:47.715Z</time></trkpt><trkpt lat="44.64445" lon="9.3394717"><ele>849.0</ele><time>2026-04-23T10:23:48.713Z</time></trkpt><trkpt lat="44.6444083" lon="9.3395683"><ele>849.0</ele><time>2026-04-23T10:23:49.714Z</time></trkpt><trkpt lat="44.6443733" lon="9.3396633"><ele>849.0</ele><time>2026-04-23T10:23:50.714Z</time></trkpt><trkpt lat="44.6443383" lon="9.3397517"><ele>849.0</ele><time>2026-04-23T10:23:51.713Z</time></trkpt><trkpt lat="44.644305" lon="9.3398367"><ele>848.8000000000001</ele><time>2026-04-23T10:23:52.714Z</time></trkpt><trkpt lat="44.6442283" lon="9.3399683"><ele>848.6</ele><time>2026-04-23T10:23:54.714Z</time></trkpt><trkpt lat="44.644145" lon="9.34008"><ele>848.4</ele><time>2026-04-23T10:23:56.714Z</time></trkpt><trkpt lat="44.6440817" lon="9.3402133"><ele>848.2</ele><time>2026-04-23T10:23:58.713Z</time></trkpt><trkpt lat="44.6440383" lon="9.3403017"><ele>848.0</ele><time>2026-04-23T10:23:59.715Z</time></trkpt><trkpt lat="44.644" lon="9.340405"><ele>848.0</ele><time>2026-04-23T10:24:00.714Z</time></trkpt><trkpt lat="44.6439567" lon="9.3405117"><ele>848.0</ele><time>2026-04-23T10:24:01.715Z</time></trkpt><trkpt lat="44.6439083" lon="9.3406117"><ele>848.0</ele><time>2026-04-23T10:24:02.714Z</time></trkpt><trkpt lat="44.643855" lon="9.3407017"><ele>848.0</ele><time>2026-04-23T10:24:03.714Z</time></trkpt><trkpt lat="44.64381" lon="9.340775"><ele>848.0</ele><time>2026-04-23T10:24:04.713Z</time></trkpt><trkpt lat="44.6437017" lon="9.34086"><ele>848.7142857142858</ele><time>2026-04-23T10:24:06.715Z</time></trkpt><trkpt lat="44.6436433" lon="9.340895"><ele>849.4285714285713</ele><time>2026-04-23T10:24:07.713Z</time></trkpt><trkpt lat="44.643575" lon="9.340945"><ele>850.1428571428571</ele><time>2026-04-23T10:24:08.715Z</time></trkpt><trkpt lat="44.64351" lon="9.34099"><ele>850.8571428571429</ele><time>2026-04-23T10:24:09.713Z</time></trkpt><trkpt lat="44.6434417" lon="9.34104"><ele>851.5714285714287</ele><time>2026-04-23T10:24:10.713Z</time></trkpt><trkpt lat="44.6433767" lon="9.3410883"><ele>852.2857142857142</ele><time>2026-04-23T10:24:11.713Z</time></trkpt><trkpt lat="44.6433183" lon="9.34115"><ele>853.0</ele><time>2026-04-23T10:24:12.713Z</time></trkpt><trkpt lat="44.6432533" lon="9.341225"><ele>850.1666666666666</ele><time>2026-04-23T10:24:13.714Z</time></trkpt><trkpt lat="44.6431867" lon="9.34128"><ele>847.3333333333333</ele><time>2026-04-23T10:24:14.713Z</time></trkpt><trkpt lat="44.64313" lon="9.3413233"><ele>844.5</ele><time>2026-04-23T10:24:15.713Z</time></trkpt><trkpt lat="44.6430483" lon="9.3413417"><ele>841.6666666666667</ele><time>2026-04-23T10:24:17.716Z</time></trkpt><trkpt lat="44.6429983" lon="9.3412833"><ele>838.8333333333334</ele><time>2026-04-23T10:24:22.714Z</time></trkpt><trkpt lat="44.642925" lon="9.3411967"><ele>836.0</ele><time>2026-04-23T10:24:24.714Z</time></trkpt><trkpt lat="44.6428283" lon="9.3410933"><ele>835.8571428571429</ele><time>2026-04-23T10:24:26.714Z</time></trkpt><trkpt lat="44.642775" lon="9.34103"><ele>835.7142857142857</ele><time>2026-04-23T10:24:27.713Z</time></trkpt><trkpt lat="44.6427217" lon="9.3409717"><ele>835.5714285714287</ele><time>2026-04-23T10:24:28.713Z</time></trkpt><trkpt lat="44.64267" lon="9.3409083"><ele>835.4285714285714</ele><time>2026-04-23T10:24:29.713Z</time></trkpt><trkpt lat="44.6426033" lon="9.34082"><ele>835.2857142857143</ele><time>2026-04-23T10:24:30.714Z</time></trkpt><trkpt lat="44.6425433" lon="9.34075"><ele>835.1428571428572</ele><time>2026-04-23T10:24:31.714Z</time></trkpt><trkpt lat="44.64249" lon="9.3406933"><ele>835.0</ele><time>2026-04-23T10:24:32.715Z</time></trkpt><trkpt lat="44.642435" lon="9.3406467"><ele>834.9999999999999</ele><time>2026-04-23T10:24:33.713Z</time></trkpt><trkpt lat="44.6423567" lon="9.34063"><ele>835.0</ele><time>2026-04-23T10:24:35.715Z</time></trkpt><trkpt lat="44.6422933" lon="9.3407017"><ele>835.0</ele><time>2026-04-23T10:24:37.714Z</time></trkpt><trkpt lat="44.642215" lon="9.3407267"><ele>835.0</ele><time>2026-04-23T10:24:39.714Z</time></trkpt><trkpt lat="44.6421633" lon="9.3406667"><ele>834.9999999999999</ele><time>2026-04-23T10:24:46.714Z</time></trkpt><trkpt lat="44.6421283" lon="9.3405567"><ele>835.0</ele><time>2026-04-23T10:24:50.714Z</time></trkpt><trkpt lat="44.642095" lon="9.3404667"><ele>832.5</ele><time>2026-04-23T10:24:52.714Z</time></trkpt><trkpt lat="44.6420317" lon="9.34034"><ele>830.0</ele><time>2026-04-23T10:24:54.713Z</time></trkpt><trkpt lat="44.6419817" lon="9.3401883"><ele>827.5</ele><time>2026-04-23T10:24:56.713Z</time></trkpt><trkpt lat="44.641935" lon="9.340045"><ele>825.0</ele><time>2026-04-23T10:24:58.713Z</time></trkpt><trkpt lat="44.641855" lon="9.3399117"><ele>825.0</ele><time>2026-04-23T10:25:00.713Z</time></trkpt><trkpt lat="44.6418033" lon="9.339835"><ele>825.0</ele><time>2026-04-23T10:25:01.714Z</time></trkpt><trkpt lat="44.6417483" lon="9.3397467"><ele>825.0</ele><time>2026-04-23T10:25:02.713Z</time></trkpt><trkpt lat="44.6417017" lon="9.3396467"><ele>825.0</ele><time>2026-04-23T10:25:03.713Z</time></trkpt><trkpt lat="44.6416533" lon="9.3395433"><ele>825.0</ele><time>2026-04-23T10:25:04.715Z</time></trkpt><trkpt lat="44.64161" lon="9.3394517"><ele>825.0</ele><time>2026-04-23T10:25:05.714Z</time></trkpt><trkpt lat="44.6415783" lon="9.339365"><ele>819.7142857142857</ele><time>2026-04-23T10:25:06.714Z</time></trkpt><trkpt lat="44.6415383" lon="9.3392817"><ele>814.4285714285714</ele><time>2026-04-23T10:25:07.715Z</time></trkpt><trkpt lat="44.6415" lon="9.3392033"><ele>809.1428571428571</ele><time>2026-04-23T10:25:08.713Z</time></trkpt><trkpt lat="44.64146" lon="9.3391217"><ele>803.8571428571429</ele><time>2026-04-23T10:25:09.713Z</time></trkpt><trkpt lat="44.6414233" lon="9.3390383"><ele>798.5714285714287</ele><time>2026-04-23T10:25:10.713Z</time></trkpt><trkpt lat="44.6413867" lon="9.3389633"><ele>793.2857142857143</ele><time>2026-04-23T10:25:11.713Z</time></trkpt><trkpt lat="44.6413567" lon="9.3388817"><ele>788.0</ele><time>2026-04-23T10:25:12.713Z</time></trkpt><trkpt lat="44.6413267" lon="9.3388033"><ele>785.1428571428571</ele><time>2026-04-23T10:25:13.714Z</time></trkpt><trkpt lat="44.6412933" lon="9.338725"><ele>782.2857142857143</ele><time>2026-04-23T10:25:14.714Z</time></trkpt><trkpt lat="44.6412583" lon="9.33864"><ele>779.4285714285713</ele><time>2026-04-23T10:25:15.713Z</time></trkpt><trkpt lat="44.6412183" lon="9.3385583"><ele>776.5714285714286</ele><time>2026-04-23T10:25:16.713Z</time></trkpt><trkpt lat="44.641175" lon="9.338465"><ele>773.7142857142857</ele><time>2026-04-23T10:25:17.714Z</time></trkpt><trkpt lat="44.6411333" lon="9.33838"><ele>770.8571428571428</ele><time>2026-04-23T10:25:18.714Z</time></trkpt><trkpt lat="44.6411" lon="9.3382983"><ele>768.0</ele><time>2026-04-23T10:25:19.714Z</time></trkpt><trkpt lat="44.6410683" lon="9.3382183"><ele>768.0</ele><time>2026-04-23T10:25:20.715Z</time></trkpt><trkpt lat="44.64104" lon="9.3381367"><ele>768.0</ele><time>2026-04-23T10:25:21.714Z</time></trkpt><trkpt lat="44.6409533" lon="9.33799"><ele>768.0</ele><time>2026-04-23T10:25:23.715Z</time></trkpt><trkpt lat="44.640905" lon="9.337915"><ele>768.0</ele><time>2026-04-23T10:25:24.713Z</time></trkpt><trkpt lat="44.640815" lon="9.3378"><ele>768.0</ele><time>2026-04-23T10:25:26.713Z</time></trkpt><trkpt lat="44.64071" lon="9.33775"><ele>768.0</ele><time>2026-04-23T10:25:28.713Z</time></trkpt><trkpt lat="44.6405883" lon="9.3377433"><ele>768.0</ele><time>2026-04-23T10:25:30.713Z</time></trkpt><trkpt lat="44.6405217" lon="9.3377733"><ele>768.0</ele><time>2026-04-23T10:25:31.713Z</time></trkpt><trkpt lat="44.640465" lon="9.3378233"><ele>768.0</ele><time>2026-04-23T10:25:32.715Z</time></trkpt><trkpt lat="44.6403883" lon="9.33794"><ele>768.0</ele><time>2026-04-23T10:25:34.713Z</time></trkpt><trkpt lat="44.6403517" lon="9.3380767"><ele>764.4</ele><time>2026-04-23T10:25:36.713Z</time></trkpt><trkpt lat="44.64028" lon="9.3381367"><ele>760.8</ele><time>2026-04-23T10:25:38.714Z</time></trkpt><trkpt lat="44.6401733" lon="9.3381333"><ele>757.2</ele><time>2026-04-23T10:25:40.715Z</time></trkpt><trkpt lat="44.6400533" lon="9.33817"><ele>753.6</ele><time>2026-04-23T10:25:42.713Z</time></trkpt><trkpt lat="44.6399817" lon="9.3382033"><ele>750.0</ele><time>2026-04-23T10:25:43.714Z</time></trkpt><trkpt lat="44.6399117" lon="9.3382333"><ele>750.0</ele><time>2026-04-23T10:25:44.714Z</time></trkpt><trkpt lat="44.639845" lon="9.338255"><ele>750.0</ele><time>2026-04-23T10:25:45.713Z</time></trkpt><trkpt lat="44.6397367" lon="9.33826"><ele>750.0</ele><time>2026-04-23T10:25:47.714Z</time></trkpt><trkpt lat="44.6396417" lon="9.3382167"><ele>750.0</ele><time>2026-04-23T10:25:49.713Z</time></trkpt><trkpt lat="44.63957" lon="9.3381283"><ele>750.0</ele><time>2026-04-23T10:25:51.714Z</time></trkpt><trkpt lat="44.6394867" lon="9.338025"><ele>743.6666666666666</ele><time>2026-04-23T10:25:53.713Z</time></trkpt><trkpt lat="44.63944" lon="9.3379617"><ele>737.3333333333334</ele><time>2026-04-23T10:25:54.713Z</time></trkpt><trkpt lat="44.6393917" lon="9.337895"><ele>731.0</ele><time>2026-04-23T10:25:55.713Z</time></trkpt><trkpt lat="44.6393467" lon="9.337825"><ele>724.6666666666667</ele><time>2026-04-23T10:25:56.713Z</time></trkpt><trkpt lat="44.63927" lon="9.337715"><ele>718.3333333333334</ele><time>2026-04-23T10:25:58.713Z</time></trkpt><trkpt lat="44.6391883" lon="9.3376433"><ele>712.0</ele><time>2026-04-23T10:26:00.713Z</time></trkpt><trkpt lat="44.6391083" lon="9.3376367"><ele>712.0</ele><time>2026-04-23T10:26:02.714Z</time></trkpt><trkpt lat="44.6390467" lon="9.337715"><ele>712.0</ele><time>2026-04-23T10:26:04.712Z</time></trkpt><trkpt lat="44.6389633" lon="9.337755"><ele>712.0</ele><time>2026-04-23T10:26:06.712Z</time></trkpt><trkpt lat="44.6388683" lon="9.3377183"><ele>712.0</ele><time>2026-04-23T10:26:08.713Z</time></trkpt><trkpt lat="44.6387683" lon="9.3376317"><ele>712.0</ele><time>2026-04-23T10:26:10.713Z</time></trkpt><trkpt lat="44.6386983" lon="9.3375717"><ele>712.2</ele><time>2026-04-23T10:26:11.713Z</time></trkpt><trkpt lat="44.6385783" lon="9.337505"><ele>712.4000000000001</ele><time>2026-04-23T10:26:12.713Z</time></trkpt><trkpt lat="44.638475" lon="9.337465"><ele>712.5999999999999</ele><time>2026-04-23T10:26:13.713Z</time></trkpt><trkpt lat="44.6383883" lon="9.337405"><ele>712.8</ele><time>2026-04-23T10:26:14.713Z</time></trkpt><trkpt lat="44.6383217" lon="9.3373517"><ele>713.0</ele><time>2026-04-23T10:26:15.712Z</time></trkpt><trkpt lat="44.6382583" lon="9.3372867"><ele>713.0</ele><time>2026-04-23T10:26:16.712Z</time></trkpt><trkpt lat="44.6381983" lon="9.3372433"><ele>713.0</ele><time>2026-04-23T10:26:17.713Z</time></trkpt><trkpt lat="44.6381383" lon="9.337195"><ele>713.0</ele><time>2026-04-23T10:26:18.713Z</time></trkpt><trkpt lat="44.6380683" lon="9.33715"><ele>713.0</ele><time>2026-04-23T10:26:19.714Z</time></trkpt><trkpt lat="44.637995" lon="9.337135"><ele>713.0</ele><time>2026-04-23T10:26:20.713Z</time></trkpt><trkpt lat="44.6379233" lon="9.3371283"><ele>713.0</ele><time>2026-04-23T10:26:21.712Z</time></trkpt><trkpt lat="44.6378433" lon="9.3371367"><ele>713.0</ele><time>2026-04-23T10:26:22.713Z</time></trkpt><trkpt lat="44.63775" lon="9.337155"><ele>710.6666666666666</ele><time>2026-04-23T10:26:23.712Z</time></trkpt><trkpt lat="44.6376583" lon="9.3371817"><ele>708.3333333333333</ele><time>2026-04-23T10:26:24.712Z</time></trkpt><trkpt lat="44.637565" lon="9.3372"><ele>706.0</ele><time>2026-04-23T10:26:25.713Z</time></trkpt><trkpt lat="44.637475" lon="9.3372117"><ele>703.6666666666666</ele><time>2026-04-23T10:26:26.713Z</time></trkpt><trkpt lat="44.6373833" lon="9.3372183"><ele>701.3333333333334</ele><time>2026-04-23T10:26:27.713Z</time></trkpt><trkpt lat="44.637305" lon="9.3372333"><ele>699.0</ele><time>2026-04-23T10:26:28.713Z</time></trkpt><trkpt lat="44.6372317" lon="9.3372533"><ele>699.0</ele><time>2026-04-23T10:26:29.713Z</time></trkpt><trkpt lat="44.6371617" lon="9.3372517"><ele>699.0</ele><time>2026-04-23T10:26:30.712Z</time></trkpt><trkpt lat="44.6370483" lon="9.3372133"><ele>699.0</ele><time>2026-04-23T10:26:32.713Z</time></trkpt><trkpt lat="44.636925" lon="9.3372067"><ele>699.0</ele><time>2026-04-23T10:26:34.713Z</time></trkpt><trkpt lat="44.6368483" lon="9.3372283"><ele>699.0</ele><time>2026-04-23T10:26:35.712Z</time></trkpt><trkpt lat="44.63677" lon="9.3372483"><ele>695.2857142857142</ele><time>2026-04-23T10:26:36.712Z</time></trkpt><trkpt lat="44.6367017" lon="9.33726"><ele>691.5714285714287</ele><time>2026-04-23T10:26:37.713Z</time></trkpt><trkpt lat="44.63663" lon="9.3372783"><ele>687.8571428571429</ele><time>2026-04-23T10:26:38.714Z</time></trkpt><trkpt lat="44.6365617" lon="9.3373033"><ele>684.1428571428571</ele><time>2026-04-23T10:26:39.712Z</time></trkpt><trkpt lat="44.6364867" lon="9.337315"><ele>680.4285714285713</ele><time>2026-04-23T10:26:40.713Z</time></trkpt><trkpt lat="44.6364133" lon="9.3373117"><ele>676.7142857142858</ele><time>2026-04-23T10:26:41.712Z</time></trkpt><trkpt lat="44.6363433" lon="9.337315"><ele>673.0</ele><time>2026-04-23T10:26:42.714Z</time></trkpt><trkpt lat="44.6362733" lon="9.337325"><ele>673.0</ele><time>2026-04-23T10:26:43.712Z</time></trkpt><trkpt lat="44.6362" lon="9.3373283"><ele>673.0</ele><time>2026-04-23T10:26:44.713Z</time></trkpt><trkpt lat="44.636125" lon="9.3373367"><ele>673.0</ele><time>2026-04-23T10:26:45.712Z</time></trkpt><trkpt lat="44.6360017" lon="9.3373067"><ele>673.0</ele><time>2026-04-23T10:26:47.713Z</time></trkpt><trkpt lat="44.6359617" lon="9.33723"><ele>673.0</ele><time>2026-04-23T10:26:49.713Z</time></trkpt><trkpt lat="44.6359567" lon="9.3370883"><ele>673.0</ele><time>2026-04-23T10:26:51.714Z</time></trkpt><trkpt lat="44.635915" lon="9.3369483"><ele>665.0</ele><time>2026-04-23T10:26:53.712Z</time></trkpt><trkpt lat="44.635825" lon="9.336855"><ele>657.0</ele><time>2026-04-23T10:26:55.714Z</time></trkpt><trkpt lat="44.6357183" lon="9.33686"><ele>649.0</ele><time>2026-04-23T10:26:57.712Z</time></trkpt><trkpt lat="44.6356567" lon="9.3368933"><ele>641.0</ele><time>2026-04-23T10:26:58.713Z</time></trkpt><trkpt lat="44.6355417" lon="9.337"><ele>633.0</ele><time>2026-04-23T10:27:00.713Z</time></trkpt><trkpt lat="44.63548" lon="9.3370683"><ele>633.0</ele><time>2026-04-23T10:27:01.713Z</time></trkpt><trkpt lat="44.6354217" lon="9.3371383"><ele>633.0</ele><time>2026-04-23T10:27:02.714Z</time></trkpt><trkpt lat="44.635355" lon="9.3372317"><ele>633.0</ele><time>2026-04-23T10:27:04.712Z</time></trkpt><trkpt lat="44.6353283" lon="9.3373667"><ele>633.0</ele><time>2026-04-23T10:27:06.713Z</time></trkpt><trkpt lat="44.635275" lon="9.337455"><ele>633.0</ele><time>2026-04-23T10:27:09.712Z</time></trkpt><trkpt lat="44.63519" lon="9.3374417"><ele>633.0</ele><time>2026-04-23T10:27:11.713Z</time></trkpt><trkpt lat="44.635125" lon="9.33734"><ele>632.8</ele><time>2026-04-23T10:27:13.713Z</time></trkpt><trkpt lat="44.635105" lon="9.33717"><ele>632.5999999999999</ele><time>2026-04-23T10:27:15.712Z</time></trkpt><trkpt lat="44.6351117" lon="9.337075"><ele>632.4000000000001</ele><time>2026-04-23T10:27:16.712Z</time></trkpt><trkpt lat="44.6351167" lon="9.3369867"><ele>632.2</ele><time>2026-04-23T10:27:17.714Z</time></trkpt><trkpt lat="44.6351017" lon="9.3368233"><ele>632.0</ele><time>2026-04-23T10:27:19.714Z</time></trkpt><trkpt lat="44.6350717" lon="9.3367017"><ele>632.0</ele><time>2026-04-23T10:27:21.712Z</time></trkpt><trkpt lat="44.6350867" lon="9.33657"><ele>632.0</ele><time>2026-04-23T10:27:23.714Z</time></trkpt><trkpt lat="44.6351117" lon="9.33641"><ele>632.0</ele><time>2026-04-23T10:27:25.712Z</time></trkpt><trkpt lat="44.6351067" lon="9.3363117"><ele>632.0</ele><time>2026-04-23T10:27:26.713Z</time></trkpt><trkpt lat="44.6350983" lon="9.33621"><ele>632.0</ele><time>2026-04-23T10:27:27.713Z</time></trkpt><trkpt lat="44.635095" lon="9.3361167"><ele>632.0</ele><time>2026-04-23T10:27:28.713Z</time></trkpt><trkpt lat="44.63511" lon="9.33601"><ele>630.0</ele><time>2026-04-23T10:27:29.713Z</time></trkpt><trkpt lat="44.63513" lon="9.335915"><ele>628.0</ele><time>2026-04-23T10:27:30.713Z</time></trkpt><trkpt lat="44.6351683" lon="9.3358233"><ele>626.0</ele><time>2026-04-23T10:27:31.714Z</time></trkpt><trkpt lat="44.635195" lon="9.3357283"><ele>624.0</ele><time>2026-04-23T10:27:32.713Z</time></trkpt><trkpt lat="44.6352133" lon="9.3356283"><ele>622.0</ele><time>2026-04-23T10:27:33.713Z</time></trkpt><trkpt lat="44.6352267" lon="9.33553"><ele>620.0</ele><time>2026-04-23T10:27:34.713Z</time></trkpt><trkpt lat="44.6352583" lon="9.3353983"><ele>617.8</ele><time>2026-04-23T10:27:36.712Z</time></trkpt><trkpt lat="44.6352517" lon="9.335285"><ele>615.6</ele><time>2026-04-23T10:28:25.713Z</time></trkpt><trkpt lat="44.6352533" lon="9.33515"><ele>613.4</ele><time>2026-04-23T10:28:27.712Z</time></trkpt><trkpt lat="44.6352267" lon="9.335035"><ele>611.2</ele><time>2026-04-23T10:28:29.713Z</time></trkpt><trkpt lat="44.6351517" lon="9.3349717"><ele>609.0</ele><time>2026-04-23T10:28:31.714Z</time></trkpt><trkpt lat="44.635035" lon="9.3349817"><ele>609.0</ele><time>2026-04-23T10:28:33.713Z</time></trkpt><trkpt lat="44.6349033" lon="9.33501"><ele>609.0</ele><time>2026-04-23T10:28:35.713Z</time></trkpt><trkpt lat="44.6348267" lon="9.3350383"><ele>609.0</ele><time>2026-04-23T10:28:36.713Z</time></trkpt><trkpt lat="44.63474" lon="9.3350633"><ele>609.0</ele><time>2026-04-23T10:28:37.713Z</time></trkpt><trkpt lat="44.6346567" lon="9.33508"><ele>609.0</ele><time>2026-04-23T10:28:38.713Z</time></trkpt><trkpt lat="44.634575" lon="9.3350917"><ele>609.0</ele><time>2026-04-23T10:28:39.712Z</time></trkpt><trkpt lat="44.6345" lon="9.3351183"><ele>609.0</ele><time>2026-04-23T10:28:40.714Z</time></trkpt><trkpt lat="44.6344333" lon="9.3351617"><ele>609.0</ele><time>2026-04-23T10:28:41.712Z</time></trkpt><trkpt lat="44.6343667" lon="9.3352183"><ele>609.0</ele><time>2026-04-23T10:28:42.712Z</time></trkpt><trkpt lat="44.6342917" lon="9.3352783"><ele>609.0</ele><time>2026-04-23T10:28:43.713Z</time></trkpt><trkpt lat="44.6342167" lon="9.33533"><ele>609.0</ele><time>2026-04-23T10:28:44.713Z</time></trkpt><trkpt lat="44.6341383" lon="9.3353733"><ele>607.8333333333334</ele><time>2026-04-23T10:28:45.712Z</time></trkpt><trkpt lat="44.634065" lon="9.33541"><ele>606.6666666666666</ele><time>2026-04-23T10:28:46.713Z</time></trkpt><trkpt lat="44.633995" lon="9.3354383"><ele>605.5</ele><time>2026-04-23T10:28:47.714Z</time></trkpt><trkpt lat="44.6339317" lon="9.3354633"><ele>604.3333333333333</ele><time>2026-04-23T10:28:48.713Z</time></trkpt><trkpt lat="44.6338717" lon="9.3354967"><ele>603.1666666666666</ele><time>2026-04-23T10:28:49.72Z</time></trkpt><trkpt lat="44.6337983" lon="9.3356"><ele>602.0</ele><time>2026-04-23T10:28:51.713Z</time></trkpt><trkpt lat="44.6337783" lon="9.33569"><ele>602.0</ele><time>2026-04-23T10:28:52.713Z</time></trkpt><trkpt lat="44.6337583" lon="9.3357883"><ele>602.0</ele><time>2026-04-23T10:28:53.713Z</time></trkpt><trkpt lat="44.633745" lon="9.3358767"><ele>602.0</ele><time>2026-04-23T10:28:54.712Z</time></trkpt><trkpt lat="44.6337" lon="9.33603"><ele>602.0</ele><time>2026-04-23T10:28:56.713Z</time></trkpt><trkpt lat="44.633635" lon="9.33615"><ele>602.0</ele><time>2026-04-23T10:28:58.713Z</time></trkpt><trkpt lat="44.6335783" lon="9.3361967"><ele>602.0</ele><time>2026-04-23T10:28:59.713Z</time></trkpt><trkpt lat="44.633515" lon="9.33623"><ele>597.8000000000001</ele><time>2026-04-23T10:29:00.712Z</time></trkpt><trkpt lat="44.63341" lon="9.336225"><ele>593.6</ele><time>2026-04-23T10:29:02.716Z</time></trkpt><trkpt lat="44.6333233" lon="9.3361383"><ele>589.4000000000001</ele><time>2026-04-23T10:29:04.713Z</time></trkpt><trkpt lat="44.6333017" lon="9.3360183"><ele>585.2</ele><time>2026-04-23T10:29:05.712Z</time></trkpt><trkpt lat="44.6332883" lon="9.3359067"><ele>581.0</ele><time>2026-04-23T10:29:06.714Z</time></trkpt><trkpt lat="44.6332667" lon="9.335735"><ele>581.0</ele><time>2026-04-23T10:29:08.713Z</time></trkpt><trkpt lat="44.6332417" lon="9.3356433"><ele>581.0</ele><time>2026-04-23T10:29:09.714Z</time></trkpt><trkpt lat="44.633195" lon="9.335555"><ele>581.0</ele><time>2026-04-23T10:29:10.713Z</time></trkpt><trkpt lat="44.6331317" lon="9.3354583"><ele>581.0</ele><time>2026-04-23T10:29:11.712Z</time></trkpt><trkpt lat="44.6330667" lon="9.33536"><ele>581.0</ele><time>2026-04-23T10:29:12.712Z</time></trkpt><trkpt lat="44.6329883" lon="9.33526"><ele>581.0</ele><time>2026-04-23T10:29:13.713Z</time></trkpt><trkpt lat="44.632905" lon="9.3351617"><ele>579.1666666666666</ele><time>2026-04-23T10:29:14.714Z</time></trkpt><trkpt lat="44.63284" lon="9.335085"><ele>577.3333333333333</ele><time>2026-04-23T10:29:15.712Z</time></trkpt><trkpt lat="44.632795" lon="9.3350117"><ele>575.5</ele><time>2026-04-23T10:29:16.713Z</time></trkpt><trkpt lat="44.6327483" lon="9.3349267"><ele>573.6666666666666</ele><time>2026-04-23T10:29:17.715Z</time></trkpt><trkpt lat="44.632695" lon="9.33484"><ele>571.8333333333334</ele><time>2026-04-23T10:29:18.712Z</time></trkpt><trkpt lat="44.6326367" lon="9.3347667"><ele>570.0</ele><time>2026-04-23T10:29:19.713Z</time></trkpt><trkpt lat="44.6325717" lon="9.3347083"><ele>570.0</ele><time>2026-04-23T10:29:20.714Z</time></trkpt><trkpt lat="44.6324967" lon="9.3346633"><ele>570.0</ele><time>2026-04-23T10:29:21.713Z</time></trkpt><trkpt lat="44.6324317" lon="9.334625"><ele>570.0</ele><time>2026-04-23T10:29:22.713Z</time></trkpt><trkpt lat="44.6323683" lon="9.3346"><ele>570.0</ele><time>2026-04-23T10:29:23.713Z</time></trkpt><trkpt lat="44.63226" lon="9.3346533"><ele>570.0</ele><time>2026-04-23T10:29:25.713Z</time></trkpt><trkpt lat="44.6322217" lon="9.3347567"><ele>570.0</ele><time>2026-04-23T10:29:26.714Z</time></trkpt><trkpt lat="44.6322017" lon="9.3348617"><ele>570.0</ele><time>2026-04-23T10:29:27.713Z</time></trkpt><trkpt lat="44.6321983" lon="9.3349783"><ele>570.0</ele><time>2026-04-23T10:29:28.713Z</time></trkpt><trkpt lat="44.6322167" lon="9.3351067"><ele>570.0</ele><time>2026-04-23T10:29:29.713Z</time></trkpt><trkpt lat="44.63223" lon="9.335235"><ele>570.0</ele><time>2026-04-23T10:29:30.714Z</time></trkpt><trkpt lat="44.632245" lon="9.3353617"><ele>570.0</ele><time>2026-04-23T10:29:31.713Z</time></trkpt><trkpt lat="44.6322467" lon="9.3354717"><ele>570.0</ele><time>2026-04-23T10:29:32.713Z</time></trkpt><trkpt lat="44.63223" lon="9.33557"><ele>571.6666666666666</ele><time>2026-04-23T10:29:33.713Z</time></trkpt><trkpt lat="44.632205" lon="9.3356617"><ele>573.3333333333334</ele><time>2026-04-23T10:29:34.714Z</time></trkpt><trkpt lat="44.632155" lon="9.33575"><ele>575.0</ele><time>2026-04-23T10:29:35.712Z</time></trkpt><trkpt lat="44.6321117" lon="9.3358383"><ele>576.6666666666667</ele><time>2026-04-23T10:29:36.712Z</time></trkpt><trkpt lat="44.632065" lon="9.3359233"><ele>578.3333333333334</ele><time>2026-04-23T10:29:37.714Z</time></trkpt><trkpt lat="44.632" lon="9.33599"><ele>580.0</ele><time>2026-04-23T10:29:38.714Z</time></trkpt><trkpt lat="44.6319333" lon="9.3360483"><ele>575.2</ele><time>2026-04-23T10:29:39.712Z</time></trkpt><trkpt lat="44.6318617" lon="9.33611"><ele>570.4</ele><time>2026-04-23T10:29:40.713Z</time></trkpt><trkpt lat="44.6317883" lon="9.336175"><ele>565.6</ele><time>2026-04-23T10:29:41.713Z</time></trkpt><trkpt lat="44.6317317" lon="9.336235"><ele>560.8</ele><time>2026-04-23T10:29:42.713Z</time></trkpt><trkpt lat="44.6316533" lon="9.3363033"><ele>556.0</ele><time>2026-04-23T10:29:44.714Z</time></trkpt><trkpt lat="44.631535" lon="9.3363583"><ele>557.5</ele><time>2026-04-23T10:30:01.713Z</time></trkpt><trkpt lat="44.631435" lon="9.3364367"><ele>559.0</ele><time>2026-04-23T10:30:03.715Z</time></trkpt><trkpt lat="44.6313833" lon="9.336495"><ele>560.5</ele><time>2026-04-23T10:30:04.714Z</time></trkpt><trkpt lat="44.63133" lon="9.3365633"><ele>562.0</ele><time>2026-04-23T10:30:05.714Z</time></trkpt><trkpt lat="44.63127" lon="9.336635"><ele>563.5</ele><time>2026-04-23T10:30:06.712Z</time></trkpt><trkpt lat="44.6312" lon="9.3367067"><ele>565.0</ele><time>2026-04-23T10:30:07.713Z</time></trkpt><trkpt lat="44.6311233" lon="9.33677"><ele>562.0</ele><time>2026-04-23T10:30:08.714Z</time></trkpt><trkpt lat="44.63104" lon="9.33681"><ele>559.0</ele><time>2026-04-23T10:30:09.712Z</time></trkpt><trkpt lat="44.63095" lon="9.3368183"><ele>556.0</ele><time>2026-04-23T10:30:10.713Z</time></trkpt><trkpt lat="44.6308567" lon="9.33681"><ele>553.0</ele><time>2026-04-23T10:30:11.713Z</time></trkpt><trkpt lat="44.6307683" lon="9.3368083"><ele>550.0</ele><time>2026-04-23T10:30:12.714Z</time></trkpt><trkpt lat="44.630685" lon="9.3368333"><ele>547.0</ele><time>2026-04-23T10:30:13.713Z</time></trkpt><trkpt lat="44.6306017" lon="9.3369033"><ele>547.0</ele><time>2026-04-23T10:30:14.714Z</time></trkpt><trkpt lat="44.6305283" lon="9.3370383"><ele>547.0</ele><time>2026-04-23T10:30:15.712Z</time></trkpt><trkpt lat="44.6304617" lon="9.33718"><ele>547.0</ele><time>2026-04-23T10:30:16.714Z</time></trkpt><trkpt lat="44.6304017" lon="9.3373133"><ele>547.0</ele><time>2026-04-23T10:30:17.713Z</time></trkpt><trkpt lat="44.6303433" lon="9.33744"><ele>543.2</ele><time>2026-04-23T10:30:18.712Z</time></trkpt><trkpt lat="44.63029" lon="9.337555"><ele>539.4000000000001</ele><time>2026-04-23T10:30:19.713Z</time></trkpt><trkpt lat="44.6302383" lon="9.3376633"><ele>535.5999999999999</ele><time>2026-04-23T10:30:20.713Z</time></trkpt><trkpt lat="44.6301917" lon="9.337775"><ele>531.8</ele><time>2026-04-23T10:30:21.713Z</time></trkpt><trkpt lat="44.6301617" lon="9.3378917"><ele>528.0</ele><time>2026-04-23T10:30:22.713Z</time></trkpt><trkpt lat="44.630145" lon="9.33801"><ele>529.1999999999999</ele><time>2026-04-23T10:30:23.712Z</time></trkpt><trkpt lat="44.63016" lon="9.3381533"><ele>530.4</ele><time>2026-04-23T10:30:24.712Z</time></trkpt><trkpt lat="44.630215" lon="9.3383017"><ele>531.5999999999999</ele><time>2026-04-23T10:30:25.714Z</time></trkpt><trkpt lat="44.63027" lon="9.33844"><ele>532.8</ele><time>2026-04-23T10:30:26.713Z</time></trkpt><trkpt lat="44.6303017" lon="9.3385783"><ele>534.0</ele><time>2026-04-23T10:30:27.713Z</time></trkpt><trkpt lat="44.6302917" lon="9.3387033"><ele>534.0</ele><time>2026-04-23T10:30:28.712Z</time></trkpt><trkpt lat="44.6302517" lon="9.3388267"><ele>534.0</ele><time>2026-04-23T10:30:29.712Z</time></trkpt><trkpt lat="44.630175" lon="9.338935"><ele>534.0</ele><time>2026-04-23T10:30:30.712Z</time></trkpt><trkpt lat="44.6300883" lon="9.3390317"><ele>534.0</ele><time>2026-04-23T10:30:31.713Z</time></trkpt><trkpt lat="44.629995" lon="9.3391133"><ele>534.0</ele><time>2026-04-23T10:30:32.713Z</time></trkpt><trkpt lat="44.6298967" lon="9.3391717"><ele>534.0</ele><time>2026-04-23T10:30:33.713Z</time></trkpt><trkpt lat="44.629805" lon="9.3391867"><ele>534.0</ele><time>2026-04-23T10:30:34.713Z</time></trkpt><trkpt lat="44.6297217" lon="9.3391617"><ele>534.0</ele><time>2026-04-23T10:30:35.713Z</time></trkpt><trkpt lat="44.62965" lon="9.33909"><ele>534.0</ele><time>2026-04-23T10:30:36.713Z</time></trkpt><trkpt lat="44.6296117" lon="9.3389567"><ele>534.0</ele><time>2026-04-23T10:30:37.714Z</time></trkpt><trkpt lat="44.6295983" lon="9.3388183"><ele>534.0</ele><time>2026-04-23T10:30:38.713Z</time></trkpt><trkpt lat="44.6296167" lon="9.338675"><ele>534.0</ele><time>2026-04-23T10:30:39.712Z</time></trkpt><trkpt lat="44.6296633" lon="9.33853"><ele>534.0</ele><time>2026-04-23T10:30:40.714Z</time></trkpt><trkpt lat="44.6297133" lon="9.3383833"><ele>534.0</ele><time>2026-04-23T10:30:41.713Z</time></trkpt><trkpt lat="44.6297533" lon="9.3382317"><ele>534.0</ele><time>2026-04-23T10:30:42.713Z</time></trkpt><trkpt lat="44.6297783" lon="9.338075"><ele>532.8</ele><time>2026-04-23T10:30:43.712Z</time></trkpt><trkpt lat="44.6298" lon="9.3379233"><ele>531.5999999999999</ele><time>2026-04-23T10:30:44.713Z</time></trkpt><trkpt lat="44.62982" lon="9.3377783"><ele>530.4</ele><time>2026-04-23T10:30:45.713Z</time></trkpt><trkpt lat="44.62984" lon="9.33764"><ele>529.1999999999999</ele><time>2026-04-23T10:30:46.713Z</time></trkpt><trkpt lat="44.6298417" lon="9.3375183"><ele>528.0</ele><time>2026-04-23T10:30:47.713Z</time></trkpt><trkpt lat="44.6298133" lon="9.3374167"><ele>528.0</ele><time>2026-04-23T10:30:48.713Z</time></trkpt><trkpt lat="44.62976" lon="9.3373633"><ele>528.0</ele><time>2026-04-23T10:30:49.712Z</time></trkpt><trkpt lat="44.62966" lon="9.33744"><ele>528.0</ele><time>2026-04-23T10:30:51.712Z</time></trkpt><trkpt lat="44.62962" lon="9.33754"><ele>528.0</ele><time>2026-04-23T10:30:52.713Z</time></trkpt><trkpt lat="44.62957" lon="9.33764"><ele>528.0</ele><time>2026-04-23T10:30:53.714Z</time></trkpt><trkpt lat="44.6295067" lon="9.33771"><ele>528.0</ele><time>2026-04-23T10:30:54.714Z</time></trkpt><trkpt lat="44.6294417" lon="9.3377117"><ele>528.0</ele><time>2026-04-23T10:30:55.712Z</time></trkpt><trkpt lat="44.629395" lon="9.3376517"><ele>528.0</ele><time>2026-04-23T10:30:56.713Z</time></trkpt><trkpt lat="44.629375" lon="9.3375617"><ele>528.0</ele><time>2026-04-23T10:30:57.713Z</time></trkpt><trkpt lat="44.629395" lon="9.3374517"><ele>528.0</ele><time>2026-04-23T10:30:58.714Z</time></trkpt><trkpt lat="44.62945" lon="9.337325"><ele>528.0</ele><time>2026-04-23T10:30:59.714Z</time></trkpt><trkpt lat="44.62953" lon="9.3371933"><ele>528.0</ele><time>2026-04-23T10:31:00.712Z</time></trkpt><trkpt lat="44.6296117" lon="9.3370583"><ele>525.25</ele><time>2026-04-23T10:31:01.714Z</time></trkpt><trkpt lat="44.6296983" lon="9.336925"><ele>522.5</ele><time>2026-04-23T10:31:02.714Z</time></trkpt><trkpt lat="44.6297833" lon="9.336795"><ele>519.75</ele><time>2026-04-23T10:31:03.714Z</time></trkpt><trkpt lat="44.629875" lon="9.336675"><ele>517.0</ele><time>2026-04-23T10:31:04.713Z</time></trkpt><trkpt lat="44.6299667" lon="9.3365633"><ele>517.0</ele><time>2026-04-23T10:31:05.714Z</time></trkpt><trkpt lat="44.6300433" lon="9.336445"><ele>517.0</ele><time>2026-04-23T10:31:06.713Z</time></trkpt><trkpt lat="44.6301033" lon="9.3363117"><ele>517.0</ele><time>2026-04-23T10:31:07.713Z</time></trkpt><trkpt lat="44.6301517" lon="9.3361767"><ele>517.0</ele><time>2026-04-23T10:31:08.713Z</time></trkpt><trkpt lat="44.6301867" lon="9.3360367"><ele>517.0</ele><time>2026-04-23T10:31:09.714Z</time></trkpt><trkpt lat="44.6302033" lon="9.3358967"><ele>515.2</ele><time>2026-04-23T10:31:10.713Z</time></trkpt><trkpt lat="44.6301967" lon="9.33576"><ele>513.4000000000001</ele><time>2026-04-23T10:31:11.712Z</time></trkpt><trkpt lat="44.6301583" lon="9.3356383"><ele>511.59999999999997</ele><time>2026-04-23T10:31:12.712Z</time></trkpt><trkpt lat="44.6300867" lon="9.335545"><ele>509.79999999999995</ele><time>2026-04-23T10:31:13.713Z</time></trkpt><trkpt lat="44.629995" lon="9.3354833"><ele>508.0</ele><time>2026-04-23T10:31:14.713Z</time></trkpt><trkpt lat="44.6299" lon="9.3354417"><ele>506.79999999999995</ele><time>2026-04-23T10:31:15.713Z</time></trkpt><trkpt lat="44.6298133" lon="9.3353867"><ele>505.59999999999997</ele><time>2026-04-23T10:31:16.713Z</time></trkpt><trkpt lat="44.6297433" lon="9.3353"><ele>504.40000000000003</ele><time>2026-04-23T10:31:17.713Z</time></trkpt><trkpt lat="44.629695" lon="9.335185"><ele>503.20000000000005</ele><time>2026-04-23T10:31:18.712Z</time></trkpt><trkpt lat="44.62966" lon="9.335045"><ele>502.0</ele><time>2026-04-23T10:31:19.713Z</time></trkpt><trkpt lat="44.6296183" lon="9.3349017"><ele>502.0</ele><time>2026-04-23T10:31:20.714Z</time></trkpt><trkpt lat="44.6295717" lon="9.3347617"><ele>502.00000000000006</ele><time>2026-04-23T10:31:21.712Z</time></trkpt><trkpt lat="44.6295217" lon="9.3346367"><ele>502.00000000000006</ele><time>2026-04-23T10:31:22.713Z</time></trkpt><trkpt lat="44.6294783" lon="9.3345333"><ele>502.0</ele><time>2026-04-23T10:31:23.713Z</time></trkpt><trkpt lat="44.6294433" lon="9.3344517"><ele>502.0</ele><time>2026-04-23T10:31:24.712Z</time></trkpt><trkpt lat="44.6293933" lon="9.3343383"><ele>498.8</ele><time>2026-04-23T10:31:26.713Z</time></trkpt><trkpt lat="44.6293117" lon="9.3342883"><ele>495.6</ele><time>2026-04-23T10:31:28.714Z</time></trkpt><trkpt lat="44.629175" lon="9.3343033"><ele>492.40000000000003</ele><time>2026-04-23T10:31:30.713Z</time></trkpt><trkpt lat="44.629085" lon="9.3343117"><ele>489.20000000000005</ele><time>2026-04-23T10:31:31.713Z</time></trkpt><trkpt lat="44.629" lon="9.3343167"><ele>486.0</ele><time>2026-04-23T10:31:32.714Z</time></trkpt><trkpt lat="44.628925" lon="9.3343083"><ele>486.0</ele><time>2026-04-23T10:31:33.712Z</time></trkpt><trkpt lat="44.6288067" lon="9.3343067"><ele>486.0</ele><time>2026-04-23T10:31:35.713Z</time></trkpt><trkpt lat="44.62869" lon="9.3343783"><ele>486.0</ele><time>2026-04-23T10:31:37.714Z</time></trkpt><trkpt lat="44.62863" lon="9.3344367"><ele>486.0</ele><time>2026-04-23T10:31:38.714Z</time></trkpt><trkpt lat="44.6285667" lon="9.3344967"><ele>486.0</ele><time>2026-04-23T10:31:39.713Z</time></trkpt><trkpt lat="44.628505" lon="9.3345467"><ele>486.0</ele><time>2026-04-23T10:31:40.713Z</time></trkpt><trkpt lat="44.6284383" lon="9.3345767"><ele>486.0</ele><time>2026-04-23T10:31:41.713Z</time></trkpt><trkpt lat="44.628375" lon="9.3345917"><ele>486.0</ele><time>2026-04-23T10:31:42.713Z</time></trkpt><trkpt lat="44.62831" lon="9.3345833"><ele>486.0</ele><time>2026-04-23T10:31:43.713Z</time></trkpt><trkpt lat="44.6282533" lon="9.3345383"><ele>486.0</ele><time>2026-04-23T10:31:44.713Z</time></trkpt><trkpt lat="44.6281983" lon="9.334385"><ele>486.0</ele><time>2026-04-23T10:31:46.713Z</time></trkpt><trkpt lat="44.6281933" lon="9.334285"><ele>486.0</ele><time>2026-04-23T10:31:47.713Z</time></trkpt><trkpt lat="44.6281983" lon="9.33418"><ele>486.0</ele><time>2026-04-23T10:31:48.712Z</time></trkpt><trkpt lat="44.6282033" lon="9.33408"><ele>486.0</ele><time>2026-04-23T10:31:49.713Z</time></trkpt><trkpt lat="44.6282" lon="9.3339867"><ele>486.0</ele><time>2026-04-23T10:31:50.715Z</time></trkpt><trkpt lat="44.628195" lon="9.333895"><ele>486.0</ele><time>2026-04-23T10:31:51.713Z</time></trkpt><trkpt lat="44.628185" lon="9.3338017"><ele>486.0</ele><time>2026-04-23T10:31:52.713Z</time></trkpt><trkpt lat="44.6281717" lon="9.33371"><ele>486.0</ele><time>2026-04-23T10:31:53.712Z</time></trkpt><trkpt lat="44.6281633" lon="9.3335433"><ele>485.1666666666667</ele><time>2026-04-23T10:31:55.714Z</time></trkpt><trkpt lat="44.62819" lon="9.3333983"><ele>484.33333333333337</ele><time>2026-04-23T10:31:57.712Z</time></trkpt><trkpt lat="44.6282483" lon="9.33331"><ele>483.5</ele><time>2026-04-23T10:31:59.714Z</time></trkpt><trkpt lat="44.62832" lon="9.3333067"><ele>482.6666666666667</ele><time>2026-04-23T10:32:01.714Z</time></trkpt><trkpt lat="44.628385" lon="9.3333067"><ele>481.83333333333337</ele><time>2026-04-23T10:32:04.713Z</time></trkpt><trkpt lat="44.6283117" lon="9.3332967"><ele>481.0</ele><time>2026-04-23T10:39:31.714Z</time></trkpt><trkpt lat="44.6282483" lon="9.3333217"><ele>481.0</ele><time>2026-04-23T10:39:33.713Z</time></trkpt><trkpt lat="44.6282017" lon="9.3334017"><ele>481.0</ele><time>2026-04-23T10:39:35.713Z</time></trkpt><trkpt lat="44.6281883" lon="9.333545"><ele>481.0</ele><time>2026-04-23T10:39:37.713Z</time></trkpt><trkpt lat="44.6281983" lon="9.3336767"><ele>481.0</ele><time>2026-04-23T10:39:39.714Z</time></trkpt><trkpt lat="44.6282183" lon="9.333855"><ele>481.0</ele><time>2026-04-23T10:39:41.714Z</time></trkpt><trkpt lat="44.6282233" lon="9.3339467"><ele>481.83333333333337</ele><time>2026-04-23T10:39:42.714Z</time></trkpt><trkpt lat="44.628225" lon="9.3340367"><ele>482.6666666666667</ele><time>2026-04-23T10:39:43.714Z</time></trkpt><trkpt lat="44.6282233" lon="9.3341333"><ele>483.5</ele><time>2026-04-23T10:39:44.715Z</time></trkpt><trkpt lat="44.62822" lon="9.3342417"><ele>484.33333333333337</ele><time>2026-04-23T10:39:45.714Z</time></trkpt><trkpt lat="44.6282217" lon="9.3343567"><ele>485.1666666666667</ele><time>2026-04-23T10:39:46.715Z</time></trkpt><trkpt lat="44.6282383" lon="9.3344533"><ele>486.0</ele><time>2026-04-23T10:39:47.713Z</time></trkpt><trkpt lat="44.628305" lon="9.3345917"><ele>486.0</ele><time>2026-04-23T10:39:49.714Z</time></trkpt><trkpt lat="44.6284267" lon="9.3345983"><ele>486.0</ele><time>2026-04-23T10:39:51.713Z</time></trkpt><trkpt lat="44.6284967" lon="9.33455"><ele>486.0</ele><time>2026-04-23T10:39:52.714Z</time></trkpt><trkpt lat="44.6285717" lon="9.334485"><ele>486.0</ele><time>2026-04-23T10:39:53.714Z</time></trkpt><trkpt lat="44.62864" lon="9.33442"><ele>486.0</ele><time>2026-04-23T10:39:54.715Z</time></trkpt><trkpt lat="44.6287017" lon="9.33436"><ele>486.0</ele><time>2026-04-23T10:39:55.714Z</time></trkpt><trkpt lat="44.6287983" lon="9.3343117"><ele>486.0</ele><time>2026-04-23T10:39:57.714Z</time></trkpt><trkpt lat="44.6288217" lon="9.3344167"><ele>486.0</ele><time>2026-04-23T10:40:00.713Z</time></trkpt><trkpt lat="44.6287233" lon="9.3345417"><ele>486.0</ele><time>2026-04-23T10:40:02.715Z</time></trkpt><trkpt lat="44.6286717" lon="9.3346033"><ele>486.0</ele><time>2026-04-23T10:40:03.715Z</time></trkpt><trkpt lat="44.62862" lon="9.3346567"><ele>486.0</ele><time>2026-04-23T10:40:04.714Z</time></trkpt><trkpt lat="44.6285333" lon="9.3347533"><ele>487.5</ele><time>2026-04-23T10:40:06.714Z</time></trkpt><trkpt lat="44.628465" lon="9.334825"><ele>489.0</ele><time>2026-04-23T10:40:08.715Z</time></trkpt><trkpt lat="44.6284017" lon="9.334895"><ele>490.5</ele><time>2026-04-23T10:40:10.713Z</time></trkpt><trkpt lat="44.62832" lon="9.3349683"><ele>492.0</ele><time>2026-04-23T10:40:12.714Z</time></trkpt><trkpt lat="44.6282633" lon="9.335045"><ele>493.5</ele><time>2026-04-23T10:40:14.715Z</time></trkpt><trkpt lat="44.6282683" lon="9.3351517"><ele>495.0</ele><time>2026-04-23T10:40:16.713Z</time></trkpt><trkpt lat="44.6283017" lon="9.3353"><ele>495.0</ele><time>2026-04-23T10:40:18.714Z</time></trkpt><trkpt lat="44.62832" lon="9.3353883"><ele>495.0</ele><time>2026-04-23T10:40:19.713Z</time></trkpt><trkpt lat="44.628335" lon="9.33548"><ele>495.0</ele><time>2026-04-23T10:40:20.713Z</time></trkpt><trkpt lat="44.6283517" lon="9.3355667"><ele>495.0</ele><time>2026-04-23T10:40:21.713Z</time></trkpt><trkpt lat="44.62838" lon="9.3357433"><ele>495.0</ele><time>2026-04-23T10:40:23.713Z</time></trkpt><trkpt lat="44.6283983" lon="9.3358283"><ele>495.0</ele><time>2026-04-23T10:40:24.712Z</time></trkpt><trkpt lat="44.6284267" lon="9.33596"><ele>496.1666666666667</ele><time>2026-04-23T10:40:26.713Z</time></trkpt><trkpt lat="44.6284167" lon="9.33606"><ele>497.33333333333337</ele><time>2026-04-23T10:40:28.712Z</time></trkpt><trkpt lat="44.6283783" lon="9.3361883"><ele>498.5</ele><time>2026-04-23T10:40:30.712Z</time></trkpt><trkpt lat="44.628355" lon="9.3362783"><ele>499.6666666666667</ele><time>2026-04-23T10:40:31.714Z</time></trkpt><trkpt lat="44.628335" lon="9.336365"><ele>500.83333333333337</ele><time>2026-04-23T10:40:32.713Z</time></trkpt><trkpt lat="44.628315" lon="9.3364517"><ele>502.0</ele><time>2026-04-23T10:40:33.713Z</time></trkpt><trkpt lat="44.62827" lon="9.3365967"><ele>504.40000000000003</ele><time>2026-04-23T10:40:35.714Z</time></trkpt><trkpt lat="44.6281967" lon="9.3367417"><ele>506.80000000000007</ele><time>2026-04-23T10:40:37.714Z</time></trkpt><trkpt lat="44.628145" lon="9.3368833"><ele>509.2</ele><time>2026-04-23T10:40:39.712Z</time></trkpt><trkpt lat="44.6281233" lon="9.3370283"><ele>511.6</ele><time>2026-04-23T10:40:41.713Z</time></trkpt><trkpt lat="44.62813" lon="9.3371533"><ele>514.0</ele><time>2026-04-23T10:40:43.713Z</time></trkpt><trkpt lat="44.6281467" lon="9.3373"><ele>516.8</ele><time>2026-04-23T10:40:45.712Z</time></trkpt><trkpt lat="44.62817" lon="9.3373833"><ele>519.5999999999999</ele><time>2026-04-23T10:40:46.713Z</time></trkpt><trkpt lat="44.6282017" lon="9.3375437"><ele>522.4</ele><time>2026-04-23T10:40:48.712Z</time></trkpt><trkpt lat="44.6282196" lon="9.3376996"><ele>525.1999999999999</ele><time>2026-04-23T10:40:50.714Z</time></trkpt><trkpt lat="44.6282316" lon="9.3378252"><ele>528.0</ele><time>2026-04-23T10:40:52.714Z</time></trkpt><trkpt lat="44.6282389" lon="9.337943"><ele>530.6</ele><time>2026-04-23T10:40:54.712Z</time></trkpt><trkpt lat="44.6282573" lon="9.3380872"><ele>533.1999999999999</ele><time>2026-04-23T10:40:56.714Z</time></trkpt><trkpt lat="44.6282634" lon="9.3382325"><ele>535.8</ele><time>2026-04-23T10:40:58.714Z</time></trkpt><trkpt lat="44.6282606" lon="9.3383417"><ele>538.4</ele><time>2026-04-23T10:41:00.712Z</time></trkpt><trkpt lat="44.6282529" lon="9.3384654"><ele>541.0</ele><time>2026-04-23T10:41:02.713Z</time></trkpt><trkpt lat="44.6282604" lon="9.3385893"><ele>541.0</ele><time>2026-04-23T10:41:04.712Z</time></trkpt><trkpt lat="44.6282666" lon="9.3387483"><ele>541.0</ele><time>2026-04-23T10:41:06.713Z</time></trkpt><trkpt lat="44.6282707" lon="9.3388368"><ele>541.0</ele><time>2026-04-23T10:41:07.712Z</time></trkpt><trkpt lat="44.6282717" lon="9.3389288"><ele>541.0</ele><time>2026-04-23T10:41:08.713Z</time></trkpt><trkpt lat="44.628278" lon="9.3390987"><ele>541.0</ele><time>2026-04-23T10:41:10.713Z</time></trkpt><trkpt lat="44.628285" lon="9.3392787"><ele>543.3333333333334</ele><time>2026-04-23T10:41:12.713Z</time></trkpt><trkpt lat="44.6282976" lon="9.3394575"><ele>545.6666666666667</ele><time>2026-04-23T10:41:14.713Z</time></trkpt><trkpt lat="44.6283083" lon="9.3395545"><ele>548.0</ele><time>2026-04-23T10:41:15.713Z</time></trkpt><trkpt lat="44.6283178" lon="9.3396424"><ele>550.3333333333334</ele><time>2026-04-23T10:41:16.713Z</time></trkpt><trkpt lat="44.6283275" lon="9.3397318"><ele>552.6666666666666</ele><time>2026-04-23T10:41:17.715Z</time></trkpt><trkpt lat="44.6283415" lon="9.339891"><ele>555.0</ele><time>2026-04-23T10:41:19.714Z</time></trkpt><trkpt lat="44.6283643" lon="9.3400416"><ele>557.4</ele><time>2026-04-23T10:41:21.712Z</time></trkpt><trkpt lat="44.628401" lon="9.3401662"><ele>559.8</ele><time>2026-04-23T10:41:23.714Z</time></trkpt><trkpt lat="44.6284387" lon="9.3402785"><ele>562.2</ele><time>2026-04-23T10:41:25.714Z</time></trkpt><trkpt lat="44.6284864" lon="9.3404303"><ele>564.6</ele><time>2026-04-23T10:41:27.713Z</time></trkpt><trkpt lat="44.6285287" lon="9.3405873"><ele>567.0</ele><time>2026-04-23T10:41:29.714Z</time></trkpt><trkpt lat="44.6285611" lon="9.3407483"><ele>568.0</ele><time>2026-04-23T10:41:31.713Z</time></trkpt><trkpt lat="44.6285799" lon="9.3408987"><ele>569.0</ele><time>2026-04-23T10:41:33.713Z</time></trkpt><trkpt lat="44.6286024" lon="9.3410334"><ele>570.0</ele><time>2026-04-23T10:41:35.712Z</time></trkpt><trkpt lat="44.628582" lon="9.3411215"><ele>571.0</ele><time>2026-04-23T10:41:38.753Z</time></trkpt><trkpt lat="44.6286563" lon="9.3412892"><ele>572.0</ele><time>2026-04-23T10:41:39.712Z</time></trkpt><trkpt lat="44.6286873" lon="9.3413833"><ele>575.2</ele><time>2026-04-23T10:41:40.713Z</time></trkpt><trkpt lat="44.6287235" lon="9.3415315"><ele>578.4000000000001</ele><time>2026-04-23T10:41:42.712Z</time></trkpt><trkpt lat="44.6287443" lon="9.3416534"><ele>581.5999999999999</ele><time>2026-04-23T10:41:44.712Z</time></trkpt><trkpt lat="44.6287564" lon="9.3417562"><ele>584.8</ele><time>2026-04-23T10:41:46.712Z</time></trkpt><trkpt lat="44.6287727" lon="9.3418702"><ele>588.0</ele><time>2026-04-23T10:41:54.712Z</time></trkpt><trkpt lat="44.6287947" lon="9.342013"><ele>588.0</ele><time>2026-04-23T10:41:55.713Z</time></trkpt><trkpt lat="44.6288135" lon="9.3421563"><ele>588.0</ele><time>2026-04-23T10:41:56.714Z</time></trkpt><trkpt lat="44.6288329" lon="9.3422779"><ele>588.0</ele><time>2026-04-23T10:41:57.713Z</time></trkpt><trkpt lat="44.6288565" lon="9.3423851"><ele>588.0</ele><time>2026-04-23T10:41:58.714Z</time></trkpt><trkpt lat="44.6288843" lon="9.3424922"><ele>588.0</ele><time>2026-04-23T10:41:59.714Z</time></trkpt><trkpt lat="44.6289084" lon="9.342601"><ele>588.0</ele><time>2026-04-23T10:42:00.712Z</time></trkpt><trkpt lat="44.6289325" lon="9.3427069"><ele>589.0</ele><time>2026-04-23T10:42:01.713Z</time></trkpt><trkpt lat="44.6289572" lon="9.3428055"><ele>590.0</ele><time>2026-04-23T10:42:02.713Z</time></trkpt><trkpt lat="44.6289808" lon="9.3429039"><ele>591.0</ele><time>2026-04-23T10:42:03.712Z</time></trkpt><trkpt lat="44.6290017" lon="9.3430118"><ele>592.0</ele><time>2026-04-23T10:42:04.713Z</time></trkpt><trkpt lat="44.629023" lon="9.3431218"><ele>593.0</ele><time>2026-04-23T10:42:05.714Z</time></trkpt><trkpt lat="44.6290419" lon="9.3432334"><ele>594.0</ele><time>2026-04-23T10:42:06.713Z</time></trkpt><trkpt lat="44.62906" lon="9.3433444"><ele>595.3333333333334</ele><time>2026-04-23T10:42:07.712Z</time></trkpt><trkpt lat="44.6290756" lon="9.343451"><ele>596.6666666666666</ele><time>2026-04-23T10:42:08.714Z</time></trkpt><trkpt lat="44.6290845" lon="9.3435655"><ele>598.0</ele><time>2026-04-23T10:42:09.713Z</time></trkpt><trkpt lat="44.6290965" lon="9.3436889"><ele>599.3333333333333</ele><time>2026-04-23T10:42:10.714Z</time></trkpt><trkpt lat="44.6291134" lon="9.3438141"><ele>600.6666666666666</ele><time>2026-04-23T10:42:11.713Z</time></trkpt><trkpt lat="44.6291301" lon="9.3439405"><ele>602.0</ele><time>2026-04-23T10:42:12.715Z</time></trkpt><trkpt lat="44.6291415" lon="9.3440671"><ele>604.1666666666666</ele><time>2026-04-23T10:42:13.713Z</time></trkpt><trkpt lat="44.6291542" lon="9.3441887"><ele>606.3333333333333</ele><time>2026-04-23T10:42:14.714Z</time></trkpt><trkpt lat="44.6291718" lon="9.3443034"><ele>608.5</ele><time>2026-04-23T10:42:15.712Z</time></trkpt><trkpt lat="44.6292007" lon="9.3444129"><ele>610.6666666666666</ele><time>2026-04-23T10:42:16.712Z</time></trkpt><trkpt lat="44.6292365" lon="9.3445223"><ele>612.8333333333334</ele><time>2026-04-23T10:42:17.714Z</time></trkpt><trkpt lat="44.6292779" lon="9.344626"><ele>615.0</ele><time>2026-04-23T10:42:18.713Z</time></trkpt><trkpt lat="44.6293257" lon="9.3447218"><ele>617.3333333333334</ele><time>2026-04-23T10:42:19.714Z</time></trkpt><trkpt lat="44.6293773" lon="9.3448098"><ele>619.6666666666666</ele><time>2026-04-23T10:42:20.715Z</time></trkpt><trkpt lat="44.6294313" lon="9.3448947"><ele>622.0</ele><time>2026-04-23T10:42:21.713Z</time></trkpt><trkpt lat="44.629487" lon="9.3449611"><ele>624.3333333333333</ele><time>2026-04-23T10:42:22.712Z</time></trkpt><trkpt lat="44.629549" lon="9.3450084"><ele>626.6666666666666</ele><time>2026-04-23T10:42:23.713Z</time></trkpt><trkpt lat="44.6296178" lon="9.3450343"><ele>629.0</ele><time>2026-04-23T10:42:24.712Z</time></trkpt><trkpt lat="44.629741" lon="9.3449986"><ele>631.6666666666666</ele><time>2026-04-23T10:42:26.713Z</time></trkpt><trkpt lat="44.6298104" lon="9.3449552"><ele>634.3333333333333</ele><time>2026-04-23T10:42:27.712Z</time></trkpt><trkpt lat="44.6298753" lon="9.3449157"><ele>637.0</ele><time>2026-04-23T10:42:28.712Z</time></trkpt><trkpt lat="44.6299395" lon="9.3448965"><ele>639.6666666666666</ele><time>2026-04-23T10:42:29.713Z</time></trkpt><trkpt lat="44.6300026" lon="9.3448877"><ele>642.3333333333334</ele><time>2026-04-23T10:42:30.712Z</time></trkpt><trkpt lat="44.6300905" lon="9.3449161"><ele>645.0</ele><time>2026-04-23T10:42:32.713Z</time></trkpt><trkpt lat="44.6300476" lon="9.3450517"><ele>645.0</ele><time>2026-04-23T10:42:35.714Z</time></trkpt><trkpt lat="44.6299841" lon="9.3451852"><ele>645.0</ele><time>2026-04-23T10:42:37.713Z</time></trkpt><trkpt lat="44.6300196" lon="9.3453307"><ele>645.0</ele><time>2026-04-23T10:42:39.712Z</time></trkpt><trkpt lat="44.6301257" lon="9.3454351"><ele>645.0</ele><time>2026-04-23T10:42:41.713Z</time></trkpt><trkpt lat="44.6301954" lon="9.3454844"><ele>645.0</ele><time>2026-04-23T10:42:42.712Z</time></trkpt><trkpt lat="44.6302672" lon="9.3455302"><ele>649.1666666666666</ele><time>2026-04-23T10:42:43.712Z</time></trkpt><trkpt lat="44.6303317" lon="9.3455653"><ele>653.3333333333334</ele><time>2026-04-23T10:42:44.713Z</time></trkpt><trkpt lat="44.6304302" lon="9.3455628"><ele>657.5</ele><time>2026-04-23T10:42:46.713Z</time></trkpt><trkpt lat="44.6305048" lon="9.3455184"><ele>661.6666666666667</ele><time>2026-04-23T10:42:49.713Z</time></trkpt><trkpt lat="44.630575" lon="9.3456133"><ele>665.8333333333334</ele><time>2026-04-23T10:42:52.713Z</time></trkpt><trkpt lat="44.6305983" lon="9.3457267"><ele>670.0</ele><time>2026-04-23T10:42:54.713Z</time></trkpt><trkpt lat="44.630595" lon="9.3458317"><ele>671.5</ele><time>2026-04-23T10:42:56.714Z</time></trkpt><trkpt lat="44.630585" lon="9.34596"><ele>673.0</ele><time>2026-04-23T10:42:58.713Z</time></trkpt><trkpt lat="44.6305833" lon="9.3460717"><ele>674.5</ele><time>2026-04-23T10:43:00.713Z</time></trkpt><trkpt lat="44.6305517" lon="9.3462133"><ele>676.0</ele><time>2026-04-23T10:43:02.714Z</time></trkpt><trkpt lat="44.63048" lon="9.3462717"><ele>677.5</ele><time>2026-04-23T10:43:04.713Z</time></trkpt><trkpt lat="44.6304183" lon="9.34622"><ele>679.0</ele><time>2026-04-23T10:43:06.713Z</time></trkpt><trkpt lat="44.630365" lon="9.34615"><ele>679.0</ele><time>2026-04-23T10:43:09.713Z</time></trkpt><trkpt lat="44.6303217" lon="9.3462367"><ele>679.0</ele><time>2026-04-23T10:43:12.713Z</time></trkpt><trkpt lat="44.6303083" lon="9.3463517"><ele>679.0</ele><time>2026-04-23T10:43:14.714Z</time></trkpt><trkpt lat="44.6302652" lon="9.3464963"><ele>679.0</ele><time>2026-04-23T10:43:16.713Z</time></trkpt><trkpt lat="44.6302124" lon="9.3466321"><ele>679.0</ele><time>2026-04-23T10:43:18.713Z</time></trkpt><trkpt lat="44.6301757" lon="9.346779"><ele>680.4000000000001</ele><time>2026-04-23T10:43:20.714Z</time></trkpt><trkpt lat="44.6301828" lon="9.346947"><ele>681.8</ele><time>2026-04-23T10:43:22.714Z</time></trkpt><trkpt lat="44.6302001" lon="9.3470896"><ele>683.2</ele><time>2026-04-23T10:43:24.712Z</time></trkpt><trkpt lat="44.6301835" lon="9.3471984"><ele>684.5999999999999</ele><time>2026-04-23T10:43:26.712Z</time></trkpt><trkpt lat="44.6301789" lon="9.3473213"><ele>686.0</ele><time>2026-04-23T10:43:28.713Z</time></trkpt><trkpt lat="44.6301875" lon="9.34746"><ele>686.0</ele><time>2026-04-23T10:43:30.713Z</time></trkpt><trkpt lat="44.6301989" lon="9.3475525"><ele>686.0</ele><time>2026-04-23T10:43:32.712Z</time></trkpt><trkpt lat="44.6302095" lon="9.3476475"><ele>686.0</ele><time>2026-04-23T10:43:34.713Z</time></trkpt><trkpt lat="44.6301944" lon="9.3477632"><ele>686.0</ele><time>2026-04-23T10:43:36.713Z</time></trkpt><trkpt lat="44.6301837" lon="9.3478873"><ele>686.0</ele><time>2026-04-23T10:43:38.713Z</time></trkpt><trkpt lat="44.6302281" lon="9.3479935"><ele>686.0</ele><time>2026-04-23T10:43:40.729Z</time></trkpt><trkpt lat="44.6302957" lon="9.3481398"><ele>692.4</ele><time>2026-04-23T10:43:42.712Z</time></trkpt><trkpt lat="44.6303217" lon="9.3482253"><ele>698.8</ele><time>2026-04-23T10:43:43.713Z</time></trkpt><trkpt lat="44.6303529" lon="9.3483663"><ele>705.1999999999999</ele><time>2026-04-23T10:43:45.713Z</time></trkpt><trkpt lat="44.6304155" lon="9.3484723"><ele>711.5999999999999</ele><time>2026-04-23T10:43:47.714Z</time></trkpt><trkpt lat="44.6305261" lon="9.3485599"><ele>718.0</ele><time>2026-04-23T10:43:49.712Z</time></trkpt><trkpt lat="44.630585" lon="9.3486027"><ele>718.0</ele><time>2026-04-23T10:43:50.713Z</time></trkpt><trkpt lat="44.6306407" lon="9.3486448"><ele>718.0</ele><time>2026-04-23T10:43:51.713Z</time></trkpt><trkpt lat="44.6306934" lon="9.3486976"><ele>718.0</ele><time>2026-04-23T10:43:52.714Z</time></trkpt><trkpt lat="44.6307639" lon="9.3488243"><ele>718.0</ele><time>2026-04-23T10:43:54.713Z</time></trkpt><trkpt lat="44.6308318" lon="9.3489415"><ele>718.0</ele><time>2026-04-23T10:43:56.714Z</time></trkpt><trkpt lat="44.6309019" lon="9.3490088"><ele>718.0</ele><time>2026-04-23T10:43:58.712Z</time></trkpt><trkpt lat="44.63095" lon="9.3490867"><ele>718.6666666666667</ele><time>2026-04-23T10:44:01.713Z</time></trkpt><trkpt lat="44.630985" lon="9.3491617"><ele>719.3333333333334</ele><time>2026-04-23T10:44:05.713Z</time></trkpt><trkpt lat="44.6310317" lon="9.3492467"><ele>720.0</ele><time>2026-04-23T10:44:08.715Z</time></trkpt><trkpt lat="44.6311033" lon="9.34926"><ele>720.6666666666666</ele><time>2026-04-23T10:44:13.714Z</time></trkpt><trkpt lat="44.63117" lon="9.3492983"><ele>721.3333333333333</ele><time>2026-04-23T10:44:16.713Z</time></trkpt><trkpt lat="44.63128" lon="9.3493683"><ele>722.0</ele><time>2026-04-23T10:44:30.713Z</time></trkpt><trkpt lat="44.6313067" lon="9.3494667"><ele>725.5</ele><time>2026-04-23T10:45:09.713Z</time></trkpt><trkpt lat="44.6313533" lon="9.34958"><ele>729.0</ele><time>2026-04-23T10:45:18.712Z</time></trkpt><trkpt lat="44.6314067" lon="9.3496617"><ele>732.5</ele><time>2026-04-23T10:45:20.715Z</time></trkpt><trkpt lat="44.6315017" lon="9.3497467"><ele>736.0</ele><time>2026-04-23T10:45:22.714Z</time></trkpt><trkpt lat="44.6315667" lon="9.34979"><ele>739.5</ele><time>2026-04-23T10:45:23.712Z</time></trkpt><trkpt lat="44.6316317" lon="9.3498283"><ele>743.0</ele><time>2026-04-23T10:45:24.712Z</time></trkpt><trkpt lat="44.6316933" lon="9.3498833"><ele>744.1666666666666</ele><time>2026-04-23T10:45:25.713Z</time></trkpt><trkpt lat="44.63175" lon="9.3499583"><ele>745.3333333333333</ele><time>2026-04-23T10:45:26.714Z</time></trkpt><trkpt lat="44.6318117" lon="9.3500317"><ele>746.5</ele><time>2026-04-23T10:45:27.713Z</time></trkpt><trkpt lat="44.6318767" lon="9.3501"><ele>747.6666666666666</ele><time>2026-04-23T10:45:28.714Z</time></trkpt><trkpt lat="44.6319417" lon="9.3501583"><ele>748.8333333333334</ele><time>2026-04-23T10:45:29.713Z</time></trkpt><trkpt lat="44.632" lon="9.3502017"><ele>750.0</ele><time>2026-04-23T10:45:30.714Z</time></trkpt><trkpt lat="44.6321117" lon="9.3502683"><ele>752.2857142857143</ele><time>2026-04-23T10:45:32.713Z</time></trkpt><trkpt lat="44.6321717" lon="9.3503067"><ele>754.5714285714286</ele><time>2026-04-23T10:45:33.714Z</time></trkpt><trkpt lat="44.6322367" lon="9.3503483"><ele>756.8571428571429</ele><time>2026-04-23T10:45:34.713Z</time></trkpt><trkpt lat="44.6322983" lon="9.3503833"><ele>759.1428571428571</ele><time>2026-04-23T10:45:35.713Z</time></trkpt><trkpt lat="44.632365" lon="9.350405"><ele>761.4285714285713</ele><time>2026-04-23T10:45:36.714Z</time></trkpt><trkpt lat="44.6324467" lon="9.3504217"><ele>763.7142857142857</ele><time>2026-04-23T10:45:37.714Z</time></trkpt><trkpt lat="44.63254" lon="9.3504367"><ele>766.0</ele><time>2026-04-23T10:45:38.714Z</time></trkpt><trkpt lat="44.6326333" lon="9.3504467"><ele>766.0</ele><time>2026-04-23T10:45:39.713Z</time></trkpt><trkpt lat="44.63272" lon="9.3504583"><ele>766.0</ele><time>2026-04-23T10:45:40.713Z</time></trkpt><trkpt lat="44.6328117" lon="9.35045"><ele>766.0</ele><time>2026-04-23T10:45:42.714Z</time></trkpt><trkpt lat="44.6329083" lon="9.350395"><ele>766.0</ele><time>2026-04-23T10:45:45.713Z</time></trkpt><trkpt lat="44.6330167" lon="9.35035"><ele>766.0</ele><time>2026-04-23T10:45:47.712Z</time></trkpt><trkpt lat="44.63307" lon="9.350265"><ele>769.5</ele><time>2026-04-23T10:45:49.714Z</time></trkpt><trkpt lat="44.6330367" lon="9.3501283"><ele>773.0</ele><time>2026-04-23T10:45:51.714Z</time></trkpt><trkpt lat="44.633035" lon="9.3500183"><ele>776.5</ele><time>2026-04-23T10:45:53.713Z</time></trkpt><trkpt lat="44.6331017" lon="9.3499767"><ele>780.0</ele><time>2026-04-23T10:45:55.714Z</time></trkpt><trkpt lat="44.6331867" lon="9.3499767"><ele>783.4999999999999</ele><time>2026-04-23T10:45:57.713Z</time></trkpt><trkpt lat="44.6332533" lon="9.3499617"><ele>787.0</ele><time>2026-04-23T10:45:59.714Z</time></trkpt><trkpt lat="44.633285" lon="9.3498833"><ele>786.9999999999999</ele><time>2026-04-23T10:46:28.712Z</time></trkpt><trkpt lat="44.633245" lon="9.3499633"><ele>787.0</ele><time>2026-04-23T10:48:39.713Z</time></trkpt><trkpt lat="44.63317" lon="9.34996"><ele>787.0</ele><time>2026-04-23T10:48:41.714Z</time></trkpt><trkpt lat="44.6330833" lon="9.349975"><ele>787.0</ele><time>2026-04-23T10:48:43.714Z</time></trkpt><trkpt lat="44.633015" lon="9.350025"><ele>786.9999999999999</ele><time>2026-04-23T10:48:45.714Z</time></trkpt><trkpt lat="44.633015" lon="9.350125"><ele>787.0</ele><time>2026-04-23T10:48:47.715Z</time></trkpt><trkpt lat="44.6330333" lon="9.3502233"><ele>786.9999999999999</ele><time>2026-04-23T10:48:49.713Z</time></trkpt><trkpt lat="44.6330367" lon="9.350345"><ele>787.0</ele><time>2026-04-23T10:48:52.713Z</time></trkpt><trkpt lat="44.6329717" lon="9.350395"><ele>787.0</ele><time>2026-04-23T10:48:54.714Z</time></trkpt><trkpt lat="44.6328983" lon="9.350425"><ele>787.0</ele><time>2026-04-23T10:48:56.714Z</time></trkpt><trkpt lat="44.6328217" lon="9.3504417"><ele>786.9999999999999</ele><time>2026-04-23T10:48:59.713Z</time></trkpt><trkpt lat="44.6327433" lon="9.3504567"><ele>787.0</ele><time>2026-04-23T10:49:01.713Z</time></trkpt><trkpt lat="44.6326483" lon="9.3504617"><ele>781.75</ele><time>2026-04-23T10:49:03.713Z</time></trkpt><trkpt lat="44.632535" lon="9.3504433"><ele>776.5</ele><time>2026-04-23T10:49:05.714Z</time></trkpt><trkpt lat="44.6324117" lon="9.35042"><ele>771.25</ele><time>2026-04-23T10:49:07.712Z</time></trkpt><trkpt lat="44.6323" lon="9.35041"><ele>766.0</ele><time>2026-04-23T10:49:09.713Z</time></trkpt><trkpt lat="44.6321933" lon="9.350355"><ele>766.0</ele><time>2026-04-23T10:49:11.713Z</time></trkpt><trkpt lat="44.6321333" lon="9.350315"><ele>766.0</ele><time>2026-04-23T10:49:12.712Z</time></trkpt><trkpt lat="44.632065" lon="9.35027"><ele>766.0</ele><time>2026-04-23T10:49:13.713Z</time></trkpt><trkpt lat="44.6319933" lon="9.350225"><ele>766.0</ele><time>2026-04-23T10:49:14.713Z</time></trkpt><trkpt lat="44.6319267" lon="9.35017"><ele>766.0</ele><time>2026-04-23T10:49:15.713Z</time></trkpt><trkpt lat="44.631865" lon="9.350115"><ele>766.0</ele><time>2026-04-23T10:49:16.714Z</time></trkpt><trkpt lat="44.6318083" lon="9.35006"><ele>766.0</ele><time>2026-04-23T10:49:17.716Z</time></trkpt><trkpt lat="44.63176" lon="9.3500017"><ele>762.8</ele><time>2026-04-23T10:49:18.713Z</time></trkpt><trkpt lat="44.631665" lon="9.34989"><ele>759.5999999999999</ele><time>2026-04-23T10:49:20.714Z</time></trkpt><trkpt lat="44.6315567" lon="9.3498117"><ele>756.4</ele><time>2026-04-23T10:49:22.713Z</time></trkpt><trkpt lat="44.6314717" lon="9.34973"><ele>753.2</ele><time>2026-04-23T10:49:24.714Z</time></trkpt><trkpt lat="44.631425" lon="9.349665"><ele>750.0</ele><time>2026-04-23T10:49:26.714Z</time></trkpt><trkpt lat="44.6313967" lon="9.34955"><ele>748.8333333333334</ele><time>2026-04-23T10:49:29.712Z</time></trkpt><trkpt lat="44.6313683" lon="9.3494583"><ele>747.6666666666666</ele><time>2026-04-23T10:49:32.714Z</time></trkpt><trkpt lat="44.63131" lon="9.34937"><ele>746.5</ele><time>2026-04-23T10:49:35.713Z</time></trkpt><trkpt lat="44.6312317" lon="9.34933"><ele>745.3333333333333</ele><time>2026-04-23T10:49:38.715Z</time></trkpt><trkpt lat="44.631155" lon="9.3493033"><ele>744.1666666666666</ele><time>2026-04-23T10:49:41.713Z</time></trkpt><trkpt lat="44.631085" lon="9.3492783"><ele>743.0</ele><time>2026-04-23T10:49:43.713Z</time></trkpt><trkpt lat="44.631015" lon="9.3492"><ele>738.8</ele><time>2026-04-23T10:49:46.713Z</time></trkpt><trkpt lat="44.6309567" lon="9.3490967"><ele>734.5999999999999</ele><time>2026-04-23T10:49:49.713Z</time></trkpt><trkpt lat="44.6309033" lon="9.3490167"><ele>730.4000000000001</ele><time>2026-04-23T10:49:51.712Z</time></trkpt><trkpt lat="44.630835" lon="9.34893"><ele>726.2</ele><time>2026-04-23T10:49:53.712Z</time></trkpt><trkpt lat="44.6307683" lon="9.348815"><ele>722.0</ele><time>2026-04-23T10:49:55.713Z</time></trkpt><trkpt lat="44.63071" lon="9.3487317"><ele>721.2</ele><time>2026-04-23T10:49:57.714Z</time></trkpt><trkpt lat="44.6306483" lon="9.348665"><ele>720.4000000000001</ele><time>2026-04-23T10:49:59.713Z</time></trkpt><trkpt lat="44.6305683" lon="9.3486017"><ele>719.5999999999999</ele><time>2026-04-23T10:50:01.714Z</time></trkpt><trkpt lat="44.6304617" lon="9.3485267"><ele>718.8</ele><time>2026-04-23T10:50:03.713Z</time></trkpt><trkpt lat="44.6303833" lon="9.3484433"><ele>718.0</ele><time>2026-04-23T10:50:05.715Z</time></trkpt><trkpt lat="44.6303433" lon="9.3483217"><ele>718.0</ele><time>2026-04-23T10:50:07.713Z</time></trkpt><trkpt lat="44.63031" lon="9.3481667"><ele>718.0</ele><time>2026-04-23T10:50:09.713Z</time></trkpt><trkpt lat="44.6302633" lon="9.34804"><ele>718.0</ele><time>2026-04-23T10:50:11.713Z</time></trkpt><trkpt lat="44.6302217" lon="9.3479117"><ele>718.0</ele><time>2026-04-23T10:50:13.714Z</time></trkpt><trkpt lat="44.6302017" lon="9.3477933"><ele>718.0</ele><time>2026-04-23T10:50:15.713Z</time></trkpt><trkpt lat="44.6302133" lon="9.34769"><ele>712.6666666666667</ele><time>2026-04-23T10:50:17.713Z</time></trkpt><trkpt lat="44.6302067" lon="9.3475933"><ele>707.3333333333334</ele><time>2026-04-23T10:50:19.713Z</time></trkpt><trkpt lat="44.6302033" lon="9.3474867"><ele>702.0</ele><time>2026-04-23T10:50:21.714Z</time></trkpt><trkpt lat="44.6301883" lon="9.347375"><ele>696.6666666666666</ele><time>2026-04-23T10:50:23.713Z</time></trkpt><trkpt lat="44.6301933" lon="9.34725"><ele>691.3333333333333</ele><time>2026-04-23T10:50:25.713Z</time></trkpt><trkpt lat="44.6302117" lon="9.3471167"><ele>686.0</ele><time>2026-04-23T10:50:27.713Z</time></trkpt><trkpt lat="44.6301933" lon="9.346985"><ele>682.8</ele><time>2026-04-23T10:50:29.714Z</time></trkpt><trkpt lat="44.63019" lon="9.3468283"><ele>679.5999999999999</ele><time>2026-04-23T10:50:31.714Z</time></trkpt><trkpt lat="44.63022" lon="9.34666"><ele>676.4</ele><time>2026-04-23T10:50:33.714Z</time></trkpt><trkpt lat="44.6302417" lon="9.346575"><ele>673.2</ele><time>2026-04-23T10:50:34.713Z</time></trkpt><trkpt lat="44.6302933" lon="9.3464483"><ele>670.0</ele><time>2026-04-23T10:50:36.713Z</time></trkpt><trkpt lat="44.6303067" lon="9.3463417"><ele>671.2857142857142</ele><time>2026-04-23T10:50:38.713Z</time></trkpt><trkpt lat="44.630315" lon="9.3462133"><ele>672.5714285714286</ele><time>2026-04-23T10:50:40.714Z</time></trkpt><trkpt lat="44.6303567" lon="9.346125"><ele>673.8571428571429</ele><time>2026-04-23T10:50:42.714Z</time></trkpt><trkpt lat="44.6304217" lon="9.3461633"><ele>675.1428571428571</ele><time>2026-04-23T10:50:45.714Z</time></trkpt><trkpt lat="44.63044" lon="9.3462567"><ele>676.4285714285714</ele><time>2026-04-23T10:50:47.713Z</time></trkpt><trkpt lat="44.6305017" lon="9.3462917"><ele>677.7142857142857</ele><time>2026-04-23T10:50:50.715Z</time></trkpt><trkpt lat="44.6305183" lon="9.3461983"><ele>679.0</ele><time>2026-04-23T10:50:52.714Z</time></trkpt><trkpt lat="44.630525" lon="9.346075"><ele>679.0</ele><time>2026-04-23T10:50:54.712Z</time></trkpt><trkpt lat="44.6305517" lon="9.3459383"><ele>679.0</ele><time>2026-04-23T10:50:56.713Z</time></trkpt><trkpt lat="44.6305617" lon="9.3457667"><ele>679.0</ele><time>2026-04-23T10:50:58.713Z</time></trkpt><trkpt lat="44.6305317" lon="9.3456267"><ele>679.0</ele><time>2026-04-23T10:51:00.712Z</time></trkpt><trkpt lat="44.6304583" lon="9.345555"><ele>679.0</ele><time>2026-04-23T10:51:02.712Z</time></trkpt><trkpt lat="44.630355" lon="9.3455517"><ele>674.8000000000001</ele><time>2026-04-23T10:51:04.712Z</time></trkpt><trkpt lat="44.6302617" lon="9.3455483"><ele>670.6</ele><time>2026-04-23T10:51:06.712Z</time></trkpt><trkpt lat="44.6302067" lon="9.345505"><ele>666.4</ele><time>2026-04-23T10:51:08.713Z</time></trkpt><trkpt lat="44.6301133" lon="9.3453983"><ele>662.2</ele><time>2026-04-23T10:52:34.713Z</time></trkpt><trkpt lat="44.630025" lon="9.3453183"><ele>658.0</ele><time>2026-04-23T10:52:36.713Z</time></trkpt><trkpt lat="44.6299667" lon="9.3452017"><ele>655.8333333333334</ele><time>2026-04-23T10:52:38.713Z</time></trkpt><trkpt lat="44.6300083" lon="9.3450833"><ele>653.6666666666667</ele><time>2026-04-23T10:52:40.713Z</time></trkpt><trkpt lat="44.630065" lon="9.344985"><ele>651.5</ele><time>2026-04-23T10:52:42.713Z</time></trkpt><trkpt lat="44.6300517" lon="9.344895"><ele>649.3333333333334</ele><time>2026-04-23T10:52:44.715Z</time></trkpt><trkpt lat="44.62996" lon="9.3448633"><ele>647.1666666666666</ele><time>2026-04-23T10:52:47.714Z</time></trkpt><trkpt lat="44.6298783" lon="9.3449117"><ele>645.0</ele><time>2026-04-23T10:52:49.713Z</time></trkpt><trkpt lat="44.62978" lon="9.3449833"><ele>645.0</ele><time>2026-04-23T10:52:51.713Z</time></trkpt><trkpt lat="44.629665" lon="9.3450267"><ele>645.0</ele><time>2026-04-23T10:52:53.713Z</time></trkpt><trkpt lat="44.6295417" lon="9.345"><ele>645.0</ele><time>2026-04-23T10:52:55.714Z</time></trkpt><trkpt lat="44.6294833" lon="9.3449567"><ele>645.0</ele><time>2026-04-23T10:52:56.714Z</time></trkpt><trkpt lat="44.6294317" lon="9.3449017"><ele>645.0</ele><time>2026-04-23T10:52:57.713Z</time></trkpt><trkpt lat="44.6293783" lon="9.3448317"><ele>645.0</ele><time>2026-04-23T10:52:58.713Z</time></trkpt><trkpt lat="44.6293267" lon="9.3447633"><ele>640.0</ele><time>2026-04-23T10:52:59.713Z</time></trkpt><trkpt lat="44.6292833" lon="9.34469"><ele>635.0</ele><time>2026-04-23T10:53:00.713Z</time></trkpt><trkpt lat="44.629245" lon="9.3446033"><ele>630.0</ele><time>2026-04-23T10:53:01.713Z</time></trkpt><trkpt lat="44.6292133" lon="9.3445083"><ele>625.0</ele><time>2026-04-23T10:53:02.713Z</time></trkpt><trkpt lat="44.6291833" lon="9.3444083"><ele>620.0</ele><time>2026-04-23T10:53:03.719Z</time></trkpt><trkpt lat="44.62916" lon="9.3443033"><ele>615.0</ele><time>2026-04-23T10:53:04.712Z</time></trkpt><trkpt lat="44.6291383" lon="9.3441783"><ele>615.0</ele><time>2026-04-23T10:53:05.713Z</time></trkpt><trkpt lat="44.6291217" lon="9.3440567"><ele>615.0</ele><time>2026-04-23T10:53:06.713Z</time></trkpt><trkpt lat="44.6291067" lon="9.3439317"><ele>615.0</ele><time>2026-04-23T10:53:07.714Z</time></trkpt><trkpt lat="44.6290983" lon="9.343805"><ele>615.0</ele><time>2026-04-23T10:53:08.714Z</time></trkpt><trkpt lat="44.6290883" lon="9.3436767"><ele>615.0</ele><time>2026-04-23T10:53:09.713Z</time></trkpt><trkpt lat="44.62908" lon="9.3435533"><ele>615.0</ele><time>2026-04-23T10:53:10.713Z</time></trkpt><trkpt lat="44.629065" lon="9.3434333"><ele>613.1428571428571</ele><time>2026-04-23T10:53:11.713Z</time></trkpt><trkpt lat="44.629045" lon="9.3433267"><ele>611.2857142857143</ele><time>2026-04-23T10:53:12.713Z</time></trkpt><trkpt lat="44.6290233" lon="9.34323"><ele>609.4285714285714</ele><time>2026-04-23T10:53:13.712Z</time></trkpt><trkpt lat="44.6290067" lon="9.343135"><ele>607.5714285714286</ele><time>2026-04-23T10:53:14.713Z</time></trkpt><trkpt lat="44.628995" lon="9.3430383"><ele>605.7142857142858</ele><time>2026-04-23T10:53:15.713Z</time></trkpt><trkpt lat="44.62898" lon="9.3429417"><ele>603.8571428571429</ele><time>2026-04-23T10:53:16.713Z</time></trkpt><trkpt lat="44.6289617" lon="9.3428533"><ele>602.0</ele><time>2026-04-23T10:53:17.714Z</time></trkpt><trkpt lat="44.6289383" lon="9.3427533"><ele>600.6666666666666</ele><time>2026-04-23T10:53:18.713Z</time></trkpt><trkpt lat="44.628915" lon="9.3426533"><ele>599.3333333333333</ele><time>2026-04-23T10:53:19.713Z</time></trkpt><trkpt lat="44.6288883" lon="9.342555"><ele>598.0</ele><time>2026-04-23T10:53:20.715Z</time></trkpt><trkpt lat="44.6288617" lon="9.3424567"><ele>596.6666666666666</ele><time>2026-04-23T10:53:21.713Z</time></trkpt><trkpt lat="44.6288333" lon="9.3423583"><ele>595.3333333333334</ele><time>2026-04-23T10:53:22.713Z</time></trkpt><trkpt lat="44.62881" lon="9.3422483"><ele>594.0</ele><time>2026-04-23T10:53:23.714Z</time></trkpt><trkpt lat="44.6287917" lon="9.3421217"><ele>592.8</ele><time>2026-04-23T10:53:24.713Z</time></trkpt><trkpt lat="44.6287733" lon="9.3419867"><ele>591.5999999999999</ele><time>2026-04-23T10:53:25.713Z</time></trkpt><trkpt lat="44.6287517" lon="9.3418383"><ele>590.4</ele><time>2026-04-23T10:53:26.715Z</time></trkpt><trkpt lat="44.62873" lon="9.3416917"><ele>589.1999999999999</ele><time>2026-04-23T10:53:27.713Z</time></trkpt><trkpt lat="44.6287117" lon="9.34157"><ele>588.0</ele><time>2026-04-23T10:53:28.713Z</time></trkpt><trkpt lat="44.6286883" lon="9.3414717"><ele>586.1999999999999</ele><time>2026-04-23T10:53:29.712Z</time></trkpt><trkpt lat="44.6286467" lon="9.3413167"><ele>584.4</ele><time>2026-04-23T10:53:31.714Z</time></trkpt><trkpt lat="44.6286033" lon="9.341185"><ele>582.5999999999999</ele><time>2026-04-23T10:53:33.712Z</time></trkpt><trkpt lat="44.6285717" lon="9.34106"><ele>580.8</ele><time>2026-04-23T10:53:35.713Z</time></trkpt><trkpt lat="44.6285417" lon="9.3409367"><ele>579.0</ele><time>2026-04-23T10:53:37.713Z</time></trkpt><trkpt lat="44.6285067" lon="9.340775"><ele>577.25</ele><time>2026-04-23T10:53:39.713Z</time></trkpt><trkpt lat="44.6284717" lon="9.3406267"><ele>575.5</ele><time>2026-04-23T10:53:41.714Z</time></trkpt><trkpt lat="44.6284167" lon="9.3404867"><ele>573.75</ele><time>2026-04-23T10:53:43.713Z</time></trkpt><trkpt lat="44.628355" lon="9.3403467"><ele>572.0</ele><time>2026-04-23T10:53:45.712Z</time></trkpt><trkpt lat="44.6282917" lon="9.3402133"><ele>571.0</ele><time>2026-04-23T10:53:47.713Z</time></trkpt><trkpt lat="44.6282583" lon="9.3400767"><ele>570.0</ele><time>2026-04-23T10:53:49.713Z</time></trkpt><trkpt lat="44.62826" lon="9.3399283"><ele>569.0</ele><time>2026-04-23T10:53:51.713Z</time></trkpt><trkpt lat="44.6282483" lon="9.3397633"><ele>568.0</ele><time>2026-04-23T10:53:53.713Z</time></trkpt><trkpt lat="44.6282433" lon="9.3396533"><ele>567.0</ele><time>2026-04-23T10:53:54.714Z</time></trkpt><trkpt lat="44.62824" lon="9.3395333"><ele>565.0</ele><time>2026-04-23T10:53:55.713Z</time></trkpt><trkpt lat="44.6282317" lon="9.3394217"><ele>563.0</ele><time>2026-04-23T10:53:56.713Z</time></trkpt><trkpt lat="44.6282267" lon="9.3393117"><ele>561.0</ele><time>2026-04-23T10:53:57.713Z</time></trkpt><trkpt lat="44.6282183" lon="9.339205"><ele>559.0</ele><time>2026-04-23T10:53:58.714Z</time></trkpt><trkpt lat="44.6282117" lon="9.33911"><ele>557.0</ele><time>2026-04-23T10:53:59.713Z</time></trkpt><trkpt lat="44.6282083" lon="9.3389983"><ele>555.0</ele><time>2026-04-23T10:54:00.713Z</time></trkpt><trkpt lat="44.628215" lon="9.3388883"><ele>553.0000000000001</ele><time>2026-04-23T10:54:01.714Z</time></trkpt><trkpt lat="44.62822" lon="9.3387833"><ele>551.0</ele><time>2026-04-23T10:54:02.715Z</time></trkpt><trkpt lat="44.6282367" lon="9.33869"><ele>549.0</ele><time>2026-04-23T10:54:03.715Z</time></trkpt><trkpt lat="44.6282433" lon="9.3385817"><ele>547.0</ele><time>2026-04-23T10:54:04.714Z</time></trkpt><trkpt lat="44.6282483" lon="9.3384783"><ele>545.0</ele><time>2026-04-23T10:54:05.713Z</time></trkpt><trkpt lat="44.628255" lon="9.3383633"><ele>543.0000000000001</ele><time>2026-04-23T10:54:06.714Z</time></trkpt><trkpt lat="44.628255" lon="9.3382633"><ele>541.0</ele><time>2026-04-23T10:54:07.713Z</time></trkpt><trkpt lat="44.62825" lon="9.3381633"><ele>541.0</ele><time>2026-04-23T10:54:08.713Z</time></trkpt><trkpt lat="44.6282417" lon="9.3380567"><ele>541.0</ele><time>2026-04-23T10:54:09.713Z</time></trkpt><trkpt lat="44.6282317" lon="9.337955"><ele>541.0</ele><time>2026-04-23T10:54:10.713Z</time></trkpt><trkpt lat="44.628215" lon="9.3378017"><ele>541.0</ele><time>2026-04-23T10:54:12.713Z</time></trkpt><trkpt lat="44.6282067" lon="9.337655"><ele>541.0</ele><time>2026-04-23T10:54:14.713Z</time></trkpt><trkpt lat="44.62819" lon="9.3374883"><ele>538.4</ele><time>2026-04-23T10:54:16.714Z</time></trkpt><trkpt lat="44.6281533" lon="9.33732"><ele>535.8</ele><time>2026-04-23T10:54:18.713Z</time></trkpt><trkpt lat="44.6281133" lon="9.3371567"><ele>533.1999999999999</ele><time>2026-04-23T10:54:20.714Z</time></trkpt><trkpt lat="44.628095" lon="9.3370717"><ele>530.6</ele><time>2026-04-23T10:54:21.713Z</time></trkpt><trkpt lat="44.628075" lon="9.33692"><ele>528.0</ele><time>2026-04-23T10:54:23.713Z</time></trkpt><trkpt lat="44.6280917" lon="9.3367883"><ele>525.1999999999999</ele><time>2026-04-23T10:54:25.714Z</time></trkpt><trkpt lat="44.6281567" lon="9.3366783"><ele>522.4</ele><time>2026-04-23T10:54:27.713Z</time></trkpt><trkpt lat="44.6282167" lon="9.3365383"><ele>519.5999999999999</ele><time>2026-04-23T10:54:29.714Z</time></trkpt><trkpt lat="44.6282633" lon="9.336385"><ele>516.8</ele><time>2026-04-23T10:54:31.713Z</time></trkpt><trkpt lat="44.6282917" lon="9.3362967"><ele>514.0</ele><time>2026-04-23T10:54:32.714Z</time></trkpt><trkpt lat="44.6283233" lon="9.3362"><ele>512.0</ele><time>2026-04-23T10:54:33.712Z</time></trkpt><trkpt lat="44.628355" lon="9.3360933"><ele>510.0</ele><time>2026-04-23T10:54:34.713Z</time></trkpt><trkpt lat="44.6283867" lon="9.3360083"><ele>508.0</ele><time>2026-04-23T10:54:35.714Z</time></trkpt><trkpt lat="44.6284167" lon="9.3359283"><ele>506.0</ele><time>2026-04-23T10:54:36.715Z</time></trkpt><trkpt lat="44.6284183" lon="9.335795"><ele>504.00000000000006</ele><time>2026-04-23T10:54:38.715Z</time></trkpt><trkpt lat="44.6283717" lon="9.3356317"><ele>502.0</ele><time>2026-04-23T10:54:40.714Z</time></trkpt><trkpt lat="44.6283467" lon="9.3355167"><ele>500.6</ele><time>2026-04-23T10:54:41.713Z</time></trkpt><trkpt lat="44.628325" lon="9.3353867"><ele>499.20000000000005</ele><time>2026-04-23T10:54:42.713Z</time></trkpt><trkpt lat="44.6283017" lon="9.33525"><ele>497.8</ele><time>2026-04-23T10:54:43.714Z</time></trkpt><trkpt lat="44.6282817" lon="9.3351333"><ele>496.4</ele><time>2026-04-23T10:54:44.714Z</time></trkpt><trkpt lat="44.6282767" lon="9.3350417"><ele>495.0</ele><time>2026-04-23T10:54:45.713Z</time></trkpt><trkpt lat="44.628265" lon="9.3348933"><ele>495.0</ele><time>2026-04-23T10:54:47.713Z</time></trkpt><trkpt lat="44.6281983" lon="9.3349017"><ele>495.0</ele><time>2026-04-23T10:55:15.713Z</time></trkpt><trkpt lat="44.6280817" lon="9.3348933"><ele>495.0</ele><time>2026-04-23T10:55:17.713Z</time></trkpt><trkpt lat="44.628" lon="9.3349033"><ele>495.0</ele><time>2026-04-23T10:55:18.713Z</time></trkpt><trkpt lat="44.6279183" lon="9.3349133"><ele>495.0</ele><time>2026-04-23T10:55:19.713Z</time></trkpt><trkpt lat="44.6278333" lon="9.334915"><ele>495.0</ele><time>2026-04-23T10:55:20.713Z</time></trkpt><trkpt lat="44.6277383" lon="9.3349067"><ele>496.6</ele><time>2026-04-23T10:55:21.713Z</time></trkpt><trkpt lat="44.6276317" lon="9.3348883"><ele>498.2</ele><time>2026-04-23T10:55:22.714Z</time></trkpt><trkpt lat="44.627525" lon="9.3348583"><ele>499.79999999999995</ele><time>2026-04-23T10:55:23.713Z</time></trkpt><trkpt lat="44.627425" lon="9.334815"><ele>501.4</ele><time>2026-04-23T10:55:24.713Z</time></trkpt><trkpt lat="44.6273233" lon="9.3347667"><ele>503.0</ele><time>2026-04-23T10:55:25.714Z</time></trkpt><trkpt lat="44.627225" lon="9.3347183"><ele>499.2</ele><time>2026-04-23T10:55:26.715Z</time></trkpt><trkpt lat="44.6271283" lon="9.334675"><ele>495.4</ele><time>2026-04-23T10:55:27.712Z</time></trkpt><trkpt lat="44.6270367" lon="9.3346333"><ele>491.59999999999997</ele><time>2026-04-23T10:55:28.713Z</time></trkpt><trkpt lat="44.62694" lon="9.33459"><ele>487.79999999999995</ele><time>2026-04-23T10:55:29.714Z</time></trkpt><trkpt lat="44.6268383" lon="9.3345517"><ele>484.0</ele><time>2026-04-23T10:55:30.714Z</time></trkpt><trkpt lat="44.6267267" lon="9.3345417"><ele>483.0</ele><time>2026-04-23T10:55:31.714Z</time></trkpt><trkpt lat="44.6266033" lon="9.3345633"><ele>482.0</ele><time>2026-04-23T10:55:32.714Z</time></trkpt><trkpt lat="44.6264733" lon="9.3345983"><ele>481.0</ele><time>2026-04-23T10:55:33.713Z</time></trkpt><trkpt lat="44.62634" lon="9.3346383"><ele>480.0</ele><time>2026-04-23T10:55:34.713Z</time></trkpt><trkpt lat="44.6262133" lon="9.3346767"><ele>479.6</ele><time>2026-04-23T10:55:35.713Z</time></trkpt><trkpt lat="44.6260967" lon="9.334715"><ele>479.2</ele><time>2026-04-23T10:55:36.713Z</time></trkpt><trkpt lat="44.625985" lon="9.3347383"><ele>478.79999999999995</ele><time>2026-04-23T10:55:37.714Z</time></trkpt><trkpt lat="44.6258867" lon="9.3347267"><ele>478.4</ele><time>2026-04-23T10:55:38.713Z</time></trkpt><trkpt lat="44.6257967" lon="9.3346783"><ele>478.0</ele><time>2026-04-23T10:55:39.714Z</time></trkpt><trkpt lat="44.625715" lon="9.3346133"><ele>478.0</ele><time>2026-04-23T10:55:40.714Z</time></trkpt><trkpt lat="44.62563" lon="9.3345567"><ele>477.99999999999994</ele><time>2026-04-23T10:55:41.714Z</time></trkpt><trkpt lat="44.6255367" lon="9.334525"><ele>477.99999999999994</ele><time>2026-04-23T10:55:42.713Z</time></trkpt><trkpt lat="44.62543" lon="9.3345183"><ele>478.0</ele><time>2026-04-23T10:55:43.714Z</time></trkpt><trkpt lat="44.625315" lon="9.334525"><ele>478.0</ele><time>2026-04-23T10:55:44.713Z</time></trkpt><trkpt lat="44.6251917" lon="9.3345333"><ele>479.25</ele><time>2026-04-23T10:55:45.715Z</time></trkpt><trkpt lat="44.6250633" lon="9.3345417"><ele>480.5</ele><time>2026-04-23T10:55:46.713Z</time></trkpt><trkpt lat="44.6249333" lon="9.334545"><ele>481.75</ele><time>2026-04-23T10:55:47.714Z</time></trkpt><trkpt lat="44.62481" lon="9.33455"><ele>483.0</ele><time>2026-04-23T10:55:48.714Z</time></trkpt><trkpt lat="44.624695" lon="9.33456"><ele>483.0</ele><time>2026-04-23T10:55:49.714Z</time></trkpt><trkpt lat="44.6245833" lon="9.3345667"><ele>483.0</ele><time>2026-04-23T10:55:50.714Z</time></trkpt><trkpt lat="44.6244683" lon="9.3345667"><ele>483.0</ele><time>2026-04-23T10:55:51.714Z</time></trkpt><trkpt lat="44.6243517" lon="9.3345567"><ele>483.0</ele><time>2026-04-23T10:55:52.713Z</time></trkpt><trkpt lat="44.6242383" lon="9.3345417"><ele>484.0</ele><time>2026-04-23T10:55:53.713Z</time></trkpt><trkpt lat="44.6241283" lon="9.3345267"><ele>484.99999999999994</ele><time>2026-04-23T10:55:54.713Z</time></trkpt><trkpt lat="44.6240267" lon="9.3345017"><ele>485.99999999999994</ele><time>2026-04-23T10:55:55.713Z</time></trkpt><trkpt lat="44.62393" lon="9.3344767"><ele>487.0</ele><time>2026-04-23T10:55:56.715Z</time></trkpt><trkpt lat="44.62384" lon="9.33445"><ele>488.0</ele><time>2026-04-23T10:55:57.714Z</time></trkpt><trkpt lat="44.6237583" lon="9.3344183"><ele>487.99999999999994</ele><time>2026-04-23T10:55:58.714Z</time></trkpt><trkpt lat="44.623685" lon="9.33437"><ele>488.0</ele><time>2026-04-23T10:55:59.713Z</time></trkpt><trkpt lat="44.6236217" lon="9.3343133"><ele>488.0</ele><time>2026-04-23T10:56:00.713Z</time></trkpt><trkpt lat="44.623575" lon="9.3342517"><ele>488.0</ele><time>2026-04-23T10:56:01.714Z</time></trkpt><trkpt lat="44.6235" lon="9.3341333"><ele>487.99999999999994</ele><time>2026-04-23T10:56:03.713Z</time></trkpt><trkpt lat="44.62347" lon="9.3340167"><ele>488.0</ele><time>2026-04-23T10:56:05.714Z</time></trkpt><trkpt lat="44.6234883" lon="9.3338983"><ele>487.3333333333333</ele><time>2026-04-23T10:56:07.714Z</time></trkpt><trkpt lat="44.623515" lon="9.3337767"><ele>486.66666666666663</ele><time>2026-04-23T10:56:09.713Z</time></trkpt><trkpt lat="44.6235033" lon="9.3336683"><ele>486.0</ele><time>2026-04-23T10:56:12.713Z</time></trkpt><trkpt lat="44.623575" lon="9.3337333"><ele>485.33333333333337</ele><time>2026-04-23T10:59:32.716Z</time></trkpt><trkpt lat="44.6236745" lon="9.3337644"><ele>484.6666666666667</ele><time>2026-04-23T11:04:15.778Z</time></trkpt><trkpt lat="44.623592" lon="9.3337634"><ele>484.0</ele><time>2026-04-23T11:21:29.747Z</time></trkpt><trkpt lat="44.6235174" lon="9.3337475"><ele>485.50000000000006</ele><time>2026-04-23T11:21:31.722Z</time></trkpt><trkpt lat="44.6234819" lon="9.3336633"><ele>487.0</ele><time>2026-04-23T11:21:41.714Z</time></trkpt><trkpt lat="44.6234238" lon="9.3336085"><ele>488.5</ele><time>2026-04-23T11:22:41.818Z</time></trkpt><trkpt lat="44.6234831" lon="9.3335711"><ele>490.0</ele><time>2026-04-23T11:25:11.786Z</time></trkpt><trkpt lat="44.6235428" lon="9.3336011"><ele>491.50000000000006</ele><time>2026-04-23T11:31:18.707Z</time></trkpt><trkpt lat="44.623609" lon="9.3337793"><ele>493.0</ele><time>2026-04-23T11:58:39.739Z</time></trkpt><trkpt lat="44.6235399" lon="9.3337334"><ele>493.0</ele><time>2026-04-23T11:58:44.81Z</time></trkpt><trkpt lat="44.6235012" lon="9.3336567"><ele>493.0</ele><time>2026-04-23T11:58:55.731Z</time></trkpt><trkpt lat="44.6235512" lon="9.3335686"><ele>493.0</ele><time>2026-04-23T12:01:33.714Z</time></trkpt><trkpt lat="44.6235685" lon="9.3334808"><ele>493.0</ele><time>2026-04-23T12:01:45.683Z</time></trkpt><trkpt lat="44.6236962" lon="9.3330898"><ele>490.79999999999995</ele><time>2026-04-23T12:01:51.714Z</time></trkpt><trkpt lat="44.6237298" lon="9.3329776"><ele>488.59999999999997</ele><time>2026-04-23T12:01:52.714Z</time></trkpt><trkpt lat="44.6237661" lon="9.3328244"><ele>486.40000000000003</ele><time>2026-04-23T12:01:54.714Z</time></trkpt><trkpt lat="44.623798" lon="9.332688"><ele>484.20000000000005</ele><time>2026-04-23T12:01:56.714Z</time></trkpt><trkpt lat="44.6238113" lon="9.3325522"><ele>482.0</ele><time>2026-04-23T12:01:58.714Z</time></trkpt><trkpt lat="44.6238162" lon="9.3324215"><ele>481.99999999999994</ele><time>2026-04-23T12:02:00.715Z</time></trkpt><trkpt lat="44.6238224" lon="9.3322996"><ele>482.0</ele><time>2026-04-23T12:02:02.713Z</time></trkpt><trkpt lat="44.623851" lon="9.3321563"><ele>482.0</ele><time>2026-04-23T12:02:04.714Z</time></trkpt><trkpt lat="44.6238801" lon="9.3320776"><ele>482.0</ele><time>2026-04-23T12:02:05.714Z</time></trkpt><trkpt lat="44.6239144" lon="9.3319972"><ele>481.99999999999994</ele><time>2026-04-23T12:02:06.714Z</time></trkpt><trkpt lat="44.6239781" lon="9.3318566"><ele>482.0</ele><time>2026-04-23T12:02:08.716Z</time></trkpt><trkpt lat="44.6240336" lon="9.3317394"><ele>481.99999999999994</ele><time>2026-04-23T12:02:10.714Z</time></trkpt><trkpt lat="44.6240617" lon="9.3316267"><ele>482.0</ele><time>2026-04-23T12:02:12.713Z</time></trkpt><trkpt lat="44.62405" lon="9.3315133"><ele>482.0</ele><time>2026-04-23T12:02:15.72Z</time></trkpt><trkpt lat="44.62399" lon="9.331415"><ele>482.0</ele><time>2026-04-23T12:02:17.714Z</time></trkpt><trkpt lat="44.623935" lon="9.33136"><ele>481.99999999999994</ele><time>2026-04-23T12:02:18.715Z</time></trkpt><trkpt lat="44.6238783" lon="9.3313117"><ele>482.0</ele><time>2026-04-23T12:02:19.713Z</time></trkpt><trkpt lat="44.6238183" lon="9.3312733"><ele>481.49999999999994</ele><time>2026-04-23T12:02:20.714Z</time></trkpt><trkpt lat="44.6237567" lon="9.33124"><ele>481.0</ele><time>2026-04-23T12:02:21.718Z</time></trkpt><trkpt lat="44.6236417" lon="9.3311733"><ele>480.5</ele><time>2026-04-23T12:02:23.715Z</time></trkpt><trkpt lat="44.62358" lon="9.3311383"><ele>480.0</ele><time>2026-04-23T12:02:24.714Z</time></trkpt><trkpt lat="44.6235167" lon="9.331105"><ele>479.49999999999994</ele><time>2026-04-23T12:02:25.713Z</time></trkpt><trkpt lat="44.6234533" lon="9.33107"><ele>479.0</ele><time>2026-04-23T12:02:26.714Z</time></trkpt><trkpt lat="44.6233883" lon="9.3310333"><ele>478.8333333333333</ele><time>2026-04-23T12:02:27.714Z</time></trkpt><trkpt lat="44.6233217" lon="9.331"><ele>478.66666666666663</ele><time>2026-04-23T12:02:28.713Z</time></trkpt><trkpt lat="44.623255" lon="9.3309633"><ele>478.5</ele><time>2026-04-23T12:02:29.714Z</time></trkpt><trkpt lat="44.623185" lon="9.3309267"><ele>478.33333333333337</ele><time>2026-04-23T12:02:30.714Z</time></trkpt><trkpt lat="44.62312" lon="9.3308917"><ele>478.1666666666667</ele><time>2026-04-23T12:02:31.714Z</time></trkpt><trkpt lat="44.6230617" lon="9.3308583"><ele>478.0</ele><time>2026-04-23T12:02:32.715Z</time></trkpt><trkpt lat="44.622955" lon="9.33079"><ele>478.00000000000006</ele><time>2026-04-23T12:02:34.714Z</time></trkpt><trkpt lat="44.622895" lon="9.3307483"><ele>478.0</ele><time>2026-04-23T12:02:35.714Z</time></trkpt><trkpt lat="44.6228267" lon="9.3306983"><ele>478.00000000000006</ele><time>2026-04-23T12:02:36.714Z</time></trkpt><trkpt lat="44.622755" lon="9.3306417"><ele>478.00000000000006</ele><time>2026-04-23T12:02:37.714Z</time></trkpt><trkpt lat="44.62269" lon="9.3305883"><ele>478.0</ele><time>2026-04-23T12:02:38.715Z</time></trkpt><trkpt lat="44.6226267" lon="9.3305367"><ele>478.00000000000006</ele><time>2026-04-23T12:02:39.713Z</time></trkpt><trkpt lat="44.6225717" lon="9.3304883"><ele>478.00000000000006</ele><time>2026-04-23T12:02:40.714Z</time></trkpt><trkpt lat="44.622515" lon="9.3304383"><ele>478.83333333333337</ele><time>2026-04-23T12:02:41.714Z</time></trkpt><trkpt lat="44.6224517" lon="9.330375"><ele>479.6666666666667</ele><time>2026-04-23T12:02:42.713Z</time></trkpt><trkpt lat="44.62238" lon="9.3303033"><ele>480.5</ele><time>2026-04-23T12:02:43.713Z</time></trkpt><trkpt lat="44.622315" lon="9.3302333"><ele>481.33333333333337</ele><time>2026-04-23T12:02:44.715Z</time></trkpt><trkpt lat="44.6222567" lon="9.330165"><ele>482.1666666666667</ele><time>2026-04-23T12:02:45.714Z</time></trkpt><trkpt lat="44.6222" lon="9.330095"><ele>483.0</ele><time>2026-04-23T12:02:46.714Z</time></trkpt><trkpt lat="44.6221433" lon="9.3300217"><ele>483.0</ele><time>2026-04-23T12:02:47.714Z</time></trkpt><trkpt lat="44.622085" lon="9.3299433"><ele>483.0</ele><time>2026-04-23T12:02:48.714Z</time></trkpt><trkpt lat="44.6220233" lon="9.3298633"><ele>483.0</ele><time>2026-04-23T12:02:49.714Z</time></trkpt><trkpt lat="44.6219617" lon="9.3297817"><ele>483.0</ele><time>2026-04-23T12:02:50.715Z</time></trkpt><trkpt lat="44.6219033" lon="9.3296983"><ele>483.0</ele><time>2026-04-23T12:02:51.713Z</time></trkpt><trkpt lat="44.6218533" lon="9.3296183"><ele>483.0</ele><time>2026-04-23T12:02:52.714Z</time></trkpt><trkpt lat="44.6218067" lon="9.3295417"><ele>483.59999999999997</ele><time>2026-04-23T12:02:53.714Z</time></trkpt><trkpt lat="44.6217583" lon="9.329395"><ele>484.19999999999993</ele><time>2026-04-23T12:02:55.714Z</time></trkpt><trkpt lat="44.6217917" lon="9.3292667"><ele>484.8</ele><time>2026-04-23T12:02:57.714Z</time></trkpt><trkpt lat="44.6218183" lon="9.32912"><ele>485.4</ele><time>2026-04-23T12:02:59.714Z</time></trkpt><trkpt lat="44.6217583" lon="9.3289717"><ele>486.0</ele><time>2026-04-23T12:03:01.714Z</time></trkpt><trkpt lat="44.621705" lon="9.32891"><ele>486.6666666666667</ele><time>2026-04-23T12:03:02.715Z</time></trkpt><trkpt lat="44.621655" lon="9.32885"><ele>487.33333333333337</ele><time>2026-04-23T12:03:03.714Z</time></trkpt><trkpt lat="44.6216117" lon="9.328735"><ele>488.0</ele><time>2026-04-23T12:03:05.713Z</time></trkpt><trkpt lat="44.62166" lon="9.3286617"><ele>488.6666666666667</ele><time>2026-04-23T12:03:08.715Z</time></trkpt><trkpt lat="44.62177" lon="9.3287133"><ele>489.33333333333337</ele><time>2026-04-23T12:03:10.713Z</time></trkpt><trkpt lat="44.62184" lon="9.328755"><ele>490.0</ele><time>2026-04-23T12:03:11.713Z</time></trkpt><trkpt lat="44.621915" lon="9.32879"><ele>491.8</ele><time>2026-04-23T12:03:12.712Z</time></trkpt><trkpt lat="44.621995" lon="9.3288283"><ele>493.6</ele><time>2026-04-23T12:03:13.715Z</time></trkpt><trkpt lat="44.6220833" lon="9.32887"><ele>495.4</ele><time>2026-04-23T12:03:14.713Z</time></trkpt><trkpt lat="44.6221783" lon="9.3289067"><ele>497.2</ele><time>2026-04-23T12:03:15.712Z</time></trkpt><trkpt lat="44.6222767" lon="9.3289483"><ele>499.0</ele><time>2026-04-23T12:03:16.714Z</time></trkpt><trkpt lat="44.62237" lon="9.3289933"><ele>499.00000000000006</ele><time>2026-04-23T12:03:17.713Z</time></trkpt><trkpt lat="44.62246" lon="9.3290417"><ele>499.0</ele><time>2026-04-23T12:03:18.713Z</time></trkpt><trkpt lat="44.62254" lon="9.329085"><ele>499.0</ele><time>2026-04-23T12:03:19.713Z</time></trkpt><trkpt lat="44.6226117" lon="9.3291133"><ele>499.0</ele><time>2026-04-23T12:03:20.715Z</time></trkpt><trkpt lat="44.622685" lon="9.3291267"><ele>499.00000000000006</ele><time>2026-04-23T12:03:21.713Z</time></trkpt><trkpt lat="44.6227617" lon="9.3291267"><ele>499.0</ele><time>2026-04-23T12:03:22.713Z</time></trkpt><trkpt lat="44.622855" lon="9.3291067"><ele>500.6</ele><time>2026-04-23T12:03:23.715Z</time></trkpt><trkpt lat="44.622955" lon="9.3290817"><ele>502.2</ele><time>2026-04-23T12:03:24.716Z</time></trkpt><trkpt lat="44.6230583" lon="9.3290567"><ele>503.80000000000007</ele><time>2026-04-23T12:03:25.716Z</time></trkpt><trkpt lat="44.623165" lon="9.3290383"><ele>505.40000000000003</ele><time>2026-04-23T12:03:26.716Z</time></trkpt><trkpt lat="44.6232733" lon="9.3290333"><ele>507.0</ele><time>2026-04-23T12:03:27.713Z</time></trkpt><trkpt lat="44.62338" lon="9.329045"><ele>507.0</ele><time>2026-04-23T12:03:28.713Z</time></trkpt><trkpt lat="44.623485" lon="9.32906"><ele>507.00000000000006</ele><time>2026-04-23T12:03:29.713Z</time></trkpt><trkpt lat="44.62358" lon="9.32907"><ele>507.00000000000006</ele><time>2026-04-23T12:03:30.712Z</time></trkpt><trkpt lat="44.623655" lon="9.3290667"><ele>507.0</ele><time>2026-04-23T12:03:31.713Z</time></trkpt><trkpt lat="44.6237167" lon="9.3289867"><ele>507.0</ele><time>2026-04-23T12:03:33.714Z</time></trkpt><trkpt lat="44.6236617" lon="9.32888"><ele>509.8</ele><time>2026-04-23T12:03:35.713Z</time></trkpt><trkpt lat="44.6235933" lon="9.3288133"><ele>512.6</ele><time>2026-04-23T12:03:36.713Z</time></trkpt><trkpt lat="44.6235233" lon="9.32874"><ele>515.4000000000001</ele><time>2026-04-23T12:03:37.713Z</time></trkpt><trkpt lat="44.62345" lon="9.328665"><ele>518.2</ele><time>2026-04-23T12:03:38.714Z</time></trkpt><trkpt lat="44.6233683" lon="9.328605"><ele>521.0</ele><time>2026-04-23T12:03:39.713Z</time></trkpt><trkpt lat="44.6232767" lon="9.3285567"><ele>521.0</ele><time>2026-04-23T12:03:40.714Z</time></trkpt><trkpt lat="44.6231783" lon="9.3285167"><ele>521.0</ele><time>2026-04-23T12:03:41.714Z</time></trkpt><trkpt lat="44.6230717" lon="9.32849"><ele>521.0</ele><time>2026-04-23T12:03:42.714Z</time></trkpt><trkpt lat="44.6229733" lon="9.3284733"><ele>521.0</ele><time>2026-04-23T12:03:43.714Z</time></trkpt><trkpt lat="44.6228917" lon="9.3284567"><ele>521.0</ele><time>2026-04-23T12:03:44.714Z</time></trkpt><trkpt lat="44.622825" lon="9.3284267"><ele>520.6666666666666</ele><time>2026-04-23T12:03:45.714Z</time></trkpt><trkpt lat="44.6227717" lon="9.32837"><ele>520.3333333333333</ele><time>2026-04-23T12:03:46.713Z</time></trkpt><trkpt lat="44.622735" lon="9.3282917"><ele>520.0</ele><time>2026-04-23T12:03:47.712Z</time></trkpt><trkpt lat="44.6227133" lon="9.3281883"><ele>519.6666666666666</ele><time>2026-04-23T12:03:48.713Z</time></trkpt><trkpt lat="44.6227" lon="9.3280667"><ele>519.3333333333334</ele><time>2026-04-23T12:03:49.713Z</time></trkpt><trkpt lat="44.6226867" lon="9.3279317"><ele>519.0</ele><time>2026-04-23T12:03:50.713Z</time></trkpt><trkpt lat="44.6226683" lon="9.3277833"><ele>519.0</ele><time>2026-04-23T12:03:51.714Z</time></trkpt><trkpt lat="44.6226567" lon="9.327635"><ele>519.0</ele><time>2026-04-23T12:03:52.713Z</time></trkpt><trkpt lat="44.62266" lon="9.3275017"><ele>519.0</ele><time>2026-04-23T12:03:53.713Z</time></trkpt><trkpt lat="44.622685" lon="9.3273817"><ele>519.0</ele><time>2026-04-23T12:03:54.713Z</time></trkpt><trkpt lat="44.6227333" lon="9.327275"><ele>519.0</ele><time>2026-04-23T12:03:55.713Z</time></trkpt><trkpt lat="44.622805" lon="9.3271867"><ele>525.2</ele><time>2026-04-23T12:03:56.714Z</time></trkpt><trkpt lat="44.6228883" lon="9.3271133"><ele>531.4</ele><time>2026-04-23T12:03:57.714Z</time></trkpt><trkpt lat="44.62297" lon="9.3270383"><ele>537.6</ele><time>2026-04-23T12:03:58.713Z</time></trkpt><trkpt lat="44.623045" lon="9.3269533"><ele>543.8</ele><time>2026-04-23T12:03:59.713Z</time></trkpt><trkpt lat="44.623115" lon="9.3268683"><ele>550.0</ele><time>2026-04-23T12:04:00.714Z</time></trkpt><trkpt lat="44.623185" lon="9.3268117"><ele>550.0</ele><time>2026-04-23T12:04:01.712Z</time></trkpt><trkpt lat="44.6232517" lon="9.3267983"><ele>550.0</ele><time>2026-04-23T12:04:02.714Z</time></trkpt><trkpt lat="44.6233217" lon="9.32686"><ele>550.0</ele><time>2026-04-23T12:04:03.712Z</time></trkpt><trkpt lat="44.6233983" lon="9.3269367"><ele>550.0</ele><time>2026-04-23T12:04:04.713Z</time></trkpt><trkpt lat="44.6234767" lon="9.32704"><ele>550.0</ele><time>2026-04-23T12:04:05.714Z</time></trkpt><trkpt lat="44.6235583" lon="9.3271383"><ele>550.0</ele><time>2026-04-23T12:04:06.714Z</time></trkpt><trkpt lat="44.62364" lon="9.32722"><ele>550.0</ele><time>2026-04-23T12:04:07.714Z</time></trkpt><trkpt lat="44.62372" lon="9.3272967"><ele>550.0</ele><time>2026-04-23T12:04:08.714Z</time></trkpt><trkpt lat="44.6238" lon="9.327365"><ele>550.0</ele><time>2026-04-23T12:04:09.713Z</time></trkpt><trkpt lat="44.623875" lon="9.327445"><ele>550.0</ele><time>2026-04-23T12:04:10.712Z</time></trkpt><trkpt lat="44.6239433" lon="9.32754"><ele>551.6</ele><time>2026-04-23T12:04:11.713Z</time></trkpt><trkpt lat="44.6240067" lon="9.3276383"><ele>553.2</ele><time>2026-04-23T12:04:12.714Z</time></trkpt><trkpt lat="44.6240667" lon="9.3277183"><ele>554.8</ele><time>2026-04-23T12:04:13.713Z</time></trkpt><trkpt lat="44.6241183" lon="9.3277867"><ele>556.4</ele><time>2026-04-23T12:04:14.714Z</time></trkpt><trkpt lat="44.624215" lon="9.3279117"><ele>558.0</ele><time>2026-04-23T12:04:16.714Z</time></trkpt><trkpt lat="44.6242683" lon="9.32799"><ele>555.1999999999999</ele><time>2026-04-23T12:04:17.713Z</time></trkpt><trkpt lat="44.624315" lon="9.3280783"><ele>552.4</ele><time>2026-04-23T12:04:18.712Z</time></trkpt><trkpt lat="44.6243617" lon="9.32818"><ele>549.5999999999999</ele><time>2026-04-23T12:04:19.713Z</time></trkpt><trkpt lat="44.6244017" lon="9.3282967"><ele>546.8</ele><time>2026-04-23T12:04:20.713Z</time></trkpt><trkpt lat="44.6244433" lon="9.3284217"><ele>544.0</ele><time>2026-04-23T12:04:21.713Z</time></trkpt><trkpt lat="44.6244867" lon="9.3285417"><ele>549.8333333333334</ele><time>2026-04-23T12:04:22.713Z</time></trkpt><trkpt lat="44.6245267" lon="9.328665"><ele>555.6666666666667</ele><time>2026-04-23T12:04:23.715Z</time></trkpt><trkpt lat="44.6245583" lon="9.3287817"><ele>561.5</ele><time>2026-04-23T12:04:24.715Z</time></trkpt><trkpt lat="44.6245833" lon="9.3288917"><ele>567.3333333333334</ele><time>2026-04-23T12:04:25.715Z</time></trkpt><trkpt lat="44.6246067" lon="9.3289817"><ele>573.1666666666666</ele><time>2026-04-23T12:04:26.713Z</time></trkpt><trkpt lat="44.6246617" lon="9.3290767"><ele>579.0</ele><time>2026-04-23T12:04:28.713Z</time></trkpt><trkpt lat="44.6246683" lon="9.32897"><ele>581.4</ele><time>2026-04-23T12:04:30.713Z</time></trkpt><trkpt lat="44.62465" lon="9.3288733"><ele>583.8</ele><time>2026-04-23T12:04:31.713Z</time></trkpt><trkpt lat="44.6246333" lon="9.3287533"><ele>586.2</ele><time>2026-04-23T12:04:32.713Z</time></trkpt><trkpt lat="44.624615" lon="9.3286133"><ele>588.6</ele><time>2026-04-23T12:04:33.713Z</time></trkpt><trkpt lat="44.6245933" lon="9.3284767"><ele>591.0</ele><time>2026-04-23T12:04:34.713Z</time></trkpt><trkpt lat="44.6245767" lon="9.328345"><ele>591.0</ele><time>2026-04-23T12:04:35.713Z</time></trkpt><trkpt lat="44.62456" lon="9.3282167"><ele>591.0</ele><time>2026-04-23T12:04:36.715Z</time></trkpt><trkpt lat="44.624555" lon="9.32809"><ele>591.0</ele><time>2026-04-23T12:04:37.714Z</time></trkpt><trkpt lat="44.6245517" lon="9.3279667"><ele>591.0</ele><time>2026-04-23T12:04:38.714Z</time></trkpt><trkpt lat="44.6245367" lon="9.3278483"><ele>591.0</ele><time>2026-04-23T12:04:39.713Z</time></trkpt><trkpt lat="44.62451" lon="9.3277483"><ele>591.0</ele><time>2026-04-23T12:04:40.714Z</time></trkpt><trkpt lat="44.6244733" lon="9.327665"><ele>588.8333333333334</ele><time>2026-04-23T12:04:41.714Z</time></trkpt><trkpt lat="44.6244117" lon="9.3275517"><ele>586.6666666666666</ele><time>2026-04-23T12:04:43.716Z</time></trkpt><trkpt lat="44.6243917" lon="9.3274533"><ele>584.5</ele><time>2026-04-23T12:04:45.713Z</time></trkpt><trkpt lat="44.624365" lon="9.3272533"><ele>582.3333333333333</ele><time>2026-04-23T12:04:57.712Z</time></trkpt><trkpt lat="44.624385" lon="9.3271633"><ele>580.1666666666666</ele><time>2026-04-23T12:04:59.713Z</time></trkpt><trkpt lat="44.62438" lon="9.327075"><ele>578.0</ele><time>2026-04-23T12:05:01.713Z</time></trkpt><trkpt lat="44.62437" lon="9.3269533"><ele>578.0</ele><time>2026-04-23T12:05:03.713Z</time></trkpt><trkpt lat="44.6243517" lon="9.3268383"><ele>578.0</ele><time>2026-04-23T12:05:05.714Z</time></trkpt><trkpt lat="44.6243233" lon="9.3267533"><ele>578.0</ele><time>2026-04-23T12:05:07.713Z</time></trkpt><trkpt lat="44.6242983" lon="9.3266683"><ele>578.0</ele><time>2026-04-23T12:05:09.714Z</time></trkpt><trkpt lat="44.6242817" lon="9.32654"><ele>578.0</ele><time>2026-04-23T12:05:11.713Z</time></trkpt><trkpt lat="44.6242483" lon="9.326435"><ele>578.0</ele><time>2026-04-23T12:05:13.713Z</time></trkpt><trkpt lat="44.6242183" lon="9.326335"><ele>578.6</ele><time>2026-04-23T12:05:15.713Z</time></trkpt><trkpt lat="44.6241808" lon="9.3262565"><ele>579.1999999999999</ele><time>2026-04-23T12:05:17.77Z</time></trkpt><trkpt lat="44.624203" lon="9.3261537"><ele>579.8</ele><time>2026-04-23T12:05:19.746Z</time></trkpt><trkpt lat="44.6242548" lon="9.3260952"><ele>580.4</ele><time>2026-04-23T12:05:25.778Z</time></trkpt><trkpt lat="44.6243221" lon="9.3260613"><ele>581.0</ele><time>2026-04-23T12:05:48.762Z</time></trkpt><trkpt lat="44.6244815" lon="9.3261693"><ele>583.3333333333333</ele><time>2026-04-23T12:06:26.715Z</time></trkpt><trkpt lat="44.6245283" lon="9.3262335"><ele>585.6666666666666</ele><time>2026-04-23T12:06:27.715Z</time></trkpt><trkpt lat="44.6245722" lon="9.3263431"><ele>588.0</ele><time>2026-04-23T12:06:29.713Z</time></trkpt><trkpt lat="44.6246476" lon="9.326407"><ele>590.3333333333334</ele><time>2026-04-23T12:06:32.715Z</time></trkpt><trkpt lat="44.6247141" lon="9.3264518"><ele>592.6666666666667</ele><time>2026-04-23T12:06:34.714Z</time></trkpt><trkpt lat="44.6248004" lon="9.3265221"><ele>595.0</ele><time>2026-04-23T12:06:37.714Z</time></trkpt><trkpt lat="44.6248398" lon="9.3266412"><ele>597.6</ele><time>2026-04-23T12:06:39.783Z</time></trkpt><trkpt lat="44.6248448" lon="9.3267368"><ele>600.2</ele><time>2026-04-23T12:06:47.704Z</time></trkpt><trkpt lat="44.6248839" lon="9.32684"><ele>602.8</ele><time>2026-04-23T12:06:50.806Z</time></trkpt><trkpt lat="44.6248476" lon="9.3266366"><ele>605.4</ele><time>2026-04-23T12:06:51.742Z</time></trkpt><trkpt lat="44.624952" lon="9.3267238"><ele>608.0</ele><time>2026-04-23T12:06:56.734Z</time></trkpt><trkpt lat="44.624945" lon="9.3268133"><ele>608.0</ele><time>2026-04-23T12:06:58.713Z</time></trkpt><trkpt lat="44.625" lon="9.3268683"><ele>608.0</ele><time>2026-04-23T12:07:02.714Z</time></trkpt><trkpt lat="44.6250633" lon="9.3269567"><ele>608.0</ele><time>2026-04-23T12:07:05.715Z</time></trkpt><trkpt lat="44.6251383" lon="9.3269533"><ele>608.0</ele><time>2026-04-23T12:07:09.714Z</time></trkpt><trkpt lat="44.6252583" lon="9.32695"><ele>608.0</ele><time>2026-04-23T12:07:27.713Z</time></trkpt><trkpt lat="44.6253383" lon="9.32698"><ele>608.0</ele><time>2026-04-23T12:07:32.714Z</time></trkpt><trkpt lat="44.6254217" lon="9.3270183"><ele>612.3333333333333</ele><time>2026-04-23T12:07:35.713Z</time></trkpt><trkpt lat="44.6254883" lon="9.3270583"><ele>616.6666666666666</ele><time>2026-04-23T12:07:37.714Z</time></trkpt><trkpt lat="44.6255767" lon="9.3270533"><ele>621.0</ele><time>2026-04-23T12:07:40.714Z</time></trkpt><trkpt lat="44.6256717" lon="9.3270433"><ele>625.3333333333334</ele><time>2026-04-23T12:07:43.714Z</time></trkpt><trkpt lat="44.62573" lon="9.32708"><ele>629.6666666666667</ele><time>2026-04-23T12:07:45.712Z</time></trkpt><trkpt lat="44.625795" lon="9.3271183"><ele>634.0</ele><time>2026-04-23T12:07:48.715Z</time></trkpt><trkpt lat="44.6258567" lon="9.3271517"><ele>634.0</ele><time>2026-04-23T12:07:50.715Z</time></trkpt><trkpt lat="44.6259383" lon="9.3272183"><ele>634.0</ele><time>2026-04-23T12:07:52.713Z</time></trkpt><trkpt lat="44.6260317" lon="9.3272717"><ele>634.0</ele><time>2026-04-23T12:07:54.714Z</time></trkpt><trkpt lat="44.626125" lon="9.327325"><ele>634.0</ele><time>2026-04-23T12:07:56.715Z</time></trkpt><trkpt lat="44.6262217" lon="9.3273583"><ele>634.0</ele><time>2026-04-23T12:07:58.715Z</time></trkpt><trkpt lat="44.6263333" lon="9.327395"><ele>638.4</ele><time>2026-04-23T12:08:00.714Z</time></trkpt><trkpt lat="44.6264333" lon="9.3273767"><ele>642.8</ele><time>2026-04-23T12:08:02.713Z</time></trkpt><trkpt lat="44.6265333" lon="9.327345"><ele>647.1999999999999</ele><time>2026-04-23T12:08:04.713Z</time></trkpt><trkpt lat="44.6266139" lon="9.3272541"><ele>651.5999999999999</ele><time>2026-04-23T12:08:06.713Z</time></trkpt><trkpt lat="44.6267007" lon="9.3271711"><ele>656.0</ele><time>2026-04-23T12:08:08.714Z</time></trkpt><trkpt lat="44.626764" lon="9.3271357"><ele>656.0</ele><time>2026-04-23T12:08:09.713Z</time></trkpt><trkpt lat="44.6268561" lon="9.3270611"><ele>656.0</ele><time>2026-04-23T12:08:11.713Z</time></trkpt><trkpt lat="44.6269024" lon="9.3269935"><ele>656.0</ele><time>2026-04-23T12:08:12.714Z</time></trkpt><trkpt lat="44.6269529" lon="9.3269288"><ele>656.0</ele><time>2026-04-23T12:08:13.714Z</time></trkpt><trkpt lat="44.6270092" lon="9.3268798"><ele>656.0</ele><time>2026-04-23T12:08:14.714Z</time></trkpt><trkpt lat="44.6271024" lon="9.3268288"><ele>656.0</ele><time>2026-04-23T12:08:16.716Z</time></trkpt><trkpt lat="44.6271978" lon="9.3268106"><ele>656.7142857142857</ele><time>2026-04-23T12:08:18.714Z</time></trkpt><trkpt lat="44.6272602" lon="9.326798"><ele>657.4285714285714</ele><time>2026-04-23T12:08:19.714Z</time></trkpt><trkpt lat="44.6273242" lon="9.3267856"><ele>658.1428571428571</ele><time>2026-04-23T12:08:20.714Z</time></trkpt><trkpt lat="44.6273866" lon="9.3267698"><ele>658.8571428571429</ele><time>2026-04-23T12:08:21.713Z</time></trkpt><trkpt lat="44.6274552" lon="9.3267507"><ele>659.5714285714286</ele><time>2026-04-23T12:08:22.713Z</time></trkpt><trkpt lat="44.6275234" lon="9.3267449"><ele>660.2857142857142</ele><time>2026-04-23T12:08:23.714Z</time></trkpt><trkpt lat="44.6275908" lon="9.3267588"><ele>661.0</ele><time>2026-04-23T12:08:24.714Z</time></trkpt><trkpt lat="44.6276604" lon="9.3267791"><ele>661.0</ele><time>2026-04-23T12:08:25.714Z</time></trkpt><trkpt lat="44.6277357" lon="9.3267997"><ele>661.0</ele><time>2026-04-23T12:08:26.715Z</time></trkpt><trkpt lat="44.627822" lon="9.3268127"><ele>661.0</ele><time>2026-04-23T12:08:27.713Z</time></trkpt><trkpt lat="44.6279163" lon="9.3268271"><ele>661.0</ele><time>2026-04-23T12:08:28.714Z</time></trkpt><trkpt lat="44.6280147" lon="9.3268492"><ele>661.0</ele><time>2026-04-23T12:08:29.714Z</time></trkpt><trkpt lat="44.6281088" lon="9.3268756"><ele>661.0</ele><time>2026-04-23T12:08:30.713Z</time></trkpt><trkpt lat="44.6281885" lon="9.3269058"><ele>661.0</ele><time>2026-04-23T12:08:31.715Z</time></trkpt><trkpt lat="44.6282592" lon="9.3269248"><ele>661.0</ele><time>2026-04-23T12:08:32.714Z</time></trkpt><trkpt lat="44.6283259" lon="9.3269289"><ele>661.0</ele><time>2026-04-23T12:08:33.713Z</time></trkpt><trkpt lat="44.6283924" lon="9.3269152"><ele>661.0</ele><time>2026-04-23T12:08:34.715Z</time></trkpt><trkpt lat="44.6284598" lon="9.3268861"><ele>661.0</ele><time>2026-04-23T12:08:35.714Z</time></trkpt><trkpt lat="44.6285238" lon="9.3268598"><ele>661.0</ele><time>2026-04-23T12:08:36.713Z</time></trkpt><trkpt lat="44.6285883" lon="9.326845"><ele>661.5</ele><time>2026-04-23T12:08:37.714Z</time></trkpt><trkpt lat="44.6286517" lon="9.326835"><ele>662.0</ele><time>2026-04-23T12:08:38.715Z</time></trkpt><trkpt lat="44.6287367" lon="9.3267417"><ele>662.5</ele><time>2026-04-23T12:08:40.714Z</time></trkpt><trkpt lat="44.62876" lon="9.326645"><ele>663.0</ele><time>2026-04-23T12:08:41.713Z</time></trkpt><trkpt lat="44.62879" lon="9.3265567"><ele>663.5</ele><time>2026-04-23T12:08:42.713Z</time></trkpt><trkpt lat="44.6288467" lon="9.3264267"><ele>664.0</ele><time>2026-04-23T12:08:44.714Z</time></trkpt><trkpt lat="44.6289317" lon="9.326335"><ele>665.4000000000001</ele><time>2026-04-23T12:08:46.714Z</time></trkpt><trkpt lat="44.6289867" lon="9.3262917"><ele>666.8</ele><time>2026-04-23T12:08:47.714Z</time></trkpt><trkpt lat="44.6290933" lon="9.3262333"><ele>668.2</ele><time>2026-04-23T12:08:49.714Z</time></trkpt><trkpt lat="44.6291833" lon="9.32616"><ele>669.5999999999999</ele><time>2026-04-23T12:08:51.713Z</time></trkpt><trkpt lat="44.6292533" lon="9.3260733"><ele>671.0</ele><time>2026-04-23T12:08:53.713Z</time></trkpt><trkpt lat="44.6293067" lon="9.3259667"><ele>671.0</ele><time>2026-04-23T12:09:38.713Z</time></trkpt><trkpt lat="44.629385" lon="9.3258433"><ele>671.0</ele><time>2026-04-23T12:09:40.714Z</time></trkpt><trkpt lat="44.6294233" lon="9.3257683"><ele>671.0</ele><time>2026-04-23T12:09:41.715Z</time></trkpt><trkpt lat="44.629455" lon="9.325665"><ele>671.0</ele><time>2026-04-23T12:09:42.714Z</time></trkpt><trkpt lat="44.6294767" lon="9.3255533"><ele>671.0</ele><time>2026-04-23T12:09:43.714Z</time></trkpt><trkpt lat="44.6294833" lon="9.3254483"><ele>671.0</ele><time>2026-04-23T12:09:44.716Z</time></trkpt><trkpt lat="44.6294983" lon="9.3253533"><ele>671.1666666666666</ele><time>2026-04-23T12:09:45.713Z</time></trkpt><trkpt lat="44.6295233" lon="9.3252567"><ele>671.3333333333333</ele><time>2026-04-23T12:09:46.714Z</time></trkpt><trkpt lat="44.6295517" lon="9.3251533"><ele>671.5</ele><time>2026-04-23T12:09:47.714Z</time></trkpt><trkpt lat="44.6295683" lon="9.3250583"><ele>671.6666666666666</ele><time>2026-04-23T12:09:48.714Z</time></trkpt><trkpt lat="44.62958" lon="9.32497"><ele>671.8333333333334</ele><time>2026-04-23T12:09:49.714Z</time></trkpt><trkpt lat="44.629615" lon="9.324825"><ele>672.0</ele><time>2026-04-23T12:09:51.715Z</time></trkpt><trkpt lat="44.6296333" lon="9.3246983"><ele>676.8</ele><time>2026-04-23T12:09:53.713Z</time></trkpt><trkpt lat="44.6296483" lon="9.3245867"><ele>681.6</ele><time>2026-04-23T12:09:55.715Z</time></trkpt><trkpt lat="44.629705" lon="9.3244833"><ele>686.4</ele><time>2026-04-23T12:10:02.714Z</time></trkpt><trkpt lat="44.629755" lon="9.3243583"><ele>691.1999999999999</ele><time>2026-04-23T12:10:04.714Z</time></trkpt><trkpt lat="44.6297567" lon="9.3241983"><ele>696.0</ele><time>2026-04-23T12:10:06.714Z</time></trkpt><trkpt lat="44.6297633" lon="9.324035"><ele>696.0</ele><time>2026-04-23T12:10:08.715Z</time></trkpt><trkpt lat="44.62979" lon="9.3239283"><ele>696.0</ele><time>2026-04-23T12:10:10.714Z</time></trkpt><trkpt lat="44.6298533" lon="9.323865"><ele>696.0</ele><time>2026-04-23T12:10:12.714Z</time></trkpt><trkpt lat="44.62992" lon="9.3237817"><ele>696.0</ele><time>2026-04-23T12:10:14.715Z</time></trkpt><trkpt lat="44.6300117" lon="9.3236717"><ele>696.0</ele><time>2026-04-23T12:10:16.714Z</time></trkpt><trkpt lat="44.6300917" lon="9.3235483"><ele>696.4</ele><time>2026-04-23T12:10:18.715Z</time></trkpt><trkpt lat="44.6301783" lon="9.3234133"><ele>696.8</ele><time>2026-04-23T12:10:20.715Z</time></trkpt><trkpt lat="44.6302217" lon="9.32334"><ele>697.1999999999999</ele><time>2026-04-23T12:10:21.715Z</time></trkpt><trkpt lat="44.6302633" lon="9.323265"><ele>697.5999999999999</ele><time>2026-04-23T12:10:22.714Z</time></trkpt><trkpt lat="44.630315" lon="9.3231183"><ele>698.0</ele><time>2026-04-23T12:10:24.714Z</time></trkpt><trkpt lat="44.630325" lon="9.3229717"><ele>703.3333333333333</ele><time>2026-04-23T12:10:26.715Z</time></trkpt><trkpt lat="44.6303667" lon="9.32281"><ele>708.6666666666666</ele><time>2026-04-23T12:10:28.714Z</time></trkpt><trkpt lat="44.6303983" lon="9.3227183"><ele>714.0</ele><time>2026-04-23T12:10:29.714Z</time></trkpt><trkpt lat="44.6304417" lon="9.3226317"><ele>719.3333333333334</ele><time>2026-04-23T12:10:30.713Z</time></trkpt><trkpt lat="44.6304866" lon="9.3225415"><ele>724.6666666666667</ele><time>2026-04-23T12:10:31.714Z</time></trkpt><trkpt lat="44.6305324" lon="9.3224415"><ele>730.0</ele><time>2026-04-23T12:10:32.715Z</time></trkpt><trkpt lat="44.6305707" lon="9.3223449"><ele>730.0</ele><time>2026-04-23T12:10:33.714Z</time></trkpt><trkpt lat="44.6306014" lon="9.3222592"><ele>730.0</ele><time>2026-04-23T12:10:34.714Z</time></trkpt><trkpt lat="44.6306358" lon="9.322182"><ele>730.0</ele><time>2026-04-23T12:10:35.714Z</time></trkpt><trkpt lat="44.6306805" lon="9.3221033"><ele>730.0</ele><time>2026-04-23T12:10:36.714Z</time></trkpt><trkpt lat="44.6307414" lon="9.3220248"><ele>730.0</ele><time>2026-04-23T12:10:37.713Z</time></trkpt><trkpt lat="44.6308044" lon="9.3219427"><ele>730.0</ele><time>2026-04-23T12:10:38.716Z</time></trkpt><trkpt lat="44.6308568" lon="9.321854"><ele>733.6666666666667</ele><time>2026-04-23T12:10:39.714Z</time></trkpt><trkpt lat="44.6308947" lon="9.321759"><ele>737.3333333333334</ele><time>2026-04-23T12:10:40.714Z</time></trkpt><trkpt lat="44.6309259" lon="9.321607"><ele>741.0</ele><time>2026-04-23T12:10:42.714Z</time></trkpt><trkpt lat="44.630899" lon="9.3215029"><ele>744.6666666666666</ele><time>2026-04-23T12:10:44.715Z</time></trkpt><trkpt lat="44.630902" lon="9.3213665"><ele>748.3333333333333</ele><time>2026-04-23T12:10:46.715Z</time></trkpt><trkpt lat="44.6309184" lon="9.3212706"><ele>752.0</ele><time>2026-04-23T12:10:47.714Z</time></trkpt><trkpt lat="44.6309374" lon="9.3211733"><ele>753.1666666666666</ele><time>2026-04-23T12:10:48.715Z</time></trkpt><trkpt lat="44.6309621" lon="9.3210788"><ele>754.3333333333333</ele><time>2026-04-23T12:10:49.715Z</time></trkpt><trkpt lat="44.6309902" lon="9.3209859"><ele>755.5</ele><time>2026-04-23T12:10:50.715Z</time></trkpt><trkpt lat="44.63103" lon="9.3208856"><ele>756.6666666666666</ele><time>2026-04-23T12:10:51.714Z</time></trkpt><trkpt lat="44.6310786" lon="9.320775"><ele>757.8333333333334</ele><time>2026-04-23T12:10:52.714Z</time></trkpt><trkpt lat="44.6311312" lon="9.3206661"><ele>759.0</ele><time>2026-04-23T12:10:53.715Z</time></trkpt><trkpt lat="44.6311838" lon="9.320563"><ele>761.0</ele><time>2026-04-23T12:10:54.714Z</time></trkpt><trkpt lat="44.6312232" lon="9.3204677"><ele>763.0</ele><time>2026-04-23T12:10:55.716Z</time></trkpt><trkpt lat="44.6312571" lon="9.3203818"><ele>765.0</ele><time>2026-04-23T12:10:56.715Z</time></trkpt><trkpt lat="44.6312979" lon="9.3202945"><ele>767.0</ele><time>2026-04-23T12:10:57.713Z</time></trkpt><trkpt lat="44.6313545" lon="9.3202066"><ele>769.0</ele><time>2026-04-23T12:10:58.713Z</time></trkpt><trkpt lat="44.6314243" lon="9.3201169"><ele>771.0</ele><time>2026-04-23T12:10:59.713Z</time></trkpt><trkpt lat="44.6314899" lon="9.3200263"><ele>771.0</ele><time>2026-04-23T12:11:00.714Z</time></trkpt><trkpt lat="44.6315456" lon="9.319941"><ele>771.0</ele><time>2026-04-23T12:11:01.714Z</time></trkpt><trkpt lat="44.6315862" lon="9.319858"><ele>771.0</ele><time>2026-04-23T12:11:02.715Z</time></trkpt><trkpt lat="44.6316202" lon="9.319775"><ele>771.0</ele><time>2026-04-23T12:11:03.715Z</time></trkpt><trkpt lat="44.6316569" lon="9.3196978"><ele>771.0</ele><time>2026-04-23T12:11:04.715Z</time></trkpt><trkpt lat="44.6317026" lon="9.3196281"><ele>771.0</ele><time>2026-04-23T12:11:05.714Z</time></trkpt><trkpt lat="44.6317652" lon="9.319569"><ele>771.0</ele><time>2026-04-23T12:11:06.714Z</time></trkpt><trkpt lat="44.6318336" lon="9.3195169"><ele>770.6666666666666</ele><time>2026-04-23T12:11:07.714Z</time></trkpt><trkpt lat="44.6318907" lon="9.319467"><ele>770.3333333333333</ele><time>2026-04-23T12:11:08.716Z</time></trkpt><trkpt lat="44.6319616" lon="9.3193709"><ele>770.0</ele><time>2026-04-23T12:11:10.714Z</time></trkpt><trkpt lat="44.6320177" lon="9.3192473"><ele>769.6666666666666</ele><time>2026-04-23T12:11:12.714Z</time></trkpt><trkpt lat="44.6320316" lon="9.3191516"><ele>769.3333333333333</ele><time>2026-04-23T12:11:14.714Z</time></trkpt><trkpt lat="44.6320208" lon="9.3190347"><ele>769.0</ele><time>2026-04-23T12:11:16.714Z</time></trkpt><trkpt lat="44.632024" lon="9.3188964"><ele>773.6666666666666</ele><time>2026-04-23T12:11:18.714Z</time></trkpt><trkpt lat="44.6320401" lon="9.3188076"><ele>778.3333333333333</ele><time>2026-04-23T12:11:19.714Z</time></trkpt><trkpt lat="44.6320554" lon="9.3187064"><ele>783.0</ele><time>2026-04-23T12:11:20.716Z</time></trkpt><trkpt lat="44.6320713" lon="9.3186029"><ele>787.6666666666667</ele><time>2026-04-23T12:11:21.714Z</time></trkpt><trkpt lat="44.6320806" lon="9.3185079"><ele>792.3333333333334</ele><time>2026-04-23T12:11:22.715Z</time></trkpt><trkpt lat="44.6320752" lon="9.318335"><ele>797.0</ele><time>2026-04-23T12:11:24.714Z</time></trkpt><trkpt lat="44.6320673" lon="9.3182405"><ele>797.0000000000001</ele><time>2026-04-23T12:11:25.713Z</time></trkpt><trkpt lat="44.6320592" lon="9.318145"><ele>797.0</ele><time>2026-04-23T12:11:26.714Z</time></trkpt><trkpt lat="44.6320508" lon="9.318053"><ele>797.0</ele><time>2026-04-23T12:11:27.714Z</time></trkpt><trkpt lat="44.6320188" lon="9.3178999"><ele>797.0</ele><time>2026-04-23T12:11:29.714Z</time></trkpt><trkpt lat="44.6319339" lon="9.3177672"><ele>797.0000000000001</ele><time>2026-04-23T12:11:31.714Z</time></trkpt><trkpt lat="44.631883" lon="9.3177137"><ele>797.0</ele><time>2026-04-23T12:11:32.714Z</time></trkpt><trkpt lat="44.631826" lon="9.3176671"><ele>797.5000000000001</ele><time>2026-04-23T12:11:33.713Z</time></trkpt><trkpt lat="44.6317564" lon="9.3176224"><ele>798.0</ele><time>2026-04-23T12:11:34.714Z</time></trkpt><trkpt lat="44.6316758" lon="9.3175806"><ele>798.5</ele><time>2026-04-23T12:11:35.713Z</time></trkpt><trkpt lat="44.6315921" lon="9.3175469"><ele>799.0</ele><time>2026-04-23T12:11:36.714Z</time></trkpt><trkpt lat="44.6315086" lon="9.3175136"><ele>799.5000000000001</ele><time>2026-04-23T12:11:37.714Z</time></trkpt><trkpt lat="44.631431" lon="9.3174827"><ele>800.0</ele><time>2026-04-23T12:11:38.714Z</time></trkpt><trkpt lat="44.6313608" lon="9.3174471"><ele>800.0</ele><time>2026-04-23T12:11:39.714Z</time></trkpt><trkpt lat="44.6313077" lon="9.317396"><ele>800.0</ele><time>2026-04-23T12:11:40.715Z</time></trkpt><trkpt lat="44.6312624" lon="9.3173266"><ele>800.0</ele><time>2026-04-23T12:11:41.715Z</time></trkpt><trkpt lat="44.6311921" lon="9.3171815"><ele>800.0</ele><time>2026-04-23T12:11:43.713Z</time></trkpt><trkpt lat="44.6311304" lon="9.3170335"><ele>800.0</ele><time>2026-04-23T12:11:45.712Z</time></trkpt><trkpt lat="44.6311062" lon="9.3168485"><ele>800.0</ele><time>2026-04-23T12:11:47.714Z</time></trkpt><trkpt lat="44.6311028" lon="9.316697"><ele>800.0</ele><time>2026-04-23T12:11:48.713Z</time></trkpt><trkpt lat="44.6310888" lon="9.3165527"><ele>800.0</ele><time>2026-04-23T12:11:49.713Z</time></trkpt><trkpt lat="44.6310694" lon="9.3164358"><ele>800.0</ele><time>2026-04-23T12:11:50.715Z</time></trkpt><trkpt lat="44.6310456" lon="9.3163399"><ele>800.0</ele><time>2026-04-23T12:11:51.713Z</time></trkpt><trkpt lat="44.6310057" lon="9.3162145"><ele>802.2</ele><time>2026-04-23T12:11:53.715Z</time></trkpt><trkpt lat="44.631025" lon="9.3160667"><ele>804.4</ele><time>2026-04-23T12:12:23.714Z</time></trkpt><trkpt lat="44.63112" lon="9.3161233"><ele>806.5999999999999</ele><time>2026-04-23T12:12:26.713Z</time></trkpt><trkpt lat="44.6312367" lon="9.31619"><ele>808.8</ele><time>2026-04-23T12:12:28.713Z</time></trkpt><trkpt lat="44.6312967" lon="9.316235"><ele>811.0</ele><time>2026-04-23T12:12:29.714Z</time></trkpt><trkpt lat="44.6314083" lon="9.31633"><ele>812.2857142857142</ele><time>2026-04-23T12:12:31.713Z</time></trkpt><trkpt lat="44.6314783" lon="9.3163717"><ele>813.5714285714287</ele><time>2026-04-23T12:12:32.713Z</time></trkpt><trkpt lat="44.631555" lon="9.3163983"><ele>814.8571428571429</ele><time>2026-04-23T12:12:33.713Z</time></trkpt><trkpt lat="44.6316317" lon="9.316425"><ele>816.1428571428571</ele><time>2026-04-23T12:12:34.713Z</time></trkpt><trkpt lat="44.631695" lon="9.3164517"><ele>817.4285714285713</ele><time>2026-04-23T12:12:35.715Z</time></trkpt><trkpt lat="44.631755" lon="9.3165"><ele>818.7142857142858</ele><time>2026-04-23T12:12:36.715Z</time></trkpt><trkpt lat="44.6318133" lon="9.3165633"><ele>820.0</ele><time>2026-04-23T12:12:37.714Z</time></trkpt><trkpt lat="44.6318683" lon="9.3166267"><ele>819.9999999999999</ele><time>2026-04-23T12:12:38.714Z</time></trkpt><trkpt lat="44.6319333" lon="9.31669"><ele>820.0</ele><time>2026-04-23T12:12:39.713Z</time></trkpt><trkpt lat="44.631995" lon="9.3167517"><ele>820.0</ele><time>2026-04-23T12:12:40.713Z</time></trkpt><trkpt lat="44.6320683" lon="9.3168017"><ele>820.0</ele><time>2026-04-23T12:12:41.716Z</time></trkpt><trkpt lat="44.6321317" lon="9.3168483"><ele>819.9999999999999</ele><time>2026-04-23T12:12:42.713Z</time></trkpt><trkpt lat="44.6322067" lon="9.3168917"><ele>820.0</ele><time>2026-04-23T12:12:43.714Z</time></trkpt><trkpt lat="44.6322917" lon="9.3169433"><ele>822.4999999999999</ele><time>2026-04-23T12:12:44.714Z</time></trkpt><trkpt lat="44.632365" lon="9.3169817"><ele>825.0</ele><time>2026-04-23T12:12:45.713Z</time></trkpt><trkpt lat="44.63244" lon="9.316995"><ele>827.5</ele><time>2026-04-23T12:12:46.714Z</time></trkpt><trkpt lat="44.6325133" lon="9.3169967"><ele>830.0</ele><time>2026-04-23T12:12:47.713Z</time></trkpt><trkpt lat="44.6325917" lon="9.3169833"><ele>832.4999999999999</ele><time>2026-04-23T12:12:48.714Z</time></trkpt><trkpt lat="44.632675" lon="9.3169467"><ele>835.0</ele><time>2026-04-23T12:12:49.713Z</time></trkpt><trkpt lat="44.6327617" lon="9.3168933"><ele>832.4999999999999</ele><time>2026-04-23T12:12:50.715Z</time></trkpt><trkpt lat="44.632845" lon="9.3168133"><ele>830.0</ele><time>2026-04-23T12:12:51.713Z</time></trkpt><trkpt lat="44.6329283" lon="9.316735"><ele>827.5</ele><time>2026-04-23T12:12:52.714Z</time></trkpt><trkpt lat="44.633" lon="9.316675"><ele>825.0</ele><time>2026-04-23T12:12:53.714Z</time></trkpt><trkpt lat="44.6330733" lon="9.3166283"><ele>822.4999999999999</ele><time>2026-04-23T12:12:54.713Z</time></trkpt><trkpt lat="44.6331383" lon="9.3165867"><ele>820.0</ele><time>2026-04-23T12:12:55.714Z</time></trkpt><trkpt lat="44.6332" lon="9.316545"><ele>819.9999999999999</ele><time>2026-04-23T12:12:56.715Z</time></trkpt><trkpt lat="44.6332767" lon="9.3164983"><ele>820.0</ele><time>2026-04-23T12:12:57.714Z</time></trkpt><trkpt lat="44.633345" lon="9.31644"><ele>820.0</ele><time>2026-04-23T12:12:58.713Z</time></trkpt><trkpt lat="44.6334067" lon="9.3163617"><ele>820.0</ele><time>2026-04-23T12:12:59.715Z</time></trkpt><trkpt lat="44.6334467" lon="9.3162933"><ele>819.9999999999999</ele><time>2026-04-23T12:13:00.714Z</time></trkpt><trkpt lat="44.6335283" lon="9.316195"><ele>820.0</ele><time>2026-04-23T12:13:02.713Z</time></trkpt><trkpt lat="44.6336167" lon="9.3161517"><ele>820.3333333333333</ele><time>2026-04-23T12:13:04.714Z</time></trkpt><trkpt lat="44.6336917" lon="9.3161367"><ele>820.6666666666666</ele><time>2026-04-23T12:13:07.713Z</time></trkpt><trkpt lat="44.633755" lon="9.3160717"><ele>821.0</ele><time>2026-04-23T12:13:11.713Z</time></trkpt><trkpt lat="44.6338183" lon="9.316015"><ele>821.3333333333333</ele><time>2026-04-23T12:13:13.713Z</time></trkpt><trkpt lat="44.6338817" lon="9.3159633"><ele>821.6666666666666</ele><time>2026-04-23T12:13:15.713Z</time></trkpt><trkpt lat="44.6339333" lon="9.3159"><ele>822.0</ele><time>2026-04-23T12:13:17.714Z</time></trkpt><trkpt lat="44.6340017" lon="9.315825"><ele>822.0</ele><time>2026-04-23T12:13:19.713Z</time></trkpt><trkpt lat="44.6340683" lon="9.3157667"><ele>822.0</ele><time>2026-04-23T12:13:21.713Z</time></trkpt><trkpt lat="44.6341483" lon="9.31576"><ele>822.0</ele><time>2026-04-23T12:13:23.714Z</time></trkpt><trkpt lat="44.6342467" lon="9.3157617"><ele>822.0</ele><time>2026-04-23T12:13:25.714Z</time></trkpt><trkpt lat="44.6343733" lon="9.3157933"><ele>822.0</ele><time>2026-04-23T12:13:27.714Z</time></trkpt><trkpt lat="44.63451" lon="9.3158617"><ele>821.6</ele><time>2026-04-23T12:13:29.714Z</time></trkpt><trkpt lat="44.6345967" lon="9.3159133"><ele>821.2</ele><time>2026-04-23T12:13:30.714Z</time></trkpt><trkpt lat="44.6347033" lon="9.3159617"><ele>820.8</ele><time>2026-04-23T12:13:31.714Z</time></trkpt><trkpt lat="44.6348" lon="9.315985"><ele>820.4</ele><time>2026-04-23T12:13:32.714Z</time></trkpt><trkpt lat="44.6348917" lon="9.3160083"><ele>820.0</ele><time>2026-04-23T12:13:33.713Z</time></trkpt><trkpt lat="44.6349667" lon="9.3160283"><ele>820.0</ele><time>2026-04-23T12:13:34.714Z</time></trkpt><trkpt lat="44.63505" lon="9.316065"><ele>820.0</ele><time>2026-04-23T12:13:35.714Z</time></trkpt><trkpt lat="44.6351067" lon="9.3161167"><ele>820.0</ele><time>2026-04-23T12:13:36.714Z</time></trkpt><trkpt lat="44.6351617" lon="9.3161733"><ele>820.0</ele><time>2026-04-23T12:13:37.714Z</time></trkpt><trkpt lat="44.6352217" lon="9.3162367"><ele>820.0</ele><time>2026-04-23T12:13:38.713Z</time></trkpt><trkpt lat="44.6352833" lon="9.3163017"><ele>820.0</ele><time>2026-04-23T12:13:39.713Z</time></trkpt><trkpt lat="44.6353417" lon="9.3163567"><ele>820.0</ele><time>2026-04-23T12:13:40.714Z</time></trkpt><trkpt lat="44.6354033" lon="9.316385"><ele>819.8333333333333</ele><time>2026-04-23T12:13:41.713Z</time></trkpt><trkpt lat="44.635475" lon="9.3163917"><ele>819.6666666666666</ele><time>2026-04-23T12:13:42.714Z</time></trkpt><trkpt lat="44.635555" lon="9.316375"><ele>819.5</ele><time>2026-04-23T12:13:43.713Z</time></trkpt><trkpt lat="44.6356267" lon="9.3163517"><ele>819.3333333333333</ele><time>2026-04-23T12:13:44.714Z</time></trkpt><trkpt lat="44.6357033" lon="9.3163383"><ele>819.1666666666666</ele><time>2026-04-23T12:13:45.714Z</time></trkpt><trkpt lat="44.6357833" lon="9.3163517"><ele>819.0</ele><time>2026-04-23T12:13:46.713Z</time></trkpt><trkpt lat="44.6358617" lon="9.3163767"><ele>815.6666666666666</ele><time>2026-04-23T12:13:47.714Z</time></trkpt><trkpt lat="44.6359317" lon="9.3164267"><ele>812.3333333333333</ele><time>2026-04-23T12:13:48.713Z</time></trkpt><trkpt lat="44.635995" lon="9.3164817"><ele>809.0</ele><time>2026-04-23T12:13:49.714Z</time></trkpt><trkpt lat="44.636065" lon="9.3165217"><ele>805.6666666666666</ele><time>2026-04-23T12:13:50.714Z</time></trkpt><trkpt lat="44.63613" lon="9.3165383"><ele>802.3333333333333</ele><time>2026-04-23T12:13:51.713Z</time></trkpt><trkpt lat="44.6362367" lon="9.3165333"><ele>799.0</ele><time>2026-04-23T12:13:53.714Z</time></trkpt><trkpt lat="44.6363367" lon="9.316515"><ele>799.0</ele><time>2026-04-23T12:13:55.713Z</time></trkpt><trkpt lat="44.63645" lon="9.3165067"><ele>799.0</ele><time>2026-04-23T12:13:57.713Z</time></trkpt><trkpt lat="44.63657" lon="9.31651"><ele>799.0</ele><time>2026-04-23T12:13:59.713Z</time></trkpt><trkpt lat="44.6366917" lon="9.3165183"><ele>799.0</ele><time>2026-04-23T12:14:01.715Z</time></trkpt><trkpt lat="44.6367583" lon="9.3165183"><ele>799.0</ele><time>2026-04-23T12:14:02.716Z</time></trkpt><trkpt lat="44.6368233" lon="9.3165133"><ele>798.9999999999999</ele><time>2026-04-23T12:14:03.713Z</time></trkpt><trkpt lat="44.6369067" lon="9.3164917"><ele>799.0</ele><time>2026-04-23T12:14:05.714Z</time></trkpt><trkpt lat="44.6369717" lon="9.3164817"><ele>799.0</ele><time>2026-04-23T12:14:06.713Z</time></trkpt><trkpt lat="44.637055" lon="9.3164767"><ele>799.0</ele><time>2026-04-23T12:14:07.714Z</time></trkpt><trkpt lat="44.63713" lon="9.3164733"><ele>798.9999999999999</ele><time>2026-04-23T12:14:08.715Z</time></trkpt><trkpt lat="44.6372533" lon="9.316465"><ele>799.0</ele><time>2026-04-23T12:14:10.713Z</time></trkpt><trkpt lat="44.637385" lon="9.3163717"><ele>792.4000000000001</ele><time>2026-04-23T12:14:12.713Z</time></trkpt><trkpt lat="44.63747" lon="9.316295"><ele>785.8</ele><time>2026-04-23T12:14:13.714Z</time></trkpt><trkpt lat="44.6375667" lon="9.316235"><ele>779.2</ele><time>2026-04-23T12:14:14.713Z</time></trkpt><trkpt lat="44.6376583" lon="9.3161933"><ele>772.5999999999999</ele><time>2026-04-23T12:14:15.713Z</time></trkpt><trkpt lat="44.6377533" lon="9.3161633"><ele>766.0</ele><time>2026-04-23T12:14:16.713Z</time></trkpt><trkpt lat="44.6378583" lon="9.316145"><ele>764.3333333333334</ele><time>2026-04-23T12:14:17.714Z</time></trkpt><trkpt lat="44.6379517" lon="9.31613"><ele>762.6666666666667</ele><time>2026-04-23T12:14:18.714Z</time></trkpt><trkpt lat="44.6380367" lon="9.3161117"><ele>761.0</ele><time>2026-04-23T12:14:19.713Z</time></trkpt><trkpt lat="44.6381267" lon="9.316075"><ele>759.3333333333334</ele><time>2026-04-23T12:14:20.714Z</time></trkpt><trkpt lat="44.6381833" lon="9.3160017"><ele>757.6666666666666</ele><time>2026-04-23T12:14:21.713Z</time></trkpt><trkpt lat="44.638235" lon="9.3159283"><ele>756.0</ele><time>2026-04-23T12:14:22.714Z</time></trkpt><trkpt lat="44.6382817" lon="9.3158667"><ele>756.0</ele><time>2026-04-23T12:14:23.713Z</time></trkpt><trkpt lat="44.6383833" lon="9.315835"><ele>756.0</ele><time>2026-04-23T12:14:25.713Z</time></trkpt><trkpt lat="44.6384933" lon="9.3158767"><ele>756.0</ele><time>2026-04-23T12:14:27.713Z</time></trkpt><trkpt lat="44.638555" lon="9.3158167"><ele>756.0</ele><time>2026-04-23T12:14:29.713Z</time></trkpt><trkpt lat="44.63858" lon="9.3156667"><ele>756.0</ele><time>2026-04-23T12:14:31.714Z</time></trkpt><trkpt lat="44.63861" lon="9.3154867"><ele>754.6666666666666</ele><time>2026-04-23T12:14:33.714Z</time></trkpt><trkpt lat="44.6386133" lon="9.3153917"><ele>753.3333333333334</ele><time>2026-04-23T12:14:34.713Z</time></trkpt><trkpt lat="44.6386117" lon="9.3152867"><ele>752.0</ele><time>2026-04-23T12:14:35.714Z</time></trkpt><trkpt lat="44.63862" lon="9.3151833"><ele>750.6666666666667</ele><time>2026-04-23T12:14:36.714Z</time></trkpt><trkpt lat="44.6386383" lon="9.3150733"><ele>749.3333333333334</ele><time>2026-04-23T12:14:37.714Z</time></trkpt><trkpt lat="44.6386633" lon="9.3149617"><ele>748.0</ele><time>2026-04-23T12:14:38.713Z</time></trkpt><trkpt lat="44.6386967" lon="9.3148517"><ele>746.8571428571428</ele><time>2026-04-23T12:14:39.712Z</time></trkpt><trkpt lat="44.6387433" lon="9.3147567"><ele>745.7142857142858</ele><time>2026-04-23T12:14:40.713Z</time></trkpt><trkpt lat="44.6387983" lon="9.3146783"><ele>744.5714285714286</ele><time>2026-04-23T12:14:41.713Z</time></trkpt><trkpt lat="44.6388567" lon="9.3146133"><ele>743.4285714285713</ele><time>2026-04-23T12:14:42.713Z</time></trkpt><trkpt lat="44.6389133" lon="9.3145617"><ele>742.2857142857142</ele><time>2026-04-23T12:14:43.712Z</time></trkpt><trkpt lat="44.6389767" lon="9.3145233"><ele>741.1428571428571</ele><time>2026-04-23T12:14:44.714Z</time></trkpt><trkpt lat="44.6390383" lon="9.3145"><ele>740.0</ele><time>2026-04-23T12:14:45.715Z</time></trkpt><trkpt lat="44.6391" lon="9.3144733"><ele>737.5</ele><time>2026-04-23T12:14:46.713Z</time></trkpt><trkpt lat="44.6391583" lon="9.314425"><ele>735.0</ele><time>2026-04-23T12:14:47.715Z</time></trkpt><trkpt lat="44.6392167" lon="9.31438"><ele>732.5</ele><time>2026-04-23T12:14:48.713Z</time></trkpt><trkpt lat="44.6393367" lon="9.3143367"><ele>730.0</ele><time>2026-04-23T12:14:50.715Z</time></trkpt><trkpt lat="44.6394033" lon="9.3143233"><ele>727.5</ele><time>2026-04-23T12:14:51.714Z</time></trkpt><trkpt lat="44.6394667" lon="9.3143233"><ele>725.0</ele><time>2026-04-23T12:14:52.714Z</time></trkpt><trkpt lat="44.63954" lon="9.31435"><ele>722.5</ele><time>2026-04-23T12:14:53.713Z</time></trkpt><trkpt lat="44.639595" lon="9.314395"><ele>720.0</ele><time>2026-04-23T12:14:54.713Z</time></trkpt><trkpt lat="44.6396533" lon="9.31456"><ele>717.5</ele><time>2026-04-23T12:14:56.715Z</time></trkpt><trkpt lat="44.6396833" lon="9.3146683"><ele>715.0</ele><time>2026-04-23T12:14:57.713Z</time></trkpt><trkpt lat="44.6397117" lon="9.31478"><ele>712.5</ele><time>2026-04-23T12:14:58.714Z</time></trkpt><trkpt lat="44.6397467" lon="9.3148817"><ele>710.0</ele><time>2026-04-23T12:14:59.714Z</time></trkpt><trkpt lat="44.6397917" lon="9.3149817"><ele>710.0</ele><time>2026-04-23T12:15:00.713Z</time></trkpt><trkpt lat="44.6398367" lon="9.3150783"><ele>710.0</ele><time>2026-04-23T12:15:01.713Z</time></trkpt><trkpt lat="44.6399167" lon="9.3151817"><ele>710.0</ele><time>2026-04-23T12:15:03.713Z</time></trkpt><trkpt lat="44.639995" lon="9.3151783"><ele>710.0</ele><time>2026-04-23T12:15:05.713Z</time></trkpt><trkpt lat="44.6400617" lon="9.3151483"><ele>710.0</ele><time>2026-04-23T12:15:06.714Z</time></trkpt><trkpt lat="44.640165" lon="9.31507"><ele>710.0</ele><time>2026-04-23T12:15:08.714Z</time></trkpt><trkpt lat="44.6402483" lon="9.3149667"><ele>710.0</ele><time>2026-04-23T12:15:10.714Z</time></trkpt><trkpt lat="44.640315" lon="9.31495"><ele>710.0</ele><time>2026-04-23T12:15:12.715Z</time></trkpt><trkpt lat="44.6403817" lon="9.3150833"><ele>710.0</ele><time>2026-04-23T12:15:14.714Z</time></trkpt><trkpt lat="44.6403817" lon="9.3152067"><ele>710.0</ele><time>2026-04-23T12:15:15.713Z</time></trkpt><trkpt lat="44.640375" lon="9.31532"><ele>704.0</ele><time>2026-04-23T12:15:16.715Z</time></trkpt><trkpt lat="44.6403867" lon="9.315515"><ele>698.0</ele><time>2026-04-23T12:15:18.713Z</time></trkpt><trkpt lat="44.6404017" lon="9.3156317"><ele>692.0</ele><time>2026-04-23T12:15:19.715Z</time></trkpt><trkpt lat="44.64041" lon="9.3157583"><ele>686.0</ele><time>2026-04-23T12:15:20.714Z</time></trkpt><trkpt lat="44.64042" lon="9.31588"><ele>680.0</ele><time>2026-04-23T12:15:21.714Z</time></trkpt><trkpt lat="44.6404267" lon="9.3159783"><ele>678.8333333333333</ele><time>2026-04-23T12:15:22.713Z</time></trkpt><trkpt lat="44.6404383" lon="9.3160683"><ele>677.6666666666666</ele><time>2026-04-23T12:15:23.714Z</time></trkpt><trkpt lat="44.640455" lon="9.3161683"><ele>676.5</ele><time>2026-04-23T12:15:24.713Z</time></trkpt><trkpt lat="44.6404783" lon="9.316275"><ele>675.3333333333334</ele><time>2026-04-23T12:15:25.714Z</time></trkpt><trkpt lat="44.6405217" lon="9.3163717"><ele>674.1666666666667</ele><time>2026-04-23T12:15:26.714Z</time></trkpt><trkpt lat="44.64056" lon="9.31648"><ele>673.0</ele><time>2026-04-23T12:15:27.715Z</time></trkpt><trkpt lat="44.640585" lon="9.3165883"><ele>671.5</ele><time>2026-04-23T12:15:28.713Z</time></trkpt><trkpt lat="44.6406133" lon="9.3166883"><ele>670.0</ele><time>2026-04-23T12:15:29.713Z</time></trkpt><trkpt lat="44.6406433" lon="9.316775"><ele>668.5</ele><time>2026-04-23T12:15:30.713Z</time></trkpt><trkpt lat="44.6407333" lon="9.3168433"><ele>667.0</ele><time>2026-04-23T12:15:32.713Z</time></trkpt><trkpt lat="44.640855" lon="9.316855"><ele>665.5</ele><time>2026-04-23T12:15:34.713Z</time></trkpt><trkpt lat="44.64093" lon="9.31683"><ele>664.0</ele><time>2026-04-23T12:15:35.714Z</time></trkpt><trkpt lat="44.6409933" lon="9.3168267"><ele>664.0</ele><time>2026-04-23T12:15:36.714Z</time></trkpt><trkpt lat="44.64109" lon="9.316885"><ele>664.0</ele><time>2026-04-23T12:15:38.714Z</time></trkpt><trkpt lat="44.6411633" lon="9.3170517"><ele>664.0</ele><time>2026-04-23T12:15:40.714Z</time></trkpt><trkpt lat="44.641205" lon="9.3171467"><ele>664.0</ele><time>2026-04-23T12:15:41.714Z</time></trkpt><trkpt lat="44.64125" lon="9.3172183"><ele>664.0</ele><time>2026-04-23T12:15:42.713Z</time></trkpt><trkpt lat="44.641305" lon="9.3172683"><ele>660.8333333333334</ele><time>2026-04-23T12:15:43.715Z</time></trkpt><trkpt lat="44.641425" lon="9.3172683"><ele>657.6666666666667</ele><time>2026-04-23T12:15:45.714Z</time></trkpt><trkpt lat="44.6414983" lon="9.3172583"><ele>654.5</ele><time>2026-04-23T12:15:46.713Z</time></trkpt><trkpt lat="44.6415633" lon="9.317265"><ele>651.3333333333334</ele><time>2026-04-23T12:15:47.713Z</time></trkpt><trkpt lat="44.641625" lon="9.317285"><ele>648.1666666666666</ele><time>2026-04-23T12:15:48.714Z</time></trkpt><trkpt lat="44.641715" lon="9.3173717"><ele>645.0</ele><time>2026-04-23T12:15:50.714Z</time></trkpt><trkpt lat="44.64176" lon="9.3174383"><ele>645.0</ele><time>2026-04-23T12:15:51.713Z</time></trkpt><trkpt lat="44.6418033" lon="9.3175117"><ele>645.0</ele><time>2026-04-23T12:15:52.713Z</time></trkpt><trkpt lat="44.6418267" lon="9.3176517"><ele>645.0</ele><time>2026-04-23T12:15:54.714Z</time></trkpt><trkpt lat="44.6418433" lon="9.317785"><ele>645.0</ele><time>2026-04-23T12:15:56.714Z</time></trkpt><trkpt lat="44.641875" lon="9.3178983"><ele>645.0</ele><time>2026-04-23T12:15:58.714Z</time></trkpt><trkpt lat="44.6419383" lon="9.3179533"><ele>645.0</ele><time>2026-04-23T12:16:01.714Z</time></trkpt><trkpt lat="44.6420183" lon="9.31797"><ele>642.3333333333334</ele><time>2026-04-23T12:16:21.716Z</time></trkpt><trkpt lat="44.6421067" lon="9.3179717"><ele>639.6666666666666</ele><time>2026-04-23T12:16:23.715Z</time></trkpt><trkpt lat="44.64217" lon="9.3179483"><ele>637.0</ele><time>2026-04-23T12:16:24.714Z</time></trkpt><trkpt lat="44.6422367" lon="9.3178967"><ele>634.3333333333333</ele><time>2026-04-23T12:16:25.716Z</time></trkpt><trkpt lat="44.64231" lon="9.3178433"><ele>631.6666666666666</ele><time>2026-04-23T12:16:26.715Z</time></trkpt><trkpt lat="44.6423933" lon="9.3178067"><ele>629.0</ele><time>2026-04-23T12:16:27.714Z</time></trkpt><trkpt lat="44.64246" lon="9.3177817"><ele>629.0</ele><time>2026-04-23T12:16:28.715Z</time></trkpt><trkpt lat="44.6425317" lon="9.3177767"><ele>629.0</ele><time>2026-04-23T12:16:29.714Z</time></trkpt><trkpt lat="44.6425983" lon="9.317765"><ele>629.0</ele><time>2026-04-23T12:16:30.714Z</time></trkpt><trkpt lat="44.6426733" lon="9.3177417"><ele>629.0</ele><time>2026-04-23T12:16:31.714Z</time></trkpt><trkpt lat="44.6427567" lon="9.317685"><ele>629.0</ele><time>2026-04-23T12:16:32.715Z</time></trkpt><trkpt lat="44.642815" lon="9.317615"><ele>629.0</ele><time>2026-04-23T12:16:33.713Z</time></trkpt><trkpt lat="44.64286" lon="9.31752"><ele>628.2857142857142</ele><time>2026-04-23T12:16:34.713Z</time></trkpt><trkpt lat="44.6428917" lon="9.317415"><ele>627.5714285714287</ele><time>2026-04-23T12:16:35.714Z</time></trkpt><trkpt lat="44.6429267" lon="9.3173117"><ele>626.8571428571429</ele><time>2026-04-23T12:16:36.713Z</time></trkpt><trkpt lat="44.6429683" lon="9.3172167"><ele>626.1428571428571</ele><time>2026-04-23T12:16:37.713Z</time></trkpt><trkpt lat="44.643005" lon="9.3171233"><ele>625.4285714285713</ele><time>2026-04-23T12:16:38.714Z</time></trkpt><trkpt lat="44.64304" lon="9.317045"><ele>624.7142857142858</ele><time>2026-04-23T12:16:39.713Z</time></trkpt><trkpt lat="44.6430783" lon="9.3169717"><ele>624.0</ele><time>2026-04-23T12:16:40.715Z</time></trkpt><trkpt lat="44.6431317" lon="9.3169083"><ele>624.0</ele><time>2026-04-23T12:16:41.715Z</time></trkpt><trkpt lat="44.64319" lon="9.3168333"><ele>624.0</ele><time>2026-04-23T12:16:42.713Z</time></trkpt><trkpt lat="44.6432367" lon="9.3167733"><ele>624.0</ele><time>2026-04-23T12:16:43.715Z</time></trkpt><trkpt lat="44.6432983" lon="9.3166483"><ele>624.0</ele><time>2026-04-23T12:16:45.713Z</time></trkpt><trkpt lat="44.6433417" lon="9.3165567"><ele>624.0</ele><time>2026-04-23T12:16:46.713Z</time></trkpt><trkpt lat="44.6433833" lon="9.31647"><ele>624.0</ele><time>2026-04-23T12:16:47.713Z</time></trkpt><trkpt lat="44.6434417" lon="9.316385"><ele>621.5</ele><time>2026-04-23T12:16:48.713Z</time></trkpt><trkpt lat="44.6434983" lon="9.31629"><ele>619.0</ele><time>2026-04-23T12:16:49.713Z</time></trkpt><trkpt lat="44.6435517" lon="9.3161983"><ele>616.5</ele><time>2026-04-23T12:16:50.715Z</time></trkpt><trkpt lat="44.6436083" lon="9.31612"><ele>614.0</ele><time>2026-04-23T12:16:51.714Z</time></trkpt><trkpt lat="44.6436683" lon="9.31606"><ele>611.5</ele><time>2026-04-23T12:16:52.714Z</time></trkpt><trkpt lat="44.6437317" lon="9.3160117"><ele>609.0</ele><time>2026-04-23T12:16:53.713Z</time></trkpt><trkpt lat="44.6438" lon="9.315985"><ele>607.8333333333334</ele><time>2026-04-23T12:16:54.714Z</time></trkpt><trkpt lat="44.6438783" lon="9.315975"><ele>606.6666666666666</ele><time>2026-04-23T12:16:55.714Z</time></trkpt><trkpt lat="44.6439583" lon="9.3159767"><ele>605.5</ele><time>2026-04-23T12:16:56.715Z</time></trkpt><trkpt lat="44.6440383" lon="9.3159683"><ele>604.3333333333333</ele><time>2026-04-23T12:16:57.713Z</time></trkpt><trkpt lat="44.644115" lon="9.3159767"><ele>603.1666666666666</ele><time>2026-04-23T12:16:58.714Z</time></trkpt><trkpt lat="44.6441967" lon="9.3159833"><ele>602.0</ele><time>2026-04-23T12:16:59.715Z</time></trkpt><trkpt lat="44.6442733" lon="9.3159783"><ele>602.0</ele><time>2026-04-23T12:17:00.713Z</time></trkpt><trkpt lat="44.6443533" lon="9.3159767"><ele>602.0</ele><time>2026-04-23T12:17:01.715Z</time></trkpt><trkpt lat="44.6444383" lon="9.315985"><ele>602.0</ele><time>2026-04-23T12:17:02.714Z</time></trkpt><trkpt lat="44.64452" lon="9.315995"><ele>602.0</ele><time>2026-04-23T12:17:03.715Z</time></trkpt><trkpt lat="44.644595" lon="9.316005"><ele>602.0</ele><time>2026-04-23T12:17:04.715Z</time></trkpt><trkpt lat="44.6446767" lon="9.3160167"><ele>602.0</ele><time>2026-04-23T12:17:05.714Z</time></trkpt><trkpt lat="44.6447517" lon="9.3160283"><ele>600.6666666666666</ele><time>2026-04-23T12:17:06.716Z</time></trkpt><trkpt lat="44.644835" lon="9.3160367"><ele>599.3333333333333</ele><time>2026-04-23T12:17:07.713Z</time></trkpt><trkpt lat="44.6449133" lon="9.316045"><ele>598.0</ele><time>2026-04-23T12:17:08.713Z</time></trkpt><trkpt lat="44.6449883" lon="9.31605"><ele>596.6666666666666</ele><time>2026-04-23T12:17:09.713Z</time></trkpt><trkpt lat="44.6450667" lon="9.316035"><ele>595.3333333333334</ele><time>2026-04-23T12:17:10.714Z</time></trkpt><trkpt lat="44.645155" lon="9.316025"><ele>594.0</ele><time>2026-04-23T12:17:11.713Z</time></trkpt><trkpt lat="44.6452317" lon="9.3160183"><ele>592.8333333333334</ele><time>2026-04-23T12:17:12.714Z</time></trkpt><trkpt lat="44.6453083" lon="9.3160233"><ele>591.6666666666666</ele><time>2026-04-23T12:17:13.716Z</time></trkpt><trkpt lat="44.6453817" lon="9.31604"><ele>590.5</ele><time>2026-04-23T12:17:14.714Z</time></trkpt><trkpt lat="44.645455" lon="9.316045"><ele>589.3333333333333</ele><time>2026-04-23T12:17:15.713Z</time></trkpt><trkpt lat="44.645535" lon="9.3160367"><ele>588.1666666666666</ele><time>2026-04-23T12:17:16.713Z</time></trkpt><trkpt lat="44.6456133" lon="9.31602"><ele>587.0</ele><time>2026-04-23T12:17:17.713Z</time></trkpt><trkpt lat="44.645695" lon="9.3160083"><ele>587.0</ele><time>2026-04-23T12:17:18.713Z</time></trkpt><trkpt lat="44.645775" lon="9.31599"><ele>587.0</ele><time>2026-04-23T12:17:19.714Z</time></trkpt><trkpt lat="44.64584" lon="9.3159567"><ele>587.0</ele><time>2026-04-23T12:17:20.714Z</time></trkpt><trkpt lat="44.6458967" lon="9.3159"><ele>587.0</ele><time>2026-04-23T12:17:21.713Z</time></trkpt><trkpt lat="44.6459467" lon="9.3158283"><ele>587.0</ele><time>2026-04-23T12:17:22.713Z</time></trkpt><trkpt lat="44.6459817" lon="9.3157433"><ele>587.0</ele><time>2026-04-23T12:17:23.713Z</time></trkpt><trkpt lat="44.6460167" lon="9.31566"><ele>587.0</ele><time>2026-04-23T12:17:24.714Z</time></trkpt><trkpt lat="44.6460883" lon="9.3155283"><ele>584.0</ele><time>2026-04-23T12:17:26.714Z</time></trkpt><trkpt lat="44.6461567" lon="9.3153967"><ele>581.0</ele><time>2026-04-23T12:17:28.714Z</time></trkpt><trkpt lat="44.646245" lon="9.3153033"><ele>578.0</ele><time>2026-04-23T12:17:30.714Z</time></trkpt><trkpt lat="44.6463783" lon="9.3152667"><ele>575.0</ele><time>2026-04-23T12:17:32.714Z</time></trkpt><trkpt lat="44.64645" lon="9.3152333"><ele>572.0</ele><time>2026-04-23T12:17:33.715Z</time></trkpt><trkpt lat="44.6465217" lon="9.3151883"><ele>572.0</ele><time>2026-04-23T12:17:34.714Z</time></trkpt><trkpt lat="44.6465867" lon="9.3151367"><ele>572.0</ele><time>2026-04-23T12:17:35.713Z</time></trkpt><trkpt lat="44.646645" lon="9.3150867"><ele>572.0</ele><time>2026-04-23T12:17:36.714Z</time></trkpt><trkpt lat="44.646695" lon="9.3150317"><ele>572.0</ele><time>2026-04-23T12:17:37.714Z</time></trkpt><trkpt lat="44.64676" lon="9.314885"><ele>572.0</ele><time>2026-04-23T12:17:39.714Z</time></trkpt><trkpt lat="44.646785" lon="9.3147933"><ele>572.0</ele><time>2026-04-23T12:17:40.713Z</time></trkpt><trkpt lat="44.64682" lon="9.314705"><ele>570.1428571428571</ele><time>2026-04-23T12:17:41.715Z</time></trkpt><trkpt lat="44.6468533" lon="9.31462"><ele>568.2857142857142</ele><time>2026-04-23T12:17:42.713Z</time></trkpt><trkpt lat="44.6468633" lon="9.314525"><ele>566.4285714285714</ele><time>2026-04-23T12:17:43.714Z</time></trkpt><trkpt lat="44.64686" lon="9.3144117"><ele>564.5714285714286</ele><time>2026-04-23T12:17:44.714Z</time></trkpt><trkpt lat="44.646865" lon="9.3142917"><ele>562.7142857142858</ele><time>2026-04-23T12:17:45.713Z</time></trkpt><trkpt lat="44.6468933" lon="9.314195"><ele>560.8571428571429</ele><time>2026-04-23T12:17:46.713Z</time></trkpt><trkpt lat="44.6469383" lon="9.3141267"><ele>559.0</ele><time>2026-04-23T12:17:47.713Z</time></trkpt><trkpt lat="44.647" lon="9.3140833"><ele>557.5</ele><time>2026-04-23T12:17:48.713Z</time></trkpt><trkpt lat="44.647075" lon="9.3140567"><ele>556.0</ele><time>2026-04-23T12:17:49.715Z</time></trkpt><trkpt lat="44.64716" lon="9.3140183"><ele>554.5</ele><time>2026-04-23T12:17:50.716Z</time></trkpt><trkpt lat="44.647245" lon="9.3139717"><ele>553.0</ele><time>2026-04-23T12:17:51.714Z</time></trkpt><trkpt lat="44.64733" lon="9.313925"><ele>551.5</ele><time>2026-04-23T12:17:52.714Z</time></trkpt><trkpt lat="44.6474167" lon="9.3138767"><ele>550.0</ele><time>2026-04-23T12:17:53.714Z</time></trkpt><trkpt lat="44.6475017" lon="9.3138217"><ele>548.0</ele><time>2026-04-23T12:17:54.713Z</time></trkpt><trkpt lat="44.6475733" lon="9.3137617"><ele>546.0</ele><time>2026-04-23T12:17:55.713Z</time></trkpt><trkpt lat="44.647645" lon="9.3137367"><ele>544.0</ele><time>2026-04-23T12:17:56.713Z</time></trkpt><trkpt lat="44.647715" lon="9.3137417"><ele>542.0</ele><time>2026-04-23T12:17:57.714Z</time></trkpt><trkpt lat="44.6478317" lon="9.3137683"><ele>540.0</ele><time>2026-04-23T12:17:59.714Z</time></trkpt><trkpt lat="44.6479183" lon="9.313815"><ele>538.0</ele><time>2026-04-23T12:18:04.714Z</time></trkpt><trkpt lat="44.6479517" lon="9.313895"><ele>532.25</ele><time>2026-04-23T12:18:06.712Z</time></trkpt><trkpt lat="44.6479367" lon="9.3140683"><ele>526.5</ele><time>2026-04-23T12:18:08.714Z</time></trkpt><trkpt lat="44.6479217" lon="9.3141917"><ele>520.75</ele><time>2026-04-23T12:18:09.713Z</time></trkpt><trkpt lat="44.64792" lon="9.3143767"><ele>515.0</ele><time>2026-04-23T12:18:10.715Z</time></trkpt><trkpt lat="44.6479133" lon="9.3145567"><ele>515.0</ele><time>2026-04-23T12:18:11.715Z</time></trkpt><trkpt lat="44.6479133" lon="9.31472"><ele>515.0</ele><time>2026-04-23T12:18:12.714Z</time></trkpt><trkpt lat="44.6479083" lon="9.3148917"><ele>515.0</ele><time>2026-04-23T12:18:13.713Z</time></trkpt><trkpt lat="44.6478967" lon="9.3150433"><ele>515.0</ele><time>2026-04-23T12:18:14.718Z</time></trkpt><trkpt lat="44.64788" lon="9.3151917"><ele>514.4</ele><time>2026-04-23T12:18:15.713Z</time></trkpt><trkpt lat="44.6478633" lon="9.3153383"><ele>513.8</ele><time>2026-04-23T12:18:16.714Z</time></trkpt><trkpt lat="44.6478483" lon="9.3154883"><ele>513.2</ele><time>2026-04-23T12:18:17.715Z</time></trkpt><trkpt lat="44.647835" lon="9.3156217"><ele>512.6</ele><time>2026-04-23T12:18:18.713Z</time></trkpt><trkpt lat="44.6478167" lon="9.31575"><ele>512.0</ele><time>2026-04-23T12:18:19.715Z</time></trkpt><trkpt lat="44.6478017" lon="9.31586"><ele>511.6</ele><time>2026-04-23T12:18:20.714Z</time></trkpt><trkpt lat="44.647795" lon="9.31595"><ele>511.20000000000005</ele><time>2026-04-23T12:18:21.715Z</time></trkpt><trkpt lat="44.64779" lon="9.3160433"><ele>510.8</ele><time>2026-04-23T12:18:22.714Z</time></trkpt><trkpt lat="44.6478467" lon="9.31616"><ele>510.4</ele><time>2026-04-23T12:18:24.714Z</time></trkpt><trkpt lat="44.6479383" lon="9.3162083"><ele>510.0</ele><time>2026-04-23T12:18:26.714Z</time></trkpt><trkpt lat="44.6480633" lon="9.3162017"><ele>510.0</ele><time>2026-04-23T12:18:28.714Z</time></trkpt><trkpt lat="44.64813" lon="9.31619"><ele>510.0</ele><time>2026-04-23T12:18:29.719Z</time></trkpt><trkpt lat="44.6482017" lon="9.3161817"><ele>510.0</ele><time>2026-04-23T12:18:30.715Z</time></trkpt><trkpt lat="44.6482667" lon="9.3161717"><ele>510.0</ele><time>2026-04-23T12:18:31.715Z</time></trkpt><trkpt lat="44.64838" lon="9.3160933"><ele>510.0</ele><time>2026-04-23T12:18:33.713Z</time></trkpt><trkpt lat="44.64842" lon="9.31593"><ele>510.0</ele><time>2026-04-23T12:18:35.713Z</time></trkpt><trkpt lat="44.648415" lon="9.3157833"><ele>510.0</ele><time>2026-04-23T12:18:37.714Z</time></trkpt><trkpt lat="44.6484217" lon="9.3156783"><ele>510.0</ele><time>2026-04-23T12:18:39.714Z</time></trkpt><trkpt lat="44.64842" lon="9.3155767"><ele>510.0</ele><time>2026-04-23T12:18:43.714Z</time></trkpt><trkpt lat="44.6483867" lon="9.3154867"><ele>510.0</ele><time>2026-04-23T12:18:45.714Z</time></trkpt><trkpt lat="44.6483617" lon="9.315325"><ele>510.0</ele><time>2026-04-23T12:18:47.714Z</time></trkpt><trkpt lat="44.648365" lon="9.315225"><ele>510.3333333333333</ele><time>2026-04-23T12:18:48.713Z</time></trkpt><trkpt lat="44.6483733" lon="9.3151233"><ele>510.66666666666663</ele><time>2026-04-23T12:18:49.714Z</time></trkpt><trkpt lat="44.64838" lon="9.3150117"><ele>511.0</ele><time>2026-04-23T12:18:50.713Z</time></trkpt><trkpt lat="44.648375" lon="9.314895"><ele>511.3333333333333</ele><time>2026-04-23T12:18:51.714Z</time></trkpt><trkpt lat="44.6483667" lon="9.31478"><ele>511.66666666666663</ele><time>2026-04-23T12:18:52.714Z</time></trkpt><trkpt lat="44.6483567" lon="9.3146667"><ele>512.0</ele><time>2026-04-23T12:18:53.716Z</time></trkpt><trkpt lat="44.6483517" lon="9.314555"><ele>512.5</ele><time>2026-04-23T12:18:54.714Z</time></trkpt><trkpt lat="44.6483517" lon="9.314455"><ele>513.0</ele><time>2026-04-23T12:18:55.714Z</time></trkpt><trkpt lat="44.64836" lon="9.3143533"><ele>513.5</ele><time>2026-04-23T12:18:56.714Z</time></trkpt><trkpt lat="44.6483833" lon="9.314245"><ele>514.0</ele><time>2026-04-23T12:18:57.714Z</time></trkpt><trkpt lat="44.6484217" lon="9.3141333"><ele>514.5</ele><time>2026-04-23T12:18:58.714Z</time></trkpt><trkpt lat="44.6484733" lon="9.3140333"><ele>515.0</ele><time>2026-04-23T12:18:59.714Z</time></trkpt><trkpt lat="44.6485333" lon="9.3139517"><ele>517.5</ele><time>2026-04-23T12:19:00.713Z</time></trkpt><trkpt lat="44.6486083" lon="9.3138817"><ele>520.0</ele><time>2026-04-23T12:19:01.716Z</time></trkpt><trkpt lat="44.6486833" lon="9.313825"><ele>522.5</ele><time>2026-04-23T12:19:02.714Z</time></trkpt><trkpt lat="44.648755" lon="9.3137717"><ele>525.0</ele><time>2026-04-23T12:19:03.714Z</time></trkpt><trkpt lat="44.6488217" lon="9.3137133"><ele>527.5</ele><time>2026-04-23T12:19:04.716Z</time></trkpt><trkpt lat="44.6488683" lon="9.313645"><ele>530.0</ele><time>2026-04-23T12:19:05.714Z</time></trkpt><trkpt lat="44.6488983" lon="9.313555"><ele>525.3333333333333</ele><time>2026-04-23T12:19:06.713Z</time></trkpt><trkpt lat="44.6489083" lon="9.313445"><ele>520.6666666666666</ele><time>2026-04-23T12:19:07.715Z</time></trkpt><trkpt lat="44.6489167" lon="9.31332"><ele>516.0</ele><time>2026-04-23T12:19:08.714Z</time></trkpt><trkpt lat="44.6489417" lon="9.3131967"><ele>511.33333333333337</ele><time>2026-04-23T12:19:09.713Z</time></trkpt><trkpt lat="44.6489883" lon="9.31309"><ele>506.6666666666667</ele><time>2026-04-23T12:19:10.715Z</time></trkpt><trkpt lat="44.6490483" lon="9.3129917"><ele>502.0</ele><time>2026-04-23T12:19:11.714Z</time></trkpt><trkpt lat="44.6491167" lon="9.3128983"><ele>502.00000000000006</ele><time>2026-04-23T12:19:12.713Z</time></trkpt><trkpt lat="44.6491767" lon="9.312795"><ele>502.0</ele><time>2026-04-23T12:19:13.716Z</time></trkpt><trkpt lat="44.6492283" lon="9.3126833"><ele>502.0</ele><time>2026-04-23T12:19:14.715Z</time></trkpt><trkpt lat="44.6492633" lon="9.3125733"><ele>502.0</ele><time>2026-04-23T12:19:15.713Z</time></trkpt><trkpt lat="44.649285" lon="9.3124667"><ele>502.00000000000006</ele><time>2026-04-23T12:19:16.714Z</time></trkpt><trkpt lat="44.6492633" lon="9.3123733"><ele>502.0</ele><time>2026-04-23T12:19:17.714Z</time></trkpt><trkpt lat="44.6492167" lon="9.3123067"><ele>502.0</ele><time>2026-04-23T12:19:18.714Z</time></trkpt><trkpt lat="44.6491483" lon="9.3122567"><ele>502.00000000000006</ele><time>2026-04-23T12:19:19.714Z</time></trkpt><trkpt lat="44.64907" lon="9.31219"><ele>502.00000000000006</ele><time>2026-04-23T12:19:20.715Z</time></trkpt><trkpt lat="44.64899" lon="9.3121167"><ele>502.0</ele><time>2026-04-23T12:19:21.714Z</time></trkpt><trkpt lat="44.6489017" lon="9.31203"><ele>502.0</ele><time>2026-04-23T12:19:22.714Z</time></trkpt><trkpt lat="44.6488217" lon="9.31193"><ele>500.0</ele><time>2026-04-23T12:19:23.713Z</time></trkpt><trkpt lat="44.6487567" lon="9.3118117"><ele>498.00000000000006</ele><time>2026-04-23T12:19:24.713Z</time></trkpt><trkpt lat="44.6487067" lon="9.3116933"><ele>496.00000000000006</ele><time>2026-04-23T12:19:25.713Z</time></trkpt><trkpt lat="44.6486867" lon="9.3115567"><ele>494.0</ele><time>2026-04-23T12:19:26.716Z</time></trkpt><trkpt lat="44.6487083" lon="9.311425"><ele>492.0</ele><time>2026-04-23T12:19:27.714Z</time></trkpt><trkpt lat="44.6487417" lon="9.3113033"><ele>492.6666666666667</ele><time>2026-04-23T12:19:28.714Z</time></trkpt><trkpt lat="44.6487683" lon="9.3111883"><ele>493.33333333333337</ele><time>2026-04-23T12:19:29.715Z</time></trkpt><trkpt lat="44.6487733" lon="9.3110817"><ele>494.0</ele><time>2026-04-23T12:19:30.713Z</time></trkpt><trkpt lat="44.6487267" lon="9.3110133"><ele>494.6666666666667</ele><time>2026-04-23T12:19:31.715Z</time></trkpt><trkpt lat="44.64867" lon="9.310965"><ele>495.33333333333337</ele><time>2026-04-23T12:19:32.715Z</time></trkpt><trkpt lat="44.6485933" lon="9.310985"><ele>496.0</ele><time>2026-04-23T12:19:33.714Z</time></trkpt><trkpt lat="44.64851" lon="9.310995"><ele>496.0</ele><time>2026-04-23T12:19:34.715Z</time></trkpt><trkpt lat="44.6484383" lon="9.3109633"><ele>496.0</ele><time>2026-04-23T12:19:35.714Z</time></trkpt><trkpt lat="44.6483717" lon="9.3109"><ele>496.0</ele><time>2026-04-23T12:19:36.715Z</time></trkpt><trkpt lat="44.6483367" lon="9.3108"><ele>496.0</ele><time>2026-04-23T12:19:37.715Z</time></trkpt><trkpt lat="44.648325" lon="9.3106617"><ele>496.0</ele><time>2026-04-23T12:19:38.715Z</time></trkpt><trkpt lat="44.6483317" lon="9.3104733"><ele>493.0</ele><time>2026-04-23T12:19:39.713Z</time></trkpt><trkpt lat="44.64833" lon="9.3102867"><ele>490.0</ele><time>2026-04-23T12:19:40.713Z</time></trkpt><trkpt lat="44.6483183" lon="9.310115"><ele>487.0</ele><time>2026-04-23T12:19:41.714Z</time></trkpt><trkpt lat="44.6482867" lon="9.3099683"><ele>484.0</ele><time>2026-04-23T12:19:42.713Z</time></trkpt><trkpt lat="44.6482317" lon="9.30986"><ele>484.0</ele><time>2026-04-23T12:19:43.714Z</time></trkpt><trkpt lat="44.6481483" lon="9.3097983"><ele>484.0</ele><time>2026-04-23T12:19:44.715Z</time></trkpt><trkpt lat="44.6480417" lon="9.3097933"><ele>484.0</ele><time>2026-04-23T12:19:45.713Z</time></trkpt><trkpt lat="44.6479183" lon="9.3098083"><ele>484.0</ele><time>2026-04-23T12:19:46.713Z</time></trkpt><trkpt lat="44.6477983" lon="9.30981"><ele>484.0</ele><time>2026-04-23T12:19:47.714Z</time></trkpt><trkpt lat="44.6476817" lon="9.30979"><ele>482.25</ele><time>2026-04-23T12:19:48.715Z</time></trkpt><trkpt lat="44.6475717" lon="9.3097317"><ele>480.5</ele><time>2026-04-23T12:19:49.713Z</time></trkpt><trkpt lat="44.647465" lon="9.3096283"><ele>478.75</ele><time>2026-04-23T12:19:50.714Z</time></trkpt><trkpt lat="44.64736" lon="9.30951"><ele>477.0</ele><time>2026-04-23T12:19:51.713Z</time></trkpt><trkpt lat="44.6472533" lon="9.3093867"><ele>477.0</ele><time>2026-04-23T12:19:52.714Z</time></trkpt><trkpt lat="44.647145" lon="9.3092567"><ele>477.0</ele><time>2026-04-23T12:19:53.714Z</time></trkpt><trkpt lat="44.6470217" lon="9.30912"><ele>477.0</ele><time>2026-04-23T12:19:54.713Z</time></trkpt><trkpt lat="44.6469" lon="9.3089833"><ele>475.75</ele><time>2026-04-23T12:19:55.713Z</time></trkpt><trkpt lat="44.6467817" lon="9.3088467"><ele>474.5</ele><time>2026-04-23T12:19:56.714Z</time></trkpt><trkpt lat="44.6466617" lon="9.3087117"><ele>473.25</ele><time>2026-04-23T12:19:57.714Z</time></trkpt><trkpt lat="44.6465517" lon="9.3085883"><ele>472.0</ele><time>2026-04-23T12:19:58.713Z</time></trkpt><trkpt lat="44.6464417" lon="9.30848"><ele>472.0</ele><time>2026-04-23T12:19:59.713Z</time></trkpt><trkpt lat="44.6463433" lon="9.3083917"><ele>472.00000000000006</ele><time>2026-04-23T12:20:00.713Z</time></trkpt><trkpt lat="44.646265" lon="9.3083033"><ele>472.00000000000006</ele><time>2026-04-23T12:20:01.713Z</time></trkpt><trkpt lat="44.6462167" lon="9.3081983"><ele>472.0</ele><time>2026-04-23T12:20:02.714Z</time></trkpt><trkpt lat="44.6462" lon="9.308065"><ele>472.0</ele><time>2026-04-23T12:20:03.713Z</time></trkpt><trkpt lat="44.6461983" lon="9.307915"><ele>469.5</ele><time>2026-04-23T12:20:04.715Z</time></trkpt><trkpt lat="44.646205" lon="9.3077467"><ele>467.0</ele><time>2026-04-23T12:20:05.716Z</time></trkpt><trkpt lat="44.6462167" lon="9.3075833"><ele>464.5</ele><time>2026-04-23T12:20:06.713Z</time></trkpt><trkpt lat="44.6462167" lon="9.307425"><ele>462.0</ele><time>2026-04-23T12:20:07.714Z</time></trkpt><trkpt lat="44.646195" lon="9.3072583"><ele>463.5</ele><time>2026-04-23T12:20:08.715Z</time></trkpt><trkpt lat="44.64616" lon="9.3071"><ele>465.0</ele><time>2026-04-23T12:20:09.713Z</time></trkpt><trkpt lat="44.6461233" lon="9.306935"><ele>466.5</ele><time>2026-04-23T12:20:10.713Z</time></trkpt><trkpt lat="44.6460817" lon="9.3067767"><ele>468.0</ele><time>2026-04-23T12:20:11.714Z</time></trkpt><trkpt lat="44.64602" lon="9.3066383"><ele>468.0</ele><time>2026-04-23T12:20:12.713Z</time></trkpt><trkpt lat="44.6459367" lon="9.3065333"><ele>468.0</ele><time>2026-04-23T12:20:13.714Z</time></trkpt><trkpt lat="44.6458317" lon="9.30644"><ele>468.0</ele><time>2026-04-23T12:20:14.714Z</time></trkpt><trkpt lat="44.6457217" lon="9.3063367"><ele>468.0</ele><time>2026-04-23T12:20:15.713Z</time></trkpt><trkpt lat="44.6456117" lon="9.30623"><ele>469.25</ele><time>2026-04-23T12:20:16.714Z</time></trkpt><trkpt lat="44.645505" lon="9.306135"><ele>470.5</ele><time>2026-04-23T12:20:17.713Z</time></trkpt><trkpt lat="44.6453933" lon="9.3060583"><ele>471.75</ele><time>2026-04-23T12:20:18.714Z</time></trkpt><trkpt lat="44.6452667" lon="9.306"><ele>473.0</ele><time>2026-04-23T12:20:19.715Z</time></trkpt><trkpt lat="44.64514" lon="9.3059417"><ele>473.0</ele><time>2026-04-23T12:20:20.714Z</time></trkpt><trkpt lat="44.6450283" lon="9.3058667"><ele>473.0</ele><time>2026-04-23T12:20:21.715Z</time></trkpt><trkpt lat="44.6449383" lon="9.3057633"><ele>473.0</ele><time>2026-04-23T12:20:22.714Z</time></trkpt><trkpt lat="44.6448583" lon="9.3056483"><ele>473.0</ele><time>2026-04-23T12:20:23.714Z</time></trkpt><trkpt lat="44.644785" lon="9.3055267"><ele>468.59999999999997</ele><time>2026-04-23T12:20:24.713Z</time></trkpt><trkpt lat="44.6447267" lon="9.3054033"><ele>464.19999999999993</ele><time>2026-04-23T12:20:25.714Z</time></trkpt><trkpt lat="44.6446883" lon="9.3052767"><ele>459.8</ele><time>2026-04-23T12:20:26.714Z</time></trkpt><trkpt lat="44.6446867" lon="9.3051633"><ele>455.4</ele><time>2026-04-23T12:20:27.714Z</time></trkpt><trkpt lat="44.6447033" lon="9.3050383"><ele>451.0</ele><time>2026-04-23T12:20:28.715Z</time></trkpt><trkpt lat="44.6447417" lon="9.304915"><ele>451.00000000000006</ele><time>2026-04-23T12:20:29.713Z</time></trkpt><trkpt lat="44.64479" lon="9.304795"><ele>451.0</ele><time>2026-04-23T12:20:30.714Z</time></trkpt><trkpt lat="44.6448467" lon="9.3046983"><ele>451.0</ele><time>2026-04-23T12:20:31.714Z</time></trkpt><trkpt lat="44.644905" lon="9.3046367"><ele>451.0</ele><time>2026-04-23T12:20:32.714Z</time></trkpt><trkpt lat="44.6449683" lon="9.30461"><ele>451.00000000000006</ele><time>2026-04-23T12:20:33.713Z</time></trkpt><trkpt lat="44.6450317" lon="9.3046183"><ele>451.0</ele><time>2026-04-23T12:20:34.715Z</time></trkpt><trkpt lat="44.6451267" lon="9.3046317"><ele>453.00000000000006</ele><time>2026-04-23T12:20:36.713Z</time></trkpt><trkpt lat="44.6450933" lon="9.3045183"><ele>455.0</ele><time>2026-04-23T12:20:40.715Z</time></trkpt><trkpt lat="44.645045" lon="9.30445"><ele>457.0</ele><time>2026-04-23T12:20:42.714Z</time></trkpt><trkpt lat="44.6449817" lon="9.3043933"><ele>459.0</ele><time>2026-04-23T12:20:44.713Z</time></trkpt><trkpt lat="44.6449017" lon="9.304335"><ele>461.00000000000006</ele><time>2026-04-23T12:20:46.714Z</time></trkpt><trkpt lat="44.644825" lon="9.3042867"><ele>463.0</ele><time>2026-04-23T12:20:48.713Z</time></trkpt><trkpt lat="44.6447567" lon="9.30421"><ele>463.0</ele><time>2026-04-23T12:20:50.714Z</time></trkpt><trkpt lat="44.6446983" lon="9.30412"><ele>462.99999999999994</ele><time>2026-04-23T12:20:52.714Z</time></trkpt><trkpt lat="44.64464" lon="9.3040183"><ele>462.99999999999994</ele><time>2026-04-23T12:20:54.713Z</time></trkpt><trkpt lat="44.644585" lon="9.3038983"><ele>463.0</ele><time>2026-04-23T12:20:56.714Z</time></trkpt><trkpt lat="44.6445183" lon="9.3037867"><ele>463.0</ele><time>2026-04-23T12:20:58.714Z</time></trkpt><trkpt lat="44.6444933" lon="9.303655"><ele>462.00000000000006</ele><time>2026-04-23T12:21:00.715Z</time></trkpt><trkpt lat="44.6444867" lon="9.3035267"><ele>461.0</ele><time>2026-04-23T12:21:02.715Z</time></trkpt><trkpt lat="44.6444633" lon="9.303385"><ele>460.0</ele><time>2026-04-23T12:21:08.715Z</time></trkpt><trkpt lat="44.644435" lon="9.3032933"><ele>459.0</ele><time>2026-04-23T12:21:11.715Z</time></trkpt><trkpt lat="44.64438" lon="9.303235"><ele>458.00000000000006</ele><time>2026-04-23T12:21:18.715Z</time></trkpt><trkpt lat="44.64431" lon="9.3032"><ele>457.0</ele><time>2026-04-23T12:21:22.714Z</time></trkpt><trkpt lat="44.6442567" lon="9.3031233"><ele>457.50000000000006</ele><time>2026-04-23T12:21:26.715Z</time></trkpt><trkpt lat="44.6442983" lon="9.3030517"><ele>458.0</ele><time>2026-04-23T12:21:30.715Z</time></trkpt><trkpt lat="44.6443667" lon="9.3029833"><ele>458.5</ele><time>2026-04-23T12:21:34.715Z</time></trkpt><trkpt lat="44.644435" lon="9.302895"><ele>459.0</ele><time>2026-04-23T12:21:37.716Z</time></trkpt><trkpt lat="44.64449" lon="9.3028133"><ele>459.50000000000006</ele><time>2026-04-23T12:21:40.714Z</time></trkpt><trkpt lat="44.6445567" lon="9.302735"><ele>460.0</ele><time>2026-04-23T12:21:43.715Z</time></trkpt><trkpt lat="44.6446067" lon="9.30266"><ele>461.50000000000006</ele><time>2026-04-23T12:21:46.715Z</time></trkpt><trkpt lat="44.6446733" lon="9.302585"><ele>463.0</ele><time>2026-04-23T12:21:49.714Z</time></trkpt><trkpt lat="44.64471" lon="9.3025083"><ele>464.5</ele><time>2026-04-23T12:21:51.714Z</time></trkpt><trkpt lat="44.6447317" lon="9.30238"><ele>466.0</ele><time>2026-04-23T12:21:54.715Z</time></trkpt><trkpt lat="44.6447467" lon="9.3022617"><ele>467.50000000000006</ele><time>2026-04-23T12:21:57.715Z</time></trkpt><trkpt lat="44.64473" lon="9.302175"><ele>469.0</ele><time>2026-04-23T12:22:00.716Z</time></trkpt><trkpt lat="44.64472" lon="9.3020783"><ele>469.00000000000006</ele><time>2026-04-23T12:22:03.715Z</time></trkpt><trkpt lat="44.6448183" lon="9.30218"><ele>469.0</ele><time>2026-04-23T12:27:13.714Z</time></trkpt><trkpt lat="44.64488" lon="9.3021583"><ele>469.0</ele><time>2026-04-23T12:27:30.714Z</time></trkpt><trkpt lat="44.6449117" lon="9.3020617"><ele>469.0</ele><time>2026-04-23T12:27:34.715Z</time></trkpt><trkpt lat="44.6449483" lon="9.3019833"><ele>469.00000000000006</ele><time>2026-04-23T12:31:48.714Z</time></trkpt><trkpt lat="44.6449167" lon="9.301895"><ele>469.0</ele><time>2026-04-23T12:31:50.714Z</time></trkpt><trkpt lat="44.644885" lon="9.3017967"><ele>469.00000000000006</ele><time>2026-04-23T12:31:52.714Z</time></trkpt><trkpt lat="44.644855" lon="9.3016833"><ele>469.0</ele><time>2026-04-23T12:31:55.713Z</time></trkpt><trkpt lat="44.64483" lon="9.3015733"><ele>469.0</ele><time>2026-04-23T12:31:57.713Z</time></trkpt><trkpt lat="44.6447967" lon="9.301455"><ele>469.0</ele><time>2026-04-23T12:31:59.715Z</time></trkpt><trkpt lat="44.6448033" lon="9.3013417"><ele>469.00000000000006</ele><time>2026-04-23T12:32:01.714Z</time></trkpt><trkpt lat="44.644815" lon="9.3012517"><ele>469.0</ele><time>2026-04-23T12:32:03.714Z</time></trkpt><trkpt lat="44.6447833" lon="9.30117"><ele>470.2857142857143</ele><time>2026-04-23T12:32:06.714Z</time></trkpt><trkpt lat="44.6447417" lon="9.3010683"><ele>471.57142857142856</ele><time>2026-04-23T12:32:09.713Z</time></trkpt><trkpt lat="44.64471" lon="9.3009867"><ele>472.8571428571429</ele><time>2026-04-23T12:32:12.713Z</time></trkpt><trkpt lat="44.644665" lon="9.3009117"><ele>474.14285714285717</ele><time>2026-04-23T12:32:14.714Z</time></trkpt><trkpt lat="44.6446167" lon="9.300845"><ele>475.42857142857144</ele><time>2026-04-23T12:32:16.714Z</time></trkpt><trkpt lat="44.6445767" lon="9.3007433"><ele>476.7142857142858</ele><time>2026-04-23T12:32:18.713Z</time></trkpt><trkpt lat="44.6445383" lon="9.3006633"><ele>478.00000000000006</ele><time>2026-04-23T12:32:20.714Z</time></trkpt><trkpt lat="44.644485" lon="9.30046"><ele>479.1666666666667</ele><time>2026-04-23T12:35:38.712Z</time></trkpt><trkpt lat="44.64448" lon="9.3003617"><ele>480.33333333333337</ele><time>2026-04-23T12:35:45.713Z</time></trkpt><trkpt lat="44.6445083" lon="9.30018"><ele>481.5</ele><time>2026-04-23T12:39:26.715Z</time></trkpt><trkpt lat="44.6445517" lon="9.3001033"><ele>482.66666666666663</ele><time>2026-04-23T12:39:29.716Z</time></trkpt><trkpt lat="44.64459" lon="9.30002"><ele>483.8333333333333</ele><time>2026-04-23T12:39:33.714Z</time></trkpt><trkpt lat="44.6446417" lon="9.2999533"><ele>485.0</ele><time>2026-04-23T12:39:36.714Z</time></trkpt><trkpt lat="44.64471" lon="9.29991"><ele>484.99999999999994</ele><time>2026-04-23T12:39:38.716Z</time></trkpt><trkpt lat="44.6447933" lon="9.299875"><ele>485.0</ele><time>2026-04-23T12:39:40.714Z</time></trkpt><trkpt lat="44.644865" lon="9.299835"><ele>485.0</ele><time>2026-04-23T12:39:42.714Z</time></trkpt><trkpt lat="44.6449367" lon="9.2997933"><ele>485.0</ele><time>2026-04-23T12:39:44.715Z</time></trkpt><trkpt lat="44.645005" lon="9.299745"><ele>484.99999999999994</ele><time>2026-04-23T12:39:46.714Z</time></trkpt><trkpt lat="44.645065" lon="9.2996933"><ele>485.0</ele><time>2026-04-23T12:39:48.714Z</time></trkpt><trkpt lat="44.6451233" lon="9.2996583"><ele>482.8333333333333</ele><time>2026-04-23T12:39:57.713Z</time></trkpt><trkpt lat="44.645185" lon="9.2996"><ele>480.66666666666663</ele><time>2026-04-23T12:39:59.713Z</time></trkpt><trkpt lat="44.6452667" lon="9.299565"><ele>478.5</ele><time>2026-04-23T12:40:02.714Z</time></trkpt><trkpt lat="44.64531" lon="9.2994967"><ele>476.33333333333337</ele><time>2026-04-23T12:40:06.713Z</time></trkpt><trkpt lat="44.6453733" lon="9.2994133"><ele>474.1666666666667</ele><time>2026-04-23T12:40:09.712Z</time></trkpt><trkpt lat="44.64541" lon="9.2993367"><ele>472.0</ele><time>2026-04-23T12:40:10.718Z</time></trkpt><trkpt lat="44.6454533" lon="9.2992317"><ele>476.50000000000006</ele><time>2026-04-23T12:40:12.712Z</time></trkpt><trkpt lat="44.6455033" lon="9.29911"><ele>481.0</ele><time>2026-04-23T12:40:14.714Z</time></trkpt><trkpt lat="44.645545" lon="9.2990433"><ele>485.5</ele><time>2026-04-23T12:40:16.713Z</time></trkpt><trkpt lat="44.6456" lon="9.2989667"><ele>490.0</ele><time>2026-04-23T12:40:18.713Z</time></trkpt><trkpt lat="44.645655" lon="9.298895"><ele>494.50000000000006</ele><time>2026-04-23T12:40:20.713Z</time></trkpt><trkpt lat="44.6457267" lon="9.2988533"><ele>499.0</ele><time>2026-04-23T12:40:22.713Z</time></trkpt><trkpt lat="44.6458183" lon="9.298805"><ele>499.00000000000006</ele><time>2026-04-23T12:40:25.714Z</time></trkpt><trkpt lat="44.645885" lon="9.2987867"><ele>499.0</ele><time>2026-04-23T12:40:27.714Z</time></trkpt><trkpt lat="44.6459717" lon="9.2987817"><ele>499.0</ele><time>2026-04-23T12:40:30.713Z</time></trkpt><trkpt lat="44.6460333" lon="9.2987467"><ele>499.0</ele><time>2026-04-23T12:40:32.713Z</time></trkpt><trkpt lat="44.64611" lon="9.2986517"><ele>499.00000000000006</ele><time>2026-04-23T12:40:35.714Z</time></trkpt><trkpt lat="44.6461733" lon="9.298605"><ele>499.0</ele><time>2026-04-23T12:40:37.713Z</time></trkpt><trkpt lat="44.64625" lon="9.2985367"><ele>501.57142857142867</ele><time>2026-04-23T12:40:40.713Z</time></trkpt><trkpt lat="44.6462967" lon="9.2984733"><ele>504.14285714285717</ele><time>2026-04-23T12:40:42.714Z</time></trkpt><trkpt lat="44.6463033" lon="9.298385"><ele>506.7142857142858</ele><time>2026-04-23T12:40:44.714Z</time></trkpt><trkpt lat="44.6463083" lon="9.2982967"><ele>509.28571428571433</ele><time>2026-04-23T12:40:46.713Z</time></trkpt><trkpt lat="44.6463383" lon="9.2981817"><ele>511.8571428571429</ele><time>2026-04-23T12:40:49.715Z</time></trkpt><trkpt lat="44.6463683" lon="9.298085"><ele>514.4285714285714</ele><time>2026-04-23T12:40:52.713Z</time></trkpt><trkpt lat="44.646395" lon="9.2979917"><ele>517.0</ele><time>2026-04-23T12:40:54.715Z</time></trkpt><trkpt lat="44.646405" lon="9.2978783"><ele>517.8333333333334</ele><time>2026-04-23T12:40:56.713Z</time></trkpt><trkpt lat="44.6464367" lon="9.29778"><ele>518.6666666666667</ele><time>2026-04-23T12:40:58.714Z</time></trkpt><trkpt lat="44.6464733" lon="9.29769"><ele>519.5</ele><time>2026-04-23T12:41:00.713Z</time></trkpt><trkpt lat="44.64651" lon="9.297615"><ele>520.3333333333334</ele><time>2026-04-23T12:41:02.714Z</time></trkpt><trkpt lat="44.6465833" lon="9.2975367"><ele>521.1666666666666</ele><time>2026-04-23T12:42:51.713Z</time></trkpt><trkpt lat="44.6466667" lon="9.2973983"><ele>522.0</ele><time>2026-04-23T12:42:53.715Z</time></trkpt><trkpt lat="44.64671" lon="9.2973217"><ele>522.0</ele><time>2026-04-23T12:42:54.714Z</time></trkpt><trkpt lat="44.6467617" lon="9.29725"><ele>522.0</ele><time>2026-04-23T12:42:55.714Z</time></trkpt><trkpt lat="44.6468517" lon="9.2971317"><ele>522.0</ele><time>2026-04-23T12:42:57.713Z</time></trkpt><trkpt lat="44.64694" lon="9.2970433"><ele>522.0</ele><time>2026-04-23T12:42:59.713Z</time></trkpt><trkpt lat="44.6470217" lon="9.2969267"><ele>522.0</ele><time>2026-04-23T12:43:01.715Z</time></trkpt><trkpt lat="44.6470933" lon="9.296805"><ele>525.6</ele><time>2026-04-23T12:43:03.714Z</time></trkpt><trkpt lat="44.6471467" lon="9.2967083"><ele>529.2</ele><time>2026-04-23T12:43:05.714Z</time></trkpt><trkpt lat="44.6472033" lon="9.2966317"><ele>532.8</ele><time>2026-04-23T12:43:07.713Z</time></trkpt><trkpt lat="44.6472783" lon="9.2965583"><ele>536.4</ele><time>2026-04-23T12:43:09.713Z</time></trkpt><trkpt lat="44.6473617" lon="9.296525"><ele>540.0</ele><time>2026-04-23T12:43:11.713Z</time></trkpt><trkpt lat="44.6474633" lon="9.29648"><ele>540.0</ele><time>2026-04-23T12:43:13.713Z</time></trkpt><trkpt lat="44.6475267" lon="9.2964417"><ele>540.0</ele><time>2026-04-23T12:43:14.715Z</time></trkpt><trkpt lat="44.6476317" lon="9.2963817"><ele>540.0</ele><time>2026-04-23T12:43:16.715Z</time></trkpt><trkpt lat="44.6477183" lon="9.296355"><ele>540.0</ele><time>2026-04-23T12:43:18.715Z</time></trkpt><trkpt lat="44.6478066" lon="9.2963321"><ele>540.0</ele><time>2026-04-23T12:43:20.713Z</time></trkpt><trkpt lat="44.647941" lon="9.2962843"><ele>541.8333333333334</ele><time>2026-04-23T12:43:22.714Z</time></trkpt><trkpt lat="44.6480032" lon="9.2962704"><ele>543.6666666666666</ele><time>2026-04-23T12:43:23.715Z</time></trkpt><trkpt lat="44.6480708" lon="9.2962649"><ele>545.5</ele><time>2026-04-23T12:43:24.714Z</time></trkpt><trkpt lat="44.6481829" lon="9.2962629"><ele>547.3333333333333</ele><time>2026-04-23T12:43:25.714Z</time></trkpt><trkpt lat="44.6482887" lon="9.2962512"><ele>549.1666666666666</ele><time>2026-04-23T12:43:26.715Z</time></trkpt><trkpt lat="44.6483523" lon="9.2962217"><ele>551.0</ele><time>2026-04-23T12:43:27.713Z</time></trkpt><trkpt lat="44.6484293" lon="9.2961349"><ele>551.0</ele><time>2026-04-23T12:43:29.714Z</time></trkpt><trkpt lat="44.6484642" lon="9.2960176"><ele>551.0</ele><time>2026-04-23T12:43:31.714Z</time></trkpt><trkpt lat="44.6485162" lon="9.2959492"><ele>551.0</ele><time>2026-04-23T12:43:33.715Z</time></trkpt><trkpt lat="44.6485903" lon="9.2959285"><ele>551.0</ele><time>2026-04-23T12:43:35.714Z</time></trkpt><trkpt lat="44.6486538" lon="9.295931"><ele>551.0</ele><time>2026-04-23T12:43:37.715Z</time></trkpt><trkpt lat="44.6487187" lon="9.2960113"><ele>551.0</ele><time>2026-04-23T12:43:39.714Z</time></trkpt><trkpt lat="44.6487468" lon="9.2960918"><ele>553.6666666666666</ele><time>2026-04-23T12:43:40.714Z</time></trkpt><trkpt lat="44.6487747" lon="9.2961853"><ele>556.3333333333333</ele><time>2026-04-23T12:43:41.713Z</time></trkpt><trkpt lat="44.6488039" lon="9.2962921"><ele>559.0</ele><time>2026-04-23T12:43:42.713Z</time></trkpt><trkpt lat="44.6488336" lon="9.2964075"><ele>561.6666666666666</ele><time>2026-04-23T12:43:43.714Z</time></trkpt><trkpt lat="44.6488559" lon="9.2965173"><ele>564.3333333333334</ele><time>2026-04-23T12:43:44.714Z</time></trkpt><trkpt lat="44.6488651" lon="9.2966156"><ele>567.0</ele><time>2026-04-23T12:43:45.713Z</time></trkpt><trkpt lat="44.6488681" lon="9.2967062"><ele>567.0</ele><time>2026-04-23T12:43:46.714Z</time></trkpt><trkpt lat="44.6488703" lon="9.2968481"><ele>567.0</ele><time>2026-04-23T12:43:48.716Z</time></trkpt><trkpt lat="44.6489223" lon="9.2969117"><ele>567.0</ele><time>2026-04-23T12:43:50.715Z</time></trkpt><trkpt lat="44.6490003" lon="9.2967745"><ele>567.0</ele><time>2026-04-23T12:43:52.714Z</time></trkpt><trkpt lat="44.6490422" lon="9.2966771"><ele>567.0</ele><time>2026-04-23T12:43:53.714Z</time></trkpt><trkpt lat="44.6490763" lon="9.2965625"><ele>567.0</ele><time>2026-04-23T12:43:54.715Z</time></trkpt><trkpt lat="44.6490955" lon="9.2964421"><ele>567.0</ele><time>2026-04-23T12:43:55.715Z</time></trkpt><trkpt lat="44.6491" lon="9.2963167"><ele>567.0</ele><time>2026-04-23T12:43:56.715Z</time></trkpt><trkpt lat="44.6490917" lon="9.2962033"><ele>567.0</ele><time>2026-04-23T12:43:57.713Z</time></trkpt><trkpt lat="44.649075" lon="9.296095"><ele>567.0</ele><time>2026-04-23T12:43:58.715Z</time></trkpt><trkpt lat="44.6490533" lon="9.295995"><ele>567.0</ele><time>2026-04-23T12:43:59.715Z</time></trkpt><trkpt lat="44.6490283" lon="9.2958383"><ele>567.5</ele><time>2026-04-23T12:44:01.714Z</time></trkpt><trkpt lat="44.649065" lon="9.2957367"><ele>568.0</ele><time>2026-04-23T12:44:03.713Z</time></trkpt><trkpt lat="44.64913" lon="9.2957817"><ele>568.5</ele><time>2026-04-23T12:44:05.715Z</time></trkpt><trkpt lat="44.649155" lon="9.295865"><ele>569.0</ele><time>2026-04-23T12:44:06.714Z</time></trkpt><trkpt lat="44.6491733" lon="9.2959717"><ele>569.5</ele><time>2026-04-23T12:44:07.714Z</time></trkpt><trkpt lat="44.6491917" lon="9.2961033"><ele>570.0</ele><time>2026-04-23T12:44:08.714Z</time></trkpt><trkpt lat="44.6492133" lon="9.2962533"><ele>570.0</ele><time>2026-04-23T12:44:09.713Z</time></trkpt><trkpt lat="44.64924" lon="9.296395"><ele>570.0</ele><time>2026-04-23T12:44:10.715Z</time></trkpt><trkpt lat="44.6492683" lon="9.2965367"><ele>570.0</ele><time>2026-04-23T12:44:11.714Z</time></trkpt><trkpt lat="44.6493033" lon="9.296695"><ele>570.0</ele><time>2026-04-23T12:44:12.713Z</time></trkpt><trkpt lat="44.6493417" lon="9.296865"><ele>569.25</ele><time>2026-04-23T12:44:13.714Z</time></trkpt><trkpt lat="44.6493833" lon="9.29704"><ele>568.5</ele><time>2026-04-23T12:44:14.714Z</time></trkpt><trkpt lat="44.6494317" lon="9.2972"><ele>567.75</ele><time>2026-04-23T12:44:15.713Z</time></trkpt><trkpt lat="44.6494833" lon="9.2973433"><ele>567.0</ele><time>2026-04-23T12:44:16.714Z</time></trkpt><trkpt lat="44.6495383" lon="9.29748"><ele>570.8000000000001</ele><time>2026-04-23T12:44:17.714Z</time></trkpt><trkpt lat="44.6495933" lon="9.2976133"><ele>574.6</ele><time>2026-04-23T12:44:18.713Z</time></trkpt><trkpt lat="44.6496367" lon="9.29776"><ele>578.4000000000001</ele><time>2026-04-23T12:44:19.715Z</time></trkpt><trkpt lat="44.649665" lon="9.2979083"><ele>582.2</ele><time>2026-04-23T12:44:20.714Z</time></trkpt><trkpt lat="44.6496817" lon="9.2980567"><ele>586.0</ele><time>2026-04-23T12:44:21.714Z</time></trkpt><trkpt lat="44.64969" lon="9.2982067"><ele>586.6</ele><time>2026-04-23T12:44:22.715Z</time></trkpt><trkpt lat="44.6497" lon="9.2983567"><ele>587.2</ele><time>2026-04-23T12:44:23.715Z</time></trkpt><trkpt lat="44.6497117" lon="9.2985067"><ele>587.8</ele><time>2026-04-23T12:44:24.714Z</time></trkpt><trkpt lat="44.6497267" lon="9.2986583"><ele>588.4</ele><time>2026-04-23T12:44:25.714Z</time></trkpt><trkpt lat="44.6497517" lon="9.2988083"><ele>589.0</ele><time>2026-04-23T12:44:26.714Z</time></trkpt><trkpt lat="44.6497867" lon="9.2989517"><ele>589.25</ele><time>2026-04-23T12:44:27.715Z</time></trkpt><trkpt lat="44.6498283" lon="9.2990917"><ele>589.5</ele><time>2026-04-23T12:44:28.714Z</time></trkpt><trkpt lat="44.6498767" lon="9.2992367"><ele>589.75</ele><time>2026-04-23T12:44:29.716Z</time></trkpt><trkpt lat="44.6499267" lon="9.2993867"><ele>590.0</ele><time>2026-04-23T12:44:30.714Z</time></trkpt><trkpt lat="44.6499767" lon="9.2995417"><ele>590.0</ele><time>2026-04-23T12:44:31.714Z</time></trkpt><trkpt lat="44.6500183" lon="9.2997033"><ele>590.0</ele><time>2026-04-23T12:44:32.714Z</time></trkpt><trkpt lat="44.6500517" lon="9.2998667"><ele>590.0</ele><time>2026-04-23T12:44:33.715Z</time></trkpt><trkpt lat="44.6500817" lon="9.300035"><ele>590.0</ele><time>2026-04-23T12:44:34.714Z</time></trkpt><trkpt lat="44.6501067" lon="9.300195"><ele>589.0</ele><time>2026-04-23T12:44:35.714Z</time></trkpt><trkpt lat="44.6501317" lon="9.3003533"><ele>588.0</ele><time>2026-04-23T12:44:36.715Z</time></trkpt><trkpt lat="44.6501483" lon="9.3005067"><ele>587.0</ele><time>2026-04-23T12:44:37.716Z</time></trkpt><trkpt lat="44.6501583" lon="9.300655"><ele>586.0</ele><time>2026-04-23T12:44:38.715Z</time></trkpt><trkpt lat="44.6501783" lon="9.3007983"><ele>585.0</ele><time>2026-04-23T12:44:39.715Z</time></trkpt><trkpt lat="44.6502083" lon="9.3009383"><ele>584.5</ele><time>2026-04-23T12:44:40.714Z</time></trkpt><trkpt lat="44.6502517" lon="9.30108"><ele>584.0</ele><time>2026-04-23T12:44:41.714Z</time></trkpt><trkpt lat="44.6503067" lon="9.3012217"><ele>583.5</ele><time>2026-04-23T12:44:42.714Z</time></trkpt><trkpt lat="44.6503717" lon="9.301365"><ele>583.0</ele><time>2026-04-23T12:44:43.715Z</time></trkpt><trkpt lat="44.650435" lon="9.3015117"><ele>589.0</ele><time>2026-04-23T12:44:44.716Z</time></trkpt><trkpt lat="44.6504933" lon="9.3016583"><ele>595.0</ele><time>2026-04-23T12:44:45.715Z</time></trkpt><trkpt lat="44.65054" lon="9.3018117"><ele>601.0</ele><time>2026-04-23T12:44:46.714Z</time></trkpt><trkpt lat="44.650575" lon="9.3019733"><ele>607.0</ele><time>2026-04-23T12:44:47.715Z</time></trkpt><trkpt lat="44.650605" lon="9.3021383"><ele>606.5</ele><time>2026-04-23T12:44:48.715Z</time></trkpt><trkpt lat="44.6506233" lon="9.30231"><ele>606.0</ele><time>2026-04-23T12:44:49.715Z</time></trkpt><trkpt lat="44.6506433" lon="9.30248"><ele>605.5</ele><time>2026-04-23T12:44:50.715Z</time></trkpt><trkpt lat="44.650665" lon="9.3026383"><ele>605.0</ele><time>2026-04-23T12:44:51.715Z</time></trkpt><trkpt lat="44.650685" lon="9.3027883"><ele>605.0</ele><time>2026-04-23T12:44:52.714Z</time></trkpt><trkpt lat="44.6507017" lon="9.3029183"><ele>605.0</ele><time>2026-04-23T12:44:53.715Z</time></trkpt><trkpt lat="44.6507117" lon="9.30304"><ele>605.0</ele><time>2026-04-23T12:44:54.715Z</time></trkpt><trkpt lat="44.650715" lon="9.30315"><ele>605.0</ele><time>2026-04-23T12:44:55.714Z</time></trkpt><trkpt lat="44.65073" lon="9.3032417"><ele>605.0</ele><time>2026-04-23T12:44:56.715Z</time></trkpt><trkpt lat="44.6507767" lon="9.3033817"><ele>605.0</ele><time>2026-04-23T12:44:58.714Z</time></trkpt><trkpt lat="44.6508067" lon="9.3034883"><ele>604.0</ele><time>2026-04-23T12:45:01.714Z</time></trkpt><trkpt lat="44.6507917" lon="9.30358"><ele>603.0</ele><time>2026-04-23T12:45:05.713Z</time></trkpt><trkpt lat="44.6508283" lon="9.3037"><ele>602.0</ele><time>2026-04-23T12:45:08.714Z</time></trkpt><trkpt lat="44.65088" lon="9.3037733"><ele>601.0</ele><time>2026-04-23T12:45:10.713Z</time></trkpt><trkpt lat="44.6509633" lon="9.303775"><ele>600.0</ele><time>2026-04-23T12:45:13.714Z</time></trkpt><trkpt lat="44.6510433" lon="9.3037333"><ele>599.0</ele><time>2026-04-23T12:45:15.713Z</time></trkpt><trkpt lat="44.651115" lon="9.3036983"><ele>603.0</ele><time>2026-04-23T12:45:17.713Z</time></trkpt><trkpt lat="44.6511817" lon="9.3036667"><ele>607.0</ele><time>2026-04-23T12:45:19.714Z</time></trkpt><trkpt lat="44.6512267" lon="9.3036033"><ele>611.0</ele><time>2026-04-23T12:45:21.713Z</time></trkpt><trkpt lat="44.6513167" lon="9.3035617"><ele>615.0</ele><time>2026-04-23T12:45:30.714Z</time></trkpt><trkpt lat="44.6514" lon="9.303525"><ele>619.0</ele><time>2026-04-23T12:45:33.712Z</time></trkpt><trkpt lat="44.651465" lon="9.3034667"><ele>623.0</ele><time>2026-04-23T12:45:35.713Z</time></trkpt><trkpt lat="44.651545" lon="9.3034383"><ele>623.0</ele><time>2026-04-23T12:45:38.714Z</time></trkpt><trkpt lat="44.6516217" lon="9.3034417"><ele>623.0</ele><time>2026-04-23T12:45:40.715Z</time></trkpt><trkpt lat="44.6517183" lon="9.3034183"><ele>623.0</ele><time>2026-04-23T12:45:42.713Z</time></trkpt><trkpt lat="44.6518217" lon="9.303375"><ele>623.0</ele><time>2026-04-23T12:45:44.716Z</time></trkpt><trkpt lat="44.651935" lon="9.3033683"><ele>623.0</ele><time>2026-04-23T12:45:46.713Z</time></trkpt><trkpt lat="44.6520483" lon="9.3033567"><ele>624.6666666666666</ele><time>2026-04-23T12:45:48.714Z</time></trkpt><trkpt lat="44.65214" lon="9.3033333"><ele>626.3333333333333</ele><time>2026-04-23T12:45:50.714Z</time></trkpt><trkpt lat="44.65221" lon="9.3032883"><ele>628.0</ele><time>2026-04-23T12:45:52.715Z</time></trkpt><trkpt lat="44.6522617" lon="9.30321"><ele>629.6666666666666</ele><time>2026-04-23T12:45:54.713Z</time></trkpt><trkpt lat="44.6523083" lon="9.3031217"><ele>631.3333333333334</ele><time>2026-04-23T12:45:56.713Z</time></trkpt><trkpt lat="44.6524183" lon="9.3030383"><ele>633.0</ele><time>2026-04-23T12:45:58.713Z</time></trkpt><trkpt lat="44.6524833" lon="9.3030033"><ele>635.8333333333334</ele><time>2026-04-23T12:45:59.714Z</time></trkpt><trkpt lat="44.6525467" lon="9.302965"><ele>638.6666666666666</ele><time>2026-04-23T12:46:00.713Z</time></trkpt><trkpt lat="44.6526167" lon="9.302925"><ele>641.5</ele><time>2026-04-23T12:46:01.715Z</time></trkpt><trkpt lat="44.6526883" lon="9.302885"><ele>644.3333333333333</ele><time>2026-04-23T12:46:02.715Z</time></trkpt><trkpt lat="44.652755" lon="9.302845"><ele>647.1666666666666</ele><time>2026-04-23T12:46:03.715Z</time></trkpt><trkpt lat="44.6528133" lon="9.3028067"><ele>650.0</ele><time>2026-04-23T12:46:04.713Z</time></trkpt><trkpt lat="44.6529" lon="9.3027383"><ele>650.0</ele><time>2026-04-23T12:46:06.712Z</time></trkpt><trkpt lat="44.652955" lon="9.302625"><ele>650.0</ele><time>2026-04-23T12:46:08.715Z</time></trkpt><trkpt lat="44.65299" lon="9.30248"><ele>650.0</ele><time>2026-04-23T12:46:10.713Z</time></trkpt><trkpt lat="44.6530117" lon="9.3023967"><ele>650.0</ele><time>2026-04-23T12:46:11.714Z</time></trkpt><trkpt lat="44.653075" lon="9.302245"><ele>650.0</ele><time>2026-04-23T12:46:13.714Z</time></trkpt><trkpt lat="44.6531067" lon="9.3021633"><ele>654.5</ele><time>2026-04-23T12:46:14.714Z</time></trkpt><trkpt lat="44.6531383" lon="9.3020717"><ele>659.0</ele><time>2026-04-23T12:46:15.714Z</time></trkpt><trkpt lat="44.6531833" lon="9.3019817"><ele>663.5</ele><time>2026-04-23T12:46:16.712Z</time></trkpt><trkpt lat="44.6532333" lon="9.3018967"><ele>668.0</ele><time>2026-04-23T12:46:17.713Z</time></trkpt><trkpt lat="44.6532917" lon="9.3018183"><ele>672.5</ele><time>2026-04-23T12:46:18.712Z</time></trkpt><trkpt lat="44.6533567" lon="9.301745"><ele>677.0</ele><time>2026-04-23T12:46:19.713Z</time></trkpt><trkpt lat="44.6534317" lon="9.3016717"><ele>677.0</ele><time>2026-04-23T12:46:20.713Z</time></trkpt><trkpt lat="44.6535133" lon="9.3015967"><ele>677.0</ele><time>2026-04-23T12:46:21.714Z</time></trkpt><trkpt lat="44.6536" lon="9.3015117"><ele>677.0</ele><time>2026-04-23T12:46:22.718Z</time></trkpt><trkpt lat="44.6536867" lon="9.301425"><ele>677.0</ele><time>2026-04-23T12:46:23.715Z</time></trkpt><trkpt lat="44.6537733" lon="9.3013317"><ele>677.0</ele><time>2026-04-23T12:46:24.715Z</time></trkpt><trkpt lat="44.6538667" lon="9.3012283"><ele>682.8</ele><time>2026-04-23T12:46:25.714Z</time></trkpt><trkpt lat="44.6539617" lon="9.301125"><ele>688.6</ele><time>2026-04-23T12:46:26.714Z</time></trkpt><trkpt lat="44.654055" lon="9.3010267"><ele>694.4</ele><time>2026-04-23T12:46:27.714Z</time></trkpt><trkpt lat="44.654135" lon="9.30093"><ele>700.1999999999999</ele><time>2026-04-23T12:46:28.716Z</time></trkpt><trkpt lat="44.654215" lon="9.3008383"><ele>706.0</ele><time>2026-04-23T12:46:29.714Z</time></trkpt><trkpt lat="44.6542933" lon="9.3007567"><ele>706.0</ele><time>2026-04-23T12:46:30.714Z</time></trkpt><trkpt lat="44.6543717" lon="9.3006867"><ele>706.0</ele><time>2026-04-23T12:46:31.714Z</time></trkpt><trkpt lat="44.6544567" lon="9.300625"><ele>706.0</ele><time>2026-04-23T12:46:32.714Z</time></trkpt><trkpt lat="44.6545433" lon="9.300565"><ele>706.0</ele><time>2026-04-23T12:46:33.712Z</time></trkpt><trkpt lat="44.6546233" lon="9.3005167"><ele>706.0</ele><time>2026-04-23T12:46:34.713Z</time></trkpt><trkpt lat="44.6546833" lon="9.300465"><ele>706.0</ele><time>2026-04-23T12:46:35.713Z</time></trkpt><trkpt lat="44.6547783" lon="9.3003517"><ele>710.6666666666667</ele><time>2026-04-23T12:46:37.713Z</time></trkpt><trkpt lat="44.654835" lon="9.300275"><ele>715.3333333333334</ele><time>2026-04-23T12:46:38.714Z</time></trkpt><trkpt lat="44.6548933" lon="9.3001933"><ele>720.0</ele><time>2026-04-23T12:46:39.712Z</time></trkpt><trkpt lat="44.654955" lon="9.3001217"><ele>724.6666666666666</ele><time>2026-04-23T12:46:40.715Z</time></trkpt><trkpt lat="44.6550233" lon="9.3000617"><ele>729.3333333333333</ele><time>2026-04-23T12:46:41.715Z</time></trkpt><trkpt lat="44.6550883" lon="9.300015"><ele>734.0</ele><time>2026-04-23T12:46:42.715Z</time></trkpt><trkpt lat="44.6551483" lon="9.29998"><ele>734.0</ele><time>2026-04-23T12:46:43.715Z</time></trkpt><trkpt lat="44.6552083" lon="9.299945"><ele>734.0</ele><time>2026-04-23T12:46:44.715Z</time></trkpt><trkpt lat="44.6552717" lon="9.2999117"><ele>734.0</ele><time>2026-04-23T12:46:45.714Z</time></trkpt><trkpt lat="44.655345" lon="9.29989"><ele>734.0</ele><time>2026-04-23T12:46:46.714Z</time></trkpt><trkpt lat="44.6554217" lon="9.2998783"><ele>734.0</ele><time>2026-04-23T12:46:47.714Z</time></trkpt><trkpt lat="44.6555067" lon="9.2998667"><ele>734.0</ele><time>2026-04-23T12:46:48.715Z</time></trkpt><trkpt lat="44.6555867" lon="9.2998517"><ele>735.0</ele><time>2026-04-23T12:46:49.715Z</time></trkpt><trkpt lat="44.6556517" lon="9.2998317"><ele>736.0</ele><time>2026-04-23T12:46:50.714Z</time></trkpt><trkpt lat="44.6557683" lon="9.2998233"><ele>737.0</ele><time>2026-04-23T12:46:52.714Z</time></trkpt><trkpt lat="44.6558483" lon="9.2997783"><ele>738.0</ele><time>2026-04-23T12:46:54.714Z</time></trkpt><trkpt lat="44.6558817" lon="9.2996917"><ele>739.0</ele><time>2026-04-23T12:46:56.714Z</time></trkpt><trkpt lat="44.65585" lon="9.299585"><ele>740.0</ele><time>2026-04-23T12:47:00.714Z</time></trkpt><trkpt lat="44.6559017" lon="9.2994883"><ele>744.2</ele><time>2026-04-23T12:47:03.714Z</time></trkpt><trkpt lat="44.6559617" lon="9.2993667"><ele>748.4</ele><time>2026-04-23T12:47:06.713Z</time></trkpt><trkpt lat="44.6560183" lon="9.2991967"><ele>752.5999999999999</ele><time>2026-04-23T12:47:08.715Z</time></trkpt><trkpt lat="44.65604" lon="9.299095"><ele>756.8</ele><time>2026-04-23T12:47:09.715Z</time></trkpt><trkpt lat="44.6560617" lon="9.2989867"><ele>761.0</ele><time>2026-04-23T12:47:10.714Z</time></trkpt><trkpt lat="44.6560933" lon="9.2988833"><ele>760.2857142857142</ele><time>2026-04-23T12:47:11.714Z</time></trkpt><trkpt lat="44.65614" lon="9.298785"><ele>759.5714285714286</ele><time>2026-04-23T12:47:12.714Z</time></trkpt><trkpt lat="44.6561883" lon="9.2986983"><ele>758.8571428571429</ele><time>2026-04-23T12:47:13.714Z</time></trkpt><trkpt lat="44.6562317" lon="9.2986267"><ele>758.1428571428571</ele><time>2026-04-23T12:47:14.714Z</time></trkpt><trkpt lat="44.65628" lon="9.2985267"><ele>757.4285714285714</ele><time>2026-04-23T12:47:16.714Z</time></trkpt><trkpt lat="44.6563183" lon="9.2984517"><ele>756.7142857142857</ele><time>2026-04-23T12:47:19.714Z</time></trkpt><trkpt lat="44.6563367" lon="9.29836"><ele>756.0</ele><time>2026-04-23T12:47:22.714Z</time></trkpt><trkpt lat="44.6563783" lon="9.29826"><ele>756.0</ele><time>2026-04-23T12:47:25.715Z</time></trkpt><trkpt lat="44.6563633" lon="9.29816"><ele>756.0</ele><time>2026-04-23T12:47:27.715Z</time></trkpt><trkpt lat="44.6563617" lon="9.298055"><ele>756.0</ele><time>2026-04-23T12:47:29.714Z</time></trkpt><trkpt lat="44.6563933" lon="9.29796"><ele>756.0</ele><time>2026-04-23T12:47:31.714Z</time></trkpt><trkpt lat="44.65643" lon="9.297865"><ele>756.0</ele><time>2026-04-23T12:47:33.713Z</time></trkpt><trkpt lat="44.6564367" lon="9.2977167"><ele>756.0</ele><time>2026-04-23T12:47:35.714Z</time></trkpt><trkpt lat="44.656465" lon="9.297585"><ele>758.3333333333334</ele><time>2026-04-23T12:47:37.713Z</time></trkpt><trkpt lat="44.6565033" lon="9.2974633"><ele>760.6666666666667</ele><time>2026-04-23T12:47:39.713Z</time></trkpt><trkpt lat="44.6565333" lon="9.2973683"><ele>763.0</ele><time>2026-04-23T12:47:41.713Z</time></trkpt><trkpt lat="44.6565833" lon="9.2972983"><ele>765.3333333333334</ele><time>2026-04-23T12:47:43.714Z</time></trkpt><trkpt lat="44.6566283" lon="9.297205"><ele>767.6666666666667</ele><time>2026-04-23T12:47:45.713Z</time></trkpt><trkpt lat="44.65667" lon="9.2970733"><ele>770.0</ele><time>2026-04-23T12:47:47.714Z</time></trkpt><trkpt lat="44.6567317" lon="9.2969417"><ele>772.4</ele><time>2026-04-23T12:47:49.714Z</time></trkpt><trkpt lat="44.6567967" lon="9.2967833"><ele>774.8</ele><time>2026-04-23T12:47:51.714Z</time></trkpt><trkpt lat="44.6568283" lon="9.2966967"><ele>777.2</ele><time>2026-04-23T12:47:52.715Z</time></trkpt><trkpt lat="44.65686" lon="9.29662"><ele>779.6</ele><time>2026-04-23T12:47:53.714Z</time></trkpt><trkpt lat="44.65693" lon="9.2964917"><ele>782.0</ele><time>2026-04-23T12:47:55.713Z</time></trkpt><trkpt lat="44.6569933" lon="9.296365"><ele>782.2</ele><time>2026-04-23T12:47:57.715Z</time></trkpt><trkpt lat="44.6570283" lon="9.29624"><ele>782.4000000000001</ele><time>2026-04-23T12:47:59.715Z</time></trkpt><trkpt lat="44.657075" lon="9.2961067"><ele>782.5999999999999</ele><time>2026-04-23T12:48:01.713Z</time></trkpt><trkpt lat="44.657155" lon="9.2959717"><ele>782.8</ele><time>2026-04-23T12:48:03.713Z</time></trkpt><trkpt lat="44.6572283" lon="9.2958767"><ele>783.0</ele><time>2026-04-23T12:48:05.714Z</time></trkpt><trkpt lat="44.6572617" lon="9.2957933"><ele>783.0</ele><time>2026-04-23T12:48:07.715Z</time></trkpt><trkpt lat="44.65732" lon="9.29571"><ele>783.0</ele><time>2026-04-23T12:48:09.715Z</time></trkpt><trkpt lat="44.6573833" lon="9.2956317"><ele>783.0</ele><time>2026-04-23T12:48:11.714Z</time></trkpt><trkpt lat="44.6574183" lon="9.295545"><ele>783.0</ele><time>2026-04-23T12:48:13.715Z</time></trkpt><trkpt lat="44.65747" lon="9.295455"><ele>783.0</ele><time>2026-04-23T12:48:15.715Z</time></trkpt><trkpt lat="44.6574967" lon="9.295365"><ele>783.0</ele><time>2026-04-23T12:48:17.713Z</time></trkpt><trkpt lat="44.657545" lon="9.2952983"><ele>784.0</ele><time>2026-04-23T12:48:19.715Z</time></trkpt><trkpt lat="44.6576083" lon="9.2952583"><ele>785.0</ele><time>2026-04-23T12:48:21.715Z</time></trkpt><trkpt lat="44.6576667" lon="9.295225"><ele>786.0</ele><time>2026-04-23T12:48:23.715Z</time></trkpt><trkpt lat="44.6577283" lon="9.2951917"><ele>787.0</ele><time>2026-04-23T12:48:25.715Z</time></trkpt><trkpt lat="44.6578617" lon="9.295155"><ele>788.0</ele><time>2026-04-23T12:49:59.716Z</time></trkpt><trkpt lat="44.657925" lon="9.2951067"><ele>789.0</ele><time>2026-04-23T12:50:03.715Z</time></trkpt><trkpt lat="44.6579983" lon="9.2950483"><ele>789.6666666666666</ele><time>2026-04-23T12:50:08.716Z</time></trkpt><trkpt lat="44.6580402" lon="9.2949563"><ele>790.3333333333333</ele><time>2026-04-23T12:50:11.797Z</time></trkpt><trkpt lat="44.658113" lon="9.2949509"><ele>791.0</ele><time>2026-04-23T12:50:14.822Z</time></trkpt><trkpt lat="44.658202" lon="9.2949771"><ele>791.6666666666666</ele><time>2026-04-23T12:50:19.814Z</time></trkpt><trkpt lat="44.6582868" lon="9.2949579"><ele>792.3333333333333</ele><time>2026-04-23T12:50:21.791Z</time></trkpt><trkpt lat="44.6583456" lon="9.2949188"><ele>793.0</ele><time>2026-04-23T12:50:23.766Z</time></trkpt><trkpt lat="44.658415" lon="9.2948994"><ele>792.9999999999999</ele><time>2026-04-23T12:50:26.782Z</time></trkpt><trkpt lat="44.658498" lon="9.294852"><ele>793.0</ele><time>2026-04-23T12:50:29.798Z</time></trkpt><trkpt lat="44.6585798" lon="9.2947909"><ele>793.0</ele><time>2026-04-23T12:50:32.814Z</time></trkpt><trkpt lat="44.6586427" lon="9.294767"><ele>793.0</ele><time>2026-04-23T12:50:37.806Z</time></trkpt><trkpt lat="44.6587182" lon="9.2947793"><ele>792.9999999999999</ele><time>2026-04-23T12:50:40.823Z</time></trkpt><trkpt lat="44.658828" lon="9.2947582"><ele>793.0</ele><time>2026-04-23T12:50:43.838Z</time></trkpt><trkpt lat="44.6588903" lon="9.2947346"><ele>795.3333333333333</ele><time>2026-04-23T12:50:46.777Z</time></trkpt><trkpt lat="44.6589783" lon="9.2947017"><ele>797.6666666666666</ele><time>2026-04-23T12:50:57.716Z</time></trkpt><trkpt lat="44.6590517" lon="9.294695"><ele>800.0</ele><time>2026-04-23T12:50:59.715Z</time></trkpt><trkpt lat="44.6591333" lon="9.2946533"><ele>802.3333333333333</ele><time>2026-04-23T12:51:01.716Z</time></trkpt><trkpt lat="44.6592217" lon="9.2946017"><ele>804.6666666666666</ele><time>2026-04-23T12:51:03.716Z</time></trkpt><trkpt lat="44.6593" lon="9.29456"><ele>807.0</ele><time>2026-04-23T12:51:05.714Z</time></trkpt><trkpt lat="44.6593567" lon="9.2945017"><ele>807.0</ele><time>2026-04-23T12:51:07.714Z</time></trkpt><trkpt lat="44.65942" lon="9.2944417"><ele>807.0</ele><time>2026-04-23T12:51:09.715Z</time></trkpt><trkpt lat="44.659495" lon="9.2944167"><ele>807.0</ele><time>2026-04-23T12:51:11.714Z</time></trkpt><trkpt lat="44.6595667" lon="9.2944317"><ele>807.0</ele><time>2026-04-23T12:51:13.714Z</time></trkpt><trkpt lat="44.6596567" lon="9.29446"><ele>807.0</ele><time>2026-04-23T12:51:15.714Z</time></trkpt><trkpt lat="44.6597533" lon="9.294445"><ele>807.0</ele><time>2026-04-23T12:51:17.713Z</time></trkpt><trkpt lat="44.6598383" lon="9.294395"><ele>807.8571428571429</ele><time>2026-04-23T12:51:19.716Z</time></trkpt><trkpt lat="44.6599033" lon="9.2943933"><ele>808.7142857142858</ele><time>2026-04-23T12:51:22.715Z</time></trkpt><trkpt lat="44.6599767" lon="9.2944167"><ele>809.5714285714287</ele><time>2026-04-23T12:51:25.713Z</time></trkpt><trkpt lat="44.660025" lon="9.2943517"><ele>810.4285714285714</ele><time>2026-04-23T12:51:29.714Z</time></trkpt><trkpt lat="44.6599667" lon="9.2943067"><ele>811.2857142857142</ele><time>2026-04-23T12:51:34.715Z</time></trkpt><trkpt lat="44.659945" lon="9.2944083"><ele>812.1428571428572</ele><time>2026-04-23T13:04:19.716Z</time></trkpt><trkpt lat="44.659875" lon="9.2944683"><ele>813.0</ele><time>2026-04-23T13:04:22.714Z</time></trkpt><trkpt lat="44.6597933" lon="9.2944783"><ele>813.0</ele><time>2026-04-23T13:04:24.716Z</time></trkpt><trkpt lat="44.659735" lon="9.2944067"><ele>813.0</ele><time>2026-04-23T13:04:27.715Z</time></trkpt><trkpt lat="44.6597367" lon="9.29429"><ele>813.0</ele><time>2026-04-23T13:04:30.715Z</time></trkpt><trkpt lat="44.65978" lon="9.294185"><ele>813.0</ele><time>2026-04-23T13:04:33.715Z</time></trkpt><trkpt lat="44.659835" lon="9.2941117"><ele>813.0</ele><time>2026-04-23T13:04:36.714Z</time></trkpt><trkpt lat="44.6597883" lon="9.294035"><ele>813.0</ele><time>2026-04-23T13:04:42.716Z</time></trkpt><trkpt lat="44.65974" lon="9.2939333"><ele>808.6666666666666</ele><time>2026-04-23T13:04:45.716Z</time></trkpt><trkpt lat="44.65971" lon="9.2938467"><ele>804.3333333333333</ele><time>2026-04-23T13:04:47.715Z</time></trkpt><trkpt lat="44.659675" lon="9.2937683"><ele>800.0</ele><time>2026-04-23T13:04:49.714Z</time></trkpt><trkpt lat="44.659695" lon="9.2936783"><ele>795.6666666666666</ele><time>2026-04-23T13:04:52.717Z</time></trkpt><trkpt lat="44.6597867" lon="9.2935967"><ele>791.3333333333333</ele><time>2026-04-23T13:04:55.717Z</time></trkpt><trkpt lat="44.6599017" lon="9.293565"><ele>787.0</ele><time>2026-04-23T13:04:57.715Z</time></trkpt><trkpt lat="44.6600233" lon="9.29358"><ele>787.0</ele><time>2026-04-23T13:04:59.716Z</time></trkpt><trkpt lat="44.6601433" lon="9.2936117"><ele>787.0</ele><time>2026-04-23T13:05:01.715Z</time></trkpt><trkpt lat="44.66026" lon="9.2936617"><ele>787.0</ele><time>2026-04-23T13:05:03.715Z</time></trkpt><trkpt lat="44.6603317" lon="9.2936817"><ele>787.0</ele><time>2026-04-23T13:05:04.716Z</time></trkpt><trkpt lat="44.6604033" lon="9.2937033"><ele>787.0</ele><time>2026-04-23T13:05:05.715Z</time></trkpt><trkpt lat="44.6604767" lon="9.2937217"><ele>787.4999999999999</ele><time>2026-04-23T13:05:06.717Z</time></trkpt><trkpt lat="44.660555" lon="9.2937483"><ele>788.0</ele><time>2026-04-23T13:05:07.715Z</time></trkpt><trkpt lat="44.660625" lon="9.293775"><ele>788.5</ele><time>2026-04-23T13:05:08.715Z</time></trkpt><trkpt lat="44.66069" lon="9.2938033"><ele>789.0</ele><time>2026-04-23T13:05:09.716Z</time></trkpt><trkpt lat="44.6608167" lon="9.2938733"><ele>789.4999999999999</ele><time>2026-04-23T13:05:11.715Z</time></trkpt><trkpt lat="44.6608867" lon="9.2939117"><ele>790.0</ele><time>2026-04-23T13:05:12.715Z</time></trkpt><trkpt lat="44.6609633" lon="9.2939567"><ele>789.9999999999999</ele><time>2026-04-23T13:05:13.715Z</time></trkpt><trkpt lat="44.6610333" lon="9.2939967"><ele>790.0</ele><time>2026-04-23T13:05:14.716Z</time></trkpt><trkpt lat="44.661095" lon="9.2940367"><ele>790.0</ele><time>2026-04-23T13:05:15.715Z</time></trkpt><trkpt lat="44.661155" lon="9.2940667"><ele>790.0</ele><time>2026-04-23T13:05:16.717Z</time></trkpt><trkpt lat="44.661255" lon="9.29415"><ele>789.9999999999999</ele><time>2026-04-23T13:05:18.716Z</time></trkpt><trkpt lat="44.6613183" lon="9.294215"><ele>790.0</ele><time>2026-04-23T13:05:19.715Z</time></trkpt><trkpt lat="44.6613667" lon="9.2942817"><ele>788.3333333333333</ele><time>2026-04-23T13:05:20.717Z</time></trkpt><trkpt lat="44.661415" lon="9.2943533"><ele>786.6666666666666</ele><time>2026-04-23T13:05:21.715Z</time></trkpt><trkpt lat="44.6614883" lon="9.2944767"><ele>785.0</ele><time>2026-04-23T13:05:23.715Z</time></trkpt><trkpt lat="44.6615483" lon="9.2945183"><ele>783.3333333333333</ele><time>2026-04-23T13:05:24.716Z</time></trkpt><trkpt lat="44.661615" lon="9.2945367"><ele>781.6666666666666</ele><time>2026-04-23T13:05:25.714Z</time></trkpt><trkpt lat="44.661725" lon="9.294565"><ele>780.0</ele><time>2026-04-23T13:05:27.713Z</time></trkpt><trkpt lat="44.661805" lon="9.2945783"><ele>780.0</ele><time>2026-04-23T13:05:29.714Z</time></trkpt><trkpt lat="44.66183" lon="9.294675"><ele>780.0</ele><time>2026-04-23T13:05:41.715Z</time></trkpt><trkpt lat="44.6619" lon="9.294715"><ele>780.0</ele><time>2026-04-23T13:05:43.714Z</time></trkpt><trkpt lat="44.66198" lon="9.294735"><ele>780.0</ele><time>2026-04-23T13:05:45.715Z</time></trkpt><trkpt lat="44.6620483" lon="9.2947667"><ele>780.0</ele><time>2026-04-23T13:05:47.716Z</time></trkpt><trkpt lat="44.6621433" lon="9.2947733"><ele>780.0</ele><time>2026-04-23T13:05:50.716Z</time></trkpt><trkpt lat="44.6622667" lon="9.2947933"><ele>782.3333333333334</ele><time>2026-04-23T13:05:52.717Z</time></trkpt><trkpt lat="44.6623333" lon="9.2948217"><ele>784.6666666666667</ele><time>2026-04-23T13:05:53.715Z</time></trkpt><trkpt lat="44.6624017" lon="9.2948617"><ele>787.0</ele><time>2026-04-23T13:05:54.717Z</time></trkpt><trkpt lat="44.6624667" lon="9.2949"><ele>789.3333333333334</ele><time>2026-04-23T13:05:55.715Z</time></trkpt><trkpt lat="44.66254" lon="9.2949367"><ele>791.6666666666667</ele><time>2026-04-23T13:05:56.716Z</time></trkpt><trkpt lat="44.66262" lon="9.2949717"><ele>794.0</ele><time>2026-04-23T13:05:57.715Z</time></trkpt><trkpt lat="44.6627017" lon="9.295005"><ele>794.0000000000001</ele><time>2026-04-23T13:05:58.717Z</time></trkpt><trkpt lat="44.662775" lon="9.2950317"><ele>794.0</ele><time>2026-04-23T13:05:59.715Z</time></trkpt><trkpt lat="44.6628433" lon="9.295055"><ele>794.0</ele><time>2026-04-23T13:06:00.714Z</time></trkpt><trkpt lat="44.6629117" lon="9.295085"><ele>794.0</ele><time>2026-04-23T13:06:01.715Z</time></trkpt><trkpt lat="44.6629783" lon="9.2951033"><ele>794.0000000000001</ele><time>2026-04-23T13:06:02.716Z</time></trkpt><trkpt lat="44.6630933" lon="9.2951267"><ele>794.0</ele><time>2026-04-23T13:06:04.716Z</time></trkpt><trkpt lat="44.6632033" lon="9.2951317"><ele>798.2</ele><time>2026-04-23T13:06:06.716Z</time></trkpt><trkpt lat="44.6633129" lon="9.2951331"><ele>802.4000000000001</ele><time>2026-04-23T13:06:08.717Z</time></trkpt><trkpt lat="44.6634054" lon="9.295125"><ele>806.6</ele><time>2026-04-23T13:06:10.716Z</time></trkpt><trkpt lat="44.6635265" lon="9.2951321"><ele>810.8</ele><time>2026-04-23T13:06:12.716Z</time></trkpt><trkpt lat="44.6635973" lon="9.2951303"><ele>815.0</ele><time>2026-04-23T13:06:13.714Z</time></trkpt><trkpt lat="44.6636704" lon="9.2951074"><ele>818.8333333333334</ele><time>2026-04-23T13:06:14.716Z</time></trkpt><trkpt lat="44.6637485" lon="9.2950727"><ele>822.6666666666667</ele><time>2026-04-23T13:06:15.715Z</time></trkpt><trkpt lat="44.6638281" lon="9.29504"><ele>826.5</ele><time>2026-04-23T13:06:16.716Z</time></trkpt><trkpt lat="44.6639084" lon="9.2950122"><ele>830.3333333333333</ele><time>2026-04-23T13:06:17.716Z</time></trkpt><trkpt lat="44.6639914" lon="9.2949941"><ele>834.1666666666666</ele><time>2026-04-23T13:06:18.716Z</time></trkpt><trkpt lat="44.6640786" lon="9.2949782"><ele>838.0</ele><time>2026-04-23T13:06:19.715Z</time></trkpt><trkpt lat="44.6641689" lon="9.2949589"><ele>838.0</ele><time>2026-04-23T13:06:20.716Z</time></trkpt><trkpt lat="44.6642615" lon="9.2949478"><ele>838.0</ele><time>2026-04-23T13:06:21.715Z</time></trkpt><trkpt lat="44.6643558" lon="9.29494"><ele>838.0</ele><time>2026-04-23T13:06:22.715Z</time></trkpt><trkpt lat="44.6644469" lon="9.2949349"><ele>838.0</ele><time>2026-04-23T13:06:23.716Z</time></trkpt><trkpt lat="44.6645388" lon="9.2949352"><ele>838.0</ele><time>2026-04-23T13:06:24.715Z</time></trkpt><trkpt lat="44.6646271" lon="9.2949413"><ele>842.6666666666666</ele><time>2026-04-23T13:06:25.715Z</time></trkpt><trkpt lat="44.6647121" lon="9.2949456"><ele>847.3333333333333</ele><time>2026-04-23T13:06:26.716Z</time></trkpt><trkpt lat="44.6647916" lon="9.2949446"><ele>852.0</ele><time>2026-04-23T13:06:27.715Z</time></trkpt><trkpt lat="44.6648703" lon="9.2949459"><ele>856.6666666666667</ele><time>2026-04-23T13:06:28.717Z</time></trkpt><trkpt lat="44.664947" lon="9.2949451"><ele>861.3333333333334</ele><time>2026-04-23T13:06:29.715Z</time></trkpt><trkpt lat="44.6650235" lon="9.2949461"><ele>866.0</ele><time>2026-04-23T13:06:30.714Z</time></trkpt><trkpt lat="44.6651013" lon="9.2949494"><ele>865.9999999999999</ele><time>2026-04-23T13:06:31.717Z</time></trkpt><trkpt lat="44.6651782" lon="9.2949533"><ele>866.0</ele><time>2026-04-23T13:06:32.718Z</time></trkpt><trkpt lat="44.6652558" lon="9.2949649"><ele>866.0</ele><time>2026-04-23T13:06:33.715Z</time></trkpt><trkpt lat="44.6653249" lon="9.2949772"><ele>866.0</ele><time>2026-04-23T13:06:34.715Z</time></trkpt><trkpt lat="44.665394" lon="9.2949845"><ele>866.0</ele><time>2026-04-23T13:06:35.716Z</time></trkpt><trkpt lat="44.6654596" lon="9.2949909"><ele>865.9999999999999</ele><time>2026-04-23T13:06:36.715Z</time></trkpt><trkpt lat="44.6655242" lon="9.2950018"><ele>866.0</ele><time>2026-04-23T13:06:37.715Z</time></trkpt><trkpt lat="44.6656367" lon="9.2950511"><ele>871.5999999999999</ele><time>2026-04-23T13:06:39.715Z</time></trkpt><trkpt lat="44.6657301" lon="9.2950769"><ele>877.1999999999999</ele><time>2026-04-23T13:06:41.715Z</time></trkpt><trkpt lat="44.6658295" lon="9.2950527"><ele>882.8000000000001</ele><time>2026-04-23T13:06:43.715Z</time></trkpt><trkpt lat="44.665925" lon="9.2950147"><ele>888.4000000000001</ele><time>2026-04-23T13:06:45.716Z</time></trkpt><trkpt lat="44.6660466" lon="9.2949934"><ele>894.0</ele><time>2026-04-23T13:06:47.714Z</time></trkpt><trkpt lat="44.666114" lon="9.2949886"><ele>900.4000000000001</ele><time>2026-04-23T13:06:48.715Z</time></trkpt><trkpt lat="44.6661785" lon="9.2949952"><ele>906.8000000000001</ele><time>2026-04-23T13:06:49.715Z</time></trkpt><trkpt lat="44.6662851" lon="9.2950027"><ele>913.1999999999999</ele><time>2026-04-23T13:06:51.715Z</time></trkpt><trkpt lat="44.6663858" lon="9.2950108"><ele>919.5999999999999</ele><time>2026-04-23T13:06:53.716Z</time></trkpt><trkpt lat="44.6664851" lon="9.295043"><ele>926.0</ele><time>2026-04-23T13:06:55.717Z</time></trkpt><trkpt lat="44.6665717" lon="9.295075"><ele>926.0000000000001</ele><time>2026-04-23T13:06:57.715Z</time></trkpt><trkpt lat="44.6666584" lon="9.2951113"><ele>926.0</ele><time>2026-04-23T13:06:59.714Z</time></trkpt><trkpt lat="44.6667506" lon="9.2951589"><ele>926.0</ele><time>2026-04-23T13:07:01.716Z</time></trkpt><trkpt lat="44.6668267" lon="9.2951713"><ele>926.0</ele><time>2026-04-23T13:07:03.715Z</time></trkpt><trkpt lat="44.6668933" lon="9.2951798"><ele>926.0000000000001</ele><time>2026-04-23T13:07:05.717Z</time></trkpt><trkpt lat="44.6669856" lon="9.2952271"><ele>926.0</ele><time>2026-04-23T13:07:07.715Z</time></trkpt><trkpt lat="44.6670636" lon="9.295262"><ele>928.0000000000001</ele><time>2026-04-23T13:07:09.715Z</time></trkpt><trkpt lat="44.6671294" lon="9.2953024"><ele>930.0</ele><time>2026-04-23T13:07:13.715Z</time></trkpt><trkpt lat="44.6671887" lon="9.2953507"><ele>932.0</ele><time>2026-04-23T13:07:16.716Z</time></trkpt><trkpt lat="44.667262" lon="9.2953823"><ele>934.0</ele><time>2026-04-23T13:07:19.715Z</time></trkpt><trkpt lat="44.6673436" lon="9.2953767"><ele>936.0000000000001</ele><time>2026-04-23T13:08:27.715Z</time></trkpt><trkpt lat="44.6673625" lon="9.29526"><ele>938.0</ele><time>2026-04-23T13:08:29.716Z</time></trkpt><trkpt lat="44.6673811" lon="9.2951426"><ele>938.0</ele><time>2026-04-23T13:08:31.716Z</time></trkpt><trkpt lat="44.6674156" lon="9.2950582"><ele>938.0</ele><time>2026-04-23T13:08:33.717Z</time></trkpt><trkpt lat="44.6674732" lon="9.2949528"><ele>938.0</ele><time>2026-04-23T13:08:35.715Z</time></trkpt><trkpt lat="44.6675227" lon="9.2948279"><ele>938.0</ele><time>2026-04-23T13:08:37.714Z</time></trkpt><trkpt lat="44.6675754" lon="9.2947166"><ele>938.0</ele><time>2026-04-23T13:08:39.716Z</time></trkpt><trkpt lat="44.667625" lon="9.2945988"><ele>938.4</ele><time>2026-04-23T13:08:41.714Z</time></trkpt><trkpt lat="44.667703" lon="9.294493"><ele>938.8</ele><time>2026-04-23T13:08:43.715Z</time></trkpt><trkpt lat="44.6677528" lon="9.2944382"><ele>939.2</ele><time>2026-04-23T13:08:44.715Z</time></trkpt><trkpt lat="44.6678408" lon="9.2943514"><ele>939.6</ele><time>2026-04-23T13:08:46.714Z</time></trkpt><trkpt lat="44.6678914" lon="9.2942589"><ele>940.0</ele><time>2026-04-23T13:08:48.715Z</time></trkpt><trkpt lat="44.6679297" lon="9.2941198"><ele>939.1666666666666</ele><time>2026-04-23T13:08:50.717Z</time></trkpt><trkpt lat="44.6679556" lon="9.2940219"><ele>938.3333333333333</ele><time>2026-04-23T13:08:51.715Z</time></trkpt><trkpt lat="44.6679903" lon="9.2939073"><ele>937.5</ele><time>2026-04-23T13:08:52.715Z</time></trkpt><trkpt lat="44.6680329" lon="9.2937998"><ele>936.6666666666667</ele><time>2026-04-23T13:08:53.715Z</time></trkpt><trkpt lat="44.6680738" lon="9.2936968"><ele>935.8333333333334</ele><time>2026-04-23T13:08:54.716Z</time></trkpt><trkpt lat="44.6681124" lon="9.2935923"><ele>935.0</ele><time>2026-04-23T13:08:55.715Z</time></trkpt><trkpt lat="44.6681535" lon="9.2934877"><ele>935.0000000000001</ele><time>2026-04-23T13:08:56.715Z</time></trkpt><trkpt lat="44.6682038" lon="9.2933964"><ele>935.0</ele><time>2026-04-23T13:08:57.714Z</time></trkpt><trkpt lat="44.6682626" lon="9.2933227"><ele>935.0</ele><time>2026-04-23T13:08:58.715Z</time></trkpt><trkpt lat="44.6683315" lon="9.2932702"><ele>935.0</ele><time>2026-04-23T13:08:59.715Z</time></trkpt><trkpt lat="44.6684044" lon="9.2932276"><ele>935.0000000000001</ele><time>2026-04-23T13:09:00.713Z</time></trkpt><trkpt lat="44.6684735" lon="9.2931892"><ele>935.0</ele><time>2026-04-23T13:09:01.715Z</time></trkpt><trkpt lat="44.6685696" lon="9.2931077"><ele>934.5714285714287</ele><time>2026-04-23T13:09:03.714Z</time></trkpt><trkpt lat="44.6685948" lon="9.2930108"><ele>934.1428571428571</ele><time>2026-04-23T13:09:05.714Z</time></trkpt><trkpt lat="44.6686177" lon="9.2929153"><ele>933.7142857142858</ele><time>2026-04-23T13:09:07.715Z</time></trkpt><trkpt lat="44.6686434" lon="9.2928224"><ele>933.2857142857143</ele><time>2026-04-23T13:09:10.715Z</time></trkpt><trkpt lat="44.668681" lon="9.2927256"><ele>932.8571428571429</ele><time>2026-04-23T13:09:14.715Z</time></trkpt><trkpt lat="44.6687238" lon="9.2926482"><ele>932.4285714285714</ele><time>2026-04-23T13:09:18.716Z</time></trkpt><trkpt lat="44.6686981" lon="9.2925533"><ele>932.0</ele><time>2026-04-23T13:09:22.714Z</time></trkpt><trkpt lat="44.6686425" lon="9.2924786"><ele>935.0</ele><time>2026-04-23T13:09:25.715Z</time></trkpt><trkpt lat="44.6686118" lon="9.2923769"><ele>938.0</ele><time>2026-04-23T13:09:27.715Z</time></trkpt><trkpt lat="44.6686124" lon="9.2922407"><ele>941.0</ele><time>2026-04-23T13:09:29.714Z</time></trkpt><trkpt lat="44.6686356" lon="9.292106"><ele>944.0</ele><time>2026-04-23T13:09:31.714Z</time></trkpt><trkpt lat="44.6686345" lon="9.291972"><ele>947.0</ele><time>2026-04-23T13:09:33.716Z</time></trkpt><trkpt lat="44.6686107" lon="9.2918613"><ele>943.1666666666667</ele><time>2026-04-23T13:09:35.716Z</time></trkpt><trkpt lat="44.6685944" lon="9.2917352"><ele>939.3333333333334</ele><time>2026-04-23T13:09:37.715Z</time></trkpt><trkpt lat="44.6686021" lon="9.2915972"><ele>935.5</ele><time>2026-04-23T13:09:39.716Z</time></trkpt><trkpt lat="44.6686092" lon="9.2914605"><ele>931.6666666666667</ele><time>2026-04-23T13:09:41.714Z</time></trkpt><trkpt lat="44.6685859" lon="9.2913487"><ele>927.8333333333334</ele><time>2026-04-23T13:09:43.715Z</time></trkpt><trkpt lat="44.6685533" lon="9.2912598"><ele>924.0</ele><time>2026-04-23T13:09:45.716Z</time></trkpt><trkpt lat="44.6685361" lon="9.2911492"><ele>922.8333333333334</ele><time>2026-04-23T13:09:47.715Z</time></trkpt><trkpt lat="44.6685502" lon="9.2910054"><ele>921.6666666666667</ele><time>2026-04-23T13:09:49.716Z</time></trkpt><trkpt lat="44.6685485" lon="9.2909025"><ele>920.5</ele><time>2026-04-23T13:09:51.716Z</time></trkpt><trkpt lat="44.6685008" lon="9.2908326"><ele>919.3333333333334</ele><time>2026-04-23T13:09:53.716Z</time></trkpt><trkpt lat="44.6684383" lon="9.2907417"><ele>918.1666666666667</ele><time>2026-04-23T13:09:55.716Z</time></trkpt><trkpt lat="44.6683933" lon="9.290595"><ele>917.0</ele><time>2026-04-23T13:09:57.714Z</time></trkpt><trkpt lat="44.6683717" lon="9.29051"><ele>917.0</ele><time>2026-04-23T13:09:58.714Z</time></trkpt><trkpt lat="44.668315" lon="9.2903883"><ele>917.0</ele><time>2026-04-23T13:10:00.713Z</time></trkpt><trkpt lat="44.668265" lon="9.2902767"><ele>917.0</ele><time>2026-04-23T13:10:02.713Z</time></trkpt><trkpt lat="44.668205" lon="9.290155"><ele>917.0</ele><time>2026-04-23T13:10:04.715Z</time></trkpt><trkpt lat="44.6681567" lon="9.2900467"><ele>917.0</ele><time>2026-04-23T13:10:06.715Z</time></trkpt><trkpt lat="44.6681067" lon="9.2899017"><ele>917.0</ele><time>2026-04-23T13:10:08.716Z</time></trkpt><trkpt lat="44.6680467" lon="9.2897667"><ele>917.0</ele><time>2026-04-23T13:10:10.714Z</time></trkpt><trkpt lat="44.66797" lon="9.2896433"><ele>917.0</ele><time>2026-04-23T13:10:12.714Z</time></trkpt><trkpt lat="44.66789" lon="9.2895333"><ele>917.0</ele><time>2026-04-23T13:10:14.716Z</time></trkpt><trkpt lat="44.6678133" lon="9.289435"><ele>917.0</ele><time>2026-04-23T13:10:16.714Z</time></trkpt><trkpt lat="44.6677483" lon="9.2893333"><ele>911.4000000000001</ele><time>2026-04-23T13:10:18.716Z</time></trkpt><trkpt lat="44.6676883" lon="9.2891917"><ele>905.8000000000001</ele><time>2026-04-23T13:10:20.715Z</time></trkpt><trkpt lat="44.6676117" lon="9.2890683"><ele>900.2</ele><time>2026-04-23T13:10:22.714Z</time></trkpt><trkpt lat="44.6675333" lon="9.2889617"><ele>894.6</ele><time>2026-04-23T13:10:24.715Z</time></trkpt><trkpt lat="44.6674817" lon="9.2888433"><ele>889.0</ele><time>2026-04-23T13:10:26.715Z</time></trkpt><trkpt lat="44.6674617" lon="9.2887083"><ele>888.9999999999999</ele><time>2026-04-23T13:10:28.715Z</time></trkpt><trkpt lat="44.6674517" lon="9.2885867"><ele>889.0</ele><time>2026-04-23T13:10:30.716Z</time></trkpt><trkpt lat="44.6674517" lon="9.2884733"><ele>889.0</ele><time>2026-04-23T13:10:32.716Z</time></trkpt><trkpt lat="44.66744" lon="9.28837"><ele>889.0</ele><time>2026-04-23T13:10:35.714Z</time></trkpt><trkpt lat="44.667415" lon="9.2882683"><ele>888.9999999999999</ele><time>2026-04-23T13:10:39.714Z</time></trkpt><trkpt lat="44.6673917" lon="9.2881467"><ele>889.0</ele><time>2026-04-23T13:10:41.715Z</time></trkpt><trkpt lat="44.6673617" lon="9.2879833"><ele>888.8333333333333</ele><time>2026-04-23T13:10:43.714Z</time></trkpt><trkpt lat="44.6673517" lon="9.2878433"><ele>888.6666666666666</ele><time>2026-04-23T13:10:45.715Z</time></trkpt><trkpt lat="44.6673817" lon="9.2877333"><ele>888.5</ele><time>2026-04-23T13:10:47.715Z</time></trkpt><trkpt lat="44.6674367" lon="9.287635"><ele>888.3333333333333</ele><time>2026-04-23T13:10:49.718Z</time></trkpt><trkpt lat="44.667465" lon="9.28753"><ele>888.1666666666666</ele><time>2026-04-23T13:10:51.715Z</time></trkpt><trkpt lat="44.6674767" lon="9.2874117"><ele>888.0</ele><time>2026-04-23T13:10:53.716Z</time></trkpt><trkpt lat="44.66749" lon="9.2872817"><ele>887.8</ele><time>2026-04-23T13:10:55.715Z</time></trkpt><trkpt lat="44.6675117" lon="9.2871317"><ele>887.5999999999999</ele><time>2026-04-23T13:10:57.715Z</time></trkpt><trkpt lat="44.66754" lon="9.286965"><ele>887.4000000000001</ele><time>2026-04-23T13:10:59.716Z</time></trkpt><trkpt lat="44.667565" lon="9.2868033"><ele>887.2</ele><time>2026-04-23T13:11:01.715Z</time></trkpt><trkpt lat="44.667575" lon="9.2866733"><ele>887.0</ele><time>2026-04-23T13:11:03.714Z</time></trkpt><trkpt lat="44.667535" lon="9.2865517"><ele>887.0000000000001</ele><time>2026-04-23T13:11:05.714Z</time></trkpt><trkpt lat="44.6675067" lon="9.2864683"><ele>887.0</ele><time>2026-04-23T13:11:06.714Z</time></trkpt><trkpt lat="44.667475" lon="9.286385"><ele>887.0</ele><time>2026-04-23T13:11:07.714Z</time></trkpt><trkpt lat="44.6674417" lon="9.2863033"><ele>887.0</ele><time>2026-04-23T13:11:08.715Z</time></trkpt><trkpt lat="44.6673967" lon="9.2861567"><ele>887.0000000000001</ele><time>2026-04-23T13:11:10.715Z</time></trkpt><trkpt lat="44.6673567" lon="9.2860017"><ele>887.0</ele><time>2026-04-23T13:11:12.716Z</time></trkpt><trkpt lat="44.6673233" lon="9.28592"><ele>886.8</ele><time>2026-04-23T13:11:13.715Z</time></trkpt><trkpt lat="44.6672683" lon="9.2858"><ele>886.6</ele><time>2026-04-23T13:11:15.715Z</time></trkpt><trkpt lat="44.667235" lon="9.2856633"><ele>886.3999999999999</ele><time>2026-04-23T13:11:17.715Z</time></trkpt><trkpt lat="44.6672267" lon="9.285515"><ele>886.1999999999999</ele><time>2026-04-23T13:11:19.717Z</time></trkpt><trkpt lat="44.6672517" lon="9.28537"><ele>886.0</ele><time>2026-04-23T13:11:21.715Z</time></trkpt><trkpt lat="44.667305" lon="9.285245"><ele>886.0</ele><time>2026-04-23T13:11:23.715Z</time></trkpt><trkpt lat="44.6673583" lon="9.285095"><ele>886.0</ele><time>2026-04-23T13:11:25.714Z</time></trkpt><trkpt lat="44.6674283" lon="9.28495"><ele>886.0</ele><time>2026-04-23T13:11:27.717Z</time></trkpt><trkpt lat="44.6674867" lon="9.2848167"><ele>886.0</ele><time>2026-04-23T13:11:29.715Z</time></trkpt><trkpt lat="44.6675333" lon="9.2846783"><ele>886.1999999999999</ele><time>2026-04-23T13:11:31.715Z</time></trkpt><trkpt lat="44.6675417" lon="9.284535"><ele>886.3999999999999</ele><time>2026-04-23T13:11:33.715Z</time></trkpt><trkpt lat="44.6675233" lon="9.2843983"><ele>886.6</ele><time>2026-04-23T13:11:35.714Z</time></trkpt><trkpt lat="44.6675167" lon="9.2842683"><ele>886.8</ele><time>2026-04-23T13:11:37.716Z</time></trkpt><trkpt lat="44.6675" lon="9.2841433"><ele>887.0</ele><time>2026-04-23T13:11:39.715Z</time></trkpt><trkpt lat="44.667465" lon="9.2840083"><ele>887.2</ele><time>2026-04-23T13:11:41.716Z</time></trkpt><trkpt lat="44.66743" lon="9.28389"><ele>887.4000000000001</ele><time>2026-04-23T13:11:43.716Z</time></trkpt><trkpt lat="44.667415" lon="9.283765"><ele>887.5999999999999</ele><time>2026-04-23T13:11:45.715Z</time></trkpt><trkpt lat="44.6674567" lon="9.2836217"><ele>887.8</ele><time>2026-04-23T13:11:47.715Z</time></trkpt><trkpt lat="44.6674967" lon="9.2834933"><ele>888.0</ele><time>2026-04-23T13:11:48.716Z</time></trkpt><trkpt lat="44.6675267" lon="9.2833483"><ele>888.0</ele><time>2026-04-23T13:11:49.715Z</time></trkpt><trkpt lat="44.6675483" lon="9.2831983"><ele>888.0</ele><time>2026-04-23T13:11:50.716Z</time></trkpt><trkpt lat="44.6675633" lon="9.283055"><ele>888.0</ele><time>2026-04-23T13:11:51.717Z</time></trkpt><trkpt lat="44.66757" lon="9.2829133"><ele>888.0</ele><time>2026-04-23T13:11:52.716Z</time></trkpt><trkpt lat="44.667565" lon="9.2827967"><ele>888.0</ele><time>2026-04-23T13:11:53.717Z</time></trkpt><trkpt lat="44.6675617" lon="9.282695"><ele>887.3333333333334</ele><time>2026-04-23T13:11:54.715Z</time></trkpt><trkpt lat="44.6675783" lon="9.28256"><ele>886.6666666666667</ele><time>2026-04-23T13:11:56.715Z</time></trkpt><trkpt lat="44.6676517" lon="9.2826483"><ele>886.0</ele><time>2026-04-23T13:11:59.715Z</time></trkpt><trkpt lat="44.6676733" lon="9.2827433"><ele>885.3333333333334</ele><time>2026-04-23T13:12:00.715Z</time></trkpt><trkpt lat="44.6677" lon="9.282865"><ele>884.6666666666667</ele><time>2026-04-23T13:12:01.715Z</time></trkpt><trkpt lat="44.6677383" lon="9.28298"><ele>884.0</ele><time>2026-04-23T13:12:02.716Z</time></trkpt><trkpt lat="44.6677733" lon="9.2830917"><ele>890.1666666666667</ele><time>2026-04-23T13:12:03.715Z</time></trkpt><trkpt lat="44.667795" lon="9.2831967"><ele>896.3333333333334</ele><time>2026-04-23T13:12:04.714Z</time></trkpt><trkpt lat="44.6678083" lon="9.2832933"><ele>902.5</ele><time>2026-04-23T13:12:05.718Z</time></trkpt><trkpt lat="44.6678317" lon="9.283455"><ele>908.6666666666667</ele><time>2026-04-23T13:12:07.714Z</time></trkpt><trkpt lat="44.6678867" lon="9.2835767"><ele>914.8333333333334</ele><time>2026-04-23T13:12:09.715Z</time></trkpt><trkpt lat="44.6679483" lon="9.2835133"><ele>921.0</ele><time>2026-04-23T13:12:11.714Z</time></trkpt><trkpt lat="44.6679583" lon="9.28335"><ele>921.0</ele><time>2026-04-23T13:12:13.715Z</time></trkpt><trkpt lat="44.66796" lon="9.2832483"><ele>920.9999999999999</ele><time>2026-04-23T13:12:14.716Z</time></trkpt><trkpt lat="44.6679583" lon="9.2830733"><ele>920.9999999999999</ele><time>2026-04-23T13:12:16.715Z</time></trkpt><trkpt lat="44.667985" lon="9.2829233"><ele>921.0</ele><time>2026-04-23T13:12:18.716Z</time></trkpt><trkpt lat="44.6680717" lon="9.2827917"><ele>921.0</ele><time>2026-04-23T13:12:20.716Z</time></trkpt><trkpt lat="44.6681183" lon="9.2827217"><ele>919.1666666666666</ele><time>2026-04-23T13:12:21.715Z</time></trkpt><trkpt lat="44.668165" lon="9.2826567"><ele>917.3333333333333</ele><time>2026-04-23T13:12:22.715Z</time></trkpt><trkpt lat="44.66826" lon="9.2825617"><ele>915.5</ele><time>2026-04-23T13:12:24.716Z</time></trkpt><trkpt lat="44.6683167" lon="9.2825117"><ele>913.6666666666666</ele><time>2026-04-23T13:12:25.715Z</time></trkpt><trkpt lat="44.66838" lon="9.2824417"><ele>911.8333333333333</ele><time>2026-04-23T13:12:26.716Z</time></trkpt><trkpt lat="44.66844" lon="9.2823717"><ele>910.0</ele><time>2026-04-23T13:12:27.716Z</time></trkpt><trkpt lat="44.6685017" lon="9.282305"><ele>908.2</ele><time>2026-04-23T13:12:28.714Z</time></trkpt><trkpt lat="44.6685717" lon="9.282225"><ele>906.4</ele><time>2026-04-23T13:12:29.714Z</time></trkpt><trkpt lat="44.6686617" lon="9.2821367"><ele>904.5999999999999</ele><time>2026-04-23T13:12:30.713Z</time></trkpt><trkpt lat="44.66876" lon="9.2820517"><ele>902.8</ele><time>2026-04-23T13:12:31.715Z</time></trkpt><trkpt lat="44.6688683" lon="9.28198"><ele>901.0</ele><time>2026-04-23T13:12:32.715Z</time></trkpt><trkpt lat="44.66897" lon="9.28191"><ele>906.4</ele><time>2026-04-23T13:12:33.715Z</time></trkpt><trkpt lat="44.6690517" lon="9.2818333"><ele>911.8</ele><time>2026-04-23T13:12:34.716Z</time></trkpt><trkpt lat="44.669125" lon="9.2817467"><ele>917.1999999999999</ele><time>2026-04-23T13:12:35.715Z</time></trkpt><trkpt lat="44.6691967" lon="9.2816567"><ele>922.5999999999999</ele><time>2026-04-23T13:12:36.715Z</time></trkpt><trkpt lat="44.669275" lon="9.2815683"><ele>928.0</ele><time>2026-04-23T13:12:37.715Z</time></trkpt><trkpt lat="44.6693533" lon="9.281475"><ele>926.2</ele><time>2026-04-23T13:12:38.717Z</time></trkpt><trkpt lat="44.669425" lon="9.2813717"><ele>924.4</ele><time>2026-04-23T13:12:39.714Z</time></trkpt><trkpt lat="44.6694817" lon="9.2812733"><ele>922.6000000000001</ele><time>2026-04-23T13:12:40.714Z</time></trkpt><trkpt lat="44.66954" lon="9.2811883"><ele>920.8000000000001</ele><time>2026-04-23T13:12:41.715Z</time></trkpt><trkpt lat="44.6696033" lon="9.2811183"><ele>919.0</ele><time>2026-04-23T13:12:42.714Z</time></trkpt><trkpt lat="44.6696817" lon="9.2810417"><ele>924.0</ele><time>2026-04-23T13:12:43.716Z</time></trkpt><trkpt lat="44.6697683" lon="9.2809633"><ele>929.0000000000001</ele><time>2026-04-23T13:12:44.715Z</time></trkpt><trkpt lat="44.6698567" lon="9.2808783"><ele>934.0000000000001</ele><time>2026-04-23T13:12:45.716Z</time></trkpt><trkpt lat="44.6699517" lon="9.28079"><ele>939.0</ele><time>2026-04-23T13:12:46.715Z</time></trkpt><trkpt lat="44.670045" lon="9.280705"><ele>944.0</ele><time>2026-04-23T13:12:47.715Z</time></trkpt><trkpt lat="44.6701333" lon="9.28063"><ele>941.0</ele><time>2026-04-23T13:12:48.716Z</time></trkpt><trkpt lat="44.6702183" lon="9.280575"><ele>938.0</ele><time>2026-04-23T13:12:49.717Z</time></trkpt><trkpt lat="44.6702933" lon="9.2805383"><ele>935.0</ele><time>2026-04-23T13:12:50.718Z</time></trkpt><trkpt lat="44.6703883" lon="9.280505"><ele>932.0</ele><time>2026-04-23T13:12:52.714Z</time></trkpt><trkpt lat="44.6706209" lon="9.280499"><ele>937.6</ele><time>2026-04-23T13:13:46.678Z</time></trkpt><trkpt lat="44.6707164" lon="9.2804925"><ele>943.2</ele><time>2026-04-23T13:13:48.723Z</time></trkpt><trkpt lat="44.6707956" lon="9.2804718"><ele>948.8</ele><time>2026-04-23T13:13:50.777Z</time></trkpt><trkpt lat="44.6708775" lon="9.2804607"><ele>954.4</ele><time>2026-04-23T13:13:52.721Z</time></trkpt><trkpt lat="44.6709682" lon="9.2805081"><ele>960.0</ele><time>2026-04-23T13:13:54.754Z</time></trkpt><trkpt lat="44.6710705" lon="9.280554"><ele>966.0</ele><time>2026-04-23T13:13:56.817Z</time></trkpt><trkpt lat="44.6711837" lon="9.2806305"><ele>972.0</ele><time>2026-04-23T13:13:58.713Z</time></trkpt><trkpt lat="44.6712899" lon="9.2806871"><ele>978.0</ele><time>2026-04-23T13:14:00.713Z</time></trkpt><trkpt lat="44.6713964" lon="9.2807674"><ele>984.0</ele><time>2026-04-23T13:14:02.715Z</time></trkpt><trkpt lat="44.6714766" lon="9.2808442"><ele>984.0</ele><time>2026-04-23T13:14:04.715Z</time></trkpt><trkpt lat="44.6715434" lon="9.2809099"><ele>984.0000000000001</ele><time>2026-04-23T13:14:07.713Z</time></trkpt><trkpt lat="44.6716225" lon="9.2809723"><ele>984.0000000000001</ele><time>2026-04-23T13:14:10.717Z</time></trkpt><trkpt lat="44.6716993" lon="9.281047"><ele>984.0</ele><time>2026-04-23T13:14:12.713Z</time></trkpt><trkpt lat="44.671781" lon="9.2811116"><ele>984.0</ele><time>2026-04-23T13:14:14.714Z</time></trkpt><trkpt lat="44.6718753" lon="9.2811375"><ele>989.1666666666666</ele><time>2026-04-23T13:14:16.713Z</time></trkpt><trkpt lat="44.6719669" lon="9.281151"><ele>994.3333333333333</ele><time>2026-04-23T13:14:18.714Z</time></trkpt><trkpt lat="44.6720436" lon="9.2811785"><ele>999.5</ele><time>2026-04-23T13:14:20.715Z</time></trkpt><trkpt lat="44.6721113" lon="9.2812459"><ele>1004.6666666666666</ele><time>2026-04-23T13:14:22.714Z</time></trkpt><trkpt lat="44.6721578" lon="9.2813388"><ele>1009.8333333333333</ele><time>2026-04-23T13:14:24.715Z</time></trkpt><trkpt lat="44.672157" lon="9.2814285"><ele>1015.0</ele><time>2026-04-23T13:14:27.713Z</time></trkpt><trkpt lat="44.672088" lon="9.2814922"><ele>1015.1666666666666</ele><time>2026-04-23T13:14:29.714Z</time></trkpt><trkpt lat="44.6720333" lon="9.2815448"><ele>1015.3333333333333</ele><time>2026-04-23T13:14:30.715Z</time></trkpt><trkpt lat="44.6719837" lon="9.2815995"><ele>1015.5</ele><time>2026-04-23T13:14:31.715Z</time></trkpt><trkpt lat="44.6719237" lon="9.2817123"><ele>1015.6666666666667</ele><time>2026-04-23T13:14:33.714Z</time></trkpt><trkpt lat="44.6718707" lon="9.2818348"><ele>1015.8333333333334</ele><time>2026-04-23T13:14:35.714Z</time></trkpt><trkpt lat="44.6718267" lon="9.2819309"><ele>1016.0</ele><time>2026-04-23T13:14:37.713Z</time></trkpt><trkpt lat="44.6718261" lon="9.2820359"><ele>1016.0</ele><time>2026-04-23T13:14:40.715Z</time></trkpt><trkpt lat="44.6718998" lon="9.2820982"><ele>1015.9999999999999</ele><time>2026-04-23T13:14:42.715Z</time></trkpt><trkpt lat="44.6719976" lon="9.2821468"><ele>1015.9999999999999</ele><time>2026-04-23T13:14:44.714Z</time></trkpt><trkpt lat="44.6720964" lon="9.2821844"><ele>1016.0</ele><time>2026-04-23T13:14:46.714Z</time></trkpt><trkpt lat="44.6721848" lon="9.2822235"><ele>1016.0</ele><time>2026-04-23T13:14:48.714Z</time></trkpt><trkpt lat="44.6722266" lon="9.2823403"><ele>1019.5999999999999</ele><time>2026-04-23T13:14:51.806Z</time></trkpt><trkpt lat="44.6722222" lon="9.2824411"><ele>1023.1999999999999</ele><time>2026-04-23T13:14:53.782Z</time></trkpt><trkpt lat="44.6721598" lon="9.2824626"><ele>1026.8000000000002</ele><time>2026-04-23T13:14:55.645Z</time></trkpt><trkpt lat="44.6721603" lon="9.282623"><ele>1030.4</ele><time>2026-04-23T13:14:57.734Z</time></trkpt><trkpt lat="44.6720966" lon="9.282851"><ele>1034.0</ele><time>2026-04-23T13:14:59.713Z</time></trkpt><trkpt lat="44.6720625" lon="9.28299"><ele>1034.0</ele><time>2026-04-23T13:15:01.684Z</time></trkpt><trkpt lat="44.6720461" lon="9.2830886"><ele>1034.0</ele><time>2026-04-23T13:15:02.784Z</time></trkpt><trkpt lat="44.6720463" lon="9.2832127"><ele>1034.0</ele><time>2026-04-23T13:15:05.827Z</time></trkpt><trkpt lat="44.6721269" lon="9.2833135"><ele>1034.0</ele><time>2026-04-23T13:15:08.758Z</time></trkpt><trkpt lat="44.6722132" lon="9.2833663"><ele>1034.0</ele><time>2026-04-23T13:15:10.734Z</time></trkpt><trkpt lat="44.6722976" lon="9.2833187"><ele>1034.0</ele><time>2026-04-23T13:15:12.715Z</time></trkpt><trkpt lat="44.6723584" lon="9.2832442"><ele>1034.0</ele><time>2026-04-23T13:15:14.79Z</time></trkpt><trkpt lat="44.6724424" lon="9.2831771"><ele>1034.0</ele><time>2026-04-23T13:15:16.768Z</time></trkpt><trkpt lat="44.672513" lon="9.2831243"><ele>1034.0</ele><time>2026-04-23T13:15:18.742Z</time></trkpt><trkpt lat="44.6726117" lon="9.2830755"><ele>1034.0</ele><time>2026-04-23T13:15:20.718Z</time></trkpt><trkpt lat="44.6726764" lon="9.2830447"><ele>1034.0</ele><time>2026-04-23T13:15:21.713Z</time></trkpt><trkpt lat="44.6727358" lon="9.283012"><ele>1041.6000000000001</ele><time>2026-04-23T13:15:22.717Z</time></trkpt><trkpt lat="44.6728384" lon="9.2829556"><ele>1049.2</ele><time>2026-04-23T13:15:24.713Z</time></trkpt><trkpt lat="44.6729146" lon="9.2828994"><ele>1056.8000000000002</ele><time>2026-04-23T13:15:27.714Z</time></trkpt><trkpt lat="44.6729911" lon="9.2828334"><ele>1064.4</ele><time>2026-04-23T13:15:29.715Z</time></trkpt><trkpt lat="44.6730857" lon="9.2827836"><ele>1072.0</ele><time>2026-04-23T13:15:32.811Z</time></trkpt><trkpt lat="44.6731512" lon="9.2827395"><ele>1072.0</ele><time>2026-04-23T13:15:33.746Z</time></trkpt><trkpt lat="44.6732139" lon="9.282624"><ele>1072.0</ele><time>2026-04-23T13:15:35.722Z</time></trkpt><trkpt lat="44.6732867" lon="9.282557"><ele>1072.0</ele><time>2026-04-23T13:15:37.802Z</time></trkpt><trkpt lat="44.6733962" lon="9.2824869"><ele>1072.0</ele><time>2026-04-23T13:15:41.117Z</time></trkpt><trkpt lat="44.6734646" lon="9.2824479"><ele>1072.0</ele><time>2026-04-23T13:15:43.477Z</time></trkpt><trkpt lat="44.6735422" lon="9.2823815"><ele>1075.0</ele><time>2026-04-23T13:15:47.786Z</time></trkpt><trkpt lat="44.6736114" lon="9.2823528"><ele>1078.0</ele><time>2026-04-23T13:15:49.762Z</time></trkpt><trkpt lat="44.6736716" lon="9.2823048"><ele>1081.0</ele><time>2026-04-23T13:15:51.812Z</time></trkpt><trkpt lat="44.6737426" lon="9.2822562"><ele>1084.0</ele><time>2026-04-23T13:15:53.738Z</time></trkpt><trkpt lat="44.6738228" lon="9.2822206"><ele>1087.0</ele><time>2026-04-23T13:15:55.794Z</time></trkpt><trkpt lat="44.6739377" lon="9.2821921"><ele>1090.0</ele><time>2026-04-23T13:15:57.713Z</time></trkpt><trkpt lat="44.674045" lon="9.2821812"><ele>1090.0</ele><time>2026-04-23T13:15:59.716Z</time></trkpt><trkpt lat="44.6741369" lon="9.2822072"><ele>1090.0</ele><time>2026-04-23T13:16:01.733Z</time></trkpt><trkpt lat="44.6742276" lon="9.2822461"><ele>1090.0</ele><time>2026-04-23T13:16:03.766Z</time></trkpt><trkpt lat="44.6743096" lon="9.2822274"><ele>1090.0</ele><time>2026-04-23T13:16:05.742Z</time></trkpt><trkpt lat="44.6743923" lon="9.28223"><ele>1090.0</ele><time>2026-04-23T13:16:08.758Z</time></trkpt><trkpt lat="44.6744633" lon="9.2823083"><ele>1090.0</ele><time>2026-04-23T13:24:43.713Z</time></trkpt><trkpt lat="44.67453" lon="9.282385"><ele>1096.3333333333333</ele><time>2026-04-23T13:24:45.712Z</time></trkpt><trkpt lat="44.6746217" lon="9.282425"><ele>1102.6666666666665</ele><time>2026-04-23T13:24:47.713Z</time></trkpt><trkpt lat="44.67469" lon="9.2824117"><ele>1109.0</ele><time>2026-04-23T13:24:49.713Z</time></trkpt><trkpt lat="44.6747667" lon="9.282395"><ele>1115.3333333333333</ele><time>2026-04-23T13:24:51.712Z</time></trkpt><trkpt lat="44.6748533" lon="9.2823783"><ele>1121.6666666666667</ele><time>2026-04-23T13:24:53.712Z</time></trkpt><trkpt lat="44.674945" lon="9.2823583"><ele>1128.0</ele><time>2026-04-23T13:24:55.712Z</time></trkpt><trkpt lat="44.6750467" lon="9.2823083"><ele>1130.75</ele><time>2026-04-23T13:24:57.712Z</time></trkpt><trkpt lat="44.6751433" lon="9.2822433"><ele>1133.5</ele><time>2026-04-23T13:24:59.712Z</time></trkpt><trkpt lat="44.675255" lon="9.2821533"><ele>1136.25</ele><time>2026-04-23T13:25:01.713Z</time></trkpt><trkpt lat="44.675354" lon="9.2820854"><ele>1139.0</ele><time>2026-04-23T13:25:03.714Z</time></trkpt><trkpt lat="44.6754596" lon="9.2820493"><ele>1139.0</ele><time>2026-04-23T13:25:05.713Z</time></trkpt><trkpt lat="44.6755235" lon="9.2820198"><ele>1139.0</ele><time>2026-04-23T13:25:06.714Z</time></trkpt><trkpt lat="44.6756299" lon="9.2819523"><ele>1139.0</ele><time>2026-04-23T13:25:08.714Z</time></trkpt><trkpt lat="44.6757176" lon="9.2818611"><ele>1139.0</ele><time>2026-04-23T13:25:10.713Z</time></trkpt><trkpt lat="44.6758229" lon="9.281781"><ele>1139.0</ele><time>2026-04-23T13:25:12.712Z</time></trkpt><trkpt lat="44.6759173" lon="9.2817146"><ele>1139.0</ele><time>2026-04-23T13:25:14.714Z</time></trkpt><trkpt lat="44.6760048" lon="9.2816523"><ele>1139.0</ele><time>2026-04-23T13:25:16.713Z</time></trkpt><trkpt lat="44.6760818" lon="9.2815888"><ele>1139.0</ele><time>2026-04-23T13:25:18.714Z</time></trkpt><trkpt lat="44.6761583" lon="9.2815433"><ele>1139.0</ele><time>2026-04-23T13:25:20.714Z</time></trkpt><trkpt lat="44.6762452" lon="9.2815099"><ele>1139.0</ele><time>2026-04-23T13:25:23.713Z</time></trkpt><trkpt lat="44.6762949" lon="9.2814518"><ele>1139.0</ele><time>2026-04-23T13:25:25.713Z</time></trkpt><trkpt lat="44.6763518" lon="9.2814069"><ele>1144.3333333333335</ele><time>2026-04-23T13:25:27.633Z</time></trkpt><trkpt lat="44.6764336" lon="9.2813639"><ele>1149.6666666666667</ele><time>2026-04-23T13:25:29.753Z</time></trkpt><trkpt lat="44.6764763" lon="9.2811877"><ele>1155.0</ele><time>2026-04-23T13:25:31.794Z</time></trkpt><trkpt lat="44.6765549" lon="9.2811619"><ele>1160.3333333333333</ele><time>2026-04-23T13:25:33.779Z</time></trkpt><trkpt lat="44.6766295" lon="9.2811848"><ele>1165.6666666666665</ele><time>2026-04-23T13:25:39.712Z</time></trkpt><trkpt lat="44.6766918" lon="9.281137"><ele>1171.0</ele><time>2026-04-23T13:25:58.713Z</time></trkpt><trkpt lat="44.6767719" lon="9.2811432"><ele>1171.0</ele><time>2026-04-23T13:26:00.712Z</time></trkpt><trkpt lat="44.6768378" lon="9.2811323"><ele>1171.0</ele><time>2026-04-23T13:26:03.714Z</time></trkpt><trkpt lat="44.6768402" lon="9.2810275"><ele>1171.0</ele><time>2026-04-23T13:26:07.714Z</time></trkpt><trkpt lat="44.6768327" lon="9.2809317"><ele>1171.0</ele><time>2026-04-23T13:26:10.714Z</time></trkpt><trkpt lat="44.6768295" lon="9.2808405"><ele>1171.0</ele><time>2026-04-23T13:26:12.713Z</time></trkpt><trkpt lat="44.6768284" lon="9.2807318"><ele>1171.0</ele><time>2026-04-23T13:26:14.713Z</time></trkpt><trkpt lat="44.6768512" lon="9.2806381"><ele>1171.0</ele><time>2026-04-23T13:26:16.712Z</time></trkpt><trkpt lat="44.6768709" lon="9.2805511"><ele>1172.0</ele><time>2026-04-23T13:26:18.713Z</time></trkpt><trkpt lat="44.6769243" lon="9.2804703"><ele>1173.0</ele><time>2026-04-23T13:26:20.713Z</time></trkpt><trkpt lat="44.67702" lon="9.2804203"><ele>1174.0</ele><time>2026-04-23T13:26:22.713Z</time></trkpt><trkpt lat="44.6771439" lon="9.2803778"><ele>1175.0</ele><time>2026-04-23T13:26:24.714Z</time></trkpt><trkpt lat="44.6772175" lon="9.2803486"><ele>1176.0</ele><time>2026-04-23T13:26:25.713Z</time></trkpt><trkpt lat="44.6772889" lon="9.2803199"><ele>1180.6666666666667</ele><time>2026-04-23T13:26:26.713Z</time></trkpt><trkpt lat="44.6773527" lon="9.2802933"><ele>1185.3333333333333</ele><time>2026-04-23T13:26:27.715Z</time></trkpt><trkpt lat="44.6774458" lon="9.280247"><ele>1190.0</ele><time>2026-04-23T13:26:29.714Z</time></trkpt><trkpt lat="44.6775072" lon="9.2802219"><ele>1194.6666666666665</ele><time>2026-04-23T13:26:31.713Z</time></trkpt><trkpt lat="44.6775695" lon="9.280189"><ele>1199.3333333333333</ele><time>2026-04-23T13:26:33.713Z</time></trkpt><trkpt lat="44.677666" lon="9.2801667"><ele>1204.0</ele><time>2026-04-23T13:26:35.713Z</time></trkpt><trkpt lat="44.6777759" lon="9.2801707"><ele>1208.6000000000001</ele><time>2026-04-23T13:26:37.713Z</time></trkpt><trkpt lat="44.6778845" lon="9.2801673"><ele>1213.2</ele><time>2026-04-23T13:26:39.713Z</time></trkpt><trkpt lat="44.6779895" lon="9.2801388"><ele>1217.8000000000002</ele><time>2026-04-23T13:26:41.713Z</time></trkpt><trkpt lat="44.678086" lon="9.2800907"><ele>1222.4</ele><time>2026-04-23T13:26:43.714Z</time></trkpt><trkpt lat="44.6781927" lon="9.2800464"><ele>1227.0</ele><time>2026-04-23T13:26:45.713Z</time></trkpt><trkpt lat="44.6782838" lon="9.2800121"><ele>1227.0</ele><time>2026-04-23T13:26:47.713Z</time></trkpt><trkpt lat="44.6783654" lon="9.2800111"><ele>1227.0</ele><time>2026-04-23T13:26:49.713Z</time></trkpt><trkpt lat="44.6784487" lon="9.2800073"><ele>1227.0</ele><time>2026-04-23T13:26:51.715Z</time></trkpt><trkpt lat="44.6785513" lon="9.2799903"><ele>1227.0</ele><time>2026-04-23T13:26:53.713Z</time></trkpt><trkpt lat="44.6786572" lon="9.2799556"><ele>1227.0</ele><time>2026-04-23T13:26:55.714Z</time></trkpt><trkpt lat="44.6787633" lon="9.2799244"><ele>1229.8333333333333</ele><time>2026-04-23T13:26:57.713Z</time></trkpt><trkpt lat="44.6788675" lon="9.2798966"><ele>1232.6666666666667</ele><time>2026-04-23T13:26:59.714Z</time></trkpt><trkpt lat="44.678974" lon="9.2798764"><ele>1235.5</ele><time>2026-04-23T13:27:01.714Z</time></trkpt><trkpt lat="44.6790483" lon="9.2798731"><ele>1238.3333333333335</ele><time>2026-04-23T13:27:03.714Z</time></trkpt><trkpt lat="44.6791101" lon="9.2799006"><ele>1241.1666666666667</ele><time>2026-04-23T13:27:05.713Z</time></trkpt><trkpt lat="44.6791842" lon="9.2799237"><ele>1244.0</ele><time>2026-04-23T13:27:18.713Z</time></trkpt><trkpt lat="44.6792768" lon="9.2799115"><ele>1244.0</ele><time>2026-04-23T13:27:21.713Z</time></trkpt><trkpt lat="44.6793521" lon="9.279896"><ele>1244.0</ele><time>2026-04-23T13:27:24.713Z</time></trkpt><trkpt lat="44.6793475" lon="9.2797983"><ele>1244.0</ele><time>2026-04-23T13:27:27.712Z</time></trkpt><trkpt lat="44.6793318" lon="9.279606"><ele>1244.0</ele><time>2026-04-23T13:28:17.714Z</time></trkpt><trkpt lat="44.6792898" lon="9.2795353"><ele>1244.0</ele><time>2026-04-23T13:28:18.714Z</time></trkpt><trkpt lat="44.6792423" lon="9.2794638"><ele>1244.0</ele><time>2026-04-23T13:28:19.714Z</time></trkpt><trkpt lat="44.6791918" lon="9.2793828"><ele>1249.0</ele><time>2026-04-23T13:28:20.716Z</time></trkpt><trkpt lat="44.6791377" lon="9.2792945"><ele>1254.0</ele><time>2026-04-23T13:28:21.714Z</time></trkpt><trkpt lat="44.6790776" lon="9.2791908"><ele>1259.0</ele><time>2026-04-23T13:28:22.715Z</time></trkpt><trkpt lat="44.6790107" lon="9.2790792"><ele>1264.0</ele><time>2026-04-23T13:28:23.714Z</time></trkpt><trkpt lat="44.678945" lon="9.2789587"><ele>1269.0</ele><time>2026-04-23T13:28:24.714Z</time></trkpt><trkpt lat="44.6788818" lon="9.278846"><ele>1268.6666666666667</ele><time>2026-04-23T13:28:25.714Z</time></trkpt><trkpt lat="44.6788136" lon="9.2787334"><ele>1268.3333333333333</ele><time>2026-04-23T13:28:26.719Z</time></trkpt><trkpt lat="44.678747" lon="9.278628"><ele>1268.0</ele><time>2026-04-23T13:28:27.715Z</time></trkpt><trkpt lat="44.6786864" lon="9.2785441"><ele>1267.6666666666665</ele><time>2026-04-23T13:28:28.714Z</time></trkpt><trkpt lat="44.6786313" lon="9.2784672"><ele>1267.3333333333333</ele><time>2026-04-23T13:28:29.714Z</time></trkpt><trkpt lat="44.67859" lon="9.2783995"><ele>1267.0</ele><time>2026-04-23T13:28:30.714Z</time></trkpt><trkpt lat="44.6785807" lon="9.2782921"><ele>1275.3333333333333</ele><time>2026-04-23T13:28:32.714Z</time></trkpt><trkpt lat="44.6786609" lon="9.278294"><ele>1283.6666666666665</ele><time>2026-04-23T13:28:34.714Z</time></trkpt><trkpt lat="44.6787189" lon="9.2783427"><ele>1292.0</ele><time>2026-04-23T13:28:35.713Z</time></trkpt><trkpt lat="44.6787887" lon="9.2784084"><ele>1300.3333333333333</ele><time>2026-04-23T13:28:36.713Z</time></trkpt><trkpt lat="44.6788676" lon="9.2784759"><ele>1308.6666666666667</ele><time>2026-04-23T13:28:37.713Z</time></trkpt><trkpt lat="44.6789554" lon="9.2785453"><ele>1317.0</ele><time>2026-04-23T13:28:38.714Z</time></trkpt><trkpt lat="44.6790523" lon="9.278613"><ele>1317.0</ele><time>2026-04-23T13:28:39.713Z</time></trkpt><trkpt lat="44.6791506" lon="9.2786781"><ele>1317.0</ele><time>2026-04-23T13:28:40.713Z</time></trkpt><trkpt lat="44.6792448" lon="9.2787366"><ele>1317.0</ele><time>2026-04-23T13:28:41.714Z</time></trkpt><trkpt lat="44.6793333" lon="9.278796"><ele>1317.0</ele><time>2026-04-23T13:28:42.713Z</time></trkpt><trkpt lat="44.6794074" lon="9.2788554"><ele>1317.0</ele><time>2026-04-23T13:28:43.714Z</time></trkpt><trkpt lat="44.6794743" lon="9.2789021"><ele>1312.8333333333333</ele><time>2026-04-23T13:28:44.716Z</time></trkpt><trkpt lat="44.6795329" lon="9.2789435"><ele>1308.6666666666667</ele><time>2026-04-23T13:28:45.713Z</time></trkpt><trkpt lat="44.6796417" lon="9.2790041"><ele>1304.5</ele><time>2026-04-23T13:28:47.713Z</time></trkpt><trkpt lat="44.6797028" lon="9.2790303"><ele>1300.3333333333335</ele><time>2026-04-23T13:28:48.714Z</time></trkpt><trkpt lat="44.6797703" lon="9.2790577"><ele>1296.1666666666667</ele><time>2026-04-23T13:28:49.713Z</time></trkpt><trkpt lat="44.6798376" lon="9.2790843"><ele>1292.0</ele><time>2026-04-23T13:28:50.714Z</time></trkpt><trkpt lat="44.6799038" lon="9.279103"><ele>1292.0</ele><time>2026-04-23T13:28:51.714Z</time></trkpt><trkpt lat="44.6799817" lon="9.2791183"><ele>1292.0</ele><time>2026-04-23T13:28:52.713Z</time></trkpt><trkpt lat="44.680065" lon="9.2791433"><ele>1292.0</ele><time>2026-04-23T13:28:53.713Z</time></trkpt><trkpt lat="44.6801483" lon="9.2791617"><ele>1292.0</ele><time>2026-04-23T13:28:54.713Z</time></trkpt><trkpt lat="44.680235" lon="9.2791833"><ele>1292.0</ele><time>2026-04-23T13:28:55.712Z</time></trkpt><trkpt lat="44.6803217" lon="9.2792033"><ele>1292.0</ele><time>2026-04-23T13:28:56.713Z</time></trkpt><trkpt lat="44.6803983" lon="9.2792233"><ele>1291.6666666666667</ele><time>2026-04-23T13:28:57.714Z</time></trkpt><trkpt lat="44.6804667" lon="9.2792383"><ele>1291.3333333333335</ele><time>2026-04-23T13:28:58.714Z</time></trkpt><trkpt lat="44.6805317" lon="9.2792367"><ele>1291.0</ele><time>2026-04-23T13:28:59.716Z</time></trkpt><trkpt lat="44.6806283" lon="9.2791817"><ele>1290.6666666666667</ele><time>2026-04-23T13:29:01.715Z</time></trkpt><trkpt lat="44.68067" lon="9.2791017"><ele>1290.3333333333333</ele><time>2026-04-23T13:29:03.714Z</time></trkpt><trkpt lat="44.6806333" lon="9.278985"><ele>1290.0</ele><time>2026-04-23T13:29:05.713Z</time></trkpt><trkpt lat="44.6805617" lon="9.278825"><ele>1290.0</ele><time>2026-04-23T13:29:07.714Z</time></trkpt><trkpt lat="44.6805317" lon="9.27872"><ele>1290.0</ele><time>2026-04-23T13:29:08.715Z</time></trkpt><trkpt lat="44.6805033" lon="9.2785883"><ele>1290.0</ele><time>2026-04-23T13:29:09.713Z</time></trkpt><trkpt lat="44.680485" lon="9.2784467"><ele>1290.0</ele><time>2026-04-23T13:29:10.715Z</time></trkpt><trkpt lat="44.6804667" lon="9.2783133"><ele>1290.0</ele><time>2026-04-23T13:29:11.714Z</time></trkpt><trkpt lat="44.6804467" lon="9.2781717"><ele>1295.0</ele><time>2026-04-23T13:29:12.714Z</time></trkpt><trkpt lat="44.6804317" lon="9.2780367"><ele>1300.0</ele><time>2026-04-23T13:29:13.713Z</time></trkpt><trkpt lat="44.680415" lon="9.27791"><ele>1305.0</ele><time>2026-04-23T13:29:14.715Z</time></trkpt><trkpt lat="44.6804" lon="9.2777833"><ele>1310.0</ele><time>2026-04-23T13:29:15.713Z</time></trkpt><trkpt lat="44.6803883" lon="9.277665"><ele>1315.0</ele><time>2026-04-23T13:29:16.713Z</time></trkpt><trkpt lat="44.680375" lon="9.2775533"><ele>1320.0</ele><time>2026-04-23T13:29:17.713Z</time></trkpt><trkpt lat="44.6803717" lon="9.2774567"><ele>1320.0</ele><time>2026-04-23T13:29:18.713Z</time></trkpt><trkpt lat="44.6804567" lon="9.2773117"><ele>1320.0</ele><time>2026-04-23T13:29:20.715Z</time></trkpt><trkpt lat="44.680535" lon="9.27725"><ele>1320.0</ele><time>2026-04-23T13:29:21.713Z</time></trkpt><trkpt lat="44.6806367" lon="9.2771933"><ele>1320.0</ele><time>2026-04-23T13:29:22.713Z</time></trkpt><trkpt lat="44.680725" lon="9.2771333"><ele>1320.0</ele><time>2026-04-23T13:29:23.714Z</time></trkpt><trkpt lat="44.680805" lon="9.2770683"><ele>1323.0</ele><time>2026-04-23T13:29:24.713Z</time></trkpt><trkpt lat="44.68088" lon="9.2770067"><ele>1326.0</ele><time>2026-04-23T13:29:25.713Z</time></trkpt><trkpt lat="44.680955" lon="9.2769483"><ele>1329.0</ele><time>2026-04-23T13:29:26.714Z</time></trkpt><trkpt lat="44.6810183" lon="9.2768883"><ele>1332.0</ele><time>2026-04-23T13:29:27.713Z</time></trkpt><trkpt lat="44.6810733" lon="9.276815"><ele>1335.0</ele><time>2026-04-23T13:29:28.713Z</time></trkpt><trkpt lat="44.6811167" lon="9.276745"><ele>1338.0</ele><time>2026-04-23T13:29:29.713Z</time></trkpt><trkpt lat="44.6812033" lon="9.2766833"><ele>1338.0</ele><time>2026-04-23T13:29:31.714Z</time></trkpt><trkpt lat="44.6813183" lon="9.2767617"><ele>1338.0</ele><time>2026-04-23T13:29:33.713Z</time></trkpt><trkpt lat="44.6813883" lon="9.2768067"><ele>1338.0</ele><time>2026-04-23T13:29:34.713Z</time></trkpt><trkpt lat="44.68148" lon="9.2768183"><ele>1338.0</ele><time>2026-04-23T13:29:35.715Z</time></trkpt><trkpt lat="44.6815717" lon="9.27682"><ele>1338.0</ele><time>2026-04-23T13:29:36.714Z</time></trkpt><trkpt lat="44.6816717" lon="9.2768033"><ele>1338.0</ele><time>2026-04-23T13:29:37.713Z</time></trkpt><trkpt lat="44.681765" lon="9.27679"><ele>1338.0</ele><time>2026-04-23T13:29:38.714Z</time></trkpt><trkpt lat="44.6818483" lon="9.2767717"><ele>1338.0</ele><time>2026-04-23T13:29:39.713Z</time></trkpt><trkpt lat="44.681915" lon="9.27676"><ele>1338.0</ele><time>2026-04-23T13:29:40.713Z</time></trkpt><trkpt lat="44.6820117" lon="9.276675"><ele>1338.0</ele><time>2026-04-23T13:29:42.713Z</time></trkpt><trkpt lat="44.682055" lon="9.2765817"><ele>1338.0</ele><time>2026-04-23T13:29:43.713Z</time></trkpt><trkpt lat="44.6820967" lon="9.2764717"><ele>1340.6666666666667</ele><time>2026-04-23T13:29:44.713Z</time></trkpt><trkpt lat="44.6821433" lon="9.2763633"><ele>1343.3333333333333</ele><time>2026-04-23T13:29:45.714Z</time></trkpt><trkpt lat="44.6821867" lon="9.27627"><ele>1346.0</ele><time>2026-04-23T13:29:46.714Z</time></trkpt><trkpt lat="44.6822367" lon="9.2761867"><ele>1348.6666666666665</ele><time>2026-04-23T13:29:47.714Z</time></trkpt><trkpt lat="44.68229" lon="9.2761167"><ele>1351.3333333333333</ele><time>2026-04-23T13:29:48.713Z</time></trkpt><trkpt lat="44.682355" lon="9.276035"><ele>1354.0</ele><time>2026-04-23T13:29:49.714Z</time></trkpt><trkpt lat="44.6824167" lon="9.275945"><ele>1354.0</ele><time>2026-04-23T13:29:50.713Z</time></trkpt><trkpt lat="44.6824767" lon="9.27585"><ele>1354.0</ele><time>2026-04-23T13:29:51.713Z</time></trkpt><trkpt lat="44.6825417" lon="9.27576"><ele>1354.0</ele><time>2026-04-23T13:29:52.714Z</time></trkpt><trkpt lat="44.6826033" lon="9.2756867"><ele>1354.0</ele><time>2026-04-23T13:29:53.714Z</time></trkpt><trkpt lat="44.6826517" lon="9.27562"><ele>1354.0</ele><time>2026-04-23T13:29:54.713Z</time></trkpt><trkpt lat="44.6826883" lon="9.275545"><ele>1354.0</ele><time>2026-04-23T13:29:55.714Z</time></trkpt><trkpt lat="44.6827217" lon="9.2753817"><ele>1357.0</ele><time>2026-04-23T13:29:57.713Z</time></trkpt><trkpt lat="44.6827167" lon="9.27528"><ele>1360.0</ele><time>2026-04-23T13:29:58.713Z</time></trkpt><trkpt lat="44.6827117" lon="9.2751733"><ele>1363.0</ele><time>2026-04-23T13:29:59.714Z</time></trkpt><trkpt lat="44.6827067" lon="9.2750583"><ele>1366.0</ele><time>2026-04-23T13:30:00.713Z</time></trkpt><trkpt lat="44.6827" lon="9.2749433"><ele>1369.0</ele><time>2026-04-23T13:30:01.715Z</time></trkpt><trkpt lat="44.68269" lon="9.2748133"><ele>1372.0</ele><time>2026-04-23T13:30:02.717Z</time></trkpt><trkpt lat="44.682675" lon="9.2746967"><ele>1372.1666666666665</ele><time>2026-04-23T13:30:03.713Z</time></trkpt><trkpt lat="44.682675" lon="9.27459"><ele>1372.3333333333333</ele><time>2026-04-23T13:30:04.713Z</time></trkpt><trkpt lat="44.6826833" lon="9.27448"><ele>1372.5</ele><time>2026-04-23T13:30:05.713Z</time></trkpt><trkpt lat="44.6826983" lon="9.274375"><ele>1372.6666666666667</ele><time>2026-04-23T13:30:06.713Z</time></trkpt><trkpt lat="44.682715" lon="9.274285"><ele>1372.8333333333335</ele><time>2026-04-23T13:30:07.714Z</time></trkpt><trkpt lat="44.682735" lon="9.2741367"><ele>1373.0</ele><time>2026-04-23T13:30:09.713Z</time></trkpt><trkpt lat="44.6827433" lon="9.2740167"><ele>1373.0</ele><time>2026-04-23T13:30:11.713Z</time></trkpt><trkpt lat="44.6826433" lon="9.2739583"><ele>1373.0</ele><time>2026-04-23T13:30:25.715Z</time></trkpt><trkpt lat="44.68258" lon="9.2739383"><ele>1373.0</ele><time>2026-04-23T13:30:26.714Z</time></trkpt><trkpt lat="44.68251" lon="9.2739167"><ele>1373.0</ele><time>2026-04-23T13:30:27.713Z</time></trkpt><trkpt lat="44.6824183" lon="9.2739067"><ele>1373.0</ele><time>2026-04-23T13:30:28.713Z</time></trkpt><trkpt lat="44.6823383" lon="9.2739133"><ele>1373.0</ele><time>2026-04-23T13:30:29.715Z</time></trkpt><trkpt lat="44.6822717" lon="9.2739283"><ele>1373.0</ele><time>2026-04-23T13:30:30.714Z</time></trkpt><trkpt lat="44.6822083" lon="9.273955"><ele>1373.0</ele><time>2026-04-23T13:30:31.714Z</time></trkpt><trkpt lat="44.68212" lon="9.2739917"><ele>1373.0</ele><time>2026-04-23T13:30:33.714Z</time></trkpt><trkpt lat="44.682045" lon="9.2739917"><ele>1373.0</ele><time>2026-04-23T13:30:35.713Z</time></trkpt><trkpt lat="44.6819733" lon="9.2739717"><ele>1373.0</ele><time>2026-04-23T13:30:37.714Z</time></trkpt><trkpt lat="44.6819183" lon="9.2739267"><ele>1373.0</ele><time>2026-04-23T13:30:39.713Z</time></trkpt><trkpt lat="44.681855" lon="9.273835"><ele>1376.3333333333335</ele><time>2026-04-23T13:30:42.714Z</time></trkpt><trkpt lat="44.6818067" lon="9.2737733"><ele>1379.6666666666667</ele><time>2026-04-23T13:30:45.713Z</time></trkpt><trkpt lat="44.681755" lon="9.273675"><ele>1383.0</ele><time>2026-04-23T13:30:48.714Z</time></trkpt><trkpt lat="44.6817217" lon="9.27356"><ele>1386.3333333333333</ele><time>2026-04-23T13:30:51.714Z</time></trkpt><trkpt lat="44.681665" lon="9.2734767"><ele>1389.6666666666665</ele><time>2026-04-23T13:30:53.714Z</time></trkpt><trkpt lat="44.681605" lon="9.2733833"><ele>1393.0</ele><time>2026-04-23T13:30:56.714Z</time></trkpt><trkpt lat="44.6815333" lon="9.2732833"><ele>1393.0</ele><time>2026-04-23T13:30:58.715Z</time></trkpt><trkpt lat="44.6814483" lon="9.2731983"><ele>1393.0</ele><time>2026-04-23T13:31:00.713Z</time></trkpt><trkpt lat="44.68137" lon="9.2731833"><ele>1393.0</ele><time>2026-04-23T13:31:02.714Z</time></trkpt><trkpt lat="44.6812267" lon="9.2731533"><ele>1393.0</ele><time>2026-04-23T13:33:06.712Z</time></trkpt><trkpt lat="44.68124" lon="9.273065"><ele>1393.0</ele><time>2026-04-23T13:33:13.713Z</time></trkpt><trkpt lat="44.6813" lon="9.2730283"><ele>1393.0</ele><time>2026-04-23T13:33:16.713Z</time></trkpt><trkpt lat="44.68136" lon="9.27306"><ele>1393.0</ele><time>2026-04-23T13:33:18.715Z</time></trkpt><trkpt lat="44.6814367" lon="9.2731117"><ele>1393.0</ele><time>2026-04-23T13:33:21.712Z</time></trkpt><trkpt lat="44.6815367" lon="9.27324"><ele>1393.0</ele><time>2026-04-23T13:34:15.711Z</time></trkpt><trkpt lat="44.6814667" lon="9.2732283"><ele>1393.0</ele><time>2026-04-23T13:36:33.713Z</time></trkpt><trkpt lat="44.6813983" lon="9.2731717"><ele>1393.0</ele><time>2026-04-23T13:36:36.713Z</time></trkpt><trkpt lat="44.6813267" lon="9.273165"><ele>1393.0</ele><time>2026-04-23T13:36:38.713Z</time></trkpt><trkpt lat="44.681245" lon="9.2731633"><ele>1393.0</ele><time>2026-04-23T13:36:40.713Z</time></trkpt><trkpt lat="44.681145" lon="9.2731517"><ele>1393.0</ele><time>2026-04-23T13:36:42.713Z</time></trkpt><trkpt lat="44.681055" lon="9.2731333"><ele>1393.0</ele><time>2026-04-23T13:36:44.714Z</time></trkpt><trkpt lat="44.6809933" lon="9.2731017"><ele>1393.0</ele><time>2026-04-23T13:36:47.714Z</time></trkpt><trkpt lat="44.6809217" lon="9.27308"><ele>1393.0</ele><time>2026-04-23T13:36:50.713Z</time></trkpt><trkpt lat="44.6808433" lon="9.2730117"><ele>1396.1666666666665</ele><time>2026-04-23T13:36:53.713Z</time></trkpt><trkpt lat="44.680795" lon="9.272935"><ele>1399.3333333333333</ele><time>2026-04-23T13:36:55.712Z</time></trkpt><trkpt lat="44.6807367" lon="9.2728367"><ele>1402.5</ele><time>2026-04-23T13:36:58.713Z</time></trkpt><trkpt lat="44.6806417" lon="9.272815"><ele>1405.6666666666667</ele><time>2026-04-23T13:37:01.715Z</time></trkpt><trkpt lat="44.6805583" lon="9.2728083"><ele>1408.8333333333335</ele><time>2026-04-23T13:37:03.714Z</time></trkpt><trkpt lat="44.6804867" lon="9.2727583"><ele>1412.0</ele><time>2026-04-23T13:37:05.714Z</time></trkpt><trkpt lat="44.680395" lon="9.2726717"><ele>1412.0</ele><time>2026-04-23T13:38:02.713Z</time></trkpt><trkpt lat="44.6803133" lon="9.2726117"><ele>1412.0</ele><time>2026-04-23T13:38:04.713Z</time></trkpt><trkpt lat="44.6802367" lon="9.2725033"><ele>1412.0</ele><time>2026-04-23T13:38:06.713Z</time></trkpt><trkpt lat="44.6801733" lon="9.2723617"><ele>1412.0</ele><time>2026-04-23T13:38:08.713Z</time></trkpt><trkpt lat="44.6801117" lon="9.272225"><ele>1412.0</ele><time>2026-04-23T13:38:10.713Z</time></trkpt><trkpt lat="44.6800517" lon="9.2721"><ele>1416.0</ele><time>2026-04-23T13:38:12.712Z</time></trkpt><trkpt lat="44.6800183" lon="9.271975"><ele>1420.0</ele><time>2026-04-23T13:38:14.715Z</time></trkpt><trkpt lat="44.6799967" lon="9.27186"><ele>1424.0</ele><time>2026-04-23T13:38:16.713Z</time></trkpt><trkpt lat="44.6799567" lon="9.271755"><ele>1428.0</ele><time>2026-04-23T13:38:18.713Z</time></trkpt><trkpt lat="44.6799083" lon="9.2716917"><ele>1432.0</ele><time>2026-04-23T13:38:20.713Z</time></trkpt><trkpt lat="44.679845" lon="9.2715867"><ele>1436.0</ele><time>2026-04-23T13:38:22.713Z</time></trkpt><trkpt lat="44.6798117" lon="9.2715067"><ele>1436.1666666666667</ele><time>2026-04-23T13:38:23.714Z</time></trkpt><trkpt lat="44.6797683" lon="9.2714283"><ele>1436.3333333333335</ele><time>2026-04-23T13:38:24.713Z</time></trkpt><trkpt lat="44.6797217" lon="9.2713433"><ele>1436.5</ele><time>2026-04-23T13:38:25.713Z</time></trkpt><trkpt lat="44.679675" lon="9.2712617"><ele>1436.6666666666667</ele><time>2026-04-23T13:38:26.714Z</time></trkpt><trkpt lat="44.6796333" lon="9.2711617"><ele>1436.8333333333333</ele><time>2026-04-23T13:38:27.712Z</time></trkpt><trkpt lat="44.6796033" lon="9.27106"><ele>1437.0</ele><time>2026-04-23T13:38:28.713Z</time></trkpt><trkpt lat="44.6795917" lon="9.2709517"><ele>1437.0</ele><time>2026-04-23T13:38:29.713Z</time></trkpt><trkpt lat="44.6795983" lon="9.27084"><ele>1437.0</ele><time>2026-04-23T13:38:30.713Z</time></trkpt><trkpt lat="44.6796067" lon="9.270735"><ele>1437.0</ele><time>2026-04-23T13:38:31.713Z</time></trkpt><trkpt lat="44.6796267" lon="9.2706033"><ele>1437.0</ele><time>2026-04-23T13:38:33.713Z</time></trkpt><trkpt lat="44.6796383" lon="9.2704867"><ele>1437.0</ele><time>2026-04-23T13:38:35.713Z</time></trkpt><trkpt lat="44.6796383" lon="9.2703433"><ele>1437.0</ele><time>2026-04-23T13:38:37.713Z</time></trkpt><trkpt lat="44.6795983" lon="9.2702417"><ele>1437.8333333333333</ele><time>2026-04-23T13:38:39.712Z</time></trkpt><trkpt lat="44.6795633" lon="9.27016"><ele>1438.6666666666667</ele><time>2026-04-23T13:38:41.714Z</time></trkpt><trkpt lat="44.6795267" lon="9.2700783"><ele>1439.5</ele><time>2026-04-23T13:38:43.713Z</time></trkpt><trkpt lat="44.67947" lon="9.269935"><ele>1440.3333333333335</ele><time>2026-04-23T13:38:55.714Z</time></trkpt><trkpt lat="44.67942" lon="9.26986"><ele>1441.1666666666667</ele><time>2026-04-23T13:38:57.713Z</time></trkpt><trkpt lat="44.6793767" lon="9.2697133"><ele>1442.0</ele><time>2026-04-23T13:38:59.713Z</time></trkpt><trkpt lat="44.6793333" lon="9.2696133"><ele>1445.6666666666667</ele><time>2026-04-23T13:39:01.713Z</time></trkpt><trkpt lat="44.6792617" lon="9.2695283"><ele>1449.3333333333335</ele><time>2026-04-23T13:39:03.712Z</time></trkpt><trkpt lat="44.6792333" lon="9.2694067"><ele>1453.0</ele><time>2026-04-23T13:39:06.717Z</time></trkpt><trkpt lat="44.6792633" lon="9.2693217"><ele>1456.6666666666667</ele><time>2026-04-23T13:39:09.712Z</time></trkpt><trkpt lat="44.6792933" lon="9.2692117"><ele>1460.3333333333333</ele><time>2026-04-23T13:39:18.712Z</time></trkpt><trkpt lat="44.6792917" lon="9.26906"><ele>1464.0</ele><time>2026-04-23T13:39:29.716Z</time></trkpt><trkpt lat="44.6792533" lon="9.2689483"><ele>1464.6</ele><time>2026-04-23T13:39:31.712Z</time></trkpt><trkpt lat="44.6792067" lon="9.26883"><ele>1465.2</ele><time>2026-04-23T13:39:33.713Z</time></trkpt><trkpt lat="44.6791383" lon="9.268715"><ele>1465.8</ele><time>2026-04-23T13:39:35.713Z</time></trkpt><trkpt lat="44.67909" lon="9.268595"><ele>1466.3999999999999</ele><time>2026-04-23T13:39:37.714Z</time></trkpt><trkpt lat="44.67906" lon="9.2684617"><ele>1467.0</ele><time>2026-04-23T13:39:39.713Z</time></trkpt><trkpt lat="44.6790283" lon="9.2683283"><ele>1467.0</ele><time>2026-04-23T13:39:41.713Z</time></trkpt><trkpt lat="44.679" lon="9.26822"><ele>1467.0</ele><time>2026-04-23T13:39:44.714Z</time></trkpt><trkpt lat="44.67898" lon="9.2680983"><ele>1467.0</ele><time>2026-04-23T13:39:50.714Z</time></trkpt><trkpt lat="44.6790133" lon="9.2680117"><ele>1467.0</ele><time>2026-04-23T13:39:52.714Z</time></trkpt><trkpt lat="44.6790683" lon="9.2679217"><ele>1467.0</ele><time>2026-04-23T13:39:54.714Z</time></trkpt><trkpt lat="44.6791467" lon="9.2678667"><ele>1467.0</ele><time>2026-04-23T13:39:56.715Z</time></trkpt><trkpt lat="44.6792333" lon="9.2678133"><ele>1468.5</ele><time>2026-04-23T13:39:58.714Z</time></trkpt><trkpt lat="44.679335" lon="9.2677367"><ele>1470.0</ele><time>2026-04-23T13:40:00.714Z</time></trkpt><trkpt lat="44.6793917" lon="9.2676917"><ele>1471.5</ele><time>2026-04-23T13:40:01.714Z</time></trkpt><trkpt lat="44.6794583" lon="9.2676467"><ele>1473.0</ele><time>2026-04-23T13:40:02.714Z</time></trkpt><trkpt lat="44.6795183" lon="9.267585"><ele>1474.5</ele><time>2026-04-23T13:40:03.714Z</time></trkpt><trkpt lat="44.6795683" lon="9.26753"><ele>1476.0</ele><time>2026-04-23T13:40:04.715Z</time></trkpt><trkpt lat="44.6796233" lon="9.2674833"><ele>1473.0</ele><time>2026-04-23T13:40:05.715Z</time></trkpt><trkpt lat="44.6796917" lon="9.2674483"><ele>1470.0</ele><time>2026-04-23T13:40:06.714Z</time></trkpt><trkpt lat="44.67976" lon="9.2674217"><ele>1467.0</ele><time>2026-04-23T13:40:07.716Z</time></trkpt><trkpt lat="44.6798333" lon="9.2673967"><ele>1464.0</ele><time>2026-04-23T13:40:08.716Z</time></trkpt><trkpt lat="44.679905" lon="9.2673533"><ele>1461.0</ele><time>2026-04-23T13:40:09.714Z</time></trkpt><trkpt lat="44.67997" lon="9.2673017"><ele>1458.0</ele><time>2026-04-23T13:40:10.714Z</time></trkpt><trkpt lat="44.6800267" lon="9.2672417"><ele>1455.0</ele><time>2026-04-23T13:40:11.715Z</time></trkpt><trkpt lat="44.6800783" lon="9.267185"><ele>1455.0</ele><time>2026-04-23T13:40:12.715Z</time></trkpt><trkpt lat="44.6801283" lon="9.2671283"><ele>1455.0</ele><time>2026-04-23T13:40:13.713Z</time></trkpt><trkpt lat="44.6801867" lon="9.2670117"><ele>1455.0</ele><time>2026-04-23T13:40:15.714Z</time></trkpt><trkpt lat="44.6802067" lon="9.26686"><ele>1455.0</ele><time>2026-04-23T13:40:17.713Z</time></trkpt><trkpt lat="44.6802283" lon="9.2667733"><ele>1455.0</ele><time>2026-04-23T13:40:18.713Z</time></trkpt><trkpt lat="44.6802583" lon="9.2666883"><ele>1455.0</ele><time>2026-04-23T13:40:19.714Z</time></trkpt><trkpt lat="44.680295" lon="9.2666033"><ele>1455.8333333333333</ele><time>2026-04-23T13:40:20.714Z</time></trkpt><trkpt lat="44.6803283" lon="9.2665183"><ele>1456.6666666666667</ele><time>2026-04-23T13:40:21.713Z</time></trkpt><trkpt lat="44.6803567" lon="9.266435"><ele>1457.5</ele><time>2026-04-23T13:40:22.713Z</time></trkpt><trkpt lat="44.6803817" lon="9.2662833"><ele>1458.3333333333335</ele><time>2026-04-23T13:40:24.713Z</time></trkpt><trkpt lat="44.6803417" lon="9.2661567"><ele>1459.1666666666667</ele><time>2026-04-23T13:40:26.714Z</time></trkpt><trkpt lat="44.6802883" lon="9.2661067"><ele>1460.0</ele><time>2026-04-23T13:40:27.713Z</time></trkpt><trkpt lat="44.6802383" lon="9.2659967"><ele>1460.0</ele><time>2026-04-23T13:40:29.715Z</time></trkpt><trkpt lat="44.68017" lon="9.265865"><ele>1460.0</ele><time>2026-04-23T13:40:39.713Z</time></trkpt><trkpt lat="44.6801283" lon="9.2657667"><ele>1460.0</ele><time>2026-04-23T13:40:41.714Z</time></trkpt><trkpt lat="44.680075" lon="9.2656383"><ele>1460.0</ele><time>2026-04-23T13:40:43.714Z</time></trkpt><trkpt lat="44.6800767" lon="9.2654783"><ele>1460.0</ele><time>2026-04-23T13:40:45.714Z</time></trkpt><trkpt lat="44.6801767" lon="9.2653967"><ele>1459.8333333333335</ele><time>2026-04-23T13:40:47.714Z</time></trkpt><trkpt lat="44.6802433" lon="9.26536"><ele>1459.6666666666667</ele><time>2026-04-23T13:40:48.714Z</time></trkpt><trkpt lat="44.6803117" lon="9.2653183"><ele>1459.5</ele><time>2026-04-23T13:40:49.715Z</time></trkpt><trkpt lat="44.6803833" lon="9.26527"><ele>1459.3333333333333</ele><time>2026-04-23T13:40:50.715Z</time></trkpt><trkpt lat="44.6804533" lon="9.2652217"><ele>1459.1666666666665</ele><time>2026-04-23T13:40:51.714Z</time></trkpt><trkpt lat="44.68052" lon="9.2651733"><ele>1459.0</ele><time>2026-04-23T13:40:52.714Z</time></trkpt><trkpt lat="44.6805883" lon="9.2651417"><ele>1459.0</ele><time>2026-04-23T13:40:53.714Z</time></trkpt><trkpt lat="44.6806567" lon="9.2651267"><ele>1459.0</ele><time>2026-04-23T13:40:54.715Z</time></trkpt><trkpt lat="44.6807233" lon="9.26512"><ele>1459.0</ele><time>2026-04-23T13:40:55.714Z</time></trkpt><trkpt lat="44.680845" lon="9.2651467"><ele>1459.0</ele><time>2026-04-23T13:40:57.714Z</time></trkpt><trkpt lat="44.680965" lon="9.265195"><ele>1459.0</ele><time>2026-04-23T13:40:59.715Z</time></trkpt><trkpt lat="44.6810583" lon="9.2651917"><ele>1457.0</ele><time>2026-04-23T13:41:01.714Z</time></trkpt><trkpt lat="44.681145" lon="9.2651267"><ele>1455.0</ele><time>2026-04-23T13:41:03.714Z</time></trkpt><trkpt lat="44.681205" lon="9.26507"><ele>1453.0</ele><time>2026-04-23T13:41:04.714Z</time></trkpt><trkpt lat="44.6812667" lon="9.2649983"><ele>1451.0</ele><time>2026-04-23T13:41:05.714Z</time></trkpt><trkpt lat="44.6813133" lon="9.2649117"><ele>1449.0</ele><time>2026-04-23T13:41:06.715Z</time></trkpt><trkpt lat="44.68138" lon="9.264845"><ele>1447.0</ele><time>2026-04-23T13:41:07.714Z</time></trkpt><trkpt lat="44.68144" lon="9.2647667"><ele>1447.0</ele><time>2026-04-23T13:41:08.715Z</time></trkpt><trkpt lat="44.681505" lon="9.2646883"><ele>1447.0</ele><time>2026-04-23T13:41:09.714Z</time></trkpt><trkpt lat="44.6815617" lon="9.26463"><ele>1447.0</ele><time>2026-04-23T13:41:10.714Z</time></trkpt><trkpt lat="44.6816233" lon="9.2645683"><ele>1447.0</ele><time>2026-04-23T13:41:11.715Z</time></trkpt><trkpt lat="44.6816833" lon="9.264505"><ele>1447.0</ele><time>2026-04-23T13:41:12.715Z</time></trkpt><trkpt lat="44.6817333" lon="9.2644383"><ele>1447.0</ele><time>2026-04-23T13:41:13.714Z</time></trkpt><trkpt lat="44.6818267" lon="9.2643433"><ele>1447.0</ele><time>2026-04-23T13:41:15.714Z</time></trkpt><trkpt lat="44.68188" lon="9.26429"><ele>1447.0</ele><time>2026-04-23T13:41:16.713Z</time></trkpt><trkpt lat="44.6819317" lon="9.264235"><ele>1447.0</ele><time>2026-04-23T13:41:17.714Z</time></trkpt><trkpt lat="44.6820333" lon="9.2641733"><ele>1447.0</ele><time>2026-04-23T13:41:19.714Z</time></trkpt><trkpt lat="44.6821267" lon="9.2642017"><ele>1447.0</ele><time>2026-04-23T13:41:21.712Z</time></trkpt><trkpt lat="44.682185" lon="9.264285"><ele>1447.0</ele><time>2026-04-23T13:41:23.713Z</time></trkpt><trkpt lat="44.6822517" lon="9.26441"><ele>1442.0</ele><time>2026-04-23T13:41:25.714Z</time></trkpt><trkpt lat="44.68233" lon="9.2645367"><ele>1437.0</ele><time>2026-04-23T13:41:27.712Z</time></trkpt><trkpt lat="44.6823917" lon="9.264635"><ele>1432.0</ele><time>2026-04-23T13:41:29.712Z</time></trkpt><trkpt lat="44.6824833" lon="9.2647233"><ele>1427.0</ele><time>2026-04-23T13:41:31.712Z</time></trkpt><trkpt lat="44.6825317" lon="9.264785"><ele>1422.0</ele><time>2026-04-23T13:41:32.715Z</time></trkpt><trkpt lat="44.6825767" lon="9.2649167"><ele>1420.0</ele><time>2026-04-23T13:41:34.714Z</time></trkpt><trkpt lat="44.68257" lon="9.2650867"><ele>1418.0</ele><time>2026-04-23T13:41:36.714Z</time></trkpt><trkpt lat="44.6825533" lon="9.2651983"><ele>1416.0</ele><time>2026-04-23T13:41:37.714Z</time></trkpt><trkpt lat="44.6825333" lon="9.2653267"><ele>1414.0</ele><time>2026-04-23T13:41:38.713Z</time></trkpt><trkpt lat="44.6825283" lon="9.2654617"><ele>1412.0</ele><time>2026-04-23T13:41:39.712Z</time></trkpt><trkpt lat="44.6825483" lon="9.2655933"><ele>1410.5</ele><time>2026-04-23T13:41:40.712Z</time></trkpt><trkpt lat="44.6825883" lon="9.2657017"><ele>1409.0</ele><time>2026-04-23T13:41:41.713Z</time></trkpt><trkpt lat="44.6826333" lon="9.265795"><ele>1407.5</ele><time>2026-04-23T13:41:42.713Z</time></trkpt><trkpt lat="44.68268" lon="9.265875"><ele>1406.0</ele><time>2026-04-23T13:41:43.713Z</time></trkpt><trkpt lat="44.6827317" lon="9.265945"><ele>1404.5</ele><time>2026-04-23T13:41:44.714Z</time></trkpt><trkpt lat="44.6827867" lon="9.2660117"><ele>1403.0</ele><time>2026-04-23T13:41:45.713Z</time></trkpt><trkpt lat="44.6828483" lon="9.26606"><ele>1400.6666666666667</ele><time>2026-04-23T13:41:46.713Z</time></trkpt><trkpt lat="44.6829133" lon="9.2661067"><ele>1398.3333333333335</ele><time>2026-04-23T13:41:47.713Z</time></trkpt><trkpt lat="44.6829817" lon="9.2661617"><ele>1396.0</ele><time>2026-04-23T13:41:48.713Z</time></trkpt><trkpt lat="44.6830483" lon="9.26622"><ele>1393.6666666666667</ele><time>2026-04-23T13:41:49.714Z</time></trkpt><trkpt lat="44.68311" lon="9.266285"><ele>1391.3333333333333</ele><time>2026-04-23T13:41:50.713Z</time></trkpt><trkpt lat="44.6831683" lon="9.26635"><ele>1389.0</ele><time>2026-04-23T13:41:51.712Z</time></trkpt><trkpt lat="44.6832267" lon="9.2664133"><ele>1386.2</ele><time>2026-04-23T13:41:52.714Z</time></trkpt><trkpt lat="44.683275" lon="9.26648"><ele>1383.4</ele><time>2026-04-23T13:41:53.714Z</time></trkpt><trkpt lat="44.68333" lon="9.266625"><ele>1380.6</ele><time>2026-04-23T13:41:55.713Z</time></trkpt><trkpt lat="44.6833583" lon="9.266805"><ele>1377.8</ele><time>2026-04-23T13:41:57.713Z</time></trkpt><trkpt lat="44.6833633" lon="9.2669117"><ele>1375.0</ele><time>2026-04-23T13:41:58.713Z</time></trkpt><trkpt lat="44.6833567" lon="9.2670133"><ele>1375.0</ele><time>2026-04-23T13:41:59.714Z</time></trkpt><trkpt lat="44.6833417" lon="9.2671133"><ele>1375.0</ele><time>2026-04-23T13:42:00.712Z</time></trkpt><trkpt lat="44.6833267" lon="9.267215"><ele>1375.0</ele><time>2026-04-23T13:42:01.715Z</time></trkpt><trkpt lat="44.6833167" lon="9.2673117"><ele>1375.0</ele><time>2026-04-23T13:42:02.713Z</time></trkpt><trkpt lat="44.68335" lon="9.2674233"><ele>1375.0</ele><time>2026-04-23T13:42:04.715Z</time></trkpt><trkpt lat="44.683425" lon="9.2674217"><ele>1375.0</ele><time>2026-04-23T13:42:07.713Z</time></trkpt><trkpt lat="44.68348" lon="9.2673"><ele>1375.0</ele><time>2026-04-23T13:42:16.712Z</time></trkpt><trkpt lat="44.6835633" lon="9.2671617"><ele>1375.0</ele><time>2026-04-23T13:42:18.712Z</time></trkpt><trkpt lat="44.6836283" lon="9.2670667"><ele>1375.0</ele><time>2026-04-23T13:42:19.713Z</time></trkpt><trkpt lat="44.683695" lon="9.2669717"><ele>1375.0</ele><time>2026-04-23T13:42:20.712Z</time></trkpt><trkpt lat="44.6837567" lon="9.2668783"><ele>1375.0</ele><time>2026-04-23T13:42:21.713Z</time></trkpt><trkpt lat="44.6838183" lon="9.2667883"><ele>1374.0</ele><time>2026-04-23T13:42:22.715Z</time></trkpt><trkpt lat="44.6838767" lon="9.2666983"><ele>1373.0</ele><time>2026-04-23T13:42:23.712Z</time></trkpt><trkpt lat="44.683935" lon="9.2666067"><ele>1372.0</ele><time>2026-04-23T13:42:24.712Z</time></trkpt><trkpt lat="44.683995" lon="9.2665117"><ele>1371.0</ele><time>2026-04-23T13:42:25.712Z</time></trkpt><trkpt lat="44.6840567" lon="9.2664183"><ele>1370.0</ele><time>2026-04-23T13:42:26.714Z</time></trkpt><trkpt lat="44.68412" lon="9.2663233"><ele>1369.0</ele><time>2026-04-23T13:42:27.713Z</time></trkpt><trkpt lat="44.684185" lon="9.2662283"><ele>1369.0</ele><time>2026-04-23T13:42:28.713Z</time></trkpt><trkpt lat="44.68425" lon="9.2661367"><ele>1369.0</ele><time>2026-04-23T13:42:29.713Z</time></trkpt><trkpt lat="44.6843033" lon="9.2660433"><ele>1369.0</ele><time>2026-04-23T13:42:30.714Z</time></trkpt><trkpt lat="44.6843633" lon="9.26596"><ele>1369.0</ele><time>2026-04-23T13:42:31.716Z</time></trkpt><trkpt lat="44.6844183" lon="9.2658717"><ele>1369.0</ele><time>2026-04-23T13:42:32.716Z</time></trkpt><trkpt lat="44.68447" lon="9.2657733"><ele>1369.0</ele><time>2026-04-23T13:42:33.714Z</time></trkpt><trkpt lat="44.6845133" lon="9.265635"><ele>1365.2</ele><time>2026-04-23T13:42:34.714Z</time></trkpt><trkpt lat="44.6845633" lon="9.265495"><ele>1361.4</ele><time>2026-04-23T13:42:35.718Z</time></trkpt><trkpt lat="44.68461" lon="9.2653667"><ele>1357.6</ele><time>2026-04-23T13:42:36.714Z</time></trkpt><trkpt lat="44.6846483" lon="9.2652433"><ele>1353.8</ele><time>2026-04-23T13:42:37.715Z</time></trkpt><trkpt lat="44.6846867" lon="9.265115"><ele>1350.0</ele><time>2026-04-23T13:42:38.713Z</time></trkpt><trkpt lat="44.6847233" lon="9.264985"><ele>1350.0</ele><time>2026-04-23T13:42:39.712Z</time></trkpt><trkpt lat="44.6847533" lon="9.2648733"><ele>1350.0</ele><time>2026-04-23T13:42:40.713Z</time></trkpt><trkpt lat="44.6847667" lon="9.2647683"><ele>1350.0</ele><time>2026-04-23T13:42:41.713Z</time></trkpt><trkpt lat="44.6847683" lon="9.2646783"><ele>1350.0</ele><time>2026-04-23T13:42:42.713Z</time></trkpt><trkpt lat="44.6847133" lon="9.2645483"><ele>1350.0</ele><time>2026-04-23T13:42:44.713Z</time></trkpt><trkpt lat="44.684685" lon="9.2643817"><ele>1350.6666666666667</ele><time>2026-04-23T13:42:46.713Z</time></trkpt><trkpt lat="44.6846933" lon="9.2642917"><ele>1351.3333333333333</ele><time>2026-04-23T13:42:47.714Z</time></trkpt><trkpt lat="44.6847133" lon="9.264195"><ele>1352.0</ele><time>2026-04-23T13:42:48.713Z</time></trkpt><trkpt lat="44.6847583" lon="9.2641083"><ele>1352.6666666666665</ele><time>2026-04-23T13:42:49.713Z</time></trkpt><trkpt lat="44.6848017" lon="9.26403"><ele>1353.3333333333333</ele><time>2026-04-23T13:42:50.713Z</time></trkpt><trkpt lat="44.6848483" lon="9.2639533"><ele>1354.0</ele><time>2026-04-23T13:42:51.714Z</time></trkpt><trkpt lat="44.684945" lon="9.2638467"><ele>1355.2</ele><time>2026-04-23T13:42:53.713Z</time></trkpt><trkpt lat="44.6850183" lon="9.2638217"><ele>1356.4</ele><time>2026-04-23T13:42:54.712Z</time></trkpt><trkpt lat="44.6851133" lon="9.2637983"><ele>1357.6</ele><time>2026-04-23T13:42:55.712Z</time></trkpt><trkpt lat="44.6852233" lon="9.2637817"><ele>1358.8</ele><time>2026-04-23T13:42:56.713Z</time></trkpt><trkpt lat="44.6853167" lon="9.2637617"><ele>1360.0</ele><time>2026-04-23T13:42:57.713Z</time></trkpt><trkpt lat="44.6854" lon="9.2637333"><ele>1360.0</ele><time>2026-04-23T13:42:58.712Z</time></trkpt><trkpt lat="44.6854733" lon="9.2636917"><ele>1360.0</ele><time>2026-04-23T13:42:59.713Z</time></trkpt><trkpt lat="44.6855483" lon="9.26364"><ele>1360.0</ele><time>2026-04-23T13:43:00.714Z</time></trkpt><trkpt lat="44.6856333" lon="9.2635933"><ele>1360.0</ele><time>2026-04-23T13:43:01.712Z</time></trkpt><trkpt lat="44.6857183" lon="9.2635717"><ele>1360.0</ele><time>2026-04-23T13:43:02.715Z</time></trkpt><trkpt lat="44.6857983" lon="9.2635617"><ele>1360.0</ele><time>2026-04-23T13:43:03.713Z</time></trkpt><trkpt lat="44.685885" lon="9.2635433"><ele>1360.0</ele><time>2026-04-23T13:43:04.713Z</time></trkpt><trkpt lat="44.6859667" lon="9.263505"><ele>1360.0</ele><time>2026-04-23T13:43:05.712Z</time></trkpt><trkpt lat="44.6860483" lon="9.26345"><ele>1360.0</ele><time>2026-04-23T13:43:06.713Z</time></trkpt><trkpt lat="44.6861233" lon="9.2634033"><ele>1360.0</ele><time>2026-04-23T13:43:07.714Z</time></trkpt><trkpt lat="44.686205" lon="9.26337"><ele>1360.0</ele><time>2026-04-23T13:43:08.714Z</time></trkpt><trkpt lat="44.6862917" lon="9.2633617"><ele>1360.0</ele><time>2026-04-23T13:43:09.712Z</time></trkpt><trkpt lat="44.6863867" lon="9.2633617"><ele>1358.8</ele><time>2026-04-23T13:43:10.713Z</time></trkpt><trkpt lat="44.68649" lon="9.2634033"><ele>1357.6</ele><time>2026-04-23T13:43:11.714Z</time></trkpt><trkpt lat="44.6865883" lon="9.2634483"><ele>1356.4</ele><time>2026-04-23T13:43:12.712Z</time></trkpt><trkpt lat="44.6866767" lon="9.2634917"><ele>1355.2</ele><time>2026-04-23T13:43:13.713Z</time></trkpt><trkpt lat="44.6867583" lon="9.2635"><ele>1354.0</ele><time>2026-04-23T13:43:14.714Z</time></trkpt><trkpt lat="44.6868417" lon="9.263495"><ele>1351.2</ele><time>2026-04-23T13:43:15.712Z</time></trkpt><trkpt lat="44.68693" lon="9.2634683"><ele>1348.4</ele><time>2026-04-23T13:43:16.713Z</time></trkpt><trkpt lat="44.687035" lon="9.2634133"><ele>1345.6</ele><time>2026-04-23T13:43:17.713Z</time></trkpt><trkpt lat="44.687125" lon="9.2633567"><ele>1342.8</ele><time>2026-04-23T13:43:18.715Z</time></trkpt><trkpt lat="44.6872183" lon="9.2632733"><ele>1340.0</ele><time>2026-04-23T13:43:19.714Z</time></trkpt><trkpt lat="44.6873" lon="9.263185"><ele>1342.6666666666667</ele><time>2026-04-23T13:43:20.715Z</time></trkpt><trkpt lat="44.6873733" lon="9.2631067"><ele>1345.3333333333335</ele><time>2026-04-23T13:43:21.715Z</time></trkpt><trkpt lat="44.6874417" lon="9.2630517"><ele>1348.0</ele><time>2026-04-23T13:43:22.712Z</time></trkpt><trkpt lat="44.6875117" lon="9.2630167"><ele>1350.6666666666667</ele><time>2026-04-23T13:43:23.712Z</time></trkpt><trkpt lat="44.6875817" lon="9.2629917"><ele>1353.3333333333333</ele><time>2026-04-23T13:43:24.713Z</time></trkpt><trkpt lat="44.6876667" lon="9.2629883"><ele>1356.0</ele><time>2026-04-23T13:43:25.714Z</time></trkpt><trkpt lat="44.6877683" lon="9.2630017"><ele>1356.0</ele><time>2026-04-23T13:43:26.714Z</time></trkpt><trkpt lat="44.68786" lon="9.2630117"><ele>1356.0</ele><time>2026-04-23T13:43:27.712Z</time></trkpt><trkpt lat="44.68796" lon="9.263045"><ele>1356.0</ele><time>2026-04-23T13:43:28.712Z</time></trkpt><trkpt lat="44.6880583" lon="9.2630867"><ele>1356.0</ele><time>2026-04-23T13:43:29.712Z</time></trkpt><trkpt lat="44.68815" lon="9.2631333"><ele>1356.0</ele><time>2026-04-23T13:43:30.713Z</time></trkpt><trkpt lat="44.68825" lon="9.2631783"><ele>1351.0</ele><time>2026-04-23T13:43:31.712Z</time></trkpt><trkpt lat="44.688345" lon="9.2632083"><ele>1346.0</ele><time>2026-04-23T13:43:32.713Z</time></trkpt><trkpt lat="44.688435" lon="9.2632233"><ele>1341.0</ele><time>2026-04-23T13:43:33.712Z</time></trkpt><trkpt lat="44.688525" lon="9.2632267"><ele>1336.0</ele><time>2026-04-23T13:43:34.712Z</time></trkpt><trkpt lat="44.6886233" lon="9.2632117"><ele>1331.0</ele><time>2026-04-23T13:43:35.713Z</time></trkpt><trkpt lat="44.68873" lon="9.2631817"><ele>1332.6</ele><time>2026-04-23T13:43:36.713Z</time></trkpt><trkpt lat="44.6888367" lon="9.26315"><ele>1334.1999999999998</ele><time>2026-04-23T13:43:37.713Z</time></trkpt><trkpt lat="44.68894" lon="9.2631133"><ele>1335.8000000000002</ele><time>2026-04-23T13:43:38.714Z</time></trkpt><trkpt lat="44.689035" lon="9.2630733"><ele>1337.4</ele><time>2026-04-23T13:43:39.712Z</time></trkpt><trkpt lat="44.68912" lon="9.2630283"><ele>1339.0</ele><time>2026-04-23T13:43:40.714Z</time></trkpt><trkpt lat="44.6891983" lon="9.2629767"><ele>1339.0</ele><time>2026-04-23T13:43:41.712Z</time></trkpt><trkpt lat="44.6892667" lon="9.2629183"><ele>1339.0</ele><time>2026-04-23T13:43:42.713Z</time></trkpt><trkpt lat="44.6893283" lon="9.262845"><ele>1339.0</ele><time>2026-04-23T13:43:43.712Z</time></trkpt><trkpt lat="44.6893833" lon="9.2627383"><ele>1339.0</ele><time>2026-04-23T13:43:44.713Z</time></trkpt><trkpt lat="44.6894267" lon="9.2626067"><ele>1339.0</ele><time>2026-04-23T13:43:45.712Z</time></trkpt><trkpt lat="44.68947" lon="9.2624817"><ele>1336.8333333333333</ele><time>2026-04-23T13:43:46.713Z</time></trkpt><trkpt lat="44.6895133" lon="9.2623683"><ele>1334.6666666666665</ele><time>2026-04-23T13:43:47.714Z</time></trkpt><trkpt lat="44.689555" lon="9.262275"><ele>1332.5</ele><time>2026-04-23T13:43:48.713Z</time></trkpt><trkpt lat="44.6896467" lon="9.2622617"><ele>1330.3333333333333</ele><time>2026-04-23T13:43:50.714Z</time></trkpt><trkpt lat="44.68971" lon="9.2623067"><ele>1328.1666666666667</ele><time>2026-04-23T13:43:51.712Z</time></trkpt><trkpt lat="44.6897683" lon="9.2623717"><ele>1326.0</ele><time>2026-04-23T13:43:52.712Z</time></trkpt><trkpt lat="44.68982" lon="9.2624517"><ele>1326.0</ele><time>2026-04-23T13:43:53.712Z</time></trkpt><trkpt lat="44.68988" lon="9.262525"><ele>1326.0</ele><time>2026-04-23T13:43:54.712Z</time></trkpt><trkpt lat="44.68994" lon="9.2625933"><ele>1326.0</ele><time>2026-04-23T13:43:55.714Z</time></trkpt><trkpt lat="44.69001" lon="9.2626517"><ele>1326.0</ele><time>2026-04-23T13:43:56.713Z</time></trkpt><trkpt lat="44.690085" lon="9.2626917"><ele>1326.0</ele><time>2026-04-23T13:43:57.712Z</time></trkpt><trkpt lat="44.6901617" lon="9.262735"><ele>1326.0</ele><time>2026-04-23T13:43:58.714Z</time></trkpt><trkpt lat="44.690245" lon="9.2627783"><ele>1325.1999999999998</ele><time>2026-04-23T13:43:59.713Z</time></trkpt><trkpt lat="44.6903367" lon="9.2628033"><ele>1324.3999999999999</ele><time>2026-04-23T13:44:00.712Z</time></trkpt><trkpt lat="44.6904367" lon="9.2628083"><ele>1323.6</ele><time>2026-04-23T13:44:01.713Z</time></trkpt><trkpt lat="44.6905467" lon="9.2628117"><ele>1322.8</ele><time>2026-04-23T13:44:02.714Z</time></trkpt><trkpt lat="44.6906517" lon="9.2627917"><ele>1322.0</ele><time>2026-04-23T13:44:03.712Z</time></trkpt><trkpt lat="44.69076" lon="9.2627867"><ele>1322.0</ele><time>2026-04-23T13:44:04.714Z</time></trkpt><trkpt lat="44.69086" lon="9.26279"><ele>1322.0</ele><time>2026-04-23T13:44:05.713Z</time></trkpt><trkpt lat="44.6909467" lon="9.262805"><ele>1322.0</ele><time>2026-04-23T13:44:06.714Z</time></trkpt><trkpt lat="44.6910283" lon="9.262825"><ele>1322.0</ele><time>2026-04-23T13:44:07.713Z</time></trkpt><trkpt lat="44.6910983" lon="9.2628633"><ele>1322.0</ele><time>2026-04-23T13:44:08.713Z</time></trkpt><trkpt lat="44.691195" lon="9.26291"><ele>1322.0</ele><time>2026-04-23T13:44:10.713Z</time></trkpt><trkpt lat="44.6913033" lon="9.262895"><ele>1319.5</ele><time>2026-04-23T13:44:27.712Z</time></trkpt><trkpt lat="44.69138" lon="9.2628083"><ele>1317.0</ele><time>2026-04-23T13:44:29.713Z</time></trkpt><trkpt lat="44.691425" lon="9.2627383"><ele>1314.5</ele><time>2026-04-23T13:44:30.713Z</time></trkpt><trkpt lat="44.691475" lon="9.2626583"><ele>1312.0</ele><time>2026-04-23T13:44:31.713Z</time></trkpt><trkpt lat="44.6915367" lon="9.262565"><ele>1309.5</ele><time>2026-04-23T13:44:32.714Z</time></trkpt><trkpt lat="44.6916" lon="9.26245"><ele>1307.0</ele><time>2026-04-23T13:44:33.714Z</time></trkpt><trkpt lat="44.69166" lon="9.2623533"><ele>1308.8333333333335</ele><time>2026-04-23T13:44:34.714Z</time></trkpt><trkpt lat="44.69171" lon="9.26226"><ele>1310.6666666666667</ele><time>2026-04-23T13:44:35.716Z</time></trkpt><trkpt lat="44.6917617" lon="9.262175"><ele>1312.5</ele><time>2026-04-23T13:44:36.714Z</time></trkpt><trkpt lat="44.6918083" lon="9.262095"><ele>1314.3333333333333</ele><time>2026-04-23T13:44:37.714Z</time></trkpt><trkpt lat="44.69186" lon="9.262025"><ele>1316.1666666666665</ele><time>2026-04-23T13:44:38.714Z</time></trkpt><trkpt lat="44.691915" lon="9.2619667"><ele>1318.0</ele><time>2026-04-23T13:44:39.713Z</time></trkpt><trkpt lat="44.6919817" lon="9.2618867"><ele>1318.0</ele><time>2026-04-23T13:44:40.714Z</time></trkpt><trkpt lat="44.6920567" lon="9.2618383"><ele>1318.0</ele><time>2026-04-23T13:44:41.713Z</time></trkpt><trkpt lat="44.6921367" lon="9.261795"><ele>1318.0</ele><time>2026-04-23T13:44:42.714Z</time></trkpt><trkpt lat="44.6922117" lon="9.2617483"><ele>1318.0</ele><time>2026-04-23T13:44:43.713Z</time></trkpt><trkpt lat="44.69228" lon="9.26171"><ele>1318.0</ele><time>2026-04-23T13:44:44.714Z</time></trkpt><trkpt lat="44.6923433" lon="9.261625"><ele>1318.0</ele><time>2026-04-23T13:44:45.712Z</time></trkpt><trkpt lat="44.6924067" lon="9.2615433"><ele>1322.8000000000002</ele><time>2026-04-23T13:44:46.713Z</time></trkpt><trkpt lat="44.6924683" lon="9.2614367"><ele>1327.6</ele><time>2026-04-23T13:44:47.713Z</time></trkpt><trkpt lat="44.6925367" lon="9.2612983"><ele>1332.4</ele><time>2026-04-23T13:44:48.714Z</time></trkpt><trkpt lat="44.6925933" lon="9.2611817"><ele>1337.1999999999998</ele><time>2026-04-23T13:44:49.714Z</time></trkpt><trkpt lat="44.6926383" lon="9.2610667"><ele>1342.0</ele><time>2026-04-23T13:44:50.714Z</time></trkpt><trkpt lat="44.692685" lon="9.2609667"><ele>1342.0</ele><time>2026-04-23T13:44:51.713Z</time></trkpt><trkpt lat="44.6927317" lon="9.2608633"><ele>1342.0</ele><time>2026-04-23T13:44:52.713Z</time></trkpt><trkpt lat="44.6927817" lon="9.2607667"><ele>1342.0</ele><time>2026-04-23T13:44:53.714Z</time></trkpt><trkpt lat="44.6928267" lon="9.260675"><ele>1342.0</ele><time>2026-04-23T13:44:54.712Z</time></trkpt><trkpt lat="44.6928667" lon="9.2605833"><ele>1342.0</ele><time>2026-04-23T13:44:55.712Z</time></trkpt><trkpt lat="44.692905" lon="9.2605083"><ele>1342.0</ele><time>2026-04-23T13:44:56.712Z</time></trkpt><trkpt lat="44.69295" lon="9.26044"><ele>1339.5</ele><time>2026-04-23T13:44:57.713Z</time></trkpt><trkpt lat="44.69301" lon="9.260385"><ele>1337.0</ele><time>2026-04-23T13:44:58.714Z</time></trkpt><trkpt lat="44.693065" lon="9.260325"><ele>1334.5</ele><time>2026-04-23T13:44:59.716Z</time></trkpt><trkpt lat="44.69316" lon="9.260195"><ele>1332.0</ele><time>2026-04-23T13:45:01.713Z</time></trkpt><trkpt lat="44.693225" lon="9.26013"><ele>1329.5</ele><time>2026-04-23T13:45:02.714Z</time></trkpt><trkpt lat="44.693305" lon="9.260065"><ele>1327.0</ele><time>2026-04-23T13:45:03.716Z</time></trkpt><trkpt lat="44.6933717" lon="9.2600033"><ele>1327.0</ele><time>2026-04-23T13:45:04.713Z</time></trkpt><trkpt lat="44.6934317" lon="9.2599433"><ele>1327.0</ele><time>2026-04-23T13:45:05.714Z</time></trkpt><trkpt lat="44.693495" lon="9.2598883"><ele>1327.0</ele><time>2026-04-23T13:45:06.713Z</time></trkpt><trkpt lat="44.6935767" lon="9.2598317"><ele>1327.0</ele><time>2026-04-23T13:45:07.713Z</time></trkpt><trkpt lat="44.693655" lon="9.2597583"><ele>1327.0</ele><time>2026-04-23T13:45:08.713Z</time></trkpt><trkpt lat="44.6937283" lon="9.2597033"><ele>1327.0</ele><time>2026-04-23T13:45:09.712Z</time></trkpt><trkpt lat="44.6938067" lon="9.25965"><ele>1325.3333333333333</ele><time>2026-04-23T13:45:10.713Z</time></trkpt><trkpt lat="44.693885" lon="9.2595917"><ele>1323.6666666666665</ele><time>2026-04-23T13:45:11.714Z</time></trkpt><trkpt lat="44.6939533" lon="9.2595167"><ele>1322.0</ele><time>2026-04-23T13:45:12.714Z</time></trkpt><trkpt lat="44.694015" lon="9.25943"><ele>1320.3333333333333</ele><time>2026-04-23T13:45:13.713Z</time></trkpt><trkpt lat="44.69406" lon="9.25933"><ele>1318.6666666666667</ele><time>2026-04-23T13:45:14.713Z</time></trkpt><trkpt lat="44.6941033" lon="9.259215"><ele>1317.0</ele><time>2026-04-23T13:45:15.712Z</time></trkpt><trkpt lat="44.6941467" lon="9.259105"><ele>1317.0</ele><time>2026-04-23T13:45:16.712Z</time></trkpt><trkpt lat="44.6941917" lon="9.2589967"><ele>1317.0</ele><time>2026-04-23T13:45:17.712Z</time></trkpt><trkpt lat="44.6942383" lon="9.2589"><ele>1317.0</ele><time>2026-04-23T13:45:18.712Z</time></trkpt><trkpt lat="44.6942917" lon="9.258815"><ele>1317.0</ele><time>2026-04-23T13:45:19.712Z</time></trkpt><trkpt lat="44.6943533" lon="9.2587367"><ele>1317.0</ele><time>2026-04-23T13:45:20.713Z</time></trkpt><trkpt lat="44.6944183" lon="9.258665"><ele>1317.0</ele><time>2026-04-23T13:45:21.713Z</time></trkpt><trkpt lat="44.69448" lon="9.258605"><ele>1314.3333333333333</ele><time>2026-04-23T13:45:22.714Z</time></trkpt><trkpt lat="44.69454" lon="9.2585417"><ele>1311.6666666666667</ele><time>2026-04-23T13:45:23.715Z</time></trkpt><trkpt lat="44.6945983" lon="9.2584767"><ele>1309.0</ele><time>2026-04-23T13:45:24.713Z</time></trkpt><trkpt lat="44.694655" lon="9.2584283"><ele>1306.3333333333335</ele><time>2026-04-23T13:45:25.714Z</time></trkpt><trkpt lat="44.694745" lon="9.2583183"><ele>1303.6666666666667</ele><time>2026-04-23T13:45:27.712Z</time></trkpt><trkpt lat="44.6948333" lon="9.2582533"><ele>1301.0</ele><time>2026-04-23T13:45:29.715Z</time></trkpt><trkpt lat="44.6949367" lon="9.2582683"><ele>1301.0</ele><time>2026-04-23T13:45:31.712Z</time></trkpt><trkpt lat="44.695035" lon="9.2583217"><ele>1301.0</ele><time>2026-04-23T13:45:33.712Z</time></trkpt><trkpt lat="44.6951033" lon="9.2583833"><ele>1301.0</ele><time>2026-04-23T13:45:35.713Z</time></trkpt><trkpt lat="44.6951983" lon="9.2584083"><ele>1301.0</ele><time>2026-04-23T13:45:37.713Z</time></trkpt><trkpt lat="44.6953133" lon="9.258385"><ele>1301.0</ele><time>2026-04-23T13:45:39.712Z</time></trkpt><trkpt lat="44.6954267" lon="9.2583167"><ele>1301.3333333333335</ele><time>2026-04-23T13:45:41.713Z</time></trkpt><trkpt lat="44.69554" lon="9.2582533"><ele>1301.6666666666667</ele><time>2026-04-23T13:45:43.714Z</time></trkpt><trkpt lat="44.6956033" lon="9.25822"><ele>1302.0</ele><time>2026-04-23T13:45:44.714Z</time></trkpt><trkpt lat="44.6956617" lon="9.2581783"><ele>1302.3333333333333</ele><time>2026-04-23T13:45:45.713Z</time></trkpt><trkpt lat="44.695725" lon="9.2581483"><ele>1302.6666666666665</ele><time>2026-04-23T13:45:46.713Z</time></trkpt><trkpt lat="44.695785" lon="9.25812"><ele>1303.0</ele><time>2026-04-23T13:45:47.713Z</time></trkpt><trkpt lat="44.69589" lon="9.25805"><ele>1303.0</ele><time>2026-04-23T13:45:49.714Z</time></trkpt><trkpt lat="44.69595" lon="9.25802"><ele>1303.0</ele><time>2026-04-23T13:45:50.714Z</time></trkpt><trkpt lat="44.69602" lon="9.257975"><ele>1303.0</ele><time>2026-04-23T13:45:51.712Z</time></trkpt><trkpt lat="44.6961017" lon="9.257945"><ele>1303.0</ele><time>2026-04-23T13:45:52.715Z</time></trkpt><trkpt lat="44.6961783" lon="9.2579167"><ele>1303.0</ele><time>2026-04-23T13:45:53.714Z</time></trkpt><trkpt lat="44.696255" lon="9.2579033"><ele>1303.0</ele><time>2026-04-23T13:45:54.712Z</time></trkpt><trkpt lat="44.69632" lon="9.2578933"><ele>1303.0</ele><time>2026-04-23T13:45:55.713Z</time></trkpt><trkpt lat="44.696385" lon="9.2578817"><ele>1295.25</ele><time>2026-04-23T13:45:56.713Z</time></trkpt><trkpt lat="44.696495" lon="9.257855"><ele>1287.5</ele><time>2026-04-23T13:45:58.713Z</time></trkpt><trkpt lat="44.6965983" lon="9.2578117"><ele>1279.75</ele><time>2026-04-23T13:46:00.718Z</time></trkpt><trkpt lat="44.6967183" lon="9.25779"><ele>1272.0</ele><time>2026-04-23T13:46:02.715Z</time></trkpt><trkpt lat="44.6968667" lon="9.2578217"><ele>1270.6666666666667</ele><time>2026-04-23T13:46:04.713Z</time></trkpt><trkpt lat="44.69696" lon="9.2578667"><ele>1269.3333333333333</ele><time>2026-04-23T13:46:05.714Z</time></trkpt><trkpt lat="44.6970483" lon="9.2579117"><ele>1268.0</ele><time>2026-04-23T13:46:06.712Z</time></trkpt><trkpt lat="44.6971333" lon="9.2579533"><ele>1266.6666666666665</ele><time>2026-04-23T13:46:07.713Z</time></trkpt><trkpt lat="44.6972133" lon="9.2579983"><ele>1265.3333333333333</ele><time>2026-04-23T13:46:08.713Z</time></trkpt><trkpt lat="44.6972817" lon="9.258035"><ele>1264.0</ele><time>2026-04-23T13:46:09.712Z</time></trkpt><trkpt lat="44.6973717" lon="9.2580917"><ele>1259.0</ele><time>2026-04-23T13:46:11.712Z</time></trkpt><trkpt lat="44.6974367" lon="9.2581383"><ele>1254.0</ele><time>2026-04-23T13:46:14.713Z</time></trkpt><trkpt lat="44.697375" lon="9.258185"><ele>1249.0</ele><time>2026-04-23T13:46:18.713Z</time></trkpt><trkpt lat="44.69727" lon="9.2582183"><ele>1244.0</ele><time>2026-04-23T13:46:20.713Z</time></trkpt><trkpt lat="44.6972017" lon="9.2582683"><ele>1239.0</ele><time>2026-04-23T13:46:21.713Z</time></trkpt><trkpt lat="44.69713" lon="9.2583317"><ele>1234.0</ele><time>2026-04-23T13:46:22.713Z</time></trkpt><trkpt lat="44.6970617" lon="9.2584117"><ele>1234.0</ele><time>2026-04-23T13:46:23.713Z</time></trkpt><trkpt lat="44.69699" lon="9.2584867"><ele>1234.0</ele><time>2026-04-23T13:46:24.712Z</time></trkpt><trkpt lat="44.6969183" lon="9.2585517"><ele>1234.0</ele><time>2026-04-23T13:46:25.712Z</time></trkpt><trkpt lat="44.6968433" lon="9.2586067"><ele>1234.0</ele><time>2026-04-23T13:46:26.712Z</time></trkpt><trkpt lat="44.69676" lon="9.258655"><ele>1234.0</ele><time>2026-04-23T13:46:27.713Z</time></trkpt><trkpt lat="44.6966733" lon="9.2587067"><ele>1234.0</ele><time>2026-04-23T13:46:28.712Z</time></trkpt><trkpt lat="44.6965833" lon="9.25876"><ele>1235.6000000000001</ele><time>2026-04-23T13:46:29.713Z</time></trkpt><trkpt lat="44.6964967" lon="9.2588067"><ele>1237.2</ele><time>2026-04-23T13:46:30.713Z</time></trkpt><trkpt lat="44.6964117" lon="9.2588633"><ele>1238.8000000000002</ele><time>2026-04-23T13:46:31.712Z</time></trkpt><trkpt lat="44.6963267" lon="9.2589383"><ele>1240.4</ele><time>2026-04-23T13:46:32.713Z</time></trkpt><trkpt lat="44.6962383" lon="9.25904"><ele>1242.0</ele><time>2026-04-23T13:46:33.714Z</time></trkpt><trkpt lat="44.6961483" lon="9.259145"><ele>1239.4</ele><time>2026-04-23T13:46:34.719Z</time></trkpt><trkpt lat="44.6960517" lon="9.25924"><ele>1236.8000000000002</ele><time>2026-04-23T13:46:35.712Z</time></trkpt><trkpt lat="44.6959617" lon="9.2593317"><ele>1234.2</ele><time>2026-04-23T13:46:36.713Z</time></trkpt><trkpt lat="44.695885" lon="9.2594283"><ele>1231.6000000000001</ele><time>2026-04-23T13:46:37.712Z</time></trkpt><trkpt lat="44.69582" lon="9.259535"><ele>1229.0</ele><time>2026-04-23T13:46:38.713Z</time></trkpt><trkpt lat="44.6957633" lon="9.2596467"><ele>1229.0</ele><time>2026-04-23T13:46:39.713Z</time></trkpt><trkpt lat="44.69572" lon="9.259765"><ele>1229.0</ele><time>2026-04-23T13:46:40.713Z</time></trkpt><trkpt lat="44.6956817" lon="9.259875"><ele>1229.0</ele><time>2026-04-23T13:46:41.713Z</time></trkpt><trkpt lat="44.695655" lon="9.2599917"><ele>1229.0</ele><time>2026-04-23T13:46:42.713Z</time></trkpt><trkpt lat="44.6956383" lon="9.26011"><ele>1229.0</ele><time>2026-04-23T13:46:43.714Z</time></trkpt><trkpt lat="44.6956483" lon="9.2602383"><ele>1229.0</ele><time>2026-04-23T13:46:44.713Z</time></trkpt><trkpt lat="44.6956583" lon="9.2603633"><ele>1225.5</ele><time>2026-04-23T13:46:45.712Z</time></trkpt><trkpt lat="44.6956833" lon="9.26049"><ele>1222.0</ele><time>2026-04-23T13:46:46.714Z</time></trkpt><trkpt lat="44.6957067" lon="9.2606167"><ele>1218.5</ele><time>2026-04-23T13:46:47.714Z</time></trkpt><trkpt lat="44.69572" lon="9.2607333"><ele>1215.0</ele><time>2026-04-23T13:46:48.715Z</time></trkpt><trkpt lat="44.6957267" lon="9.2608533"><ele>1211.5</ele><time>2026-04-23T13:46:49.714Z</time></trkpt><trkpt lat="44.6957333" lon="9.2609817"><ele>1208.0</ele><time>2026-04-23T13:46:50.714Z</time></trkpt><trkpt lat="44.69573" lon="9.2611067"><ele>1206.4</ele><time>2026-04-23T13:46:51.715Z</time></trkpt><trkpt lat="44.6957217" lon="9.2612417"><ele>1204.8</ele><time>2026-04-23T13:46:52.715Z</time></trkpt><trkpt lat="44.6957117" lon="9.2613783"><ele>1203.2</ele><time>2026-04-23T13:46:53.715Z</time></trkpt><trkpt lat="44.6957017" lon="9.2615283"><ele>1201.6</ele><time>2026-04-23T13:46:54.714Z</time></trkpt><trkpt lat="44.695685" lon="9.26169"><ele>1200.0</ele><time>2026-04-23T13:46:55.715Z</time></trkpt><trkpt lat="44.6956617" lon="9.2618517"><ele>1198.6</ele><time>2026-04-23T13:46:56.715Z</time></trkpt><trkpt lat="44.6956367" lon="9.2620017"><ele>1197.2</ele><time>2026-04-23T13:46:57.716Z</time></trkpt><trkpt lat="44.69561" lon="9.2621333"><ele>1195.8</ele><time>2026-04-23T13:46:58.715Z</time></trkpt><trkpt lat="44.695585" lon="9.2622517"><ele>1194.4</ele><time>2026-04-23T13:46:59.714Z</time></trkpt><trkpt lat="44.6955533" lon="9.2623617"><ele>1193.0</ele><time>2026-04-23T13:47:00.714Z</time></trkpt><trkpt lat="44.69552" lon="9.2624667"><ele>1192.0</ele><time>2026-04-23T13:47:01.714Z</time></trkpt><trkpt lat="44.6954883" lon="9.2625567"><ele>1191.0</ele><time>2026-04-23T13:47:02.714Z</time></trkpt><trkpt lat="44.695465" lon="9.2626417"><ele>1190.0</ele><time>2026-04-23T13:47:03.713Z</time></trkpt><trkpt lat="44.695455" lon="9.2627317"><ele>1189.0</ele><time>2026-04-23T13:47:04.713Z</time></trkpt><trkpt lat="44.6954517" lon="9.2629033"><ele>1188.0</ele><time>2026-04-23T13:47:06.713Z</time></trkpt><trkpt lat="44.6954333" lon="9.2629917"><ele>1187.0</ele><time>2026-04-23T13:47:07.714Z</time></trkpt><trkpt lat="44.6954067" lon="9.2630767"><ele>1186.0</ele><time>2026-04-23T13:47:08.715Z</time></trkpt><trkpt lat="44.695375" lon="9.2631583"><ele>1185.0</ele><time>2026-04-23T13:47:09.713Z</time></trkpt><trkpt lat="44.6953417" lon="9.2632417"><ele>1184.0</ele><time>2026-04-23T13:47:10.713Z</time></trkpt><trkpt lat="44.6953117" lon="9.26333"><ele>1183.0</ele><time>2026-04-23T13:47:11.715Z</time></trkpt><trkpt lat="44.69529" lon="9.263425"><ele>1182.0</ele><time>2026-04-23T13:47:12.714Z</time></trkpt><trkpt lat="44.6952767" lon="9.2635183"><ele>1181.0</ele><time>2026-04-23T13:47:13.714Z</time></trkpt><trkpt lat="44.6952583" lon="9.26367"><ele>1181.0</ele><time>2026-04-23T13:47:15.713Z</time></trkpt><trkpt lat="44.6952383" lon="9.263755"><ele>1181.0</ele><time>2026-04-23T13:47:17.714Z</time></trkpt><trkpt lat="44.6952417" lon="9.2638567"><ele>1181.0</ele><time>2026-04-23T13:53:39.713Z</time></trkpt><trkpt lat="44.6953133" lon="9.263945"><ele>1181.0</ele><time>2026-04-23T13:53:41.711Z</time></trkpt><trkpt lat="44.6953733" lon="9.2639883"><ele>1181.0</ele><time>2026-04-23T13:53:42.712Z</time></trkpt><trkpt lat="44.6954467" lon="9.2640167"><ele>1181.0</ele><time>2026-04-23T13:53:43.714Z</time></trkpt><trkpt lat="44.6955217" lon="9.26402"><ele>1181.0</ele><time>2026-04-23T13:53:44.713Z</time></trkpt><trkpt lat="44.6955983" lon="9.26399"><ele>1181.0</ele><time>2026-04-23T13:53:45.713Z</time></trkpt><trkpt lat="44.69567" lon="9.26393"><ele>1181.0</ele><time>2026-04-23T13:53:46.712Z</time></trkpt><trkpt lat="44.6957383" lon="9.2638433"><ele>1181.0</ele><time>2026-04-23T13:53:47.713Z</time></trkpt><trkpt lat="44.6958133" lon="9.26374"><ele>1181.0</ele><time>2026-04-23T13:53:48.713Z</time></trkpt><trkpt lat="44.69589" lon="9.26363"><ele>1181.0</ele><time>2026-04-23T13:53:49.712Z</time></trkpt><trkpt lat="44.6959617" lon="9.263525"><ele>1181.0</ele><time>2026-04-23T13:53:50.713Z</time></trkpt><trkpt lat="44.69603" lon="9.26342"><ele>1181.0</ele><time>2026-04-23T13:53:51.713Z</time></trkpt><trkpt lat="44.6960933" lon="9.263315"><ele>1181.0</ele><time>2026-04-23T13:53:52.713Z</time></trkpt><trkpt lat="44.6961583" lon="9.2632083"><ele>1181.0</ele><time>2026-04-23T13:53:53.713Z</time></trkpt><trkpt lat="44.69622" lon="9.2631017"><ele>1179.3999999999999</ele><time>2026-04-23T13:53:54.712Z</time></trkpt><trkpt lat="44.69628" lon="9.2629967"><ele>1177.8</ele><time>2026-04-23T13:53:55.713Z</time></trkpt><trkpt lat="44.6963433" lon="9.2628967"><ele>1176.1999999999998</ele><time>2026-04-23T13:53:56.713Z</time></trkpt><trkpt lat="44.69641" lon="9.2628083"><ele>1174.6</ele><time>2026-04-23T13:53:57.713Z</time></trkpt><trkpt lat="44.6964883" lon="9.2627367"><ele>1173.0</ele><time>2026-04-23T13:53:58.713Z</time></trkpt><trkpt lat="44.696575" lon="9.2626867"><ele>1173.0</ele><time>2026-04-23T13:53:59.714Z</time></trkpt><trkpt lat="44.6966683" lon="9.262655"><ele>1173.0</ele><time>2026-04-23T13:54:00.713Z</time></trkpt><trkpt lat="44.69676" lon="9.26265"><ele>1173.0</ele><time>2026-04-23T13:54:01.713Z</time></trkpt><trkpt lat="44.6968467" lon="9.2626717"><ele>1173.0</ele><time>2026-04-23T13:54:02.713Z</time></trkpt><trkpt lat="44.6969283" lon="9.2627267"><ele>1173.0</ele><time>2026-04-23T13:54:03.714Z</time></trkpt><trkpt lat="44.69699" lon="9.2628117"><ele>1172.4285714285716</ele><time>2026-04-23T13:54:04.712Z</time></trkpt><trkpt lat="44.6970317" lon="9.2629167"><ele>1171.857142857143</ele><time>2026-04-23T13:54:05.714Z</time></trkpt><trkpt lat="44.6970133" lon="9.263015"><ele>1171.2857142857142</ele><time>2026-04-23T13:54:06.713Z</time></trkpt><trkpt lat="44.696975" lon="9.2630967"><ele>1170.7142857142858</ele><time>2026-04-23T13:54:07.713Z</time></trkpt><trkpt lat="44.696905" lon="9.2631483"><ele>1170.142857142857</ele><time>2026-04-23T13:54:08.713Z</time></trkpt><trkpt lat="44.6968433" lon="9.2632"><ele>1169.5714285714287</ele><time>2026-04-23T13:54:09.712Z</time></trkpt><trkpt lat="44.69679" lon="9.263265"><ele>1169.0</ele><time>2026-04-23T13:54:10.713Z</time></trkpt><trkpt lat="44.6968117" lon="9.2634183"><ele>1169.0</ele><time>2026-04-23T13:54:12.712Z</time></trkpt><trkpt lat="44.6968833" lon="9.263455"><ele>1169.0</ele><time>2026-04-23T13:54:13.713Z</time></trkpt><trkpt lat="44.6969633" lon="9.263465"><ele>1169.0</ele><time>2026-04-23T13:54:14.713Z</time></trkpt><trkpt lat="44.69705" lon="9.263455"><ele>1169.0</ele><time>2026-04-23T13:54:15.712Z</time></trkpt><trkpt lat="44.6971383" lon="9.26342"><ele>1169.0</ele><time>2026-04-23T13:54:16.713Z</time></trkpt><trkpt lat="44.697225" lon="9.2633633"><ele>1169.0</ele><time>2026-04-23T13:54:17.712Z</time></trkpt><trkpt lat="44.6973" lon="9.2632767"><ele>1166.8</ele><time>2026-04-23T13:54:18.712Z</time></trkpt><trkpt lat="44.6973683" lon="9.2631717"><ele>1164.6000000000001</ele><time>2026-04-23T13:54:19.712Z</time></trkpt><trkpt lat="44.69743" lon="9.2630533"><ele>1162.4</ele><time>2026-04-23T13:54:20.714Z</time></trkpt><trkpt lat="44.6974833" lon="9.2629283"><ele>1160.2</ele><time>2026-04-23T13:54:21.712Z</time></trkpt><trkpt lat="44.6975317" lon="9.2628"><ele>1158.0</ele><time>2026-04-23T13:54:22.712Z</time></trkpt><trkpt lat="44.697575" lon="9.2626667"><ele>1158.0</ele><time>2026-04-23T13:54:23.712Z</time></trkpt><trkpt lat="44.6976167" lon="9.262535"><ele>1158.0</ele><time>2026-04-23T13:54:24.712Z</time></trkpt><trkpt lat="44.6976683" lon="9.2624017"><ele>1158.0</ele><time>2026-04-23T13:54:25.713Z</time></trkpt><trkpt lat="44.6977183" lon="9.26226"><ele>1158.0</ele><time>2026-04-23T13:54:26.714Z</time></trkpt><trkpt lat="44.6977667" lon="9.2621017"><ele>1158.0</ele><time>2026-04-23T13:54:27.713Z</time></trkpt><trkpt lat="44.6978083" lon="9.2619383"><ele>1157.2</ele><time>2026-04-23T13:54:28.713Z</time></trkpt><trkpt lat="44.6978417" lon="9.261785"><ele>1156.4</ele><time>2026-04-23T13:54:29.713Z</time></trkpt><trkpt lat="44.6978683" lon="9.26165"><ele>1155.6000000000001</ele><time>2026-04-23T13:54:30.714Z</time></trkpt><trkpt lat="44.6978933" lon="9.26155"><ele>1154.8</ele><time>2026-04-23T13:54:31.713Z</time></trkpt><trkpt lat="44.697955" lon="9.2615183"><ele>1154.0</ele><time>2026-04-23T13:54:33.714Z</time></trkpt><trkpt lat="44.6980667" lon="9.261645"><ele>1154.0</ele><time>2026-04-23T13:54:35.713Z</time></trkpt><trkpt lat="44.6981567" lon="9.261755"><ele>1154.0</ele><time>2026-04-23T13:54:36.714Z</time></trkpt><trkpt lat="44.6982467" lon="9.26186"><ele>1154.0</ele><time>2026-04-23T13:54:37.713Z</time></trkpt><trkpt lat="44.6983517" lon="9.2619567"><ele>1154.0</ele><time>2026-04-23T13:54:38.713Z</time></trkpt><trkpt lat="44.6984683" lon="9.2620333"><ele>1154.0</ele><time>2026-04-23T13:54:39.714Z</time></trkpt><trkpt lat="44.69858" lon="9.2620983"><ele>1154.0</ele><time>2026-04-23T13:54:40.712Z</time></trkpt><trkpt lat="44.698685" lon="9.262155"><ele>1154.0</ele><time>2026-04-23T13:54:41.713Z</time></trkpt><trkpt lat="44.6987817" lon="9.262205"><ele>1154.0</ele><time>2026-04-23T13:54:42.712Z</time></trkpt><trkpt lat="44.6988667" lon="9.26225"><ele>1154.0</ele><time>2026-04-23T13:54:43.714Z</time></trkpt><trkpt lat="44.6989367" lon="9.26229"><ele>1149.0</ele><time>2026-04-23T13:54:44.713Z</time></trkpt><trkpt lat="44.6990067" lon="9.2624283"><ele>1144.0</ele><time>2026-04-23T13:54:46.712Z</time></trkpt><trkpt lat="44.6990083" lon="9.262535"><ele>1139.0</ele><time>2026-04-23T13:54:47.713Z</time></trkpt><trkpt lat="44.6989817" lon="9.2626517"><ele>1134.0</ele><time>2026-04-23T13:54:48.714Z</time></trkpt><trkpt lat="44.698925" lon="9.2627733"><ele>1129.0</ele><time>2026-04-23T13:54:49.713Z</time></trkpt><trkpt lat="44.6988533" lon="9.2629"><ele>1129.0</ele><time>2026-04-23T13:54:50.714Z</time></trkpt><trkpt lat="44.6987833" lon="9.2630217"><ele>1129.0</ele><time>2026-04-23T13:54:51.713Z</time></trkpt><trkpt lat="44.6987167" lon="9.26314"><ele>1129.0</ele><time>2026-04-23T13:54:52.712Z</time></trkpt><trkpt lat="44.6986767" lon="9.2632683"><ele>1129.0</ele><time>2026-04-23T13:54:53.714Z</time></trkpt><trkpt lat="44.6986667" lon="9.2633933"><ele>1129.0</ele><time>2026-04-23T13:54:54.712Z</time></trkpt><trkpt lat="44.6986833" lon="9.2635133"><ele>1127.5</ele><time>2026-04-23T13:54:55.713Z</time></trkpt><trkpt lat="44.6987167" lon="9.2636183"><ele>1126.0</ele><time>2026-04-23T13:54:56.714Z</time></trkpt><trkpt lat="44.6988067" lon="9.26364"><ele>1124.5</ele><time>2026-04-23T13:54:57.713Z</time></trkpt><trkpt lat="44.6988883" lon="9.2636383"><ele>1123.0</ele><time>2026-04-23T13:54:58.713Z</time></trkpt><trkpt lat="44.6989767" lon="9.2636017"><ele>1121.5</ele><time>2026-04-23T13:54:59.713Z</time></trkpt><trkpt lat="44.6990617" lon="9.2635217"><ele>1120.0</ele><time>2026-04-23T13:55:00.713Z</time></trkpt><trkpt lat="44.6991433" lon="9.2634217"><ele>1120.0</ele><time>2026-04-23T13:55:01.714Z</time></trkpt><trkpt lat="44.69921" lon="9.26331"><ele>1120.0</ele><time>2026-04-23T13:55:02.714Z</time></trkpt><trkpt lat="44.6992533" lon="9.26318"><ele>1120.0</ele><time>2026-04-23T13:55:03.714Z</time></trkpt><trkpt lat="44.6992917" lon="9.263045"><ele>1120.0</ele><time>2026-04-23T13:55:04.713Z</time></trkpt><trkpt lat="44.6993283" lon="9.262915"><ele>1120.0</ele><time>2026-04-23T13:55:05.712Z</time></trkpt><trkpt lat="44.6993667" lon="9.262795"><ele>1121.8</ele><time>2026-04-23T13:55:06.712Z</time></trkpt><trkpt lat="44.6994067" lon="9.2626967"><ele>1123.6</ele><time>2026-04-23T13:55:07.712Z</time></trkpt><trkpt lat="44.6994567" lon="9.2625933"><ele>1125.4</ele><time>2026-04-23T13:55:09.713Z</time></trkpt><trkpt lat="44.6995433" lon="9.2625467"><ele>1127.2</ele><time>2026-04-23T13:55:12.714Z</time></trkpt><trkpt lat="44.6996183" lon="9.2624683"><ele>1129.0</ele><time>2026-04-23T13:55:14.714Z</time></trkpt><trkpt lat="44.6997333" lon="9.2623867"><ele>1126.0</ele><time>2026-04-23T13:55:16.714Z</time></trkpt><trkpt lat="44.6998017" lon="9.26236"><ele>1123.0</ele><time>2026-04-23T13:55:17.713Z</time></trkpt><trkpt lat="44.6998733" lon="9.2623583"><ele>1120.0</ele><time>2026-04-23T13:55:18.712Z</time></trkpt><trkpt lat="44.6999483" lon="9.2623717"><ele>1117.0</ele><time>2026-04-23T13:55:19.713Z</time></trkpt><trkpt lat="44.7000183" lon="9.26238"><ele>1114.0</ele><time>2026-04-23T13:55:20.714Z</time></trkpt><trkpt lat="44.7000917" lon="9.2623867"><ele>1111.0</ele><time>2026-04-23T13:55:21.713Z</time></trkpt><trkpt lat="44.70017" lon="9.2623867"><ele>1108.0</ele><time>2026-04-23T13:55:22.713Z</time></trkpt><trkpt lat="44.7002517" lon="9.262395"><ele>1105.6</ele><time>2026-04-23T13:55:23.712Z</time></trkpt><trkpt lat="44.700335" lon="9.2624"><ele>1103.1999999999998</ele><time>2026-04-23T13:55:24.712Z</time></trkpt><trkpt lat="44.7004283" lon="9.26241"><ele>1100.8</ele><time>2026-04-23T13:55:25.713Z</time></trkpt><trkpt lat="44.7005267" lon="9.26242"><ele>1098.3999999999999</ele><time>2026-04-23T13:55:26.713Z</time></trkpt><trkpt lat="44.7006183" lon="9.26242"><ele>1096.0</ele><time>2026-04-23T13:55:27.714Z</time></trkpt><trkpt lat="44.700705" lon="9.2624"><ele>1096.0</ele><time>2026-04-23T13:55:28.713Z</time></trkpt><trkpt lat="44.7007867" lon="9.2623717"><ele>1096.0</ele><time>2026-04-23T13:55:29.712Z</time></trkpt><trkpt lat="44.7008617" lon="9.262355"><ele>1096.0</ele><time>2026-04-23T13:55:30.713Z</time></trkpt><trkpt lat="44.700935" lon="9.2623683"><ele>1096.0</ele><time>2026-04-23T13:55:31.713Z</time></trkpt><trkpt lat="44.701005" lon="9.2623917"><ele>1096.0</ele><time>2026-04-23T13:55:32.714Z</time></trkpt><trkpt lat="44.7010683" lon="9.26242"><ele>1096.0</ele><time>2026-04-23T13:55:33.714Z</time></trkpt><trkpt lat="44.70119" lon="9.2624717"><ele>1093.8</ele><time>2026-04-23T13:55:35.713Z</time></trkpt><trkpt lat="44.7012533" lon="9.2625117"><ele>1091.6</ele><time>2026-04-23T13:55:36.712Z</time></trkpt><trkpt lat="44.70131" lon="9.2625567"><ele>1089.4</ele><time>2026-04-23T13:55:37.713Z</time></trkpt><trkpt lat="44.7014283" lon="9.2626283"><ele>1087.2</ele><time>2026-04-23T13:55:39.713Z</time></trkpt><trkpt lat="44.7015317" lon="9.26262"><ele>1085.0</ele><time>2026-04-23T13:55:41.713Z</time></trkpt><trkpt lat="44.701645" lon="9.2625733"><ele>1085.0</ele><time>2026-04-23T13:55:43.714Z</time></trkpt><trkpt lat="44.7017017" lon="9.2625317"><ele>1085.0</ele><time>2026-04-23T13:55:44.713Z</time></trkpt><trkpt lat="44.7017667" lon="9.2625"><ele>1085.0</ele><time>2026-04-23T13:55:45.712Z</time></trkpt><trkpt lat="44.7018317" lon="9.2624767"><ele>1085.0</ele><time>2026-04-23T13:55:46.714Z</time></trkpt><trkpt lat="44.7019467" lon="9.26246"><ele>1085.0</ele><time>2026-04-23T13:55:48.713Z</time></trkpt><trkpt lat="44.70204" lon="9.2624583"><ele>1085.0</ele><time>2026-04-23T13:55:50.714Z</time></trkpt><trkpt lat="44.70214" lon="9.26247"><ele>1081.25</ele><time>2026-04-23T13:55:52.713Z</time></trkpt><trkpt lat="44.7022667" lon="9.2624833"><ele>1077.5</ele><time>2026-04-23T13:55:54.715Z</time></trkpt><trkpt lat="44.7023883" lon="9.2625"><ele>1073.75</ele><time>2026-04-23T13:55:56.714Z</time></trkpt><trkpt lat="44.70251" lon="9.262555"><ele>1070.0</ele><time>2026-04-23T13:55:58.713Z</time></trkpt><trkpt lat="44.7026333" lon="9.2626017"><ele>1070.0</ele><time>2026-04-23T13:56:00.715Z</time></trkpt><trkpt lat="44.7026967" lon="9.2626283"><ele>1070.0</ele><time>2026-04-23T13:56:01.713Z</time></trkpt><trkpt lat="44.70278" lon="9.2626483"><ele>1070.0</ele><time>2026-04-23T13:56:02.713Z</time></trkpt><trkpt lat="44.702865" lon="9.2626717"><ele>1070.0</ele><time>2026-04-23T13:56:03.713Z</time></trkpt><trkpt lat="44.7029417" lon="9.26271"><ele>1070.0</ele><time>2026-04-23T13:56:04.714Z</time></trkpt><trkpt lat="44.70301" lon="9.2627517"><ele>1070.0</ele><time>2026-04-23T13:56:05.713Z</time></trkpt><trkpt lat="44.7030783" lon="9.26279"><ele>1069.0</ele><time>2026-04-23T13:56:06.713Z</time></trkpt><trkpt lat="44.70314" lon="9.2628283"><ele>1068.0</ele><time>2026-04-23T13:56:07.713Z</time></trkpt><trkpt lat="44.7032467" lon="9.262895"><ele>1067.0</ele><time>2026-04-23T13:56:09.716Z</time></trkpt><trkpt lat="44.7033083" lon="9.2629283"><ele>1066.0</ele><time>2026-04-23T13:56:10.714Z</time></trkpt><trkpt lat="44.703375" lon="9.26297"><ele>1065.0</ele><time>2026-04-23T13:56:11.712Z</time></trkpt><trkpt lat="44.70345" lon="9.2630117"><ele>1064.0</ele><time>2026-04-23T13:56:12.713Z</time></trkpt><trkpt lat="44.703515" lon="9.2630483"><ele>1064.3333333333335</ele><time>2026-04-23T13:56:13.714Z</time></trkpt><trkpt lat="44.703585" lon="9.2630833"><ele>1064.6666666666667</ele><time>2026-04-23T13:56:14.714Z</time></trkpt><trkpt lat="44.7036517" lon="9.2631183"><ele>1065.0</ele><time>2026-04-23T13:56:15.713Z</time></trkpt><trkpt lat="44.7037133" lon="9.2631567"><ele>1065.3333333333333</ele><time>2026-04-23T13:56:16.714Z</time></trkpt><trkpt lat="44.703775" lon="9.2631867"><ele>1065.6666666666665</ele><time>2026-04-23T13:56:17.714Z</time></trkpt><trkpt lat="44.70388" lon="9.26324"><ele>1066.0</ele><time>2026-04-23T13:56:19.714Z</time></trkpt><trkpt lat="44.70398" lon="9.2632983"><ele>1061.5</ele><time>2026-04-23T13:56:21.714Z</time></trkpt><trkpt lat="44.7040817" lon="9.263355"><ele>1057.0</ele><time>2026-04-23T13:56:23.713Z</time></trkpt><trkpt lat="44.7042017" lon="9.2634217"><ele>1052.5</ele><time>2026-04-23T13:56:25.712Z</time></trkpt><trkpt lat="44.7042633" lon="9.2634667"><ele>1048.0</ele><time>2026-04-23T13:56:26.714Z</time></trkpt><trkpt lat="44.704325" lon="9.26351"><ele>1043.5</ele><time>2026-04-23T13:56:27.713Z</time></trkpt><trkpt lat="44.7043833" lon="9.2635583"><ele>1039.0</ele><time>2026-04-23T13:56:28.714Z</time></trkpt><trkpt lat="44.7044417" lon="9.26361"><ele>1039.0</ele><time>2026-04-23T13:56:29.713Z</time></trkpt><trkpt lat="44.7044933" lon="9.263665"><ele>1039.0</ele><time>2026-04-23T13:56:30.713Z</time></trkpt><trkpt lat="44.7045533" lon="9.2637117"><ele>1039.0</ele><time>2026-04-23T13:56:31.713Z</time></trkpt><trkpt lat="44.70462" lon="9.2637567"><ele>1039.0</ele><time>2026-04-23T13:56:32.714Z</time></trkpt><trkpt lat="44.7046967" lon="9.26381"><ele>1039.0</ele><time>2026-04-23T13:56:33.713Z</time></trkpt><trkpt lat="44.70478" lon="9.2638817"><ele>1039.0</ele><time>2026-04-23T13:56:34.713Z</time></trkpt><trkpt lat="44.7048633" lon="9.2639633"><ele>1034.6000000000001</ele><time>2026-04-23T13:56:35.713Z</time></trkpt><trkpt lat="44.7049417" lon="9.2640483"><ele>1030.2</ele><time>2026-04-23T13:56:36.713Z</time></trkpt><trkpt lat="44.705005" lon="9.2641333"><ele>1025.8000000000002</ele><time>2026-04-23T13:56:37.713Z</time></trkpt><trkpt lat="44.705065" lon="9.264235"><ele>1021.4000000000001</ele><time>2026-04-23T13:56:38.715Z</time></trkpt><trkpt lat="44.7051233" lon="9.264345"><ele>1017.0</ele><time>2026-04-23T13:56:39.713Z</time></trkpt><trkpt lat="44.7051817" lon="9.2644467"><ele>1017.0</ele><time>2026-04-23T13:56:40.713Z</time></trkpt><trkpt lat="44.7052317" lon="9.2645267"><ele>1017.0</ele><time>2026-04-23T13:56:41.713Z</time></trkpt><trkpt lat="44.7052917" lon="9.2646117"><ele>1017.0</ele><time>2026-04-23T13:56:43.714Z</time></trkpt><trkpt lat="44.7053633" lon="9.2647167"><ele>1017.0</ele><time>2026-04-23T13:57:03.713Z</time></trkpt><trkpt lat="44.70544" lon="9.2647967"><ele>1017.0</ele><time>2026-04-23T13:57:05.713Z</time></trkpt><trkpt lat="44.7055017" lon="9.2648583"><ele>1017.0</ele><time>2026-04-23T13:57:06.713Z</time></trkpt><trkpt lat="44.7055817" lon="9.264935"><ele>1015.25</ele><time>2026-04-23T13:57:07.713Z</time></trkpt><trkpt lat="44.7056817" lon="9.265025"><ele>1013.5</ele><time>2026-04-23T13:57:08.714Z</time></trkpt><trkpt lat="44.7057833" lon="9.2651167"><ele>1011.75</ele><time>2026-04-23T13:57:09.714Z</time></trkpt><trkpt lat="44.7058883" lon="9.265215"><ele>1010.0</ele><time>2026-04-23T13:57:10.714Z</time></trkpt><trkpt lat="44.7059917" lon="9.26533"><ele>1012.25</ele><time>2026-04-23T13:57:11.714Z</time></trkpt><trkpt lat="44.7060917" lon="9.2654567"><ele>1014.5</ele><time>2026-04-23T13:57:12.713Z</time></trkpt><trkpt lat="44.7061783" lon="9.2655833"><ele>1016.75</ele><time>2026-04-23T13:57:13.713Z</time></trkpt><trkpt lat="44.7062683" lon="9.2657"><ele>1019.0</ele><time>2026-04-23T13:57:14.713Z</time></trkpt><trkpt lat="44.70636" lon="9.2658033"><ele>1013.75</ele><time>2026-04-23T13:57:15.713Z</time></trkpt><trkpt lat="44.706465" lon="9.2658883"><ele>1008.5</ele><time>2026-04-23T13:57:16.713Z</time></trkpt><trkpt lat="44.706585" lon="9.2659617"><ele>1003.25</ele><time>2026-04-23T13:57:17.713Z</time></trkpt><trkpt lat="44.706705" lon="9.2660383"><ele>998.0</ele><time>2026-04-23T13:57:18.713Z</time></trkpt><trkpt lat="44.7068117" lon="9.2661417"><ele>998.0</ele><time>2026-04-23T13:57:19.714Z</time></trkpt><trkpt lat="44.7068983" lon="9.266275"><ele>998.0</ele><time>2026-04-23T13:57:20.713Z</time></trkpt><trkpt lat="44.7069733" lon="9.266425"><ele>998.0</ele><time>2026-04-23T13:57:21.713Z</time></trkpt><trkpt lat="44.70705" lon="9.2665767"><ele>998.0</ele><time>2026-04-23T13:57:22.714Z</time></trkpt><trkpt lat="44.70714" lon="9.2667117"><ele>995.75</ele><time>2026-04-23T13:57:23.713Z</time></trkpt><trkpt lat="44.707245" lon="9.2668283"><ele>993.5</ele><time>2026-04-23T13:57:24.713Z</time></trkpt><trkpt lat="44.7073567" lon="9.26693"><ele>991.25</ele><time>2026-04-23T13:57:25.713Z</time></trkpt><trkpt lat="44.7074733" lon="9.267025"><ele>989.0</ele><time>2026-04-23T13:57:26.714Z</time></trkpt><trkpt lat="44.70759" lon="9.267125"><ele>989.0</ele><time>2026-04-23T13:57:27.713Z</time></trkpt><trkpt lat="44.70771" lon="9.2672383"><ele>989.0</ele><time>2026-04-23T13:57:28.713Z</time></trkpt><trkpt lat="44.7078333" lon="9.2673667"><ele>989.0</ele><time>2026-04-23T13:57:29.715Z</time></trkpt><trkpt lat="44.70795" lon="9.2674967"><ele>989.0</ele><time>2026-04-23T13:57:30.713Z</time></trkpt><trkpt lat="44.7080517" lon="9.267615"><ele>987.8333333333334</ele><time>2026-04-23T13:57:31.714Z</time></trkpt><trkpt lat="44.70813" lon="9.2677133"><ele>986.6666666666667</ele><time>2026-04-23T13:57:32.713Z</time></trkpt><trkpt lat="44.708185" lon="9.2678"><ele>985.5</ele><time>2026-04-23T13:57:33.713Z</time></trkpt><trkpt lat="44.7082183" lon="9.26789"><ele>984.3333333333333</ele><time>2026-04-23T13:57:34.713Z</time></trkpt><trkpt lat="44.7082217" lon="9.2679917"><ele>983.1666666666666</ele><time>2026-04-23T13:57:35.713Z</time></trkpt><trkpt lat="44.7081967" lon="9.268085"><ele>982.0</ele><time>2026-04-23T13:57:36.713Z</time></trkpt><trkpt lat="44.7081217" lon="9.26813"><ele>981.9999999999999</ele><time>2026-04-23T13:57:37.713Z</time></trkpt><trkpt lat="44.70804" lon="9.2681433"><ele>982.0</ele><time>2026-04-23T13:57:38.715Z</time></trkpt><trkpt lat="44.7079567" lon="9.2681317"><ele>982.0</ele><time>2026-04-23T13:57:39.714Z</time></trkpt><trkpt lat="44.70788" lon="9.2681133"><ele>982.0</ele><time>2026-04-23T13:57:40.713Z</time></trkpt><trkpt lat="44.70781" lon="9.2681067"><ele>981.9999999999999</ele><time>2026-04-23T13:57:41.713Z</time></trkpt><trkpt lat="44.7077367" lon="9.2681333"><ele>982.0</ele><time>2026-04-23T13:57:43.713Z</time></trkpt><trkpt lat="44.707795" lon="9.2682167"><ele>979.6</ele><time>2026-04-23T13:57:46.713Z</time></trkpt><trkpt lat="44.7078683" lon="9.268305"><ele>977.2</ele><time>2026-04-23T13:57:48.713Z</time></trkpt><trkpt lat="44.707935" lon="9.26841"><ele>974.8</ele><time>2026-04-23T13:57:50.715Z</time></trkpt><trkpt lat="44.7080083" lon="9.268515"><ele>972.4</ele><time>2026-04-23T13:57:52.713Z</time></trkpt><trkpt lat="44.7080933" lon="9.26863"><ele>970.0</ele><time>2026-04-23T13:57:54.715Z</time></trkpt><trkpt lat="44.7081433" lon="9.2686917"><ele>970.0</ele><time>2026-04-23T13:57:55.714Z</time></trkpt><trkpt lat="44.708195" lon="9.26876"><ele>970.0</ele><time>2026-04-23T13:57:56.714Z</time></trkpt><trkpt lat="44.7082467" lon="9.26882"><ele>970.0</ele><time>2026-04-23T13:57:57.713Z</time></trkpt><trkpt lat="44.7083283" lon="9.2689317"><ele>970.0</ele><time>2026-04-23T13:57:59.713Z</time></trkpt><trkpt lat="44.70838" lon="9.269045"><ele>970.0</ele><time>2026-04-23T13:58:01.714Z</time></trkpt><trkpt lat="44.708445" lon="9.2691683"><ele>967.9999999999999</ele><time>2026-04-23T13:58:03.713Z</time></trkpt><trkpt lat="44.708525" lon="9.2692883"><ele>966.0</ele><time>2026-04-23T13:58:05.713Z</time></trkpt><trkpt lat="44.7085883" lon="9.2693483"><ele>964.0</ele><time>2026-04-23T13:58:06.713Z</time></trkpt><trkpt lat="44.7086567" lon="9.2694067"><ele>962.0</ele><time>2026-04-23T13:58:07.714Z</time></trkpt><trkpt lat="44.7087283" lon="9.2694633"><ele>959.9999999999999</ele><time>2026-04-23T13:58:08.714Z</time></trkpt><trkpt lat="44.708805" lon="9.269525"><ele>958.0</ele><time>2026-04-23T13:58:09.714Z</time></trkpt><trkpt lat="44.7088867" lon="9.2695883"><ele>958.0</ele><time>2026-04-23T13:58:10.713Z</time></trkpt><trkpt lat="44.708965" lon="9.269655"><ele>958.0</ele><time>2026-04-23T13:58:11.713Z</time></trkpt><trkpt lat="44.7090417" lon="9.2697283"><ele>958.0</ele><time>2026-04-23T13:58:12.713Z</time></trkpt><trkpt lat="44.709115" lon="9.269815"><ele>958.0</ele><time>2026-04-23T13:58:13.713Z</time></trkpt><trkpt lat="44.7091817" lon="9.26992"><ele>958.0</ele><time>2026-04-23T13:58:14.714Z</time></trkpt><trkpt lat="44.7092467" lon="9.2700283"><ele>958.4</ele><time>2026-04-23T13:58:15.712Z</time></trkpt><trkpt lat="44.7093083" lon="9.2701483"><ele>958.8</ele><time>2026-04-23T13:58:16.713Z</time></trkpt><trkpt lat="44.7093633" lon="9.2702733"><ele>959.2</ele><time>2026-04-23T13:58:17.714Z</time></trkpt><trkpt lat="44.709405" lon="9.2704117"><ele>959.6</ele><time>2026-04-23T13:58:18.713Z</time></trkpt><trkpt lat="44.7094467" lon="9.27056"><ele>960.0</ele><time>2026-04-23T13:58:19.713Z</time></trkpt><trkpt lat="44.709485" lon="9.2707"><ele>957.2</ele><time>2026-04-23T13:58:20.713Z</time></trkpt><trkpt lat="44.70953" lon="9.2708283"><ele>954.4</ele><time>2026-04-23T13:58:21.713Z</time></trkpt><trkpt lat="44.7095717" lon="9.2709467"><ele>951.5999999999999</ele><time>2026-04-23T13:58:22.714Z</time></trkpt><trkpt lat="44.709615" lon="9.271065"><ele>948.8</ele><time>2026-04-23T13:58:23.715Z</time></trkpt><trkpt lat="44.70964" lon="9.27118"><ele>946.0</ele><time>2026-04-23T13:58:24.714Z</time></trkpt><trkpt lat="44.7096433" lon="9.2712967"><ele>945.9999999999999</ele><time>2026-04-23T13:58:25.713Z</time></trkpt><trkpt lat="44.7096283" lon="9.2714117"><ele>946.0</ele><time>2026-04-23T13:58:26.713Z</time></trkpt><trkpt lat="44.7095983" lon="9.2715183"><ele>946.0</ele><time>2026-04-23T13:58:27.714Z</time></trkpt><trkpt lat="44.7095633" lon="9.2716267"><ele>946.0</ele><time>2026-04-23T13:58:28.714Z</time></trkpt><trkpt lat="44.709515" lon="9.2717317"><ele>945.9999999999999</ele><time>2026-04-23T13:58:29.714Z</time></trkpt><trkpt lat="44.7094783" lon="9.2718467"><ele>946.0</ele><time>2026-04-23T13:58:30.714Z</time></trkpt><trkpt lat="44.70944" lon="9.2719633"><ele>940.8</ele><time>2026-04-23T13:58:31.714Z</time></trkpt><trkpt lat="44.7094017" lon="9.2720867"><ele>935.5999999999999</ele><time>2026-04-23T13:58:32.714Z</time></trkpt><trkpt lat="44.7093667" lon="9.27221"><ele>930.4</ele><time>2026-04-23T13:58:33.713Z</time></trkpt><trkpt lat="44.7093433" lon="9.2723383"><ele>925.2</ele><time>2026-04-23T13:58:34.713Z</time></trkpt><trkpt lat="44.7093133" lon="9.2724617"><ele>920.0</ele><time>2026-04-23T13:58:35.713Z</time></trkpt><trkpt lat="44.7092733" lon="9.2725767"><ele>920.0000000000001</ele><time>2026-04-23T13:58:36.714Z</time></trkpt><trkpt lat="44.7092367" lon="9.2726883"><ele>920.0</ele><time>2026-04-23T13:58:37.713Z</time></trkpt><trkpt lat="44.7092083" lon="9.2728033"><ele>920.0</ele><time>2026-04-23T13:58:38.714Z</time></trkpt><trkpt lat="44.7091917" lon="9.2729133"><ele>920.0</ele><time>2026-04-23T13:58:39.713Z</time></trkpt><trkpt lat="44.7091833" lon="9.2730183"><ele>920.0000000000001</ele><time>2026-04-23T13:58:40.714Z</time></trkpt><trkpt lat="44.7091833" lon="9.2731267"><ele>920.0</ele><time>2026-04-23T13:58:41.715Z</time></trkpt><trkpt lat="44.7091883" lon="9.273235"><ele>920.0000000000001</ele><time>2026-04-23T13:58:42.714Z</time></trkpt><trkpt lat="44.709195" lon="9.27333"><ele>920.0</ele><time>2026-04-23T13:58:43.715Z</time></trkpt><trkpt lat="44.7092167" lon="9.2734233"><ele>920.0</ele><time>2026-04-23T13:58:45.713Z</time></trkpt><trkpt lat="44.7092717" lon="9.27352"><ele>920.0</ele><time>2026-04-23T13:58:50.713Z</time></trkpt><trkpt lat="44.7093133" lon="9.2736083"><ele>920.0000000000001</ele><time>2026-04-23T13:58:52.713Z</time></trkpt><trkpt lat="44.709405" lon="9.27371"><ele>920.0</ele><time>2026-04-23T13:58:54.713Z</time></trkpt><trkpt lat="44.7094733" lon="9.2737533"><ele>920.4</ele><time>2026-04-23T13:58:55.713Z</time></trkpt><trkpt lat="44.70956" lon="9.2737883"><ele>920.8</ele><time>2026-04-23T13:58:56.714Z</time></trkpt><trkpt lat="44.709665" lon="9.2738317"><ele>921.2</ele><time>2026-04-23T13:58:57.713Z</time></trkpt><trkpt lat="44.7097733" lon="9.2738767"><ele>921.6</ele><time>2026-04-23T13:58:58.714Z</time></trkpt><trkpt lat="44.70988" lon="9.2739233"><ele>922.0</ele><time>2026-04-23T13:58:59.713Z</time></trkpt><trkpt lat="44.709985" lon="9.2739667"><ele>922.0</ele><time>2026-04-23T13:59:00.712Z</time></trkpt><trkpt lat="44.71009" lon="9.2740083"><ele>922.0</ele><time>2026-04-23T13:59:01.713Z</time></trkpt><trkpt lat="44.7102" lon="9.2740483"><ele>922.0</ele><time>2026-04-23T13:59:02.713Z</time></trkpt><trkpt lat="44.710315" lon="9.2740933"><ele>922.0</ele><time>2026-04-23T13:59:03.712Z</time></trkpt><trkpt lat="44.7104317" lon="9.2741417"><ele>927.5</ele><time>2026-04-23T13:59:04.715Z</time></trkpt><trkpt lat="44.71056" lon="9.2742017"><ele>933.0</ele><time>2026-04-23T13:59:05.714Z</time></trkpt><trkpt lat="44.7106917" lon="9.2742733"><ele>938.5</ele><time>2026-04-23T13:59:06.714Z</time></trkpt><trkpt lat="44.7108183" lon="9.2743517"><ele>944.0</ele><time>2026-04-23T13:59:07.714Z</time></trkpt><trkpt lat="44.710955" lon="9.2744183"><ele>945.8000000000001</ele><time>2026-04-23T13:59:08.714Z</time></trkpt><trkpt lat="44.7110817" lon="9.2744733"><ele>947.6000000000001</ele><time>2026-04-23T13:59:09.714Z</time></trkpt><trkpt lat="44.7111867" lon="9.2745483"><ele>949.4</ele><time>2026-04-23T13:59:10.715Z</time></trkpt><trkpt lat="44.7112633" lon="9.2746367"><ele>951.2</ele><time>2026-04-23T13:59:11.715Z</time></trkpt><trkpt lat="44.711315" lon="9.2747367"><ele>953.0</ele><time>2026-04-23T13:59:12.715Z</time></trkpt><trkpt lat="44.71134" lon="9.2748183"><ele>953.0000000000001</ele><time>2026-04-23T13:59:13.714Z</time></trkpt><trkpt lat="44.71139" lon="9.2749617"><ele>953.0</ele><time>2026-04-23T13:59:15.714Z</time></trkpt><trkpt lat="44.7114767" lon="9.2750783"><ele>953.0</ele><time>2026-04-23T13:59:17.713Z</time></trkpt><trkpt lat="44.711535" lon="9.2751267"><ele>953.0</ele><time>2026-04-23T13:59:18.713Z</time></trkpt><trkpt lat="44.7116017" lon="9.275165"><ele>953.0000000000001</ele><time>2026-04-23T13:59:19.714Z</time></trkpt><trkpt lat="44.7116717" lon="9.2751883"><ele>953.0</ele><time>2026-04-23T13:59:20.713Z</time></trkpt><trkpt lat="44.7117467" lon="9.275215"><ele>953.0000000000001</ele><time>2026-04-23T13:59:21.713Z</time></trkpt><trkpt lat="44.711815" lon="9.2752517"><ele>953.0</ele><time>2026-04-23T13:59:22.713Z</time></trkpt><trkpt lat="44.7118883" lon="9.2753017"><ele>953.0</ele><time>2026-04-23T13:59:23.713Z</time></trkpt><trkpt lat="44.711965" lon="9.2753517"><ele>953.0</ele><time>2026-04-23T13:59:24.713Z</time></trkpt><trkpt lat="44.7120383" lon="9.2753983"><ele>953.0000000000001</ele><time>2026-04-23T13:59:25.713Z</time></trkpt><trkpt lat="44.7121033" lon="9.27545"><ele>953.0</ele><time>2026-04-23T13:59:26.713Z</time></trkpt><trkpt lat="44.7121683" lon="9.2755217"><ele>955.5000000000001</ele><time>2026-04-23T13:59:27.714Z</time></trkpt><trkpt lat="44.712225" lon="9.2755967"><ele>958.0</ele><time>2026-04-23T13:59:28.713Z</time></trkpt><trkpt lat="44.71229" lon="9.275725"><ele>960.5</ele><time>2026-04-23T13:59:30.715Z</time></trkpt><trkpt lat="44.71234" lon="9.275885"><ele>963.0</ele><time>2026-04-23T13:59:32.716Z</time></trkpt><trkpt lat="44.7123617" lon="9.27597"><ele>965.5000000000001</ele><time>2026-04-23T13:59:33.715Z</time></trkpt><trkpt lat="44.7123817" lon="9.2760617"><ele>968.0</ele><time>2026-04-23T13:59:34.714Z</time></trkpt><trkpt lat="44.712405" lon="9.2761583"><ele>968.0000000000001</ele><time>2026-04-23T13:59:35.714Z</time></trkpt><trkpt lat="44.7124317" lon="9.276245"><ele>968.0</ele><time>2026-04-23T13:59:36.714Z</time></trkpt><trkpt lat="44.71247" lon="9.27634"><ele>968.0</ele><time>2026-04-23T13:59:37.715Z</time></trkpt><trkpt lat="44.7125" lon="9.2764217"><ele>968.0</ele><time>2026-04-23T13:59:38.714Z</time></trkpt><trkpt lat="44.712535" lon="9.2764967"><ele>968.0000000000001</ele><time>2026-04-23T13:59:39.714Z</time></trkpt><trkpt lat="44.71262" lon="9.2766183"><ele>968.0</ele><time>2026-04-23T13:59:41.714Z</time></trkpt><trkpt lat="44.7127033" lon="9.2767333"><ele>968.0000000000001</ele><time>2026-04-23T13:59:43.714Z</time></trkpt><trkpt lat="44.7127783" lon="9.2767417"><ele>968.0</ele><time>2026-04-23T13:59:45.714Z</time></trkpt><trkpt lat="44.7128117" lon="9.27665"><ele>968.0</ele><time>2026-04-23T13:59:47.713Z</time></trkpt><trkpt lat="44.712805" lon="9.2765367"><ele>968.0</ele><time>2026-04-23T13:59:49.715Z</time></trkpt><trkpt lat="44.7127917" lon="9.2764183"><ele>968.0000000000001</ele><time>2026-04-23T13:59:51.714Z</time></trkpt><trkpt lat="44.7127576" lon="9.2762546"><ele>968.0</ele><time>2026-04-23T13:59:53.714Z</time></trkpt><trkpt lat="44.7127701" lon="9.27607"><ele>968.0</ele><time>2026-04-23T13:59:55.714Z</time></trkpt><trkpt lat="44.7127966" lon="9.2759652"><ele>967.9999999999999</ele><time>2026-04-23T13:59:56.714Z</time></trkpt><trkpt lat="44.712826" lon="9.2758521"><ele>968.0</ele><time>2026-04-23T13:59:57.714Z</time></trkpt><trkpt lat="44.7128588" lon="9.2757516"><ele>968.0</ele><time>2026-04-23T13:59:58.713Z</time></trkpt><trkpt lat="44.7128962" lon="9.2756668"><ele>967.9999999999999</ele><time>2026-04-23T13:59:59.714Z</time></trkpt><trkpt lat="44.7129364" lon="9.275595"><ele>968.0</ele><time>2026-04-23T14:00:00.715Z</time></trkpt><trkpt lat="44.7129876" lon="9.275537"><ele>968.0</ele><time>2026-04-23T14:00:01.714Z</time></trkpt><trkpt lat="44.7130444" lon="9.2754889"><ele>969.7142857142857</ele><time>2026-04-23T14:00:02.715Z</time></trkpt><trkpt lat="44.7130997" lon="9.2754448"><ele>971.4285714285713</ele><time>2026-04-23T14:00:03.714Z</time></trkpt><trkpt lat="44.7131539" lon="9.2753974"><ele>973.1428571428571</ele><time>2026-04-23T14:00:04.713Z</time></trkpt><trkpt lat="44.713214" lon="9.2753414"><ele>974.8571428571429</ele><time>2026-04-23T14:00:05.713Z</time></trkpt><trkpt lat="44.7132736" lon="9.2752771"><ele>976.5714285714286</ele><time>2026-04-23T14:00:06.714Z</time></trkpt><trkpt lat="44.713334" lon="9.2752113"><ele>978.2857142857142</ele><time>2026-04-23T14:00:07.714Z</time></trkpt><trkpt lat="44.7133927" lon="9.275136"><ele>980.0</ele><time>2026-04-23T14:00:08.714Z</time></trkpt><trkpt lat="44.7134433" lon="9.2750592"><ele>980.0000000000001</ele><time>2026-04-23T14:00:09.713Z</time></trkpt><trkpt lat="44.713485" lon="9.2749838"><ele>980.0</ele><time>2026-04-23T14:00:10.713Z</time></trkpt><trkpt lat="44.7135263" lon="9.2748979"><ele>980.0</ele><time>2026-04-23T14:00:11.713Z</time></trkpt><trkpt lat="44.7135568" lon="9.2748001"><ele>980.0</ele><time>2026-04-23T14:00:12.713Z</time></trkpt><trkpt lat="44.7135906" lon="9.2747004"><ele>980.0000000000001</ele><time>2026-04-23T14:00:13.714Z</time></trkpt><trkpt lat="44.7136295" lon="9.2746106"><ele>980.0</ele><time>2026-04-23T14:00:14.714Z</time></trkpt><trkpt lat="44.7136811" lon="9.2745263"><ele>980.4</ele><time>2026-04-23T14:00:15.713Z</time></trkpt><trkpt lat="44.7137381" lon="9.2744437"><ele>980.8</ele><time>2026-04-23T14:00:16.713Z</time></trkpt><trkpt lat="44.7137918" lon="9.2743663"><ele>981.2</ele><time>2026-04-23T14:00:17.713Z</time></trkpt><trkpt lat="44.7138382" lon="9.2742956"><ele>981.6</ele><time>2026-04-23T14:00:18.714Z</time></trkpt><trkpt lat="44.7139078" lon="9.2741585"><ele>982.0</ele><time>2026-04-23T14:00:20.714Z</time></trkpt><trkpt lat="44.7139512" lon="9.2739984"><ele>984.9999999999999</ele><time>2026-04-23T14:00:22.714Z</time></trkpt><trkpt lat="44.7139613" lon="9.2738924"><ele>988.0</ele><time>2026-04-23T14:00:23.715Z</time></trkpt><trkpt lat="44.7139767" lon="9.2737898"><ele>991.0</ele><time>2026-04-23T14:00:24.715Z</time></trkpt><trkpt lat="44.7139974" lon="9.2736811"><ele>994.0</ele><time>2026-04-23T14:00:25.716Z</time></trkpt><trkpt lat="44.7140258" lon="9.2735677"><ele>996.9999999999999</ele><time>2026-04-23T14:00:26.717Z</time></trkpt><trkpt lat="44.7140618" lon="9.2734638"><ele>1000.0</ele><time>2026-04-23T14:00:27.714Z</time></trkpt><trkpt lat="44.7141085" lon="9.2733658"><ele>999.9999999999999</ele><time>2026-04-23T14:00:28.714Z</time></trkpt><trkpt lat="44.7141594" lon="9.2732734"><ele>1000.0</ele><time>2026-04-23T14:00:29.714Z</time></trkpt><trkpt lat="44.7142108" lon="9.2731889"><ele>1000.0</ele><time>2026-04-23T14:00:30.714Z</time></trkpt><trkpt lat="44.7142605" lon="9.2731135"><ele>1000.0</ele><time>2026-04-23T14:00:31.715Z</time></trkpt><trkpt lat="44.7143117" lon="9.2730487"><ele>999.9999999999999</ele><time>2026-04-23T14:00:32.714Z</time></trkpt><trkpt lat="44.714405" lon="9.272945"><ele>1000.0</ele><time>2026-04-23T14:00:34.714Z</time></trkpt><trkpt lat="44.7144767" lon="9.2728617"><ele>998.4</ele><time>2026-04-23T14:00:36.714Z</time></trkpt><trkpt lat="44.7145833" lon="9.272735"><ele>996.8</ele><time>2026-04-23T14:00:38.715Z</time></trkpt><trkpt lat="44.71464" lon="9.27265"><ele>995.2</ele><time>2026-04-23T14:00:39.714Z</time></trkpt><trkpt lat="44.7146967" lon="9.27256"><ele>993.6</ele><time>2026-04-23T14:00:40.715Z</time></trkpt><trkpt lat="44.71475" lon="9.2724533"><ele>992.0</ele><time>2026-04-23T14:00:41.714Z</time></trkpt><trkpt lat="44.7148067" lon="9.2723333"><ele>993.6</ele><time>2026-04-23T14:00:42.714Z</time></trkpt><trkpt lat="44.7148617" lon="9.2721983"><ele>995.2</ele><time>2026-04-23T14:00:43.715Z</time></trkpt><trkpt lat="44.71492" lon="9.2720667"><ele>996.8</ele><time>2026-04-23T14:00:44.714Z</time></trkpt><trkpt lat="44.7149767" lon="9.2719367"><ele>998.4</ele><time>2026-04-23T14:00:45.715Z</time></trkpt><trkpt lat="44.71504" lon="9.27181"><ele>1000.0</ele><time>2026-04-23T14:00:46.714Z</time></trkpt><trkpt lat="44.715105" lon="9.2716933"><ele>1000.0</ele><time>2026-04-23T14:00:47.713Z</time></trkpt><trkpt lat="44.7151833" lon="9.2715783"><ele>1000.0</ele><time>2026-04-23T14:00:48.713Z</time></trkpt><trkpt lat="44.7152767" lon="9.27144"><ele>1000.0</ele><time>2026-04-23T14:00:49.715Z</time></trkpt><trkpt lat="44.7153717" lon="9.2713083"><ele>1000.0</ele><time>2026-04-23T14:00:50.715Z</time></trkpt><trkpt lat="44.71546" lon="9.2711817"><ele>998.75</ele><time>2026-04-23T14:00:51.713Z</time></trkpt><trkpt lat="44.7155483" lon="9.2710617"><ele>997.5</ele><time>2026-04-23T14:00:52.714Z</time></trkpt><trkpt lat="44.7156317" lon="9.2709467"><ele>996.25</ele><time>2026-04-23T14:00:53.714Z</time></trkpt><trkpt lat="44.7157217" lon="9.2708283"><ele>995.0</ele><time>2026-04-23T14:00:54.714Z</time></trkpt><trkpt lat="44.7158117" lon="9.2707167"><ele>995.0000000000001</ele><time>2026-04-23T14:00:55.713Z</time></trkpt><trkpt lat="44.7158967" lon="9.270625"><ele>995.0</ele><time>2026-04-23T14:00:56.714Z</time></trkpt><trkpt lat="44.715965" lon="9.27054"><ele>995.0</ele><time>2026-04-23T14:00:57.715Z</time></trkpt><trkpt lat="44.7160133" lon="9.2704433"><ele>995.0</ele><time>2026-04-23T14:00:58.714Z</time></trkpt><trkpt lat="44.7160667" lon="9.27036"><ele>995.0000000000001</ele><time>2026-04-23T14:00:59.713Z</time></trkpt><trkpt lat="44.7161183" lon="9.2702833"><ele>995.0</ele><time>2026-04-23T14:01:00.713Z</time></trkpt><trkpt lat="44.7162083" lon="9.2702583"><ele>997.4</ele><time>2026-04-23T14:01:01.714Z</time></trkpt><trkpt lat="44.7162983" lon="9.2702517"><ele>999.8</ele><time>2026-04-23T14:01:02.715Z</time></trkpt><trkpt lat="44.7164017" lon="9.27028"><ele>1002.2</ele><time>2026-04-23T14:01:03.713Z</time></trkpt><trkpt lat="44.7165167" lon="9.2703333"><ele>1004.6</ele><time>2026-04-23T14:01:04.713Z</time></trkpt><trkpt lat="44.7166217" lon="9.27039"><ele>1007.0</ele><time>2026-04-23T14:01:05.714Z</time></trkpt><trkpt lat="44.7167183" lon="9.2704567"><ele>1007.0000000000001</ele><time>2026-04-23T14:01:06.713Z</time></trkpt><trkpt lat="44.7168017" lon="9.2705283"><ele>1007.0</ele><time>2026-04-23T14:01:07.714Z</time></trkpt><trkpt lat="44.7168617" lon="9.270605"><ele>1007.0</ele><time>2026-04-23T14:01:08.714Z</time></trkpt><trkpt lat="44.716905" lon="9.2706733"><ele>1007.0</ele><time>2026-04-23T14:01:09.713Z</time></trkpt><trkpt lat="44.71698" lon="9.27073"><ele>1007.0000000000001</ele><time>2026-04-23T14:01:11.717Z</time></trkpt><trkpt lat="44.7170617" lon="9.2707017"><ele>1007.0</ele><time>2026-04-23T14:01:14.713Z</time></trkpt><trkpt lat="44.7171467" lon="9.2706967"><ele>1005.0000000000001</ele><time>2026-04-23T14:01:16.715Z</time></trkpt><trkpt lat="44.7172317" lon="9.270695"><ele>1003.0</ele><time>2026-04-23T14:01:18.716Z</time></trkpt><trkpt lat="44.71733" lon="9.2706883"><ele>1001.0</ele><time>2026-04-23T14:01:20.715Z</time></trkpt><trkpt lat="44.7173983" lon="9.270685"><ele>999.0</ele><time>2026-04-23T14:01:21.715Z</time></trkpt><trkpt lat="44.7174783" lon="9.2706733"><ele>997.0000000000001</ele><time>2026-04-23T14:01:22.714Z</time></trkpt><trkpt lat="44.7175517" lon="9.2706483"><ele>995.0</ele><time>2026-04-23T14:01:23.714Z</time></trkpt><trkpt lat="44.7176117" lon="9.270585"><ele>995.0</ele><time>2026-04-23T14:01:24.714Z</time></trkpt><trkpt lat="44.717665" lon="9.2705017"><ele>995.0</ele><time>2026-04-23T14:01:25.714Z</time></trkpt><trkpt lat="44.7177183" lon="9.2703717"><ele>995.0</ele><time>2026-04-23T14:01:26.714Z</time></trkpt><trkpt lat="44.7177633" lon="9.2702083"><ele>995.0</ele><time>2026-04-23T14:01:27.714Z</time></trkpt><trkpt lat="44.71781" lon="9.2700617"><ele>995.0</ele><time>2026-04-23T14:01:28.715Z</time></trkpt><trkpt lat="44.7178683" lon="9.2699333"><ele>996.0</ele><time>2026-04-23T14:01:29.714Z</time></trkpt><trkpt lat="44.7179367" lon="9.2698167"><ele>997.0</ele><time>2026-04-23T14:01:30.714Z</time></trkpt><trkpt lat="44.7180117" lon="9.2697167"><ele>998.0</ele><time>2026-04-23T14:01:31.714Z</time></trkpt><trkpt lat="44.718095" lon="9.2696617"><ele>999.0</ele><time>2026-04-23T14:01:32.715Z</time></trkpt><trkpt lat="44.7181767" lon="9.2696233"><ele>1000.0</ele><time>2026-04-23T14:01:33.714Z</time></trkpt><trkpt lat="44.7182567" lon="9.26958"><ele>999.8333333333333</ele><time>2026-04-23T14:01:34.717Z</time></trkpt><trkpt lat="44.7183367" lon="9.2695367"><ele>999.6666666666666</ele><time>2026-04-23T14:01:35.715Z</time></trkpt><trkpt lat="44.7184267" lon="9.2694883"><ele>999.5</ele><time>2026-04-23T14:01:36.715Z</time></trkpt><trkpt lat="44.7185117" lon="9.26943"><ele>999.3333333333333</ele><time>2026-04-23T14:01:37.715Z</time></trkpt><trkpt lat="44.7185867" lon="9.2693883"><ele>999.1666666666666</ele><time>2026-04-23T14:01:38.714Z</time></trkpt><trkpt lat="44.718655" lon="9.2693683"><ele>999.0</ele><time>2026-04-23T14:01:39.715Z</time></trkpt><trkpt lat="44.71875" lon="9.2693567"><ele>999.0</ele><time>2026-04-23T14:01:41.714Z</time></trkpt><trkpt lat="44.71882" lon="9.269325"><ele>999.0000000000001</ele><time>2026-04-23T14:01:43.714Z</time></trkpt><trkpt lat="44.7189367" lon="9.2692783"><ele>999.0000000000001</ele><time>2026-04-23T14:01:45.714Z</time></trkpt><trkpt lat="44.7190017" lon="9.2692333"><ele>999.0</ele><time>2026-04-23T14:01:46.714Z</time></trkpt><trkpt lat="44.7190783" lon="9.2691867"><ele>999.0</ele><time>2026-04-23T14:01:47.714Z</time></trkpt><trkpt lat="44.7191783" lon="9.2691467"><ele>999.0</ele><time>2026-04-23T14:01:48.715Z</time></trkpt><trkpt lat="44.7192733" lon="9.269115"><ele>999.0000000000001</ele><time>2026-04-23T14:01:49.714Z</time></trkpt><trkpt lat="44.7193717" lon="9.2690767"><ele>999.0000000000001</ele><time>2026-04-23T14:01:50.714Z</time></trkpt><trkpt lat="44.7194733" lon="9.2690417"><ele>999.0</ele><time>2026-04-23T14:01:51.713Z</time></trkpt><trkpt lat="44.7195733" lon="9.2690167"><ele>999.0</ele><time>2026-04-23T14:01:52.714Z</time></trkpt><trkpt lat="44.71969" lon="9.2690033"><ele>999.2</ele><time>2026-04-23T14:01:53.713Z</time></trkpt><trkpt lat="44.719795" lon="9.26899"><ele>999.4000000000001</ele><time>2026-04-23T14:01:54.713Z</time></trkpt><trkpt lat="44.7199083" lon="9.2689833"><ele>999.6</ele><time>2026-04-23T14:01:55.712Z</time></trkpt><trkpt lat="44.720015" lon="9.2689583"><ele>999.8</ele><time>2026-04-23T14:01:56.713Z</time></trkpt><trkpt lat="44.72012" lon="9.2689483"><ele>1000.0</ele><time>2026-04-23T14:01:57.714Z</time></trkpt><trkpt lat="44.720225" lon="9.26896"><ele>1003.4</ele><time>2026-04-23T14:01:58.712Z</time></trkpt><trkpt lat="44.7203333" lon="9.26899"><ele>1006.8</ele><time>2026-04-23T14:01:59.712Z</time></trkpt><trkpt lat="44.720435" lon="9.2690467"><ele>1010.2</ele><time>2026-04-23T14:02:00.712Z</time></trkpt><trkpt lat="44.720525" lon="9.26913"><ele>1013.6</ele><time>2026-04-23T14:02:01.713Z</time></trkpt><trkpt lat="44.7205933" lon="9.2692333"><ele>1017.0</ele><time>2026-04-23T14:02:02.713Z</time></trkpt><trkpt lat="44.7206467" lon="9.26935"><ele>1017.0</ele><time>2026-04-23T14:02:03.712Z</time></trkpt><trkpt lat="44.72068" lon="9.2694767"><ele>1017.0</ele><time>2026-04-23T14:02:04.712Z</time></trkpt><trkpt lat="44.7207183" lon="9.2695933"><ele>1017.0</ele><time>2026-04-23T14:02:05.714Z</time></trkpt><trkpt lat="44.720775" lon="9.2697067"><ele>1017.0</ele><time>2026-04-23T14:02:06.713Z</time></trkpt><trkpt lat="44.720835" lon="9.269825"><ele>1017.0</ele><time>2026-04-23T14:02:07.713Z</time></trkpt><trkpt lat="44.720885" lon="9.269945"><ele>1015.2</ele><time>2026-04-23T14:02:08.713Z</time></trkpt><trkpt lat="44.720925" lon="9.2700817"><ele>1013.4000000000001</ele><time>2026-04-23T14:02:09.712Z</time></trkpt><trkpt lat="44.720975" lon="9.2702217"><ele>1011.5999999999999</ele><time>2026-04-23T14:02:10.714Z</time></trkpt><trkpt lat="44.7210267" lon="9.270365"><ele>1009.8</ele><time>2026-04-23T14:02:11.713Z</time></trkpt><trkpt lat="44.7210783" lon="9.2705"><ele>1008.0</ele><time>2026-04-23T14:02:12.712Z</time></trkpt><trkpt lat="44.7211417" lon="9.27062"><ele>1011.5999999999999</ele><time>2026-04-23T14:02:13.712Z</time></trkpt><trkpt lat="44.7212167" lon="9.2707317"><ele>1015.1999999999999</ele><time>2026-04-23T14:02:14.713Z</time></trkpt><trkpt lat="44.7212983" lon="9.2708267"><ele>1018.8</ele><time>2026-04-23T14:02:15.714Z</time></trkpt><trkpt lat="44.7213933" lon="9.2708983"><ele>1022.4</ele><time>2026-04-23T14:02:16.712Z</time></trkpt><trkpt lat="44.7214833" lon="9.2709667"><ele>1026.0</ele><time>2026-04-23T14:02:17.712Z</time></trkpt><trkpt lat="44.72157" lon="9.2710217"><ele>1026.0</ele><time>2026-04-23T14:02:18.712Z</time></trkpt><trkpt lat="44.7216533" lon="9.27106"><ele>1026.0</ele><time>2026-04-23T14:02:19.713Z</time></trkpt><trkpt lat="44.7217317" lon="9.2710883"><ele>1026.0</ele><time>2026-04-23T14:02:20.713Z</time></trkpt><trkpt lat="44.721805" lon="9.2710983"><ele>1026.0</ele><time>2026-04-23T14:02:21.712Z</time></trkpt><trkpt lat="44.7218867" lon="9.2711083"><ele>1026.0</ele><time>2026-04-23T14:02:22.711Z</time></trkpt><trkpt lat="44.72199" lon="9.2711267"><ele>1026.0</ele><time>2026-04-23T14:02:23.714Z</time></trkpt><trkpt lat="44.7221067" lon="9.271135"><ele>1026.0</ele><time>2026-04-23T14:02:24.715Z</time></trkpt><trkpt lat="44.7222233" lon="9.27114"><ele>1026.0</ele><time>2026-04-23T14:02:25.713Z</time></trkpt><trkpt lat="44.7223267" lon="9.2711367"><ele>1026.0</ele><time>2026-04-23T14:02:26.714Z</time></trkpt><trkpt lat="44.722425" lon="9.2711383"><ele>1026.0</ele><time>2026-04-23T14:02:27.712Z</time></trkpt><trkpt lat="44.7225267" lon="9.271145"><ele>1026.0</ele><time>2026-04-23T14:02:28.713Z</time></trkpt><trkpt lat="44.7226283" lon="9.2711333"><ele>1025.6</ele><time>2026-04-23T14:02:29.713Z</time></trkpt><trkpt lat="44.7227333" lon="9.27109"><ele>1025.1999999999998</ele><time>2026-04-23T14:02:30.714Z</time></trkpt><trkpt lat="44.7228333" lon="9.271015"><ele>1024.8000000000002</ele><time>2026-04-23T14:02:31.712Z</time></trkpt><trkpt lat="44.7229333" lon="9.2709433"><ele>1024.4</ele><time>2026-04-23T14:02:32.713Z</time></trkpt><trkpt lat="44.7230417" lon="9.2708933"><ele>1024.0</ele><time>2026-04-23T14:02:33.713Z</time></trkpt><trkpt lat="44.7231567" lon="9.2708583"><ele>1024.0</ele><time>2026-04-23T14:02:34.713Z</time></trkpt><trkpt lat="44.7232783" lon="9.2708317"><ele>1024.0</ele><time>2026-04-23T14:02:35.712Z</time></trkpt><trkpt lat="44.7234017" lon="9.270805"><ele>1024.0</ele><time>2026-04-23T14:02:36.712Z</time></trkpt><trkpt lat="44.72352" lon="9.2707867"><ele>1024.0</ele><time>2026-04-23T14:02:37.714Z</time></trkpt><trkpt lat="44.723635" lon="9.27077"><ele>1024.8</ele><time>2026-04-23T14:02:38.714Z</time></trkpt><trkpt lat="44.7237367" lon="9.2707633"><ele>1025.6000000000001</ele><time>2026-04-23T14:02:39.712Z</time></trkpt><trkpt lat="44.7238383" lon="9.2707683"><ele>1026.4</ele><time>2026-04-23T14:02:40.714Z</time></trkpt><trkpt lat="44.7239433" lon="9.27078"><ele>1027.2</ele><time>2026-04-23T14:02:41.713Z</time></trkpt><trkpt lat="44.72404" lon="9.27079"><ele>1028.0</ele><time>2026-04-23T14:02:42.712Z</time></trkpt><trkpt lat="44.724125" lon="9.2707983"><ele>1028.0</ele><time>2026-04-23T14:02:43.713Z</time></trkpt><trkpt lat="44.7242017" lon="9.2708117"><ele>1028.0</ele><time>2026-04-23T14:02:44.714Z</time></trkpt><trkpt lat="44.724275" lon="9.2708267"><ele>1028.0</ele><time>2026-04-23T14:02:45.713Z</time></trkpt><trkpt lat="44.72435" lon="9.2708433"><ele>1028.0</ele><time>2026-04-23T14:02:46.714Z</time></trkpt><trkpt lat="44.72443" lon="9.27086"><ele>1028.0</ele><time>2026-04-23T14:02:47.713Z</time></trkpt><trkpt lat="44.7245183" lon="9.2708783"><ele>1028.0</ele><time>2026-04-23T14:02:48.713Z</time></trkpt><trkpt lat="44.7246217" lon="9.270885"><ele>1031.6</ele><time>2026-04-23T14:02:49.714Z</time></trkpt><trkpt lat="44.724735" lon="9.270895"><ele>1035.1999999999998</ele><time>2026-04-23T14:02:50.713Z</time></trkpt><trkpt lat="44.7248567" lon="9.27091"><ele>1038.8</ele><time>2026-04-23T14:02:51.713Z</time></trkpt><trkpt lat="44.7249667" lon="9.270935"><ele>1042.3999999999999</ele><time>2026-04-23T14:02:52.713Z</time></trkpt><trkpt lat="44.7250483" lon="9.27097"><ele>1046.0</ele><time>2026-04-23T14:02:53.713Z</time></trkpt><trkpt lat="44.7251117" lon="9.271025"><ele>1046.0</ele><time>2026-04-23T14:02:54.712Z</time></trkpt><trkpt lat="44.7251817" lon="9.2711017"><ele>1046.0</ele><time>2026-04-23T14:02:55.713Z</time></trkpt><trkpt lat="44.7252583" lon="9.2711767"><ele>1046.0</ele><time>2026-04-23T14:02:56.713Z</time></trkpt><trkpt lat="44.7253433" lon="9.271235"><ele>1046.0</ele><time>2026-04-23T14:02:57.712Z</time></trkpt><trkpt lat="44.7254417" lon="9.2712767"><ele>1046.0</ele><time>2026-04-23T14:02:58.713Z</time></trkpt><trkpt lat="44.7255367" lon="9.2713217"><ele>1048.8</ele><time>2026-04-23T14:02:59.713Z</time></trkpt><trkpt lat="44.7256283" lon="9.2713733"><ele>1051.6</ele><time>2026-04-23T14:03:00.712Z</time></trkpt><trkpt lat="44.725715" lon="9.2714275"><ele>1054.4</ele><time>2026-04-23T14:03:01.713Z</time></trkpt><trkpt lat="44.7258013" lon="9.2714758"><ele>1057.2</ele><time>2026-04-23T14:03:02.714Z</time></trkpt><trkpt lat="44.7258891" lon="9.2715096"><ele>1060.0</ele><time>2026-04-23T14:03:03.712Z</time></trkpt><trkpt lat="44.7259881" lon="9.2715229"><ele>1060.6</ele><time>2026-04-23T14:03:04.713Z</time></trkpt><trkpt lat="44.7260841" lon="9.2715173"><ele>1061.2</ele><time>2026-04-23T14:03:05.712Z</time></trkpt><trkpt lat="44.7261828" lon="9.2715123"><ele>1061.8</ele><time>2026-04-23T14:03:06.712Z</time></trkpt><trkpt lat="44.7262817" lon="9.271529"><ele>1062.4</ele><time>2026-04-23T14:03:07.713Z</time></trkpt><trkpt lat="44.7263934" lon="9.2715641"><ele>1063.0</ele><time>2026-04-23T14:03:08.713Z</time></trkpt><trkpt lat="44.7265006" lon="9.2716076"><ele>1063.0</ele><time>2026-04-23T14:03:09.712Z</time></trkpt><trkpt lat="44.7266102" lon="9.2716531"><ele>1063.0</ele><time>2026-04-23T14:03:10.714Z</time></trkpt><trkpt lat="44.7267112" lon="9.2716917"><ele>1063.0</ele><time>2026-04-23T14:03:11.717Z</time></trkpt><trkpt lat="44.7268038" lon="9.2717182"><ele>1063.0</ele><time>2026-04-23T14:03:12.713Z</time></trkpt><trkpt lat="44.7269034" lon="9.2717337"><ele>1063.0</ele><time>2026-04-23T14:03:13.714Z</time></trkpt><trkpt lat="44.7270142" lon="9.271738"><ele>1063.0</ele><time>2026-04-23T14:03:14.713Z</time></trkpt><trkpt lat="44.7271263" lon="9.2717327"><ele>1063.0</ele><time>2026-04-23T14:03:15.712Z</time></trkpt><trkpt lat="44.7272425" lon="9.2717164"><ele>1063.0</ele><time>2026-04-23T14:03:16.713Z</time></trkpt><trkpt lat="44.7273517" lon="9.2716942"><ele>1063.0</ele><time>2026-04-23T14:03:17.713Z</time></trkpt><trkpt lat="44.7274508" lon="9.2716619"><ele>1063.0</ele><time>2026-04-23T14:03:18.713Z</time></trkpt><trkpt lat="44.7275405" lon="9.2716226"><ele>1063.0</ele><time>2026-04-23T14:03:19.713Z</time></trkpt><trkpt lat="44.7276081" lon="9.2715706"><ele>1063.0</ele><time>2026-04-23T14:03:20.713Z</time></trkpt><trkpt lat="44.7276694" lon="9.2714908"><ele>1063.0</ele><time>2026-04-23T14:03:21.713Z</time></trkpt><trkpt lat="44.7277405" lon="9.2713974"><ele>1063.0</ele><time>2026-04-23T14:03:22.713Z</time></trkpt><trkpt lat="44.7278225" lon="9.2713173"><ele>1063.0</ele><time>2026-04-23T14:03:23.713Z</time></trkpt><trkpt lat="44.7279214" lon="9.271238"><ele>1065.75</ele><time>2026-04-23T14:03:24.712Z</time></trkpt><trkpt lat="44.7280264" lon="9.2711603"><ele>1068.5</ele><time>2026-04-23T14:03:25.713Z</time></trkpt><trkpt lat="44.7281327" lon="9.2710996"><ele>1071.25</ele><time>2026-04-23T14:03:26.717Z</time></trkpt><trkpt lat="44.7282453" lon="9.2710523"><ele>1074.0</ele><time>2026-04-23T14:03:27.712Z</time></trkpt><trkpt lat="44.7283652" lon="9.2710166"><ele>1074.0</ele><time>2026-04-23T14:03:28.713Z</time></trkpt><trkpt lat="44.7284805" lon="9.2709878"><ele>1074.0</ele><time>2026-04-23T14:03:29.713Z</time></trkpt><trkpt lat="44.7285884" lon="9.2709673"><ele>1074.0</ele><time>2026-04-23T14:03:30.714Z</time></trkpt><trkpt lat="44.7286961" lon="9.2709735"><ele>1074.0</ele><time>2026-04-23T14:03:31.713Z</time></trkpt><trkpt lat="44.7288153" lon="9.2710054"><ele>1074.75</ele><time>2026-04-23T14:03:32.714Z</time></trkpt><trkpt lat="44.7289364" lon="9.2710491"><ele>1075.5</ele><time>2026-04-23T14:03:33.712Z</time></trkpt><trkpt lat="44.7290576" lon="9.2711032"><ele>1076.25</ele><time>2026-04-23T14:03:34.714Z</time></trkpt><trkpt lat="44.7291726" lon="9.271178"><ele>1077.0</ele><time>2026-04-23T14:03:35.713Z</time></trkpt><trkpt lat="44.729283" lon="9.2712743"><ele>1077.0</ele><time>2026-04-23T14:03:36.712Z</time></trkpt><trkpt lat="44.7293903" lon="9.2713803"><ele>1077.0</ele><time>2026-04-23T14:03:37.714Z</time></trkpt><trkpt lat="44.729489" lon="9.2714785"><ele>1077.0</ele><time>2026-04-23T14:03:38.713Z</time></trkpt><trkpt lat="44.7295722" lon="9.2715641"><ele>1077.0</ele><time>2026-04-23T14:03:39.713Z</time></trkpt><trkpt lat="44.7296367" lon="9.2716519"><ele>1077.0</ele><time>2026-04-23T14:03:40.713Z</time></trkpt><trkpt lat="44.7296858" lon="9.2717473"><ele>1076.5</ele><time>2026-04-23T14:03:41.713Z</time></trkpt><trkpt lat="44.7297347" lon="9.2718317"><ele>1076.0</ele><time>2026-04-23T14:03:42.713Z</time></trkpt><trkpt lat="44.7297878" lon="9.2719008"><ele>1075.5</ele><time>2026-04-23T14:03:43.713Z</time></trkpt><trkpt lat="44.7298488" lon="9.2719556"><ele>1075.0</ele><time>2026-04-23T14:03:44.714Z</time></trkpt><trkpt lat="44.7299249" lon="9.2719904"><ele>1074.5</ele><time>2026-04-23T14:03:45.714Z</time></trkpt><trkpt lat="44.7300301" lon="9.2720127"><ele>1074.0</ele><time>2026-04-23T14:03:46.712Z</time></trkpt><trkpt lat="44.7301572" lon="9.2720449"><ele>1078.0</ele><time>2026-04-23T14:03:47.713Z</time></trkpt><trkpt lat="44.7302952" lon="9.2720983"><ele>1082.0</ele><time>2026-04-23T14:03:48.714Z</time></trkpt><trkpt lat="44.7304317" lon="9.2721517"><ele>1086.0</ele><time>2026-04-23T14:03:49.713Z</time></trkpt><trkpt lat="44.73055" lon="9.272185"><ele>1090.0</ele><time>2026-04-23T14:03:50.714Z</time></trkpt><trkpt lat="44.7306767" lon="9.2722033"><ele>1090.0</ele><time>2026-04-23T14:03:51.713Z</time></trkpt><trkpt lat="44.730795" lon="9.2722033"><ele>1090.0</ele><time>2026-04-23T14:03:52.713Z</time></trkpt><trkpt lat="44.730905" lon="9.2721983"><ele>1090.0</ele><time>2026-04-23T14:03:53.713Z</time></trkpt><trkpt lat="44.731005" lon="9.2722133"><ele>1090.0</ele><time>2026-04-23T14:03:54.714Z</time></trkpt><trkpt lat="44.7310933" lon="9.272255"><ele>1090.0</ele><time>2026-04-23T14:03:55.713Z</time></trkpt><trkpt lat="44.7311867" lon="9.27233"><ele>1088.5</ele><time>2026-04-23T14:03:56.714Z</time></trkpt><trkpt lat="44.731265" lon="9.2724083"><ele>1087.0</ele><time>2026-04-23T14:03:57.713Z</time></trkpt><trkpt lat="44.7313383" lon="9.2724833"><ele>1085.5</ele><time>2026-04-23T14:03:58.713Z</time></trkpt><trkpt lat="44.7314133" lon="9.2725417"><ele>1084.0</ele><time>2026-04-23T14:03:59.713Z</time></trkpt><trkpt lat="44.731495" lon="9.27259"><ele>1082.5</ele><time>2026-04-23T14:04:00.714Z</time></trkpt><trkpt lat="44.7315667" lon="9.2726217"><ele>1081.0</ele><time>2026-04-23T14:04:01.713Z</time></trkpt><trkpt lat="44.7316333" lon="9.2726483"><ele>1081.0</ele><time>2026-04-23T14:04:02.714Z</time></trkpt><trkpt lat="44.73173" lon="9.2726883"><ele>1081.0</ele><time>2026-04-23T14:04:04.714Z</time></trkpt><trkpt lat="44.7318033" lon="9.27275"><ele>1081.0</ele><time>2026-04-23T14:04:07.714Z</time></trkpt><trkpt lat="44.7318667" lon="9.2728333"><ele>1081.0</ele><time>2026-04-23T14:04:10.714Z</time></trkpt><trkpt lat="44.7318517" lon="9.27293"><ele>1081.0</ele><time>2026-04-23T14:04:12.713Z</time></trkpt><trkpt lat="44.7318133" lon="9.273025"><ele>1081.0</ele><time>2026-04-23T14:04:14.713Z</time></trkpt><trkpt lat="44.7317833" lon="9.2731133"><ele>1078.0</ele><time>2026-04-23T14:04:16.713Z</time></trkpt><trkpt lat="44.7317883" lon="9.2732067"><ele>1075.0</ele><time>2026-04-23T14:04:18.712Z</time></trkpt><trkpt lat="44.7318533" lon="9.2732417"><ele>1072.0</ele><time>2026-04-23T14:04:20.713Z</time></trkpt><trkpt lat="44.7319317" lon="9.2733017"><ele>1069.0</ele><time>2026-04-23T14:04:22.714Z</time></trkpt><trkpt lat="44.7320033" lon="9.273395"><ele>1066.0</ele><time>2026-04-23T14:04:24.714Z</time></trkpt><trkpt lat="44.732065" lon="9.273475"><ele>1063.0</ele><time>2026-04-23T14:04:26.714Z</time></trkpt><trkpt lat="44.7321633" lon="9.2734633"><ele>1062.5</ele><time>2026-04-23T14:04:28.713Z</time></trkpt><trkpt lat="44.7322683" lon="9.2733817"><ele>1062.0</ele><time>2026-04-23T14:04:30.714Z</time></trkpt><trkpt lat="44.732335" lon="9.2733433"><ele>1061.5</ele><time>2026-04-23T14:04:31.713Z</time></trkpt><trkpt lat="44.73241" lon="9.2733133"><ele>1061.0</ele><time>2026-04-23T14:04:32.714Z</time></trkpt><trkpt lat="44.7324917" lon="9.2732917"><ele>1060.5</ele><time>2026-04-23T14:04:33.714Z</time></trkpt><trkpt lat="44.7325567" lon="9.273275"><ele>1060.0</ele><time>2026-04-23T14:04:34.713Z</time></trkpt><trkpt lat="44.7326783" lon="9.2732567"><ele>1059.0</ele><time>2026-04-23T14:04:36.714Z</time></trkpt><trkpt lat="44.7327933" lon="9.2732217"><ele>1058.0</ele><time>2026-04-23T14:04:38.713Z</time></trkpt><trkpt lat="44.73286" lon="9.2731983"><ele>1057.0</ele><time>2026-04-23T14:04:39.713Z</time></trkpt><trkpt lat="44.7329317" lon="9.27318"><ele>1056.0</ele><time>2026-04-23T14:04:40.714Z</time></trkpt><trkpt lat="44.7330083" lon="9.27317"><ele>1055.0</ele><time>2026-04-23T14:04:41.713Z</time></trkpt><trkpt lat="44.7330817" lon="9.273165"><ele>1054.0</ele><time>2026-04-23T14:04:42.712Z</time></trkpt><trkpt lat="44.7331567" lon="9.273165"><ele>1054.0</ele><time>2026-04-23T14:04:43.714Z</time></trkpt><trkpt lat="44.7332317" lon="9.2731683"><ele>1054.0</ele><time>2026-04-23T14:04:44.713Z</time></trkpt><trkpt lat="44.7332967" lon="9.2731717"><ele>1054.0</ele><time>2026-04-23T14:04:45.713Z</time></trkpt><trkpt lat="44.73343" lon="9.27317"><ele>1054.0</ele><time>2026-04-23T14:04:47.713Z</time></trkpt><trkpt lat="44.733505" lon="9.2731483"><ele>1054.0</ele><time>2026-04-23T14:04:48.712Z</time></trkpt><trkpt lat="44.7335917" lon="9.2730983"><ele>1054.0</ele><time>2026-04-23T14:04:49.713Z</time></trkpt><trkpt lat="44.7336917" lon="9.2730317"><ele>1057.0</ele><time>2026-04-23T14:04:50.713Z</time></trkpt><trkpt lat="44.7337983" lon="9.27297"><ele>1060.0</ele><time>2026-04-23T14:04:51.714Z</time></trkpt><trkpt lat="44.7338983" lon="9.2729267"><ele>1063.0</ele><time>2026-04-23T14:04:52.713Z</time></trkpt><trkpt lat="44.7339883" lon="9.2729033"><ele>1066.0</ele><time>2026-04-23T14:04:53.713Z</time></trkpt><trkpt lat="44.7340683" lon="9.2728917"><ele>1069.0</ele><time>2026-04-23T14:04:54.713Z</time></trkpt><trkpt lat="44.734135" lon="9.272865"><ele>1069.0</ele><time>2026-04-23T14:04:55.713Z</time></trkpt><trkpt lat="44.734205" lon="9.2727617"><ele>1069.0</ele><time>2026-04-23T14:04:57.713Z</time></trkpt><trkpt lat="44.7342283" lon="9.2726633"><ele>1069.0</ele><time>2026-04-23T14:05:00.713Z</time></trkpt><trkpt lat="44.7342217" lon="9.272775"><ele>1069.0</ele><time>2026-04-23T14:05:05.713Z</time></trkpt><trkpt lat="44.7341867" lon="9.2728717"><ele>1069.0</ele><time>2026-04-23T14:05:07.714Z</time></trkpt><trkpt lat="44.7340717" lon="9.2729017"><ele>1069.0</ele><time>2026-04-23T14:05:09.713Z</time></trkpt><trkpt lat="44.7340017" lon="9.2729083"><ele>1069.0</ele><time>2026-04-23T14:05:10.713Z</time></trkpt><trkpt lat="44.7339317" lon="9.272925"><ele>1069.0</ele><time>2026-04-23T14:05:11.713Z</time></trkpt><trkpt lat="44.733865" lon="9.2729483"><ele>1069.0</ele><time>2026-04-23T14:05:12.712Z</time></trkpt><trkpt lat="44.7337983" lon="9.2729833"><ele>1069.0</ele><time>2026-04-23T14:05:13.714Z</time></trkpt><trkpt lat="44.7337367" lon="9.2730217"><ele>1069.0</ele><time>2026-04-23T14:05:14.714Z</time></trkpt><trkpt lat="44.7336783" lon="9.2730567"><ele>1069.0</ele><time>2026-04-23T14:05:15.713Z</time></trkpt><trkpt lat="44.733575" lon="9.273115"><ele>1069.0</ele><time>2026-04-23T14:05:17.713Z</time></trkpt><trkpt lat="44.733505" lon="9.27316"><ele>1069.0</ele><time>2026-04-23T14:05:19.712Z</time></trkpt><trkpt lat="44.7334333" lon="9.27319"><ele>1069.0</ele><time>2026-04-23T14:05:23.715Z</time></trkpt><trkpt lat="44.7334917" lon="9.2732433"><ele>1069.0</ele><time>2026-04-23T14:05:27.712Z</time></trkpt><trkpt lat="44.7335783" lon="9.2731533"><ele>1069.0</ele><time>2026-04-23T14:05:29.713Z</time></trkpt><trkpt lat="44.73363" lon="9.2730967"><ele>1069.0</ele><time>2026-04-23T14:05:30.712Z</time></trkpt><trkpt lat="44.733685" lon="9.273045"><ele>1069.0</ele><time>2026-04-23T14:05:31.714Z</time></trkpt><trkpt lat="44.7337433" lon="9.273"><ele>1069.0</ele><time>2026-04-23T14:05:32.714Z</time></trkpt><trkpt lat="44.7338483" lon="9.2729467"><ele>1069.0</ele><time>2026-04-23T14:05:34.713Z</time></trkpt><trkpt lat="44.7339483" lon="9.2729183"><ele>1069.0</ele><time>2026-04-23T14:05:36.713Z</time></trkpt><trkpt lat="44.7340683" lon="9.2729067"><ele>1069.0</ele><time>2026-04-23T14:05:38.715Z</time></trkpt><trkpt lat="44.7341633" lon="9.2728783"><ele>1069.0</ele><time>2026-04-23T14:05:40.714Z</time></trkpt><trkpt lat="44.7342167" lon="9.27282"><ele>1069.0</ele><time>2026-04-23T14:05:42.713Z</time></trkpt><trkpt lat="44.7342167" lon="9.2727083"><ele>1069.0</ele><time>2026-04-23T14:05:46.714Z</time></trkpt><trkpt lat="44.7342433" lon="9.2726217"><ele>1069.0</ele><time>2026-04-23T14:05:50.713Z</time></trkpt><trkpt lat="44.7342983" lon="9.2726783"><ele>1069.0</ele><time>2026-04-23T14:07:48.714Z</time></trkpt><trkpt lat="44.7343283" lon="9.2727967"><ele>1069.0</ele><time>2026-04-23T14:07:50.713Z</time></trkpt><trkpt lat="44.7343683" lon="9.2728983"><ele>1065.1666666666665</ele><time>2026-04-23T14:07:52.714Z</time></trkpt><trkpt lat="44.7344283" lon="9.27296"><ele>1061.3333333333333</ele><time>2026-04-23T14:07:54.714Z</time></trkpt><trkpt lat="44.7344933" lon="9.2730367"><ele>1057.5</ele><time>2026-04-23T14:07:56.716Z</time></trkpt><trkpt lat="44.7345683" lon="9.2730917"><ele>1053.6666666666667</ele><time>2026-04-23T14:07:58.713Z</time></trkpt><trkpt lat="44.7346433" lon="9.2731467"><ele>1049.8333333333335</ele><time>2026-04-23T14:08:01.714Z</time></trkpt><trkpt lat="44.7347183" lon="9.2731583"><ele>1046.0</ele><time>2026-04-23T14:08:03.714Z</time></trkpt><trkpt lat="44.73481" lon="9.27318"><ele>1045.1666666666667</ele><time>2026-04-23T14:08:05.713Z</time></trkpt><trkpt lat="44.7349133" lon="9.2732633"><ele>1044.3333333333335</ele><time>2026-04-23T14:08:07.712Z</time></trkpt><trkpt lat="44.7349767" lon="9.2733033"><ele>1043.5</ele><time>2026-04-23T14:08:08.714Z</time></trkpt><trkpt lat="44.73504" lon="9.27334"><ele>1042.6666666666667</ele><time>2026-04-23T14:08:09.714Z</time></trkpt><trkpt lat="44.7351" lon="9.2733833"><ele>1041.8333333333333</ele><time>2026-04-23T14:08:10.713Z</time></trkpt><trkpt lat="44.735155" lon="9.2734417"><ele>1041.0</ele><time>2026-04-23T14:08:11.713Z</time></trkpt><trkpt lat="44.7352017" lon="9.2735017"><ele>1037.5</ele><time>2026-04-23T14:08:12.714Z</time></trkpt><trkpt lat="44.7352867" lon="9.2735817"><ele>1034.0</ele><time>2026-04-23T14:08:14.715Z</time></trkpt><trkpt lat="44.735375" lon="9.273585"><ele>1030.5</ele><time>2026-04-23T14:08:16.713Z</time></trkpt><trkpt lat="44.7354567" lon="9.2735433"><ele>1027.0</ele><time>2026-04-23T14:08:18.713Z</time></trkpt><trkpt lat="44.7355467" lon="9.2735283"><ele>1023.5</ele><time>2026-04-23T14:08:20.713Z</time></trkpt><trkpt lat="44.7356183" lon="9.2734967"><ele>1020.0</ele><time>2026-04-23T14:08:22.713Z</time></trkpt><trkpt lat="44.7357067" lon="9.27345"><ele>1020.0</ele><time>2026-04-23T14:08:25.714Z</time></trkpt><trkpt lat="44.7357683" lon="9.27342"><ele>1020.0000000000001</ele><time>2026-04-23T14:08:28.713Z</time></trkpt><trkpt lat="44.7357767" lon="9.2733267"><ele>1020.0</ele><time>2026-04-23T14:08:30.714Z</time></trkpt><trkpt lat="44.7357517" lon="9.2732417"><ele>1020.0</ele><time>2026-04-23T14:08:31.714Z</time></trkpt><trkpt lat="44.7357083" lon="9.2731417"><ele>1020.0000000000001</ele><time>2026-04-23T14:08:32.714Z</time></trkpt><trkpt lat="44.7356683" lon="9.2730383"><ele>1020.0</ele><time>2026-04-23T14:08:33.714Z</time></trkpt><trkpt lat="44.7356417" lon="9.272925"><ele>1020.0</ele><time>2026-04-23T14:08:34.713Z</time></trkpt><trkpt lat="44.73564" lon="9.2728083"><ele>1019.6</ele><time>2026-04-23T14:08:35.714Z</time></trkpt><trkpt lat="44.7356617" lon="9.2726767"><ele>1019.2</ele><time>2026-04-23T14:08:36.714Z</time></trkpt><trkpt lat="44.7357" lon="9.2725317"><ele>1018.8</ele><time>2026-04-23T14:08:37.713Z</time></trkpt><trkpt lat="44.7357433" lon="9.2724"><ele>1018.4</ele><time>2026-04-23T14:08:38.713Z</time></trkpt><trkpt lat="44.7357867" lon="9.2722917"><ele>1018.0</ele><time>2026-04-23T14:08:39.713Z</time></trkpt><trkpt lat="44.7358367" lon="9.272215"><ele>1018.0</ele><time>2026-04-23T14:08:40.714Z</time></trkpt><trkpt lat="44.7359333" lon="9.2722333"><ele>1018.0</ele><time>2026-04-23T14:08:42.713Z</time></trkpt><trkpt lat="44.735945" lon="9.2724117"><ele>1018.0</ele><time>2026-04-23T14:08:44.714Z</time></trkpt><trkpt lat="44.73592" lon="9.2725317"><ele>1018.0</ele><time>2026-04-23T14:08:45.714Z</time></trkpt><trkpt lat="44.7358917" lon="9.2726583"><ele>1018.0</ele><time>2026-04-23T14:08:46.714Z</time></trkpt><trkpt lat="44.735885" lon="9.2727783"><ele>1017.9999999999999</ele><time>2026-04-23T14:08:47.713Z</time></trkpt><trkpt lat="44.7358967" lon="9.2728933"><ele>1018.0</ele><time>2026-04-23T14:08:48.714Z</time></trkpt><trkpt lat="44.73592" lon="9.27299"><ele>1018.0</ele><time>2026-04-23T14:08:49.713Z</time></trkpt><trkpt lat="44.7359667" lon="9.2730783"><ele>1018.0</ele><time>2026-04-23T14:08:50.713Z</time></trkpt><trkpt lat="44.73602" lon="9.2731583"><ele>1017.9999999999999</ele><time>2026-04-23T14:08:51.713Z</time></trkpt><trkpt lat="44.7360667" lon="9.2732283"><ele>1018.0</ele><time>2026-04-23T14:08:52.715Z</time></trkpt><trkpt lat="44.7361367" lon="9.273325"><ele>1015.4999999999999</ele><time>2026-04-23T14:08:54.714Z</time></trkpt><trkpt lat="44.7362033" lon="9.27343"><ele>1013.0</ele><time>2026-04-23T14:08:57.714Z</time></trkpt><trkpt lat="44.73624" lon="9.2735167"><ele>1010.5</ele><time>2026-04-23T14:08:59.716Z</time></trkpt><trkpt lat="44.7362767" lon="9.2736117"><ele>1008.0</ele><time>2026-04-23T14:09:01.713Z</time></trkpt><trkpt lat="44.73631" lon="9.2737317"><ele>1005.4999999999999</ele><time>2026-04-23T14:09:03.713Z</time></trkpt><trkpt lat="44.73633" lon="9.27388"><ele>1003.0</ele><time>2026-04-23T14:09:05.715Z</time></trkpt><trkpt lat="44.7363083" lon="9.2740417"><ele>1002.4285714285713</ele><time>2026-04-23T14:09:07.713Z</time></trkpt><trkpt lat="44.7362767" lon="9.274125"><ele>1001.8571428571428</ele><time>2026-04-23T14:09:08.714Z</time></trkpt><trkpt lat="44.73624" lon="9.2742083"><ele>1001.2857142857142</ele><time>2026-04-23T14:09:09.713Z</time></trkpt><trkpt lat="44.736195" lon="9.2742883"><ele>1000.7142857142858</ele><time>2026-04-23T14:09:10.713Z</time></trkpt><trkpt lat="44.736145" lon="9.2743667"><ele>1000.1428571428572</ele><time>2026-04-23T14:09:11.713Z</time></trkpt><trkpt lat="44.7360933" lon="9.2744367"><ele>999.5714285714287</ele><time>2026-04-23T14:09:12.713Z</time></trkpt><trkpt lat="44.73604" lon="9.2744967"><ele>999.0</ele><time>2026-04-23T14:09:13.714Z</time></trkpt><trkpt lat="44.7359383" lon="9.274585"><ele>999.8333333333334</ele><time>2026-04-23T14:09:15.713Z</time></trkpt><trkpt lat="44.7358433" lon="9.2746633"><ele>1000.6666666666667</ele><time>2026-04-23T14:09:17.713Z</time></trkpt><trkpt lat="44.7357567" lon="9.2747667"><ele>1001.5</ele><time>2026-04-23T14:09:19.714Z</time></trkpt><trkpt lat="44.7357183" lon="9.2748417"><ele>1002.3333333333334</ele><time>2026-04-23T14:09:20.714Z</time></trkpt><trkpt lat="44.7356917" lon="9.27494"><ele>1003.1666666666667</ele><time>2026-04-23T14:09:21.713Z</time></trkpt><trkpt lat="44.7356767" lon="9.2750467"><ele>1004.0</ele><time>2026-04-23T14:09:22.713Z</time></trkpt><trkpt lat="44.7356833" lon="9.2751467"><ele>1004.0000000000001</ele><time>2026-04-23T14:09:23.713Z</time></trkpt><trkpt lat="44.7357183" lon="9.27524"><ele>1004.0</ele><time>2026-04-23T14:09:24.713Z</time></trkpt><trkpt lat="44.7357617" lon="9.2753217"><ele>1004.0</ele><time>2026-04-23T14:09:25.714Z</time></trkpt><trkpt lat="44.735835" lon="9.275395"><ele>1004.0</ele><time>2026-04-23T14:09:26.716Z</time></trkpt><trkpt lat="44.7358883" lon="9.27547"><ele>1004.0000000000001</ele><time>2026-04-23T14:09:27.714Z</time></trkpt><trkpt lat="44.7359333" lon="9.275555"><ele>1004.0</ele><time>2026-04-23T14:09:28.713Z</time></trkpt><trkpt lat="44.7359583" lon="9.2756567"><ele>1002.4000000000001</ele><time>2026-04-23T14:09:29.716Z</time></trkpt><trkpt lat="44.7359733" lon="9.2757717"><ele>1000.8000000000001</ele><time>2026-04-23T14:09:30.714Z</time></trkpt><trkpt lat="44.73598" lon="9.2758967"><ele>999.1999999999999</ele><time>2026-04-23T14:09:31.715Z</time></trkpt><trkpt lat="44.7359783" lon="9.2760317"><ele>997.5999999999999</ele><time>2026-04-23T14:09:32.716Z</time></trkpt><trkpt lat="44.73597" lon="9.2761683"><ele>996.0</ele><time>2026-04-23T14:09:33.714Z</time></trkpt><trkpt lat="44.735955" lon="9.2763033"><ele>994.8</ele><time>2026-04-23T14:09:34.716Z</time></trkpt><trkpt lat="44.7359367" lon="9.276445"><ele>993.5999999999999</ele><time>2026-04-23T14:09:35.716Z</time></trkpt><trkpt lat="44.7359217" lon="9.2765967"><ele>992.4</ele><time>2026-04-23T14:09:36.715Z</time></trkpt><trkpt lat="44.7359267" lon="9.276755"><ele>991.2</ele><time>2026-04-23T14:09:37.715Z</time></trkpt><trkpt lat="44.735945" lon="9.2769117"><ele>990.0</ele><time>2026-04-23T14:09:38.716Z</time></trkpt><trkpt lat="44.73597" lon="9.2770683"><ele>990.0</ele><time>2026-04-23T14:09:39.715Z</time></trkpt><trkpt lat="44.7359983" lon="9.2772267"><ele>990.0</ele><time>2026-04-23T14:09:40.713Z</time></trkpt><trkpt lat="44.73603" lon="9.2773817"><ele>990.0</ele><time>2026-04-23T14:09:41.713Z</time></trkpt><trkpt lat="44.7360583" lon="9.2775317"><ele>990.0</ele><time>2026-04-23T14:09:42.713Z</time></trkpt><trkpt lat="44.73609" lon="9.2776767"><ele>990.0</ele><time>2026-04-23T14:09:43.715Z</time></trkpt><trkpt lat="44.7361367" lon="9.2778133"><ele>986.4</ele><time>2026-04-23T14:09:44.713Z</time></trkpt><trkpt lat="44.7361967" lon="9.2779383"><ele>982.8</ele><time>2026-04-23T14:09:45.714Z</time></trkpt><trkpt lat="44.7362667" lon="9.278055"><ele>979.2</ele><time>2026-04-23T14:09:46.714Z</time></trkpt><trkpt lat="44.73634" lon="9.2781617"><ele>975.6</ele><time>2026-04-23T14:09:47.715Z</time></trkpt><trkpt lat="44.7364183" lon="9.2782683"><ele>972.0</ele><time>2026-04-23T14:09:48.713Z</time></trkpt><trkpt lat="44.7364917" lon="9.2783783"><ele>972.0</ele><time>2026-04-23T14:09:49.713Z</time></trkpt><trkpt lat="44.7365683" lon="9.2784817"><ele>972.0</ele><time>2026-04-23T14:09:50.713Z</time></trkpt><trkpt lat="44.736645" lon="9.2785767"><ele>972.0</ele><time>2026-04-23T14:09:51.713Z</time></trkpt><trkpt lat="44.7367267" lon="9.2786617"><ele>972.0</ele><time>2026-04-23T14:09:52.714Z</time></trkpt><trkpt lat="44.736815" lon="9.2787267"><ele>972.0</ele><time>2026-04-23T14:09:53.714Z</time></trkpt><trkpt lat="44.7369083" lon="9.2787667"><ele>969.6666666666666</ele><time>2026-04-23T14:09:54.714Z</time></trkpt><trkpt lat="44.7370067" lon="9.278775"><ele>967.3333333333333</ele><time>2026-04-23T14:09:55.715Z</time></trkpt><trkpt lat="44.7370967" lon="9.27877"><ele>965.0</ele><time>2026-04-23T14:09:56.713Z</time></trkpt><trkpt lat="44.7371783" lon="9.2787783"><ele>962.6666666666666</ele><time>2026-04-23T14:09:57.714Z</time></trkpt><trkpt lat="44.73724" lon="9.2788317"><ele>960.3333333333333</ele><time>2026-04-23T14:09:58.714Z</time></trkpt><trkpt lat="44.737285" lon="9.2789117"><ele>958.0</ele><time>2026-04-23T14:09:59.713Z</time></trkpt><trkpt lat="44.737315" lon="9.2790267"><ele>958.0</ele><time>2026-04-23T14:10:00.713Z</time></trkpt><trkpt lat="44.7373433" lon="9.2791533"><ele>958.0</ele><time>2026-04-23T14:10:01.713Z</time></trkpt><trkpt lat="44.73737" lon="9.2792817"><ele>958.0</ele><time>2026-04-23T14:10:02.714Z</time></trkpt><trkpt lat="44.7374017" lon="9.2794083"><ele>958.0</ele><time>2026-04-23T14:10:03.713Z</time></trkpt><trkpt lat="44.7374367" lon="9.2795333"><ele>958.0</ele><time>2026-04-23T14:10:04.714Z</time></trkpt><trkpt lat="44.7374767" lon="9.2796583"><ele>958.0</ele><time>2026-04-23T14:10:05.714Z</time></trkpt><trkpt lat="44.737525" lon="9.27977"><ele>958.0</ele><time>2026-04-23T14:10:06.713Z</time></trkpt><trkpt lat="44.7375867" lon="9.2798733"><ele>958.0</ele><time>2026-04-23T14:10:07.713Z</time></trkpt><trkpt lat="44.73765" lon="9.27997"><ele>958.0</ele><time>2026-04-23T14:10:08.714Z</time></trkpt><trkpt lat="44.7377167" lon="9.2800617"><ele>958.0</ele><time>2026-04-23T14:10:09.713Z</time></trkpt><trkpt lat="44.737775" lon="9.28016"><ele>956.8</ele><time>2026-04-23T14:10:10.715Z</time></trkpt><trkpt lat="44.7378233" lon="9.2802667"><ele>955.5999999999999</ele><time>2026-04-23T14:10:11.714Z</time></trkpt><trkpt lat="44.7378767" lon="9.28038"><ele>954.4000000000001</ele><time>2026-04-23T14:10:12.713Z</time></trkpt><trkpt lat="44.73793" lon="9.2804933"><ele>953.2</ele><time>2026-04-23T14:10:13.714Z</time></trkpt><trkpt lat="44.7379833" lon="9.280595"><ele>952.0</ele><time>2026-04-23T14:10:14.715Z</time></trkpt><trkpt lat="44.73803" lon="9.28069"><ele>952.0</ele><time>2026-04-23T14:10:15.713Z</time></trkpt><trkpt lat="44.738075" lon="9.2807633"><ele>952.0</ele><time>2026-04-23T14:10:16.714Z</time></trkpt><trkpt lat="44.7381433" lon="9.2808783"><ele>952.0</ele><time>2026-04-23T14:10:18.713Z</time></trkpt><trkpt lat="44.7381783" lon="9.281005"><ele>952.0</ele><time>2026-04-23T14:10:20.714Z</time></trkpt><trkpt lat="44.738195" lon="9.28118"><ele>952.0</ele><time>2026-04-23T14:10:22.713Z</time></trkpt><trkpt lat="44.73822" lon="9.2812783"><ele>951.9999999999999</ele><time>2026-04-23T14:10:23.715Z</time></trkpt><trkpt lat="44.73826" lon="9.2813667"><ele>952.0</ele><time>2026-04-23T14:10:24.714Z</time></trkpt><trkpt lat="44.7383117" lon="9.2814483"><ele>952.0</ele><time>2026-04-23T14:10:25.714Z</time></trkpt><trkpt lat="44.7383583" lon="9.2815383"><ele>952.0</ele><time>2026-04-23T14:10:26.713Z</time></trkpt><trkpt lat="44.73842" lon="9.2816317"><ele>951.9999999999999</ele><time>2026-04-23T14:10:27.713Z</time></trkpt><trkpt lat="44.7384917" lon="9.281725"><ele>952.0</ele><time>2026-04-23T14:10:28.714Z</time></trkpt><trkpt lat="44.73857" lon="9.2818217"><ele>952.6</ele><time>2026-04-23T14:10:29.714Z</time></trkpt><trkpt lat="44.73865" lon="9.2819183"><ele>953.2</ele><time>2026-04-23T14:10:30.713Z</time></trkpt><trkpt lat="44.7387233" lon="9.2820217"><ele>953.8</ele><time>2026-04-23T14:10:31.716Z</time></trkpt><trkpt lat="44.7387933" lon="9.282145"><ele>954.4</ele><time>2026-04-23T14:10:32.714Z</time></trkpt><trkpt lat="44.7388533" lon="9.282275"><ele>955.0</ele><time>2026-04-23T14:10:33.714Z</time></trkpt><trkpt lat="44.7388983" lon="9.282395"><ele>956.6</ele><time>2026-04-23T14:10:34.713Z</time></trkpt><trkpt lat="44.7389383" lon="9.2825233"><ele>958.2</ele><time>2026-04-23T14:10:35.714Z</time></trkpt><trkpt lat="44.7389733" lon="9.2826583"><ele>959.8</ele><time>2026-04-23T14:10:36.714Z</time></trkpt><trkpt lat="44.7390033" lon="9.2827967"><ele>961.4</ele><time>2026-04-23T14:10:37.714Z</time></trkpt><trkpt lat="44.73904" lon="9.2829283"><ele>963.0</ele><time>2026-04-23T14:10:38.716Z</time></trkpt><trkpt lat="44.7390867" lon="9.283055"><ele>964.0</ele><time>2026-04-23T14:10:39.715Z</time></trkpt><trkpt lat="44.7391333" lon="9.2831833"><ele>965.0</ele><time>2026-04-23T14:10:40.714Z</time></trkpt><trkpt lat="44.7391767" lon="9.2833067"><ele>966.0</ele><time>2026-04-23T14:10:41.714Z</time></trkpt><trkpt lat="44.7392217" lon="9.2834233"><ele>967.0</ele><time>2026-04-23T14:10:42.713Z</time></trkpt><trkpt lat="44.7392667" lon="9.2835333"><ele>968.0</ele><time>2026-04-23T14:10:43.715Z</time></trkpt><trkpt lat="44.73931" lon="9.2836483"><ele>968.0</ele><time>2026-04-23T14:10:44.714Z</time></trkpt><trkpt lat="44.7393483" lon="9.2837617"><ele>968.0</ele><time>2026-04-23T14:10:45.713Z</time></trkpt><trkpt lat="44.7393917" lon="9.2838867"><ele>968.0</ele><time>2026-04-23T14:10:46.713Z</time></trkpt><trkpt lat="44.739435" lon="9.284015"><ele>968.0</ele><time>2026-04-23T14:10:47.713Z</time></trkpt><trkpt lat="44.7394783" lon="9.2841433"><ele>968.0</ele><time>2026-04-23T14:10:48.714Z</time></trkpt><trkpt lat="44.739525" lon="9.284265"><ele>972.4</ele><time>2026-04-23T14:10:49.713Z</time></trkpt><trkpt lat="44.73957" lon="9.2843833"><ele>976.8</ele><time>2026-04-23T14:10:50.714Z</time></trkpt><trkpt lat="44.7396183" lon="9.2844983"><ele>981.2</ele><time>2026-04-23T14:10:51.714Z</time></trkpt><trkpt lat="44.7396667" lon="9.2846083"><ele>985.6</ele><time>2026-04-23T14:10:52.715Z</time></trkpt><trkpt lat="44.73973" lon="9.2847133"><ele>990.0</ele><time>2026-04-23T14:10:53.714Z</time></trkpt><trkpt lat="44.7397983" lon="9.2848233"><ele>991.0</ele><time>2026-04-23T14:10:54.714Z</time></trkpt><trkpt lat="44.7398667" lon="9.2849167"><ele>992.0</ele><time>2026-04-23T14:10:55.714Z</time></trkpt><trkpt lat="44.73992" lon="9.285005"><ele>993.0</ele><time>2026-04-23T14:10:56.714Z</time></trkpt><trkpt lat="44.7399817" lon="9.285105"><ele>994.0</ele><time>2026-04-23T14:10:57.713Z</time></trkpt><trkpt lat="44.7400483" lon="9.285195"><ele>995.0</ele><time>2026-04-23T14:10:58.714Z</time></trkpt><trkpt lat="44.7401233" lon="9.2852767"><ele>995.0000000000001</ele><time>2026-04-23T14:10:59.715Z</time></trkpt><trkpt lat="44.7401933" lon="9.2853467"><ele>995.0</ele><time>2026-04-23T14:11:00.715Z</time></trkpt><trkpt lat="44.7402633" lon="9.285405"><ele>995.0</ele><time>2026-04-23T14:11:01.714Z</time></trkpt><trkpt lat="44.74033" lon="9.2854717"><ele>995.0</ele><time>2026-04-23T14:11:02.714Z</time></trkpt><trkpt lat="44.7404067" lon="9.2855383"><ele>995.0000000000001</ele><time>2026-04-23T14:11:03.713Z</time></trkpt><trkpt lat="44.74048" lon="9.2855817"><ele>995.0</ele><time>2026-04-23T14:11:04.714Z</time></trkpt><trkpt lat="44.7405583" lon="9.285635"><ele>997.8</ele><time>2026-04-23T14:11:05.713Z</time></trkpt><trkpt lat="44.7406433" lon="9.2856967"><ele>1000.6</ele><time>2026-04-23T14:11:06.714Z</time></trkpt><trkpt lat="44.7407233" lon="9.2857633"><ele>1003.4000000000001</ele><time>2026-04-23T14:11:07.714Z</time></trkpt><trkpt lat="44.7408033" lon="9.2858267"><ele>1006.2</ele><time>2026-04-23T14:11:08.714Z</time></trkpt><trkpt lat="44.7408717" lon="9.2858967"><ele>1009.0</ele><time>2026-04-23T14:11:09.714Z</time></trkpt><trkpt lat="44.7409333" lon="9.285985"><ele>1009.0</ele><time>2026-04-23T14:11:10.714Z</time></trkpt><trkpt lat="44.7409933" lon="9.28609"><ele>1009.0000000000001</ele><time>2026-04-23T14:11:11.716Z</time></trkpt><trkpt lat="44.7410467" lon="9.2862"><ele>1009.0000000000001</ele><time>2026-04-23T14:11:12.713Z</time></trkpt><trkpt lat="44.7410983" lon="9.28631"><ele>1009.0</ele><time>2026-04-23T14:11:13.713Z</time></trkpt><trkpt lat="44.741165" lon="9.286425"><ele>1009.0</ele><time>2026-04-23T14:11:14.716Z</time></trkpt><trkpt lat="44.7412267" lon="9.2865383"><ele>1009.8000000000001</ele><time>2026-04-23T14:11:15.716Z</time></trkpt><trkpt lat="44.741285" lon="9.2866483"><ele>1010.6000000000001</ele><time>2026-04-23T14:11:16.714Z</time></trkpt><trkpt lat="44.7413367" lon="9.286755"><ele>1011.4</ele><time>2026-04-23T14:11:17.713Z</time></trkpt><trkpt lat="44.7413817" lon="9.2868717"><ele>1012.2</ele><time>2026-04-23T14:11:18.715Z</time></trkpt><trkpt lat="44.7414333" lon="9.2870267"><ele>1013.0</ele><time>2026-04-23T14:11:19.715Z</time></trkpt><trkpt lat="44.74147" lon="9.2871867"><ele>1016.4</ele><time>2026-04-23T14:11:20.714Z</time></trkpt><trkpt lat="44.74151" lon="9.287335"><ele>1019.8</ele><time>2026-04-23T14:11:21.713Z</time></trkpt><trkpt lat="44.7415533" lon="9.2874767"><ele>1023.2</ele><time>2026-04-23T14:11:22.714Z</time></trkpt><trkpt lat="44.7415967" lon="9.2876067"><ele>1026.6</ele><time>2026-04-23T14:11:23.714Z</time></trkpt><trkpt lat="44.7416433" lon="9.2877317"><ele>1030.0</ele><time>2026-04-23T14:11:24.715Z</time></trkpt><trkpt lat="44.7416883" lon="9.2878583"><ele>1030.0</ele><time>2026-04-23T14:11:25.714Z</time></trkpt><trkpt lat="44.7417267" lon="9.287975"><ele>1030.0</ele><time>2026-04-23T14:11:26.715Z</time></trkpt><trkpt lat="44.7417717" lon="9.2881083"><ele>1030.0</ele><time>2026-04-23T14:11:27.713Z</time></trkpt><trkpt lat="44.741815" lon="9.2882383"><ele>1030.0</ele><time>2026-04-23T14:11:28.714Z</time></trkpt><trkpt lat="44.74185" lon="9.2883567"><ele>1030.0</ele><time>2026-04-23T14:11:29.714Z</time></trkpt><trkpt lat="44.7418867" lon="9.28848"><ele>1029.6</ele><time>2026-04-23T14:11:30.715Z</time></trkpt><trkpt lat="44.7419383" lon="9.2886033"><ele>1029.2</ele><time>2026-04-23T14:11:31.714Z</time></trkpt><trkpt lat="44.7419917" lon="9.288735"><ele>1028.8</ele><time>2026-04-23T14:11:32.715Z</time></trkpt><trkpt lat="44.7420367" lon="9.2888583"><ele>1028.4</ele><time>2026-04-23T14:11:33.714Z</time></trkpt><trkpt lat="44.7420983" lon="9.289"><ele>1028.0</ele><time>2026-04-23T14:11:34.714Z</time></trkpt><trkpt lat="44.7421617" lon="9.2891217"><ele>1031.4</ele><time>2026-04-23T14:11:35.714Z</time></trkpt><trkpt lat="44.7422317" lon="9.2892383"><ele>1034.8</ele><time>2026-04-23T14:11:36.713Z</time></trkpt><trkpt lat="44.7422967" lon="9.28935"><ele>1038.2</ele><time>2026-04-23T14:11:37.714Z</time></trkpt><trkpt lat="44.7423583" lon="9.28947"><ele>1041.6</ele><time>2026-04-23T14:11:38.714Z</time></trkpt><trkpt lat="44.7424267" lon="9.28959"><ele>1045.0</ele><time>2026-04-23T14:11:39.713Z</time></trkpt><trkpt lat="44.7425" lon="9.289705"><ele>1045.4</ele><time>2026-04-23T14:11:40.714Z</time></trkpt><trkpt lat="44.742575" lon="9.28982"><ele>1045.8</ele><time>2026-04-23T14:11:41.715Z</time></trkpt><trkpt lat="44.7426433" lon="9.28993"><ele>1046.2</ele><time>2026-04-23T14:11:42.714Z</time></trkpt><trkpt lat="44.7427133" lon="9.29004"><ele>1046.6</ele><time>2026-04-23T14:11:43.715Z</time></trkpt><trkpt lat="44.74279" lon="9.2901533"><ele>1047.0</ele><time>2026-04-23T14:11:44.713Z</time></trkpt><trkpt lat="44.74286" lon="9.2902767"><ele>1047.0</ele><time>2026-04-23T14:11:45.713Z</time></trkpt><trkpt lat="44.7429367" lon="9.290405"><ele>1047.0</ele><time>2026-04-23T14:11:46.714Z</time></trkpt><trkpt lat="44.74301" lon="9.2905367"><ele>1047.0</ele><time>2026-04-23T14:11:47.714Z</time></trkpt><trkpt lat="44.7430917" lon="9.29067"><ele>1047.0</ele><time>2026-04-23T14:11:48.713Z</time></trkpt><trkpt lat="44.74318" lon="9.2907967"><ele>1049.75</ele><time>2026-04-23T14:11:49.714Z</time></trkpt><trkpt lat="44.7432667" lon="9.2909167"><ele>1052.5</ele><time>2026-04-23T14:11:50.715Z</time></trkpt><trkpt lat="44.7433567" lon="9.2910233"><ele>1055.25</ele><time>2026-04-23T14:11:51.714Z</time></trkpt><trkpt lat="44.743445" lon="9.291125"><ele>1058.0</ele><time>2026-04-23T14:11:52.714Z</time></trkpt><trkpt lat="44.74353" lon="9.2912283"><ele>1059.6</ele><time>2026-04-23T14:11:53.715Z</time></trkpt><trkpt lat="44.7436183" lon="9.291325"><ele>1061.1999999999998</ele><time>2026-04-23T14:11:54.714Z</time></trkpt><trkpt lat="44.74371" lon="9.2914033"><ele>1062.8</ele><time>2026-04-23T14:11:55.715Z</time></trkpt><trkpt lat="44.7438033" lon="9.2914783"><ele>1064.3999999999999</ele><time>2026-04-23T14:11:56.715Z</time></trkpt><trkpt lat="44.7438967" lon="9.2915467"><ele>1066.0</ele><time>2026-04-23T14:11:57.714Z</time></trkpt><trkpt lat="44.7439817" lon="9.2916117"><ele>1066.0</ele><time>2026-04-23T14:11:58.713Z</time></trkpt><trkpt lat="44.744055" lon="9.2916817"><ele>1066.0</ele><time>2026-04-23T14:11:59.715Z</time></trkpt><trkpt lat="44.7441233" lon="9.291765"><ele>1066.0</ele><time>2026-04-23T14:12:00.716Z</time></trkpt><trkpt lat="44.74419" lon="9.291855"><ele>1066.0</ele><time>2026-04-23T14:12:01.714Z</time></trkpt><trkpt lat="44.7442517" lon="9.2919567"><ele>1066.0</ele><time>2026-04-23T14:12:02.714Z</time></trkpt><trkpt lat="44.7443067" lon="9.2920833"><ele>1066.0</ele><time>2026-04-23T14:12:03.714Z</time></trkpt><trkpt lat="44.74436" lon="9.2922133"><ele>1066.0</ele><time>2026-04-23T14:12:04.714Z</time></trkpt><trkpt lat="44.7444217" lon="9.2923283"><ele>1066.0</ele><time>2026-04-23T14:12:05.715Z</time></trkpt><trkpt lat="44.7444983" lon="9.2924433"><ele>1066.0</ele><time>2026-04-23T14:12:06.714Z</time></trkpt><trkpt lat="44.7445767" lon="9.2925567"><ele>1066.0</ele><time>2026-04-23T14:12:07.715Z</time></trkpt><trkpt lat="44.7446633" lon="9.292655"><ele>1069.5</ele><time>2026-04-23T14:12:08.715Z</time></trkpt><trkpt lat="44.7447483" lon="9.29274"><ele>1073.0</ele><time>2026-04-23T14:12:09.714Z</time></trkpt><trkpt lat="44.7448533" lon="9.2928333"><ele>1076.5</ele><time>2026-04-23T14:12:10.714Z</time></trkpt><trkpt lat="44.744965" lon="9.29293"><ele>1080.0</ele><time>2026-04-23T14:12:11.714Z</time></trkpt><trkpt lat="44.74505" lon="9.2930283"><ele>1080.0</ele><time>2026-04-23T14:12:12.715Z</time></trkpt><trkpt lat="44.7451183" lon="9.2931367"><ele>1080.0</ele><time>2026-04-23T14:12:13.715Z</time></trkpt><trkpt lat="44.7451817" lon="9.2932567"><ele>1080.0</ele><time>2026-04-23T14:12:14.715Z</time></trkpt><trkpt lat="44.7452317" lon="9.2933833"><ele>1080.0</ele><time>2026-04-23T14:12:15.714Z</time></trkpt><trkpt lat="44.745265" lon="9.2934933"><ele>1080.0</ele><time>2026-04-23T14:12:16.715Z</time></trkpt><trkpt lat="44.745295" lon="9.2936"><ele>1080.8</ele><time>2026-04-23T14:12:17.715Z</time></trkpt><trkpt lat="44.74532" lon="9.293685"><ele>1081.6</ele><time>2026-04-23T14:12:18.714Z</time></trkpt><trkpt lat="44.745325" lon="9.2938233"><ele>1082.4</ele><time>2026-04-23T14:12:20.715Z</time></trkpt><trkpt lat="44.7452817" lon="9.2939533"><ele>1083.2</ele><time>2026-04-23T14:12:22.714Z</time></trkpt><trkpt lat="44.74518" lon="9.2940767"><ele>1084.0</ele><time>2026-04-23T14:12:24.714Z</time></trkpt><trkpt lat="44.7451217" lon="9.2941517"><ele>1084.0</ele><time>2026-04-23T14:12:25.714Z</time></trkpt><trkpt lat="44.74506" lon="9.2942333"><ele>1084.0</ele><time>2026-04-23T14:12:26.714Z</time></trkpt><trkpt lat="44.745005" lon="9.2943183"><ele>1084.0</ele><time>2026-04-23T14:12:27.717Z</time></trkpt><trkpt lat="44.7449617" lon="9.29442"><ele>1084.0</ele><time>2026-04-23T14:12:28.713Z</time></trkpt><trkpt lat="44.7449217" lon="9.2945317"><ele>1084.0</ele><time>2026-04-23T14:12:29.714Z</time></trkpt><trkpt lat="44.7448817" lon="9.2946317"><ele>1084.0</ele><time>2026-04-23T14:12:30.714Z</time></trkpt><trkpt lat="44.7448533" lon="9.2947433"><ele>1084.0</ele><time>2026-04-23T14:12:31.716Z</time></trkpt><trkpt lat="44.7448333" lon="9.2948617"><ele>1084.0</ele><time>2026-04-23T14:12:32.715Z</time></trkpt><trkpt lat="44.74482" lon="9.2949933"><ele>1084.0</ele><time>2026-04-23T14:12:33.715Z</time></trkpt><trkpt lat="44.7448033" lon="9.2951183"><ele>1084.0</ele><time>2026-04-23T14:12:34.716Z</time></trkpt><trkpt lat="44.74479" lon="9.29523"><ele>1084.0</ele><time>2026-04-23T14:12:35.716Z</time></trkpt><trkpt lat="44.744785" lon="9.295335"><ele>1084.0</ele><time>2026-04-23T14:12:36.716Z</time></trkpt><trkpt lat="44.7447783" lon="9.29543"><ele>1084.0</ele><time>2026-04-23T14:12:37.714Z</time></trkpt><trkpt lat="44.74476" lon="9.2955683"><ele>1084.0</ele><time>2026-04-23T14:12:39.713Z</time></trkpt><trkpt lat="44.7447717" lon="9.2956817"><ele>1084.0</ele><time>2026-04-23T14:12:41.714Z</time></trkpt><trkpt lat="44.7447767" lon="9.2957817"><ele>1084.0</ele><time>2026-04-23T14:12:43.714Z</time></trkpt><trkpt lat="44.7446367" lon="9.2960983"><ele>1084.2</ele><time>2026-04-23T14:13:03.714Z</time></trkpt><trkpt lat="44.7445983" lon="9.2962317"><ele>1084.4</ele><time>2026-04-23T14:13:04.714Z</time></trkpt><trkpt lat="44.74456" lon="9.2963467"><ele>1084.6</ele><time>2026-04-23T14:13:05.714Z</time></trkpt><trkpt lat="44.74451" lon="9.296465"><ele>1084.8</ele><time>2026-04-23T14:13:06.714Z</time></trkpt><trkpt lat="44.7444317" lon="9.2965967"><ele>1085.0</ele><time>2026-04-23T14:13:08.715Z</time></trkpt><trkpt lat="44.7443483" lon="9.296665"><ele>1081.2</ele><time>2026-04-23T14:13:09.715Z</time></trkpt><trkpt lat="44.744255" lon="9.2967217"><ele>1077.4</ele><time>2026-04-23T14:13:10.713Z</time></trkpt><trkpt lat="44.74416" lon="9.2967683"><ele>1073.6</ele><time>2026-04-23T14:13:11.714Z</time></trkpt><trkpt lat="44.7440717" lon="9.2968167"><ele>1069.8</ele><time>2026-04-23T14:13:12.714Z</time></trkpt><trkpt lat="44.7439733" lon="9.296875"><ele>1066.0</ele><time>2026-04-23T14:13:13.714Z</time></trkpt><trkpt lat="44.74389" lon="9.2969333"><ele>1066.0</ele><time>2026-04-23T14:13:14.716Z</time></trkpt><trkpt lat="44.743825" lon="9.2970017"><ele>1066.0</ele><time>2026-04-23T14:13:15.714Z</time></trkpt><trkpt lat="44.7437667" lon="9.2970667"><ele>1066.0</ele><time>2026-04-23T14:13:16.714Z</time></trkpt><trkpt lat="44.7437317" lon="9.2971467"><ele>1066.0</ele><time>2026-04-23T14:13:17.714Z</time></trkpt><trkpt lat="44.743705" lon="9.2972367"><ele>1066.0</ele><time>2026-04-23T14:13:18.713Z</time></trkpt><trkpt lat="44.7436767" lon="9.2973317"><ele>1066.0</ele><time>2026-04-23T14:13:19.713Z</time></trkpt><trkpt lat="44.743635" lon="9.29743"><ele>1066.0</ele><time>2026-04-23T14:13:20.714Z</time></trkpt><trkpt lat="44.7436083" lon="9.2975133"><ele>1065.6666666666665</ele><time>2026-04-23T14:13:21.713Z</time></trkpt><trkpt lat="44.7435833" lon="9.2976017"><ele>1065.3333333333333</ele><time>2026-04-23T14:13:22.714Z</time></trkpt><trkpt lat="44.7435417" lon="9.2977617"><ele>1065.0</ele><time>2026-04-23T14:13:24.714Z</time></trkpt><trkpt lat="44.74354" lon="9.2979"><ele>1064.6666666666667</ele><time>2026-04-23T14:13:26.715Z</time></trkpt><trkpt lat="44.7435867" lon="9.2979717"><ele>1064.3333333333335</ele><time>2026-04-23T14:13:28.715Z</time></trkpt><trkpt lat="44.743655" lon="9.2980217"><ele>1064.0</ele><time>2026-04-23T14:13:30.714Z</time></trkpt><trkpt lat="44.743715" lon="9.2980717"><ele>1062.2</ele><time>2026-04-23T14:13:32.714Z</time></trkpt><trkpt lat="44.7437033" lon="9.29819"><ele>1060.4</ele><time>2026-04-23T14:13:35.714Z</time></trkpt><trkpt lat="44.7436333" lon="9.2983217"><ele>1058.6</ele><time>2026-04-23T14:13:37.714Z</time></trkpt><trkpt lat="44.7435833" lon="9.29848"><ele>1056.8</ele><time>2026-04-23T14:13:39.713Z</time></trkpt><trkpt lat="44.743545" lon="9.2985867"><ele>1055.0</ele><time>2026-04-23T14:13:40.713Z</time></trkpt><trkpt lat="44.7435083" lon="9.298665"><ele>1051.6666666666667</ele><time>2026-04-23T14:13:41.715Z</time></trkpt><trkpt lat="44.7434733" lon="9.2987633"><ele>1048.3333333333335</ele><time>2026-04-23T14:13:42.714Z</time></trkpt><trkpt lat="44.7434417" lon="9.2988833"><ele>1045.0</ele><time>2026-04-23T14:13:43.713Z</time></trkpt><trkpt lat="44.7433883" lon="9.29901"><ele>1041.6666666666667</ele><time>2026-04-23T14:13:44.715Z</time></trkpt><trkpt lat="44.7433367" lon="9.2991233"><ele>1038.3333333333333</ele><time>2026-04-23T14:13:45.713Z</time></trkpt><trkpt lat="44.7433" lon="9.2992167"><ele>1035.0</ele><time>2026-04-23T14:13:46.713Z</time></trkpt><trkpt lat="44.74328" lon="9.2993033"><ele>1034.4</ele><time>2026-04-23T14:13:47.713Z</time></trkpt><trkpt lat="44.743255" lon="9.299475"><ele>1033.8</ele><time>2026-04-23T14:13:49.714Z</time></trkpt><trkpt lat="44.743245" lon="9.2996433"><ele>1033.2</ele><time>2026-04-23T14:13:51.713Z</time></trkpt><trkpt lat="44.74322" lon="9.2997367"><ele>1032.6</ele><time>2026-04-23T14:13:52.713Z</time></trkpt><trkpt lat="44.7431867" lon="9.299835"><ele>1032.0</ele><time>2026-04-23T14:13:53.713Z</time></trkpt><trkpt lat="44.743145" lon="9.2999467"><ele>1031.1666666666667</ele><time>2026-04-23T14:13:54.713Z</time></trkpt><trkpt lat="44.7431017" lon="9.3000467"><ele>1030.3333333333333</ele><time>2026-04-23T14:13:55.713Z</time></trkpt><trkpt lat="44.7430633" lon="9.30015"><ele>1029.5</ele><time>2026-04-23T14:13:56.714Z</time></trkpt><trkpt lat="44.7430233" lon="9.3002567"><ele>1028.6666666666665</ele><time>2026-04-23T14:13:57.713Z</time></trkpt><trkpt lat="44.7429883" lon="9.3003683"><ele>1027.8333333333333</ele><time>2026-04-23T14:13:58.713Z</time></trkpt><trkpt lat="44.7429567" lon="9.3004817"><ele>1027.0</ele><time>2026-04-23T14:13:59.713Z</time></trkpt><trkpt lat="44.7429333" lon="9.3005867"><ele>1026.8333333333333</ele><time>2026-04-23T14:14:00.712Z</time></trkpt><trkpt lat="44.7429033" lon="9.3007017"><ele>1026.6666666666665</ele><time>2026-04-23T14:14:01.713Z</time></trkpt><trkpt lat="44.7428783" lon="9.3008117"><ele>1026.5</ele><time>2026-04-23T14:14:02.713Z</time></trkpt><trkpt lat="44.74284" lon="9.300925"><ele>1026.3333333333333</ele><time>2026-04-23T14:14:03.712Z</time></trkpt><trkpt lat="44.7427967" lon="9.3010317"><ele>1026.1666666666667</ele><time>2026-04-23T14:14:04.713Z</time></trkpt><trkpt lat="44.7427517" lon="9.3011367"><ele>1026.0</ele><time>2026-04-23T14:14:05.712Z</time></trkpt><trkpt lat="44.7426983" lon="9.3012283"><ele>1023.1666666666666</ele><time>2026-04-23T14:14:06.712Z</time></trkpt><trkpt lat="44.7426467" lon="9.30132"><ele>1020.3333333333333</ele><time>2026-04-23T14:14:07.713Z</time></trkpt><trkpt lat="44.742595" lon="9.3014283"><ele>1017.5</ele><time>2026-04-23T14:14:08.714Z</time></trkpt><trkpt lat="44.742545" lon="9.3015217"><ele>1014.6666666666666</ele><time>2026-04-23T14:14:09.713Z</time></trkpt><trkpt lat="44.742505" lon="9.301625"><ele>1011.8333333333333</ele><time>2026-04-23T14:14:10.713Z</time></trkpt><trkpt lat="44.742475" lon="9.3017217"><ele>1009.0</ele><time>2026-04-23T14:14:11.714Z</time></trkpt><trkpt lat="44.7424617" lon="9.301825"><ele>1008.4999999999999</ele><time>2026-04-23T14:14:12.713Z</time></trkpt><trkpt lat="44.742445" lon="9.30192"><ele>1008.0</ele><time>2026-04-23T14:14:13.714Z</time></trkpt><trkpt lat="44.7424333" lon="9.3020283"><ele>1007.5</ele><time>2026-04-23T14:14:14.714Z</time></trkpt><trkpt lat="44.7424233" lon="9.3021617"><ele>1007.0</ele><time>2026-04-23T14:14:15.712Z</time></trkpt><trkpt lat="44.7424133" lon="9.302295"><ele>1006.4999999999999</ele><time>2026-04-23T14:14:16.713Z</time></trkpt><trkpt lat="44.7424067" lon="9.3024367"><ele>1006.0</ele><time>2026-04-23T14:14:17.713Z</time></trkpt><trkpt lat="44.7424067" lon="9.3025733"><ele>1005.1666666666666</ele><time>2026-04-23T14:14:18.713Z</time></trkpt><trkpt lat="44.7423983" lon="9.3026833"><ele>1004.3333333333333</ele><time>2026-04-23T14:14:19.712Z</time></trkpt><trkpt lat="44.7423717" lon="9.3028083"><ele>1003.5</ele><time>2026-04-23T14:14:21.712Z</time></trkpt><trkpt lat="44.7423967" lon="9.3029567"><ele>1002.6666666666667</ele><time>2026-04-23T14:14:27.712Z</time></trkpt><trkpt lat="44.7424767" lon="9.3029817"><ele>1001.8333333333334</ele><time>2026-04-23T14:14:29.713Z</time></trkpt><trkpt lat="44.742545" lon="9.3029933"><ele>1001.0</ele><time>2026-04-23T14:14:30.712Z</time></trkpt><trkpt lat="44.7426267" lon="9.3030117"><ele>1004.5999999999999</ele><time>2026-04-23T14:14:31.712Z</time></trkpt><trkpt lat="44.7427167" lon="9.3030167"><ele>1008.1999999999999</ele><time>2026-04-23T14:14:32.713Z</time></trkpt><trkpt lat="44.7428117" lon="9.3030117"><ele>1011.8000000000001</ele><time>2026-04-23T14:14:33.713Z</time></trkpt><trkpt lat="44.7429167" lon="9.303"><ele>1015.4000000000001</ele><time>2026-04-23T14:14:34.713Z</time></trkpt><trkpt lat="44.7430317" lon="9.3029783"><ele>1019.0</ele><time>2026-04-23T14:14:35.712Z</time></trkpt><trkpt lat="44.74314" lon="9.302945"><ele>1019.0</ele><time>2026-04-23T14:14:36.712Z</time></trkpt><trkpt lat="44.743245" lon="9.3029133"><ele>1019.0000000000001</ele><time>2026-04-23T14:14:37.714Z</time></trkpt><trkpt lat="44.74335" lon="9.3028917"><ele>1019.0000000000001</ele><time>2026-04-23T14:14:38.713Z</time></trkpt><trkpt lat="44.7434533" lon="9.3028967"><ele>1019.0</ele><time>2026-04-23T14:14:39.712Z</time></trkpt><trkpt lat="44.7435467" lon="9.3029083"><ele>1019.0</ele><time>2026-04-23T14:14:40.712Z</time></trkpt><trkpt lat="44.7436367" lon="9.3029267"><ele>1021.0000000000001</ele><time>2026-04-23T14:14:41.713Z</time></trkpt><trkpt lat="44.7437283" lon="9.3029433"><ele>1023.0</ele><time>2026-04-23T14:14:42.712Z</time></trkpt><trkpt lat="44.743815" lon="9.3029417"><ele>1025.0</ele><time>2026-04-23T14:14:43.713Z</time></trkpt><trkpt lat="44.7439015" lon="9.3029325"><ele>1027.0</ele><time>2026-04-23T14:14:44.713Z</time></trkpt><trkpt lat="44.7439838" lon="9.3028994"><ele>1029.0</ele><time>2026-04-23T14:14:45.713Z</time></trkpt><trkpt lat="44.7440605" lon="9.3028521"><ele>1031.0</ele><time>2026-04-23T14:14:46.712Z</time></trkpt><trkpt lat="44.7441357" lon="9.3028074"><ele>1031.0</ele><time>2026-04-23T14:14:47.713Z</time></trkpt><trkpt lat="44.7442176" lon="9.3027654"><ele>1031.0</ele><time>2026-04-23T14:14:48.713Z</time></trkpt><trkpt lat="44.7442996" lon="9.3027161"><ele>1031.0</ele><time>2026-04-23T14:14:49.713Z</time></trkpt><trkpt lat="44.7443787" lon="9.3026681"><ele>1031.0</ele><time>2026-04-23T14:14:50.713Z</time></trkpt><trkpt lat="44.7444543" lon="9.3026183"><ele>1031.0</ele><time>2026-04-23T14:14:51.712Z</time></trkpt><trkpt lat="44.7445254" lon="9.3025641"><ele>1031.0</ele><time>2026-04-23T14:14:52.714Z</time></trkpt><trkpt lat="44.7445988" lon="9.3025183"><ele>1033.0</ele><time>2026-04-23T14:14:53.713Z</time></trkpt><trkpt lat="44.7446754" lon="9.3024828"><ele>1035.0</ele><time>2026-04-23T14:14:54.713Z</time></trkpt><trkpt lat="44.7447547" lon="9.3024484"><ele>1037.0</ele><time>2026-04-23T14:14:55.714Z</time></trkpt><trkpt lat="44.7448364" lon="9.302398"><ele>1039.0</ele><time>2026-04-23T14:14:56.713Z</time></trkpt><trkpt lat="44.7449185" lon="9.3023485"><ele>1041.0</ele><time>2026-04-23T14:14:57.713Z</time></trkpt><trkpt lat="44.7450042" lon="9.3023017"><ele>1043.0</ele><time>2026-04-23T14:14:58.714Z</time></trkpt><trkpt lat="44.7450909" lon="9.302268"><ele>1043.0</ele><time>2026-04-23T14:14:59.717Z</time></trkpt><trkpt lat="44.7451845" lon="9.3022501"><ele>1043.0</ele><time>2026-04-23T14:15:00.713Z</time></trkpt><trkpt lat="44.7452718" lon="9.3022509"><ele>1043.0</ele><time>2026-04-23T14:15:01.712Z</time></trkpt><trkpt lat="44.7453607" lon="9.3022732"><ele>1043.0</ele><time>2026-04-23T14:15:02.713Z</time></trkpt><trkpt lat="44.7454444" lon="9.3023075"><ele>1043.0</ele><time>2026-04-23T14:15:03.712Z</time></trkpt><trkpt lat="44.7455176" lon="9.3023504"><ele>1043.0</ele><time>2026-04-23T14:15:04.713Z</time></trkpt><trkpt lat="44.7455847" lon="9.3023927"><ele>1046.6</ele><time>2026-04-23T14:15:05.713Z</time></trkpt><trkpt lat="44.7456539" lon="9.3024263"><ele>1050.1999999999998</ele><time>2026-04-23T14:15:06.712Z</time></trkpt><trkpt lat="44.7457172" lon="9.3024528"><ele>1053.8</ele><time>2026-04-23T14:15:07.713Z</time></trkpt><trkpt lat="44.745809" lon="9.3025162"><ele>1057.3999999999999</ele><time>2026-04-23T14:15:09.712Z</time></trkpt><trkpt lat="44.7458735" lon="9.3026353"><ele>1061.0</ele><time>2026-04-23T14:15:11.714Z</time></trkpt><trkpt lat="44.7459406" lon="9.3027561"><ele>1061.0</ele><time>2026-04-23T14:15:13.712Z</time></trkpt><trkpt lat="44.7459967" lon="9.3028675"><ele>1061.0</ele><time>2026-04-23T14:15:15.712Z</time></trkpt><trkpt lat="44.7460354" lon="9.3029409"><ele>1061.0</ele><time>2026-04-23T14:15:16.712Z</time></trkpt><trkpt lat="44.7460697" lon="9.3030332"><ele>1061.0</ele><time>2026-04-23T14:15:17.712Z</time></trkpt><trkpt lat="44.7460987" lon="9.3031477"><ele>1061.0</ele><time>2026-04-23T14:15:18.712Z</time></trkpt><trkpt lat="44.7461263" lon="9.3032791"><ele>1061.0</ele><time>2026-04-23T14:15:19.714Z</time></trkpt><trkpt lat="44.7461538" lon="9.3034131"><ele>1062.0</ele><time>2026-04-23T14:15:20.714Z</time></trkpt><trkpt lat="44.746174" lon="9.3035505"><ele>1063.0</ele><time>2026-04-23T14:15:21.712Z</time></trkpt><trkpt lat="44.7461924" lon="9.3036918"><ele>1064.0</ele><time>2026-04-23T14:15:22.714Z</time></trkpt><trkpt lat="44.7462162" lon="9.3038306"><ele>1065.0</ele><time>2026-04-23T14:15:23.713Z</time></trkpt><trkpt lat="44.746247" lon="9.3039687"><ele>1066.0</ele><time>2026-04-23T14:15:24.712Z</time></trkpt><trkpt lat="44.7462872" lon="9.3041253"><ele>1066.25</ele><time>2026-04-23T14:15:25.713Z</time></trkpt><trkpt lat="44.7463346" lon="9.3042812"><ele>1066.5</ele><time>2026-04-23T14:15:26.713Z</time></trkpt><trkpt lat="44.7463824" lon="9.3044269"><ele>1066.75</ele><time>2026-04-23T14:15:27.712Z</time></trkpt><trkpt lat="44.746429" lon="9.3045653"><ele>1067.0</ele><time>2026-04-23T14:15:28.713Z</time></trkpt><trkpt lat="44.7464788" lon="9.3047042"><ele>1067.5</ele><time>2026-04-23T14:15:29.713Z</time></trkpt><trkpt lat="44.7465375" lon="9.304849"><ele>1068.0</ele><time>2026-04-23T14:15:30.712Z</time></trkpt><trkpt lat="44.7466048" lon="9.3049874"><ele>1068.5</ele><time>2026-04-23T14:15:31.713Z</time></trkpt><trkpt lat="44.7466632" lon="9.3051173"><ele>1069.0</ele><time>2026-04-23T14:15:32.713Z</time></trkpt><trkpt lat="44.7467039" lon="9.3052516"><ele>1069.0</ele><time>2026-04-23T14:15:33.712Z</time></trkpt><trkpt lat="44.7467323" lon="9.3053864"><ele>1069.0</ele><time>2026-04-23T14:15:34.712Z</time></trkpt><trkpt lat="44.7467493" lon="9.3055224"><ele>1069.0</ele><time>2026-04-23T14:15:35.713Z</time></trkpt><trkpt lat="44.7467616" lon="9.3056672"><ele>1069.0</ele><time>2026-04-23T14:15:36.713Z</time></trkpt><trkpt lat="44.7467642" lon="9.305815"><ele>1069.0</ele><time>2026-04-23T14:15:37.713Z</time></trkpt><trkpt lat="44.7467632" lon="9.3059509"><ele>1069.0</ele><time>2026-04-23T14:15:38.715Z</time></trkpt><trkpt lat="44.7467662" lon="9.3061022"><ele>1069.0</ele><time>2026-04-23T14:15:39.712Z</time></trkpt><trkpt lat="44.7467836" lon="9.3062503"><ele>1069.0</ele><time>2026-04-23T14:15:40.714Z</time></trkpt><trkpt lat="44.7468041" lon="9.3064038"><ele>1069.0</ele><time>2026-04-23T14:15:41.713Z</time></trkpt><trkpt lat="44.7468232" lon="9.306546"><ele>1069.0</ele><time>2026-04-23T14:15:42.714Z</time></trkpt><trkpt lat="44.7468307" lon="9.3066825"><ele>1070.4</ele><time>2026-04-23T14:15:43.713Z</time></trkpt><trkpt lat="44.7468128" lon="9.3068122"><ele>1071.8000000000002</ele><time>2026-04-23T14:15:44.713Z</time></trkpt><trkpt lat="44.7467781" lon="9.3069467"><ele>1073.1999999999998</ele><time>2026-04-23T14:15:45.713Z</time></trkpt><trkpt lat="44.7467369" lon="9.3070819"><ele>1074.6</ele><time>2026-04-23T14:15:46.713Z</time></trkpt><trkpt lat="44.7467024" lon="9.3072143"><ele>1076.0</ele><time>2026-04-23T14:15:47.713Z</time></trkpt><trkpt lat="44.7466744" lon="9.3073382"><ele>1077.75</ele><time>2026-04-23T14:15:48.713Z</time></trkpt><trkpt lat="44.7466452" lon="9.3074804"><ele>1079.5</ele><time>2026-04-23T14:15:49.713Z</time></trkpt><trkpt lat="44.7466248" lon="9.3076344"><ele>1081.25</ele><time>2026-04-23T14:15:50.714Z</time></trkpt><trkpt lat="44.746601" lon="9.3077963"><ele>1083.0</ele><time>2026-04-23T14:15:51.712Z</time></trkpt><trkpt lat="44.7465849" lon="9.307964"><ele>1084.2</ele><time>2026-04-23T14:15:52.713Z</time></trkpt><trkpt lat="44.7465883" lon="9.3081147"><ele>1085.4</ele><time>2026-04-23T14:15:53.713Z</time></trkpt><trkpt lat="44.7466022" lon="9.3082716"><ele>1086.6000000000001</ele><time>2026-04-23T14:15:54.714Z</time></trkpt><trkpt lat="44.7466196" lon="9.3084338"><ele>1087.8</ele><time>2026-04-23T14:15:55.714Z</time></trkpt><trkpt lat="44.7466429" lon="9.3085574"><ele>1089.0</ele><time>2026-04-23T14:15:56.715Z</time></trkpt><trkpt lat="44.746637" lon="9.3087002"><ele>1089.0</ele><time>2026-04-23T14:15:57.713Z</time></trkpt><trkpt lat="44.7466346" lon="9.3088186"><ele>1089.0</ele><time>2026-04-23T14:15:58.714Z</time></trkpt><trkpt lat="44.746638" lon="9.3089292"><ele>1089.0</ele><time>2026-04-23T14:15:59.714Z</time></trkpt><trkpt lat="44.7466443" lon="9.3090207"><ele>1089.0</ele><time>2026-04-23T14:16:00.712Z</time></trkpt><trkpt lat="44.7466361" lon="9.3091809"><ele>1089.0</ele><time>2026-04-23T14:16:02.714Z</time></trkpt><trkpt lat="44.7466079" lon="9.3092996"><ele>1089.0</ele><time>2026-04-23T14:16:04.713Z</time></trkpt><trkpt lat="44.7465766" lon="9.3094357"><ele>1089.4</ele><time>2026-04-23T14:16:06.712Z</time></trkpt><trkpt lat="44.7465446" lon="9.3096111"><ele>1089.8000000000002</ele><time>2026-04-23T14:16:08.715Z</time></trkpt><trkpt lat="44.7465342" lon="9.3097304"><ele>1090.1999999999998</ele><time>2026-04-23T14:16:09.712Z</time></trkpt><trkpt lat="44.7465282" lon="9.3098654"><ele>1090.6</ele><time>2026-04-23T14:16:10.713Z</time></trkpt><trkpt lat="44.7465205" lon="9.3100162"><ele>1091.0</ele><time>2026-04-23T14:16:11.713Z</time></trkpt><trkpt lat="44.7465056" lon="9.3101626"><ele>1091.0</ele><time>2026-04-23T14:16:12.713Z</time></trkpt><trkpt lat="44.7464915" lon="9.3103146"><ele>1091.0</ele><time>2026-04-23T14:16:13.713Z</time></trkpt><trkpt lat="44.7464712" lon="9.3104651"><ele>1091.0</ele><time>2026-04-23T14:16:14.715Z</time></trkpt><trkpt lat="44.7464543" lon="9.3106165"><ele>1091.0</ele><time>2026-04-23T14:16:15.712Z</time></trkpt><trkpt lat="44.7464309" lon="9.3107601"><ele>1091.0</ele><time>2026-04-23T14:16:16.713Z</time></trkpt><trkpt lat="44.7463965" lon="9.310913"><ele>1091.5</ele><time>2026-04-23T14:16:17.713Z</time></trkpt><trkpt lat="44.7463498" lon="9.3110672"><ele>1092.0</ele><time>2026-04-23T14:16:18.714Z</time></trkpt><trkpt lat="44.7462938" lon="9.3112121"><ele>1092.5</ele><time>2026-04-23T14:16:19.713Z</time></trkpt><trkpt lat="44.7462275" lon="9.3113444"><ele>1093.0</ele><time>2026-04-23T14:16:20.713Z</time></trkpt><trkpt lat="44.7461533" lon="9.3114483"><ele>1092.3333333333333</ele><time>2026-04-23T14:16:21.713Z</time></trkpt><trkpt lat="44.7460733" lon="9.3115517"><ele>1091.6666666666665</ele><time>2026-04-23T14:16:22.714Z</time></trkpt><trkpt lat="44.74601" lon="9.3116517"><ele>1091.0</ele><time>2026-04-23T14:16:23.713Z</time></trkpt><trkpt lat="44.7459567" lon="9.31174"><ele>1090.3333333333333</ele><time>2026-04-23T14:16:24.713Z</time></trkpt><trkpt lat="44.7459117" lon="9.3118267"><ele>1089.6666666666667</ele><time>2026-04-23T14:16:25.714Z</time></trkpt><trkpt lat="44.7458617" lon="9.3119117"><ele>1089.0</ele><time>2026-04-23T14:16:26.713Z</time></trkpt><trkpt lat="44.7458233" lon="9.3119967"><ele>1089.0</ele><time>2026-04-23T14:16:27.714Z</time></trkpt><trkpt lat="44.7457883" lon="9.312105"><ele>1089.0</ele><time>2026-04-23T14:16:28.713Z</time></trkpt><trkpt lat="44.7457767" lon="9.3122467"><ele>1089.0</ele><time>2026-04-23T14:16:29.715Z</time></trkpt><trkpt lat="44.7457583" lon="9.31237"><ele>1089.0</ele><time>2026-04-23T14:16:30.712Z</time></trkpt><trkpt lat="44.7457283" lon="9.3124983"><ele>1089.0</ele><time>2026-04-23T14:16:31.713Z</time></trkpt><trkpt lat="44.7456983" lon="9.3126233"><ele>1089.3333333333333</ele><time>2026-04-23T14:16:32.716Z</time></trkpt><trkpt lat="44.745655" lon="9.31273"><ele>1089.6666666666667</ele><time>2026-04-23T14:16:33.712Z</time></trkpt><trkpt lat="44.745605" lon="9.3128417"><ele>1090.0</ele><time>2026-04-23T14:16:34.713Z</time></trkpt><trkpt lat="44.7455517" lon="9.312945"><ele>1090.3333333333335</ele><time>2026-04-23T14:16:35.714Z</time></trkpt><trkpt lat="44.7454983" lon="9.313035"><ele>1090.6666666666667</ele><time>2026-04-23T14:16:36.713Z</time></trkpt><trkpt lat="44.7454467" lon="9.3130917"><ele>1091.0</ele><time>2026-04-23T14:16:37.713Z</time></trkpt><trkpt lat="44.7453717" lon="9.3131483"><ele>1089.8</ele><time>2026-04-23T14:16:39.713Z</time></trkpt><trkpt lat="44.7453167" lon="9.31333"><ele>1088.6</ele><time>2026-04-23T14:16:52.713Z</time></trkpt><trkpt lat="44.74526" lon="9.3134267"><ele>1087.4</ele><time>2026-04-23T14:16:54.714Z</time></trkpt><trkpt lat="44.7452083" lon="9.3135517"><ele>1086.2</ele><time>2026-04-23T14:16:56.713Z</time></trkpt><trkpt lat="44.7451683" lon="9.3136683"><ele>1085.0</ele><time>2026-04-23T14:16:58.713Z</time></trkpt><trkpt lat="44.7451333" lon="9.3137967"><ele>1085.0</ele><time>2026-04-23T14:17:00.712Z</time></trkpt><trkpt lat="44.7451017" lon="9.3138817"><ele>1085.0</ele><time>2026-04-23T14:17:01.713Z</time></trkpt><trkpt lat="44.74507" lon="9.3139817"><ele>1085.0</ele><time>2026-04-23T14:17:02.713Z</time></trkpt><trkpt lat="44.745015" lon="9.31411"><ele>1085.0</ele><time>2026-04-23T14:17:03.713Z</time></trkpt><trkpt lat="44.74496" lon="9.3142467"><ele>1085.0</ele><time>2026-04-23T14:17:04.713Z</time></trkpt><trkpt lat="44.7449083" lon="9.31438"><ele>1085.2</ele><time>2026-04-23T14:17:05.713Z</time></trkpt><trkpt lat="44.7448717" lon="9.3145283"><ele>1085.4</ele><time>2026-04-23T14:17:06.713Z</time></trkpt><trkpt lat="44.7448467" lon="9.3146767"><ele>1085.6</ele><time>2026-04-23T14:17:07.714Z</time></trkpt><trkpt lat="44.744835" lon="9.3148217"><ele>1085.8</ele><time>2026-04-23T14:17:08.715Z</time></trkpt><trkpt lat="44.7448217" lon="9.3149717"><ele>1086.0</ele><time>2026-04-23T14:17:09.714Z</time></trkpt><trkpt lat="44.7448117" lon="9.3151017"><ele>1084.8</ele><time>2026-04-23T14:17:10.714Z</time></trkpt><trkpt lat="44.7448067" lon="9.3152333"><ele>1083.6</ele><time>2026-04-23T14:17:11.715Z</time></trkpt><trkpt lat="44.744815" lon="9.3153617"><ele>1082.4</ele><time>2026-04-23T14:17:12.716Z</time></trkpt><trkpt lat="44.7448317" lon="9.3154917"><ele>1081.2</ele><time>2026-04-23T14:17:13.715Z</time></trkpt><trkpt lat="44.7448733" lon="9.3156133"><ele>1080.0</ele><time>2026-04-23T14:17:14.716Z</time></trkpt><trkpt lat="44.7449183" lon="9.3157433"><ele>1079.1666666666667</ele><time>2026-04-23T14:17:15.714Z</time></trkpt><trkpt lat="44.7449583" lon="9.3158567"><ele>1078.3333333333333</ele><time>2026-04-23T14:17:16.715Z</time></trkpt><trkpt lat="44.744985" lon="9.31598"><ele>1077.5</ele><time>2026-04-23T14:17:17.716Z</time></trkpt><trkpt lat="44.745015" lon="9.3160967"><ele>1076.6666666666665</ele><time>2026-04-23T14:17:18.714Z</time></trkpt><trkpt lat="44.7450383" lon="9.3162017"><ele>1075.8333333333333</ele><time>2026-04-23T14:17:19.714Z</time></trkpt><trkpt lat="44.74506" lon="9.3162883"><ele>1075.0</ele><time>2026-04-23T14:17:20.715Z</time></trkpt><trkpt lat="44.7450883" lon="9.316425"><ele>1075.0</ele><time>2026-04-23T14:17:22.715Z</time></trkpt><trkpt lat="44.7450867" lon="9.3165367"><ele>1075.0</ele><time>2026-04-23T14:17:24.715Z</time></trkpt><trkpt lat="44.7450833" lon="9.3166683"><ele>1075.0</ele><time>2026-04-23T14:17:26.716Z</time></trkpt><trkpt lat="44.7450767" lon="9.31682"><ele>1075.0</ele><time>2026-04-23T14:17:28.714Z</time></trkpt><trkpt lat="44.7450417" lon="9.316975"><ele>1075.0</ele><time>2026-04-23T14:17:30.714Z</time></trkpt><trkpt lat="44.7449717" lon="9.317095"><ele>1075.0</ele><time>2026-04-23T14:17:32.714Z</time></trkpt><trkpt lat="44.7449183" lon="9.31718"><ele>1075.0</ele><time>2026-04-23T14:17:34.713Z</time></trkpt><trkpt lat="44.7448517" lon="9.3172833"><ele>1075.0</ele><time>2026-04-23T14:17:36.714Z</time></trkpt><trkpt lat="44.7447483" lon="9.3173983"><ele>1075.0</ele><time>2026-04-23T14:17:38.713Z</time></trkpt><trkpt lat="44.74469" lon="9.3174533"><ele>1075.0</ele><time>2026-04-23T14:17:39.713Z</time></trkpt><trkpt lat="44.7446267" lon="9.3174967"><ele>1076.3333333333333</ele><time>2026-04-23T14:17:40.713Z</time></trkpt><trkpt lat="44.744525" lon="9.3175767"><ele>1077.6666666666665</ele><time>2026-04-23T14:17:42.713Z</time></trkpt><trkpt lat="44.7444067" lon="9.317645"><ele>1079.0</ele><time>2026-04-23T14:17:44.714Z</time></trkpt><trkpt lat="44.7443483" lon="9.31769"><ele>1080.3333333333333</ele><time>2026-04-23T14:17:45.713Z</time></trkpt><trkpt lat="44.7443083" lon="9.3177633"><ele>1081.6666666666667</ele><time>2026-04-23T14:17:46.713Z</time></trkpt><trkpt lat="44.7442783" lon="9.3178483"><ele>1083.0</ele><time>2026-04-23T14:17:47.713Z</time></trkpt><trkpt lat="44.74424" lon="9.3179533"><ele>1079.8333333333333</ele><time>2026-04-23T14:17:48.712Z</time></trkpt><trkpt lat="44.7442033" lon="9.3180683"><ele>1076.6666666666667</ele><time>2026-04-23T14:17:49.714Z</time></trkpt><trkpt lat="44.7441733" lon="9.3181683"><ele>1073.5</ele><time>2026-04-23T14:17:50.715Z</time></trkpt><trkpt lat="44.7441517" lon="9.3182517"><ele>1070.3333333333335</ele><time>2026-04-23T14:17:51.713Z</time></trkpt><trkpt lat="44.7441017" lon="9.3184267"><ele>1067.1666666666667</ele><time>2026-04-23T14:17:53.713Z</time></trkpt><trkpt lat="44.7440817" lon="9.3185183"><ele>1064.0</ele><time>2026-04-23T14:17:54.713Z</time></trkpt><trkpt lat="44.7440583" lon="9.3186833"><ele>1064.0</ele><time>2026-04-23T14:17:56.714Z</time></trkpt><trkpt lat="44.74405" lon="9.3187717"><ele>1064.0</ele><time>2026-04-23T14:17:57.712Z</time></trkpt><trkpt lat="44.744015" lon="9.3189133"><ele>1064.0</ele><time>2026-04-23T14:17:59.713Z</time></trkpt><trkpt lat="44.7439517" lon="9.3190117"><ele>1064.0</ele><time>2026-04-23T14:18:01.713Z</time></trkpt><trkpt lat="44.7438717" lon="9.3191233"><ele>1064.0</ele><time>2026-04-23T14:18:03.713Z</time></trkpt><trkpt lat="44.743805" lon="9.3192433"><ele>1061.0</ele><time>2026-04-23T14:18:05.713Z</time></trkpt><trkpt lat="44.74377" lon="9.3193767"><ele>1058.0</ele><time>2026-04-23T14:18:07.713Z</time></trkpt><trkpt lat="44.743725" lon="9.3195167"><ele>1055.0</ele><time>2026-04-23T14:18:09.712Z</time></trkpt><trkpt lat="44.7436933" lon="9.3196567"><ele>1052.0</ele><time>2026-04-23T14:18:11.713Z</time></trkpt><trkpt lat="44.7436567" lon="9.3197767"><ele>1049.0</ele><time>2026-04-23T14:18:13.714Z</time></trkpt><trkpt lat="44.74365" lon="9.3199333"><ele>1048.3333333333335</ele><time>2026-04-23T14:18:15.713Z</time></trkpt><trkpt lat="44.7436433" lon="9.32003"><ele>1047.6666666666667</ele><time>2026-04-23T14:18:16.714Z</time></trkpt><trkpt lat="44.7436517" lon="9.32014"><ele>1047.0</ele><time>2026-04-23T14:18:17.712Z</time></trkpt><trkpt lat="44.7436583" lon="9.32024"><ele>1046.3333333333333</ele><time>2026-04-23T14:18:18.714Z</time></trkpt><trkpt lat="44.7436733" lon="9.32034"><ele>1045.6666666666665</ele><time>2026-04-23T14:18:19.713Z</time></trkpt><trkpt lat="44.7436817" lon="9.3205"><ele>1045.0</ele><time>2026-04-23T14:18:21.713Z</time></trkpt><trkpt lat="44.7436683" lon="9.3206367"><ele>1043.8</ele><time>2026-04-23T14:18:23.713Z</time></trkpt><trkpt lat="44.7436333" lon="9.3208033"><ele>1042.6</ele><time>2026-04-23T14:18:25.714Z</time></trkpt><trkpt lat="44.7436133" lon="9.3209233"><ele>1041.4</ele><time>2026-04-23T14:18:26.713Z</time></trkpt><trkpt lat="44.743595" lon="9.3210217"><ele>1040.2</ele><time>2026-04-23T14:18:27.712Z</time></trkpt><trkpt lat="44.74358" lon="9.3211167"><ele>1039.0</ele><time>2026-04-23T14:18:28.714Z</time></trkpt><trkpt lat="44.7435567" lon="9.321275"><ele>1038.2</ele><time>2026-04-23T14:18:30.713Z</time></trkpt><trkpt lat="44.7435633" lon="9.3214383"><ele>1037.4</ele><time>2026-04-23T14:18:32.714Z</time></trkpt><trkpt lat="44.7436083" lon="9.32159"><ele>1036.6</ele><time>2026-04-23T14:18:34.713Z</time></trkpt><trkpt lat="44.7436833" lon="9.32171"><ele>1035.8</ele><time>2026-04-23T14:18:36.713Z</time></trkpt><trkpt lat="44.7437483" lon="9.3218167"><ele>1035.0</ele><time>2026-04-23T14:18:38.713Z</time></trkpt><trkpt lat="44.7438017" lon="9.32192"><ele>1035.0</ele><time>2026-04-23T14:18:40.713Z</time></trkpt><trkpt lat="44.7438667" lon="9.3220367"><ele>1035.0</ele><time>2026-04-23T14:18:42.713Z</time></trkpt><trkpt lat="44.7439267" lon="9.32214"><ele>1035.0</ele><time>2026-04-23T14:18:44.713Z</time></trkpt><trkpt lat="44.743975" lon="9.3222583"><ele>1035.0</ele><time>2026-04-23T14:18:46.713Z</time></trkpt><trkpt lat="44.7439983" lon="9.322385"><ele>1035.0</ele><time>2026-04-23T14:18:48.714Z</time></trkpt><trkpt lat="44.74396" lon="9.322505"><ele>1034.1666666666667</ele><time>2026-04-23T14:18:50.713Z</time></trkpt><trkpt lat="44.743885" lon="9.3226633"><ele>1033.3333333333333</ele><time>2026-04-23T14:18:52.712Z</time></trkpt><trkpt lat="44.7438383" lon="9.3227333"><ele>1032.5</ele><time>2026-04-23T14:18:53.713Z</time></trkpt><trkpt lat="44.743795" lon="9.322805"><ele>1031.6666666666665</ele><time>2026-04-23T14:18:54.713Z</time></trkpt><trkpt lat="44.7437467" lon="9.3228667"><ele>1030.8333333333333</ele><time>2026-04-23T14:18:55.713Z</time></trkpt><trkpt lat="44.74368" lon="9.3229767"><ele>1030.0</ele><time>2026-04-23T14:18:57.713Z</time></trkpt><trkpt lat="44.7437233" lon="9.3230967"><ele>1027.2</ele><time>2026-04-23T14:19:00.713Z</time></trkpt><trkpt lat="44.74377" lon="9.3231667"><ele>1024.4</ele><time>2026-04-23T14:19:02.713Z</time></trkpt><trkpt lat="44.7437883" lon="9.3233017"><ele>1021.5999999999999</ele><time>2026-04-23T14:19:20.715Z</time></trkpt><trkpt lat="44.7438167" lon="9.3233883"><ele>1018.8</ele><time>2026-04-23T14:19:22.712Z</time></trkpt><trkpt lat="44.7438667" lon="9.3235017"><ele>1016.0</ele><time>2026-04-23T14:19:24.713Z</time></trkpt><trkpt lat="44.7439483" lon="9.3236467"><ele>1016.0</ele><time>2026-04-23T14:19:26.715Z</time></trkpt><trkpt lat="44.7440283" lon="9.3237783"><ele>1015.9999999999999</ele><time>2026-04-23T14:19:28.713Z</time></trkpt><trkpt lat="44.7440833" lon="9.32388"><ele>1015.9999999999999</ele><time>2026-04-23T14:19:30.713Z</time></trkpt><trkpt lat="44.7441317" lon="9.3239783"><ele>1016.0</ele><time>2026-04-23T14:19:32.713Z</time></trkpt><trkpt lat="44.7441083" lon="9.324065"><ele>1016.0</ele><time>2026-04-23T14:19:34.712Z</time></trkpt><trkpt lat="44.74405" lon="9.3241633"><ele>1013.5999999999999</ele><time>2026-04-23T14:19:37.713Z</time></trkpt><trkpt lat="44.74395" lon="9.3241983"><ele>1011.1999999999999</ele><time>2026-04-23T14:19:39.713Z</time></trkpt><trkpt lat="44.7438217" lon="9.3241633"><ele>1008.8000000000001</ele><time>2026-04-23T14:19:41.712Z</time></trkpt><trkpt lat="44.74376" lon="9.3241267"><ele>1006.4000000000001</ele><time>2026-04-23T14:19:42.714Z</time></trkpt><trkpt lat="44.7436983" lon="9.3240867"><ele>1004.0</ele><time>2026-04-23T14:19:43.713Z</time></trkpt><trkpt lat="44.7435867" lon="9.3240417"><ele>1000.5000000000001</ele><time>2026-04-23T14:19:45.712Z</time></trkpt><trkpt lat="44.74352" lon="9.324025"><ele>997.0</ele><time>2026-04-23T14:19:46.713Z</time></trkpt><trkpt lat="44.74345" lon="9.3240067"><ele>993.5</ele><time>2026-04-23T14:19:47.713Z</time></trkpt><trkpt lat="44.7433867" lon="9.3239933"><ele>990.0</ele><time>2026-04-23T14:19:48.713Z</time></trkpt><trkpt lat="44.743305" lon="9.3239817"><ele>986.5000000000001</ele><time>2026-04-23T14:19:50.713Z</time></trkpt><trkpt lat="44.7432133" lon="9.32398"><ele>983.0</ele><time>2026-04-23T14:19:53.713Z</time></trkpt><trkpt lat="44.7431217" lon="9.323975"><ele>982.9999999999999</ele><time>2026-04-23T14:19:56.713Z</time></trkpt><trkpt lat="44.7430583" lon="9.3239667"><ele>983.0</ele><time>2026-04-23T14:19:58.715Z</time></trkpt><trkpt lat="44.7429933" lon="9.3239667"><ele>982.9999999999999</ele><time>2026-04-23T14:20:00.713Z</time></trkpt><trkpt lat="44.7429733" lon="9.32406"><ele>982.9999999999999</ele><time>2026-04-23T14:20:04.713Z</time></trkpt><trkpt lat="44.74291" lon="9.3241017"><ele>983.0</ele><time>2026-04-23T14:20:09.712Z</time></trkpt><trkpt lat="44.742835" lon="9.3240933"><ele>982.9999999999999</ele><time>2026-04-23T14:20:13.714Z</time></trkpt><trkpt lat="44.742765" lon="9.32415"><ele>982.9999999999999</ele><time>2026-04-23T14:20:20.715Z</time></trkpt><trkpt lat="44.7426833" lon="9.3241183"><ele>977.5000000000001</ele><time>2026-04-23T14:20:24.713Z</time></trkpt><trkpt lat="44.7426367" lon="9.324045"><ele>972.0</ele><time>2026-04-23T14:20:26.713Z</time></trkpt><trkpt lat="44.7426133" lon="9.32395"><ele>966.5</ele><time>2026-04-23T14:20:29.713Z</time></trkpt><trkpt lat="44.7425533" lon="9.3239033"><ele>961.0</ele><time>2026-04-23T14:20:31.713Z</time></trkpt><trkpt lat="44.74247" lon="9.3239167"><ele>955.5000000000001</ele><time>2026-04-23T14:20:34.712Z</time></trkpt><trkpt lat="44.742395" lon="9.3239133"><ele>950.0</ele><time>2026-04-23T14:20:37.714Z</time></trkpt><trkpt lat="44.7423" lon="9.3239317"><ele>950.0000000000001</ele><time>2026-04-23T14:20:40.715Z</time></trkpt><trkpt lat="44.742235" lon="9.3239267"><ele>950.0</ele><time>2026-04-23T14:20:42.715Z</time></trkpt><trkpt lat="44.7421567" lon="9.323955"><ele>950.0</ele><time>2026-04-23T14:20:45.713Z</time></trkpt><trkpt lat="44.7421317" lon="9.324045"><ele>950.0</ele><time>2026-04-23T14:20:49.713Z</time></trkpt><trkpt lat="44.7421067" lon="9.324175"><ele>950.0000000000001</ele><time>2026-04-23T14:20:52.714Z</time></trkpt><trkpt lat="44.7420883" lon="9.3242767"><ele>950.0</ele><time>2026-04-23T14:20:54.712Z</time></trkpt><trkpt lat="44.7421083" lon="9.3243717"><ele>950.0000000000001</ele><time>2026-04-23T14:20:56.713Z</time></trkpt><trkpt lat="44.7421383" lon="9.32447"><ele>950.0</ele><time>2026-04-23T14:20:58.713Z</time></trkpt><trkpt lat="44.7421867" lon="9.32461"><ele>950.0</ele><time>2026-04-23T14:21:00.712Z</time></trkpt><trkpt lat="44.7422217" lon="9.3246967"><ele>950.0</ele><time>2026-04-23T14:21:01.713Z</time></trkpt><trkpt lat="44.7422567" lon="9.3247967"><ele>950.0000000000001</ele><time>2026-04-23T14:21:02.713Z</time></trkpt><trkpt lat="44.7422867" lon="9.3248833"><ele>950.0</ele><time>2026-04-23T14:21:03.713Z</time></trkpt><trkpt lat="44.742315" lon="9.3249683"><ele>947.5714285714287</ele><time>2026-04-23T14:21:04.713Z</time></trkpt><trkpt lat="44.7423533" lon="9.3251033"><ele>945.1428571428572</ele><time>2026-04-23T14:21:06.714Z</time></trkpt><trkpt lat="44.742385" lon="9.32518"><ele>942.7142857142858</ele><time>2026-04-23T14:21:07.713Z</time></trkpt><trkpt lat="44.7424117" lon="9.3252667"><ele>940.2857142857142</ele><time>2026-04-23T14:21:08.713Z</time></trkpt><trkpt lat="44.74243" lon="9.3253533"><ele>937.8571428571428</ele><time>2026-04-23T14:21:09.714Z</time></trkpt><trkpt lat="44.742435" lon="9.325445"><ele>935.4285714285713</ele><time>2026-04-23T14:21:10.713Z</time></trkpt><trkpt lat="44.7424183" lon="9.3255467"><ele>933.0</ele><time>2026-04-23T14:21:11.714Z</time></trkpt><trkpt lat="44.7423883" lon="9.3256433"><ele>929.5</ele><time>2026-04-23T14:21:12.714Z</time></trkpt><trkpt lat="44.742335" lon="9.32573"><ele>926.0</ele><time>2026-04-23T14:21:13.712Z</time></trkpt><trkpt lat="44.7422717" lon="9.32581"><ele>922.5</ele><time>2026-04-23T14:21:14.714Z</time></trkpt><trkpt lat="44.7422133" lon="9.3258717"><ele>919.0</ele><time>2026-04-23T14:21:15.716Z</time></trkpt><trkpt lat="44.7421583" lon="9.325925"><ele>915.5</ele><time>2026-04-23T14:21:16.713Z</time></trkpt><trkpt lat="44.7420833" lon="9.3259717"><ele>912.0</ele><time>2026-04-23T14:21:18.714Z</time></trkpt><trkpt lat="44.7420033" lon="9.3259333"><ele>912.0</ele><time>2026-04-23T14:21:21.713Z</time></trkpt><trkpt lat="44.74196" lon="9.32584"><ele>912.0</ele><time>2026-04-23T14:21:23.713Z</time></trkpt><trkpt lat="44.7419217" lon="9.3257317"><ele>912.0</ele><time>2026-04-23T14:21:25.713Z</time></trkpt><trkpt lat="44.7418617" lon="9.3256633"><ele>912.0</ele><time>2026-04-23T14:21:27.713Z</time></trkpt><trkpt lat="44.7418033" lon="9.3256183"><ele>912.0</ele><time>2026-04-23T14:21:29.712Z</time></trkpt><trkpt lat="44.7417667" lon="9.325525"><ele>912.0</ele><time>2026-04-23T14:21:32.714Z</time></trkpt><trkpt lat="44.7416917" lon="9.3254717"><ele>909.8571428571428</ele><time>2026-04-23T14:21:36.713Z</time></trkpt><trkpt lat="44.74162" lon="9.3254567"><ele>907.7142857142856</ele><time>2026-04-23T14:21:39.712Z</time></trkpt><trkpt lat="44.7415767" lon="9.3255383"><ele>905.5714285714286</ele><time>2026-04-23T14:21:42.713Z</time></trkpt><trkpt lat="44.7416167" lon="9.3256383"><ele>903.4285714285713</ele><time>2026-04-23T14:21:44.714Z</time></trkpt><trkpt lat="44.741635" lon="9.3257267"><ele>901.2857142857142</ele><time>2026-04-23T14:21:46.714Z</time></trkpt><trkpt lat="44.7416033" lon="9.325815"><ele>899.1428571428571</ele><time>2026-04-23T14:21:49.715Z</time></trkpt><trkpt lat="44.7415317" lon="9.325805"><ele>897.0</ele><time>2026-04-23T14:21:51.714Z</time></trkpt><trkpt lat="44.7414683" lon="9.3257917"><ele>894.6</ele><time>2026-04-23T14:21:53.714Z</time></trkpt><trkpt lat="44.7413933" lon="9.3257567"><ele>892.2</ele><time>2026-04-23T14:21:55.713Z</time></trkpt><trkpt lat="44.7412867" lon="9.3257833"><ele>889.8</ele><time>2026-04-23T14:21:57.715Z</time></trkpt><trkpt lat="44.741195" lon="9.325865"><ele>887.4</ele><time>2026-04-23T14:21:59.713Z</time></trkpt><trkpt lat="44.741155" lon="9.32598"><ele>885.0</ele><time>2026-04-23T14:22:01.714Z</time></trkpt><trkpt lat="44.74116" lon="9.3260733"><ele>885.0</ele><time>2026-04-23T14:22:03.712Z</time></trkpt><trkpt lat="44.741125" lon="9.3261933"><ele>885.0</ele><time>2026-04-23T14:22:07.713Z</time></trkpt><trkpt lat="44.7410817" lon="9.3262817"><ele>885.0</ele><time>2026-04-23T14:22:10.714Z</time></trkpt><trkpt lat="44.741055" lon="9.3264133"><ele>885.0</ele><time>2026-04-23T14:22:13.713Z</time></trkpt><trkpt lat="44.7410383" lon="9.3265267"><ele>885.0</ele><time>2026-04-23T14:22:15.712Z</time></trkpt><trkpt lat="44.7410233" lon="9.3266617"><ele>885.0</ele><time>2026-04-23T14:22:17.714Z</time></trkpt><trkpt lat="44.741005" lon="9.3268033"><ele>877.0</ele><time>2026-04-23T14:22:19.713Z</time></trkpt><trkpt lat="44.740995" lon="9.3269533"><ele>869.0</ele><time>2026-04-23T14:22:21.713Z</time></trkpt><trkpt lat="44.7409733" lon="9.327085"><ele>861.0</ele><time>2026-04-23T14:22:23.713Z</time></trkpt><trkpt lat="44.740975" lon="9.3272117"><ele>853.0</ele><time>2026-04-23T14:22:25.713Z</time></trkpt><trkpt lat="44.7409883" lon="9.327355"><ele>845.0</ele><time>2026-04-23T14:22:27.712Z</time></trkpt><trkpt lat="44.7409933" lon="9.327515"><ele>844.8</ele><time>2026-04-23T14:22:29.713Z</time></trkpt><trkpt lat="44.7410067" lon="9.32766"><ele>844.6</ele><time>2026-04-23T14:22:31.713Z</time></trkpt><trkpt lat="44.7410383" lon="9.3277917"><ele>844.4000000000001</ele><time>2026-04-23T14:22:33.714Z</time></trkpt><trkpt lat="44.7410833" lon="9.3279333"><ele>844.2</ele><time>2026-04-23T14:22:35.715Z</time></trkpt><trkpt lat="44.741125" lon="9.3280083"><ele>844.0</ele><time>2026-04-23T14:22:37.715Z</time></trkpt><trkpt lat="44.74119" lon="9.328065"><ele>839.8333333333333</ele><time>2026-04-23T14:22:39.714Z</time></trkpt><trkpt lat="44.7412633" lon="9.3281367"><ele>835.6666666666666</ele><time>2026-04-23T14:22:41.715Z</time></trkpt><trkpt lat="44.7413417" lon="9.328185"><ele>831.5</ele><time>2026-04-23T14:22:43.716Z</time></trkpt><trkpt lat="44.7414167" lon="9.32822"><ele>827.3333333333333</ele><time>2026-04-23T14:22:45.714Z</time></trkpt><trkpt lat="44.741495" lon="9.3282783"><ele>823.1666666666666</ele><time>2026-04-23T14:22:47.715Z</time></trkpt><trkpt lat="44.7415467" lon="9.3283817"><ele>819.0</ele><time>2026-04-23T14:22:50.715Z</time></trkpt><trkpt lat="44.7415317" lon="9.3285183"><ele>819.0</ele><time>2026-04-23T14:22:53.715Z</time></trkpt><trkpt lat="44.7415017" lon="9.328635"><ele>819.0</ele><time>2026-04-23T14:22:55.714Z</time></trkpt><trkpt lat="44.741495" lon="9.3287717"><ele>819.0</ele><time>2026-04-23T14:22:57.713Z</time></trkpt><trkpt lat="44.7415233" lon="9.328885"><ele>819.0</ele><time>2026-04-23T14:22:59.714Z</time></trkpt><trkpt lat="44.7414483" lon="9.3289617"><ele>819.0</ele><time>2026-04-23T14:25:46.712Z</time></trkpt><trkpt lat="44.74153" lon="9.329035"><ele>818.5</ele><time>2026-04-23T14:27:39.714Z</time></trkpt><trkpt lat="44.7415767" lon="9.329125"><ele>818.0</ele><time>2026-04-23T14:27:41.713Z</time></trkpt><trkpt lat="44.7416367" lon="9.3292383"><ele>817.5</ele><time>2026-04-23T14:27:43.713Z</time></trkpt><trkpt lat="44.7417" lon="9.3293283"><ele>817.0</ele><time>2026-04-23T14:27:45.715Z</time></trkpt><trkpt lat="44.7417667" lon="9.329415"><ele>816.5</ele><time>2026-04-23T14:27:47.714Z</time></trkpt><trkpt lat="44.7418367" lon="9.3294817"><ele>816.0</ele><time>2026-04-23T14:27:50.715Z</time></trkpt><trkpt lat="44.7419033" lon="9.3294833"><ele>816.0</ele><time>2026-04-23T14:27:52.714Z</time></trkpt><trkpt lat="44.7419733" lon="9.3295083"><ele>816.0</ele><time>2026-04-23T14:27:54.714Z</time></trkpt><trkpt lat="44.7420383" lon="9.329525"><ele>816.0</ele><time>2026-04-23T14:27:56.714Z</time></trkpt><trkpt lat="44.7421133" lon="9.3295567"><ele>816.0</ele><time>2026-04-23T14:27:59.713Z</time></trkpt><trkpt lat="44.74215" lon="9.3296417"><ele>816.0</ele><time>2026-04-23T14:28:02.714Z</time></trkpt><trkpt lat="44.7421683" lon="9.329745"><ele>816.0</ele><time>2026-04-23T14:28:05.714Z</time></trkpt><trkpt lat="44.7422283" lon="9.3298467"><ele>811.8</ele><time>2026-04-23T14:28:07.714Z</time></trkpt><trkpt lat="44.7422867" lon="9.329975"><ele>807.5999999999999</ele><time>2026-04-23T14:28:09.712Z</time></trkpt><trkpt lat="44.7423233" lon="9.3301267"><ele>803.4</ele><time>2026-04-23T14:28:11.713Z</time></trkpt><trkpt lat="44.74234" lon="9.3302233"><ele>799.2</ele><time>2026-04-23T14:28:12.714Z</time></trkpt><trkpt lat="44.7423333" lon="9.330345"><ele>795.0</ele><time>2026-04-23T14:28:14.713Z</time></trkpt><trkpt lat="44.742315" lon="9.330475"><ele>790.8333333333334</ele><time>2026-04-23T14:28:16.713Z</time></trkpt><trkpt lat="44.7422717" lon="9.3305817"><ele>786.6666666666667</ele><time>2026-04-23T14:28:18.714Z</time></trkpt><trkpt lat="44.7422467" lon="9.3307133"><ele>782.5</ele><time>2026-04-23T14:28:20.715Z</time></trkpt><trkpt lat="44.74222" lon="9.3308283"><ele>778.3333333333334</ele><time>2026-04-23T14:28:22.713Z</time></trkpt><trkpt lat="44.7421533" lon="9.3308883"><ele>774.1666666666667</ele><time>2026-04-23T14:28:24.714Z</time></trkpt><trkpt lat="44.7420967" lon="9.3308233"><ele>770.0</ele><time>2026-04-23T14:28:26.714Z</time></trkpt><trkpt lat="44.7420333" lon="9.330775"><ele>770.0000000000001</ele><time>2026-04-23T14:28:28.714Z</time></trkpt><trkpt lat="44.7419717" lon="9.3307933"><ele>770.0</ele><time>2026-04-23T14:28:30.714Z</time></trkpt><trkpt lat="44.7419083" lon="9.3308567"><ele>770.0</ele><time>2026-04-23T14:28:32.713Z</time></trkpt><trkpt lat="44.7418633" lon="9.3309833"><ele>770.0</ele><time>2026-04-23T14:28:34.713Z</time></trkpt><trkpt lat="44.7418617" lon="9.3310967"><ele>770.0000000000001</ele><time>2026-04-23T14:28:36.713Z</time></trkpt><trkpt lat="44.7419083" lon="9.3311933"><ele>770.0</ele><time>2026-04-23T14:28:39.714Z</time></trkpt><trkpt lat="44.7419917" lon="9.33126"><ele>770.0</ele><time>2026-04-23T14:28:41.714Z</time></trkpt><trkpt lat="44.7420533" lon="9.3313183"><ele>770.0</ele><time>2026-04-23T14:28:42.713Z</time></trkpt><trkpt lat="44.742115" lon="9.3313883"><ele>770.0</ele><time>2026-04-23T14:28:43.714Z</time></trkpt><trkpt lat="44.7421717" lon="9.3314417"><ele>770.0</ele><time>2026-04-23T14:28:44.714Z</time></trkpt><trkpt lat="44.7422283" lon="9.3314833"><ele>770.0</ele><time>2026-04-23T14:28:45.713Z</time></trkpt><trkpt lat="44.7422967" lon="9.3315133"><ele>770.0</ele><time>2026-04-23T14:28:46.713Z</time></trkpt><trkpt lat="44.74236" lon="9.331525"><ele>770.0</ele><time>2026-04-23T14:28:47.713Z</time></trkpt><trkpt lat="44.7424633" lon="9.3315583"><ele>768.3333333333334</ele><time>2026-04-23T14:28:49.714Z</time></trkpt><trkpt lat="44.7425533" lon="9.3315417"><ele>766.6666666666667</ele><time>2026-04-23T14:28:52.713Z</time></trkpt><trkpt lat="44.7426167" lon="9.3315467"><ele>765.0</ele><time>2026-04-23T14:28:54.713Z</time></trkpt><trkpt lat="44.7427167" lon="9.3315767"><ele>763.3333333333334</ele><time>2026-04-23T14:28:57.712Z</time></trkpt><trkpt lat="44.7428017" lon="9.3315883"><ele>761.6666666666667</ele><time>2026-04-23T14:28:59.714Z</time></trkpt><trkpt lat="44.7428533" lon="9.3316433"><ele>760.0</ele><time>2026-04-23T14:29:01.713Z</time></trkpt><trkpt lat="44.7429133" lon="9.3317367"><ele>760.0</ele><time>2026-04-23T14:29:03.713Z</time></trkpt><trkpt lat="44.7429683" lon="9.331815"><ele>760.0</ele><time>2026-04-23T14:29:05.714Z</time></trkpt><trkpt lat="44.7430183" lon="9.331915"><ele>760.0</ele><time>2026-04-23T14:29:07.714Z</time></trkpt><trkpt lat="44.74308" lon="9.3320467"><ele>760.0</ele><time>2026-04-23T14:29:09.714Z</time></trkpt><trkpt lat="44.7431317" lon="9.3321633"><ele>760.0</ele><time>2026-04-23T14:29:11.713Z</time></trkpt><trkpt lat="44.74316" lon="9.3322633"><ele>757.5</ele><time>2026-04-23T14:29:13.713Z</time></trkpt><trkpt lat="44.74315" lon="9.3323883"><ele>755.0</ele><time>2026-04-23T14:29:16.713Z</time></trkpt><trkpt lat="44.7431233" lon="9.332475"><ele>752.5</ele><time>2026-04-23T14:29:18.714Z</time></trkpt><trkpt lat="44.74311" lon="9.332585"><ele>750.0</ele><time>2026-04-23T14:29:20.714Z</time></trkpt><trkpt lat="44.7431217" lon="9.332695"><ele>747.5</ele><time>2026-04-23T14:29:22.713Z</time></trkpt><trkpt lat="44.743145" lon="9.3328"><ele>745.0</ele><time>2026-04-23T14:29:24.712Z</time></trkpt><trkpt lat="44.7431567" lon="9.3329183"><ele>745.0</ele><time>2026-04-23T14:29:27.713Z</time></trkpt><trkpt lat="44.7431417" lon="9.33302"><ele>745.0</ele><time>2026-04-23T14:29:29.713Z</time></trkpt><trkpt lat="44.743155" lon="9.3331217"><ele>745.0</ele><time>2026-04-23T14:29:31.713Z</time></trkpt><trkpt lat="44.743185" lon="9.3332133"><ele>745.0</ele><time>2026-04-23T14:29:33.714Z</time></trkpt><trkpt lat="44.7432017" lon="9.3333"><ele>745.0</ele><time>2026-04-23T14:29:35.714Z</time></trkpt><trkpt lat="44.743235" lon="9.3334217"><ele>745.0</ele><time>2026-04-23T14:29:37.714Z</time></trkpt><trkpt lat="44.7432783" lon="9.3335667"><ele>742.0</ele><time>2026-04-23T14:29:39.713Z</time></trkpt><trkpt lat="44.7433117" lon="9.333725"><ele>739.0</ele><time>2026-04-23T14:29:41.713Z</time></trkpt><trkpt lat="44.743295" lon="9.3338767"><ele>736.0</ele><time>2026-04-23T14:29:43.713Z</time></trkpt><trkpt lat="44.7432833" lon="9.3339683"><ele>733.0</ele><time>2026-04-23T14:29:44.714Z</time></trkpt><trkpt lat="44.7432683" lon="9.334065"><ele>730.0</ele><time>2026-04-23T14:29:45.713Z</time></trkpt><trkpt lat="44.7432567" lon="9.3341633"><ele>727.0</ele><time>2026-04-23T14:29:46.714Z</time></trkpt><trkpt lat="44.7432517" lon="9.3343183"><ele>724.6</ele><time>2026-04-23T14:29:48.713Z</time></trkpt><trkpt lat="44.7432333" lon="9.3344733"><ele>722.2</ele><time>2026-04-23T14:29:50.714Z</time></trkpt><trkpt lat="44.7431967" lon="9.3345883"><ele>719.8</ele><time>2026-04-23T14:29:52.714Z</time></trkpt><trkpt lat="44.74318" lon="9.334695"><ele>717.4</ele><time>2026-04-23T14:29:55.715Z</time></trkpt><trkpt lat="44.7431767" lon="9.3348067"><ele>715.0</ele><time>2026-04-23T14:29:58.714Z</time></trkpt><trkpt lat="44.7431983" lon="9.3349417"><ele>713.3333333333334</ele><time>2026-04-23T14:30:02.714Z</time></trkpt><trkpt lat="44.74322" lon="9.3350467"><ele>711.6666666666667</ele><time>2026-04-23T14:30:04.713Z</time></trkpt><trkpt lat="44.7432183" lon="9.33515"><ele>710.0</ele><time>2026-04-23T14:30:06.713Z</time></trkpt><trkpt lat="44.743185" lon="9.33527"><ele>708.3333333333334</ele><time>2026-04-23T14:30:08.714Z</time></trkpt><trkpt lat="44.7431683" lon="9.3353917"><ele>706.6666666666666</ele><time>2026-04-23T14:30:10.713Z</time></trkpt><trkpt lat="44.7431917" lon="9.33552"><ele>705.0</ele><time>2026-04-23T14:30:12.713Z</time></trkpt><trkpt lat="44.7432117" lon="9.335645"><ele>704.0</ele><time>2026-04-23T14:30:14.714Z</time></trkpt><trkpt lat="44.7432317" lon="9.3357733"><ele>703.0</ele><time>2026-04-23T14:30:16.712Z</time></trkpt><trkpt lat="44.74324" lon="9.335875"><ele>702.0</ele><time>2026-04-23T14:30:18.713Z</time></trkpt><trkpt lat="44.7432283" lon="9.3359917"><ele>701.0</ele><time>2026-04-23T14:30:20.714Z</time></trkpt><trkpt lat="44.7432283" lon="9.3361283"><ele>700.0</ele><time>2026-04-23T14:30:22.713Z</time></trkpt><trkpt lat="44.7432033" lon="9.3362717"><ele>696.0</ele><time>2026-04-23T14:30:24.714Z</time></trkpt><trkpt lat="44.7431733" lon="9.33642"><ele>692.0</ele><time>2026-04-23T14:30:26.714Z</time></trkpt><trkpt lat="44.7425517" lon="9.3377267"><ele>687.0</ele><time>2026-04-23T14:31:14.713Z</time></trkpt><trkpt lat="44.74251" lon="9.3379383"><ele>682.0</ele><time>2026-04-23T14:31:43.713Z</time></trkpt><trkpt lat="44.7424783" lon="9.3380483"><ele>677.0</ele><time>2026-04-23T14:36:09.713Z</time></trkpt><trkpt lat="44.7425317" lon="9.338155"><ele>672.0</ele><time>2026-04-23T14:36:11.714Z</time></trkpt><trkpt lat="44.742595" lon="9.33828"><ele>667.0</ele><time>2026-04-23T14:36:13.714Z</time></trkpt><trkpt lat="44.7426567" lon="9.3383967"><ele>665.8333333333334</ele><time>2026-04-23T14:36:15.715Z</time></trkpt><trkpt lat="44.7427017" lon="9.3385033"><ele>664.6666666666667</ele><time>2026-04-23T14:36:17.713Z</time></trkpt><trkpt lat="44.7427533" lon="9.3386283"><ele>663.5</ele><time>2026-04-23T14:36:19.713Z</time></trkpt><trkpt lat="44.74279" lon="9.3387483"><ele>662.3333333333334</ele><time>2026-04-23T14:36:21.712Z</time></trkpt><trkpt lat="44.7428133" lon="9.3388517"><ele>661.1666666666666</ele><time>2026-04-23T14:36:23.714Z</time></trkpt><trkpt lat="44.74284" lon="9.338935"><ele>660.0</ele><time>2026-04-23T14:36:25.713Z</time></trkpt><trkpt lat="44.742895" lon="9.3390167"><ele>655.0</ele><time>2026-04-23T14:36:29.713Z</time></trkpt><trkpt lat="44.74295" lon="9.3390717"><ele>650.0</ele><time>2026-04-23T14:36:33.713Z</time></trkpt><trkpt lat="44.7430033" lon="9.3391417"><ele>645.0</ele><time>2026-04-23T14:36:36.713Z</time></trkpt><trkpt lat="44.74308" lon="9.3391833"><ele>640.0</ele><time>2026-04-23T14:36:38.714Z</time></trkpt><trkpt lat="44.743155" lon="9.3392233"><ele>635.0</ele><time>2026-04-23T14:36:40.713Z</time></trkpt><trkpt lat="44.74322" lon="9.3392517"><ele>630.0</ele><time>2026-04-23T14:36:42.713Z</time></trkpt><trkpt lat="44.7433117" lon="9.339265"><ele>630.0</ele><time>2026-04-23T14:36:45.713Z</time></trkpt><trkpt lat="44.74338" lon="9.339275"><ele>630.0</ele><time>2026-04-23T14:36:47.713Z</time></trkpt><trkpt lat="44.7434583" lon="9.3393117"><ele>630.0</ele><time>2026-04-23T14:36:49.714Z</time></trkpt><trkpt lat="44.74353" lon="9.3393183"><ele>630.0</ele><time>2026-04-23T14:36:51.712Z</time></trkpt><trkpt lat="44.7436117" lon="9.3393"><ele>630.0</ele><time>2026-04-23T14:36:54.712Z</time></trkpt><trkpt lat="44.743675" lon="9.339265"><ele>630.0</ele><time>2026-04-23T14:36:56.714Z</time></trkpt><trkpt lat="44.743775" lon="9.3393"><ele>629.3333333333334</ele><time>2026-04-23T14:37:02.714Z</time></trkpt><trkpt lat="44.74383" lon="9.3393783"><ele>628.6666666666666</ele><time>2026-04-23T14:37:06.712Z</time></trkpt><trkpt lat="44.74388" lon="9.3394633"><ele>628.0</ele><time>2026-04-23T14:37:10.713Z</time></trkpt><trkpt lat="44.743935" lon="9.3395817"><ele>627.3333333333333</ele><time>2026-04-23T14:37:21.713Z</time></trkpt><trkpt lat="44.7439783" lon="9.3396517"><ele>626.6666666666666</ele><time>2026-04-23T14:37:25.713Z</time></trkpt><trkpt lat="44.7440417" lon="9.33964"><ele>626.0</ele><time>2026-04-23T14:37:29.713Z</time></trkpt><trkpt lat="44.7441067" lon="9.3396767"><ele>624.3333333333333</ele><time>2026-04-23T14:37:32.714Z</time></trkpt><trkpt lat="44.74416" lon="9.3397367"><ele>622.6666666666666</ele><time>2026-04-23T14:37:34.713Z</time></trkpt><trkpt lat="44.7442167" lon="9.3397883"><ele>621.0</ele><time>2026-04-23T14:37:36.713Z</time></trkpt><trkpt lat="44.7443017" lon="9.3398117"><ele>619.3333333333334</ele><time>2026-04-23T14:48:37.714Z</time></trkpt><trkpt lat="44.74438" lon="9.3398117"><ele>617.6666666666667</ele><time>2026-04-23T14:48:39.713Z</time></trkpt><trkpt lat="44.7444633" lon="9.3398167"><ele>616.0</ele><time>2026-04-23T14:48:41.714Z</time></trkpt><trkpt lat="44.7445283" lon="9.3398383"><ele>616.0</ele><time>2026-04-23T14:48:43.715Z</time></trkpt><trkpt lat="44.74459" lon="9.33988"><ele>616.0</ele><time>2026-04-23T14:48:45.713Z</time></trkpt><trkpt lat="44.7446583" lon="9.339935"><ele>616.0</ele><time>2026-04-23T14:48:47.713Z</time></trkpt><trkpt lat="44.7447217" lon="9.34002"><ele>616.0</ele><time>2026-04-23T14:48:50.714Z</time></trkpt><trkpt lat="44.7447867" lon="9.34006"><ele>616.0</ele><time>2026-04-23T14:48:52.714Z</time></trkpt><trkpt lat="44.7448617" lon="9.34004"><ele>616.0</ele><time>2026-04-23T14:48:55.712Z</time></trkpt><trkpt lat="44.74492" lon="9.3400867"><ele>616.0</ele><time>2026-04-23T14:48:59.713Z</time></trkpt><trkpt lat="44.744955" lon="9.3401833"><ele>616.0</ele><time>2026-04-23T14:49:02.715Z</time></trkpt><trkpt lat="44.7449617" lon="9.34028"><ele>616.0</ele><time>2026-04-23T14:49:04.713Z</time></trkpt><trkpt lat="44.7449617" lon="9.3403817"><ele>616.0</ele><time>2026-04-23T14:49:06.713Z</time></trkpt><trkpt lat="44.7449767" lon="9.3404683"><ele>616.0</ele><time>2026-04-23T14:49:08.714Z</time></trkpt><trkpt lat="44.7449883" lon="9.34057"><ele>616.0</ele><time>2026-04-23T14:49:10.715Z</time></trkpt><trkpt lat="44.7450083" lon="9.340665"><ele>616.0</ele><time>2026-04-23T14:49:12.714Z</time></trkpt><trkpt lat="44.74504" lon="9.3407633"><ele>616.0</ele><time>2026-04-23T14:49:14.715Z</time></trkpt><trkpt lat="44.7451033" lon="9.340845"><ele>613.8</ele><time>2026-04-23T14:49:16.714Z</time></trkpt><trkpt lat="44.7451917" lon="9.3409317"><ele>611.6</ele><time>2026-04-23T14:49:18.714Z</time></trkpt><trkpt lat="44.7452817" lon="9.3410083"><ele>609.4</ele><time>2026-04-23T14:49:20.714Z</time></trkpt><trkpt lat="44.7453533" lon="9.3411"><ele>607.2</ele><time>2026-04-23T14:49:22.715Z</time></trkpt><trkpt lat="44.7454283" lon="9.34118"><ele>605.0</ele><time>2026-04-23T14:49:24.714Z</time></trkpt><trkpt lat="44.7454783" lon="9.3412383"><ele>604.8571428571429</ele><time>2026-04-23T14:49:26.717Z</time></trkpt><trkpt lat="44.745545" lon="9.341325"><ele>604.7142857142858</ele><time>2026-04-23T14:49:29.716Z</time></trkpt><trkpt lat="44.7455917" lon="9.3413917"><ele>604.5714285714287</ele><time>2026-04-23T14:49:31.716Z</time></trkpt><trkpt lat="44.745645" lon="9.3414617"><ele>604.4285714285714</ele><time>2026-04-23T14:49:33.715Z</time></trkpt><trkpt lat="44.7457067" lon="9.34151"><ele>604.2857142857143</ele><time>2026-04-23T14:49:35.716Z</time></trkpt><trkpt lat="44.74577" lon="9.3415483"><ele>604.1428571428572</ele><time>2026-04-23T14:49:38.717Z</time></trkpt><trkpt lat="44.74582" lon="9.341615"><ele>604.0</ele><time>2026-04-23T14:49:40.715Z</time></trkpt><trkpt lat="44.7459" lon="9.3416583"><ele>604.0</ele><time>2026-04-23T14:49:47.715Z</time></trkpt><trkpt lat="44.7459833" lon="9.3416633"><ele>604.0</ele><time>2026-04-23T14:49:49.715Z</time></trkpt><trkpt lat="44.7461" lon="9.3416333"><ele>604.0</ele><time>2026-04-23T14:49:51.713Z</time></trkpt><trkpt lat="44.746205" lon="9.341625"><ele>604.0</ele><time>2026-04-23T14:49:53.714Z</time></trkpt><trkpt lat="44.746275" lon="9.341675"><ele>604.0</ele><time>2026-04-23T14:49:55.714Z</time></trkpt><trkpt lat="44.746245" lon="9.3417883"><ele>607.8</ele><time>2026-04-23T14:49:58.714Z</time></trkpt><trkpt lat="44.74622" lon="9.3419083"><ele>611.5999999999999</ele><time>2026-04-23T14:50:00.712Z</time></trkpt><trkpt lat="44.746235" lon="9.3420367"><ele>615.4</ele><time>2026-04-23T14:50:02.714Z</time></trkpt><trkpt lat="44.7462767" lon="9.3421717"><ele>619.1999999999999</ele><time>2026-04-23T14:50:04.713Z</time></trkpt><trkpt lat="44.7463217" lon="9.342285"><ele>623.0</ele><time>2026-04-23T14:50:06.713Z</time></trkpt><trkpt lat="44.746345" lon="9.3423833"><ele>623.0</ele><time>2026-04-23T14:50:08.714Z</time></trkpt><trkpt lat="44.74639" lon="9.34245"><ele>623.0</ele><time>2026-04-23T14:50:11.713Z</time></trkpt><trkpt lat="44.7464433" lon="9.3424983"><ele>623.0</ele><time>2026-04-23T14:50:14.714Z</time></trkpt><trkpt lat="44.7464933" lon="9.3426217"><ele>623.0</ele><time>2026-04-23T14:50:20.714Z</time></trkpt><trkpt lat="44.7465583" lon="9.3427333"><ele>623.0</ele><time>2026-04-23T14:50:22.713Z</time></trkpt><trkpt lat="44.74661" lon="9.3428183"><ele>623.0</ele><time>2026-04-23T14:50:24.712Z</time></trkpt><trkpt lat="44.7466717" lon="9.34289"><ele>623.0</ele><time>2026-04-23T14:50:27.712Z</time></trkpt><trkpt lat="44.7467333" lon="9.342965"><ele>623.0</ele><time>2026-04-23T14:50:30.712Z</time></trkpt><trkpt lat="44.7468" lon="9.3430317"><ele>623.0</ele><time>2026-04-23T14:50:32.714Z</time></trkpt><trkpt lat="44.7468767" lon="9.3430717"><ele>623.0</ele><time>2026-04-23T14:50:34.714Z</time></trkpt><trkpt lat="44.7469383" lon="9.3431"><ele>623.0</ele><time>2026-04-23T14:50:36.712Z</time></trkpt><trkpt lat="44.74703" lon="9.343145"><ele>623.0</ele><time>2026-04-23T14:50:39.712Z</time></trkpt><trkpt lat="44.747105" lon="9.3431933"><ele>625.1428571428571</ele><time>2026-04-23T14:50:41.713Z</time></trkpt><trkpt lat="44.7471683" lon="9.3432467"><ele>627.2857142857142</ele><time>2026-04-23T14:50:43.713Z</time></trkpt><trkpt lat="44.74723" lon="9.3433133"><ele>629.4285714285714</ele><time>2026-04-23T14:50:46.713Z</time></trkpt><trkpt lat="44.7472833" lon="9.3433817"><ele>631.5714285714286</ele><time>2026-04-23T14:50:49.713Z</time></trkpt><trkpt lat="44.7473517" lon="9.3434117"><ele>633.7142857142857</ele><time>2026-04-23T14:50:53.713Z</time></trkpt><trkpt lat="44.7474183" lon="9.343445"><ele>635.8571428571429</ele><time>2026-04-23T14:51:02.713Z</time></trkpt><trkpt lat="44.7474633" lon="9.3435433"><ele>638.0</ele><time>2026-04-23T14:51:05.713Z</time></trkpt><trkpt lat="44.7473867" lon="9.34361"><ele>638.0</ele><time>2026-04-23T14:51:11.714Z</time></trkpt><trkpt lat="44.7474467" lon="9.3436817"><ele>638.0</ele><time>2026-04-23T14:51:16.714Z</time></trkpt><trkpt lat="44.7475333" lon="9.3437183"><ele>638.0</ele><time>2026-04-23T14:51:19.713Z</time></trkpt><trkpt lat="44.747575" lon="9.3437917"><ele>638.0</ele><time>2026-04-23T14:51:22.713Z</time></trkpt><trkpt lat="44.7475217" lon="9.343935"><ele>638.0</ele><time>2026-04-23T14:53:12.713Z</time></trkpt><trkpt lat="44.7474833" lon="9.344035"><ele>638.0</ele><time>2026-04-23T14:53:14.712Z</time></trkpt><trkpt lat="44.7474383" lon="9.3441567"><ele>637.6</ele><time>2026-04-23T14:53:16.714Z</time></trkpt><trkpt lat="44.7473883" lon="9.3442617"><ele>637.1999999999999</ele><time>2026-04-23T14:53:18.713Z</time></trkpt><trkpt lat="44.7473717" lon="9.3443783"><ele>636.8</ele><time>2026-04-23T14:53:20.713Z</time></trkpt><trkpt lat="44.7473933" lon="9.3445367"><ele>636.4</ele><time>2026-04-23T14:53:22.714Z</time></trkpt><trkpt lat="44.7474217" lon="9.3446483"><ele>636.0</ele><time>2026-04-23T14:53:23.713Z</time></trkpt><trkpt lat="44.747455" lon="9.3447567"><ele>637.3333333333334</ele><time>2026-04-23T14:53:24.712Z</time></trkpt><trkpt lat="44.7474833" lon="9.3448583"><ele>638.6666666666666</ele><time>2026-04-23T14:53:25.713Z</time></trkpt><trkpt lat="44.7475067" lon="9.3449617"><ele>640.0</ele><time>2026-04-23T14:53:26.714Z</time></trkpt><trkpt lat="44.74753" lon="9.3450683"><ele>641.3333333333333</ele><time>2026-04-23T14:53:27.714Z</time></trkpt><trkpt lat="44.7475483" lon="9.34518"><ele>642.6666666666666</ele><time>2026-04-23T14:53:28.713Z</time></trkpt><trkpt lat="44.7475717" lon="9.345285"><ele>644.0</ele><time>2026-04-23T14:53:29.718Z</time></trkpt><trkpt lat="44.7476117" lon="9.3454417"><ele>644.0</ele><time>2026-04-23T14:53:31.714Z</time></trkpt><trkpt lat="44.7476367" lon="9.3455333"><ele>644.0</ele><time>2026-04-23T14:53:33.714Z</time></trkpt><trkpt lat="44.7476783" lon="9.3456267"><ele>644.0</ele><time>2026-04-23T14:53:37.714Z</time></trkpt><trkpt lat="44.7477467" lon="9.345715"><ele>644.0</ele><time>2026-04-23T14:53:40.713Z</time></trkpt><trkpt lat="44.74783" lon="9.3457367"><ele>644.0</ele><time>2026-04-23T14:53:42.713Z</time></trkpt><trkpt lat="44.7479067" lon="9.3457933"><ele>644.0</ele><time>2026-04-23T14:53:45.713Z</time></trkpt><trkpt lat="44.7479083" lon="9.3459067"><ele>644.2</ele><time>2026-04-23T14:53:48.712Z</time></trkpt><trkpt lat="44.7479167" lon="9.3460183"><ele>644.4000000000001</ele><time>2026-04-23T14:53:50.714Z</time></trkpt><trkpt lat="44.747925" lon="9.346185"><ele>644.6</ele><time>2026-04-23T14:53:52.713Z</time></trkpt><trkpt lat="44.7479417" lon="9.3463183"><ele>644.8</ele><time>2026-04-23T14:53:54.713Z</time></trkpt><trkpt lat="44.7479817" lon="9.3464333"><ele>645.0</ele><time>2026-04-23T14:53:56.714Z</time></trkpt><trkpt lat="44.748035" lon="9.34653"><ele>645.0</ele><time>2026-04-23T14:53:58.714Z</time></trkpt><trkpt lat="44.74811" lon="9.3466283"><ele>645.0</ele><time>2026-04-23T14:54:00.713Z</time></trkpt><trkpt lat="44.7481817" lon="9.34674"><ele>645.0</ele><time>2026-04-23T14:54:02.714Z</time></trkpt><trkpt lat="44.7482383" lon="9.3468567"><ele>645.0</ele><time>2026-04-23T14:54:04.713Z</time></trkpt><trkpt lat="44.7483067" lon="9.3469717"><ele>645.0</ele><time>2026-04-23T14:54:06.713Z</time></trkpt><trkpt lat="44.7483917" lon="9.3470883"><ele>645.0</ele><time>2026-04-23T14:54:08.713Z</time></trkpt><trkpt lat="44.7484717" lon="9.347165"><ele>645.0</ele><time>2026-04-23T14:54:10.713Z</time></trkpt><trkpt lat="44.7485883" lon="9.347195"><ele>645.0</ele><time>2026-04-23T14:54:12.714Z</time></trkpt><trkpt lat="44.74866" lon="9.34719"><ele>645.0</ele><time>2026-04-23T14:54:13.714Z</time></trkpt><trkpt lat="44.7487783" lon="9.3471967"><ele>645.0</ele><time>2026-04-23T14:54:15.712Z</time></trkpt><trkpt lat="44.7488917" lon="9.347185"><ele>646.3333333333334</ele><time>2026-04-23T14:54:17.713Z</time></trkpt><trkpt lat="44.74898" lon="9.3471567"><ele>647.6666666666666</ele><time>2026-04-23T14:54:19.713Z</time></trkpt><trkpt lat="44.74905" lon="9.3471217"><ele>649.0</ele><time>2026-04-23T14:54:21.712Z</time></trkpt><trkpt lat="44.7491333" lon="9.34713"><ele>650.3333333333333</ele><time>2026-04-23T14:54:25.712Z</time></trkpt><trkpt lat="44.7491883" lon="9.3471983"><ele>651.6666666666666</ele><time>2026-04-23T14:54:27.713Z</time></trkpt><trkpt lat="44.7492483" lon="9.3472967"><ele>653.0</ele><time>2026-04-23T14:54:29.714Z</time></trkpt><trkpt lat="44.7493233" lon="9.34739"><ele>661.0</ele><time>2026-04-23T14:54:31.714Z</time></trkpt><trkpt lat="44.749385" lon="9.34748"><ele>669.0</ele><time>2026-04-23T14:54:33.713Z</time></trkpt><trkpt lat="44.74941" lon="9.3476217"><ele>677.0</ele><time>2026-04-23T14:54:35.714Z</time></trkpt><trkpt lat="44.7494417" lon="9.347785"><ele>685.0</ele><time>2026-04-23T14:54:37.714Z</time></trkpt><trkpt lat="44.7494833" lon="9.34791"><ele>693.0</ele><time>2026-04-23T14:54:39.713Z</time></trkpt><trkpt lat="44.7495167" lon="9.3480283"><ele>689.2</ele><time>2026-04-23T14:54:57.713Z</time></trkpt><trkpt lat="44.749585" lon="9.3481967"><ele>685.4</ele><time>2026-04-23T14:54:59.713Z</time></trkpt><trkpt lat="44.74964" lon="9.348285"><ele>681.6</ele><time>2026-04-23T14:55:00.714Z</time></trkpt><trkpt lat="44.7496867" lon="9.34838"><ele>677.8000000000001</ele><time>2026-04-23T14:55:01.713Z</time></trkpt><trkpt lat="44.749715" lon="9.3484967"><ele>674.0</ele><time>2026-04-23T14:55:02.713Z</time></trkpt><trkpt lat="44.7497533" lon="9.3486283"><ele>674.0</ele><time>2026-04-23T14:55:03.713Z</time></trkpt><trkpt lat="44.7497917" lon="9.3487617"><ele>674.0</ele><time>2026-04-23T14:55:04.713Z</time></trkpt><trkpt lat="44.7498267" lon="9.3488933"><ele>674.0</ele><time>2026-04-23T14:55:05.713Z</time></trkpt><trkpt lat="44.74986" lon="9.3490183"><ele>674.0</ele><time>2026-04-23T14:55:06.714Z</time></trkpt><trkpt lat="44.7498867" lon="9.3491383"><ele>674.0</ele><time>2026-04-23T14:55:07.713Z</time></trkpt><trkpt lat="44.7499" lon="9.3492567"><ele>672.0</ele><time>2026-04-23T14:55:08.713Z</time></trkpt><trkpt lat="44.7498917" lon="9.3493683"><ele>670.0</ele><time>2026-04-23T14:55:09.712Z</time></trkpt><trkpt lat="44.749875" lon="9.34946"><ele>668.0</ele><time>2026-04-23T14:55:10.715Z</time></trkpt><trkpt lat="44.7498167" lon="9.3495383"><ele>666.0</ele><time>2026-04-23T14:55:12.715Z</time></trkpt><trkpt lat="44.7497867" lon="9.34945"><ele>664.0</ele><time>2026-04-23T14:55:14.713Z</time></trkpt><trkpt lat="44.7497617" lon="9.3492417"><ele>662.0</ele><time>2026-04-23T14:55:16.713Z</time></trkpt><trkpt lat="44.7497267" lon="9.349105"><ele>662.0</ele><time>2026-04-23T14:55:17.713Z</time></trkpt><trkpt lat="44.7496783" lon="9.3489567"><ele>662.0</ele><time>2026-04-23T14:55:18.714Z</time></trkpt><trkpt lat="44.749625" lon="9.34881"><ele>662.0</ele><time>2026-04-23T14:55:19.713Z</time></trkpt><trkpt lat="44.749565" lon="9.3486767"><ele>662.0</ele><time>2026-04-23T14:55:20.714Z</time></trkpt><trkpt lat="44.7494883" lon="9.3485467"><ele>660.2</ele><time>2026-04-23T14:55:21.713Z</time></trkpt><trkpt lat="44.7494117" lon="9.3484183"><ele>658.4000000000001</ele><time>2026-04-23T14:55:22.712Z</time></trkpt><trkpt lat="44.7493433" lon="9.3482883"><ele>656.5999999999999</ele><time>2026-04-23T14:55:23.713Z</time></trkpt><trkpt lat="44.749295" lon="9.3481517"><ele>654.8</ele><time>2026-04-23T14:55:24.712Z</time></trkpt><trkpt lat="44.7492583" lon="9.34801"><ele>653.0</ele><time>2026-04-23T14:55:25.714Z</time></trkpt><trkpt lat="44.7492083" lon="9.3478817"><ele>653.0</ele><time>2026-04-23T14:55:26.713Z</time></trkpt><trkpt lat="44.7491467" lon="9.3477733"><ele>653.0</ele><time>2026-04-23T14:55:27.713Z</time></trkpt><trkpt lat="44.7490867" lon="9.3476917"><ele>653.0</ele><time>2026-04-23T14:55:28.714Z</time></trkpt><trkpt lat="44.7490283" lon="9.34764"><ele>653.0</ele><time>2026-04-23T14:55:29.714Z</time></trkpt><trkpt lat="44.748935" lon="9.347715"><ele>653.0</ele><time>2026-04-23T14:55:31.713Z</time></trkpt><trkpt lat="44.748935" lon="9.3478217"><ele>653.0</ele><time>2026-04-23T14:55:32.713Z</time></trkpt><trkpt lat="44.74895" lon="9.3479533"><ele>650.0</ele><time>2026-04-23T14:55:33.713Z</time></trkpt><trkpt lat="44.74898" lon="9.348115"><ele>647.0</ele><time>2026-04-23T14:55:34.713Z</time></trkpt><trkpt lat="44.7490017" lon="9.3482817"><ele>644.0</ele><time>2026-04-23T14:55:35.714Z</time></trkpt><trkpt lat="44.7490217" lon="9.3484617"><ele>641.0</ele><time>2026-04-23T14:55:36.713Z</time></trkpt><trkpt lat="44.74905" lon="9.3486417"><ele>641.0</ele><time>2026-04-23T14:55:37.714Z</time></trkpt><trkpt lat="44.7490917" lon="9.3488117"><ele>641.0</ele><time>2026-04-23T14:55:38.715Z</time></trkpt><trkpt lat="44.7491417" lon="9.3489883"><ele>641.0</ele><time>2026-04-23T14:55:39.713Z</time></trkpt><trkpt lat="44.7491717" lon="9.3491617"><ele>641.0</ele><time>2026-04-23T14:55:40.713Z</time></trkpt><trkpt lat="44.749185" lon="9.34933"><ele>638.75</ele><time>2026-04-23T14:55:41.714Z</time></trkpt><trkpt lat="44.7491583" lon="9.349485"><ele>636.5</ele><time>2026-04-23T14:55:42.712Z</time></trkpt><trkpt lat="44.74912" lon="9.3496467"><ele>634.25</ele><time>2026-04-23T14:55:43.713Z</time></trkpt><trkpt lat="44.7490783" lon="9.3498033"><ele>632.0</ele><time>2026-04-23T14:55:44.714Z</time></trkpt><trkpt lat="44.7490367" lon="9.34996"><ele>632.0</ele><time>2026-04-23T14:55:45.712Z</time></trkpt><trkpt lat="44.7489917" lon="9.3500983"><ele>632.0</ele><time>2026-04-23T14:55:46.715Z</time></trkpt><trkpt lat="44.7489233" lon="9.350205"><ele>632.0</ele><time>2026-04-23T14:55:47.713Z</time></trkpt><trkpt lat="44.7488367" lon="9.350295"><ele>632.0</ele><time>2026-04-23T14:55:48.713Z</time></trkpt><trkpt lat="44.7487467" lon="9.35039"><ele>632.0</ele><time>2026-04-23T14:55:49.713Z</time></trkpt><trkpt lat="44.7486633" lon="9.350485"><ele>633.6</ele><time>2026-04-23T14:55:50.713Z</time></trkpt><trkpt lat="44.74859" lon="9.3505817"><ele>635.2</ele><time>2026-04-23T14:55:51.713Z</time></trkpt><trkpt lat="44.7485283" lon="9.3506933"><ele>636.8</ele><time>2026-04-23T14:55:52.715Z</time></trkpt><trkpt lat="44.7484783" lon="9.350815"><ele>638.4</ele><time>2026-04-23T14:55:53.713Z</time></trkpt><trkpt lat="44.7484433" lon="9.3509417"><ele>640.0</ele><time>2026-04-23T14:55:54.715Z</time></trkpt><trkpt lat="44.7484083" lon="9.3510817"><ele>631.75</ele><time>2026-04-23T14:55:55.714Z</time></trkpt><trkpt lat="44.7483767" lon="9.3512417"><ele>623.5</ele><time>2026-04-23T14:55:56.713Z</time></trkpt><trkpt lat="44.7483433" lon="9.35142"><ele>615.25</ele><time>2026-04-23T14:55:57.713Z</time></trkpt><trkpt lat="44.7483083" lon="9.3516"><ele>607.0</ele><time>2026-04-23T14:55:58.713Z</time></trkpt><trkpt lat="44.7482783" lon="9.351785"><ele>606.75</ele><time>2026-04-23T14:55:59.713Z</time></trkpt><trkpt lat="44.7482567" lon="9.3519667"><ele>606.5</ele><time>2026-04-23T14:56:00.712Z</time></trkpt><trkpt lat="44.7482317" lon="9.3521417"><ele>606.25</ele><time>2026-04-23T14:56:01.714Z</time></trkpt><trkpt lat="44.7481917" lon="9.3523117"><ele>606.0</ele><time>2026-04-23T14:56:02.713Z</time></trkpt><trkpt lat="44.7481417" lon="9.352475"><ele>606.4</ele><time>2026-04-23T14:56:03.714Z</time></trkpt><trkpt lat="44.7480867" lon="9.352635"><ele>606.8</ele><time>2026-04-23T14:56:04.713Z</time></trkpt><trkpt lat="44.74805" lon="9.3527833"><ele>607.1999999999999</ele><time>2026-04-23T14:56:05.713Z</time></trkpt><trkpt lat="44.7480383" lon="9.3529133"><ele>607.6</ele><time>2026-04-23T14:56:06.713Z</time></trkpt><trkpt lat="44.7480583" lon="9.3530583"><ele>608.0</ele><time>2026-04-23T14:56:07.714Z</time></trkpt><trkpt lat="44.748105" lon="9.35324"><ele>608.0</ele><time>2026-04-23T14:56:08.714Z</time></trkpt><trkpt lat="44.74815" lon="9.35343"><ele>608.0</ele><time>2026-04-23T14:56:09.713Z</time></trkpt><trkpt lat="44.7481933" lon="9.353625"><ele>608.0</ele><time>2026-04-23T14:56:10.714Z</time></trkpt><trkpt lat="44.74824" lon="9.353825"><ele>608.0</ele><time>2026-04-23T14:56:11.714Z</time></trkpt><trkpt lat="44.7482867" lon="9.3540117"><ele>603.75</ele><time>2026-04-23T14:56:12.712Z</time></trkpt><trkpt lat="44.7483317" lon="9.3541633"><ele>599.5</ele><time>2026-04-23T14:56:13.713Z</time></trkpt><trkpt lat="44.748395" lon="9.35429"><ele>595.25</ele><time>2026-04-23T14:56:14.714Z</time></trkpt><trkpt lat="44.7484917" lon="9.354405"><ele>591.0</ele><time>2026-04-23T14:56:15.714Z</time></trkpt><trkpt lat="44.748615" lon="9.3545233"><ele>590.25</ele><time>2026-04-23T14:56:16.713Z</time></trkpt><trkpt lat="44.7487383" lon="9.35464"><ele>589.5</ele><time>2026-04-23T14:56:17.714Z</time></trkpt><trkpt lat="44.7488633" lon="9.3547517"><ele>588.75</ele><time>2026-04-23T14:56:18.713Z</time></trkpt><trkpt lat="44.7489833" lon="9.3548533"><ele>588.0</ele><time>2026-04-23T14:56:19.713Z</time></trkpt><trkpt lat="44.7491067" lon="9.3549433"><ele>588.0</ele><time>2026-04-23T14:56:20.713Z</time></trkpt><trkpt lat="44.7492233" lon="9.3550383"><ele>588.0</ele><time>2026-04-23T14:56:21.714Z</time></trkpt><trkpt lat="44.749325" lon="9.3551333"><ele>588.0</ele><time>2026-04-23T14:56:22.714Z</time></trkpt><trkpt lat="44.7493967" lon="9.3552367"><ele>588.0</ele><time>2026-04-23T14:56:23.713Z</time></trkpt><trkpt lat="44.7494117" lon="9.35533"><ele>588.0</ele><time>2026-04-23T14:56:24.713Z</time></trkpt><trkpt lat="44.7493867" lon="9.3554117"><ele>588.0</ele><time>2026-04-23T14:56:25.713Z</time></trkpt><trkpt lat="44.749335" lon="9.3554917"><ele>588.0</ele><time>2026-04-23T14:56:26.715Z</time></trkpt><trkpt lat="44.74926" lon="9.3555967"><ele>588.0</ele><time>2026-04-23T14:56:27.713Z</time></trkpt><trkpt lat="44.7491833" lon="9.3557083"><ele>588.0</ele><time>2026-04-23T14:56:28.713Z</time></trkpt><trkpt lat="44.7491067" lon="9.3558183"><ele>588.0</ele><time>2026-04-23T14:56:29.713Z</time></trkpt><trkpt lat="44.7490383" lon="9.3559217"><ele>586.1666666666666</ele><time>2026-04-23T14:56:30.714Z</time></trkpt><trkpt lat="44.7489917" lon="9.3560283"><ele>584.3333333333334</ele><time>2026-04-23T14:56:31.714Z</time></trkpt><trkpt lat="44.7489667" lon="9.356135"><ele>582.5</ele><time>2026-04-23T14:56:32.714Z</time></trkpt><trkpt lat="44.7489683" lon="9.3562383"><ele>580.6666666666667</ele><time>2026-04-23T14:56:33.714Z</time></trkpt><trkpt lat="44.7489933" lon="9.356335"><ele>578.8333333333334</ele><time>2026-04-23T14:56:34.714Z</time></trkpt><trkpt lat="44.7490567" lon="9.356425"><ele>577.0</ele><time>2026-04-23T14:56:35.713Z</time></trkpt><trkpt lat="44.7491633" lon="9.356505"><ele>580.25</ele><time>2026-04-23T14:56:36.713Z</time></trkpt><trkpt lat="44.7492833" lon="9.356585"><ele>583.5</ele><time>2026-04-23T14:56:37.713Z</time></trkpt><trkpt lat="44.74941" lon="9.356675"><ele>586.75</ele><time>2026-04-23T14:56:38.713Z</time></trkpt><trkpt lat="44.7495117" lon="9.3567717"><ele>590.0</ele><time>2026-04-23T14:56:39.714Z</time></trkpt><trkpt lat="44.7496083" lon="9.356845"><ele>590.0</ele><time>2026-04-23T14:56:40.713Z</time></trkpt><trkpt lat="44.749705" lon="9.356885"><ele>590.0</ele><time>2026-04-23T14:56:41.713Z</time></trkpt><trkpt lat="44.7498067" lon="9.3569083"><ele>590.0</ele><time>2026-04-23T14:56:42.713Z</time></trkpt><trkpt lat="44.749895" lon="9.3569567"><ele>590.0</ele><time>2026-04-23T14:56:43.714Z</time></trkpt><trkpt lat="44.749965" lon="9.3570433"><ele>590.0</ele><time>2026-04-23T14:56:44.713Z</time></trkpt><trkpt lat="44.7500133" lon="9.35716"><ele>587.3333333333333</ele><time>2026-04-23T14:56:45.713Z</time></trkpt><trkpt lat="44.750055" lon="9.3572667"><ele>584.6666666666666</ele><time>2026-04-23T14:56:46.713Z</time></trkpt><trkpt lat="44.7501017" lon="9.3573517"><ele>582.0</ele><time>2026-04-23T14:56:47.714Z</time></trkpt><trkpt lat="44.750165" lon="9.3573867"><ele>579.3333333333334</ele><time>2026-04-23T14:56:48.713Z</time></trkpt><trkpt lat="44.750245" lon="9.3574083"><ele>576.6666666666667</ele><time>2026-04-23T14:56:49.713Z</time></trkpt><trkpt lat="44.7503417" lon="9.357425"><ele>574.0</ele><time>2026-04-23T14:56:50.713Z</time></trkpt><trkpt lat="44.7504417" lon="9.3574667"><ele>574.0</ele><time>2026-04-23T14:56:51.714Z</time></trkpt><trkpt lat="44.75053" lon="9.3575317"><ele>574.0</ele><time>2026-04-23T14:56:52.714Z</time></trkpt><trkpt lat="44.7506083" lon="9.3576183"><ele>574.0</ele><time>2026-04-23T14:56:53.713Z</time></trkpt><trkpt lat="44.7506933" lon="9.35772"><ele>574.0</ele><time>2026-04-23T14:56:54.713Z</time></trkpt><trkpt lat="44.7508117" lon="9.357825"><ele>574.0</ele><time>2026-04-23T14:56:55.712Z</time></trkpt><trkpt lat="44.7509367" lon="9.3579467"><ele>574.0</ele><time>2026-04-23T14:56:56.713Z</time></trkpt><trkpt lat="44.7510533" lon="9.3580717"><ele>574.0</ele><time>2026-04-23T14:56:57.714Z</time></trkpt><trkpt lat="44.751155" lon="9.3581983"><ele>574.0</ele><time>2026-04-23T14:56:58.713Z</time></trkpt><trkpt lat="44.7512533" lon="9.35833"><ele>573.75</ele><time>2026-04-23T14:56:59.714Z</time></trkpt><trkpt lat="44.75134" lon="9.35847"><ele>573.5</ele><time>2026-04-23T14:57:00.713Z</time></trkpt><trkpt lat="44.75141" lon="9.35861"><ele>573.25</ele><time>2026-04-23T14:57:01.713Z</time></trkpt><trkpt lat="44.75146" lon="9.3587433"><ele>573.0</ele><time>2026-04-23T14:57:02.714Z</time></trkpt><trkpt lat="44.751505" lon="9.3588583"><ele>568.8571428571429</ele><time>2026-04-23T14:57:03.714Z</time></trkpt><trkpt lat="44.7515533" lon="9.3589333"><ele>564.7142857142858</ele><time>2026-04-23T14:57:04.713Z</time></trkpt><trkpt lat="44.7516183" lon="9.3589567"><ele>560.5714285714286</ele><time>2026-04-23T14:57:05.713Z</time></trkpt><trkpt lat="44.7516883" lon="9.3589533"><ele>556.4285714285714</ele><time>2026-04-23T14:57:06.713Z</time></trkpt><trkpt lat="44.751755" lon="9.3589533"><ele>552.2857142857142</ele><time>2026-04-23T14:57:07.713Z</time></trkpt><trkpt lat="44.7518217" lon="9.3589617"><ele>548.1428571428571</ele><time>2026-04-23T14:57:08.716Z</time></trkpt><trkpt lat="44.7518717" lon="9.35902"><ele>544.0</ele><time>2026-04-23T14:57:09.713Z</time></trkpt><trkpt lat="44.75191" lon="9.3591"><ele>544.0</ele><time>2026-04-23T14:57:10.713Z</time></trkpt><trkpt lat="44.751965" lon="9.35917"><ele>544.0</ele><time>2026-04-23T14:57:11.713Z</time></trkpt><trkpt lat="44.7520333" lon="9.359215"><ele>544.0</ele><time>2026-04-23T14:57:12.713Z</time></trkpt><trkpt lat="44.7521133" lon="9.3592417"><ele>544.0</ele><time>2026-04-23T14:57:13.713Z</time></trkpt><trkpt lat="44.7522017" lon="9.3592583"><ele>544.0</ele><time>2026-04-23T14:57:14.713Z</time></trkpt><trkpt lat="44.7523117" lon="9.35925"><ele>544.0</ele><time>2026-04-23T14:57:15.713Z</time></trkpt><trkpt lat="44.7524167" lon="9.3592517"><ele>544.0</ele><time>2026-04-23T14:57:16.713Z</time></trkpt><trkpt lat="44.7525167" lon="9.3592717"><ele>544.0</ele><time>2026-04-23T14:57:17.713Z</time></trkpt><trkpt lat="44.7526183" lon="9.3592983"><ele>544.0</ele><time>2026-04-23T14:57:18.713Z</time></trkpt><trkpt lat="44.7527167" lon="9.35933"><ele>544.0</ele><time>2026-04-23T14:57:19.713Z</time></trkpt><trkpt lat="44.7528133" lon="9.3593483"><ele>544.0</ele><time>2026-04-23T14:57:20.714Z</time></trkpt><trkpt lat="44.752915" lon="9.35935"><ele>545.5</ele><time>2026-04-23T14:57:21.713Z</time></trkpt><trkpt lat="44.7530233" lon="9.3593317"><ele>547.0</ele><time>2026-04-23T14:57:22.713Z</time></trkpt><trkpt lat="44.753145" lon="9.359305"><ele>548.5</ele><time>2026-04-23T14:57:23.713Z</time></trkpt><trkpt lat="44.7532617" lon="9.3592917"><ele>550.0</ele><time>2026-04-23T14:57:24.713Z</time></trkpt><trkpt lat="44.7533683" lon="9.35929"><ele>550.0</ele><time>2026-04-23T14:57:25.714Z</time></trkpt><trkpt lat="44.7534633" lon="9.3593033"><ele>550.0</ele><time>2026-04-23T14:57:26.713Z</time></trkpt><trkpt lat="44.7535433" lon="9.35935"><ele>550.0</ele><time>2026-04-23T14:57:27.713Z</time></trkpt><trkpt lat="44.7536133" lon="9.3594267"><ele>550.0</ele><time>2026-04-23T14:57:28.713Z</time></trkpt><trkpt lat="44.753685" lon="9.359505"><ele>550.0</ele><time>2026-04-23T14:57:29.714Z</time></trkpt><trkpt lat="44.7537633" lon="9.3595717"><ele>548.5</ele><time>2026-04-23T14:57:30.713Z</time></trkpt><trkpt lat="44.7538367" lon="9.3596333"><ele>547.0</ele><time>2026-04-23T14:57:31.713Z</time></trkpt><trkpt lat="44.7538917" lon="9.3597133"><ele>545.5</ele><time>2026-04-23T14:57:32.714Z</time></trkpt><trkpt lat="44.7539317" lon="9.3598183"><ele>544.0</ele><time>2026-04-23T14:57:33.713Z</time></trkpt><trkpt lat="44.7539733" lon="9.359945"><ele>542.5</ele><time>2026-04-23T14:57:34.713Z</time></trkpt><trkpt lat="44.7540083" lon="9.3600767"><ele>541.0</ele><time>2026-04-23T14:57:35.713Z</time></trkpt><trkpt lat="44.7540267" lon="9.36022"><ele>541.0</ele><time>2026-04-23T14:57:36.712Z</time></trkpt><trkpt lat="44.7540317" lon="9.360375"><ele>541.0</ele><time>2026-04-23T14:57:37.713Z</time></trkpt><trkpt lat="44.7540267" lon="9.3605333"><ele>541.0</ele><time>2026-04-23T14:57:38.713Z</time></trkpt><trkpt lat="44.754015" lon="9.3606867"><ele>541.0</ele><time>2026-04-23T14:57:39.713Z</time></trkpt><trkpt lat="44.7539867" lon="9.360845"><ele>541.0</ele><time>2026-04-23T14:57:40.714Z</time></trkpt><trkpt lat="44.75395" lon="9.3609983"><ele>541.8</ele><time>2026-04-23T14:57:41.714Z</time></trkpt><trkpt lat="44.7539167" lon="9.3611483"><ele>542.6</ele><time>2026-04-23T14:57:42.715Z</time></trkpt><trkpt lat="44.7538917" lon="9.3612967"><ele>543.4</ele><time>2026-04-23T14:57:43.714Z</time></trkpt><trkpt lat="44.7538683" lon="9.3614317"><ele>544.2</ele><time>2026-04-23T14:57:44.713Z</time></trkpt><trkpt lat="44.753845" lon="9.3615417"><ele>545.0</ele><time>2026-04-23T14:57:45.713Z</time></trkpt><trkpt lat="44.7538233" lon="9.3616267"><ele>545.0</ele><time>2026-04-23T14:57:46.715Z</time></trkpt><trkpt lat="44.7537817" lon="9.3617183"><ele>545.0</ele><time>2026-04-23T14:57:48.713Z</time></trkpt><trkpt lat="44.7537333" lon="9.3616417"><ele>545.0</ele><time>2026-04-23T14:58:15.713Z</time></trkpt><trkpt lat="44.753725" lon="9.3615317"><ele>545.0</ele><time>2026-04-23T14:58:17.713Z</time></trkpt><trkpt lat="44.7537067" lon="9.3613767"><ele>545.0</ele><time>2026-04-23T14:58:19.714Z</time></trkpt><trkpt lat="44.7536983" lon="9.3612867"><ele>545.0</ele><time>2026-04-23T14:58:20.713Z</time></trkpt><trkpt lat="44.7536917" lon="9.3611967"><ele>544.4285714285714</ele><time>2026-04-23T14:58:21.713Z</time></trkpt><trkpt lat="44.7536983" lon="9.3611067"><ele>543.8571428571429</ele><time>2026-04-23T14:58:22.713Z</time></trkpt><trkpt lat="44.7537083" lon="9.3610083"><ele>543.2857142857143</ele><time>2026-04-23T14:58:23.713Z</time></trkpt><trkpt lat="44.7537233" lon="9.360915"><ele>542.7142857142858</ele><time>2026-04-23T14:58:24.713Z</time></trkpt><trkpt lat="44.7537317" lon="9.3608217"><ele>542.1428571428571</ele><time>2026-04-23T14:58:25.713Z</time></trkpt><trkpt lat="44.7537267" lon="9.3607283"><ele>541.5714285714287</ele><time>2026-04-23T14:58:26.714Z</time></trkpt><trkpt lat="44.7536967" lon="9.360575"><ele>541.0</ele><time>2026-04-23T14:58:28.713Z</time></trkpt><trkpt lat="44.753635" lon="9.36046"><ele>534.2</ele><time>2026-04-23T14:58:30.713Z</time></trkpt><trkpt lat="44.75353" lon="9.3603583"><ele>527.4000000000001</ele><time>2026-04-23T14:58:32.713Z</time></trkpt><trkpt lat="44.7534683" lon="9.360315"><ele>520.6</ele><time>2026-04-23T14:58:33.713Z</time></trkpt><trkpt lat="44.7534078" lon="9.3602752"><ele>513.8000000000001</ele><time>2026-04-23T14:58:34.713Z</time></trkpt><trkpt lat="44.7532953" lon="9.3602297"><ele>507.0</ele><time>2026-04-23T14:58:36.713Z</time></trkpt><trkpt lat="44.753221" lon="9.360287"><ele>507.0</ele><time>2026-04-23T14:58:38.713Z</time></trkpt><trkpt lat="44.7532281" lon="9.3604201"><ele>507.0</ele><time>2026-04-23T14:58:40.713Z</time></trkpt><trkpt lat="44.7532503" lon="9.3605104"><ele>507.0</ele><time>2026-04-23T14:58:41.714Z</time></trkpt><trkpt lat="44.7532809" lon="9.3606117"><ele>507.0</ele><time>2026-04-23T14:58:42.713Z</time></trkpt><trkpt lat="44.7533146" lon="9.3607222"><ele>507.0</ele><time>2026-04-23T14:58:43.713Z</time></trkpt><trkpt lat="44.7533476" lon="9.3608275"><ele>507.0</ele><time>2026-04-23T14:58:44.713Z</time></trkpt><trkpt lat="44.7533692" lon="9.3609195"><ele>504.3333333333333</ele><time>2026-04-23T14:58:45.713Z</time></trkpt><trkpt lat="44.7533555" lon="9.36109"><ele>501.66666666666663</ele><time>2026-04-23T14:58:47.713Z</time></trkpt><trkpt lat="44.7533242" lon="9.361186"><ele>499.0</ele><time>2026-04-23T14:58:48.713Z</time></trkpt><trkpt lat="44.7532925" lon="9.3612835"><ele>496.3333333333333</ele><time>2026-04-23T14:58:49.715Z</time></trkpt><trkpt lat="44.7532683" lon="9.3613886"><ele>493.66666666666663</ele><time>2026-04-23T14:58:50.715Z</time></trkpt><trkpt lat="44.7532487" lon="9.3615116"><ele>491.0</ele><time>2026-04-23T14:58:51.713Z</time></trkpt><trkpt lat="44.7532315" lon="9.3616281"><ele>490.99999999999994</ele><time>2026-04-23T14:58:52.714Z</time></trkpt><trkpt lat="44.7532151" lon="9.3617224"><ele>491.0</ele><time>2026-04-23T14:58:53.714Z</time></trkpt><trkpt lat="44.7531538" lon="9.3617834"><ele>491.0</ele><time>2026-04-23T14:58:55.714Z</time></trkpt><trkpt lat="44.7530618" lon="9.3617496"><ele>491.0</ele><time>2026-04-23T14:58:57.713Z</time></trkpt><trkpt lat="44.7529909" lon="9.3616965"><ele>490.99999999999994</ele><time>2026-04-23T14:58:58.713Z</time></trkpt><trkpt lat="44.752928" lon="9.3616346"><ele>491.0</ele><time>2026-04-23T14:58:59.714Z</time></trkpt><trkpt lat="44.7528716" lon="9.3615602"><ele>491.0</ele><time>2026-04-23T14:59:00.714Z</time></trkpt><trkpt lat="44.7528333" lon="9.3614817"><ele>490.99999999999994</ele><time>2026-04-23T14:59:01.713Z</time></trkpt><trkpt lat="44.7528069" lon="9.3613904"><ele>491.0</ele><time>2026-04-23T14:59:02.714Z</time></trkpt><trkpt lat="44.7527841" lon="9.3612863"><ele>491.0</ele><time>2026-04-23T14:59:03.713Z</time></trkpt><trkpt lat="44.7527589" lon="9.3611839"><ele>490.99999999999994</ele><time>2026-04-23T14:59:04.713Z</time></trkpt><trkpt lat="44.7527275" lon="9.3610878"><ele>491.0</ele><time>2026-04-23T14:59:05.714Z</time></trkpt><trkpt lat="44.7526901" lon="9.3610054"><ele>491.0</ele><time>2026-04-23T14:59:06.713Z</time></trkpt><trkpt lat="44.7526029" lon="9.3609119"><ele>485.8</ele><time>2026-04-23T14:59:08.714Z</time></trkpt><trkpt lat="44.752473" lon="9.3609035"><ele>480.6</ele><time>2026-04-23T14:59:10.713Z</time></trkpt><trkpt lat="44.7523823" lon="9.3609159"><ele>475.4</ele><time>2026-04-23T14:59:11.714Z</time></trkpt><trkpt lat="44.7522977" lon="9.3609281"><ele>470.2</ele><time>2026-04-23T14:59:12.713Z</time></trkpt><trkpt lat="44.7522234" lon="9.360945"><ele>465.0</ele><time>2026-04-23T14:59:13.714Z</time></trkpt><trkpt lat="44.7521562" lon="9.3609744"><ele>465.0</ele><time>2026-04-23T14:59:14.714Z</time></trkpt><trkpt lat="44.7520906" lon="9.3610168"><ele>465.0</ele><time>2026-04-23T14:59:15.713Z</time></trkpt><trkpt lat="44.7520183" lon="9.361065"><ele>465.0</ele><time>2026-04-23T14:59:16.712Z</time></trkpt><trkpt lat="44.7519417" lon="9.3611133"><ele>465.0</ele><time>2026-04-23T14:59:17.714Z</time></trkpt><trkpt lat="44.7518683" lon="9.36116"><ele>465.0</ele><time>2026-04-23T14:59:18.713Z</time></trkpt><trkpt lat="44.7517983" lon="9.3611933"><ele>465.0</ele><time>2026-04-23T14:59:19.714Z</time></trkpt><trkpt lat="44.7517333" lon="9.3612083"><ele>461.6</ele><time>2026-04-23T14:59:20.714Z</time></trkpt><trkpt lat="44.7516167" lon="9.3612417"><ele>458.2</ele><time>2026-04-23T14:59:22.713Z</time></trkpt><trkpt lat="44.7514983" lon="9.3612767"><ele>454.79999999999995</ele><time>2026-04-23T14:59:24.714Z</time></trkpt><trkpt lat="44.7513967" lon="9.36124"><ele>451.4</ele><time>2026-04-23T14:59:26.714Z</time></trkpt><trkpt lat="44.7513283" lon="9.3611583"><ele>448.0</ele><time>2026-04-23T14:59:28.714Z</time></trkpt><trkpt lat="44.7512817" lon="9.3610717"><ele>448.00000000000006</ele><time>2026-04-23T14:59:30.714Z</time></trkpt><trkpt lat="44.7512183" lon="9.361125"><ele>448.0</ele><time>2026-04-23T14:59:33.713Z</time></trkpt><trkpt lat="44.7512017" lon="9.3612883"><ele>448.0</ele><time>2026-04-23T14:59:35.714Z</time></trkpt><trkpt lat="44.75119" lon="9.3613817"><ele>448.0</ele><time>2026-04-23T14:59:36.713Z</time></trkpt><trkpt lat="44.75116" lon="9.36148"><ele>448.00000000000006</ele><time>2026-04-23T14:59:37.714Z</time></trkpt><trkpt lat="44.7511167" lon="9.3615683"><ele>448.0</ele><time>2026-04-23T14:59:38.714Z</time></trkpt><trkpt lat="44.75107" lon="9.361645"><ele>442.1666666666667</ele><time>2026-04-23T14:59:39.713Z</time></trkpt><trkpt lat="44.7510167" lon="9.3617167"><ele>436.33333333333337</ele><time>2026-04-23T14:59:40.715Z</time></trkpt><trkpt lat="44.750955" lon="9.3617917"><ele>430.5</ele><time>2026-04-23T14:59:41.715Z</time></trkpt><trkpt lat="44.7508883" lon="9.36185"><ele>424.66666666666663</ele><time>2026-04-23T14:59:42.716Z</time></trkpt><trkpt lat="44.750825" lon="9.3618833"><ele>418.8333333333333</ele><time>2026-04-23T14:59:43.714Z</time></trkpt><trkpt lat="44.7507383" lon="9.3619233"><ele>413.0</ele><time>2026-04-23T14:59:45.714Z</time></trkpt><trkpt lat="44.7506983" lon="9.362055"><ele>412.99999999999994</ele><time>2026-04-23T14:59:48.713Z</time></trkpt><trkpt lat="44.7507017" lon="9.3621467"><ele>413.0</ele><time>2026-04-23T14:59:49.717Z</time></trkpt><trkpt lat="44.7507133" lon="9.3622433"><ele>413.0</ele><time>2026-04-23T14:59:50.715Z</time></trkpt><trkpt lat="44.7507233" lon="9.3624283"><ele>413.0</ele><time>2026-04-23T14:59:52.713Z</time></trkpt><trkpt lat="44.7507267" lon="9.36252"><ele>412.99999999999994</ele><time>2026-04-23T14:59:53.714Z</time></trkpt><trkpt lat="44.75071" lon="9.362675"><ele>413.0</ele><time>2026-04-23T14:59:55.714Z</time></trkpt><trkpt lat="44.75068" lon="9.3627533"><ele>412.2</ele><time>2026-04-23T14:59:56.714Z</time></trkpt><trkpt lat="44.7506417" lon="9.36289"><ele>411.4</ele><time>2026-04-23T14:59:58.714Z</time></trkpt><trkpt lat="44.7506717" lon="9.3630083"><ele>410.59999999999997</ele><time>2026-04-23T15:00:00.713Z</time></trkpt><trkpt lat="44.7507067" lon="9.36316"><ele>409.79999999999995</ele><time>2026-04-23T15:00:02.715Z</time></trkpt><trkpt lat="44.7507617" lon="9.363295"><ele>409.0</ele><time>2026-04-23T15:00:04.713Z</time></trkpt><trkpt lat="44.7508583" lon="9.3633867"><ele>406.0</ele><time>2026-04-23T15:00:06.713Z</time></trkpt><trkpt lat="44.7509717" lon="9.3634083"><ele>403.0</ele><time>2026-04-23T15:00:08.716Z</time></trkpt><trkpt lat="44.751055" lon="9.3634867"><ele>400.0</ele><time>2026-04-23T15:00:10.714Z</time></trkpt><trkpt lat="44.7511433" lon="9.3635483"><ele>397.0</ele><time>2026-04-23T15:00:12.713Z</time></trkpt><trkpt lat="44.7512117" lon="9.3636517"><ele>394.0</ele><time>2026-04-23T15:00:14.715Z</time></trkpt><trkpt lat="44.7512283" lon="9.3637517"><ele>397.50000000000006</ele><time>2026-04-23T15:00:15.713Z</time></trkpt><trkpt lat="44.7512417" lon="9.3638667"><ele>401.0</ele><time>2026-04-23T15:00:16.714Z</time></trkpt><trkpt lat="44.7512667" lon="9.36398"><ele>404.5</ele><time>2026-04-23T15:00:17.714Z</time></trkpt><trkpt lat="44.7512817" lon="9.3640983"><ele>408.0</ele><time>2026-04-23T15:00:18.715Z</time></trkpt><trkpt lat="44.7512883" lon="9.3642033"><ele>411.50000000000006</ele><time>2026-04-23T15:00:19.714Z</time></trkpt><trkpt lat="44.7512717" lon="9.36432"><ele>415.0</ele><time>2026-04-23T15:00:20.715Z</time></trkpt><trkpt lat="44.7512367" lon="9.3644433"><ele>415.00000000000006</ele><time>2026-04-23T15:00:21.714Z</time></trkpt><trkpt lat="44.7512" lon="9.3645583"><ele>415.0</ele><time>2026-04-23T15:00:22.715Z</time></trkpt><trkpt lat="44.75115" lon="9.3646617"><ele>415.0</ele><time>2026-04-23T15:00:23.715Z</time></trkpt><trkpt lat="44.7510933" lon="9.3647617"><ele>415.0</ele><time>2026-04-23T15:00:24.714Z</time></trkpt><trkpt lat="44.751055" lon="9.3648583"><ele>415.00000000000006</ele><time>2026-04-23T15:00:25.714Z</time></trkpt><trkpt lat="44.751015" lon="9.36496"><ele>415.0</ele><time>2026-04-23T15:00:26.715Z</time></trkpt><trkpt lat="44.7509733" lon="9.365055"><ele>410.00000000000006</ele><time>2026-04-23T15:00:27.714Z</time></trkpt><trkpt lat="44.7509233" lon="9.36514"><ele>405.0</ele><time>2026-04-23T15:00:28.714Z</time></trkpt><trkpt lat="44.7508667" lon="9.3652283"><ele>400.0</ele><time>2026-04-23T15:00:29.715Z</time></trkpt><trkpt lat="44.7508117" lon="9.3653267"><ele>395.0</ele><time>2026-04-23T15:00:30.713Z</time></trkpt><trkpt lat="44.7507533" lon="9.3654233"><ele>390.00000000000006</ele><time>2026-04-23T15:00:31.714Z</time></trkpt><trkpt lat="44.7507033" lon="9.3655133"><ele>385.0</ele><time>2026-04-23T15:00:32.714Z</time></trkpt><trkpt lat="44.7506633" lon="9.3655933"><ele>383.0</ele><time>2026-04-23T15:00:33.713Z</time></trkpt><trkpt lat="44.7506217" lon="9.365715"><ele>381.0</ele><time>2026-04-23T15:00:35.715Z</time></trkpt><trkpt lat="44.75062" lon="9.3658083"><ele>379.0</ele><time>2026-04-23T15:00:37.714Z</time></trkpt><trkpt lat="44.7506883" lon="9.365855"><ele>377.0</ele><time>2026-04-23T15:00:41.714Z</time></trkpt><trkpt lat="44.7507783" lon="9.36583"><ele>375.0</ele><time>2026-04-23T15:02:15.711Z</time></trkpt><trkpt lat="44.750905" lon="9.3658417"><ele>375.0</ele><time>2026-04-23T15:02:17.713Z</time></trkpt><trkpt lat="44.7509817" lon="9.3658733"><ele>375.0</ele><time>2026-04-23T15:02:18.712Z</time></trkpt><trkpt lat="44.75106" lon="9.365925"><ele>375.0</ele><time>2026-04-23T15:02:19.713Z</time></trkpt><trkpt lat="44.7511267" lon="9.3659983"><ele>375.0</ele><time>2026-04-23T15:02:20.713Z</time></trkpt><trkpt lat="44.7511967" lon="9.366115"><ele>375.0</ele><time>2026-04-23T15:02:21.713Z</time></trkpt><trkpt lat="44.7512633" lon="9.3662583"><ele>375.8</ele><time>2026-04-23T15:02:22.713Z</time></trkpt><trkpt lat="44.75131" lon="9.3663933"><ele>376.6</ele><time>2026-04-23T15:02:23.714Z</time></trkpt><trkpt lat="44.751335" lon="9.3665217"><ele>377.4</ele><time>2026-04-23T15:02:24.713Z</time></trkpt><trkpt lat="44.7513383" lon="9.366645"><ele>378.2</ele><time>2026-04-23T15:02:25.715Z</time></trkpt><trkpt lat="44.7513417" lon="9.3667717"><ele>379.0</ele><time>2026-04-23T15:02:26.713Z</time></trkpt><trkpt lat="44.75136" lon="9.36689"><ele>379.0</ele><time>2026-04-23T15:02:27.713Z</time></trkpt><trkpt lat="44.75139" lon="9.3669933"><ele>379.0</ele><time>2026-04-23T15:02:28.713Z</time></trkpt><trkpt lat="44.7514333" lon="9.36708"><ele>379.0</ele><time>2026-04-23T15:02:29.713Z</time></trkpt><trkpt lat="44.7514917" lon="9.367145"><ele>379.0</ele><time>2026-04-23T15:02:30.712Z</time></trkpt><trkpt lat="44.7515617" lon="9.3671917"><ele>379.0</ele><time>2026-04-23T15:02:31.713Z</time></trkpt><trkpt lat="44.751625" lon="9.3672233"><ele>379.0</ele><time>2026-04-23T15:02:32.713Z</time></trkpt><trkpt lat="44.751715" lon="9.3672667"><ele>378.0</ele><time>2026-04-23T15:02:34.713Z</time></trkpt><trkpt lat="44.751785" lon="9.367355"><ele>377.0</ele><time>2026-04-23T15:02:46.714Z</time></trkpt><trkpt lat="44.7518167" lon="9.3674383"><ele>376.0</ele><time>2026-04-23T15:02:47.712Z</time></trkpt><trkpt lat="44.7518467" lon="9.3675317"><ele>375.0</ele><time>2026-04-23T15:02:48.712Z</time></trkpt><trkpt lat="44.7518733" lon="9.3676317"><ele>374.0</ele><time>2026-04-23T15:02:49.714Z</time></trkpt><trkpt lat="44.7518983" lon="9.3677383"><ele>373.0</ele><time>2026-04-23T15:02:50.714Z</time></trkpt><trkpt lat="44.7519167" lon="9.36785"><ele>371.66666666666663</ele><time>2026-04-23T15:02:51.713Z</time></trkpt><trkpt lat="44.7519233" lon="9.3679617"><ele>370.3333333333333</ele><time>2026-04-23T15:02:52.714Z</time></trkpt><trkpt lat="44.75191" lon="9.36807"><ele>369.0</ele><time>2026-04-23T15:02:53.713Z</time></trkpt><trkpt lat="44.75188" lon="9.3681683"><ele>367.6666666666667</ele><time>2026-04-23T15:02:54.713Z</time></trkpt><trkpt lat="44.7518417" lon="9.3682667"><ele>366.33333333333337</ele><time>2026-04-23T15:02:55.713Z</time></trkpt><trkpt lat="44.751805" lon="9.36837"><ele>365.0</ele><time>2026-04-23T15:02:56.713Z</time></trkpt><trkpt lat="44.7517683" lon="9.36848"><ele>365.0</ele><time>2026-04-23T15:02:57.714Z</time></trkpt><trkpt lat="44.7517367" lon="9.3685983"><ele>365.0</ele><time>2026-04-23T15:02:58.713Z</time></trkpt><trkpt lat="44.7517117" lon="9.3687233"><ele>365.0</ele><time>2026-04-23T15:02:59.714Z</time></trkpt><trkpt lat="44.7516917" lon="9.3688583"><ele>365.0</ele><time>2026-04-23T15:03:00.713Z</time></trkpt><trkpt lat="44.7516817" lon="9.3690083"><ele>365.0</ele><time>2026-04-23T15:03:01.714Z</time></trkpt><trkpt lat="44.7516767" lon="9.36916"><ele>363.6</ele><time>2026-04-23T15:03:02.713Z</time></trkpt><trkpt lat="44.751675" lon="9.369315"><ele>362.2</ele><time>2026-04-23T15:03:03.712Z</time></trkpt><trkpt lat="44.7516767" lon="9.3694667"><ele>360.79999999999995</ele><time>2026-04-23T15:03:04.713Z</time></trkpt><trkpt lat="44.751685" lon="9.3696167"><ele>359.4</ele><time>2026-04-23T15:03:05.714Z</time></trkpt><trkpt lat="44.751695" lon="9.3697683"><ele>358.0</ele><time>2026-04-23T15:03:06.712Z</time></trkpt><trkpt lat="44.7517033" lon="9.36992"><ele>355.4</ele><time>2026-04-23T15:03:07.713Z</time></trkpt><trkpt lat="44.7517117" lon="9.3700717"><ele>352.79999999999995</ele><time>2026-04-23T15:03:08.713Z</time></trkpt><trkpt lat="44.7517217" lon="9.3702267"><ele>350.2</ele><time>2026-04-23T15:03:09.712Z</time></trkpt><trkpt lat="44.7517367" lon="9.3703833"><ele>347.6</ele><time>2026-04-23T15:03:10.713Z</time></trkpt><trkpt lat="44.7517533" lon="9.370535"><ele>345.0</ele><time>2026-04-23T15:03:11.713Z</time></trkpt><trkpt lat="44.751775" lon="9.3706867"><ele>347.2</ele><time>2026-04-23T15:03:12.713Z</time></trkpt><trkpt lat="44.751805" lon="9.37083"><ele>349.4</ele><time>2026-04-23T15:03:13.713Z</time></trkpt><trkpt lat="44.75184" lon="9.3709633"><ele>351.6</ele><time>2026-04-23T15:03:14.714Z</time></trkpt><trkpt lat="44.75187" lon="9.3710933"><ele>353.8</ele><time>2026-04-23T15:03:15.714Z</time></trkpt><trkpt lat="44.751885" lon="9.3712233"><ele>356.0</ele><time>2026-04-23T15:03:16.712Z</time></trkpt><trkpt lat="44.7518867" lon="9.37136"><ele>351.83333333333337</ele><time>2026-04-23T15:03:17.713Z</time></trkpt><trkpt lat="44.7518883" lon="9.3714917"><ele>347.6666666666667</ele><time>2026-04-23T15:03:18.713Z</time></trkpt><trkpt lat="44.7518983" lon="9.371615"><ele>343.5</ele><time>2026-04-23T15:03:19.713Z</time></trkpt><trkpt lat="44.7519283" lon="9.3717267"><ele>339.3333333333333</ele><time>2026-04-23T15:03:20.715Z</time></trkpt><trkpt lat="44.7519817" lon="9.3718217"><ele>335.16666666666663</ele><time>2026-04-23T15:03:21.713Z</time></trkpt><trkpt lat="44.7520483" lon="9.3719083"><ele>331.0</ele><time>2026-04-23T15:03:22.714Z</time></trkpt><trkpt lat="44.7521167" lon="9.3720033"><ele>331.0</ele><time>2026-04-23T15:03:23.713Z</time></trkpt><trkpt lat="44.7521733" lon="9.3721183"><ele>331.0</ele><time>2026-04-23T15:03:24.713Z</time></trkpt><trkpt lat="44.7522233" lon="9.37224"><ele>331.0</ele><time>2026-04-23T15:03:25.714Z</time></trkpt><trkpt lat="44.7522683" lon="9.37237"><ele>331.0</ele><time>2026-04-23T15:03:26.713Z</time></trkpt><trkpt lat="44.7523083" lon="9.3724967"><ele>331.0</ele><time>2026-04-23T15:03:27.713Z</time></trkpt><trkpt lat="44.75234" lon="9.3726217"><ele>328.0</ele><time>2026-04-23T15:03:28.713Z</time></trkpt><trkpt lat="44.7523683" lon="9.3727383"><ele>325.0</ele><time>2026-04-23T15:03:29.713Z</time></trkpt><trkpt lat="44.7523967" lon="9.372845"><ele>322.0</ele><time>2026-04-23T15:03:30.713Z</time></trkpt><trkpt lat="44.7524267" lon="9.3729417"><ele>319.0</ele><time>2026-04-23T15:03:31.714Z</time></trkpt><trkpt lat="44.75246" lon="9.3730333"><ele>316.0</ele><time>2026-04-23T15:03:32.714Z</time></trkpt><trkpt lat="44.7524967" lon="9.3731183"><ele>313.0</ele><time>2026-04-23T15:03:33.713Z</time></trkpt><trkpt lat="44.7525333" lon="9.3732033"><ele>312.2857142857143</ele><time>2026-04-23T15:03:34.713Z</time></trkpt><trkpt lat="44.75257" lon="9.373285"><ele>311.57142857142856</ele><time>2026-04-23T15:03:35.713Z</time></trkpt><trkpt lat="44.7525983" lon="9.37337"><ele>310.8571428571429</ele><time>2026-04-23T15:03:36.713Z</time></trkpt><trkpt lat="44.7526183" lon="9.3734583"><ele>310.1428571428571</ele><time>2026-04-23T15:03:37.714Z</time></trkpt><trkpt lat="44.752645" lon="9.3735483"><ele>309.42857142857144</ele><time>2026-04-23T15:03:38.714Z</time></trkpt><trkpt lat="44.7526817" lon="9.37363"><ele>308.7142857142857</ele><time>2026-04-23T15:03:39.716Z</time></trkpt><trkpt lat="44.752725" lon="9.3737117"><ele>308.0</ele><time>2026-04-23T15:03:40.713Z</time></trkpt><trkpt lat="44.7527717" lon="9.3738"><ele>306.6</ele><time>2026-04-23T15:03:41.714Z</time></trkpt><trkpt lat="44.7528283" lon="9.3738983"><ele>305.20000000000005</ele><time>2026-04-23T15:03:42.712Z</time></trkpt><trkpt lat="44.75289" lon="9.3740033"><ele>303.8</ele><time>2026-04-23T15:03:43.715Z</time></trkpt><trkpt lat="44.7529517" lon="9.3741117"><ele>302.40000000000003</ele><time>2026-04-23T15:03:44.713Z</time></trkpt><trkpt lat="44.7530183" lon="9.3742167"><ele>301.0</ele><time>2026-04-23T15:03:45.712Z</time></trkpt><trkpt lat="44.7530867" lon="9.37432"><ele>301.0</ele><time>2026-04-23T15:03:46.713Z</time></trkpt><trkpt lat="44.75316" lon="9.37442"><ele>301.0</ele><time>2026-04-23T15:03:47.715Z</time></trkpt><trkpt lat="44.7532333" lon="9.3745267"><ele>301.0</ele><time>2026-04-23T15:03:48.712Z</time></trkpt><trkpt lat="44.75331" lon="9.3746267"><ele>301.0</ele><time>2026-04-23T15:03:49.713Z</time></trkpt><trkpt lat="44.7533933" lon="9.3747233"><ele>301.0</ele><time>2026-04-23T15:03:50.714Z</time></trkpt><trkpt lat="44.75348" lon="9.3748117"><ele>300.6</ele><time>2026-04-23T15:03:51.712Z</time></trkpt><trkpt lat="44.7535667" lon="9.374895"><ele>300.20000000000005</ele><time>2026-04-23T15:03:52.714Z</time></trkpt><trkpt lat="44.7536533" lon="9.3749717"><ele>299.79999999999995</ele><time>2026-04-23T15:03:53.713Z</time></trkpt><trkpt lat="44.7537417" lon="9.37505"><ele>299.4</ele><time>2026-04-23T15:03:54.713Z</time></trkpt><trkpt lat="44.7538283" lon="9.375135"><ele>299.0</ele><time>2026-04-23T15:03:55.714Z</time></trkpt><trkpt lat="44.7539167" lon="9.3752167"><ele>299.0</ele><time>2026-04-23T15:03:56.714Z</time></trkpt><trkpt lat="44.754" lon="9.3753"><ele>299.0</ele><time>2026-04-23T15:03:57.713Z</time></trkpt><trkpt lat="44.7540783" lon="9.3753833"><ele>299.0</ele><time>2026-04-23T15:03:58.713Z</time></trkpt><trkpt lat="44.7541517" lon="9.3754667"><ele>299.0</ele><time>2026-04-23T15:03:59.713Z</time></trkpt><trkpt lat="44.7542183" lon="9.375545"><ele>299.0</ele><time>2026-04-23T15:04:00.713Z</time></trkpt><trkpt lat="44.754285" lon="9.37562"><ele>298.8</ele><time>2026-04-23T15:04:01.713Z</time></trkpt><trkpt lat="44.7543533" lon="9.3756983"><ele>298.59999999999997</ele><time>2026-04-23T15:04:02.714Z</time></trkpt><trkpt lat="44.75443" lon="9.3757767"><ele>298.4</ele><time>2026-04-23T15:04:03.713Z</time></trkpt><trkpt lat="44.7545067" lon="9.375855"><ele>298.2</ele><time>2026-04-23T15:04:04.713Z</time></trkpt><trkpt lat="44.7545833" lon="9.3759267"><ele>298.0</ele><time>2026-04-23T15:04:05.713Z</time></trkpt><trkpt lat="44.7546633" lon="9.3759933"><ele>298.0</ele><time>2026-04-23T15:04:06.712Z</time></trkpt><trkpt lat="44.7547417" lon="9.3760583"><ele>298.0</ele><time>2026-04-23T15:04:07.714Z</time></trkpt><trkpt lat="44.7548233" lon="9.3761217"><ele>298.0</ele><time>2026-04-23T15:04:08.713Z</time></trkpt><trkpt lat="44.7549083" lon="9.376195"><ele>298.0</ele><time>2026-04-23T15:04:09.714Z</time></trkpt><trkpt lat="44.7549983" lon="9.376285"><ele>298.0</ele><time>2026-04-23T15:04:10.714Z</time></trkpt><trkpt lat="44.7550867" lon="9.376385"><ele>297.8333333333333</ele><time>2026-04-23T15:04:11.713Z</time></trkpt><trkpt lat="44.75517" lon="9.3764767"><ele>297.66666666666663</ele><time>2026-04-23T15:04:12.713Z</time></trkpt><trkpt lat="44.7552417" lon="9.3765633"><ele>297.5</ele><time>2026-04-23T15:04:13.713Z</time></trkpt><trkpt lat="44.7552983" lon="9.3766467"><ele>297.3333333333333</ele><time>2026-04-23T15:04:14.713Z</time></trkpt><trkpt lat="44.7553267" lon="9.3767417"><ele>297.1666666666667</ele><time>2026-04-23T15:04:15.712Z</time></trkpt><trkpt lat="44.75533" lon="9.3768517"><ele>297.0</ele><time>2026-04-23T15:04:16.713Z</time></trkpt><trkpt lat="44.7553217" lon="9.3769783"><ele>297.0</ele><time>2026-04-23T15:04:17.713Z</time></trkpt><trkpt lat="44.75531" lon="9.377145"><ele>297.0</ele><time>2026-04-23T15:04:18.713Z</time></trkpt><trkpt lat="44.7553133" lon="9.3773267"><ele>297.0</ele><time>2026-04-23T15:04:19.713Z</time></trkpt><trkpt lat="44.7553333" lon="9.3775217"><ele>297.0</ele><time>2026-04-23T15:04:20.714Z</time></trkpt><trkpt lat="44.755375" lon="9.377735"><ele>294.6666666666667</ele><time>2026-04-23T15:04:21.712Z</time></trkpt><trkpt lat="44.755435" lon="9.3779483"><ele>292.33333333333337</ele><time>2026-04-23T15:04:22.712Z</time></trkpt><trkpt lat="44.7554933" lon="9.3781567"><ele>290.0</ele><time>2026-04-23T15:04:23.714Z</time></trkpt><trkpt lat="44.7555333" lon="9.37836"><ele>289.0</ele><time>2026-04-23T15:04:24.713Z</time></trkpt><trkpt lat="44.7555517" lon="9.3785517"><ele>288.0</ele><time>2026-04-23T15:04:25.714Z</time></trkpt><trkpt lat="44.7555617" lon="9.3787283"><ele>287.0</ele><time>2026-04-23T15:04:26.715Z</time></trkpt><trkpt lat="44.75557" lon="9.37889"><ele>286.0</ele><time>2026-04-23T15:04:27.713Z</time></trkpt><trkpt lat="44.7555983" lon="9.3790317"><ele>285.5</ele><time>2026-04-23T15:04:28.714Z</time></trkpt><trkpt lat="44.75565" lon="9.3791567"><ele>285.0</ele><time>2026-04-23T15:04:29.714Z</time></trkpt><trkpt lat="44.75573" lon="9.3792883"><ele>284.5</ele><time>2026-04-23T15:04:30.712Z</time></trkpt><trkpt lat="44.7558217" lon="9.37943"><ele>284.0</ele><time>2026-04-23T15:04:31.713Z</time></trkpt><trkpt lat="44.75592" lon="9.3795733"><ele>284.0</ele><time>2026-04-23T15:04:32.714Z</time></trkpt><trkpt lat="44.7560117" lon="9.379705"><ele>284.0</ele><time>2026-04-23T15:04:33.713Z</time></trkpt><trkpt lat="44.7561133" lon="9.3798167"><ele>284.0</ele><time>2026-04-23T15:04:34.713Z</time></trkpt><trkpt lat="44.75623" lon="9.379915"><ele>284.0</ele><time>2026-04-23T15:04:35.713Z</time></trkpt><trkpt lat="44.7563617" lon="9.3800033"><ele>284.0</ele><time>2026-04-23T15:04:36.713Z</time></trkpt><trkpt lat="44.7564917" lon="9.3800817"><ele>284.0</ele><time>2026-04-23T15:04:37.713Z</time></trkpt><trkpt lat="44.7566217" lon="9.3801517"><ele>284.0</ele><time>2026-04-23T15:04:38.716Z</time></trkpt><trkpt lat="44.7567467" lon="9.3802233"><ele>284.0</ele><time>2026-04-23T15:04:39.712Z</time></trkpt><trkpt lat="44.7568667" lon="9.3803033"><ele>284.25</ele><time>2026-04-23T15:04:40.713Z</time></trkpt><trkpt lat="44.756985" lon="9.38039"><ele>284.5</ele><time>2026-04-23T15:04:41.712Z</time></trkpt><trkpt lat="44.757105" lon="9.38048"><ele>284.75</ele><time>2026-04-23T15:04:42.712Z</time></trkpt><trkpt lat="44.75722" lon="9.3805633"><ele>285.0</ele><time>2026-04-23T15:04:43.714Z</time></trkpt><trkpt lat="44.7573317" lon="9.3806433"><ele>283.5</ele><time>2026-04-23T15:04:44.713Z</time></trkpt><trkpt lat="44.7574383" lon="9.3807133"><ele>282.0</ele><time>2026-04-23T15:04:45.712Z</time></trkpt><trkpt lat="44.75755" lon="9.3807733"><ele>280.5</ele><time>2026-04-23T15:04:46.713Z</time></trkpt><trkpt lat="44.7576667" lon="9.3808217"><ele>279.0</ele><time>2026-04-23T15:04:47.713Z</time></trkpt><trkpt lat="44.7577933" lon="9.3808617"><ele>278.75</ele><time>2026-04-23T15:04:48.712Z</time></trkpt><trkpt lat="44.75793" lon="9.3809067"><ele>278.5</ele><time>2026-04-23T15:04:49.714Z</time></trkpt><trkpt lat="44.758065" lon="9.380955"><ele>278.25</ele><time>2026-04-23T15:04:50.714Z</time></trkpt><trkpt lat="44.7581933" lon="9.38101"><ele>278.0</ele><time>2026-04-23T15:04:51.712Z</time></trkpt><trkpt lat="44.7583217" lon="9.38107"><ele>278.0</ele><time>2026-04-23T15:04:52.714Z</time></trkpt><trkpt lat="44.7584633" lon="9.381125"><ele>278.0</ele><time>2026-04-23T15:04:53.714Z</time></trkpt><trkpt lat="44.758615" lon="9.3811733"><ele>278.0</ele><time>2026-04-23T15:04:54.713Z</time></trkpt><trkpt lat="44.758765" lon="9.3812183"><ele>278.25</ele><time>2026-04-23T15:04:55.713Z</time></trkpt><trkpt lat="44.7589117" lon="9.3812583"><ele>278.5</ele><time>2026-04-23T15:04:56.713Z</time></trkpt><trkpt lat="44.75905" lon="9.3812983"><ele>278.75</ele><time>2026-04-23T15:04:57.713Z</time></trkpt><trkpt lat="44.7591817" lon="9.3813367"><ele>279.0</ele><time>2026-04-23T15:04:58.713Z</time></trkpt><trkpt lat="44.759305" lon="9.3813667"><ele>276.4</ele><time>2026-04-23T15:04:59.714Z</time></trkpt><trkpt lat="44.7594267" lon="9.381395"><ele>273.79999999999995</ele><time>2026-04-23T15:05:00.712Z</time></trkpt><trkpt lat="44.7595317" lon="9.3814217"><ele>271.20000000000005</ele><time>2026-04-23T15:05:01.713Z</time></trkpt><trkpt lat="44.75962" lon="9.3814483"><ele>268.6</ele><time>2026-04-23T15:05:02.714Z</time></trkpt><trkpt lat="44.7596833" lon="9.3814783"><ele>266.0</ele><time>2026-04-23T15:05:03.713Z</time></trkpt><trkpt lat="44.75969" lon="9.381605"><ele>266.0</ele><time>2026-04-23T15:05:11.712Z</time></trkpt><trkpt lat="44.7595667" lon="9.3816417"><ele>266.0</ele><time>2026-04-23T15:05:13.713Z</time></trkpt><trkpt lat="44.7594683" lon="9.3816517"><ele>266.0</ele><time>2026-04-23T15:05:14.713Z</time></trkpt><trkpt lat="44.7593583" lon="9.3816667"><ele>266.0</ele><time>2026-04-23T15:05:15.713Z</time></trkpt><trkpt lat="44.7592517" lon="9.3816883"><ele>266.0</ele><time>2026-04-23T15:05:16.713Z</time></trkpt><trkpt lat="44.7591433" lon="9.3817083"><ele>266.0</ele><time>2026-04-23T15:05:17.713Z</time></trkpt><trkpt lat="44.7590417" lon="9.3817283"><ele>266.0</ele><time>2026-04-23T15:05:18.712Z</time></trkpt><trkpt lat="44.7589483" lon="9.38175"><ele>266.0</ele><time>2026-04-23T15:05:19.714Z</time></trkpt><trkpt lat="44.7588633" lon="9.38178"><ele>266.0</ele><time>2026-04-23T15:05:20.713Z</time></trkpt><trkpt lat="44.758795" lon="9.3818233"><ele>266.0</ele><time>2026-04-23T15:05:21.712Z</time></trkpt><trkpt lat="44.758745" lon="9.3818783"><ele>266.0</ele><time>2026-04-23T15:05:22.713Z</time></trkpt><trkpt lat="44.7587367" lon="9.382055"><ele>266.0</ele><time>2026-04-23T15:05:24.713Z</time></trkpt><trkpt lat="44.7587583" lon="9.3821767"><ele>266.0</ele><time>2026-04-23T15:05:25.714Z</time></trkpt><trkpt lat="44.7587783" lon="9.3823133"><ele>266.0</ele><time>2026-04-23T15:05:26.714Z</time></trkpt><trkpt lat="44.7587917" lon="9.38245"><ele>266.0</ele><time>2026-04-23T15:05:27.712Z</time></trkpt><trkpt lat="44.7588067" lon="9.3825783"><ele>266.0</ele><time>2026-04-23T15:05:28.713Z</time></trkpt><trkpt lat="44.7588217" lon="9.382695"><ele>265.33333333333337</ele><time>2026-04-23T15:05:29.713Z</time></trkpt><trkpt lat="44.7588433" lon="9.3828067"><ele>264.6666666666667</ele><time>2026-04-23T15:05:30.712Z</time></trkpt><trkpt lat="44.7588567" lon="9.3829167"><ele>264.0</ele><time>2026-04-23T15:05:31.713Z</time></trkpt><trkpt lat="44.758865" lon="9.3830317"><ele>263.3333333333333</ele><time>2026-04-23T15:05:32.713Z</time></trkpt><trkpt lat="44.75887" lon="9.383155"><ele>262.66666666666663</ele><time>2026-04-23T15:05:33.712Z</time></trkpt><trkpt lat="44.7588733" lon="9.3832717"><ele>262.0</ele><time>2026-04-23T15:05:34.713Z</time></trkpt><trkpt lat="44.7588683" lon="9.3833783"><ele>261.8</ele><time>2026-04-23T15:05:35.713Z</time></trkpt><trkpt lat="44.7588483" lon="9.38347"><ele>261.6</ele><time>2026-04-23T15:05:36.712Z</time></trkpt><trkpt lat="44.7587517" lon="9.38356"><ele>261.40000000000003</ele><time>2026-04-23T15:05:38.713Z</time></trkpt><trkpt lat="44.7586683" lon="9.38355"><ele>261.2</ele><time>2026-04-23T15:05:39.713Z</time></trkpt><trkpt lat="44.75856" lon="9.3835117"><ele>261.0</ele><time>2026-04-23T15:05:40.713Z</time></trkpt><trkpt lat="44.7584317" lon="9.383455"><ele>261.0</ele><time>2026-04-23T15:05:41.714Z</time></trkpt><trkpt lat="44.7583033" lon="9.3834067"><ele>261.0</ele><time>2026-04-23T15:05:42.713Z</time></trkpt><trkpt lat="44.7581783" lon="9.3833633"><ele>261.0</ele><time>2026-04-23T15:05:43.714Z</time></trkpt><trkpt lat="44.7580417" lon="9.3833167"><ele>261.0</ele><time>2026-04-23T15:05:44.714Z</time></trkpt><trkpt lat="44.7579017" lon="9.383265"><ele>261.0</ele><time>2026-04-23T15:05:45.712Z</time></trkpt><trkpt lat="44.75776" lon="9.3832083"><ele>261.0</ele><time>2026-04-23T15:05:46.714Z</time></trkpt><trkpt lat="44.7576133" lon="9.3831483"><ele>261.0</ele><time>2026-04-23T15:05:47.714Z</time></trkpt><trkpt lat="44.7574617" lon="9.3830867"><ele>260.6666666666667</ele><time>2026-04-23T15:05:48.713Z</time></trkpt><trkpt lat="44.7573067" lon="9.3830317"><ele>260.33333333333337</ele><time>2026-04-23T15:05:49.713Z</time></trkpt><trkpt lat="44.7571517" lon="9.3829817"><ele>260.0</ele><time>2026-04-23T15:05:50.713Z</time></trkpt><trkpt lat="44.7570067" lon="9.3829417"><ele>260.8</ele><time>2026-04-23T15:05:51.713Z</time></trkpt><trkpt lat="44.7568767" lon="9.3829067"><ele>261.6</ele><time>2026-04-23T15:05:52.714Z</time></trkpt><trkpt lat="44.7567633" lon="9.3828717"><ele>262.4</ele><time>2026-04-23T15:05:53.713Z</time></trkpt><trkpt lat="44.756665" lon="9.382825"><ele>263.2</ele><time>2026-04-23T15:05:54.713Z</time></trkpt><trkpt lat="44.7565867" lon="9.3827733"><ele>264.0</ele><time>2026-04-23T15:05:55.713Z</time></trkpt><trkpt lat="44.7565233" lon="9.3827267"><ele>265.0</ele><time>2026-04-23T15:05:56.713Z</time></trkpt><trkpt lat="44.7564283" lon="9.3826617"><ele>265.0</ele><time>2026-04-23T15:05:58.713Z</time></trkpt><trkpt lat="44.7563933" lon="9.3825833"><ele>265.0</ele><time>2026-04-23T15:06:01.714Z</time></trkpt></trkseg></trk></gpx>